<?xml version='1.0' encoding='UTF-8'?><gpx version="1.1" creator="JPX - https://github.com/jenetics/jpx" xmlns="http://www.topografix.com/GPX/1/1"><trk><trkseg><trkpt lat="43.7097484" lon="10.439705"><ele>7.999999999999999</ele><time>2026-04-18T10:59:32.988Z</time></trkpt><trkpt lat="43.7098034" lon="10.4396277"><ele>8.0</ele><time>2026-04-18T10:59:34.988Z</time></trkpt><trkpt lat="43.7098663" lon="10.43957"><ele>8.0</ele><time>2026-04-18T10:59:37.988Z</time></trkpt><trkpt lat="43.7099384" lon="10.4396285"><ele>8.0</ele><time>2026-04-18T10:59:40.988Z</time></trkpt><trkpt lat="43.7100369" lon="10.439653"><ele>7.999999999999999</ele><time>2026-04-18T10:59:41.988Z</time></trkpt><trkpt lat="43.7101" lon="10.4397472"><ele>8.0</ele><time>2026-04-18T10:59:42.988Z</time></trkpt><trkpt lat="43.7101582" lon="10.4398242"><ele>7.999999999999999</ele><time>2026-04-18T10:59:43.988Z</time></trkpt><trkpt lat="43.7102099" lon="10.4398852"><ele>8.0</ele><time>2026-04-18T10:59:44.988Z</time></trkpt><trkpt lat="43.7102864" lon="10.4399926"><ele>8.0</ele><time>2026-04-18T10:59:46.988Z</time></trkpt><trkpt lat="43.7103402" lon="10.440109"><ele>8.0</ele><time>2026-04-18T10:59:48.988Z</time></trkpt><trkpt lat="43.7103995" lon="10.4401418"><ele>7.999999999999999</ele><time>2026-04-18T10:59:51.988Z</time></trkpt><trkpt lat="43.7104595" lon="10.4401967"><ele>8.0</ele><time>2026-04-18T11:02:37.988Z</time></trkpt><trkpt lat="43.7104617" lon="10.4403497"><ele>7.142857142857142</ele><time>2026-04-18T11:02:39.988Z</time></trkpt><trkpt lat="43.7104725" lon="10.4404436"><ele>6.285714285714285</ele><time>2026-04-18T11:02:40.988Z</time></trkpt><trkpt lat="43.7104845" lon="10.4405376"><ele>5.428571428571428</ele><time>2026-04-18T11:02:41.988Z</time></trkpt><trkpt lat="43.7105022" lon="10.440637"><ele>4.571428571428571</ele><time>2026-04-18T11:02:42.988Z</time></trkpt><trkpt lat="43.710521" lon="10.4407508"><ele>3.714285714285714</ele><time>2026-04-18T11:02:43.988Z</time></trkpt><trkpt lat="43.7105409" lon="10.4408558"><ele>2.8571428571428568</ele><time>2026-04-18T11:02:44.988Z</time></trkpt><trkpt lat="43.7105568" lon="10.4409464"><ele>2.0</ele><time>2026-04-18T11:02:45.988Z</time></trkpt><trkpt lat="43.7105718" lon="10.4410705"><ele>2.0</ele><time>2026-04-18T11:02:47.988Z</time></trkpt><trkpt lat="43.7105083" lon="10.4410998"><ele>2.0</ele><time>2026-04-18T11:02:52.988Z</time></trkpt><trkpt lat="43.7104154" lon="10.4409915"><ele>2.0</ele><time>2026-04-18T11:02:54.989Z</time></trkpt><trkpt lat="43.7103129" lon="10.4408476"><ele>2.0</ele><time>2026-04-18T11:02:55.988Z</time></trkpt><trkpt lat="43.7102244" lon="10.4407317"><ele>2.75</ele><time>2026-04-18T11:02:56.988Z</time></trkpt><trkpt lat="43.7101333" lon="10.4406015"><ele>3.5</ele><time>2026-04-18T11:02:57.988Z</time></trkpt><trkpt lat="43.7100504" lon="10.4404881"><ele>4.25</ele><time>2026-04-18T11:02:58.988Z</time></trkpt><trkpt lat="43.7099688" lon="10.4403731"><ele>5.0</ele><time>2026-04-18T11:02:59.988Z</time></trkpt><trkpt lat="43.7098946" lon="10.440263"><ele>5.6</ele><time>2026-04-18T11:03:00.988Z</time></trkpt><trkpt lat="43.7098262" lon="10.4401682"><ele>6.2</ele><time>2026-04-18T11:03:01.989Z</time></trkpt><trkpt lat="43.7097591" lon="10.440076"><ele>6.800000000000001</ele><time>2026-04-18T11:03:02.988Z</time></trkpt><trkpt lat="43.7096926" lon="10.4399861"><ele>7.4</ele><time>2026-04-18T11:03:03.988Z</time></trkpt><trkpt lat="43.7096284" lon="10.4398976"><ele>8.0</ele><time>2026-04-18T11:03:04.988Z</time></trkpt><trkpt lat="43.7095664" lon="10.439811"><ele>7.999999999999999</ele><time>2026-04-18T11:03:05.988Z</time></trkpt><trkpt lat="43.7095077" lon="10.439719"><ele>8.0</ele><time>2026-04-18T11:03:06.988Z</time></trkpt><trkpt lat="43.7094496" lon="10.4396297"><ele>8.0</ele><time>2026-04-18T11:03:07.988Z</time></trkpt><trkpt lat="43.7093908" lon="10.4395396"><ele>8.0</ele><time>2026-04-18T11:03:08.988Z</time></trkpt><trkpt lat="43.7093296" lon="10.4394544"><ele>7.999999999999999</ele><time>2026-04-18T11:03:09.988Z</time></trkpt><trkpt lat="43.7092715" lon="10.4393538"><ele>8.0</ele><time>2026-04-18T11:03:10.988Z</time></trkpt><trkpt lat="43.7092133" lon="10.4392694"><ele>7.499999999999999</ele><time>2026-04-18T11:03:11.988Z</time></trkpt><trkpt lat="43.709151" lon="10.4391829"><ele>7.0</ele><time>2026-04-18T11:03:12.988Z</time></trkpt><trkpt lat="43.7090916" lon="10.4390944"><ele>6.5</ele><time>2026-04-18T11:03:13.988Z</time></trkpt><trkpt lat="43.7090346" lon="10.4390056"><ele>6.0</ele><time>2026-04-18T11:03:14.988Z</time></trkpt><trkpt lat="43.7089737" lon="10.4389244"><ele>5.5</ele><time>2026-04-18T11:03:15.988Z</time></trkpt><trkpt lat="43.7089102" lon="10.4388351"><ele>5.0</ele><time>2026-04-18T11:03:16.988Z</time></trkpt><trkpt lat="43.7088514" lon="10.4387484"><ele>4.833333333333334</ele><time>2026-04-18T11:03:17.988Z</time></trkpt><trkpt lat="43.7087956" lon="10.4386629"><ele>4.666666666666667</ele><time>2026-04-18T11:03:18.988Z</time></trkpt><trkpt lat="43.7087297" lon="10.4385766"><ele>4.5</ele><time>2026-04-18T11:03:19.988Z</time></trkpt><trkpt lat="43.7086732" lon="10.438494"><ele>4.333333333333333</ele><time>2026-04-18T11:03:20.988Z</time></trkpt><trkpt lat="43.7086135" lon="10.4384142"><ele>4.166666666666666</ele><time>2026-04-18T11:03:21.988Z</time></trkpt><trkpt lat="43.7085532" lon="10.4383234"><ele>4.0</ele><time>2026-04-18T11:03:22.988Z</time></trkpt><trkpt lat="43.7084933" lon="10.4382269"><ele>4.0</ele><time>2026-04-18T11:03:23.988Z</time></trkpt><trkpt lat="43.7084224" lon="10.4381212"><ele>4.0</ele><time>2026-04-18T11:03:24.989Z</time></trkpt><trkpt lat="43.7083533" lon="10.438023"><ele>4.0</ele><time>2026-04-18T11:03:25.988Z</time></trkpt><trkpt lat="43.7082803" lon="10.4379328"><ele>4.0</ele><time>2026-04-18T11:03:26.989Z</time></trkpt><trkpt lat="43.7082159" lon="10.4378502"><ele>4.0</ele><time>2026-04-18T11:03:27.989Z</time></trkpt><trkpt lat="43.708154" lon="10.4377733"><ele>3.8571428571428568</ele><time>2026-04-18T11:03:28.988Z</time></trkpt><trkpt lat="43.7081049" lon="10.4377172"><ele>3.714285714285714</ele><time>2026-04-18T11:03:29.989Z</time></trkpt><trkpt lat="43.7080565" lon="10.4376518"><ele>3.571428571428571</ele><time>2026-04-18T11:03:36.988Z</time></trkpt><trkpt lat="43.7080134" lon="10.4375717"><ele>3.4285714285714284</ele><time>2026-04-18T11:03:40.988Z</time></trkpt><trkpt lat="43.7079771" lon="10.4374469"><ele>3.2857142857142856</ele><time>2026-04-18T11:03:42.989Z</time></trkpt><trkpt lat="43.7079561" lon="10.4373534"><ele>3.1428571428571423</ele><time>2026-04-18T11:03:43.988Z</time></trkpt><trkpt lat="43.707929" lon="10.4372612"><ele>3.0</ele><time>2026-04-18T11:03:44.988Z</time></trkpt><trkpt lat="43.7079147" lon="10.4371555"><ele>2.5</ele><time>2026-04-18T11:03:45.989Z</time></trkpt><trkpt lat="43.7079214" lon="10.4370313"><ele>2.0</ele><time>2026-04-18T11:03:46.988Z</time></trkpt><trkpt lat="43.7079601" lon="10.436875"><ele>1.5</ele><time>2026-04-18T11:03:47.988Z</time></trkpt><trkpt lat="43.7080105" lon="10.4367056"><ele>1.0</ele><time>2026-04-18T11:03:48.989Z</time></trkpt><trkpt lat="43.7080737" lon="10.4365095"><ele>1.0</ele><time>2026-04-18T11:03:49.988Z</time></trkpt><trkpt lat="43.7081409" lon="10.4363081"><ele>1.0</ele><time>2026-04-18T11:03:50.988Z</time></trkpt><trkpt lat="43.70821" lon="10.436111"><ele>1.0</ele><time>2026-04-18T11:03:51.988Z</time></trkpt><trkpt lat="43.7082717" lon="10.4359287"><ele>0.75</ele><time>2026-04-18T11:03:52.988Z</time></trkpt><trkpt lat="43.7083311" lon="10.435757"><ele>0.5</ele><time>2026-04-18T11:03:53.988Z</time></trkpt><trkpt lat="43.7083875" lon="10.4355975"><ele>0.25</ele><time>2026-04-18T11:03:54.988Z</time></trkpt><trkpt lat="43.7084437" lon="10.4354405"><ele>0.0</ele><time>2026-04-18T11:03:55.988Z</time></trkpt><trkpt lat="43.7084915" lon="10.4353039"><ele>0.0</ele><time>2026-04-18T11:03:56.988Z</time></trkpt><trkpt lat="43.7085459" lon="10.4351615"><ele>0.0</ele><time>2026-04-18T11:03:57.988Z</time></trkpt><trkpt lat="43.7086497" lon="10.4348768"><ele>0.0</ele><time>2026-04-18T11:03:59.988Z</time></trkpt><trkpt lat="43.7087029" lon="10.4347244"><ele>0.8</ele><time>2026-04-18T11:04:00.988Z</time></trkpt><trkpt lat="43.7087598" lon="10.4345728"><ele>1.6</ele><time>2026-04-18T11:04:01.988Z</time></trkpt><trkpt lat="43.7088176" lon="10.4344303"><ele>2.4000000000000004</ele><time>2026-04-18T11:04:02.988Z</time></trkpt><trkpt lat="43.7088793" lon="10.4343052"><ele>3.2</ele><time>2026-04-18T11:04:03.988Z</time></trkpt><trkpt lat="43.7089375" lon="10.4342088"><ele>4.0</ele><time>2026-04-18T11:04:04.988Z</time></trkpt><trkpt lat="43.7089832" lon="10.4341227"><ele>3.9999999999999996</ele><time>2026-04-18T11:04:05.988Z</time></trkpt><trkpt lat="43.7090397" lon="10.433988"><ele>4.0</ele><time>2026-04-18T11:04:07.988Z</time></trkpt><trkpt lat="43.7090722" lon="10.4339059"><ele>4.0</ele><time>2026-04-18T11:04:10.988Z</time></trkpt><trkpt lat="43.7091046" lon="10.4337639"><ele>4.0</ele><time>2026-04-18T11:08:49.988Z</time></trkpt><trkpt lat="43.7091239" lon="10.4336787"><ele>3.9999999999999996</ele><time>2026-04-18T11:08:50.988Z</time></trkpt><trkpt lat="43.7091512" lon="10.4335786"><ele>4.0</ele><time>2026-04-18T11:08:51.988Z</time></trkpt><trkpt lat="43.7091785" lon="10.4334739"><ele>3.6666666666666665</ele><time>2026-04-18T11:08:52.988Z</time></trkpt><trkpt lat="43.7092116" lon="10.4333752"><ele>3.333333333333333</ele><time>2026-04-18T11:08:53.988Z</time></trkpt><trkpt lat="43.7092449" lon="10.4332836"><ele>3.0</ele><time>2026-04-18T11:08:54.988Z</time></trkpt><trkpt lat="43.709273" lon="10.4331992"><ele>2.6666666666666665</ele><time>2026-04-18T11:08:55.988Z</time></trkpt><trkpt lat="43.7093508" lon="10.4330767"><ele>2.333333333333333</ele><time>2026-04-18T11:08:57.988Z</time></trkpt><trkpt lat="43.7094032" lon="10.4329528"><ele>2.0</ele><time>2026-04-18T11:08:59.988Z</time></trkpt><trkpt lat="43.7093618" lon="10.4328457"><ele>2.0</ele><time>2026-04-18T11:09:01.989Z</time></trkpt><trkpt lat="43.7092841" lon="10.4328846"><ele>2.0</ele><time>2026-04-18T11:09:03.988Z</time></trkpt><trkpt lat="43.7092442" lon="10.4330565"><ele>2.0</ele><time>2026-04-18T11:09:05.988Z</time></trkpt><trkpt lat="43.7092163" lon="10.4331821"><ele>2.0</ele><time>2026-04-18T11:09:06.988Z</time></trkpt><trkpt lat="43.709177" lon="10.4333127"><ele>2.0</ele><time>2026-04-18T11:09:07.988Z</time></trkpt><trkpt lat="43.7091367" lon="10.4334464"><ele>2.0</ele><time>2026-04-18T11:09:08.989Z</time></trkpt><trkpt lat="43.7090914" lon="10.4335871"><ele>2.0</ele><time>2026-04-18T11:09:09.989Z</time></trkpt><trkpt lat="43.7090451" lon="10.4337277"><ele>2.0</ele><time>2026-04-18T11:09:10.988Z</time></trkpt><trkpt lat="43.708992" lon="10.4338674"><ele>2.0</ele><time>2026-04-18T11:09:11.988Z</time></trkpt><trkpt lat="43.7089481" lon="10.4340048"><ele>2.0</ele><time>2026-04-18T11:09:12.988Z</time></trkpt><trkpt lat="43.7088963" lon="10.4341426"><ele>2.2</ele><time>2026-04-18T11:09:13.988Z</time></trkpt><trkpt lat="43.7088475" lon="10.4342822"><ele>2.4000000000000004</ele><time>2026-04-18T11:09:14.988Z</time></trkpt><trkpt lat="43.7087972" lon="10.4344159"><ele>2.5999999999999996</ele><time>2026-04-18T11:09:15.988Z</time></trkpt><trkpt lat="43.7087532" lon="10.4345445"><ele>2.8</ele><time>2026-04-18T11:09:16.988Z</time></trkpt><trkpt lat="43.7087059" lon="10.4346811"><ele>3.0</ele><time>2026-04-18T11:09:17.988Z</time></trkpt><trkpt lat="43.7086531" lon="10.4348414"><ele>3.0</ele><time>2026-04-18T11:09:18.988Z</time></trkpt><trkpt lat="43.7085781" lon="10.4350249"><ele>3.0</ele><time>2026-04-18T11:09:19.988Z</time></trkpt><trkpt lat="43.7085043" lon="10.4352262"><ele>3.0</ele><time>2026-04-18T11:09:20.989Z</time></trkpt><trkpt lat="43.7084363" lon="10.4354145"><ele>2.0</ele><time>2026-04-18T11:09:21.988Z</time></trkpt><trkpt lat="43.708375" lon="10.435588"><ele>1.0</ele><time>2026-04-18T11:09:22.988Z</time></trkpt><trkpt lat="43.7083173" lon="10.4357503"><ele>0.0</ele><time>2026-04-18T11:09:23.988Z</time></trkpt><trkpt lat="43.7082676" lon="10.435897"><ele>-1.0</ele><time>2026-04-18T11:09:24.988Z</time></trkpt><trkpt lat="43.7082186" lon="10.4360338"><ele>-0.9999999999999999</ele><time>2026-04-18T11:09:25.988Z</time></trkpt><trkpt lat="43.7081733" lon="10.4361626"><ele>-1.0</ele><time>2026-04-18T11:09:26.989Z</time></trkpt><trkpt lat="43.7081309" lon="10.43628"><ele>-1.0</ele><time>2026-04-18T11:09:27.988Z</time></trkpt><trkpt lat="43.7080921" lon="10.4363917"><ele>-1.0</ele><time>2026-04-18T11:09:28.988Z</time></trkpt><trkpt lat="43.7080525" lon="10.4364947"><ele>-0.9999999999999999</ele><time>2026-04-18T11:09:29.988Z</time></trkpt><trkpt lat="43.7080163" lon="10.436586"><ele>-1.0</ele><time>2026-04-18T11:09:30.988Z</time></trkpt><trkpt lat="43.7079797" lon="10.4366735"><ele>-0.6000000000000001</ele><time>2026-04-18T11:09:31.989Z</time></trkpt><trkpt lat="43.7079459" lon="10.4367586"><ele>-0.20000000000000007</ele><time>2026-04-18T11:09:32.988Z</time></trkpt><trkpt lat="43.7079104" lon="10.4368356"><ele>0.20000000000000007</ele><time>2026-04-18T11:09:33.988Z</time></trkpt><trkpt lat="43.7078279" lon="10.4369477"><ele>0.6000000000000001</ele><time>2026-04-18T11:09:35.988Z</time></trkpt><trkpt lat="43.7077284" lon="10.4369952"><ele>1.0</ele><time>2026-04-18T11:09:37.988Z</time></trkpt><trkpt lat="43.7076129" lon="10.4369384"><ele>1.0</ele><time>2026-04-18T11:09:39.988Z</time></trkpt><trkpt lat="43.7075546" lon="10.4368645"><ele>1.0</ele><time>2026-04-18T11:09:40.989Z</time></trkpt><trkpt lat="43.7074774" lon="10.4367438"><ele>1.0</ele><time>2026-04-18T11:09:41.988Z</time></trkpt><trkpt lat="43.7074063" lon="10.4366093"><ele>1.0</ele><time>2026-04-18T11:09:42.989Z</time></trkpt><trkpt lat="43.7073462" lon="10.4364714"><ele>1.0</ele><time>2026-04-18T11:09:43.988Z</time></trkpt><trkpt lat="43.7073078" lon="10.4363365"><ele>0.8333333333333333</ele><time>2026-04-18T11:09:44.988Z</time></trkpt><trkpt lat="43.7072672" lon="10.4362028"><ele>0.6666666666666666</ele><time>2026-04-18T11:09:45.988Z</time></trkpt><trkpt lat="43.7072338" lon="10.4360839"><ele>0.5</ele><time>2026-04-18T11:09:46.988Z</time></trkpt><trkpt lat="43.7072086" lon="10.4359826"><ele>0.3333333333333333</ele><time>2026-04-18T11:09:47.988Z</time></trkpt><trkpt lat="43.7071882" lon="10.435895"><ele>0.16666666666666666</ele><time>2026-04-18T11:09:48.988Z</time></trkpt><trkpt lat="43.7071579" lon="10.4357819"><ele>0.0</ele><time>2026-04-18T11:09:50.988Z</time></trkpt><trkpt lat="43.707128" lon="10.435654"><ele>0.0</ele><time>2026-04-18T11:09:53.988Z</time></trkpt><trkpt lat="43.7070978" lon="10.4354869"><ele>0.0</ele><time>2026-04-18T11:09:55.988Z</time></trkpt><trkpt lat="43.7070729" lon="10.4353857"><ele>0.0</ele><time>2026-04-18T11:09:56.988Z</time></trkpt><trkpt lat="43.7070411" lon="10.4352891"><ele>0.0</ele><time>2026-04-18T11:09:57.988Z</time></trkpt><trkpt lat="43.706986" lon="10.4352076"><ele>0.0</ele><time>2026-04-18T11:09:58.989Z</time></trkpt><trkpt lat="43.706923" lon="10.4351542"><ele>0.0</ele><time>2026-04-18T11:09:59.988Z</time></trkpt><trkpt lat="43.7068473" lon="10.4351141"><ele>1.0</ele><time>2026-04-18T11:10:00.988Z</time></trkpt><trkpt lat="43.7067639" lon="10.4351052"><ele>2.0</ele><time>2026-04-18T11:10:01.988Z</time></trkpt><trkpt lat="43.7066689" lon="10.4351298"><ele>3.0</ele><time>2026-04-18T11:10:02.988Z</time></trkpt><trkpt lat="43.7065544" lon="10.4351782"><ele>4.0</ele><time>2026-04-18T11:10:03.988Z</time></trkpt><trkpt lat="43.7064486" lon="10.4352454"><ele>5.0</ele><time>2026-04-18T11:10:04.988Z</time></trkpt><trkpt lat="43.7063452" lon="10.4353168"><ele>5.0</ele><time>2026-04-18T11:10:05.988Z</time></trkpt><trkpt lat="43.7062446" lon="10.4353811"><ele>5.0</ele><time>2026-04-18T11:10:06.988Z</time></trkpt><trkpt lat="43.7061488" lon="10.4354373"><ele>5.0</ele><time>2026-04-18T11:10:07.988Z</time></trkpt><trkpt lat="43.706052" lon="10.4354851"><ele>5.0</ele><time>2026-04-18T11:10:08.988Z</time></trkpt><trkpt lat="43.7059584" lon="10.4355141"><ele>5.0</ele><time>2026-04-18T11:10:09.988Z</time></trkpt><trkpt lat="43.7058584" lon="10.4355385"><ele>4.8</ele><time>2026-04-18T11:10:10.988Z</time></trkpt><trkpt lat="43.705766" lon="10.4355612"><ele>4.6</ele><time>2026-04-18T11:10:11.988Z</time></trkpt><trkpt lat="43.7056711" lon="10.4355745"><ele>4.4</ele><time>2026-04-18T11:10:12.988Z</time></trkpt><trkpt lat="43.7055738" lon="10.4355913"><ele>4.2</ele><time>2026-04-18T11:10:13.988Z</time></trkpt><trkpt lat="43.7054695" lon="10.4355968"><ele>4.0</ele><time>2026-04-18T11:10:14.988Z</time></trkpt><trkpt lat="43.7053668" lon="10.4356096"><ele>4.0</ele><time>2026-04-18T11:10:15.988Z</time></trkpt><trkpt lat="43.7052628" lon="10.4356251"><ele>4.0</ele><time>2026-04-18T11:10:16.988Z</time></trkpt><trkpt lat="43.7051565" lon="10.4356409"><ele>4.0</ele><time>2026-04-18T11:10:17.988Z</time></trkpt><trkpt lat="43.7050551" lon="10.4356593"><ele>4.0</ele><time>2026-04-18T11:10:18.988Z</time></trkpt><trkpt lat="43.7049577" lon="10.435658"><ele>4.0</ele><time>2026-04-18T11:10:19.988Z</time></trkpt><trkpt lat="43.7048671" lon="10.4356683"><ele>4.2</ele><time>2026-04-18T11:10:20.988Z</time></trkpt><trkpt lat="43.704784" lon="10.4356734"><ele>4.4</ele><time>2026-04-18T11:10:21.988Z</time></trkpt><trkpt lat="43.704718" lon="10.4356744"><ele>4.6</ele><time>2026-04-18T11:10:22.988Z</time></trkpt><trkpt lat="43.7046214" lon="10.4356881"><ele>4.8</ele><time>2026-04-18T11:10:24.988Z</time></trkpt><trkpt lat="43.7045504" lon="10.4356871"><ele>5.0</ele><time>2026-04-18T11:10:26.988Z</time></trkpt><trkpt lat="43.7043817" lon="10.4356961"><ele>5.0</ele><time>2026-04-18T11:10:37.988Z</time></trkpt><trkpt lat="43.7043056" lon="10.4357164"><ele>5.0</ele><time>2026-04-18T11:10:56.988Z</time></trkpt><trkpt lat="43.7041819" lon="10.4357371"><ele>5.0</ele><time>2026-04-18T11:10:58.988Z</time></trkpt><trkpt lat="43.7041061" lon="10.4357518"><ele>5.0</ele><time>2026-04-18T11:10:59.988Z</time></trkpt><trkpt lat="43.7040292" lon="10.4357648"><ele>5.0</ele><time>2026-04-18T11:11:00.988Z</time></trkpt><trkpt lat="43.7039384" lon="10.4357766"><ele>5.0</ele><time>2026-04-18T11:11:01.988Z</time></trkpt><trkpt lat="43.7038279" lon="10.4357898"><ele>5.0</ele><time>2026-04-18T11:11:02.988Z</time></trkpt><trkpt lat="43.7037106" lon="10.4358017"><ele>5.0</ele><time>2026-04-18T11:11:03.988Z</time></trkpt><trkpt lat="43.7035905" lon="10.4358143"><ele>5.0</ele><time>2026-04-18T11:11:04.988Z</time></trkpt><trkpt lat="43.7034618" lon="10.4358263"><ele>5.0</ele><time>2026-04-18T11:11:05.988Z</time></trkpt><trkpt lat="43.7033434" lon="10.435841"><ele>4.0</ele><time>2026-04-18T11:11:06.988Z</time></trkpt><trkpt lat="43.7032225" lon="10.4358486"><ele>3.0</ele><time>2026-04-18T11:11:07.988Z</time></trkpt><trkpt lat="43.7031012" lon="10.4358548"><ele>2.0</ele><time>2026-04-18T11:11:08.988Z</time></trkpt><trkpt lat="43.7029773" lon="10.4358686"><ele>1.0</ele><time>2026-04-18T11:11:09.988Z</time></trkpt><trkpt lat="43.7028506" lon="10.4358792"><ele>1.6666666666666665</ele><time>2026-04-18T11:11:10.988Z</time></trkpt><trkpt lat="43.7026996" lon="10.4358977"><ele>2.3333333333333335</ele><time>2026-04-18T11:11:11.988Z</time></trkpt><trkpt lat="43.7025539" lon="10.435918"><ele>3.0</ele><time>2026-04-18T11:11:12.988Z</time></trkpt><trkpt lat="43.7023815" lon="10.4359311"><ele>3.0</ele><time>2026-04-18T11:11:13.988Z</time></trkpt><trkpt lat="43.7022136" lon="10.4359495"><ele>3.0</ele><time>2026-04-18T11:11:14.988Z</time></trkpt><trkpt lat="43.7020535" lon="10.4359645"><ele>3.0</ele><time>2026-04-18T11:11:15.988Z</time></trkpt><trkpt lat="43.7019002" lon="10.43598"><ele>3.0</ele><time>2026-04-18T11:11:16.988Z</time></trkpt><trkpt lat="43.7017567" lon="10.4359936"><ele>3.0</ele><time>2026-04-18T11:11:17.988Z</time></trkpt><trkpt lat="43.7016231" lon="10.4359979"><ele>3.0</ele><time>2026-04-18T11:11:18.988Z</time></trkpt><trkpt lat="43.701495" lon="10.4360024"><ele>3.0</ele><time>2026-04-18T11:11:19.988Z</time></trkpt><trkpt lat="43.7013759" lon="10.4360179"><ele>3.0</ele><time>2026-04-18T11:11:20.988Z</time></trkpt><trkpt lat="43.7012667" lon="10.43602"><ele>3.0</ele><time>2026-04-18T11:11:21.988Z</time></trkpt><trkpt lat="43.7011665" lon="10.4360303"><ele>3.0</ele><time>2026-04-18T11:11:22.988Z</time></trkpt><trkpt lat="43.7010759" lon="10.4360409"><ele>3.0</ele><time>2026-04-18T11:11:23.989Z</time></trkpt><trkpt lat="43.7009918" lon="10.4360497"><ele>3.0</ele><time>2026-04-18T11:11:24.988Z</time></trkpt><trkpt lat="43.7009159" lon="10.4360657"><ele>3.0</ele><time>2026-04-18T11:11:25.988Z</time></trkpt><trkpt lat="43.7008443" lon="10.4360704"><ele>3.0</ele><time>2026-04-18T11:11:26.988Z</time></trkpt><trkpt lat="43.7007086" lon="10.4360471"><ele>3.0</ele><time>2026-04-18T11:11:28.988Z</time></trkpt><trkpt lat="43.7006342" lon="10.4359902"><ele>3.0</ele><time>2026-04-18T11:11:29.988Z</time></trkpt><trkpt lat="43.7005657" lon="10.4359221"><ele>3.0</ele><time>2026-04-18T11:11:30.988Z</time></trkpt><trkpt lat="43.7004876" lon="10.4358795"><ele>3.0</ele><time>2026-04-18T11:11:31.988Z</time></trkpt><trkpt lat="43.7004093" lon="10.4358748"><ele>3.0</ele><time>2026-04-18T11:11:32.988Z</time></trkpt><trkpt lat="43.7003339" lon="10.4358998"><ele>3.0</ele><time>2026-04-18T11:11:33.988Z</time></trkpt><trkpt lat="43.7002584" lon="10.4359642"><ele>3.0</ele><time>2026-04-18T11:11:34.988Z</time></trkpt><trkpt lat="43.7001864" lon="10.4360356"><ele>3.0</ele><time>2026-04-18T11:11:35.989Z</time></trkpt><trkpt lat="43.7000975" lon="10.4360795"><ele>3.0</ele><time>2026-04-18T11:11:36.989Z</time></trkpt><trkpt lat="43.6999874" lon="10.4361081"><ele>3.25</ele><time>2026-04-18T11:11:37.988Z</time></trkpt><trkpt lat="43.6998757" lon="10.4361169"><ele>3.5</ele><time>2026-04-18T11:11:38.988Z</time></trkpt><trkpt lat="43.6997593" lon="10.4361298"><ele>3.75</ele><time>2026-04-18T11:11:39.988Z</time></trkpt><trkpt lat="43.6996408" lon="10.4361382"><ele>4.0</ele><time>2026-04-18T11:11:40.988Z</time></trkpt><trkpt lat="43.699518" lon="10.436133"><ele>4.333333333333333</ele><time>2026-04-18T11:11:41.988Z</time></trkpt><trkpt lat="43.6993668" lon="10.4361266"><ele>4.666666666666667</ele><time>2026-04-18T11:11:42.988Z</time></trkpt><trkpt lat="43.6992106" lon="10.436114"><ele>5.0</ele><time>2026-04-18T11:11:43.988Z</time></trkpt><trkpt lat="43.6990512" lon="10.4360917"><ele>5.0</ele><time>2026-04-18T11:11:44.988Z</time></trkpt><trkpt lat="43.698886" lon="10.4360554"><ele>5.0</ele><time>2026-04-18T11:11:45.988Z</time></trkpt><trkpt lat="43.698716" lon="10.4360111"><ele>5.0</ele><time>2026-04-18T11:11:46.988Z</time></trkpt><trkpt lat="43.6985431" lon="10.4359624"><ele>4.0</ele><time>2026-04-18T11:11:47.989Z</time></trkpt><trkpt lat="43.6983575" lon="10.435904"><ele>3.0</ele><time>2026-04-18T11:11:48.988Z</time></trkpt><trkpt lat="43.6981634" lon="10.4358421"><ele>2.0</ele><time>2026-04-18T11:11:49.988Z</time></trkpt><trkpt lat="43.6979526" lon="10.4357778"><ele>3.0</ele><time>2026-04-18T11:11:50.988Z</time></trkpt><trkpt lat="43.6977431" lon="10.4357103"><ele>4.0</ele><time>2026-04-18T11:11:51.988Z</time></trkpt><trkpt lat="43.6975428" lon="10.4356476"><ele>5.0</ele><time>2026-04-18T11:11:52.989Z</time></trkpt><trkpt lat="43.697343" lon="10.4355821"><ele>5.0</ele><time>2026-04-18T11:11:53.988Z</time></trkpt><trkpt lat="43.6971373" lon="10.4355167"><ele>5.0</ele><time>2026-04-18T11:11:54.988Z</time></trkpt><trkpt lat="43.6969301" lon="10.4354518"><ele>5.0</ele><time>2026-04-18T11:11:55.988Z</time></trkpt><trkpt lat="43.6967219" lon="10.4353853"><ele>5.333333333333334</ele><time>2026-04-18T11:11:56.988Z</time></trkpt><trkpt lat="43.6965115" lon="10.4353179"><ele>5.666666666666667</ele><time>2026-04-18T11:11:57.988Z</time></trkpt><trkpt lat="43.6962987" lon="10.4352524"><ele>6.0</ele><time>2026-04-18T11:11:58.988Z</time></trkpt><trkpt lat="43.6960784" lon="10.4351807"><ele>6.0</ele><time>2026-04-18T11:11:59.988Z</time></trkpt><trkpt lat="43.6958536" lon="10.435112"><ele>6.0</ele><time>2026-04-18T11:12:00.988Z</time></trkpt><trkpt lat="43.695631" lon="10.43505"><ele>6.0</ele><time>2026-04-18T11:12:01.988Z</time></trkpt><trkpt lat="43.6954033" lon="10.4350003"><ele>6.0</ele><time>2026-04-18T11:12:02.988Z</time></trkpt><trkpt lat="43.6951787" lon="10.4349621"><ele>5.666666666666667</ele><time>2026-04-18T11:12:03.988Z</time></trkpt><trkpt lat="43.6949564" lon="10.4349328"><ele>5.333333333333334</ele><time>2026-04-18T11:12:04.988Z</time></trkpt><trkpt lat="43.6947383" lon="10.4349157"><ele>5.0</ele><time>2026-04-18T11:12:05.988Z</time></trkpt><trkpt lat="43.6945226" lon="10.4349108"><ele>4.5</ele><time>2026-04-18T11:12:06.988Z</time></trkpt><trkpt lat="43.6942968" lon="10.4349199"><ele>4.0</ele><time>2026-04-18T11:12:07.988Z</time></trkpt><trkpt lat="43.6940641" lon="10.4349347"><ele>4.0</ele><time>2026-04-18T11:12:08.988Z</time></trkpt><trkpt lat="43.6938337" lon="10.4349471"><ele>4.0</ele><time>2026-04-18T11:12:09.988Z</time></trkpt><trkpt lat="43.6936037" lon="10.4349627"><ele>4.0</ele><time>2026-04-18T11:12:10.988Z</time></trkpt><trkpt lat="43.6933753" lon="10.4349761"><ele>4.0</ele><time>2026-04-18T11:12:11.988Z</time></trkpt><trkpt lat="43.693143" lon="10.4349853"><ele>4.0</ele><time>2026-04-18T11:12:12.988Z</time></trkpt><trkpt lat="43.6929077" lon="10.4349957"><ele>4.0</ele><time>2026-04-18T11:12:13.988Z</time></trkpt><trkpt lat="43.6926583" lon="10.43501"><ele>3.0</ele><time>2026-04-18T11:12:14.988Z</time></trkpt><trkpt lat="43.6924108" lon="10.435025"><ele>2.0</ele><time>2026-04-18T11:12:15.988Z</time></trkpt><trkpt lat="43.6921761" lon="10.4350322"><ele>2.0</ele><time>2026-04-18T11:12:16.988Z</time></trkpt><trkpt lat="43.6919498" lon="10.4350493"><ele>2.0</ele><time>2026-04-18T11:12:17.988Z</time></trkpt><trkpt lat="43.6917254" lon="10.4350602"><ele>2.0</ele><time>2026-04-18T11:12:18.989Z</time></trkpt><trkpt lat="43.6915086" lon="10.4350566"><ele>2.0</ele><time>2026-04-18T11:12:19.988Z</time></trkpt><trkpt lat="43.6912907" lon="10.4350362"><ele>2.0</ele><time>2026-04-18T11:12:20.988Z</time></trkpt><trkpt lat="43.6910754" lon="10.4350017"><ele>1.5</ele><time>2026-04-18T11:12:21.989Z</time></trkpt><trkpt lat="43.6908607" lon="10.4349433"><ele>1.0</ele><time>2026-04-18T11:12:22.988Z</time></trkpt><trkpt lat="43.6906316" lon="10.4348539"><ele>1.0</ele><time>2026-04-18T11:12:23.988Z</time></trkpt><trkpt lat="43.6903926" lon="10.434749"><ele>1.0</ele><time>2026-04-18T11:12:24.989Z</time></trkpt><trkpt lat="43.690147" lon="10.4346317"><ele>2.0</ele><time>2026-04-18T11:12:25.988Z</time></trkpt><trkpt lat="43.6898886" lon="10.4344815"><ele>3.0</ele><time>2026-04-18T11:12:26.988Z</time></trkpt><trkpt lat="43.6896243" lon="10.4343132"><ele>2.5</ele><time>2026-04-18T11:12:27.988Z</time></trkpt><trkpt lat="43.6893644" lon="10.4341387"><ele>2.0</ele><time>2026-04-18T11:12:28.988Z</time></trkpt><trkpt lat="43.6891191" lon="10.4339714"><ele>2.0</ele><time>2026-04-18T11:12:29.988Z</time></trkpt><trkpt lat="43.6888908" lon="10.4338126"><ele>2.0</ele><time>2026-04-18T11:12:30.988Z</time></trkpt><trkpt lat="43.688677" lon="10.4336642"><ele>1.6666666666666665</ele><time>2026-04-18T11:12:31.988Z</time></trkpt><trkpt lat="43.6884736" lon="10.4335247"><ele>1.3333333333333333</ele><time>2026-04-18T11:12:32.988Z</time></trkpt><trkpt lat="43.6882904" lon="10.4334009"><ele>1.0</ele><time>2026-04-18T11:12:33.988Z</time></trkpt><trkpt lat="43.6881166" lon="10.4332771"><ele>1.0</ele><time>2026-04-18T11:12:34.988Z</time></trkpt><trkpt lat="43.6879548" lon="10.4331601"><ele>1.0</ele><time>2026-04-18T11:12:35.988Z</time></trkpt><trkpt lat="43.6878042" lon="10.4330659"><ele>1.0</ele><time>2026-04-18T11:12:36.988Z</time></trkpt><trkpt lat="43.6876773" lon="10.4329837"><ele>1.4</ele><time>2026-04-18T11:12:37.989Z</time></trkpt><trkpt lat="43.6875735" lon="10.4329114"><ele>1.8</ele><time>2026-04-18T11:12:38.988Z</time></trkpt><trkpt lat="43.6874884" lon="10.4328158"><ele>2.1999999999999997</ele><time>2026-04-18T11:12:39.988Z</time></trkpt><trkpt lat="43.6874205" lon="10.4327084"><ele>2.6</ele><time>2026-04-18T11:12:40.988Z</time></trkpt><trkpt lat="43.6873455" lon="10.4326263"><ele>3.0</ele><time>2026-04-18T11:12:41.988Z</time></trkpt><trkpt lat="43.6872557" lon="10.4325753"><ele>3.0</ele><time>2026-04-18T11:12:42.988Z</time></trkpt><trkpt lat="43.687132" lon="10.4325404"><ele>3.0</ele><time>2026-04-18T11:12:43.988Z</time></trkpt><trkpt lat="43.6869969" lon="10.4324918"><ele>3.0</ele><time>2026-04-18T11:12:44.988Z</time></trkpt><trkpt lat="43.6868317" lon="10.432407"><ele>3.0</ele><time>2026-04-18T11:12:45.988Z</time></trkpt><trkpt lat="43.6866635" lon="10.4322976"><ele>2.0</ele><time>2026-04-18T11:12:46.988Z</time></trkpt><trkpt lat="43.6864693" lon="10.4321648"><ele>1.0</ele><time>2026-04-18T11:12:47.988Z</time></trkpt><trkpt lat="43.6862527" lon="10.4320254"><ele>0.0</ele><time>2026-04-18T11:12:48.988Z</time></trkpt><trkpt lat="43.6860261" lon="10.4318689"><ele>-1.0</ele><time>2026-04-18T11:12:49.988Z</time></trkpt><trkpt lat="43.6858081" lon="10.4317232"><ele>-1.0</ele><time>2026-04-18T11:12:50.988Z</time></trkpt><trkpt lat="43.6856069" lon="10.4315865"><ele>-1.0</ele><time>2026-04-18T11:12:51.988Z</time></trkpt><trkpt lat="43.685409" lon="10.4314581"><ele>-1.0</ele><time>2026-04-18T11:12:52.988Z</time></trkpt><trkpt lat="43.6852314" lon="10.431339"><ele>0.0</ele><time>2026-04-18T11:12:53.988Z</time></trkpt><trkpt lat="43.685055" lon="10.4312217"><ele>1.0</ele><time>2026-04-18T11:12:54.988Z</time></trkpt><trkpt lat="43.6849019" lon="10.4311182"><ele>2.0</ele><time>2026-04-18T11:12:55.989Z</time></trkpt><trkpt lat="43.6847692" lon="10.4310284"><ele>2.0</ele><time>2026-04-18T11:12:56.989Z</time></trkpt><trkpt lat="43.6846617" lon="10.4309531"><ele>2.0</ele><time>2026-04-18T11:12:57.988Z</time></trkpt><trkpt lat="43.6845826" lon="10.4308962"><ele>2.0</ele><time>2026-04-18T11:12:58.988Z</time></trkpt><trkpt lat="43.6845134" lon="10.4308355"><ele>2.0</ele><time>2026-04-18T11:12:59.988Z</time></trkpt><trkpt lat="43.6844465" lon="10.4307632"><ele>2.0</ele><time>2026-04-18T11:13:00.988Z</time></trkpt><trkpt lat="43.684369" lon="10.4306936"><ele>2.0</ele><time>2026-04-18T11:13:01.988Z</time></trkpt><trkpt lat="43.6842644" lon="10.4306334"><ele>2.0</ele><time>2026-04-18T11:13:02.988Z</time></trkpt><trkpt lat="43.6841357" lon="10.4305658"><ele>2.0</ele><time>2026-04-18T11:13:03.988Z</time></trkpt><trkpt lat="43.6839913" lon="10.4304846"><ele>2.0</ele><time>2026-04-18T11:13:04.988Z</time></trkpt><trkpt lat="43.6838238" lon="10.4303772"><ele>2.0</ele><time>2026-04-18T11:13:05.988Z</time></trkpt><trkpt lat="43.6836517" lon="10.4302732"><ele>2.0</ele><time>2026-04-18T11:13:06.988Z</time></trkpt><trkpt lat="43.6834463" lon="10.4301576"><ele>2.0</ele><time>2026-04-18T11:13:07.988Z</time></trkpt><trkpt lat="43.6832227" lon="10.4300278"><ele>2.0</ele><time>2026-04-18T11:13:08.988Z</time></trkpt><trkpt lat="43.6829937" lon="10.4298864"><ele>2.0</ele><time>2026-04-18T11:13:09.988Z</time></trkpt><trkpt lat="43.6827495" lon="10.4297421"><ele>2.0</ele><time>2026-04-18T11:13:10.988Z</time></trkpt><trkpt lat="43.682501" lon="10.4295962"><ele>2.0</ele><time>2026-04-18T11:13:11.988Z</time></trkpt><trkpt lat="43.6822622" lon="10.4294537"><ele>2.0</ele><time>2026-04-18T11:13:12.989Z</time></trkpt><trkpt lat="43.6820333" lon="10.4293243"><ele>2.0</ele><time>2026-04-18T11:13:13.989Z</time></trkpt><trkpt lat="43.6818186" lon="10.4291949"><ele>2.0</ele><time>2026-04-18T11:13:14.988Z</time></trkpt><trkpt lat="43.6816047" lon="10.429071"><ele>2.0</ele><time>2026-04-18T11:13:15.988Z</time></trkpt><trkpt lat="43.6814018" lon="10.4289543"><ele>2.0</ele><time>2026-04-18T11:13:16.988Z</time></trkpt><trkpt lat="43.6812091" lon="10.4288454"><ele>2.0</ele><time>2026-04-18T11:13:17.988Z</time></trkpt><trkpt lat="43.6810243" lon="10.428736"><ele>2.0</ele><time>2026-04-18T11:13:18.988Z</time></trkpt><trkpt lat="43.6808541" lon="10.4286323"><ele>2.333333333333333</ele><time>2026-04-18T11:13:19.989Z</time></trkpt><trkpt lat="43.6806921" lon="10.4285347"><ele>2.6666666666666665</ele><time>2026-04-18T11:13:20.988Z</time></trkpt><trkpt lat="43.6805406" lon="10.4284475"><ele>3.0</ele><time>2026-04-18T11:13:21.988Z</time></trkpt><trkpt lat="43.6804036" lon="10.4283703"><ele>3.0</ele><time>2026-04-18T11:13:22.988Z</time></trkpt><trkpt lat="43.6802845" lon="10.4282928"><ele>3.0</ele><time>2026-04-18T11:13:23.988Z</time></trkpt><trkpt lat="43.6801844" lon="10.4282369"><ele>3.0</ele><time>2026-04-18T11:13:24.989Z</time></trkpt><trkpt lat="43.6801024" lon="10.428168"><ele>3.0</ele><time>2026-04-18T11:13:25.988Z</time></trkpt><trkpt lat="43.6800429" lon="10.4280855"><ele>3.0</ele><time>2026-04-18T11:13:26.988Z</time></trkpt><trkpt lat="43.6799913" lon="10.4279844"><ele>2.8</ele><time>2026-04-18T11:13:27.988Z</time></trkpt><trkpt lat="43.6799329" lon="10.4279116"><ele>2.5999999999999996</ele><time>2026-04-18T11:13:28.988Z</time></trkpt><trkpt lat="43.6798598" lon="10.4278632"><ele>2.4000000000000004</ele><time>2026-04-18T11:13:29.988Z</time></trkpt><trkpt lat="43.6797725" lon="10.4278449"><ele>2.2</ele><time>2026-04-18T11:13:30.988Z</time></trkpt><trkpt lat="43.6796602" lon="10.4278689"><ele>2.0</ele><time>2026-04-18T11:13:31.988Z</time></trkpt><trkpt lat="43.6795292" lon="10.4279062"><ele>1.6666666666666665</ele><time>2026-04-18T11:13:32.988Z</time></trkpt><trkpt lat="43.6793833" lon="10.4279576"><ele>1.3333333333333333</ele><time>2026-04-18T11:13:33.988Z</time></trkpt><trkpt lat="43.6792193" lon="10.4280167"><ele>1.0</ele><time>2026-04-18T11:13:34.988Z</time></trkpt><trkpt lat="43.6790507" lon="10.428083"><ele>1.0</ele><time>2026-04-18T11:13:35.988Z</time></trkpt><trkpt lat="43.6788622" lon="10.4281645"><ele>1.0</ele><time>2026-04-18T11:13:36.988Z</time></trkpt><trkpt lat="43.6786654" lon="10.4282739"><ele>1.0</ele><time>2026-04-18T11:13:37.988Z</time></trkpt><trkpt lat="43.678471" lon="10.4284019"><ele>1.0</ele><time>2026-04-18T11:13:38.988Z</time></trkpt><trkpt lat="43.6782792" lon="10.428533"><ele>1.0</ele><time>2026-04-18T11:13:39.989Z</time></trkpt><trkpt lat="43.6780929" lon="10.428663"><ele>1.0</ele><time>2026-04-18T11:13:40.989Z</time></trkpt><trkpt lat="43.6779" lon="10.4288045"><ele>1.0</ele><time>2026-04-18T11:13:41.988Z</time></trkpt><trkpt lat="43.6777083" lon="10.4289544"><ele>1.0</ele><time>2026-04-18T11:13:42.989Z</time></trkpt><trkpt lat="43.6775097" lon="10.4290978"><ele>1.0</ele><time>2026-04-18T11:13:43.988Z</time></trkpt><trkpt lat="43.6773242" lon="10.429235"><ele>1.0</ele><time>2026-04-18T11:13:44.988Z</time></trkpt><trkpt lat="43.6771376" lon="10.4293697"><ele>1.0</ele><time>2026-04-18T11:13:45.988Z</time></trkpt><trkpt lat="43.6769572" lon="10.4295037"><ele>1.0</ele><time>2026-04-18T11:13:46.988Z</time></trkpt><trkpt lat="43.6767709" lon="10.4296339"><ele>1.0</ele><time>2026-04-18T11:13:47.988Z</time></trkpt><trkpt lat="43.6765936" lon="10.4297586"><ele>1.0</ele><time>2026-04-18T11:13:48.989Z</time></trkpt><trkpt lat="43.6764295" lon="10.4298758"><ele>1.0</ele><time>2026-04-18T11:13:49.988Z</time></trkpt><trkpt lat="43.6762747" lon="10.4299934"><ele>1.0</ele><time>2026-04-18T11:13:50.988Z</time></trkpt><trkpt lat="43.6761316" lon="10.4300965"><ele>1.0</ele><time>2026-04-18T11:13:51.988Z</time></trkpt><trkpt lat="43.6759966" lon="10.4301917"><ele>1.0</ele><time>2026-04-18T11:13:52.989Z</time></trkpt><trkpt lat="43.6758639" lon="10.4302889"><ele>1.25</ele><time>2026-04-18T11:13:53.988Z</time></trkpt><trkpt lat="43.6757317" lon="10.4303784"><ele>1.5</ele><time>2026-04-18T11:13:54.988Z</time></trkpt><trkpt lat="43.6755994" lon="10.4304641"><ele>1.75</ele><time>2026-04-18T11:13:55.988Z</time></trkpt><trkpt lat="43.6754742" lon="10.4305449"><ele>2.0</ele><time>2026-04-18T11:13:56.988Z</time></trkpt><trkpt lat="43.6753563" lon="10.4306192"><ele>1.8</ele><time>2026-04-18T11:13:57.988Z</time></trkpt><trkpt lat="43.6752668" lon="10.4306786"><ele>1.6</ele><time>2026-04-18T11:13:58.988Z</time></trkpt><trkpt lat="43.6751763" lon="10.4307286"><ele>1.4000000000000001</ele><time>2026-04-18T11:14:00.988Z</time></trkpt><trkpt lat="43.6751057" lon="10.4307806"><ele>1.2000000000000002</ele><time>2026-04-18T11:14:02.988Z</time></trkpt><trkpt lat="43.6749994" lon="10.4308558"><ele>1.0</ele><time>2026-04-18T11:14:04.988Z</time></trkpt><trkpt lat="43.6749312" lon="10.4309019"><ele>1.0</ele><time>2026-04-18T11:14:05.988Z</time></trkpt><trkpt lat="43.6748432" lon="10.4309617"><ele>1.0</ele><time>2026-04-18T11:14:06.988Z</time></trkpt><trkpt lat="43.6747485" lon="10.4310243"><ele>1.0</ele><time>2026-04-18T11:14:07.989Z</time></trkpt><trkpt lat="43.6746513" lon="10.4310946"><ele>1.0</ele><time>2026-04-18T11:14:08.988Z</time></trkpt><trkpt lat="43.6745476" lon="10.4311669"><ele>1.0</ele><time>2026-04-18T11:14:09.988Z</time></trkpt><trkpt lat="43.6744237" lon="10.4312463"><ele>0.6666666666666666</ele><time>2026-04-18T11:14:10.988Z</time></trkpt><trkpt lat="43.6742848" lon="10.4313424"><ele>0.3333333333333333</ele><time>2026-04-18T11:14:11.988Z</time></trkpt><trkpt lat="43.674141" lon="10.431433"><ele>0.0</ele><time>2026-04-18T11:14:12.988Z</time></trkpt><trkpt lat="43.6739899" lon="10.4315233"><ele>0.0</ele><time>2026-04-18T11:14:13.989Z</time></trkpt><trkpt lat="43.6738387" lon="10.4316195"><ele>0.0</ele><time>2026-04-18T11:14:14.988Z</time></trkpt><trkpt lat="43.6736946" lon="10.4317118"><ele>0.0</ele><time>2026-04-18T11:14:15.988Z</time></trkpt><trkpt lat="43.6735503" lon="10.4317981"><ele>0.0</ele><time>2026-04-18T11:14:16.988Z</time></trkpt><trkpt lat="43.6734068" lon="10.4318864"><ele>0.0</ele><time>2026-04-18T11:14:17.989Z</time></trkpt><trkpt lat="43.6732579" lon="10.4319859"><ele>0.0</ele><time>2026-04-18T11:14:18.988Z</time></trkpt><trkpt lat="43.6730971" lon="10.4320931"><ele>0.0</ele><time>2026-04-18T11:14:19.988Z</time></trkpt><trkpt lat="43.672932" lon="10.4322017"><ele>0.0</ele><time>2026-04-18T11:14:20.988Z</time></trkpt><trkpt lat="43.6727661" lon="10.4323004"><ele>0.0</ele><time>2026-04-18T11:14:21.988Z</time></trkpt><trkpt lat="43.6726" lon="10.4323967"><ele>0.3333333333333333</ele><time>2026-04-18T11:14:22.988Z</time></trkpt><trkpt lat="43.6724342" lon="10.4324849"><ele>0.6666666666666666</ele><time>2026-04-18T11:14:23.988Z</time></trkpt><trkpt lat="43.6722629" lon="10.432573"><ele>1.0</ele><time>2026-04-18T11:14:24.988Z</time></trkpt><trkpt lat="43.6720936" lon="10.432654"><ele>0.6666666666666666</ele><time>2026-04-18T11:14:25.988Z</time></trkpt><trkpt lat="43.6719195" lon="10.4327283"><ele>0.3333333333333333</ele><time>2026-04-18T11:14:26.988Z</time></trkpt><trkpt lat="43.671736" lon="10.4328009"><ele>0.0</ele><time>2026-04-18T11:14:27.989Z</time></trkpt><trkpt lat="43.6715526" lon="10.4328711"><ele>0.0</ele><time>2026-04-18T11:14:28.989Z</time></trkpt><trkpt lat="43.6713668" lon="10.4329313"><ele>0.0</ele><time>2026-04-18T11:14:29.989Z</time></trkpt><trkpt lat="43.6711785" lon="10.4329932"><ele>0.0</ele><time>2026-04-18T11:14:30.989Z</time></trkpt><trkpt lat="43.6709881" lon="10.4330512"><ele>0.0</ele><time>2026-04-18T11:14:31.988Z</time></trkpt><trkpt lat="43.670799" lon="10.4331065"><ele>0.0</ele><time>2026-04-18T11:14:32.988Z</time></trkpt><trkpt lat="43.6706138" lon="10.4331567"><ele>0.0</ele><time>2026-04-18T11:14:33.988Z</time></trkpt><trkpt lat="43.6704297" lon="10.4332101"><ele>0.0</ele><time>2026-04-18T11:14:34.988Z</time></trkpt><trkpt lat="43.6702526" lon="10.4332539"><ele>0.0</ele><time>2026-04-18T11:14:35.989Z</time></trkpt><trkpt lat="43.6700835" lon="10.433301"><ele>0.0</ele><time>2026-04-18T11:14:36.988Z</time></trkpt><trkpt lat="43.6699202" lon="10.4333459"><ele>0.0</ele><time>2026-04-18T11:14:37.988Z</time></trkpt><trkpt lat="43.6697667" lon="10.4333919"><ele>0.0</ele><time>2026-04-18T11:14:38.988Z</time></trkpt><trkpt lat="43.6696189" lon="10.4334548"><ele>0.0</ele><time>2026-04-18T11:14:39.988Z</time></trkpt><trkpt lat="43.6694823" lon="10.4335105"><ele>0.0</ele><time>2026-04-18T11:14:40.988Z</time></trkpt><trkpt lat="43.6693542" lon="10.4335706"><ele>0.0</ele><time>2026-04-18T11:14:41.988Z</time></trkpt><trkpt lat="43.6692343" lon="10.4336239"><ele>0.0</ele><time>2026-04-18T11:14:42.988Z</time></trkpt><trkpt lat="43.6691209" lon="10.4336818"><ele>0.0</ele><time>2026-04-18T11:14:43.988Z</time></trkpt><trkpt lat="43.6690157" lon="10.4337383"><ele>0.0</ele><time>2026-04-18T11:14:44.988Z</time></trkpt><trkpt lat="43.6689183" lon="10.4337954"><ele>0.0</ele><time>2026-04-18T11:14:45.988Z</time></trkpt><trkpt lat="43.6688226" lon="10.4338384"><ele>0.0</ele><time>2026-04-18T11:14:46.988Z</time></trkpt><trkpt lat="43.6687308" lon="10.4338709"><ele>0.0</ele><time>2026-04-18T11:14:47.988Z</time></trkpt><trkpt lat="43.6686328" lon="10.4339158"><ele>0.0</ele><time>2026-04-18T11:14:48.988Z</time></trkpt><trkpt lat="43.6685146" lon="10.4339734"><ele>0.3333333333333333</ele><time>2026-04-18T11:14:49.988Z</time></trkpt><trkpt lat="43.6683696" lon="10.4340193"><ele>0.6666666666666666</ele><time>2026-04-18T11:14:50.988Z</time></trkpt><trkpt lat="43.668197" lon="10.4340677"><ele>1.0</ele><time>2026-04-18T11:14:51.988Z</time></trkpt><trkpt lat="43.6680213" lon="10.4341409"><ele>1.0</ele><time>2026-04-18T11:14:52.988Z</time></trkpt><trkpt lat="43.6678328" lon="10.4342275"><ele>1.0</ele><time>2026-04-18T11:14:53.988Z</time></trkpt><trkpt lat="43.6676179" lon="10.4343379"><ele>1.0</ele><time>2026-04-18T11:14:54.988Z</time></trkpt><trkpt lat="43.6674028" lon="10.4344603"><ele>2.0</ele><time>2026-04-18T11:14:55.988Z</time></trkpt><trkpt lat="43.667183" lon="10.4345964"><ele>3.0</ele><time>2026-04-18T11:14:56.988Z</time></trkpt><trkpt lat="43.6669634" lon="10.4347277"><ele>2.3333333333333335</ele><time>2026-04-18T11:14:57.988Z</time></trkpt><trkpt lat="43.6667577" lon="10.4348581"><ele>1.6666666666666665</ele><time>2026-04-18T11:14:58.988Z</time></trkpt><trkpt lat="43.6665566" lon="10.4349851"><ele>1.0</ele><time>2026-04-18T11:14:59.988Z</time></trkpt><trkpt lat="43.6663606" lon="10.4351028"><ele>1.0</ele><time>2026-04-18T11:15:00.988Z</time></trkpt><trkpt lat="43.6661668" lon="10.4352255"><ele>1.0</ele><time>2026-04-18T11:15:01.988Z</time></trkpt><trkpt lat="43.6659755" lon="10.43534"><ele>1.0</ele><time>2026-04-18T11:15:02.988Z</time></trkpt><trkpt lat="43.6657852" lon="10.4354622"><ele>1.0</ele><time>2026-04-18T11:15:03.988Z</time></trkpt><trkpt lat="43.665596" lon="10.4355836"><ele>1.0</ele><time>2026-04-18T11:15:04.988Z</time></trkpt><trkpt lat="43.6654122" lon="10.4357043"><ele>1.0</ele><time>2026-04-18T11:15:05.989Z</time></trkpt><trkpt lat="43.6652252" lon="10.4358263"><ele>0.6666666666666666</ele><time>2026-04-18T11:15:06.988Z</time></trkpt><trkpt lat="43.6650335" lon="10.4359451"><ele>0.3333333333333333</ele><time>2026-04-18T11:15:07.988Z</time></trkpt><trkpt lat="43.6648466" lon="10.4360655"><ele>0.0</ele><time>2026-04-18T11:15:08.988Z</time></trkpt><trkpt lat="43.6646585" lon="10.4361804"><ele>0.0</ele><time>2026-04-18T11:15:09.989Z</time></trkpt><trkpt lat="43.6644686" lon="10.4362981"><ele>0.0</ele><time>2026-04-18T11:15:10.988Z</time></trkpt><trkpt lat="43.6642777" lon="10.4364163"><ele>0.0</ele><time>2026-04-18T11:15:11.988Z</time></trkpt><trkpt lat="43.6640888" lon="10.4365367"><ele>0.0</ele><time>2026-04-18T11:15:12.988Z</time></trkpt><trkpt lat="43.6639018" lon="10.4366534"><ele>0.0</ele><time>2026-04-18T11:15:13.988Z</time></trkpt><trkpt lat="43.6637169" lon="10.4367669"><ele>0.0</ele><time>2026-04-18T11:15:14.988Z</time></trkpt><trkpt lat="43.6635451" lon="10.4368741"><ele>0.0</ele><time>2026-04-18T11:15:15.988Z</time></trkpt><trkpt lat="43.6633796" lon="10.4369814"><ele>0.0</ele><time>2026-04-18T11:15:16.988Z</time></trkpt><trkpt lat="43.6632195" lon="10.4370893"><ele>0.0</ele><time>2026-04-18T11:15:17.988Z</time></trkpt><trkpt lat="43.6630675" lon="10.4371871"><ele>0.0</ele><time>2026-04-18T11:15:18.988Z</time></trkpt><trkpt lat="43.6629236" lon="10.437279"><ele>0.0</ele><time>2026-04-18T11:15:19.988Z</time></trkpt><trkpt lat="43.6627879" lon="10.4373659"><ele>0.0</ele><time>2026-04-18T11:15:20.988Z</time></trkpt><trkpt lat="43.6626631" lon="10.4374433"><ele>0.0</ele><time>2026-04-18T11:15:21.988Z</time></trkpt><trkpt lat="43.6625396" lon="10.4375161"><ele>0.0</ele><time>2026-04-18T11:15:22.988Z</time></trkpt><trkpt lat="43.662423" lon="10.4375918"><ele>0.0</ele><time>2026-04-18T11:15:23.988Z</time></trkpt><trkpt lat="43.6623133" lon="10.437664"><ele>0.0</ele><time>2026-04-18T11:15:24.988Z</time></trkpt><trkpt lat="43.6622073" lon="10.4377279"><ele>0.0</ele><time>2026-04-18T11:15:25.988Z</time></trkpt><trkpt lat="43.662107" lon="10.4377926"><ele>0.0</ele><time>2026-04-18T11:15:26.988Z</time></trkpt><trkpt lat="43.6620064" lon="10.4378584"><ele>0.0</ele><time>2026-04-18T11:15:27.988Z</time></trkpt><trkpt lat="43.6619026" lon="10.4379226"><ele>0.0</ele><time>2026-04-18T11:15:28.988Z</time></trkpt><trkpt lat="43.6618039" lon="10.4379856"><ele>0.0</ele><time>2026-04-18T11:15:29.988Z</time></trkpt><trkpt lat="43.6617136" lon="10.4380396"><ele>0.0</ele><time>2026-04-18T11:15:30.988Z</time></trkpt><trkpt lat="43.6616293" lon="10.4380913"><ele>0.0</ele><time>2026-04-18T11:15:31.988Z</time></trkpt><trkpt lat="43.6615521" lon="10.4381411"><ele>0.0</ele><time>2026-04-18T11:15:32.988Z</time></trkpt><trkpt lat="43.6614887" lon="10.4381821"><ele>0.0</ele><time>2026-04-18T11:15:33.988Z</time></trkpt><trkpt lat="43.6613867" lon="10.438246"><ele>0.0</ele><time>2026-04-18T11:15:35.988Z</time></trkpt><trkpt lat="43.661301" lon="10.4382896"><ele>0.0</ele><time>2026-04-18T11:15:37.988Z</time></trkpt><trkpt lat="43.6612167" lon="10.4383199"><ele>0.0</ele><time>2026-04-18T11:15:39.988Z</time></trkpt><trkpt lat="43.6611098" lon="10.4383884"><ele>0.2</ele><time>2026-04-18T11:15:41.988Z</time></trkpt><trkpt lat="43.661032" lon="10.4384417"><ele>0.4</ele><time>2026-04-18T11:15:42.988Z</time></trkpt><trkpt lat="43.6609541" lon="10.438494"><ele>0.6000000000000001</ele><time>2026-04-18T11:15:43.988Z</time></trkpt><trkpt lat="43.6608948" lon="10.4385265"><ele>0.8</ele><time>2026-04-18T11:15:44.988Z</time></trkpt><trkpt lat="43.6607768" lon="10.4385902"><ele>1.0</ele><time>2026-04-18T11:15:46.988Z</time></trkpt><trkpt lat="43.6606867" lon="10.4386414"><ele>1.0</ele><time>2026-04-18T11:15:47.988Z</time></trkpt><trkpt lat="43.660579" lon="10.4387215"><ele>1.0</ele><time>2026-04-18T11:15:48.988Z</time></trkpt><trkpt lat="43.6604615" lon="10.4388045"><ele>1.0</ele><time>2026-04-18T11:15:49.988Z</time></trkpt><trkpt lat="43.6603133" lon="10.4389136"><ele>1.0</ele><time>2026-04-18T11:15:50.988Z</time></trkpt><trkpt lat="43.6601471" lon="10.4390231"><ele>1.0</ele><time>2026-04-18T11:15:51.988Z</time></trkpt><trkpt lat="43.6599637" lon="10.4391447"><ele>1.0</ele><time>2026-04-18T11:15:52.988Z</time></trkpt><trkpt lat="43.6597542" lon="10.4392799"><ele>1.0</ele><time>2026-04-18T11:15:53.988Z</time></trkpt><trkpt lat="43.659538" lon="10.4394282"><ele>0.0</ele><time>2026-04-18T11:15:54.988Z</time></trkpt><trkpt lat="43.6593096" lon="10.4395722"><ele>-1.0</ele><time>2026-04-18T11:15:55.988Z</time></trkpt><trkpt lat="43.6590842" lon="10.4397103"><ele>-1.5</ele><time>2026-04-18T11:15:56.988Z</time></trkpt><trkpt lat="43.6588698" lon="10.4398436"><ele>-2.0</ele><time>2026-04-18T11:15:57.988Z</time></trkpt><trkpt lat="43.6586671" lon="10.4399754"><ele>-1.0</ele><time>2026-04-18T11:15:58.988Z</time></trkpt><trkpt lat="43.6584616" lon="10.4401056"><ele>0.0</ele><time>2026-04-18T11:15:59.988Z</time></trkpt><trkpt lat="43.6582556" lon="10.4402372"><ele>0.0</ele><time>2026-04-18T11:16:00.988Z</time></trkpt><trkpt lat="43.6580575" lon="10.4403659"><ele>0.0</ele><time>2026-04-18T11:16:01.988Z</time></trkpt><trkpt lat="43.6578538" lon="10.4404985"><ele>0.0</ele><time>2026-04-18T11:16:02.988Z</time></trkpt><trkpt lat="43.6576486" lon="10.4406352"><ele>0.5</ele><time>2026-04-18T11:16:03.988Z</time></trkpt><trkpt lat="43.6574435" lon="10.4407667"><ele>1.0</ele><time>2026-04-18T11:16:04.989Z</time></trkpt><trkpt lat="43.6572364" lon="10.4409027"><ele>1.0</ele><time>2026-04-18T11:16:05.988Z</time></trkpt><trkpt lat="43.6570276" lon="10.4410329"><ele>1.0</ele><time>2026-04-18T11:16:06.988Z</time></trkpt><trkpt lat="43.6568187" lon="10.4411646"><ele>1.0</ele><time>2026-04-18T11:16:07.988Z</time></trkpt><trkpt lat="43.6566078" lon="10.441298"><ele>1.0</ele><time>2026-04-18T11:16:08.988Z</time></trkpt><trkpt lat="43.6563994" lon="10.4414259"><ele>1.0</ele><time>2026-04-18T11:16:09.988Z</time></trkpt><trkpt lat="43.6561925" lon="10.4415572"><ele>1.0</ele><time>2026-04-18T11:16:10.988Z</time></trkpt><trkpt lat="43.6559805" lon="10.4416928"><ele>1.0</ele><time>2026-04-18T11:16:11.988Z</time></trkpt><trkpt lat="43.6557694" lon="10.4418251"><ele>1.0</ele><time>2026-04-18T11:16:12.988Z</time></trkpt><trkpt lat="43.6555646" lon="10.4419607"><ele>1.0</ele><time>2026-04-18T11:16:13.988Z</time></trkpt><trkpt lat="43.6553548" lon="10.442094"><ele>1.0</ele><time>2026-04-18T11:16:14.988Z</time></trkpt><trkpt lat="43.6551449" lon="10.4422253"><ele>0.5</ele><time>2026-04-18T11:16:15.988Z</time></trkpt><trkpt lat="43.6549343" lon="10.4423621"><ele>0.0</ele><time>2026-04-18T11:16:16.988Z</time></trkpt><trkpt lat="43.654727" lon="10.4424877"><ele>0.0</ele><time>2026-04-18T11:16:17.988Z</time></trkpt><trkpt lat="43.654521" lon="10.4426223"><ele>0.0</ele><time>2026-04-18T11:16:18.988Z</time></trkpt><trkpt lat="43.6543151" lon="10.4427585"><ele>0.0</ele><time>2026-04-18T11:16:19.988Z</time></trkpt><trkpt lat="43.6541042" lon="10.4428948"><ele>0.0</ele><time>2026-04-18T11:16:20.989Z</time></trkpt><trkpt lat="43.6538978" lon="10.4430329"><ele>0.0</ele><time>2026-04-18T11:16:21.988Z</time></trkpt><trkpt lat="43.6536888" lon="10.4431599"><ele>0.0</ele><time>2026-04-18T11:16:22.988Z</time></trkpt><trkpt lat="43.6534772" lon="10.443294"><ele>-0.5</ele><time>2026-04-18T11:16:23.988Z</time></trkpt><trkpt lat="43.6532665" lon="10.4434272"><ele>-1.0</ele><time>2026-04-18T11:16:24.988Z</time></trkpt><trkpt lat="43.6530586" lon="10.4435551"><ele>-1.0</ele><time>2026-04-18T11:16:25.989Z</time></trkpt><trkpt lat="43.6528502" lon="10.443688"><ele>-1.0</ele><time>2026-04-18T11:16:26.988Z</time></trkpt><trkpt lat="43.6526454" lon="10.4438163"><ele>-0.5</ele><time>2026-04-18T11:16:27.988Z</time></trkpt><trkpt lat="43.6524377" lon="10.4439398"><ele>0.0</ele><time>2026-04-18T11:16:28.988Z</time></trkpt><trkpt lat="43.6522348" lon="10.4440768"><ele>0.0</ele><time>2026-04-18T11:16:29.988Z</time></trkpt><trkpt lat="43.6520255" lon="10.4442074"><ele>0.0</ele><time>2026-04-18T11:16:30.988Z</time></trkpt><trkpt lat="43.6518146" lon="10.4443373"><ele>-0.5</ele><time>2026-04-18T11:16:31.988Z</time></trkpt><trkpt lat="43.651605" lon="10.4444687"><ele>-1.0</ele><time>2026-04-18T11:16:32.988Z</time></trkpt><trkpt lat="43.6513941" lon="10.4445977"><ele>-1.0</ele><time>2026-04-18T11:16:33.988Z</time></trkpt><trkpt lat="43.6511858" lon="10.4447261"><ele>-1.0</ele><time>2026-04-18T11:16:34.988Z</time></trkpt><trkpt lat="43.6509775" lon="10.444859"><ele>0.0</ele><time>2026-04-18T11:16:35.988Z</time></trkpt><trkpt lat="43.6507638" lon="10.4449906"><ele>1.0</ele><time>2026-04-18T11:16:36.988Z</time></trkpt><trkpt lat="43.6505556" lon="10.4451259"><ele>1.0</ele><time>2026-04-18T11:16:37.988Z</time></trkpt><trkpt lat="43.6503434" lon="10.445263"><ele>1.0</ele><time>2026-04-18T11:16:38.988Z</time></trkpt><trkpt lat="43.6501318" lon="10.4453923"><ele>0.0</ele><time>2026-04-18T11:16:39.989Z</time></trkpt><trkpt lat="43.649921" lon="10.4455244"><ele>-1.0</ele><time>2026-04-18T11:16:40.988Z</time></trkpt><trkpt lat="43.6497107" lon="10.4456583"><ele>-1.0</ele><time>2026-04-18T11:16:41.988Z</time></trkpt><trkpt lat="43.6494959" lon="10.4457924"><ele>-1.0</ele><time>2026-04-18T11:16:42.988Z</time></trkpt><trkpt lat="43.6492861" lon="10.4459289"><ele>-1.0</ele><time>2026-04-18T11:16:43.988Z</time></trkpt><trkpt lat="43.6490745" lon="10.4460622"><ele>-1.0</ele><time>2026-04-18T11:16:44.988Z</time></trkpt><trkpt lat="43.6488646" lon="10.4461911"><ele>-0.5</ele><time>2026-04-18T11:16:45.988Z</time></trkpt><trkpt lat="43.6486562" lon="10.4463234"><ele>0.0</ele><time>2026-04-18T11:16:46.989Z</time></trkpt><trkpt lat="43.6484482" lon="10.4464555"><ele>0.0</ele><time>2026-04-18T11:16:47.988Z</time></trkpt><trkpt lat="43.6482422" lon="10.4465886"><ele>0.0</ele><time>2026-04-18T11:16:48.988Z</time></trkpt><trkpt lat="43.6480379" lon="10.4467172"><ele>0.0</ele><time>2026-04-18T11:16:49.988Z</time></trkpt><trkpt lat="43.6478349" lon="10.4468484"><ele>0.0</ele><time>2026-04-18T11:16:50.988Z</time></trkpt><trkpt lat="43.6476333" lon="10.4469779"><ele>0.0</ele><time>2026-04-18T11:16:51.988Z</time></trkpt><trkpt lat="43.647429" lon="10.4471097"><ele>-0.3333333333333333</ele><time>2026-04-18T11:16:52.988Z</time></trkpt><trkpt lat="43.6472284" lon="10.4472356"><ele>-0.6666666666666666</ele><time>2026-04-18T11:16:53.988Z</time></trkpt><trkpt lat="43.6470349" lon="10.4473617"><ele>-1.0</ele><time>2026-04-18T11:16:54.988Z</time></trkpt><trkpt lat="43.6468368" lon="10.4474869"><ele>-1.0</ele><time>2026-04-18T11:16:55.988Z</time></trkpt><trkpt lat="43.6466365" lon="10.4476152"><ele>-1.0</ele><time>2026-04-18T11:16:56.988Z</time></trkpt><trkpt lat="43.6464369" lon="10.4477414"><ele>-1.0</ele><time>2026-04-18T11:16:57.988Z</time></trkpt><trkpt lat="43.6462352" lon="10.4478575"><ele>-0.3333333333333333</ele><time>2026-04-18T11:16:58.988Z</time></trkpt><trkpt lat="43.6460507" lon="10.4479755"><ele>0.3333333333333333</ele><time>2026-04-18T11:16:59.988Z</time></trkpt><trkpt lat="43.6458761" lon="10.4480857"><ele>1.0</ele><time>2026-04-18T11:17:00.988Z</time></trkpt><trkpt lat="43.6457013" lon="10.4481951"><ele>1.0</ele><time>2026-04-18T11:17:01.988Z</time></trkpt><trkpt lat="43.6455317" lon="10.4483047"><ele>1.0</ele><time>2026-04-18T11:17:02.988Z</time></trkpt><trkpt lat="43.6453724" lon="10.4484081"><ele>1.0</ele><time>2026-04-18T11:17:03.988Z</time></trkpt><trkpt lat="43.6452088" lon="10.4485094"><ele>1.3333333333333333</ele><time>2026-04-18T11:17:04.988Z</time></trkpt><trkpt lat="43.6450516" lon="10.4486057"><ele>1.6666666666666665</ele><time>2026-04-18T11:17:05.988Z</time></trkpt><trkpt lat="43.6449051" lon="10.4487047"><ele>2.0</ele><time>2026-04-18T11:17:06.988Z</time></trkpt><trkpt lat="43.6447746" lon="10.4487858"><ele>2.0</ele><time>2026-04-18T11:17:07.988Z</time></trkpt><trkpt lat="43.6446533" lon="10.4488653"><ele>2.0</ele><time>2026-04-18T11:17:08.988Z</time></trkpt><trkpt lat="43.6445441" lon="10.448934"><ele>2.0</ele><time>2026-04-18T11:17:09.988Z</time></trkpt><trkpt lat="43.6444354" lon="10.4489873"><ele>2.0</ele><time>2026-04-18T11:17:10.988Z</time></trkpt><trkpt lat="43.6443269" lon="10.4490324"><ele>2.2</ele><time>2026-04-18T11:17:11.988Z</time></trkpt><trkpt lat="43.6442224" lon="10.4490826"><ele>2.4000000000000004</ele><time>2026-04-18T11:17:12.988Z</time></trkpt><trkpt lat="43.6441271" lon="10.4491406"><ele>2.5999999999999996</ele><time>2026-04-18T11:17:13.988Z</time></trkpt><trkpt lat="43.6440407" lon="10.4492156"><ele>2.8</ele><time>2026-04-18T11:17:14.988Z</time></trkpt><trkpt lat="43.643947" lon="10.4492994"><ele>3.0</ele><time>2026-04-18T11:17:15.988Z</time></trkpt><trkpt lat="43.6438434" lon="10.4493804"><ele>3.0</ele><time>2026-04-18T11:17:16.988Z</time></trkpt><trkpt lat="43.6437081" lon="10.4494646"><ele>3.0</ele><time>2026-04-18T11:17:17.988Z</time></trkpt><trkpt lat="43.6435565" lon="10.4495578"><ele>3.0</ele><time>2026-04-18T11:17:18.988Z</time></trkpt><trkpt lat="43.6434081" lon="10.4496609"><ele>2.6666666666666665</ele><time>2026-04-18T11:17:19.988Z</time></trkpt><trkpt lat="43.643232" lon="10.4497705"><ele>2.333333333333333</ele><time>2026-04-18T11:17:20.988Z</time></trkpt><trkpt lat="43.643054" lon="10.4498777"><ele>2.0</ele><time>2026-04-18T11:17:21.988Z</time></trkpt><trkpt lat="43.6428808" lon="10.4499884"><ele>1.6666666666666665</ele><time>2026-04-18T11:17:22.988Z</time></trkpt><trkpt lat="43.6427059" lon="10.4500977"><ele>1.3333333333333333</ele><time>2026-04-18T11:17:23.988Z</time></trkpt><trkpt lat="43.642536" lon="10.4502015"><ele>1.0</ele><time>2026-04-18T11:17:24.988Z</time></trkpt><trkpt lat="43.6423729" lon="10.4503083"><ele>1.0</ele><time>2026-04-18T11:17:25.988Z</time></trkpt><trkpt lat="43.642216" lon="10.4504053"><ele>1.0</ele><time>2026-04-18T11:17:26.988Z</time></trkpt><trkpt lat="43.6420608" lon="10.4505043"><ele>1.0</ele><time>2026-04-18T11:17:27.988Z</time></trkpt><trkpt lat="43.6419125" lon="10.4505934"><ele>0.6666666666666666</ele><time>2026-04-18T11:17:28.988Z</time></trkpt><trkpt lat="43.6417687" lon="10.4506865"><ele>0.3333333333333333</ele><time>2026-04-18T11:17:29.988Z</time></trkpt><trkpt lat="43.6416222" lon="10.4507829"><ele>0.0</ele><time>2026-04-18T11:17:30.988Z</time></trkpt><trkpt lat="43.6414707" lon="10.450878"><ele>0.0</ele><time>2026-04-18T11:17:31.988Z</time></trkpt><trkpt lat="43.6413205" lon="10.4509732"><ele>0.0</ele><time>2026-04-18T11:17:32.988Z</time></trkpt><trkpt lat="43.6411653" lon="10.4510684"><ele>0.0</ele><time>2026-04-18T11:17:33.988Z</time></trkpt><trkpt lat="43.6410062" lon="10.4511674"><ele>0.0</ele><time>2026-04-18T11:17:34.988Z</time></trkpt><trkpt lat="43.6408443" lon="10.4512742"><ele>0.0</ele><time>2026-04-18T11:17:35.988Z</time></trkpt><trkpt lat="43.6406759" lon="10.4513806"><ele>0.0</ele><time>2026-04-18T11:17:36.988Z</time></trkpt><trkpt lat="43.6405091" lon="10.4514822"><ele>0.0</ele><time>2026-04-18T11:17:37.988Z</time></trkpt><trkpt lat="43.6403418" lon="10.4515875"><ele>0.0</ele><time>2026-04-18T11:17:38.988Z</time></trkpt><trkpt lat="43.6401726" lon="10.4516932"><ele>0.0</ele><time>2026-04-18T11:17:39.988Z</time></trkpt><trkpt lat="43.6400026" lon="10.4517994"><ele>0.0</ele><time>2026-04-18T11:17:40.988Z</time></trkpt><trkpt lat="43.6398384" lon="10.4519036"><ele>0.0</ele><time>2026-04-18T11:17:41.988Z</time></trkpt><trkpt lat="43.6396741" lon="10.4520079"><ele>0.0</ele><time>2026-04-18T11:17:42.988Z</time></trkpt><trkpt lat="43.6395093" lon="10.4521158"><ele>0.0</ele><time>2026-04-18T11:17:43.988Z</time></trkpt><trkpt lat="43.6393506" lon="10.452221"><ele>0.0</ele><time>2026-04-18T11:17:44.988Z</time></trkpt><trkpt lat="43.6391984" lon="10.4523168"><ele>0.0</ele><time>2026-04-18T11:17:45.988Z</time></trkpt><trkpt lat="43.6390574" lon="10.4524051"><ele>0.0</ele><time>2026-04-18T11:17:46.988Z</time></trkpt><trkpt lat="43.6389219" lon="10.4524918"><ele>0.0</ele><time>2026-04-18T11:17:47.988Z</time></trkpt><trkpt lat="43.6387867" lon="10.452569"><ele>0.0</ele><time>2026-04-18T11:17:48.989Z</time></trkpt><trkpt lat="43.6386566" lon="10.452649"><ele>0.0</ele><time>2026-04-18T11:17:49.988Z</time></trkpt><trkpt lat="43.6385278" lon="10.4527345"><ele>0.25</ele><time>2026-04-18T11:17:50.988Z</time></trkpt><trkpt lat="43.6384035" lon="10.4528149"><ele>0.5</ele><time>2026-04-18T11:17:51.988Z</time></trkpt><trkpt lat="43.6382829" lon="10.4528942"><ele>0.75</ele><time>2026-04-18T11:17:52.988Z</time></trkpt><trkpt lat="43.6381635" lon="10.4529643"><ele>1.0</ele><time>2026-04-18T11:17:53.988Z</time></trkpt><trkpt lat="43.6380491" lon="10.4530328"><ele>1.0</ele><time>2026-04-18T11:17:54.988Z</time></trkpt><trkpt lat="43.6379345" lon="10.4531032"><ele>1.0</ele><time>2026-04-18T11:17:55.989Z</time></trkpt><trkpt lat="43.6378211" lon="10.453172"><ele>1.0</ele><time>2026-04-18T11:17:56.989Z</time></trkpt><trkpt lat="43.6377086" lon="10.4532386"><ele>1.0</ele><time>2026-04-18T11:17:57.989Z</time></trkpt><trkpt lat="43.6375973" lon="10.4533136"><ele>0.75</ele><time>2026-04-18T11:17:58.988Z</time></trkpt><trkpt lat="43.6374843" lon="10.4533891"><ele>0.5</ele><time>2026-04-18T11:17:59.988Z</time></trkpt><trkpt lat="43.6373715" lon="10.4534665"><ele>0.25</ele><time>2026-04-18T11:18:00.989Z</time></trkpt><trkpt lat="43.6372588" lon="10.4535413"><ele>0.0</ele><time>2026-04-18T11:18:01.988Z</time></trkpt><trkpt lat="43.6371348" lon="10.4536172"><ele>0.0</ele><time>2026-04-18T11:18:02.988Z</time></trkpt><trkpt lat="43.6370034" lon="10.4537058"><ele>0.0</ele><time>2026-04-18T11:18:03.988Z</time></trkpt><trkpt lat="43.6368633" lon="10.4538068"><ele>0.0</ele><time>2026-04-18T11:18:04.988Z</time></trkpt><trkpt lat="43.6367035" lon="10.4539236"><ele>0.3333333333333333</ele><time>2026-04-18T11:18:05.988Z</time></trkpt><trkpt lat="43.6365215" lon="10.4540445"><ele>0.6666666666666666</ele><time>2026-04-18T11:18:06.988Z</time></trkpt><trkpt lat="43.6363361" lon="10.454151"><ele>1.0</ele><time>2026-04-18T11:18:07.988Z</time></trkpt><trkpt lat="43.6361423" lon="10.4542634"><ele>1.0</ele><time>2026-04-18T11:18:08.988Z</time></trkpt><trkpt lat="43.6359608" lon="10.4543759"><ele>1.0</ele><time>2026-04-18T11:18:09.988Z</time></trkpt><trkpt lat="43.6357776" lon="10.4544883"><ele>1.0</ele><time>2026-04-18T11:18:10.989Z</time></trkpt><trkpt lat="43.6356006" lon="10.4546022"><ele>1.0</ele><time>2026-04-18T11:18:11.988Z</time></trkpt><trkpt lat="43.6354308" lon="10.4547058"><ele>1.0</ele><time>2026-04-18T11:18:12.988Z</time></trkpt><trkpt lat="43.6352671" lon="10.4548101"><ele>1.0</ele><time>2026-04-18T11:18:13.988Z</time></trkpt><trkpt lat="43.635109" lon="10.4549106"><ele>1.0</ele><time>2026-04-18T11:18:14.988Z</time></trkpt><trkpt lat="43.6349557" lon="10.4550072"><ele>1.0</ele><time>2026-04-18T11:18:15.988Z</time></trkpt><trkpt lat="43.6348003" lon="10.4551058"><ele>1.0</ele><time>2026-04-18T11:18:16.988Z</time></trkpt><trkpt lat="43.6346435" lon="10.4552069"><ele>1.0</ele><time>2026-04-18T11:18:17.988Z</time></trkpt><trkpt lat="43.6344898" lon="10.4553085"><ele>1.0</ele><time>2026-04-18T11:18:18.988Z</time></trkpt><trkpt lat="43.6343282" lon="10.4554082"><ele>1.0</ele><time>2026-04-18T11:18:19.988Z</time></trkpt><trkpt lat="43.6341658" lon="10.455511"><ele>1.6666666666666665</ele><time>2026-04-18T11:18:20.988Z</time></trkpt><trkpt lat="43.633994" lon="10.4556182"><ele>2.3333333333333335</ele><time>2026-04-18T11:18:21.988Z</time></trkpt><trkpt lat="43.633828" lon="10.4557229"><ele>3.0</ele><time>2026-04-18T11:18:22.988Z</time></trkpt><trkpt lat="43.6336634" lon="10.4558292"><ele>2.3333333333333335</ele><time>2026-04-18T11:18:23.988Z</time></trkpt><trkpt lat="43.6335013" lon="10.4559281"><ele>1.6666666666666665</ele><time>2026-04-18T11:18:24.988Z</time></trkpt><trkpt lat="43.6333398" lon="10.4560243"><ele>1.0</ele><time>2026-04-18T11:18:25.989Z</time></trkpt><trkpt lat="43.6331812" lon="10.4561246"><ele>1.0</ele><time>2026-04-18T11:18:26.988Z</time></trkpt><trkpt lat="43.6330203" lon="10.4562266"><ele>1.0</ele><time>2026-04-18T11:18:27.988Z</time></trkpt><trkpt lat="43.632861" lon="10.4563335"><ele>1.0</ele><time>2026-04-18T11:18:28.988Z</time></trkpt><trkpt lat="43.6326984" lon="10.4564345"><ele>1.0</ele><time>2026-04-18T11:18:29.988Z</time></trkpt><trkpt lat="43.6325352" lon="10.4565384"><ele>1.0</ele><time>2026-04-18T11:18:30.988Z</time></trkpt><trkpt lat="43.6323736" lon="10.4566438"><ele>1.0</ele><time>2026-04-18T11:18:31.988Z</time></trkpt><trkpt lat="43.6322136" lon="10.456748"><ele>1.0</ele><time>2026-04-18T11:18:32.988Z</time></trkpt><trkpt lat="43.6320577" lon="10.4568433"><ele>1.0</ele><time>2026-04-18T11:18:33.988Z</time></trkpt><trkpt lat="43.6319026" lon="10.4569407"><ele>1.0</ele><time>2026-04-18T11:18:34.988Z</time></trkpt><trkpt lat="43.6317511" lon="10.4570435"><ele>1.3333333333333333</ele><time>2026-04-18T11:18:35.988Z</time></trkpt><trkpt lat="43.6315932" lon="10.4571383"><ele>1.6666666666666665</ele><time>2026-04-18T11:18:36.988Z</time></trkpt><trkpt lat="43.6314379" lon="10.4572268"><ele>2.0</ele><time>2026-04-18T11:18:37.988Z</time></trkpt><trkpt lat="43.6312836" lon="10.4573278"><ele>2.0</ele><time>2026-04-18T11:18:38.988Z</time></trkpt><trkpt lat="43.6311263" lon="10.4574229"><ele>2.0</ele><time>2026-04-18T11:18:39.988Z</time></trkpt><trkpt lat="43.6309742" lon="10.4575125"><ele>2.0</ele><time>2026-04-18T11:18:40.988Z</time></trkpt><trkpt lat="43.6308231" lon="10.4576056"><ele>2.0</ele><time>2026-04-18T11:18:41.988Z</time></trkpt><trkpt lat="43.6306683" lon="10.4577022"><ele>2.0</ele><time>2026-04-18T11:18:42.988Z</time></trkpt><trkpt lat="43.6305171" lon="10.4578031"><ele>2.0</ele><time>2026-04-18T11:18:43.988Z</time></trkpt><trkpt lat="43.6303663" lon="10.4579075"><ele>2.0</ele><time>2026-04-18T11:18:44.988Z</time></trkpt><trkpt lat="43.630216" lon="10.4580073"><ele>2.0</ele><time>2026-04-18T11:18:45.988Z</time></trkpt><trkpt lat="43.6300705" lon="10.4581035"><ele>2.0</ele><time>2026-04-18T11:18:46.988Z</time></trkpt><trkpt lat="43.6299265" lon="10.4581939"><ele>2.0</ele><time>2026-04-18T11:18:47.988Z</time></trkpt><trkpt lat="43.6297835" lon="10.4582906"><ele>2.0</ele><time>2026-04-18T11:18:48.988Z</time></trkpt><trkpt lat="43.6296388" lon="10.4583852"><ele>2.0</ele><time>2026-04-18T11:18:49.988Z</time></trkpt><trkpt lat="43.6294891" lon="10.458475"><ele>1.6666666666666665</ele><time>2026-04-18T11:18:50.988Z</time></trkpt><trkpt lat="43.6293422" lon="10.458569"><ele>1.3333333333333333</ele><time>2026-04-18T11:18:51.988Z</time></trkpt><trkpt lat="43.6291935" lon="10.4586568"><ele>1.0</ele><time>2026-04-18T11:18:52.988Z</time></trkpt><trkpt lat="43.6290442" lon="10.4587508"><ele>1.0</ele><time>2026-04-18T11:18:53.988Z</time></trkpt><trkpt lat="43.6288932" lon="10.4588441"><ele>1.0</ele><time>2026-04-18T11:18:54.988Z</time></trkpt><trkpt lat="43.6287445" lon="10.4589458"><ele>1.0</ele><time>2026-04-18T11:18:55.988Z</time></trkpt><trkpt lat="43.6285991" lon="10.4590399"><ele>1.0</ele><time>2026-04-18T11:18:56.988Z</time></trkpt><trkpt lat="43.6284523" lon="10.4591325"><ele>1.0</ele><time>2026-04-18T11:18:57.989Z</time></trkpt><trkpt lat="43.6283054" lon="10.4592283"><ele>1.0</ele><time>2026-04-18T11:18:58.988Z</time></trkpt><trkpt lat="43.6281575" lon="10.4593267"><ele>1.0</ele><time>2026-04-18T11:18:59.988Z</time></trkpt><trkpt lat="43.6280089" lon="10.4594239"><ele>1.0</ele><time>2026-04-18T11:19:00.988Z</time></trkpt><trkpt lat="43.6278668" lon="10.4595155"><ele>1.0</ele><time>2026-04-18T11:19:01.988Z</time></trkpt><trkpt lat="43.6277206" lon="10.4596071"><ele>1.3333333333333333</ele><time>2026-04-18T11:19:02.988Z</time></trkpt><trkpt lat="43.6275772" lon="10.4596998"><ele>1.6666666666666665</ele><time>2026-04-18T11:19:03.988Z</time></trkpt><trkpt lat="43.6274377" lon="10.4597857"><ele>2.0</ele><time>2026-04-18T11:19:04.988Z</time></trkpt><trkpt lat="43.6272974" lon="10.4598742"><ele>2.0</ele><time>2026-04-18T11:19:05.988Z</time></trkpt><trkpt lat="43.6271512" lon="10.4599694"><ele>2.0</ele><time>2026-04-18T11:19:06.988Z</time></trkpt><trkpt lat="43.6270013" lon="10.4600601"><ele>2.0</ele><time>2026-04-18T11:19:07.988Z</time></trkpt><trkpt lat="43.6268496" lon="10.4601585"><ele>2.0</ele><time>2026-04-18T11:19:08.988Z</time></trkpt><trkpt lat="43.6266938" lon="10.4602556"><ele>2.0</ele><time>2026-04-18T11:19:09.988Z</time></trkpt><trkpt lat="43.6265372" lon="10.4603541"><ele>2.0</ele><time>2026-04-18T11:19:10.988Z</time></trkpt><trkpt lat="43.6263825" lon="10.4604547"><ele>2.333333333333333</ele><time>2026-04-18T11:19:11.988Z</time></trkpt><trkpt lat="43.6262303" lon="10.4605535"><ele>2.6666666666666665</ele><time>2026-04-18T11:19:12.988Z</time></trkpt><trkpt lat="43.6260807" lon="10.4606519"><ele>3.0</ele><time>2026-04-18T11:19:13.988Z</time></trkpt><trkpt lat="43.6259371" lon="10.460744"><ele>2.5</ele><time>2026-04-18T11:19:14.989Z</time></trkpt><trkpt lat="43.6258016" lon="10.4608242"><ele>2.0</ele><time>2026-04-18T11:19:15.988Z</time></trkpt><trkpt lat="43.6256644" lon="10.4609057"><ele>1.5</ele><time>2026-04-18T11:19:16.988Z</time></trkpt><trkpt lat="43.6255344" lon="10.4609891"><ele>1.0</ele><time>2026-04-18T11:19:17.988Z</time></trkpt><trkpt lat="43.6254048" lon="10.4610787"><ele>1.25</ele><time>2026-04-18T11:19:18.988Z</time></trkpt><trkpt lat="43.6252783" lon="10.4611601"><ele>1.5</ele><time>2026-04-18T11:19:19.988Z</time></trkpt><trkpt lat="43.6251489" lon="10.4612392"><ele>1.75</ele><time>2026-04-18T11:19:20.988Z</time></trkpt><trkpt lat="43.625018" lon="10.4613263"><ele>2.0</ele><time>2026-04-18T11:19:21.988Z</time></trkpt><trkpt lat="43.6248854" lon="10.4614099"><ele>2.5</ele><time>2026-04-18T11:19:22.988Z</time></trkpt><trkpt lat="43.624757" lon="10.461494"><ele>3.0</ele><time>2026-04-18T11:19:23.988Z</time></trkpt><trkpt lat="43.6246324" lon="10.4615719"><ele>3.5</ele><time>2026-04-18T11:19:24.988Z</time></trkpt><trkpt lat="43.6245128" lon="10.461647"><ele>4.0</ele><time>2026-04-18T11:19:25.988Z</time></trkpt><trkpt lat="43.6243947" lon="10.461723"><ele>4.75</ele><time>2026-04-18T11:19:26.988Z</time></trkpt><trkpt lat="43.6242736" lon="10.4618024"><ele>5.5</ele><time>2026-04-18T11:19:27.988Z</time></trkpt><trkpt lat="43.6241491" lon="10.4618837"><ele>6.25</ele><time>2026-04-18T11:19:28.988Z</time></trkpt><trkpt lat="43.6240243" lon="10.4619643"><ele>7.0</ele><time>2026-04-18T11:19:29.988Z</time></trkpt><trkpt lat="43.6239001" lon="10.462051"><ele>6.75</ele><time>2026-04-18T11:19:30.988Z</time></trkpt><trkpt lat="43.6237688" lon="10.4621321"><ele>6.5</ele><time>2026-04-18T11:19:31.988Z</time></trkpt><trkpt lat="43.623642" lon="10.4622083"><ele>6.25</ele><time>2026-04-18T11:19:32.988Z</time></trkpt><trkpt lat="43.623508" lon="10.4622873"><ele>6.0</ele><time>2026-04-18T11:19:33.988Z</time></trkpt><trkpt lat="43.6233724" lon="10.4623722"><ele>6.0</ele><time>2026-04-18T11:19:34.989Z</time></trkpt><trkpt lat="43.623241" lon="10.4624515"><ele>6.0</ele><time>2026-04-18T11:19:35.988Z</time></trkpt><trkpt lat="43.6231129" lon="10.462529"><ele>6.0</ele><time>2026-04-18T11:19:36.988Z</time></trkpt><trkpt lat="43.6229836" lon="10.4626085"><ele>6.0</ele><time>2026-04-18T11:19:37.988Z</time></trkpt><trkpt lat="43.6228505" lon="10.4626925"><ele>5.75</ele><time>2026-04-18T11:19:38.988Z</time></trkpt><trkpt lat="43.6227132" lon="10.4627753"><ele>5.5</ele><time>2026-04-18T11:19:39.988Z</time></trkpt><trkpt lat="43.6225798" lon="10.4628567"><ele>5.25</ele><time>2026-04-18T11:19:40.988Z</time></trkpt><trkpt lat="43.6224425" lon="10.462942"><ele>5.0</ele><time>2026-04-18T11:19:41.988Z</time></trkpt><trkpt lat="43.6222994" lon="10.4630325"><ele>5.0</ele><time>2026-04-18T11:19:42.988Z</time></trkpt><trkpt lat="43.6221489" lon="10.4631273"><ele>5.0</ele><time>2026-04-18T11:19:43.988Z</time></trkpt><trkpt lat="43.6220019" lon="10.4632163"><ele>5.0</ele><time>2026-04-18T11:19:44.988Z</time></trkpt><trkpt lat="43.6218558" lon="10.4632954"><ele>5.0</ele><time>2026-04-18T11:19:45.988Z</time></trkpt><trkpt lat="43.6217094" lon="10.4633709"><ele>5.0</ele><time>2026-04-18T11:19:46.988Z</time></trkpt><trkpt lat="43.6215579" lon="10.4634386"><ele>5.0</ele><time>2026-04-18T11:19:47.988Z</time></trkpt><trkpt lat="43.6214119" lon="10.4635062"><ele>5.0</ele><time>2026-04-18T11:19:48.988Z</time></trkpt><trkpt lat="43.6212754" lon="10.4635742"><ele>5.0</ele><time>2026-04-18T11:19:49.988Z</time></trkpt><trkpt lat="43.6211423" lon="10.4636344"><ele>5.0</ele><time>2026-04-18T11:19:50.988Z</time></trkpt><trkpt lat="43.6210107" lon="10.4636897"><ele>5.0</ele><time>2026-04-18T11:19:51.988Z</time></trkpt><trkpt lat="43.6208798" lon="10.4637424"><ele>5.5</ele><time>2026-04-18T11:19:52.988Z</time></trkpt><trkpt lat="43.6207472" lon="10.4638009"><ele>6.0</ele><time>2026-04-18T11:19:53.988Z</time></trkpt><trkpt lat="43.6206199" lon="10.4638576"><ele>6.5</ele><time>2026-04-18T11:19:54.988Z</time></trkpt><trkpt lat="43.6204921" lon="10.4639166"><ele>7.0</ele><time>2026-04-18T11:19:55.988Z</time></trkpt><trkpt lat="43.6203661" lon="10.4639807"><ele>6.0</ele><time>2026-04-18T11:19:56.988Z</time></trkpt><trkpt lat="43.6202375" lon="10.4640442"><ele>5.0</ele><time>2026-04-18T11:19:57.989Z</time></trkpt><trkpt lat="43.6201122" lon="10.464107"><ele>4.0</ele><time>2026-04-18T11:19:58.988Z</time></trkpt><trkpt lat="43.619991" lon="10.4641828"><ele>3.0</ele><time>2026-04-18T11:19:59.988Z</time></trkpt><trkpt lat="43.6198811" lon="10.4642783"><ele>3.0</ele><time>2026-04-18T11:20:00.988Z</time></trkpt><trkpt lat="43.6197806" lon="10.4643982"><ele>3.0</ele><time>2026-04-18T11:20:01.988Z</time></trkpt><trkpt lat="43.6196795" lon="10.4645395"><ele>3.0</ele><time>2026-04-18T11:20:02.988Z</time></trkpt><trkpt lat="43.6195784" lon="10.4646991"><ele>3.0</ele><time>2026-04-18T11:20:03.988Z</time></trkpt><trkpt lat="43.6194781" lon="10.4648623"><ele>3.0</ele><time>2026-04-18T11:20:04.988Z</time></trkpt><trkpt lat="43.6193782" lon="10.4650231"><ele>3.0</ele><time>2026-04-18T11:20:05.988Z</time></trkpt><trkpt lat="43.6192843" lon="10.4651849"><ele>3.0</ele><time>2026-04-18T11:20:06.988Z</time></trkpt><trkpt lat="43.6191986" lon="10.4653464"><ele>3.0</ele><time>2026-04-18T11:20:07.988Z</time></trkpt><trkpt lat="43.6191215" lon="10.4655141"><ele>3.0</ele><time>2026-04-18T11:20:08.988Z</time></trkpt><trkpt lat="43.6190564" lon="10.4656891"><ele>3.0</ele><time>2026-04-18T11:20:09.988Z</time></trkpt><trkpt lat="43.6189906" lon="10.4658538"><ele>3.0</ele><time>2026-04-18T11:20:10.988Z</time></trkpt><trkpt lat="43.6189308" lon="10.4660286"><ele>3.0</ele><time>2026-04-18T11:20:11.988Z</time></trkpt><trkpt lat="43.6188702" lon="10.4662052"><ele>3.666666666666667</ele><time>2026-04-18T11:20:12.988Z</time></trkpt><trkpt lat="43.6188114" lon="10.4663903"><ele>4.333333333333334</ele><time>2026-04-18T11:20:13.988Z</time></trkpt><trkpt lat="43.6187527" lon="10.4665861"><ele>5.0</ele><time>2026-04-18T11:20:14.988Z</time></trkpt><trkpt lat="43.6186969" lon="10.4667928"><ele>4.666666666666667</ele><time>2026-04-18T11:20:15.988Z</time></trkpt><trkpt lat="43.6186421" lon="10.4670055"><ele>4.333333333333333</ele><time>2026-04-18T11:20:16.989Z</time></trkpt><trkpt lat="43.6185765" lon="10.4672266"><ele>4.0</ele><time>2026-04-18T11:20:17.988Z</time></trkpt><trkpt lat="43.6185016" lon="10.4674486"><ele>4.0</ele><time>2026-04-18T11:20:18.988Z</time></trkpt><trkpt lat="43.6184129" lon="10.4676825"><ele>4.0</ele><time>2026-04-18T11:20:19.988Z</time></trkpt><trkpt lat="43.618317" lon="10.4679166"><ele>4.0</ele><time>2026-04-18T11:20:20.988Z</time></trkpt><trkpt lat="43.6182176" lon="10.4681492"><ele>4.333333333333333</ele><time>2026-04-18T11:20:21.988Z</time></trkpt><trkpt lat="43.6181193" lon="10.4683833"><ele>4.666666666666667</ele><time>2026-04-18T11:20:22.988Z</time></trkpt><trkpt lat="43.6180249" lon="10.4686127"><ele>5.0</ele><time>2026-04-18T11:20:23.988Z</time></trkpt><trkpt lat="43.6179236" lon="10.468838"><ele>5.333333333333334</ele><time>2026-04-18T11:20:24.988Z</time></trkpt><trkpt lat="43.617809" lon="10.4690548"><ele>5.666666666666667</ele><time>2026-04-18T11:20:25.988Z</time></trkpt><trkpt lat="43.6176869" lon="10.4692568"><ele>6.0</ele><time>2026-04-18T11:20:26.988Z</time></trkpt><trkpt lat="43.6175453" lon="10.4694432"><ele>6.0</ele><time>2026-04-18T11:20:27.988Z</time></trkpt><trkpt lat="43.6173899" lon="10.4696086"><ele>6.0</ele><time>2026-04-18T11:20:28.988Z</time></trkpt><trkpt lat="43.6172261" lon="10.4697514"><ele>6.0</ele><time>2026-04-18T11:20:29.988Z</time></trkpt><trkpt lat="43.6170534" lon="10.469873"><ele>6.0</ele><time>2026-04-18T11:20:30.988Z</time></trkpt><trkpt lat="43.6168808" lon="10.4699654"><ele>6.0</ele><time>2026-04-18T11:20:31.988Z</time></trkpt><trkpt lat="43.6167049" lon="10.4700437"><ele>6.0</ele><time>2026-04-18T11:20:32.988Z</time></trkpt><trkpt lat="43.6165252" lon="10.4701137"><ele>6.0</ele><time>2026-04-18T11:20:33.988Z</time></trkpt><trkpt lat="43.6163434" lon="10.4701791"><ele>6.0</ele><time>2026-04-18T11:20:34.989Z</time></trkpt><trkpt lat="43.6161609" lon="10.4702438"><ele>6.0</ele><time>2026-04-18T11:20:35.988Z</time></trkpt><trkpt lat="43.6159786" lon="10.470313"><ele>6.0</ele><time>2026-04-18T11:20:36.988Z</time></trkpt><trkpt lat="43.6157891" lon="10.4703823"><ele>6.0</ele><time>2026-04-18T11:20:37.988Z</time></trkpt><trkpt lat="43.6156031" lon="10.4704472"><ele>6.0</ele><time>2026-04-18T11:20:38.988Z</time></trkpt><trkpt lat="43.6154225" lon="10.4705096"><ele>6.333333333333334</ele><time>2026-04-18T11:20:39.988Z</time></trkpt><trkpt lat="43.6152476" lon="10.4705718"><ele>6.666666666666667</ele><time>2026-04-18T11:20:40.988Z</time></trkpt><trkpt lat="43.6150791" lon="10.4706344"><ele>7.0</ele><time>2026-04-18T11:20:41.988Z</time></trkpt><trkpt lat="43.614924" lon="10.4706882"><ele>7.0</ele><time>2026-04-18T11:20:42.988Z</time></trkpt><trkpt lat="43.6147664" lon="10.4707437"><ele>7.0</ele><time>2026-04-18T11:20:43.988Z</time></trkpt><trkpt lat="43.6146045" lon="10.4707986"><ele>7.0</ele><time>2026-04-18T11:20:44.988Z</time></trkpt><trkpt lat="43.614444" lon="10.4708574"><ele>6.333333333333334</ele><time>2026-04-18T11:20:45.988Z</time></trkpt><trkpt lat="43.6142823" lon="10.4709187"><ele>5.666666666666667</ele><time>2026-04-18T11:20:46.988Z</time></trkpt><trkpt lat="43.6141192" lon="10.4709842"><ele>5.0</ele><time>2026-04-18T11:20:47.988Z</time></trkpt><trkpt lat="43.6139568" lon="10.4710538"><ele>5.0</ele><time>2026-04-18T11:20:48.989Z</time></trkpt><trkpt lat="43.6137976" lon="10.4711261"><ele>5.0</ele><time>2026-04-18T11:20:49.988Z</time></trkpt><trkpt lat="43.6136415" lon="10.4711932"><ele>5.0</ele><time>2026-04-18T11:20:50.988Z</time></trkpt><trkpt lat="43.6134925" lon="10.4712634"><ele>5.0</ele><time>2026-04-18T11:20:51.988Z</time></trkpt><trkpt lat="43.6133448" lon="10.4713324"><ele>5.0</ele><time>2026-04-18T11:20:52.988Z</time></trkpt><trkpt lat="43.6131964" lon="10.4713998"><ele>5.0</ele><time>2026-04-18T11:20:53.988Z</time></trkpt><trkpt lat="43.6130553" lon="10.4714666"><ele>5.0</ele><time>2026-04-18T11:20:54.988Z</time></trkpt><trkpt lat="43.6129171" lon="10.4715316"><ele>5.0</ele><time>2026-04-18T11:20:55.988Z</time></trkpt><trkpt lat="43.612774" lon="10.4716039"><ele>5.0</ele><time>2026-04-18T11:20:56.988Z</time></trkpt><trkpt lat="43.6126304" lon="10.4716814"><ele>4.666666666666667</ele><time>2026-04-18T11:20:57.989Z</time></trkpt><trkpt lat="43.612491" lon="10.4717548"><ele>4.333333333333333</ele><time>2026-04-18T11:20:58.988Z</time></trkpt><trkpt lat="43.6123476" lon="10.4718246"><ele>4.0</ele><time>2026-04-18T11:20:59.988Z</time></trkpt><trkpt lat="43.6122027" lon="10.4719065"><ele>4.0</ele><time>2026-04-18T11:21:00.988Z</time></trkpt><trkpt lat="43.6120561" lon="10.4719832"><ele>4.0</ele><time>2026-04-18T11:21:01.988Z</time></trkpt><trkpt lat="43.611913" lon="10.4720507"><ele>4.0</ele><time>2026-04-18T11:21:02.988Z</time></trkpt><trkpt lat="43.6117823" lon="10.4721156"><ele>4.0</ele><time>2026-04-18T11:21:03.988Z</time></trkpt><trkpt lat="43.6116585" lon="10.4721837"><ele>4.25</ele><time>2026-04-18T11:21:04.988Z</time></trkpt><trkpt lat="43.6115364" lon="10.4722533"><ele>4.5</ele><time>2026-04-18T11:21:05.988Z</time></trkpt><trkpt lat="43.6114114" lon="10.4723157"><ele>4.75</ele><time>2026-04-18T11:21:06.988Z</time></trkpt><trkpt lat="43.6112828" lon="10.4723767"><ele>5.0</ele><time>2026-04-18T11:21:07.989Z</time></trkpt><trkpt lat="43.6111505" lon="10.4724337"><ele>5.0</ele><time>2026-04-18T11:21:08.988Z</time></trkpt><trkpt lat="43.6110115" lon="10.472475"><ele>5.0</ele><time>2026-04-18T11:21:09.988Z</time></trkpt><trkpt lat="43.6108711" lon="10.472515"><ele>5.0</ele><time>2026-04-18T11:21:10.988Z</time></trkpt><trkpt lat="43.6107321" lon="10.4725413"><ele>5.0</ele><time>2026-04-18T11:21:11.988Z</time></trkpt><trkpt lat="43.6105955" lon="10.4725678"><ele>5.0</ele><time>2026-04-18T11:21:12.988Z</time></trkpt><trkpt lat="43.6104664" lon="10.4725956"><ele>5.0</ele><time>2026-04-18T11:21:13.988Z</time></trkpt><trkpt lat="43.6103411" lon="10.4726259"><ele>5.0</ele><time>2026-04-18T11:21:14.988Z</time></trkpt><trkpt lat="43.6102205" lon="10.4726562"><ele>5.0</ele><time>2026-04-18T11:21:15.988Z</time></trkpt><trkpt lat="43.6100953" lon="10.472692"><ele>4.75</ele><time>2026-04-18T11:21:16.988Z</time></trkpt><trkpt lat="43.6099741" lon="10.4727347"><ele>4.5</ele><time>2026-04-18T11:21:17.988Z</time></trkpt><trkpt lat="43.6098599" lon="10.4727773"><ele>4.25</ele><time>2026-04-18T11:21:18.988Z</time></trkpt><trkpt lat="43.609744" lon="10.4728342"><ele>4.0</ele><time>2026-04-18T11:21:19.988Z</time></trkpt><trkpt lat="43.6096269" lon="10.4728914"><ele>4.5</ele><time>2026-04-18T11:21:20.988Z</time></trkpt><trkpt lat="43.6095071" lon="10.4729513"><ele>5.0</ele><time>2026-04-18T11:21:21.988Z</time></trkpt><trkpt lat="43.6093884" lon="10.4730225"><ele>5.5</ele><time>2026-04-18T11:21:22.988Z</time></trkpt><trkpt lat="43.6092667" lon="10.4731047"><ele>6.0</ele><time>2026-04-18T11:21:23.988Z</time></trkpt><trkpt lat="43.6091321" lon="10.4731997"><ele>6.0</ele><time>2026-04-18T11:21:24.988Z</time></trkpt><trkpt lat="43.6090037" lon="10.4732902"><ele>6.0</ele><time>2026-04-18T11:21:25.988Z</time></trkpt><trkpt lat="43.6088719" lon="10.4733736"><ele>6.0</ele><time>2026-04-18T11:21:26.988Z</time></trkpt><trkpt lat="43.6087411" lon="10.4734399"><ele>6.0</ele><time>2026-04-18T11:21:27.988Z</time></trkpt><trkpt lat="43.6086071" lon="10.4734927"><ele>6.0</ele><time>2026-04-18T11:21:28.988Z</time></trkpt><trkpt lat="43.6084717" lon="10.473534"><ele>6.0</ele><time>2026-04-18T11:21:29.988Z</time></trkpt><trkpt lat="43.6083368" lon="10.4735789"><ele>6.0</ele><time>2026-04-18T11:21:30.988Z</time></trkpt><trkpt lat="43.6081981" lon="10.473624"><ele>6.0</ele><time>2026-04-18T11:21:31.988Z</time></trkpt><trkpt lat="43.6080589" lon="10.4736686"><ele>6.0</ele><time>2026-04-18T11:21:32.988Z</time></trkpt><trkpt lat="43.6079218" lon="10.4737201"><ele>6.0</ele><time>2026-04-18T11:21:33.988Z</time></trkpt><trkpt lat="43.6077814" lon="10.4737657"><ele>6.0</ele><time>2026-04-18T11:21:34.988Z</time></trkpt><trkpt lat="43.6076362" lon="10.4738087"><ele>6.0</ele><time>2026-04-18T11:21:35.988Z</time></trkpt><trkpt lat="43.6074865" lon="10.4738564"><ele>6.666666666666666</ele><time>2026-04-18T11:21:36.988Z</time></trkpt><trkpt lat="43.607331" lon="10.4739061"><ele>7.333333333333333</ele><time>2026-04-18T11:21:37.988Z</time></trkpt><trkpt lat="43.6071645" lon="10.4739646"><ele>8.0</ele><time>2026-04-18T11:21:38.988Z</time></trkpt><trkpt lat="43.6069951" lon="10.4740245"><ele>7.333333333333333</ele><time>2026-04-18T11:21:39.989Z</time></trkpt><trkpt lat="43.6068167" lon="10.4740783"><ele>6.666666666666666</ele><time>2026-04-18T11:21:40.988Z</time></trkpt><trkpt lat="43.6066388" lon="10.4741355"><ele>6.0</ele><time>2026-04-18T11:21:41.988Z</time></trkpt><trkpt lat="43.6064687" lon="10.4741913"><ele>6.0</ele><time>2026-04-18T11:21:42.988Z</time></trkpt><trkpt lat="43.606304" lon="10.4742473"><ele>6.0</ele><time>2026-04-18T11:21:43.988Z</time></trkpt><trkpt lat="43.606139" lon="10.4743016"><ele>6.0</ele><time>2026-04-18T11:21:44.988Z</time></trkpt><trkpt lat="43.6059721" lon="10.4743542"><ele>6.0</ele><time>2026-04-18T11:21:45.988Z</time></trkpt><trkpt lat="43.6058059" lon="10.4743995"><ele>6.0</ele><time>2026-04-18T11:21:46.988Z</time></trkpt><trkpt lat="43.6056395" lon="10.4744463"><ele>6.0</ele><time>2026-04-18T11:21:47.988Z</time></trkpt><trkpt lat="43.6054786" lon="10.4744991"><ele>6.0</ele><time>2026-04-18T11:21:48.988Z</time></trkpt><trkpt lat="43.6053177" lon="10.4745466"><ele>6.0</ele><time>2026-04-18T11:21:49.988Z</time></trkpt><trkpt lat="43.6051581" lon="10.4745956"><ele>6.0</ele><time>2026-04-18T11:21:50.988Z</time></trkpt><trkpt lat="43.6049957" lon="10.4746497"><ele>6.0</ele><time>2026-04-18T11:21:51.988Z</time></trkpt><trkpt lat="43.6048313" lon="10.4746974"><ele>6.0</ele><time>2026-04-18T11:21:52.988Z</time></trkpt><trkpt lat="43.6046628" lon="10.4747477"><ele>6.0</ele><time>2026-04-18T11:21:53.988Z</time></trkpt><trkpt lat="43.6044803" lon="10.4748082"><ele>7.0</ele><time>2026-04-18T11:21:54.988Z</time></trkpt><trkpt lat="43.6042706" lon="10.4748845"><ele>8.0</ele><time>2026-04-18T11:21:55.988Z</time></trkpt><trkpt lat="43.6040436" lon="10.4749599"><ele>8.0</ele><time>2026-04-18T11:21:56.989Z</time></trkpt><trkpt lat="43.6038237" lon="10.4750214"><ele>8.0</ele><time>2026-04-18T11:21:57.988Z</time></trkpt><trkpt lat="43.603604" lon="10.4750739"><ele>8.0</ele><time>2026-04-18T11:21:58.988Z</time></trkpt><trkpt lat="43.6033861" lon="10.4751336"><ele>8.0</ele><time>2026-04-18T11:21:59.988Z</time></trkpt><trkpt lat="43.6031815" lon="10.4751921"><ele>8.0</ele><time>2026-04-18T11:22:00.988Z</time></trkpt><trkpt lat="43.6029867" lon="10.4752559"><ele>8.0</ele><time>2026-04-18T11:22:01.988Z</time></trkpt><trkpt lat="43.6027974" lon="10.4753151"><ele>8.333333333333332</ele><time>2026-04-18T11:22:02.988Z</time></trkpt><trkpt lat="43.602608" lon="10.4753631"><ele>8.666666666666666</ele><time>2026-04-18T11:22:03.988Z</time></trkpt><trkpt lat="43.6024255" lon="10.4754046"><ele>9.0</ele><time>2026-04-18T11:22:04.988Z</time></trkpt><trkpt lat="43.6022391" lon="10.4754269"><ele>9.0</ele><time>2026-04-18T11:22:05.988Z</time></trkpt><trkpt lat="43.6020518" lon="10.4754328"><ele>9.0</ele><time>2026-04-18T11:22:06.988Z</time></trkpt><trkpt lat="43.6018596" lon="10.4754259"><ele>9.0</ele><time>2026-04-18T11:22:07.988Z</time></trkpt><trkpt lat="43.6016766" lon="10.4754005"><ele>9.0</ele><time>2026-04-18T11:22:08.988Z</time></trkpt><trkpt lat="43.6014971" lon="10.4753561"><ele>9.0</ele><time>2026-04-18T11:22:09.988Z</time></trkpt><trkpt lat="43.6013224" lon="10.475292"><ele>9.0</ele><time>2026-04-18T11:22:10.988Z</time></trkpt><trkpt lat="43.6011562" lon="10.4752111"><ele>10.0</ele><time>2026-04-18T11:22:11.988Z</time></trkpt><trkpt lat="43.601007" lon="10.4751265"><ele>11.0</ele><time>2026-04-18T11:22:12.988Z</time></trkpt><trkpt lat="43.60087" lon="10.47504"><ele>12.0</ele><time>2026-04-18T11:22:13.989Z</time></trkpt><trkpt lat="43.600742" lon="10.4749432"><ele>12.0</ele><time>2026-04-18T11:22:14.988Z</time></trkpt><trkpt lat="43.6006152" lon="10.4748321"><ele>12.0</ele><time>2026-04-18T11:22:15.988Z</time></trkpt><trkpt lat="43.6004968" lon="10.4747103"><ele>12.0</ele><time>2026-04-18T11:22:16.988Z</time></trkpt><trkpt lat="43.6003866" lon="10.4745925"><ele>12.0</ele><time>2026-04-18T11:22:17.988Z</time></trkpt><trkpt lat="43.6002747" lon="10.474475"><ele>12.0</ele><time>2026-04-18T11:22:18.988Z</time></trkpt><trkpt lat="43.6001674" lon="10.4743645"><ele>12.0</ele><time>2026-04-18T11:22:19.988Z</time></trkpt><trkpt lat="43.6000616" lon="10.4742484"><ele>12.0</ele><time>2026-04-18T11:22:20.988Z</time></trkpt><trkpt lat="43.5999579" lon="10.4741323"><ele>12.0</ele><time>2026-04-18T11:22:21.988Z</time></trkpt><trkpt lat="43.5998499" lon="10.4740228"><ele>12.0</ele><time>2026-04-18T11:22:22.988Z</time></trkpt><trkpt lat="43.5997362" lon="10.4739154"><ele>12.0</ele><time>2026-04-18T11:22:23.989Z</time></trkpt><trkpt lat="43.5996185" lon="10.473821"><ele>12.0</ele><time>2026-04-18T11:22:24.989Z</time></trkpt><trkpt lat="43.599498" lon="10.4737297"><ele>12.0</ele><time>2026-04-18T11:22:25.988Z</time></trkpt><trkpt lat="43.5993804" lon="10.4736437"><ele>12.0</ele><time>2026-04-18T11:22:26.988Z</time></trkpt><trkpt lat="43.599265" lon="10.4735719"><ele>12.0</ele><time>2026-04-18T11:22:27.988Z</time></trkpt><trkpt lat="43.5991475" lon="10.4735088"><ele>12.0</ele><time>2026-04-18T11:22:28.988Z</time></trkpt><trkpt lat="43.5990274" lon="10.4734475"><ele>12.0</ele><time>2026-04-18T11:22:29.988Z</time></trkpt><trkpt lat="43.5989051" lon="10.4733923"><ele>12.0</ele><time>2026-04-18T11:22:30.988Z</time></trkpt><trkpt lat="43.5987822" lon="10.4733501"><ele>12.0</ele><time>2026-04-18T11:22:31.988Z</time></trkpt><trkpt lat="43.5986651" lon="10.4733117"><ele>12.0</ele><time>2026-04-18T11:22:32.988Z</time></trkpt><trkpt lat="43.5985429" lon="10.4732785"><ele>12.0</ele><time>2026-04-18T11:22:33.988Z</time></trkpt><trkpt lat="43.5984163" lon="10.4732436"><ele>12.0</ele><time>2026-04-18T11:22:34.988Z</time></trkpt><trkpt lat="43.5982853" lon="10.4732125"><ele>12.0</ele><time>2026-04-18T11:22:35.988Z</time></trkpt><trkpt lat="43.5981476" lon="10.4731783"><ele>12.0</ele><time>2026-04-18T11:22:36.988Z</time></trkpt><trkpt lat="43.5979927" lon="10.4731419"><ele>12.0</ele><time>2026-04-18T11:22:37.988Z</time></trkpt><trkpt lat="43.5978299" lon="10.4731025"><ele>13.0</ele><time>2026-04-18T11:22:38.988Z</time></trkpt><trkpt lat="43.5976672" lon="10.4730664"><ele>14.0</ele><time>2026-04-18T11:22:39.988Z</time></trkpt><trkpt lat="43.5975066" lon="10.4730288"><ele>15.0</ele><time>2026-04-18T11:22:40.989Z</time></trkpt><trkpt lat="43.5973583" lon="10.4729953"><ele>15.0</ele><time>2026-04-18T11:22:41.988Z</time></trkpt><trkpt lat="43.5972172" lon="10.4729608"><ele>15.0</ele><time>2026-04-18T11:22:42.988Z</time></trkpt><trkpt lat="43.5970858" lon="10.4729265"><ele>15.0</ele><time>2026-04-18T11:22:43.988Z</time></trkpt><trkpt lat="43.5969603" lon="10.4728956"><ele>15.0</ele><time>2026-04-18T11:22:44.988Z</time></trkpt><trkpt lat="43.5968416" lon="10.4728655"><ele>15.0</ele><time>2026-04-18T11:22:45.988Z</time></trkpt><trkpt lat="43.5967285" lon="10.4728375"><ele>15.0</ele><time>2026-04-18T11:22:46.988Z</time></trkpt><trkpt lat="43.5966179" lon="10.4728159"><ele>15.0</ele><time>2026-04-18T11:22:47.989Z</time></trkpt><trkpt lat="43.5965177" lon="10.4727941"><ele>15.0</ele><time>2026-04-18T11:22:48.988Z</time></trkpt><trkpt lat="43.596418" lon="10.472772"><ele>15.0</ele><time>2026-04-18T11:22:49.988Z</time></trkpt><trkpt lat="43.596324" lon="10.4727483"><ele>15.0</ele><time>2026-04-18T11:22:50.988Z</time></trkpt><trkpt lat="43.5962314" lon="10.4727197"><ele>15.0</ele><time>2026-04-18T11:22:51.988Z</time></trkpt><trkpt lat="43.5961451" lon="10.4726862"><ele>15.0</ele><time>2026-04-18T11:22:52.988Z</time></trkpt><trkpt lat="43.5960674" lon="10.4726482"><ele>15.0</ele><time>2026-04-18T11:22:53.988Z</time></trkpt><trkpt lat="43.5959987" lon="10.4725833"><ele>15.0</ele><time>2026-04-18T11:22:54.988Z</time></trkpt><trkpt lat="43.5959488" lon="10.4724916"><ele>15.0</ele><time>2026-04-18T11:22:55.988Z</time></trkpt><trkpt lat="43.5959019" lon="10.472399"><ele>15.333333333333334</ele><time>2026-04-18T11:22:56.988Z</time></trkpt><trkpt lat="43.5958465" lon="10.4723336"><ele>15.666666666666668</ele><time>2026-04-18T11:22:57.988Z</time></trkpt><trkpt lat="43.5957811" lon="10.4723106"><ele>16.0</ele><time>2026-04-18T11:22:58.988Z</time></trkpt><trkpt lat="43.5957178" lon="10.4723223"><ele>16.333333333333336</ele><time>2026-04-18T11:22:59.989Z</time></trkpt><trkpt lat="43.5956667" lon="10.4723745"><ele>16.666666666666668</ele><time>2026-04-18T11:23:00.988Z</time></trkpt><trkpt lat="43.5956461" lon="10.4725307"><ele>17.0</ele><time>2026-04-18T11:23:02.988Z</time></trkpt><trkpt lat="43.5957356" lon="10.4726583"><ele>17.0</ele><time>2026-04-18T11:23:04.988Z</time></trkpt><trkpt lat="43.595826" lon="10.4726894"><ele>17.0</ele><time>2026-04-18T11:23:05.988Z</time></trkpt><trkpt lat="43.5959455" lon="10.4727006"><ele>17.0</ele><time>2026-04-18T11:23:06.988Z</time></trkpt><trkpt lat="43.5960701" lon="10.4727133"><ele>17.0</ele><time>2026-04-18T11:23:07.988Z</time></trkpt><trkpt lat="43.5962119" lon="10.4727372"><ele>16.5</ele><time>2026-04-18T11:23:08.988Z</time></trkpt><trkpt lat="43.59636" lon="10.472762"><ele>16.0</ele><time>2026-04-18T11:23:09.988Z</time></trkpt><trkpt lat="43.5965014" lon="10.472801"><ele>15.5</ele><time>2026-04-18T11:23:10.988Z</time></trkpt><trkpt lat="43.5966497" lon="10.4728402"><ele>15.0</ele><time>2026-04-18T11:23:11.988Z</time></trkpt><trkpt lat="43.5967952" lon="10.472874"><ele>15.0</ele><time>2026-04-18T11:23:12.988Z</time></trkpt><trkpt lat="43.5969492" lon="10.4729109"><ele>15.0</ele><time>2026-04-18T11:23:13.988Z</time></trkpt><trkpt lat="43.5971292" lon="10.4729604"><ele>15.0</ele><time>2026-04-18T11:23:14.988Z</time></trkpt><trkpt lat="43.5973084" lon="10.4730046"><ele>15.0</ele><time>2026-04-18T11:23:15.989Z</time></trkpt><trkpt lat="43.5974941" lon="10.4730573"><ele>15.0</ele><time>2026-04-18T11:23:16.988Z</time></trkpt><trkpt lat="43.5976955" lon="10.4731066"><ele>15.0</ele><time>2026-04-18T11:23:17.988Z</time></trkpt><trkpt lat="43.5978972" lon="10.4731592"><ele>14.0</ele><time>2026-04-18T11:23:18.988Z</time></trkpt><trkpt lat="43.5980938" lon="10.4732111"><ele>13.0</ele><time>2026-04-18T11:23:19.988Z</time></trkpt><trkpt lat="43.5982776" lon="10.4732599"><ele>12.0</ele><time>2026-04-18T11:23:20.988Z</time></trkpt><trkpt lat="43.5984604" lon="10.4733041"><ele>12.0</ele><time>2026-04-18T11:23:21.988Z</time></trkpt><trkpt lat="43.5986412" lon="10.4733561"><ele>12.0</ele><time>2026-04-18T11:23:22.988Z</time></trkpt><trkpt lat="43.5988144" lon="10.4734123"><ele>12.0</ele><time>2026-04-18T11:23:23.988Z</time></trkpt><trkpt lat="43.5989746" lon="10.4734805"><ele>12.0</ele><time>2026-04-18T11:23:24.988Z</time></trkpt><trkpt lat="43.5991369" lon="10.4735597"><ele>12.0</ele><time>2026-04-18T11:23:25.988Z</time></trkpt><trkpt lat="43.5992934" lon="10.4736462"><ele>12.0</ele><time>2026-04-18T11:23:26.988Z</time></trkpt><trkpt lat="43.5994397" lon="10.4737371"><ele>12.0</ele><time>2026-04-18T11:23:27.988Z</time></trkpt><trkpt lat="43.5995818" lon="10.473846"><ele>12.0</ele><time>2026-04-18T11:23:28.988Z</time></trkpt><trkpt lat="43.5997285" lon="10.4739725"><ele>12.0</ele><time>2026-04-18T11:23:29.988Z</time></trkpt><trkpt lat="43.5998776" lon="10.4741103"><ele>12.0</ele><time>2026-04-18T11:23:30.988Z</time></trkpt><trkpt lat="43.6000141" lon="10.4742501"><ele>12.0</ele><time>2026-04-18T11:23:31.988Z</time></trkpt><trkpt lat="43.6001409" lon="10.4743863"><ele>12.0</ele><time>2026-04-18T11:23:32.988Z</time></trkpt><trkpt lat="43.6002671" lon="10.4745236"><ele>12.0</ele><time>2026-04-18T11:23:33.988Z</time></trkpt><trkpt lat="43.6003988" lon="10.4746672"><ele>12.0</ele><time>2026-04-18T11:23:34.988Z</time></trkpt><trkpt lat="43.6005294" lon="10.474807"><ele>12.0</ele><time>2026-04-18T11:23:35.988Z</time></trkpt><trkpt lat="43.6006659" lon="10.4749373"><ele>12.0</ele><time>2026-04-18T11:23:36.988Z</time></trkpt><trkpt lat="43.6008037" lon="10.475058"><ele>12.0</ele><time>2026-04-18T11:23:37.988Z</time></trkpt><trkpt lat="43.6009572" lon="10.4751623"><ele>12.0</ele><time>2026-04-18T11:23:38.988Z</time></trkpt><trkpt lat="43.6011165" lon="10.4752547"><ele>11.0</ele><time>2026-04-18T11:23:39.988Z</time></trkpt><trkpt lat="43.6012974" lon="10.4753402"><ele>10.0</ele><time>2026-04-18T11:23:40.989Z</time></trkpt><trkpt lat="43.6014747" lon="10.4754045"><ele>9.0</ele><time>2026-04-18T11:23:41.988Z</time></trkpt><trkpt lat="43.601667" lon="10.4754496"><ele>9.0</ele><time>2026-04-18T11:23:42.988Z</time></trkpt><trkpt lat="43.6018707" lon="10.4754742"><ele>9.0</ele><time>2026-04-18T11:23:43.988Z</time></trkpt><trkpt lat="43.6020793" lon="10.4754768"><ele>9.0</ele><time>2026-04-18T11:23:44.988Z</time></trkpt><trkpt lat="43.602292" lon="10.4754555"><ele>9.0</ele><time>2026-04-18T11:23:45.988Z</time></trkpt><trkpt lat="43.6024973" lon="10.4754179"><ele>9.0</ele><time>2026-04-18T11:23:46.988Z</time></trkpt><trkpt lat="43.6027062" lon="10.4753663"><ele>9.0</ele><time>2026-04-18T11:23:47.988Z</time></trkpt><trkpt lat="43.6029226" lon="10.4753088"><ele>8.666666666666666</ele><time>2026-04-18T11:23:48.989Z</time></trkpt><trkpt lat="43.6031304" lon="10.4752502"><ele>8.333333333333332</ele><time>2026-04-18T11:23:49.988Z</time></trkpt><trkpt lat="43.6033385" lon="10.4751836"><ele>8.0</ele><time>2026-04-18T11:23:50.988Z</time></trkpt><trkpt lat="43.6035341" lon="10.4751219"><ele>8.0</ele><time>2026-04-18T11:23:51.988Z</time></trkpt><trkpt lat="43.6037258" lon="10.4750669"><ele>8.0</ele><time>2026-04-18T11:23:52.988Z</time></trkpt><trkpt lat="43.6039107" lon="10.475005"><ele>8.0</ele><time>2026-04-18T11:23:53.988Z</time></trkpt><trkpt lat="43.6040973" lon="10.4749446"><ele>8.0</ele><time>2026-04-18T11:23:54.988Z</time></trkpt><trkpt lat="43.6042844" lon="10.4748847"><ele>8.0</ele><time>2026-04-18T11:23:55.988Z</time></trkpt><trkpt lat="43.6044726" lon="10.4748249"><ele>8.0</ele><time>2026-04-18T11:23:56.988Z</time></trkpt><trkpt lat="43.6046654" lon="10.4747685"><ele>7.333333333333333</ele><time>2026-04-18T11:23:57.988Z</time></trkpt><trkpt lat="43.6048604" lon="10.4747121"><ele>6.666666666666666</ele><time>2026-04-18T11:23:58.988Z</time></trkpt><trkpt lat="43.6050567" lon="10.4746536"><ele>6.0</ele><time>2026-04-18T11:23:59.988Z</time></trkpt><trkpt lat="43.6052525" lon="10.4745918"><ele>6.0</ele><time>2026-04-18T11:24:00.988Z</time></trkpt><trkpt lat="43.6054473" lon="10.4745311"><ele>6.0</ele><time>2026-04-18T11:24:01.988Z</time></trkpt><trkpt lat="43.6056429" lon="10.4744727"><ele>6.0</ele><time>2026-04-18T11:24:02.988Z</time></trkpt><trkpt lat="43.6058437" lon="10.4744101"><ele>6.0</ele><time>2026-04-18T11:24:03.988Z</time></trkpt><trkpt lat="43.6060472" lon="10.4743428"><ele>6.0</ele><time>2026-04-18T11:24:04.988Z</time></trkpt><trkpt lat="43.6062551" lon="10.4742777"><ele>6.0</ele><time>2026-04-18T11:24:05.989Z</time></trkpt><trkpt lat="43.6064648" lon="10.4742129"><ele>6.0</ele><time>2026-04-18T11:24:06.988Z</time></trkpt><trkpt lat="43.6066753" lon="10.4741449"><ele>6.0</ele><time>2026-04-18T11:24:07.988Z</time></trkpt><trkpt lat="43.6068895" lon="10.4740774"><ele>6.0</ele><time>2026-04-18T11:24:08.988Z</time></trkpt><trkpt lat="43.6071012" lon="10.4740122"><ele>6.666666666666666</ele><time>2026-04-18T11:24:09.988Z</time></trkpt><trkpt lat="43.6073066" lon="10.4739458"><ele>7.333333333333333</ele><time>2026-04-18T11:24:10.988Z</time></trkpt><trkpt lat="43.6075135" lon="10.4738803"><ele>8.0</ele><time>2026-04-18T11:24:11.988Z</time></trkpt><trkpt lat="43.6077142" lon="10.4738166"><ele>7.333333333333333</ele><time>2026-04-18T11:24:12.988Z</time></trkpt><trkpt lat="43.6079068" lon="10.4737547"><ele>6.666666666666666</ele><time>2026-04-18T11:24:13.988Z</time></trkpt><trkpt lat="43.6080858" lon="10.4737012"><ele>6.0</ele><time>2026-04-18T11:24:14.988Z</time></trkpt><trkpt lat="43.6082573" lon="10.4736516"><ele>6.0</ele><time>2026-04-18T11:24:15.988Z</time></trkpt><trkpt lat="43.6084149" lon="10.4735966"><ele>6.0</ele><time>2026-04-18T11:24:16.988Z</time></trkpt><trkpt lat="43.60857" lon="10.4735492"><ele>6.0</ele><time>2026-04-18T11:24:17.988Z</time></trkpt><trkpt lat="43.6087169" lon="10.4735175"><ele>6.0</ele><time>2026-04-18T11:24:18.989Z</time></trkpt><trkpt lat="43.6088625" lon="10.4734995"><ele>6.0</ele><time>2026-04-18T11:24:19.988Z</time></trkpt><trkpt lat="43.6090067" lon="10.473483"><ele>6.0</ele><time>2026-04-18T11:24:20.988Z</time></trkpt><trkpt lat="43.6091504" lon="10.4734785"><ele>6.0</ele><time>2026-04-18T11:24:21.988Z</time></trkpt><trkpt lat="43.6092933" lon="10.4734823"><ele>6.0</ele><time>2026-04-18T11:24:22.988Z</time></trkpt><trkpt lat="43.6094255" lon="10.4734848"><ele>6.0</ele><time>2026-04-18T11:24:23.988Z</time></trkpt><trkpt lat="43.6095579" lon="10.4734792"><ele>6.0</ele><time>2026-04-18T11:24:24.988Z</time></trkpt><trkpt lat="43.6096887" lon="10.4734704"><ele>6.0</ele><time>2026-04-18T11:24:25.988Z</time></trkpt><trkpt lat="43.6098094" lon="10.473471"><ele>6.0</ele><time>2026-04-18T11:24:26.988Z</time></trkpt><trkpt lat="43.6099187" lon="10.4735037"><ele>6.0</ele><time>2026-04-18T11:24:27.988Z</time></trkpt><trkpt lat="43.6100309" lon="10.4735625"><ele>6.0</ele><time>2026-04-18T11:24:28.988Z</time></trkpt><trkpt lat="43.6101454" lon="10.4736521"><ele>6.0</ele><time>2026-04-18T11:24:29.988Z</time></trkpt><trkpt lat="43.6102551" lon="10.4737741"><ele>6.75</ele><time>2026-04-18T11:24:30.988Z</time></trkpt><trkpt lat="43.6103566" lon="10.4739181"><ele>7.5</ele><time>2026-04-18T11:24:31.988Z</time></trkpt><trkpt lat="43.6104516" lon="10.4740718"><ele>8.25</ele><time>2026-04-18T11:24:32.988Z</time></trkpt><trkpt lat="43.6105363" lon="10.4742131"><ele>9.0</ele><time>2026-04-18T11:24:33.988Z</time></trkpt><trkpt lat="43.6106021" lon="10.4743729"><ele>9.0</ele><time>2026-04-18T11:24:34.988Z</time></trkpt><trkpt lat="43.6106519" lon="10.4745496"><ele>9.0</ele><time>2026-04-18T11:24:35.988Z</time></trkpt><trkpt lat="43.610673" lon="10.4747319"><ele>9.0</ele><time>2026-04-18T11:24:36.988Z</time></trkpt><trkpt lat="43.6106691" lon="10.4749273"><ele>9.0</ele><time>2026-04-18T11:24:37.988Z</time></trkpt><trkpt lat="43.6106445" lon="10.4751366"><ele>9.333333333333334</ele><time>2026-04-18T11:24:38.988Z</time></trkpt><trkpt lat="43.6106076" lon="10.4753462"><ele>9.666666666666668</ele><time>2026-04-18T11:24:39.988Z</time></trkpt><trkpt lat="43.6105681" lon="10.4755576"><ele>10.0</ele><time>2026-04-18T11:24:40.988Z</time></trkpt><trkpt lat="43.6105264" lon="10.4757685"><ele>10.0</ele><time>2026-04-18T11:24:41.988Z</time></trkpt><trkpt lat="43.6104868" lon="10.4759792"><ele>10.0</ele><time>2026-04-18T11:24:42.988Z</time></trkpt><trkpt lat="43.610452" lon="10.4761767"><ele>10.0</ele><time>2026-04-18T11:24:43.988Z</time></trkpt><trkpt lat="43.6104323" lon="10.4763657"><ele>10.0</ele><time>2026-04-18T11:24:44.988Z</time></trkpt><trkpt lat="43.6104293" lon="10.4765656"><ele>11.0</ele><time>2026-04-18T11:24:45.988Z</time></trkpt><trkpt lat="43.6104444" lon="10.4767735"><ele>12.0</ele><time>2026-04-18T11:24:46.988Z</time></trkpt><trkpt lat="43.6104765" lon="10.4769904"><ele>13.0</ele><time>2026-04-18T11:24:47.988Z</time></trkpt><trkpt lat="43.6105198" lon="10.477196"><ele>13.25</ele><time>2026-04-18T11:24:48.988Z</time></trkpt><trkpt lat="43.6105638" lon="10.47739"><ele>13.5</ele><time>2026-04-18T11:24:49.989Z</time></trkpt><trkpt lat="43.6106028" lon="10.4775832"><ele>13.75</ele><time>2026-04-18T11:24:50.988Z</time></trkpt><trkpt lat="43.6106343" lon="10.4777783"><ele>14.0</ele><time>2026-04-18T11:24:51.988Z</time></trkpt><trkpt lat="43.6106592" lon="10.4779823"><ele>13.5</ele><time>2026-04-18T11:24:52.988Z</time></trkpt><trkpt lat="43.6106702" lon="10.4781843"><ele>13.0</ele><time>2026-04-18T11:24:53.989Z</time></trkpt><trkpt lat="43.6106522" lon="10.4783765"><ele>12.5</ele><time>2026-04-18T11:24:54.988Z</time></trkpt><trkpt lat="43.6106216" lon="10.4785702"><ele>12.0</ele><time>2026-04-18T11:24:55.988Z</time></trkpt><trkpt lat="43.6105812" lon="10.4787576"><ele>12.0</ele><time>2026-04-18T11:24:56.988Z</time></trkpt><trkpt lat="43.6105222" lon="10.4789561"><ele>12.0</ele><time>2026-04-18T11:24:57.988Z</time></trkpt><trkpt lat="43.6104617" lon="10.4791604"><ele>12.0</ele><time>2026-04-18T11:24:58.988Z</time></trkpt><trkpt lat="43.6104079" lon="10.4793618"><ele>12.0</ele><time>2026-04-18T11:24:59.988Z</time></trkpt><trkpt lat="43.6103441" lon="10.4795509"><ele>12.0</ele><time>2026-04-18T11:25:00.988Z</time></trkpt><trkpt lat="43.6102715" lon="10.4797177"><ele>12.0</ele><time>2026-04-18T11:25:01.988Z</time></trkpt><trkpt lat="43.6101827" lon="10.4798764"><ele>12.0</ele><time>2026-04-18T11:25:02.988Z</time></trkpt><trkpt lat="43.6100738" lon="10.480018"><ele>11.333333333333334</ele><time>2026-04-18T11:25:03.988Z</time></trkpt><trkpt lat="43.6099553" lon="10.4801561"><ele>10.666666666666668</ele><time>2026-04-18T11:25:04.988Z</time></trkpt><trkpt lat="43.6098315" lon="10.4802872"><ele>10.0</ele><time>2026-04-18T11:25:05.988Z</time></trkpt><trkpt lat="43.6096954" lon="10.4804127"><ele>9.666666666666668</ele><time>2026-04-18T11:25:06.988Z</time></trkpt><trkpt lat="43.6095519" lon="10.480549"><ele>9.333333333333334</ele><time>2026-04-18T11:25:07.988Z</time></trkpt><trkpt lat="43.6094137" lon="10.4806864"><ele>9.0</ele><time>2026-04-18T11:25:08.989Z</time></trkpt><trkpt lat="43.6092692" lon="10.4808295"><ele>8.333333333333334</ele><time>2026-04-18T11:25:09.988Z</time></trkpt><trkpt lat="43.6091147" lon="10.4809784"><ele>7.666666666666667</ele><time>2026-04-18T11:25:10.988Z</time></trkpt><trkpt lat="43.6089604" lon="10.4811242"><ele>7.0</ele><time>2026-04-18T11:25:11.988Z</time></trkpt><trkpt lat="43.608807" lon="10.4812701"><ele>7.0</ele><time>2026-04-18T11:25:12.988Z</time></trkpt><trkpt lat="43.6086603" lon="10.4814214"><ele>7.0</ele><time>2026-04-18T11:25:13.988Z</time></trkpt><trkpt lat="43.608507" lon="10.4815682"><ele>7.0</ele><time>2026-04-18T11:25:14.989Z</time></trkpt><trkpt lat="43.6083549" lon="10.4817057"><ele>7.0</ele><time>2026-04-18T11:25:15.988Z</time></trkpt><trkpt lat="43.6082044" lon="10.4818437"><ele>7.0</ele><time>2026-04-18T11:25:16.988Z</time></trkpt><trkpt lat="43.6080547" lon="10.481974"><ele>7.0</ele><time>2026-04-18T11:25:17.988Z</time></trkpt><trkpt lat="43.6079056" lon="10.48211"><ele>6.333333333333334</ele><time>2026-04-18T11:25:18.989Z</time></trkpt><trkpt lat="43.6077567" lon="10.4822423"><ele>5.666666666666667</ele><time>2026-04-18T11:25:19.988Z</time></trkpt><trkpt lat="43.6076032" lon="10.4823752"><ele>5.0</ele><time>2026-04-18T11:25:20.988Z</time></trkpt><trkpt lat="43.6074471" lon="10.48252"><ele>5.0</ele><time>2026-04-18T11:25:21.988Z</time></trkpt><trkpt lat="43.6072896" lon="10.4826566"><ele>5.0</ele><time>2026-04-18T11:25:22.988Z</time></trkpt><trkpt lat="43.6071373" lon="10.4827901"><ele>5.0</ele><time>2026-04-18T11:25:23.988Z</time></trkpt><trkpt lat="43.6069894" lon="10.4829222"><ele>5.666666666666667</ele><time>2026-04-18T11:25:24.988Z</time></trkpt><trkpt lat="43.6068385" lon="10.4830601"><ele>6.333333333333334</ele><time>2026-04-18T11:25:25.989Z</time></trkpt><trkpt lat="43.6066968" lon="10.483192"><ele>7.0</ele><time>2026-04-18T11:25:26.989Z</time></trkpt><trkpt lat="43.6065594" lon="10.4833151"><ele>7.0</ele><time>2026-04-18T11:25:27.988Z</time></trkpt><trkpt lat="43.6064261" lon="10.4834303"><ele>7.0</ele><time>2026-04-18T11:25:28.989Z</time></trkpt><trkpt lat="43.6062914" lon="10.4835458"><ele>7.0</ele><time>2026-04-18T11:25:29.988Z</time></trkpt><trkpt lat="43.606155" lon="10.4836622"><ele>7.333333333333334</ele><time>2026-04-18T11:25:30.988Z</time></trkpt><trkpt lat="43.6060287" lon="10.4837962"><ele>7.666666666666666</ele><time>2026-04-18T11:25:31.988Z</time></trkpt><trkpt lat="43.6059057" lon="10.4839476"><ele>8.0</ele><time>2026-04-18T11:25:32.988Z</time></trkpt><trkpt lat="43.6057999" lon="10.4841168"><ele>8.0</ele><time>2026-04-18T11:25:33.988Z</time></trkpt><trkpt lat="43.6057013" lon="10.484304"><ele>8.0</ele><time>2026-04-18T11:25:34.988Z</time></trkpt><trkpt lat="43.6056117" lon="10.4845025"><ele>8.0</ele><time>2026-04-18T11:25:35.988Z</time></trkpt><trkpt lat="43.605527" lon="10.4847102"><ele>8.666666666666666</ele><time>2026-04-18T11:25:36.988Z</time></trkpt><trkpt lat="43.6054361" lon="10.4849248"><ele>9.333333333333334</ele><time>2026-04-18T11:25:37.988Z</time></trkpt><trkpt lat="43.605346" lon="10.4851396"><ele>10.0</ele><time>2026-04-18T11:25:38.988Z</time></trkpt><trkpt lat="43.6052623" lon="10.485358"><ele>10.0</ele><time>2026-04-18T11:25:39.988Z</time></trkpt><trkpt lat="43.6051729" lon="10.4855658"><ele>10.0</ele><time>2026-04-18T11:25:40.988Z</time></trkpt><trkpt lat="43.6050886" lon="10.4857698"><ele>10.0</ele><time>2026-04-18T11:25:41.988Z</time></trkpt><trkpt lat="43.6050058" lon="10.4859737"><ele>10.0</ele><time>2026-04-18T11:25:42.988Z</time></trkpt><trkpt lat="43.6049224" lon="10.4861691"><ele>10.0</ele><time>2026-04-18T11:25:43.988Z</time></trkpt><trkpt lat="43.6048423" lon="10.4863612"><ele>10.0</ele><time>2026-04-18T11:25:44.988Z</time></trkpt><trkpt lat="43.6047768" lon="10.4865625"><ele>10.0</ele><time>2026-04-18T11:25:45.988Z</time></trkpt><trkpt lat="43.6047251" lon="10.4867743"><ele>10.0</ele><time>2026-04-18T11:25:46.988Z</time></trkpt><trkpt lat="43.6046815" lon="10.4870013"><ele>10.0</ele><time>2026-04-18T11:25:47.988Z</time></trkpt><trkpt lat="43.604654" lon="10.4872294"><ele>10.0</ele><time>2026-04-18T11:25:48.988Z</time></trkpt><trkpt lat="43.6046364" lon="10.4874707"><ele>10.0</ele><time>2026-04-18T11:25:49.988Z</time></trkpt><trkpt lat="43.6046246" lon="10.4877138"><ele>10.0</ele><time>2026-04-18T11:25:50.988Z</time></trkpt><trkpt lat="43.6046092" lon="10.4879616"><ele>10.333333333333334</ele><time>2026-04-18T11:25:51.988Z</time></trkpt><trkpt lat="43.6045997" lon="10.4882152"><ele>10.666666666666666</ele><time>2026-04-18T11:25:52.988Z</time></trkpt><trkpt lat="43.604584" lon="10.4884666"><ele>11.0</ele><time>2026-04-18T11:25:53.988Z</time></trkpt><trkpt lat="43.6045742" lon="10.4887183"><ele>11.666666666666666</ele><time>2026-04-18T11:25:54.988Z</time></trkpt><trkpt lat="43.6045569" lon="10.4889682"><ele>12.333333333333332</ele><time>2026-04-18T11:25:55.988Z</time></trkpt><trkpt lat="43.6045397" lon="10.4892162"><ele>13.0</ele><time>2026-04-18T11:25:56.989Z</time></trkpt><trkpt lat="43.6045242" lon="10.4894629"><ele>12.666666666666666</ele><time>2026-04-18T11:25:57.988Z</time></trkpt><trkpt lat="43.6045074" lon="10.4897108"><ele>12.333333333333332</ele><time>2026-04-18T11:25:58.988Z</time></trkpt><trkpt lat="43.6045" lon="10.4899416"><ele>12.0</ele><time>2026-04-18T11:25:59.988Z</time></trkpt><trkpt lat="43.6044908" lon="10.4901688"><ele>11.0</ele><time>2026-04-18T11:26:00.988Z</time></trkpt><trkpt lat="43.6044763" lon="10.4903902"><ele>10.0</ele><time>2026-04-18T11:26:01.988Z</time></trkpt><trkpt lat="43.6044628" lon="10.4906076"><ele>9.0</ele><time>2026-04-18T11:26:02.989Z</time></trkpt><trkpt lat="43.6044517" lon="10.4908169"><ele>9.0</ele><time>2026-04-18T11:26:03.988Z</time></trkpt><trkpt lat="43.6044391" lon="10.4910182"><ele>9.0</ele><time>2026-04-18T11:26:04.988Z</time></trkpt><trkpt lat="43.6044283" lon="10.4912216"><ele>9.0</ele><time>2026-04-18T11:26:05.988Z</time></trkpt><trkpt lat="43.6044183" lon="10.4914192"><ele>9.0</ele><time>2026-04-18T11:26:06.989Z</time></trkpt><trkpt lat="43.6044085" lon="10.4916035"><ele>9.0</ele><time>2026-04-18T11:26:07.988Z</time></trkpt><trkpt lat="43.6044099" lon="10.4917818"><ele>9.0</ele><time>2026-04-18T11:26:08.988Z</time></trkpt><trkpt lat="43.6044343" lon="10.4919585"><ele>9.0</ele><time>2026-04-18T11:26:09.988Z</time></trkpt><trkpt lat="43.6044804" lon="10.4921374"><ele>9.0</ele><time>2026-04-18T11:26:10.988Z</time></trkpt><trkpt lat="43.6045431" lon="10.4922971"><ele>9.25</ele><time>2026-04-18T11:26:11.988Z</time></trkpt><trkpt lat="43.6046264" lon="10.4924428"><ele>9.5</ele><time>2026-04-18T11:26:12.988Z</time></trkpt><trkpt lat="43.6047288" lon="10.492579"><ele>9.75</ele><time>2026-04-18T11:26:13.988Z</time></trkpt><trkpt lat="43.6048492" lon="10.4927171"><ele>10.0</ele><time>2026-04-18T11:26:14.988Z</time></trkpt><trkpt lat="43.6049698" lon="10.4928583"><ele>10.0</ele><time>2026-04-18T11:26:15.988Z</time></trkpt><trkpt lat="43.6051001" lon="10.4930034"><ele>10.0</ele><time>2026-04-18T11:26:16.988Z</time></trkpt><trkpt lat="43.6052385" lon="10.4931633"><ele>10.0</ele><time>2026-04-18T11:26:17.988Z</time></trkpt><trkpt lat="43.6053853" lon="10.4933326"><ele>9.666666666666668</ele><time>2026-04-18T11:26:18.988Z</time></trkpt><trkpt lat="43.6055312" lon="10.4935014"><ele>9.333333333333334</ele><time>2026-04-18T11:26:19.988Z</time></trkpt><trkpt lat="43.6056888" lon="10.4936783"><ele>9.0</ele><time>2026-04-18T11:26:20.988Z</time></trkpt><trkpt lat="43.6058563" lon="10.4938638"><ele>9.0</ele><time>2026-04-18T11:26:21.988Z</time></trkpt><trkpt lat="43.6060244" lon="10.4940513"><ele>9.0</ele><time>2026-04-18T11:26:22.988Z</time></trkpt><trkpt lat="43.6061903" lon="10.4942436"><ele>9.0</ele><time>2026-04-18T11:26:23.988Z</time></trkpt><trkpt lat="43.6063526" lon="10.4944238"><ele>9.333333333333334</ele><time>2026-04-18T11:26:24.988Z</time></trkpt><trkpt lat="43.6065066" lon="10.4946038"><ele>9.666666666666668</ele><time>2026-04-18T11:26:25.988Z</time></trkpt><trkpt lat="43.606658" lon="10.494779"><ele>10.0</ele><time>2026-04-18T11:26:26.988Z</time></trkpt><trkpt lat="43.6068073" lon="10.4949587"><ele>10.0</ele><time>2026-04-18T11:26:27.988Z</time></trkpt><trkpt lat="43.6069526" lon="10.4951229"><ele>10.0</ele><time>2026-04-18T11:26:28.988Z</time></trkpt><trkpt lat="43.6070888" lon="10.4952954"><ele>10.0</ele><time>2026-04-18T11:26:29.988Z</time></trkpt><trkpt lat="43.6072187" lon="10.4954866"><ele>9.666666666666668</ele><time>2026-04-18T11:26:30.988Z</time></trkpt><trkpt lat="43.6073431" lon="10.4957003"><ele>9.333333333333334</ele><time>2026-04-18T11:26:31.988Z</time></trkpt><trkpt lat="43.6074609" lon="10.4959134"><ele>9.0</ele><time>2026-04-18T11:26:32.988Z</time></trkpt><trkpt lat="43.6075673" lon="10.4961126"><ele>9.333333333333334</ele><time>2026-04-18T11:26:33.988Z</time></trkpt><trkpt lat="43.6076651" lon="10.4962986"><ele>9.666666666666668</ele><time>2026-04-18T11:26:34.988Z</time></trkpt><trkpt lat="43.6077546" lon="10.4964698"><ele>10.0</ele><time>2026-04-18T11:26:35.988Z</time></trkpt><trkpt lat="43.6078307" lon="10.4966414"><ele>9.75</ele><time>2026-04-18T11:26:36.988Z</time></trkpt><trkpt lat="43.6078928" lon="10.4968276"><ele>9.5</ele><time>2026-04-18T11:26:37.988Z</time></trkpt><trkpt lat="43.6079311" lon="10.4970197"><ele>9.25</ele><time>2026-04-18T11:26:38.988Z</time></trkpt><trkpt lat="43.6079513" lon="10.4972247"><ele>9.0</ele><time>2026-04-18T11:26:39.988Z</time></trkpt><trkpt lat="43.6079469" lon="10.4974323"><ele>9.0</ele><time>2026-04-18T11:26:40.988Z</time></trkpt><trkpt lat="43.6079183" lon="10.4976402"><ele>9.0</ele><time>2026-04-18T11:26:41.988Z</time></trkpt><trkpt lat="43.6078645" lon="10.4978441"><ele>9.0</ele><time>2026-04-18T11:26:42.988Z</time></trkpt><trkpt lat="43.6078011" lon="10.498047"><ele>9.333333333333334</ele><time>2026-04-18T11:26:43.988Z</time></trkpt><trkpt lat="43.6077329" lon="10.4982586"><ele>9.666666666666668</ele><time>2026-04-18T11:26:44.988Z</time></trkpt><trkpt lat="43.6076609" lon="10.4984799"><ele>10.0</ele><time>2026-04-18T11:26:45.988Z</time></trkpt><trkpt lat="43.6075896" lon="10.4987028"><ele>10.0</ele><time>2026-04-18T11:26:46.988Z</time></trkpt><trkpt lat="43.6075197" lon="10.4989177"><ele>10.0</ele><time>2026-04-18T11:26:47.989Z</time></trkpt><trkpt lat="43.6074484" lon="10.4991334"><ele>10.0</ele><time>2026-04-18T11:26:48.988Z</time></trkpt><trkpt lat="43.6073778" lon="10.4993404"><ele>10.0</ele><time>2026-04-18T11:26:49.988Z</time></trkpt><trkpt lat="43.6073067" lon="10.499535"><ele>10.0</ele><time>2026-04-18T11:26:50.989Z</time></trkpt><trkpt lat="43.6072387" lon="10.4997249"><ele>10.0</ele><time>2026-04-18T11:26:51.988Z</time></trkpt><trkpt lat="43.6071838" lon="10.4999097"><ele>10.0</ele><time>2026-04-18T11:26:52.988Z</time></trkpt><trkpt lat="43.6071467" lon="10.5001096"><ele>10.0</ele><time>2026-04-18T11:26:53.988Z</time></trkpt><trkpt lat="43.6071293" lon="10.5003184"><ele>10.0</ele><time>2026-04-18T11:26:54.988Z</time></trkpt><trkpt lat="43.6071241" lon="10.5005292"><ele>10.333333333333334</ele><time>2026-04-18T11:26:55.988Z</time></trkpt><trkpt lat="43.6071397" lon="10.5007457"><ele>10.666666666666666</ele><time>2026-04-18T11:26:56.988Z</time></trkpt><trkpt lat="43.6071557" lon="10.5009631"><ele>11.0</ele><time>2026-04-18T11:26:57.988Z</time></trkpt><trkpt lat="43.6071736" lon="10.5011783"><ele>11.0</ele><time>2026-04-18T11:26:58.988Z</time></trkpt><trkpt lat="43.6072147" lon="10.5013762"><ele>11.0</ele><time>2026-04-18T11:26:59.988Z</time></trkpt><trkpt lat="43.6072816" lon="10.5015661"><ele>11.0</ele><time>2026-04-18T11:27:00.988Z</time></trkpt><trkpt lat="43.6073638" lon="10.5017477"><ele>11.0</ele><time>2026-04-18T11:27:01.988Z</time></trkpt><trkpt lat="43.607463" lon="10.5019233"><ele>11.0</ele><time>2026-04-18T11:27:02.988Z</time></trkpt><trkpt lat="43.6075693" lon="10.5021007"><ele>11.0</ele><time>2026-04-18T11:27:03.988Z</time></trkpt><trkpt lat="43.6076831" lon="10.5022719"><ele>11.0</ele><time>2026-04-18T11:27:04.989Z</time></trkpt><trkpt lat="43.6077996" lon="10.5024323"><ele>11.0</ele><time>2026-04-18T11:27:05.988Z</time></trkpt><trkpt lat="43.6079141" lon="10.5025826"><ele>11.0</ele><time>2026-04-18T11:27:06.988Z</time></trkpt><trkpt lat="43.6080334" lon="10.5027321"><ele>11.0</ele><time>2026-04-18T11:27:07.988Z</time></trkpt><trkpt lat="43.6081499" lon="10.5028806"><ele>11.0</ele><time>2026-04-18T11:27:08.988Z</time></trkpt><trkpt lat="43.6082591" lon="10.5030224"><ele>11.0</ele><time>2026-04-18T11:27:09.988Z</time></trkpt><trkpt lat="43.608357" lon="10.503158"><ele>11.0</ele><time>2026-04-18T11:27:10.988Z</time></trkpt><trkpt lat="43.6084285" lon="10.5033088"><ele>11.25</ele><time>2026-04-18T11:27:11.989Z</time></trkpt><trkpt lat="43.6084825" lon="10.5034819"><ele>11.5</ele><time>2026-04-18T11:27:12.989Z</time></trkpt><trkpt lat="43.6085177" lon="10.5036728"><ele>11.75</ele><time>2026-04-18T11:27:13.988Z</time></trkpt><trkpt lat="43.608531" lon="10.5038812"><ele>12.0</ele><time>2026-04-18T11:27:14.988Z</time></trkpt><trkpt lat="43.6085419" lon="10.5041101"><ele>12.0</ele><time>2026-04-18T11:27:15.988Z</time></trkpt><trkpt lat="43.6085542" lon="10.504352"><ele>12.0</ele><time>2026-04-18T11:27:16.988Z</time></trkpt><trkpt lat="43.6085648" lon="10.5046129"><ele>12.0</ele><time>2026-04-18T11:27:17.988Z</time></trkpt><trkpt lat="43.6085744" lon="10.504866"><ele>12.0</ele><time>2026-04-18T11:27:18.988Z</time></trkpt><trkpt lat="43.6085846" lon="10.5051257"><ele>12.0</ele><time>2026-04-18T11:27:19.988Z</time></trkpt><trkpt lat="43.6085929" lon="10.5053819"><ele>12.0</ele><time>2026-04-18T11:27:20.988Z</time></trkpt><trkpt lat="43.6086015" lon="10.5056303"><ele>11.0</ele><time>2026-04-18T11:27:21.989Z</time></trkpt><trkpt lat="43.6086091" lon="10.5058805"><ele>10.0</ele><time>2026-04-18T11:27:22.988Z</time></trkpt><trkpt lat="43.6086175" lon="10.5061371"><ele>9.0</ele><time>2026-04-18T11:27:23.988Z</time></trkpt><trkpt lat="43.6086227" lon="10.5063908"><ele>8.666666666666666</ele><time>2026-04-18T11:27:24.989Z</time></trkpt><trkpt lat="43.6086315" lon="10.5066366"><ele>8.333333333333332</ele><time>2026-04-18T11:27:25.988Z</time></trkpt><trkpt lat="43.6086393" lon="10.506884"><ele>8.0</ele><time>2026-04-18T11:27:26.988Z</time></trkpt><trkpt lat="43.6086497" lon="10.5071407"><ele>9.0</ele><time>2026-04-18T11:27:27.988Z</time></trkpt><trkpt lat="43.6086606" lon="10.5073912"><ele>10.0</ele><time>2026-04-18T11:27:28.988Z</time></trkpt><trkpt lat="43.6086679" lon="10.5076245"><ele>11.0</ele><time>2026-04-18T11:27:29.988Z</time></trkpt><trkpt lat="43.6086743" lon="10.5078447"><ele>11.0</ele><time>2026-04-18T11:27:30.988Z</time></trkpt><trkpt lat="43.6086804" lon="10.5080534"><ele>11.0</ele><time>2026-04-18T11:27:31.988Z</time></trkpt><trkpt lat="43.6086783" lon="10.5082644"><ele>11.0</ele><time>2026-04-18T11:27:32.988Z</time></trkpt><trkpt lat="43.6086623" lon="10.5084807"><ele>10.666666666666666</ele><time>2026-04-18T11:27:33.988Z</time></trkpt><trkpt lat="43.6086249" lon="10.5087014"><ele>10.333333333333334</ele><time>2026-04-18T11:27:34.989Z</time></trkpt><trkpt lat="43.6085753" lon="10.5089252"><ele>10.0</ele><time>2026-04-18T11:27:35.988Z</time></trkpt><trkpt lat="43.6085138" lon="10.5091514"><ele>11.0</ele><time>2026-04-18T11:27:36.988Z</time></trkpt><trkpt lat="43.608457" lon="10.5093831"><ele>12.0</ele><time>2026-04-18T11:27:37.988Z</time></trkpt><trkpt lat="43.6083958" lon="10.5096135"><ele>13.0</ele><time>2026-04-18T11:27:38.988Z</time></trkpt><trkpt lat="43.6083357" lon="10.5098456"><ele>13.333333333333332</ele><time>2026-04-18T11:27:39.988Z</time></trkpt><trkpt lat="43.6082756" lon="10.5100721"><ele>13.666666666666668</ele><time>2026-04-18T11:27:40.988Z</time></trkpt><trkpt lat="43.6082186" lon="10.5102948"><ele>14.0</ele><time>2026-04-18T11:27:41.988Z</time></trkpt><trkpt lat="43.608163" lon="10.510505"><ele>13.333333333333334</ele><time>2026-04-18T11:27:42.988Z</time></trkpt><trkpt lat="43.608109" lon="10.5107099"><ele>12.666666666666668</ele><time>2026-04-18T11:27:43.988Z</time></trkpt><trkpt lat="43.6080595" lon="10.510907"><ele>12.0</ele><time>2026-04-18T11:27:44.988Z</time></trkpt><trkpt lat="43.6080148" lon="10.5110968"><ele>12.5</ele><time>2026-04-18T11:27:45.988Z</time></trkpt><trkpt lat="43.6079629" lon="10.51128"><ele>13.0</ele><time>2026-04-18T11:27:46.988Z</time></trkpt><trkpt lat="43.6079154" lon="10.5114499"><ele>13.5</ele><time>2026-04-18T11:27:47.988Z</time></trkpt><trkpt lat="43.6078676" lon="10.5116143"><ele>14.0</ele><time>2026-04-18T11:27:48.988Z</time></trkpt><trkpt lat="43.6078291" lon="10.5117714"><ele>14.25</ele><time>2026-04-18T11:27:49.989Z</time></trkpt><trkpt lat="43.6077904" lon="10.5119205"><ele>14.5</ele><time>2026-04-18T11:27:50.988Z</time></trkpt><trkpt lat="43.6077548" lon="10.5120637"><ele>14.75</ele><time>2026-04-18T11:27:51.988Z</time></trkpt><trkpt lat="43.6077142" lon="10.5122139"><ele>15.0</ele><time>2026-04-18T11:27:52.988Z</time></trkpt><trkpt lat="43.6076727" lon="10.5123623"><ele>15.0</ele><time>2026-04-18T11:27:53.988Z</time></trkpt><trkpt lat="43.6076315" lon="10.512515"><ele>15.0</ele><time>2026-04-18T11:27:54.988Z</time></trkpt><trkpt lat="43.6075973" lon="10.5126636"><ele>15.0</ele><time>2026-04-18T11:27:55.988Z</time></trkpt><trkpt lat="43.607566" lon="10.5128139"><ele>15.0</ele><time>2026-04-18T11:27:56.988Z</time></trkpt><trkpt lat="43.6075476" lon="10.5129667"><ele>14.5</ele><time>2026-04-18T11:27:57.988Z</time></trkpt><trkpt lat="43.6075553" lon="10.5131331"><ele>14.0</ele><time>2026-04-18T11:27:58.988Z</time></trkpt><trkpt lat="43.6075818" lon="10.5133093"><ele>13.5</ele><time>2026-04-18T11:27:59.988Z</time></trkpt><trkpt lat="43.6076384" lon="10.5134825"><ele>13.0</ele><time>2026-04-18T11:28:00.988Z</time></trkpt><trkpt lat="43.6077227" lon="10.5136694"><ele>12.666666666666666</ele><time>2026-04-18T11:28:01.988Z</time></trkpt><trkpt lat="43.6078256" lon="10.5138731"><ele>12.333333333333332</ele><time>2026-04-18T11:28:02.988Z</time></trkpt><trkpt lat="43.6079312" lon="10.5140996"><ele>12.0</ele><time>2026-04-18T11:28:03.988Z</time></trkpt><trkpt lat="43.6080437" lon="10.5143629"><ele>12.5</ele><time>2026-04-18T11:28:04.989Z</time></trkpt><trkpt lat="43.6081553" lon="10.5146187"><ele>13.0</ele><time>2026-04-18T11:28:05.989Z</time></trkpt><trkpt lat="43.6082837" lon="10.5148901"><ele>13.0</ele><time>2026-04-18T11:28:06.988Z</time></trkpt><trkpt lat="43.6084043" lon="10.5151494"><ele>13.0</ele><time>2026-04-18T11:28:07.988Z</time></trkpt><trkpt lat="43.608518" lon="10.5153951"><ele>13.0</ele><time>2026-04-18T11:28:08.989Z</time></trkpt><trkpt lat="43.6086304" lon="10.5156279"><ele>12.333333333333332</ele><time>2026-04-18T11:28:09.988Z</time></trkpt><trkpt lat="43.608729" lon="10.5158417"><ele>11.666666666666666</ele><time>2026-04-18T11:28:10.988Z</time></trkpt><trkpt lat="43.608822" lon="10.5160649"><ele>11.0</ele><time>2026-04-18T11:28:11.988Z</time></trkpt><trkpt lat="43.6089089" lon="10.5162829"><ele>11.0</ele><time>2026-04-18T11:28:12.988Z</time></trkpt><trkpt lat="43.608982" lon="10.5165254"><ele>11.0</ele><time>2026-04-18T11:28:13.989Z</time></trkpt><trkpt lat="43.6090389" lon="10.5167981"><ele>11.0</ele><time>2026-04-18T11:28:14.988Z</time></trkpt><trkpt lat="43.6090941" lon="10.5170501"><ele>11.333333333333332</ele><time>2026-04-18T11:28:15.988Z</time></trkpt><trkpt lat="43.6091413" lon="10.5172954"><ele>11.666666666666666</ele><time>2026-04-18T11:28:16.988Z</time></trkpt><trkpt lat="43.6091854" lon="10.5175292"><ele>12.0</ele><time>2026-04-18T11:28:17.988Z</time></trkpt><trkpt lat="43.60924" lon="10.517765"><ele>12.333333333333332</ele><time>2026-04-18T11:28:18.989Z</time></trkpt><trkpt lat="43.6092897" lon="10.5179968"><ele>12.666666666666666</ele><time>2026-04-18T11:28:19.988Z</time></trkpt><trkpt lat="43.6093233" lon="10.5182267"><ele>13.0</ele><time>2026-04-18T11:28:20.989Z</time></trkpt><trkpt lat="43.6093353" lon="10.5184735"><ele>13.0</ele><time>2026-04-18T11:28:21.988Z</time></trkpt><trkpt lat="43.6093245" lon="10.5187316"><ele>13.0</ele><time>2026-04-18T11:28:22.988Z</time></trkpt><trkpt lat="43.6092889" lon="10.5190003"><ele>13.0</ele><time>2026-04-18T11:28:23.988Z</time></trkpt><trkpt lat="43.6092477" lon="10.5192943"><ele>12.666666666666666</ele><time>2026-04-18T11:28:24.989Z</time></trkpt><trkpt lat="43.6092041" lon="10.5195753"><ele>12.333333333333332</ele><time>2026-04-18T11:28:25.988Z</time></trkpt><trkpt lat="43.6091577" lon="10.519854"><ele>12.0</ele><time>2026-04-18T11:28:26.988Z</time></trkpt><trkpt lat="43.6091168" lon="10.5201272"><ele>12.0</ele><time>2026-04-18T11:28:27.988Z</time></trkpt><trkpt lat="43.6090712" lon="10.5203999"><ele>12.0</ele><time>2026-04-18T11:28:28.989Z</time></trkpt><trkpt lat="43.6090279" lon="10.5206686"><ele>12.0</ele><time>2026-04-18T11:28:29.988Z</time></trkpt><trkpt lat="43.6089807" lon="10.5209363"><ele>12.0</ele><time>2026-04-18T11:28:30.988Z</time></trkpt><trkpt lat="43.608939" lon="10.5212179"><ele>12.0</ele><time>2026-04-18T11:28:31.988Z</time></trkpt><trkpt lat="43.6088934" lon="10.5214864"><ele>12.0</ele><time>2026-04-18T11:28:32.988Z</time></trkpt><trkpt lat="43.6088489" lon="10.5217555"><ele>12.666666666666668</ele><time>2026-04-18T11:28:33.988Z</time></trkpt><trkpt lat="43.6088021" lon="10.5220236"><ele>13.333333333333334</ele><time>2026-04-18T11:28:34.988Z</time></trkpt><trkpt lat="43.608756" lon="10.5222901"><ele>14.0</ele><time>2026-04-18T11:28:35.988Z</time></trkpt><trkpt lat="43.6087125" lon="10.5225528"><ele>14.0</ele><time>2026-04-18T11:28:36.988Z</time></trkpt><trkpt lat="43.6086709" lon="10.5228141"><ele>14.0</ele><time>2026-04-18T11:28:37.988Z</time></trkpt><trkpt lat="43.6086307" lon="10.523075"><ele>14.0</ele><time>2026-04-18T11:28:38.988Z</time></trkpt><trkpt lat="43.6085917" lon="10.5233276"><ele>14.333333333333334</ele><time>2026-04-18T11:28:39.988Z</time></trkpt><trkpt lat="43.6085574" lon="10.5235645"><ele>14.666666666666668</ele><time>2026-04-18T11:28:40.988Z</time></trkpt><trkpt lat="43.6085323" lon="10.5238119"><ele>15.0</ele><time>2026-04-18T11:28:41.988Z</time></trkpt><trkpt lat="43.6085109" lon="10.5240593"><ele>15.0</ele><time>2026-04-18T11:28:42.988Z</time></trkpt><trkpt lat="43.6084913" lon="10.5243075"><ele>15.0</ele><time>2026-04-18T11:28:43.988Z</time></trkpt><trkpt lat="43.6084682" lon="10.5245612"><ele>15.0</ele><time>2026-04-18T11:28:44.988Z</time></trkpt><trkpt lat="43.6084514" lon="10.5248012"><ele>15.0</ele><time>2026-04-18T11:28:45.988Z</time></trkpt><trkpt lat="43.6084329" lon="10.5250275"><ele>15.0</ele><time>2026-04-18T11:28:46.988Z</time></trkpt><trkpt lat="43.608413" lon="10.5252196"><ele>15.0</ele><time>2026-04-18T11:28:47.988Z</time></trkpt><trkpt lat="43.6083928" lon="10.5253966"><ele>15.0</ele><time>2026-04-18T11:28:48.988Z</time></trkpt><trkpt lat="43.6083723" lon="10.5255559"><ele>15.0</ele><time>2026-04-18T11:28:49.988Z</time></trkpt><trkpt lat="43.6083509" lon="10.5256939"><ele>15.0</ele><time>2026-04-18T11:28:50.989Z</time></trkpt><trkpt lat="43.6083077" lon="10.5258195"><ele>15.0</ele><time>2026-04-18T11:28:51.988Z</time></trkpt><trkpt lat="43.608249" lon="10.5259464"><ele>15.0</ele><time>2026-04-18T11:28:52.988Z</time></trkpt><trkpt lat="43.608167" lon="10.5260412"><ele>15.0</ele><time>2026-04-18T11:28:53.988Z</time></trkpt><trkpt lat="43.6080746" lon="10.5261082"><ele>15.0</ele><time>2026-04-18T11:28:54.988Z</time></trkpt><trkpt lat="43.6079713" lon="10.5261404"><ele>15.0</ele><time>2026-04-18T11:28:55.988Z</time></trkpt><trkpt lat="43.6078613" lon="10.526138"><ele>15.0</ele><time>2026-04-18T11:28:56.988Z</time></trkpt><trkpt lat="43.6077464" lon="10.5260977"><ele>15.0</ele><time>2026-04-18T11:28:57.989Z</time></trkpt><trkpt lat="43.607631" lon="10.526032"><ele>15.0</ele><time>2026-04-18T11:28:58.988Z</time></trkpt><trkpt lat="43.6075009" lon="10.5259542"><ele>15.0</ele><time>2026-04-18T11:28:59.988Z</time></trkpt><trkpt lat="43.6073602" lon="10.5258606"><ele>15.0</ele><time>2026-04-18T11:29:00.988Z</time></trkpt><trkpt lat="43.6072258" lon="10.5257655"><ele>15.0</ele><time>2026-04-18T11:29:01.988Z</time></trkpt><trkpt lat="43.6070816" lon="10.5256634"><ele>15.0</ele><time>2026-04-18T11:29:02.988Z</time></trkpt><trkpt lat="43.6069344" lon="10.525555"><ele>15.0</ele><time>2026-04-18T11:29:03.988Z</time></trkpt><trkpt lat="43.6067864" lon="10.5254289"><ele>15.0</ele><time>2026-04-18T11:29:04.988Z</time></trkpt><trkpt lat="43.6066359" lon="10.5252928"><ele>15.0</ele><time>2026-04-18T11:29:05.988Z</time></trkpt><trkpt lat="43.6064891" lon="10.5251466"><ele>15.0</ele><time>2026-04-18T11:29:06.988Z</time></trkpt><trkpt lat="43.6063505" lon="10.5249881"><ele>15.0</ele><time>2026-04-18T11:29:07.988Z</time></trkpt><trkpt lat="43.6062133" lon="10.5248125"><ele>14.666666666666668</ele><time>2026-04-18T11:29:08.988Z</time></trkpt><trkpt lat="43.6060781" lon="10.5246324"><ele>14.333333333333334</ele><time>2026-04-18T11:29:09.988Z</time></trkpt><trkpt lat="43.6059463" lon="10.5244499"><ele>14.0</ele><time>2026-04-18T11:29:10.988Z</time></trkpt><trkpt lat="43.6058138" lon="10.5242705"><ele>14.0</ele><time>2026-04-18T11:29:11.988Z</time></trkpt><trkpt lat="43.6056816" lon="10.5240855"><ele>14.0</ele><time>2026-04-18T11:29:12.988Z</time></trkpt><trkpt lat="43.6055446" lon="10.5239197"><ele>14.0</ele><time>2026-04-18T11:29:13.988Z</time></trkpt><trkpt lat="43.6053966" lon="10.5237601"><ele>14.0</ele><time>2026-04-18T11:29:14.988Z</time></trkpt><trkpt lat="43.6052415" lon="10.5236113"><ele>14.0</ele><time>2026-04-18T11:29:15.988Z</time></trkpt><trkpt lat="43.6050801" lon="10.5234739"><ele>14.0</ele><time>2026-04-18T11:29:16.988Z</time></trkpt><trkpt lat="43.6049135" lon="10.5233473"><ele>14.0</ele><time>2026-04-18T11:29:17.988Z</time></trkpt><trkpt lat="43.6047443" lon="10.5232312"><ele>14.0</ele><time>2026-04-18T11:29:18.988Z</time></trkpt><trkpt lat="43.6045724" lon="10.5231227"><ele>14.0</ele><time>2026-04-18T11:29:19.988Z</time></trkpt><trkpt lat="43.604392" lon="10.5230227"><ele>14.333333333333334</ele><time>2026-04-18T11:29:20.988Z</time></trkpt><trkpt lat="43.6042152" lon="10.5229391"><ele>14.666666666666668</ele><time>2026-04-18T11:29:21.988Z</time></trkpt><trkpt lat="43.6040359" lon="10.522873"><ele>15.0</ele><time>2026-04-18T11:29:22.988Z</time></trkpt><trkpt lat="43.6038547" lon="10.5228164"><ele>15.0</ele><time>2026-04-18T11:29:23.988Z</time></trkpt><trkpt lat="43.6036709" lon="10.5227729"><ele>15.0</ele><time>2026-04-18T11:29:24.988Z</time></trkpt><trkpt lat="43.6034892" lon="10.5227397"><ele>15.0</ele><time>2026-04-18T11:29:25.989Z</time></trkpt><trkpt lat="43.6033111" lon="10.5227235"><ele>15.0</ele><time>2026-04-18T11:29:26.988Z</time></trkpt><trkpt lat="43.6031243" lon="10.5227301"><ele>15.0</ele><time>2026-04-18T11:29:27.988Z</time></trkpt><trkpt lat="43.6029415" lon="10.5227498"><ele>15.0</ele><time>2026-04-18T11:29:28.988Z</time></trkpt><trkpt lat="43.6027561" lon="10.522786"><ele>15.0</ele><time>2026-04-18T11:29:29.989Z</time></trkpt><trkpt lat="43.6025788" lon="10.5228474"><ele>15.0</ele><time>2026-04-18T11:29:30.988Z</time></trkpt><trkpt lat="43.6024003" lon="10.5229299"><ele>15.0</ele><time>2026-04-18T11:29:31.988Z</time></trkpt><trkpt lat="43.602234" lon="10.523031"><ele>15.0</ele><time>2026-04-18T11:29:32.988Z</time></trkpt><trkpt lat="43.6020683" lon="10.5231466"><ele>15.0</ele><time>2026-04-18T11:29:33.988Z</time></trkpt><trkpt lat="43.6019084" lon="10.5232796"><ele>15.0</ele><time>2026-04-18T11:29:34.988Z</time></trkpt><trkpt lat="43.6017469" lon="10.5234193"><ele>17.0</ele><time>2026-04-18T11:29:35.988Z</time></trkpt><trkpt lat="43.6015916" lon="10.5235711"><ele>19.0</ele><time>2026-04-18T11:29:36.988Z</time></trkpt><trkpt lat="43.6014327" lon="10.5237229"><ele>21.0</ele><time>2026-04-18T11:29:37.988Z</time></trkpt><trkpt lat="43.6012763" lon="10.5238779"><ele>19.333333333333332</ele><time>2026-04-18T11:29:38.989Z</time></trkpt><trkpt lat="43.6011197" lon="10.5240247"><ele>17.666666666666664</ele><time>2026-04-18T11:29:39.988Z</time></trkpt><trkpt lat="43.6009653" lon="10.5241731"><ele>16.0</ele><time>2026-04-18T11:29:40.988Z</time></trkpt><trkpt lat="43.6008119" lon="10.5243214"><ele>16.0</ele><time>2026-04-18T11:29:41.988Z</time></trkpt><trkpt lat="43.6006562" lon="10.5244665"><ele>16.0</ele><time>2026-04-18T11:29:42.988Z</time></trkpt><trkpt lat="43.6005064" lon="10.5246212"><ele>16.0</ele><time>2026-04-18T11:29:43.988Z</time></trkpt><trkpt lat="43.600358" lon="10.5247853"><ele>15.666666666666666</ele><time>2026-04-18T11:29:44.988Z</time></trkpt><trkpt lat="43.6002146" lon="10.5249587"><ele>15.333333333333332</ele><time>2026-04-18T11:29:45.988Z</time></trkpt><trkpt lat="43.6000731" lon="10.5251328"><ele>15.0</ele><time>2026-04-18T11:29:46.988Z</time></trkpt><trkpt lat="43.5999347" lon="10.525311"><ele>14.666666666666668</ele><time>2026-04-18T11:29:47.988Z</time></trkpt><trkpt lat="43.5997977" lon="10.5254882"><ele>14.333333333333334</ele><time>2026-04-18T11:29:48.988Z</time></trkpt><trkpt lat="43.5996611" lon="10.5256673"><ele>14.0</ele><time>2026-04-18T11:29:49.988Z</time></trkpt><trkpt lat="43.5995229" lon="10.5258416"><ele>14.333333333333334</ele><time>2026-04-18T11:29:50.988Z</time></trkpt><trkpt lat="43.5993908" lon="10.526013"><ele>14.666666666666668</ele><time>2026-04-18T11:29:51.988Z</time></trkpt><trkpt lat="43.5992592" lon="10.5261809"><ele>15.0</ele><time>2026-04-18T11:29:52.988Z</time></trkpt><trkpt lat="43.5991193" lon="10.5263313"><ele>15.333333333333332</ele><time>2026-04-18T11:29:53.988Z</time></trkpt><trkpt lat="43.5989726" lon="10.5264687"><ele>15.666666666666666</ele><time>2026-04-18T11:29:54.988Z</time></trkpt><trkpt lat="43.5988141" lon="10.5265929"><ele>16.0</ele><time>2026-04-18T11:29:55.988Z</time></trkpt><trkpt lat="43.5986538" lon="10.526706"><ele>16.0</ele><time>2026-04-18T11:29:56.988Z</time></trkpt><trkpt lat="43.5984906" lon="10.5268184"><ele>16.0</ele><time>2026-04-18T11:29:57.988Z</time></trkpt><trkpt lat="43.5983237" lon="10.5269284"><ele>16.0</ele><time>2026-04-18T11:29:58.989Z</time></trkpt><trkpt lat="43.598157" lon="10.5270421"><ele>16.0</ele><time>2026-04-18T11:29:59.988Z</time></trkpt><trkpt lat="43.5979921" lon="10.5271582"><ele>16.0</ele><time>2026-04-18T11:30:00.988Z</time></trkpt><trkpt lat="43.5978249" lon="10.5272746"><ele>16.0</ele><time>2026-04-18T11:30:01.988Z</time></trkpt><trkpt lat="43.5976562" lon="10.5273909"><ele>16.333333333333332</ele><time>2026-04-18T11:30:02.988Z</time></trkpt><trkpt lat="43.5974866" lon="10.5275107"><ele>16.666666666666668</ele><time>2026-04-18T11:30:03.988Z</time></trkpt><trkpt lat="43.5973154" lon="10.5276294"><ele>17.0</ele><time>2026-04-18T11:30:04.988Z</time></trkpt><trkpt lat="43.597148" lon="10.5277446"><ele>17.0</ele><time>2026-04-18T11:30:05.988Z</time></trkpt><trkpt lat="43.5969767" lon="10.5278623"><ele>17.0</ele><time>2026-04-18T11:30:06.988Z</time></trkpt><trkpt lat="43.5968057" lon="10.5279782"><ele>17.0</ele><time>2026-04-18T11:30:07.988Z</time></trkpt><trkpt lat="43.596636" lon="10.5280973"><ele>17.0</ele><time>2026-04-18T11:30:08.988Z</time></trkpt><trkpt lat="43.5964641" lon="10.5282132"><ele>17.0</ele><time>2026-04-18T11:30:09.988Z</time></trkpt><trkpt lat="43.5962976" lon="10.5283273"><ele>17.0</ele><time>2026-04-18T11:30:10.988Z</time></trkpt><trkpt lat="43.5961306" lon="10.5284289"><ele>17.666666666666668</ele><time>2026-04-18T11:30:11.989Z</time></trkpt><trkpt lat="43.5959618" lon="10.5285216"><ele>18.333333333333332</ele><time>2026-04-18T11:30:12.988Z</time></trkpt><trkpt lat="43.5957883" lon="10.5285986"><ele>19.0</ele><time>2026-04-18T11:30:13.988Z</time></trkpt><trkpt lat="43.5956098" lon="10.5286692"><ele>19.0</ele><time>2026-04-18T11:30:14.988Z</time></trkpt><trkpt lat="43.5954266" lon="10.5287242"><ele>19.0</ele><time>2026-04-18T11:30:15.988Z</time></trkpt><trkpt lat="43.595237" lon="10.5287728"><ele>19.0</ele><time>2026-04-18T11:30:16.989Z</time></trkpt><trkpt lat="43.5950475" lon="10.5288072"><ele>18.666666666666664</ele><time>2026-04-18T11:30:17.988Z</time></trkpt><trkpt lat="43.5948593" lon="10.5288367"><ele>18.333333333333332</ele><time>2026-04-18T11:30:18.988Z</time></trkpt><trkpt lat="43.5946699" lon="10.52887"><ele>18.0</ele><time>2026-04-18T11:30:19.988Z</time></trkpt><trkpt lat="43.5944733" lon="10.5289035"><ele>18.0</ele><time>2026-04-18T11:30:20.988Z</time></trkpt><trkpt lat="43.5942759" lon="10.5289391"><ele>18.0</ele><time>2026-04-18T11:30:21.988Z</time></trkpt><trkpt lat="43.5940781" lon="10.5289765"><ele>18.0</ele><time>2026-04-18T11:30:22.988Z</time></trkpt><trkpt lat="43.5938829" lon="10.5290106"><ele>18.0</ele><time>2026-04-18T11:30:23.988Z</time></trkpt><trkpt lat="43.5936872" lon="10.5290478"><ele>18.0</ele><time>2026-04-18T11:30:24.988Z</time></trkpt><trkpt lat="43.5934962" lon="10.5290779"><ele>18.0</ele><time>2026-04-18T11:30:25.989Z</time></trkpt><trkpt lat="43.5933045" lon="10.5291004"><ele>18.333333333333332</ele><time>2026-04-18T11:30:26.988Z</time></trkpt><trkpt lat="43.5931128" lon="10.5291335"><ele>18.666666666666664</ele><time>2026-04-18T11:30:27.988Z</time></trkpt><trkpt lat="43.5929188" lon="10.5291672"><ele>19.0</ele><time>2026-04-18T11:30:28.988Z</time></trkpt><trkpt lat="43.592728" lon="10.5291989"><ele>19.333333333333332</ele><time>2026-04-18T11:30:29.988Z</time></trkpt><trkpt lat="43.5925382" lon="10.529234"><ele>19.666666666666668</ele><time>2026-04-18T11:30:30.988Z</time></trkpt><trkpt lat="43.5923471" lon="10.5292689"><ele>20.0</ele><time>2026-04-18T11:30:31.988Z</time></trkpt><trkpt lat="43.592155" lon="10.5293062"><ele>20.666666666666668</ele><time>2026-04-18T11:30:32.988Z</time></trkpt><trkpt lat="43.5919609" lon="10.5293425"><ele>21.333333333333332</ele><time>2026-04-18T11:30:33.988Z</time></trkpt><trkpt lat="43.5917712" lon="10.5293722"><ele>22.0</ele><time>2026-04-18T11:30:34.988Z</time></trkpt><trkpt lat="43.5915832" lon="10.5294035"><ele>22.0</ele><time>2026-04-18T11:30:35.989Z</time></trkpt><trkpt lat="43.5913922" lon="10.529442"><ele>22.0</ele><time>2026-04-18T11:30:36.988Z</time></trkpt><trkpt lat="43.5912035" lon="10.5294767"><ele>22.0</ele><time>2026-04-18T11:30:37.988Z</time></trkpt><trkpt lat="43.5910265" lon="10.5294968"><ele>22.0</ele><time>2026-04-18T11:30:38.988Z</time></trkpt><trkpt lat="43.5908588" lon="10.5295075"><ele>22.0</ele><time>2026-04-18T11:30:39.988Z</time></trkpt><trkpt lat="43.5906966" lon="10.5294922"><ele>22.0</ele><time>2026-04-18T11:30:40.988Z</time></trkpt><trkpt lat="43.5905321" lon="10.529468"><ele>22.0</ele><time>2026-04-18T11:30:41.988Z</time></trkpt><trkpt lat="43.5903649" lon="10.5294235"><ele>22.0</ele><time>2026-04-18T11:30:42.989Z</time></trkpt><trkpt lat="43.5901935" lon="10.5293695"><ele>22.0</ele><time>2026-04-18T11:30:43.988Z</time></trkpt><trkpt lat="43.5900194" lon="10.5293006"><ele>21.666666666666664</ele><time>2026-04-18T11:30:44.988Z</time></trkpt><trkpt lat="43.5898448" lon="10.5292281"><ele>21.333333333333332</ele><time>2026-04-18T11:30:45.988Z</time></trkpt><trkpt lat="43.5896747" lon="10.5291507"><ele>21.0</ele><time>2026-04-18T11:30:46.988Z</time></trkpt><trkpt lat="43.5895067" lon="10.5290794"><ele>21.0</ele><time>2026-04-18T11:30:47.988Z</time></trkpt><trkpt lat="43.5893365" lon="10.5290107"><ele>21.0</ele><time>2026-04-18T11:30:48.988Z</time></trkpt><trkpt lat="43.5891657" lon="10.5289632"><ele>21.0</ele><time>2026-04-18T11:30:49.988Z</time></trkpt><trkpt lat="43.5889924" lon="10.5289405"><ele>21.0</ele><time>2026-04-18T11:30:50.988Z</time></trkpt><trkpt lat="43.5888143" lon="10.5289373"><ele>21.0</ele><time>2026-04-18T11:30:51.988Z</time></trkpt><trkpt lat="43.5886386" lon="10.5289558"><ele>21.0</ele><time>2026-04-18T11:30:52.988Z</time></trkpt><trkpt lat="43.5884597" lon="10.5289996"><ele>21.333333333333332</ele><time>2026-04-18T11:30:53.988Z</time></trkpt><trkpt lat="43.5882801" lon="10.5290669"><ele>21.666666666666664</ele><time>2026-04-18T11:30:54.989Z</time></trkpt><trkpt lat="43.5880927" lon="10.5291461"><ele>22.0</ele><time>2026-04-18T11:30:55.988Z</time></trkpt><trkpt lat="43.5879069" lon="10.5292223"><ele>22.0</ele><time>2026-04-18T11:30:56.988Z</time></trkpt><trkpt lat="43.5877209" lon="10.5292997"><ele>22.0</ele><time>2026-04-18T11:30:57.988Z</time></trkpt><trkpt lat="43.5875341" lon="10.5293749"><ele>22.0</ele><time>2026-04-18T11:30:58.988Z</time></trkpt><trkpt lat="43.5873494" lon="10.5294537"><ele>22.0</ele><time>2026-04-18T11:30:59.988Z</time></trkpt><trkpt lat="43.5871617" lon="10.5295263"><ele>22.0</ele><time>2026-04-18T11:31:00.988Z</time></trkpt><trkpt lat="43.5869744" lon="10.5296039"><ele>22.0</ele><time>2026-04-18T11:31:01.989Z</time></trkpt><trkpt lat="43.5867868" lon="10.5296809"><ele>22.333333333333332</ele><time>2026-04-18T11:31:02.988Z</time></trkpt><trkpt lat="43.586601" lon="10.5297589"><ele>22.666666666666668</ele><time>2026-04-18T11:31:03.988Z</time></trkpt><trkpt lat="43.58641" lon="10.5298335"><ele>23.0</ele><time>2026-04-18T11:31:04.988Z</time></trkpt><trkpt lat="43.5862228" lon="10.5299104"><ele>22.666666666666668</ele><time>2026-04-18T11:31:05.988Z</time></trkpt><trkpt lat="43.5860379" lon="10.5299842"><ele>22.333333333333332</ele><time>2026-04-18T11:31:06.988Z</time></trkpt><trkpt lat="43.5858536" lon="10.5300584"><ele>22.0</ele><time>2026-04-18T11:31:07.988Z</time></trkpt><trkpt lat="43.5856664" lon="10.5301328"><ele>22.0</ele><time>2026-04-18T11:31:08.989Z</time></trkpt><trkpt lat="43.5854786" lon="10.5302101"><ele>22.0</ele><time>2026-04-18T11:31:09.988Z</time></trkpt><trkpt lat="43.5852901" lon="10.5302888"><ele>22.0</ele><time>2026-04-18T11:31:10.988Z</time></trkpt><trkpt lat="43.5851034" lon="10.5303648"><ele>22.0</ele><time>2026-04-18T11:31:11.989Z</time></trkpt><trkpt lat="43.5849162" lon="10.5304426"><ele>22.0</ele><time>2026-04-18T11:31:12.989Z</time></trkpt><trkpt lat="43.5847313" lon="10.5305204"><ele>22.0</ele><time>2026-04-18T11:31:13.988Z</time></trkpt><trkpt lat="43.5845459" lon="10.5305962"><ele>22.666666666666664</ele><time>2026-04-18T11:31:14.989Z</time></trkpt><trkpt lat="43.5843591" lon="10.5306749"><ele>23.333333333333332</ele><time>2026-04-18T11:31:15.989Z</time></trkpt><trkpt lat="43.58417" lon="10.5307503"><ele>24.0</ele><time>2026-04-18T11:31:16.988Z</time></trkpt><trkpt lat="43.5839813" lon="10.5308282"><ele>24.0</ele><time>2026-04-18T11:31:17.988Z</time></trkpt><trkpt lat="43.583792" lon="10.5309073"><ele>24.0</ele><time>2026-04-18T11:31:18.988Z</time></trkpt><trkpt lat="43.5836026" lon="10.5309895"><ele>24.0</ele><time>2026-04-18T11:31:19.988Z</time></trkpt><trkpt lat="43.5834122" lon="10.5310678"><ele>24.333333333333336</ele><time>2026-04-18T11:31:20.988Z</time></trkpt><trkpt lat="43.5832247" lon="10.5311497"><ele>24.666666666666668</ele><time>2026-04-18T11:31:21.988Z</time></trkpt><trkpt lat="43.5830382" lon="10.5312316"><ele>25.0</ele><time>2026-04-18T11:31:22.988Z</time></trkpt><trkpt lat="43.5828508" lon="10.5313089"><ele>24.666666666666668</ele><time>2026-04-18T11:31:23.989Z</time></trkpt><trkpt lat="43.5826662" lon="10.5313795"><ele>24.333333333333336</ele><time>2026-04-18T11:31:24.988Z</time></trkpt><trkpt lat="43.5824845" lon="10.5314506"><ele>24.0</ele><time>2026-04-18T11:31:25.988Z</time></trkpt><trkpt lat="43.5822991" lon="10.5315214"><ele>24.0</ele><time>2026-04-18T11:31:26.988Z</time></trkpt><trkpt lat="43.5821189" lon="10.5315933"><ele>24.0</ele><time>2026-04-18T11:31:27.989Z</time></trkpt><trkpt lat="43.581938" lon="10.5316684"><ele>24.0</ele><time>2026-04-18T11:31:28.988Z</time></trkpt><trkpt lat="43.5817551" lon="10.5317453"><ele>23.666666666666668</ele><time>2026-04-18T11:31:29.988Z</time></trkpt><trkpt lat="43.5815735" lon="10.5318241"><ele>23.333333333333336</ele><time>2026-04-18T11:31:30.988Z</time></trkpt><trkpt lat="43.5813912" lon="10.5318981"><ele>23.0</ele><time>2026-04-18T11:31:31.988Z</time></trkpt><trkpt lat="43.5812084" lon="10.5319741"><ele>23.666666666666668</ele><time>2026-04-18T11:31:32.988Z</time></trkpt><trkpt lat="43.5810213" lon="10.5320515"><ele>24.333333333333336</ele><time>2026-04-18T11:31:33.988Z</time></trkpt><trkpt lat="43.5808362" lon="10.5321261"><ele>25.0</ele><time>2026-04-18T11:31:34.988Z</time></trkpt><trkpt lat="43.5806499" lon="10.5321994"><ele>25.0</ele><time>2026-04-18T11:31:35.988Z</time></trkpt><trkpt lat="43.5804602" lon="10.5322735"><ele>25.0</ele><time>2026-04-18T11:31:36.988Z</time></trkpt><trkpt lat="43.5802721" lon="10.5323523"><ele>25.0</ele><time>2026-04-18T11:31:37.988Z</time></trkpt><trkpt lat="43.5800844" lon="10.5324288"><ele>25.0</ele><time>2026-04-18T11:31:38.988Z</time></trkpt><trkpt lat="43.5798919" lon="10.5325107"><ele>25.0</ele><time>2026-04-18T11:31:39.988Z</time></trkpt><trkpt lat="43.5797018" lon="10.5325897"><ele>25.0</ele><time>2026-04-18T11:31:40.988Z</time></trkpt><trkpt lat="43.5795096" lon="10.5326708"><ele>25.333333333333336</ele><time>2026-04-18T11:31:41.988Z</time></trkpt><trkpt lat="43.5793219" lon="10.5327511"><ele>25.666666666666664</ele><time>2026-04-18T11:31:42.988Z</time></trkpt><trkpt lat="43.57913" lon="10.5328318"><ele>26.0</ele><time>2026-04-18T11:31:43.988Z</time></trkpt><trkpt lat="43.5789402" lon="10.5329099"><ele>26.0</ele><time>2026-04-18T11:31:44.988Z</time></trkpt><trkpt lat="43.5787514" lon="10.532991"><ele>26.0</ele><time>2026-04-18T11:31:45.988Z</time></trkpt><trkpt lat="43.5785617" lon="10.5330701"><ele>26.0</ele><time>2026-04-18T11:31:46.989Z</time></trkpt><trkpt lat="43.578373" lon="10.5331495"><ele>26.0</ele><time>2026-04-18T11:31:47.988Z</time></trkpt><trkpt lat="43.5781831" lon="10.5332267"><ele>26.0</ele><time>2026-04-18T11:31:48.988Z</time></trkpt><trkpt lat="43.577991" lon="10.5333113"><ele>26.0</ele><time>2026-04-18T11:31:49.988Z</time></trkpt><trkpt lat="43.5777999" lon="10.5333937"><ele>26.0</ele><time>2026-04-18T11:31:50.988Z</time></trkpt><trkpt lat="43.5776117" lon="10.5334702"><ele>26.0</ele><time>2026-04-18T11:31:51.988Z</time></trkpt><trkpt lat="43.577419" lon="10.5335462"><ele>26.0</ele><time>2026-04-18T11:31:52.989Z</time></trkpt><trkpt lat="43.5772292" lon="10.533624"><ele>26.0</ele><time>2026-04-18T11:31:53.988Z</time></trkpt><trkpt lat="43.5770456" lon="10.5337013"><ele>26.0</ele><time>2026-04-18T11:31:54.988Z</time></trkpt><trkpt lat="43.5768615" lon="10.5337807"><ele>26.0</ele><time>2026-04-18T11:31:55.988Z</time></trkpt><trkpt lat="43.5766789" lon="10.5338551"><ele>26.333333333333332</ele><time>2026-04-18T11:31:56.989Z</time></trkpt><trkpt lat="43.5764921" lon="10.5339311"><ele>26.666666666666664</ele><time>2026-04-18T11:31:57.988Z</time></trkpt><trkpt lat="43.5763026" lon="10.534008"><ele>27.0</ele><time>2026-04-18T11:31:58.988Z</time></trkpt><trkpt lat="43.5761151" lon="10.5340839"><ele>27.0</ele><time>2026-04-18T11:31:59.988Z</time></trkpt><trkpt lat="43.5759253" lon="10.5341653"><ele>27.0</ele><time>2026-04-18T11:32:00.988Z</time></trkpt><trkpt lat="43.5757374" lon="10.5342492"><ele>27.0</ele><time>2026-04-18T11:32:01.988Z</time></trkpt><trkpt lat="43.5755455" lon="10.5343299"><ele>27.0</ele><time>2026-04-18T11:32:02.988Z</time></trkpt><trkpt lat="43.5753557" lon="10.5344113"><ele>27.0</ele><time>2026-04-18T11:32:03.988Z</time></trkpt><trkpt lat="43.5751657" lon="10.5344922"><ele>27.0</ele><time>2026-04-18T11:32:04.988Z</time></trkpt><trkpt lat="43.5749779" lon="10.534572"><ele>27.333333333333336</ele><time>2026-04-18T11:32:05.988Z</time></trkpt><trkpt lat="43.5747899" lon="10.5346519"><ele>27.666666666666668</ele><time>2026-04-18T11:32:06.988Z</time></trkpt><trkpt lat="43.5746007" lon="10.5347317"><ele>28.0</ele><time>2026-04-18T11:32:07.988Z</time></trkpt><trkpt lat="43.5744098" lon="10.5348131"><ele>28.333333333333336</ele><time>2026-04-18T11:32:08.988Z</time></trkpt><trkpt lat="43.5742203" lon="10.5348929"><ele>28.666666666666664</ele><time>2026-04-18T11:32:09.988Z</time></trkpt><trkpt lat="43.5740343" lon="10.5349736"><ele>29.0</ele><time>2026-04-18T11:32:10.988Z</time></trkpt><trkpt lat="43.5738524" lon="10.5350543"><ele>29.0</ele><time>2026-04-18T11:32:11.988Z</time></trkpt><trkpt lat="43.573678" lon="10.5351274"><ele>29.0</ele><time>2026-04-18T11:32:12.988Z</time></trkpt><trkpt lat="43.5735059" lon="10.5352063"><ele>29.0</ele><time>2026-04-18T11:32:13.988Z</time></trkpt><trkpt lat="43.5733395" lon="10.5352757"><ele>29.0</ele><time>2026-04-18T11:32:14.988Z</time></trkpt><trkpt lat="43.5731705" lon="10.5353442"><ele>29.0</ele><time>2026-04-18T11:32:15.988Z</time></trkpt><trkpt lat="43.573" lon="10.5354017"><ele>29.0</ele><time>2026-04-18T11:32:16.988Z</time></trkpt><trkpt lat="43.5728229" lon="10.5354479"><ele>29.666666666666664</ele><time>2026-04-18T11:32:17.989Z</time></trkpt><trkpt lat="43.5726451" lon="10.5354817"><ele>30.333333333333336</ele><time>2026-04-18T11:32:18.988Z</time></trkpt><trkpt lat="43.5724722" lon="10.5354997"><ele>31.0</ele><time>2026-04-18T11:32:19.988Z</time></trkpt><trkpt lat="43.5722949" lon="10.5355049"><ele>31.0</ele><time>2026-04-18T11:32:20.988Z</time></trkpt><trkpt lat="43.5721173" lon="10.5355"><ele>31.0</ele><time>2026-04-18T11:32:21.988Z</time></trkpt><trkpt lat="43.5719419" lon="10.5354807"><ele>31.0</ele><time>2026-04-18T11:32:22.988Z</time></trkpt><trkpt lat="43.571766" lon="10.5354445"><ele>32.0</ele><time>2026-04-18T11:32:23.988Z</time></trkpt><trkpt lat="43.5715899" lon="10.5353981"><ele>33.0</ele><time>2026-04-18T11:32:24.988Z</time></trkpt><trkpt lat="43.5714119" lon="10.5353374"><ele>34.0</ele><time>2026-04-18T11:32:25.988Z</time></trkpt><trkpt lat="43.5712337" lon="10.5352666"><ele>34.333333333333336</ele><time>2026-04-18T11:32:26.988Z</time></trkpt><trkpt lat="43.5710599" lon="10.535195"><ele>34.666666666666664</ele><time>2026-04-18T11:32:27.988Z</time></trkpt><trkpt lat="43.5708868" lon="10.5351174"><ele>35.0</ele><time>2026-04-18T11:32:28.988Z</time></trkpt><trkpt lat="43.5707122" lon="10.5350285"><ele>35.0</ele><time>2026-04-18T11:32:29.988Z</time></trkpt><trkpt lat="43.5705409" lon="10.5349292"><ele>35.0</ele><time>2026-04-18T11:32:30.989Z</time></trkpt><trkpt lat="43.570372" lon="10.5348178"><ele>35.0</ele><time>2026-04-18T11:32:31.988Z</time></trkpt><trkpt lat="43.5702038" lon="10.5346983"><ele>35.33333333333333</ele><time>2026-04-18T11:32:32.988Z</time></trkpt><trkpt lat="43.5700402" lon="10.5345772"><ele>35.666666666666664</ele><time>2026-04-18T11:32:33.988Z</time></trkpt><trkpt lat="43.5698752" lon="10.5344505"><ele>36.0</ele><time>2026-04-18T11:32:34.988Z</time></trkpt><trkpt lat="43.5697167" lon="10.5343238"><ele>37.0</ele><time>2026-04-18T11:32:35.989Z</time></trkpt><trkpt lat="43.5695615" lon="10.5341947"><ele>38.0</ele><time>2026-04-18T11:32:36.988Z</time></trkpt><trkpt lat="43.5694023" lon="10.5340704"><ele>39.0</ele><time>2026-04-18T11:32:37.988Z</time></trkpt><trkpt lat="43.5692484" lon="10.5339422"><ele>39.333333333333336</ele><time>2026-04-18T11:32:38.988Z</time></trkpt><trkpt lat="43.5690923" lon="10.5338204"><ele>39.66666666666667</ele><time>2026-04-18T11:32:39.988Z</time></trkpt><trkpt lat="43.5689334" lon="10.5337069"><ele>40.0</ele><time>2026-04-18T11:32:40.988Z</time></trkpt><trkpt lat="43.5687683" lon="10.5336153"><ele>40.0</ele><time>2026-04-18T11:32:41.988Z</time></trkpt><trkpt lat="43.5685989" lon="10.5335426"><ele>40.0</ele><time>2026-04-18T11:32:42.988Z</time></trkpt><trkpt lat="43.5684222" lon="10.5334935"><ele>40.0</ele><time>2026-04-18T11:32:43.988Z</time></trkpt><trkpt lat="43.568242" lon="10.5334648"><ele>40.0</ele><time>2026-04-18T11:32:44.988Z</time></trkpt><trkpt lat="43.5680559" lon="10.5334497"><ele>40.0</ele><time>2026-04-18T11:32:45.988Z</time></trkpt><trkpt lat="43.5678681" lon="10.5334443"><ele>40.0</ele><time>2026-04-18T11:32:46.989Z</time></trkpt><trkpt lat="43.567682" lon="10.533438"><ele>39.0</ele><time>2026-04-18T11:32:47.988Z</time></trkpt><trkpt lat="43.5674948" lon="10.5334327"><ele>38.0</ele><time>2026-04-18T11:32:48.988Z</time></trkpt><trkpt lat="43.5673092" lon="10.5334332"><ele>37.0</ele><time>2026-04-18T11:32:49.988Z</time></trkpt><trkpt lat="43.5671194" lon="10.5334305"><ele>37.0</ele><time>2026-04-18T11:32:50.988Z</time></trkpt><trkpt lat="43.5669344" lon="10.5334278"><ele>37.0</ele><time>2026-04-18T11:32:51.988Z</time></trkpt><trkpt lat="43.5667513" lon="10.5334254"><ele>37.0</ele><time>2026-04-18T11:32:52.988Z</time></trkpt><trkpt lat="43.5665709" lon="10.5334217"><ele>37.0</ele><time>2026-04-18T11:32:53.988Z</time></trkpt><trkpt lat="43.5663894" lon="10.5334216"><ele>37.0</ele><time>2026-04-18T11:32:54.988Z</time></trkpt><trkpt lat="43.5662087" lon="10.5334215"><ele>37.0</ele><time>2026-04-18T11:32:55.988Z</time></trkpt><trkpt lat="43.5660301" lon="10.5334167"><ele>36.66666666666667</ele><time>2026-04-18T11:32:56.988Z</time></trkpt><trkpt lat="43.5658556" lon="10.5334114"><ele>36.333333333333336</ele><time>2026-04-18T11:32:57.988Z</time></trkpt><trkpt lat="43.5656828" lon="10.5334185"><ele>36.0</ele><time>2026-04-18T11:32:58.988Z</time></trkpt><trkpt lat="43.5655167" lon="10.5334507"><ele>37.666666666666664</ele><time>2026-04-18T11:32:59.988Z</time></trkpt><trkpt lat="43.5653529" lon="10.5335012"><ele>39.33333333333333</ele><time>2026-04-18T11:33:00.988Z</time></trkpt><trkpt lat="43.5651942" lon="10.5335715"><ele>41.0</ele><time>2026-04-18T11:33:01.988Z</time></trkpt><trkpt lat="43.5650468" lon="10.5336679"><ele>38.666666666666664</ele><time>2026-04-18T11:33:02.988Z</time></trkpt><trkpt lat="43.5649041" lon="10.5337816"><ele>36.333333333333336</ele><time>2026-04-18T11:33:03.988Z</time></trkpt><trkpt lat="43.5647651" lon="10.5339157"><ele>34.0</ele><time>2026-04-18T11:33:04.988Z</time></trkpt><trkpt lat="43.5646271" lon="10.5340529"><ele>35.0</ele><time>2026-04-18T11:33:05.988Z</time></trkpt><trkpt lat="43.564487" lon="10.5341938"><ele>36.0</ele><time>2026-04-18T11:33:06.989Z</time></trkpt><trkpt lat="43.5643482" lon="10.5343301"><ele>37.0</ele><time>2026-04-18T11:33:07.988Z</time></trkpt><trkpt lat="43.5642043" lon="10.5344734"><ele>36.0</ele><time>2026-04-18T11:33:08.988Z</time></trkpt><trkpt lat="43.5640518" lon="10.5346092"><ele>35.0</ele><time>2026-04-18T11:33:09.988Z</time></trkpt><trkpt lat="43.5639106" lon="10.5347496"><ele>34.0</ele><time>2026-04-18T11:33:10.988Z</time></trkpt><trkpt lat="43.5637624" lon="10.5348955"><ele>34.333333333333336</ele><time>2026-04-18T11:33:11.988Z</time></trkpt><trkpt lat="43.563612" lon="10.5350346"><ele>34.666666666666664</ele><time>2026-04-18T11:33:12.989Z</time></trkpt><trkpt lat="43.5634534" lon="10.5351739"><ele>35.0</ele><time>2026-04-18T11:33:13.988Z</time></trkpt><trkpt lat="43.5632868" lon="10.5352856"><ele>35.0</ele><time>2026-04-18T11:33:14.988Z</time></trkpt><trkpt lat="43.5631202" lon="10.5354022"><ele>35.0</ele><time>2026-04-18T11:33:15.988Z</time></trkpt><trkpt lat="43.5629533" lon="10.5355237"><ele>35.0</ele><time>2026-04-18T11:33:16.988Z</time></trkpt><trkpt lat="43.5627877" lon="10.5356396"><ele>35.0</ele><time>2026-04-18T11:33:17.988Z</time></trkpt><trkpt lat="43.5626254" lon="10.5357485"><ele>35.0</ele><time>2026-04-18T11:33:18.989Z</time></trkpt><trkpt lat="43.5624658" lon="10.5358645"><ele>35.0</ele><time>2026-04-18T11:33:19.988Z</time></trkpt><trkpt lat="43.5623064" lon="10.535985"><ele>35.0</ele><time>2026-04-18T11:33:20.988Z</time></trkpt><trkpt lat="43.5621406" lon="10.5361044"><ele>35.0</ele><time>2026-04-18T11:33:21.988Z</time></trkpt><trkpt lat="43.5619694" lon="10.5362225"><ele>35.0</ele><time>2026-04-18T11:33:22.988Z</time></trkpt><trkpt lat="43.5618088" lon="10.5363321"><ele>36.0</ele><time>2026-04-18T11:33:23.988Z</time></trkpt><trkpt lat="43.5616514" lon="10.5364415"><ele>37.0</ele><time>2026-04-18T11:33:24.988Z</time></trkpt><trkpt lat="43.5615061" lon="10.5365423"><ele>38.0</ele><time>2026-04-18T11:33:25.988Z</time></trkpt><trkpt lat="43.561354" lon="10.5366507"><ele>38.666666666666664</ele><time>2026-04-18T11:33:26.988Z</time></trkpt><trkpt lat="43.5611987" lon="10.5367717"><ele>39.333333333333336</ele><time>2026-04-18T11:33:27.988Z</time></trkpt><trkpt lat="43.5610457" lon="10.5368859"><ele>40.0</ele><time>2026-04-18T11:33:28.988Z</time></trkpt><trkpt lat="43.5609022" lon="10.5369788"><ele>39.0</ele><time>2026-04-18T11:33:29.988Z</time></trkpt><trkpt lat="43.5607484" lon="10.5370601"><ele>38.0</ele><time>2026-04-18T11:33:30.988Z</time></trkpt><trkpt lat="43.5605871" lon="10.5371195"><ele>37.0</ele><time>2026-04-18T11:33:31.988Z</time></trkpt><trkpt lat="43.5604334" lon="10.5371532"><ele>38.333333333333336</ele><time>2026-04-18T11:33:32.988Z</time></trkpt><trkpt lat="43.5602705" lon="10.5371511"><ele>39.666666666666664</ele><time>2026-04-18T11:33:33.988Z</time></trkpt><trkpt lat="43.5601091" lon="10.5371426"><ele>41.0</ele><time>2026-04-18T11:33:34.988Z</time></trkpt><trkpt lat="43.5599483" lon="10.5371041"><ele>41.33333333333333</ele><time>2026-04-18T11:33:35.988Z</time></trkpt><trkpt lat="43.5597805" lon="10.5370474"><ele>41.666666666666664</ele><time>2026-04-18T11:33:36.988Z</time></trkpt><trkpt lat="43.5596107" lon="10.5369655"><ele>42.0</ele><time>2026-04-18T11:33:37.989Z</time></trkpt><trkpt lat="43.5594349" lon="10.5368676"><ele>43.0</ele><time>2026-04-18T11:33:38.988Z</time></trkpt><trkpt lat="43.5592658" lon="10.5367754"><ele>44.0</ele><time>2026-04-18T11:33:39.988Z</time></trkpt><trkpt lat="43.5590944" lon="10.5366807"><ele>45.0</ele><time>2026-04-18T11:33:40.988Z</time></trkpt><trkpt lat="43.5589249" lon="10.5365919"><ele>45.0</ele><time>2026-04-18T11:33:41.989Z</time></trkpt><trkpt lat="43.5587597" lon="10.5365041"><ele>45.0</ele><time>2026-04-18T11:33:42.988Z</time></trkpt><trkpt lat="43.5585989" lon="10.5364186"><ele>45.0</ele><time>2026-04-18T11:33:43.988Z</time></trkpt><trkpt lat="43.5584379" lon="10.5363459"><ele>46.0</ele><time>2026-04-18T11:33:44.988Z</time></trkpt><trkpt lat="43.5582731" lon="10.5362872"><ele>47.0</ele><time>2026-04-18T11:33:45.988Z</time></trkpt><trkpt lat="43.5581012" lon="10.5362541"><ele>48.0</ele><time>2026-04-18T11:33:46.988Z</time></trkpt><trkpt lat="43.5579285" lon="10.5362407"><ele>48.66666666666667</ele><time>2026-04-18T11:33:47.988Z</time></trkpt><trkpt lat="43.5577484" lon="10.5362325"><ele>49.333333333333336</ele><time>2026-04-18T11:33:48.988Z</time></trkpt><trkpt lat="43.5575679" lon="10.5362249"><ele>50.0</ele><time>2026-04-18T11:33:49.988Z</time></trkpt><trkpt lat="43.5573866" lon="10.5362231"><ele>51.0</ele><time>2026-04-18T11:33:50.988Z</time></trkpt><trkpt lat="43.5572089" lon="10.5362155"><ele>52.0</ele><time>2026-04-18T11:33:51.988Z</time></trkpt><trkpt lat="43.5570345" lon="10.5362124"><ele>53.0</ele><time>2026-04-18T11:33:52.989Z</time></trkpt><trkpt lat="43.5568619" lon="10.5362062"><ele>54.0</ele><time>2026-04-18T11:33:53.988Z</time></trkpt><trkpt lat="43.5566936" lon="10.5362028"><ele>55.0</ele><time>2026-04-18T11:33:54.988Z</time></trkpt><trkpt lat="43.5565235" lon="10.5361982"><ele>56.0</ele><time>2026-04-18T11:33:55.988Z</time></trkpt><trkpt lat="43.5563535" lon="10.5361956"><ele>57.66666666666667</ele><time>2026-04-18T11:33:56.988Z</time></trkpt><trkpt lat="43.5561842" lon="10.5361884"><ele>59.33333333333333</ele><time>2026-04-18T11:33:57.988Z</time></trkpt><trkpt lat="43.5560144" lon="10.5361875"><ele>61.0</ele><time>2026-04-18T11:33:58.988Z</time></trkpt><trkpt lat="43.5558428" lon="10.536185"><ele>61.0</ele><time>2026-04-18T11:33:59.988Z</time></trkpt><trkpt lat="43.5556719" lon="10.5361768"><ele>61.0</ele><time>2026-04-18T11:34:00.988Z</time></trkpt><trkpt lat="43.5555059" lon="10.536173"><ele>61.0</ele><time>2026-04-18T11:34:01.988Z</time></trkpt><trkpt lat="43.5553412" lon="10.5361719"><ele>61.666666666666664</ele><time>2026-04-18T11:34:02.988Z</time></trkpt><trkpt lat="43.5551828" lon="10.5361654"><ele>62.33333333333333</ele><time>2026-04-18T11:34:03.988Z</time></trkpt><trkpt lat="43.5550247" lon="10.5361607"><ele>63.0</ele><time>2026-04-18T11:34:04.988Z</time></trkpt><trkpt lat="43.5548686" lon="10.5361655"><ele>63.0</ele><time>2026-04-18T11:34:05.988Z</time></trkpt><trkpt lat="43.5547081" lon="10.5361752"><ele>63.0</ele><time>2026-04-18T11:34:06.988Z</time></trkpt><trkpt lat="43.5545612" lon="10.5361891"><ele>63.0</ele><time>2026-04-18T11:34:07.988Z</time></trkpt><trkpt lat="43.5544188" lon="10.5362061"><ele>63.75</ele><time>2026-04-18T11:34:08.988Z</time></trkpt><trkpt lat="43.5542825" lon="10.5362126"><ele>64.5</ele><time>2026-04-18T11:34:09.988Z</time></trkpt><trkpt lat="43.5541422" lon="10.5361981"><ele>65.25</ele><time>2026-04-18T11:34:10.988Z</time></trkpt><trkpt lat="43.5539969" lon="10.5361518"><ele>66.0</ele><time>2026-04-18T11:34:11.988Z</time></trkpt><trkpt lat="43.553861" lon="10.5360782"><ele>66.0</ele><time>2026-04-18T11:34:12.988Z</time></trkpt><trkpt lat="43.5537213" lon="10.5359758"><ele>66.0</ele><time>2026-04-18T11:34:13.988Z</time></trkpt><trkpt lat="43.5535755" lon="10.5358742"><ele>66.0</ele><time>2026-04-18T11:34:14.988Z</time></trkpt><trkpt lat="43.5534296" lon="10.5357731"><ele>70.33333333333333</ele><time>2026-04-18T11:34:15.989Z</time></trkpt><trkpt lat="43.5532903" lon="10.5356737"><ele>74.66666666666666</ele><time>2026-04-18T11:34:16.988Z</time></trkpt><trkpt lat="43.5531519" lon="10.5355776"><ele>79.0</ele><time>2026-04-18T11:34:17.988Z</time></trkpt><trkpt lat="43.5530307" lon="10.5354789"><ele>79.0</ele><time>2026-04-18T11:34:18.988Z</time></trkpt><trkpt lat="43.5529162" lon="10.5354019"><ele>79.0</ele><time>2026-04-18T11:34:19.988Z</time></trkpt><trkpt lat="43.552799" lon="10.535311"><ele>79.0</ele><time>2026-04-18T11:34:20.988Z</time></trkpt><trkpt lat="43.552678" lon="10.5352409"><ele>79.0</ele><time>2026-04-18T11:34:21.988Z</time></trkpt><trkpt lat="43.55256" lon="10.5352082"><ele>78.5</ele><time>2026-04-18T11:34:22.988Z</time></trkpt><trkpt lat="43.5524366" lon="10.5352031"><ele>78.0</ele><time>2026-04-18T11:34:23.988Z</time></trkpt><trkpt lat="43.5523075" lon="10.5352504"><ele>77.5</ele><time>2026-04-18T11:34:24.988Z</time></trkpt><trkpt lat="43.5521739" lon="10.5352928"><ele>77.0</ele><time>2026-04-18T11:34:25.988Z</time></trkpt><trkpt lat="43.5520232" lon="10.5352787"><ele>80.66666666666667</ele><time>2026-04-18T11:34:26.988Z</time></trkpt><trkpt lat="43.5518621" lon="10.5352416"><ele>84.33333333333333</ele><time>2026-04-18T11:34:27.988Z</time></trkpt><trkpt lat="43.5517106" lon="10.5351799"><ele>88.0</ele><time>2026-04-18T11:34:28.988Z</time></trkpt><trkpt lat="43.5515489" lon="10.5351201"><ele>88.0</ele><time>2026-04-18T11:34:29.988Z</time></trkpt><trkpt lat="43.5513953" lon="10.5350478"><ele>88.0</ele><time>2026-04-18T11:34:30.988Z</time></trkpt><trkpt lat="43.5512369" lon="10.5349547"><ele>88.0</ele><time>2026-04-18T11:34:31.988Z</time></trkpt><trkpt lat="43.5510748" lon="10.5348333"><ele>86.66666666666666</ele><time>2026-04-18T11:34:32.988Z</time></trkpt><trkpt lat="43.5509017" lon="10.5346891"><ele>85.33333333333333</ele><time>2026-04-18T11:34:33.988Z</time></trkpt><trkpt lat="43.5507299" lon="10.5345329"><ele>84.0</ele><time>2026-04-18T11:34:34.988Z</time></trkpt><trkpt lat="43.5505621" lon="10.5343797"><ele>84.0</ele><time>2026-04-18T11:34:35.988Z</time></trkpt><trkpt lat="43.5503826" lon="10.5342084"><ele>84.0</ele><time>2026-04-18T11:34:36.988Z</time></trkpt><trkpt lat="43.5502055" lon="10.5340426"><ele>84.0</ele><time>2026-04-18T11:34:37.988Z</time></trkpt><trkpt lat="43.5500323" lon="10.5338741"><ele>84.33333333333333</ele><time>2026-04-18T11:34:38.988Z</time></trkpt><trkpt lat="43.5498553" lon="10.5337135"><ele>84.66666666666666</ele><time>2026-04-18T11:34:39.988Z</time></trkpt><trkpt lat="43.5496854" lon="10.5335587"><ele>85.0</ele><time>2026-04-18T11:34:40.988Z</time></trkpt><trkpt lat="43.5495262" lon="10.5334083"><ele>89.0</ele><time>2026-04-18T11:34:41.988Z</time></trkpt><trkpt lat="43.549366" lon="10.5332523"><ele>93.0</ele><time>2026-04-18T11:34:42.988Z</time></trkpt><trkpt lat="43.5492176" lon="10.5330913"><ele>97.0</ele><time>2026-04-18T11:34:43.988Z</time></trkpt><trkpt lat="43.5490906" lon="10.5329256"><ele>94.0</ele><time>2026-04-18T11:34:44.988Z</time></trkpt><trkpt lat="43.5489738" lon="10.5327577"><ele>91.0</ele><time>2026-04-18T11:34:45.988Z</time></trkpt><trkpt lat="43.5488597" lon="10.5325967"><ele>88.0</ele><time>2026-04-18T11:34:46.988Z</time></trkpt><trkpt lat="43.5487462" lon="10.5324496"><ele>90.5</ele><time>2026-04-18T11:34:47.988Z</time></trkpt><trkpt lat="43.5486296" lon="10.5323159"><ele>93.0</ele><time>2026-04-18T11:34:48.988Z</time></trkpt><trkpt lat="43.5485137" lon="10.5321902"><ele>95.5</ele><time>2026-04-18T11:34:49.988Z</time></trkpt><trkpt lat="43.5483984" lon="10.532085"><ele>98.0</ele><time>2026-04-18T11:34:50.988Z</time></trkpt><trkpt lat="43.5482801" lon="10.5319992"><ele>98.0</ele><time>2026-04-18T11:34:51.988Z</time></trkpt><trkpt lat="43.548159" lon="10.5319552"><ele>98.0</ele><time>2026-04-18T11:34:52.988Z</time></trkpt><trkpt lat="43.5480348" lon="10.5319487"><ele>98.0</ele><time>2026-04-18T11:34:53.988Z</time></trkpt><trkpt lat="43.5479084" lon="10.5319686"><ele>98.0</ele><time>2026-04-18T11:34:54.988Z</time></trkpt><trkpt lat="43.5477735" lon="10.5320099"><ele>98.0</ele><time>2026-04-18T11:34:55.989Z</time></trkpt><trkpt lat="43.54764" lon="10.5320704"><ele>98.0</ele><time>2026-04-18T11:34:56.988Z</time></trkpt><trkpt lat="43.5475047" lon="10.53214"><ele>98.0</ele><time>2026-04-18T11:34:57.988Z</time></trkpt><trkpt lat="43.547377" lon="10.5322139"><ele>98.0</ele><time>2026-04-18T11:34:58.988Z</time></trkpt><trkpt lat="43.5472446" lon="10.5322853"><ele>98.0</ele><time>2026-04-18T11:34:59.988Z</time></trkpt><trkpt lat="43.5471269" lon="10.532336"><ele>98.0</ele><time>2026-04-18T11:35:00.988Z</time></trkpt><trkpt lat="43.5470315" lon="10.5323656"><ele>98.0</ele><time>2026-04-18T11:35:01.988Z</time></trkpt><trkpt lat="43.5469413" lon="10.53238"><ele>98.0</ele><time>2026-04-18T11:35:02.988Z</time></trkpt><trkpt lat="43.5468541" lon="10.5323755"><ele>98.0</ele><time>2026-04-18T11:35:03.988Z</time></trkpt><trkpt lat="43.5467663" lon="10.532343"><ele>97.60000000000001</ele><time>2026-04-18T11:35:04.988Z</time></trkpt><trkpt lat="43.5466794" lon="10.5322915"><ele>97.2</ele><time>2026-04-18T11:35:05.988Z</time></trkpt><trkpt lat="43.5465938" lon="10.5322182"><ele>96.8</ele><time>2026-04-18T11:35:06.988Z</time></trkpt><trkpt lat="43.5465241" lon="10.5320964"><ele>96.4</ele><time>2026-04-18T11:35:07.988Z</time></trkpt><trkpt lat="43.5464573" lon="10.5319503"><ele>96.0</ele><time>2026-04-18T11:35:08.988Z</time></trkpt><trkpt lat="43.5463829" lon="10.5318087"><ele>97.5</ele><time>2026-04-18T11:35:09.988Z</time></trkpt><trkpt lat="43.5463174" lon="10.531665"><ele>99.0</ele><time>2026-04-18T11:35:10.988Z</time></trkpt><trkpt lat="43.5462249" lon="10.5315403"><ele>100.5</ele><time>2026-04-18T11:35:11.988Z</time></trkpt><trkpt lat="43.5461465" lon="10.5314028"><ele>102.0</ele><time>2026-04-18T11:35:12.988Z</time></trkpt><trkpt lat="43.5460552" lon="10.5312833"><ele>98.75</ele><time>2026-04-18T11:35:13.988Z</time></trkpt><trkpt lat="43.5459624" lon="10.5311788"><ele>95.5</ele><time>2026-04-18T11:35:14.988Z</time></trkpt><trkpt lat="43.5458859" lon="10.5310527"><ele>92.25</ele><time>2026-04-18T11:35:15.988Z</time></trkpt><trkpt lat="43.545811" lon="10.5309255"><ele>89.0</ele><time>2026-04-18T11:35:16.988Z</time></trkpt><trkpt lat="43.5457384" lon="10.5308114"><ele>89.0</ele><time>2026-04-18T11:35:17.988Z</time></trkpt><trkpt lat="43.5456627" lon="10.5306931"><ele>89.0</ele><time>2026-04-18T11:35:18.988Z</time></trkpt><trkpt lat="43.5456009" lon="10.5305713"><ele>89.0</ele><time>2026-04-18T11:35:19.988Z</time></trkpt><trkpt lat="43.5455312" lon="10.5304534"><ele>89.0</ele><time>2026-04-18T11:35:20.988Z</time></trkpt><trkpt lat="43.5454707" lon="10.5303181"><ele>89.0</ele><time>2026-04-18T11:35:21.988Z</time></trkpt><trkpt lat="43.5453976" lon="10.5301865"><ele>84.75</ele><time>2026-04-18T11:35:22.988Z</time></trkpt><trkpt lat="43.5453029" lon="10.5300842"><ele>80.5</ele><time>2026-04-18T11:35:23.988Z</time></trkpt><trkpt lat="43.5451889" lon="10.5300029"><ele>76.25</ele><time>2026-04-18T11:35:24.988Z</time></trkpt><trkpt lat="43.545083" lon="10.5299268"><ele>72.0</ele><time>2026-04-18T11:35:25.988Z</time></trkpt><trkpt lat="43.544983" lon="10.5298574"><ele>72.0</ele><time>2026-04-18T11:35:26.988Z</time></trkpt><trkpt lat="43.5449076" lon="10.5297565"><ele>72.0</ele><time>2026-04-18T11:35:27.989Z</time></trkpt><trkpt lat="43.5448389" lon="10.5296195"><ele>72.0</ele><time>2026-04-18T11:35:28.988Z</time></trkpt><trkpt lat="43.5447875" lon="10.5294414"><ele>72.0</ele><time>2026-04-18T11:35:29.988Z</time></trkpt><trkpt lat="43.5447543" lon="10.5292498"><ele>73.75</ele><time>2026-04-18T11:35:30.988Z</time></trkpt><trkpt lat="43.5447249" lon="10.5290609"><ele>75.5</ele><time>2026-04-18T11:35:31.988Z</time></trkpt><trkpt lat="43.5447126" lon="10.5288684"><ele>77.25</ele><time>2026-04-18T11:35:32.988Z</time></trkpt><trkpt lat="43.5447173" lon="10.5286778"><ele>79.0</ele><time>2026-04-18T11:35:33.988Z</time></trkpt><trkpt lat="43.5447317" lon="10.528478"><ele>79.0</ele><time>2026-04-18T11:35:34.989Z</time></trkpt><trkpt lat="43.544741" lon="10.5282973"><ele>79.0</ele><time>2026-04-18T11:35:35.988Z</time></trkpt><trkpt lat="43.5447413" lon="10.5281108"><ele>79.0</ele><time>2026-04-18T11:35:36.988Z</time></trkpt><trkpt lat="43.5447191" lon="10.5279197"><ele>79.0</ele><time>2026-04-18T11:35:37.989Z</time></trkpt><trkpt lat="43.5446791" lon="10.5277541"><ele>76.8</ele><time>2026-04-18T11:35:38.989Z</time></trkpt><trkpt lat="43.5446539" lon="10.5276006"><ele>74.60000000000001</ele><time>2026-04-18T11:35:39.988Z</time></trkpt><trkpt lat="43.5446437" lon="10.527462"><ele>72.4</ele><time>2026-04-18T11:35:40.988Z</time></trkpt><trkpt lat="43.5446583" lon="10.5273133"><ele>70.2</ele><time>2026-04-18T11:35:41.988Z</time></trkpt><trkpt lat="43.5446963" lon="10.527168"><ele>68.0</ele><time>2026-04-18T11:35:42.989Z</time></trkpt><trkpt lat="43.5447662" lon="10.527036"><ele>64.25</ele><time>2026-04-18T11:35:43.988Z</time></trkpt><trkpt lat="43.5448598" lon="10.5269336"><ele>60.5</ele><time>2026-04-18T11:35:44.988Z</time></trkpt><trkpt lat="43.5449608" lon="10.5268403"><ele>56.75</ele><time>2026-04-18T11:35:45.988Z</time></trkpt><trkpt lat="43.5450583" lon="10.5267399"><ele>53.0</ele><time>2026-04-18T11:35:46.988Z</time></trkpt><trkpt lat="43.5451524" lon="10.5266125"><ele>53.0</ele><time>2026-04-18T11:35:47.988Z</time></trkpt><trkpt lat="43.5452425" lon="10.5264554"><ele>53.0</ele><time>2026-04-18T11:35:48.988Z</time></trkpt><trkpt lat="43.5453231" lon="10.5262911"><ele>53.0</ele><time>2026-04-18T11:35:49.989Z</time></trkpt><trkpt lat="43.5454077" lon="10.5261261"><ele>53.0</ele><time>2026-04-18T11:35:50.988Z</time></trkpt><trkpt lat="43.5454954" lon="10.5259505"><ele>53.75</ele><time>2026-04-18T11:35:51.988Z</time></trkpt><trkpt lat="43.5455806" lon="10.525791"><ele>54.5</ele><time>2026-04-18T11:35:52.988Z</time></trkpt><trkpt lat="43.5456562" lon="10.5256376"><ele>55.25</ele><time>2026-04-18T11:35:53.988Z</time></trkpt><trkpt lat="43.5457109" lon="10.5254741"><ele>56.0</ele><time>2026-04-18T11:35:54.988Z</time></trkpt><trkpt lat="43.545738" lon="10.5253169"><ele>52.599999999999994</ele><time>2026-04-18T11:35:55.988Z</time></trkpt><trkpt lat="43.5457234" lon="10.5251514"><ele>49.199999999999996</ele><time>2026-04-18T11:35:56.988Z</time></trkpt><trkpt lat="43.5456914" lon="10.5250076"><ele>45.8</ele><time>2026-04-18T11:35:57.988Z</time></trkpt><trkpt lat="43.5456322" lon="10.5248841"><ele>42.4</ele><time>2026-04-18T11:35:58.988Z</time></trkpt><trkpt lat="43.5455492" lon="10.5247884"><ele>39.0</ele><time>2026-04-18T11:35:59.988Z</time></trkpt><trkpt lat="43.5454518" lon="10.5247278"><ele>38.75</ele><time>2026-04-18T11:36:00.988Z</time></trkpt><trkpt lat="43.5453456" lon="10.5247049"><ele>38.5</ele><time>2026-04-18T11:36:01.988Z</time></trkpt><trkpt lat="43.5452333" lon="10.5247235"><ele>38.25</ele><time>2026-04-18T11:36:02.988Z</time></trkpt><trkpt lat="43.5451159" lon="10.5247702"><ele>38.0</ele><time>2026-04-18T11:36:03.989Z</time></trkpt><trkpt lat="43.5449974" lon="10.524836"><ele>38.0</ele><time>2026-04-18T11:36:04.988Z</time></trkpt><trkpt lat="43.5448764" lon="10.524911"><ele>38.0</ele><time>2026-04-18T11:36:05.988Z</time></trkpt><trkpt lat="43.5447561" lon="10.5249825"><ele>38.0</ele><time>2026-04-18T11:36:06.988Z</time></trkpt><trkpt lat="43.5446485" lon="10.5250483"><ele>38.0</ele><time>2026-04-18T11:36:07.988Z</time></trkpt><trkpt lat="43.5445427" lon="10.5251113"><ele>38.0</ele><time>2026-04-18T11:36:08.988Z</time></trkpt><trkpt lat="43.5444444" lon="10.5251762"><ele>38.0</ele><time>2026-04-18T11:36:09.988Z</time></trkpt><trkpt lat="43.5443484" lon="10.5252353"><ele>38.0</ele><time>2026-04-18T11:36:10.988Z</time></trkpt><trkpt lat="43.5442633" lon="10.5252883"><ele>38.0</ele><time>2026-04-18T11:36:11.989Z</time></trkpt><trkpt lat="43.5441841" lon="10.5253299"><ele>38.0</ele><time>2026-04-18T11:36:12.988Z</time></trkpt><trkpt lat="43.5441146" lon="10.525359"><ele>38.0</ele><time>2026-04-18T11:36:13.988Z</time></trkpt><trkpt lat="43.5440237" lon="10.5253913"><ele>38.0</ele><time>2026-04-18T11:36:15.988Z</time></trkpt><trkpt lat="43.5439613" lon="10.5254102"><ele>38.0</ele><time>2026-04-18T11:36:19.988Z</time></trkpt><trkpt lat="43.5439173" lon="10.5255417"><ele>38.0</ele><time>2026-04-18T11:36:22.988Z</time></trkpt><trkpt lat="43.5439203" lon="10.5256318"><ele>38.0</ele><time>2026-04-18T11:36:23.988Z</time></trkpt><trkpt lat="43.5439405" lon="10.5258038"><ele>38.42857142857142</ele><time>2026-04-18T11:36:25.988Z</time></trkpt><trkpt lat="43.5439488" lon="10.5259006"><ele>38.85714285714286</ele><time>2026-04-18T11:36:26.988Z</time></trkpt><trkpt lat="43.5439514" lon="10.5259961"><ele>39.285714285714285</ele><time>2026-04-18T11:36:27.988Z</time></trkpt><trkpt lat="43.5439512" lon="10.5260865"><ele>39.71428571428571</ele><time>2026-04-18T11:36:28.988Z</time></trkpt><trkpt lat="43.5439414" lon="10.5261788"><ele>40.14285714285714</ele><time>2026-04-18T11:36:29.989Z</time></trkpt><trkpt lat="43.5439249" lon="10.5262672"><ele>40.57142857142857</ele><time>2026-04-18T11:36:30.988Z</time></trkpt><trkpt lat="43.5438838" lon="10.5263613"><ele>41.0</ele><time>2026-04-18T11:36:31.988Z</time></trkpt><trkpt lat="43.5438249" lon="10.5264541"><ele>41.0</ele><time>2026-04-18T11:36:32.988Z</time></trkpt><trkpt lat="43.54374" lon="10.5265314"><ele>41.0</ele><time>2026-04-18T11:36:33.989Z</time></trkpt><trkpt lat="43.5436403" lon="10.5265818"><ele>41.0</ele><time>2026-04-18T11:36:34.988Z</time></trkpt><trkpt lat="43.5435362" lon="10.5266278"><ele>41.0</ele><time>2026-04-18T11:36:35.988Z</time></trkpt><trkpt lat="43.5434154" lon="10.5266695"><ele>41.0</ele><time>2026-04-18T11:36:36.988Z</time></trkpt><trkpt lat="43.5432921" lon="10.5267244"><ele>41.0</ele><time>2026-04-18T11:36:37.988Z</time></trkpt><trkpt lat="43.5431848" lon="10.5267758"><ele>41.0</ele><time>2026-04-18T11:36:38.988Z</time></trkpt><trkpt lat="43.5430759" lon="10.5268305"><ele>41.0</ele><time>2026-04-18T11:36:39.988Z</time></trkpt><trkpt lat="43.5429761" lon="10.526876"><ele>41.0</ele><time>2026-04-18T11:36:40.988Z</time></trkpt><trkpt lat="43.5428825" lon="10.5269243"><ele>41.0</ele><time>2026-04-18T11:36:41.988Z</time></trkpt><trkpt lat="43.5428186" lon="10.5269569"><ele>41.199999999999996</ele><time>2026-04-18T11:36:42.988Z</time></trkpt><trkpt lat="43.5427383" lon="10.5269966"><ele>41.4</ele><time>2026-04-18T11:36:44.988Z</time></trkpt><trkpt lat="43.5427178" lon="10.5271154"><ele>41.6</ele><time>2026-04-18T11:36:46.988Z</time></trkpt><trkpt lat="43.542684" lon="10.5272897"><ele>41.8</ele><time>2026-04-18T11:36:48.988Z</time></trkpt><trkpt lat="43.5426531" lon="10.5273896"><ele>42.0</ele><time>2026-04-18T11:36:49.988Z</time></trkpt><trkpt lat="43.5426146" lon="10.5274985"><ele>42.0</ele><time>2026-04-18T11:36:50.988Z</time></trkpt><trkpt lat="43.5425741" lon="10.5276132"><ele>42.0</ele><time>2026-04-18T11:36:51.988Z</time></trkpt><trkpt lat="43.5425335" lon="10.5277244"><ele>42.0</ele><time>2026-04-18T11:36:52.988Z</time></trkpt><trkpt lat="43.5424811" lon="10.5278363"><ele>42.0</ele><time>2026-04-18T11:36:53.988Z</time></trkpt><trkpt lat="43.5424162" lon="10.5279426"><ele>42.0</ele><time>2026-04-18T11:36:54.988Z</time></trkpt><trkpt lat="43.5423446" lon="10.5280362"><ele>42.400000000000006</ele><time>2026-04-18T11:36:55.988Z</time></trkpt><trkpt lat="43.5422613" lon="10.5281169"><ele>42.800000000000004</ele><time>2026-04-18T11:36:56.988Z</time></trkpt><trkpt lat="43.5421731" lon="10.5282086"><ele>43.2</ele><time>2026-04-18T11:36:57.988Z</time></trkpt><trkpt lat="43.5420858" lon="10.5282966"><ele>43.6</ele><time>2026-04-18T11:36:58.988Z</time></trkpt><trkpt lat="43.5420029" lon="10.5283823"><ele>44.0</ele><time>2026-04-18T11:36:59.988Z</time></trkpt><trkpt lat="43.5419154" lon="10.528464"><ele>44.400000000000006</ele><time>2026-04-18T11:37:00.988Z</time></trkpt><trkpt lat="43.5418284" lon="10.528545"><ele>44.8</ele><time>2026-04-18T11:37:01.988Z</time></trkpt><trkpt lat="43.5417379" lon="10.5286334"><ele>45.2</ele><time>2026-04-18T11:37:02.988Z</time></trkpt><trkpt lat="43.541653" lon="10.5287199"><ele>45.599999999999994</ele><time>2026-04-18T11:37:03.988Z</time></trkpt><trkpt lat="43.5415669" lon="10.5288057"><ele>46.0</ele><time>2026-04-18T11:37:04.988Z</time></trkpt><trkpt lat="43.541481" lon="10.5288916"><ele>48.0</ele><time>2026-04-18T11:37:05.988Z</time></trkpt><trkpt lat="43.5414002" lon="10.5289747"><ele>50.0</ele><time>2026-04-18T11:37:06.988Z</time></trkpt><trkpt lat="43.5413279" lon="10.5290768"><ele>51.99999999999999</ele><time>2026-04-18T11:37:07.988Z</time></trkpt><trkpt lat="43.5412629" lon="10.5291805"><ele>54.0</ele><time>2026-04-18T11:37:08.988Z</time></trkpt><trkpt lat="43.5412194" lon="10.5292984"><ele>56.0</ele><time>2026-04-18T11:37:09.988Z</time></trkpt><trkpt lat="43.541217" lon="10.5294668"><ele>59.0</ele><time>2026-04-18T11:37:10.988Z</time></trkpt><trkpt lat="43.5411983" lon="10.529607"><ele>61.99999999999999</ele><time>2026-04-18T11:37:11.988Z</time></trkpt><trkpt lat="43.5411744" lon="10.5297407"><ele>65.0</ele><time>2026-04-18T11:37:12.988Z</time></trkpt><trkpt lat="43.5411371" lon="10.5298684"><ele>68.0</ele><time>2026-04-18T11:37:13.988Z</time></trkpt><trkpt lat="43.5410942" lon="10.5300083"><ele>71.0</ele><time>2026-04-18T11:37:14.988Z</time></trkpt><trkpt lat="43.5409588" lon="10.5300383"><ele>71.0</ele><time>2026-04-18T11:37:15.988Z</time></trkpt><trkpt lat="43.5408549" lon="10.5301042"><ele>71.0</ele><time>2026-04-18T11:37:16.988Z</time></trkpt><trkpt lat="43.540759" lon="10.5301756"><ele>71.0</ele><time>2026-04-18T11:37:17.988Z</time></trkpt><trkpt lat="43.5406677" lon="10.5302413"><ele>71.0</ele><time>2026-04-18T11:37:18.988Z</time></trkpt><trkpt lat="43.5405581" lon="10.5303177"><ele>71.0</ele><time>2026-04-18T11:37:19.988Z</time></trkpt><trkpt lat="43.540468" lon="10.5303832"><ele>73.8</ele><time>2026-04-18T11:37:20.988Z</time></trkpt><trkpt lat="43.5403737" lon="10.530457"><ele>76.6</ele><time>2026-04-18T11:37:21.988Z</time></trkpt><trkpt lat="43.5402719" lon="10.5305289"><ele>79.4</ele><time>2026-04-18T11:37:22.988Z</time></trkpt><trkpt lat="43.5401735" lon="10.5305938"><ele>82.2</ele><time>2026-04-18T11:37:23.988Z</time></trkpt><trkpt lat="43.5400731" lon="10.5306662"><ele>85.0</ele><time>2026-04-18T11:37:24.988Z</time></trkpt><trkpt lat="43.5399702" lon="10.5307323"><ele>85.0</ele><time>2026-04-18T11:37:25.988Z</time></trkpt><trkpt lat="43.5398877" lon="10.5308076"><ele>85.0</ele><time>2026-04-18T11:37:26.988Z</time></trkpt><trkpt lat="43.5398178" lon="10.5308885"><ele>85.0</ele><time>2026-04-18T11:37:27.988Z</time></trkpt><trkpt lat="43.5397564" lon="10.5309836"><ele>85.0</ele><time>2026-04-18T11:37:28.988Z</time></trkpt><trkpt lat="43.5396946" lon="10.531098"><ele>85.0</ele><time>2026-04-18T11:37:29.988Z</time></trkpt><trkpt lat="43.5396321" lon="10.531225"><ele>86.2</ele><time>2026-04-18T11:37:30.988Z</time></trkpt><trkpt lat="43.5395719" lon="10.5313517"><ele>87.4</ele><time>2026-04-18T11:37:31.988Z</time></trkpt><trkpt lat="43.5395144" lon="10.5314749"><ele>88.6</ele><time>2026-04-18T11:37:32.988Z</time></trkpt><trkpt lat="43.5394509" lon="10.5315966"><ele>89.8</ele><time>2026-04-18T11:37:33.988Z</time></trkpt><trkpt lat="43.5393886" lon="10.5317239"><ele>91.0</ele><time>2026-04-18T11:37:34.989Z</time></trkpt><trkpt lat="43.5393232" lon="10.5318137"><ele>91.0</ele><time>2026-04-18T11:37:35.988Z</time></trkpt><trkpt lat="43.5392691" lon="10.5318878"><ele>91.0</ele><time>2026-04-18T11:37:36.988Z</time></trkpt><trkpt lat="43.5391837" lon="10.5319889"><ele>91.0</ele><time>2026-04-18T11:37:38.988Z</time></trkpt><trkpt lat="43.5391095" lon="10.5320872"><ele>91.0</ele><time>2026-04-18T11:37:40.988Z</time></trkpt><trkpt lat="43.5390713" lon="10.5321659"><ele>91.0</ele><time>2026-04-18T11:37:41.988Z</time></trkpt><trkpt lat="43.5390173" lon="10.5322514"><ele>91.0</ele><time>2026-04-18T11:37:42.988Z</time></trkpt><trkpt lat="43.5389546" lon="10.5323449"><ele>91.0</ele><time>2026-04-18T11:37:43.988Z</time></trkpt><trkpt lat="43.5388926" lon="10.5324508"><ele>91.0</ele><time>2026-04-18T11:37:44.988Z</time></trkpt><trkpt lat="43.5388054" lon="10.5325618"><ele>91.0</ele><time>2026-04-18T11:37:45.988Z</time></trkpt><trkpt lat="43.5387188" lon="10.5326987"><ele>91.0</ele><time>2026-04-18T11:37:46.988Z</time></trkpt><trkpt lat="43.5386221" lon="10.532805"><ele>91.75</ele><time>2026-04-18T11:37:47.988Z</time></trkpt><trkpt lat="43.5385296" lon="10.532931"><ele>92.5</ele><time>2026-04-18T11:37:48.988Z</time></trkpt><trkpt lat="43.5384423" lon="10.5330539"><ele>93.25</ele><time>2026-04-18T11:37:49.988Z</time></trkpt><trkpt lat="43.5383553" lon="10.5331604"><ele>94.0</ele><time>2026-04-18T11:37:50.988Z</time></trkpt><trkpt lat="43.5382717" lon="10.5332611"><ele>94.0</ele><time>2026-04-18T11:37:51.988Z</time></trkpt><trkpt lat="43.5381771" lon="10.5333336"><ele>94.0</ele><time>2026-04-18T11:37:52.988Z</time></trkpt><trkpt lat="43.5380754" lon="10.5334034"><ele>94.0</ele><time>2026-04-18T11:37:53.988Z</time></trkpt><trkpt lat="43.5379713" lon="10.5334663"><ele>94.0</ele><time>2026-04-18T11:37:54.988Z</time></trkpt><trkpt lat="43.5378589" lon="10.5335334"><ele>95.6</ele><time>2026-04-18T11:37:55.988Z</time></trkpt><trkpt lat="43.537744" lon="10.53359"><ele>97.2</ele><time>2026-04-18T11:37:56.988Z</time></trkpt><trkpt lat="43.5376378" lon="10.5336484"><ele>98.8</ele><time>2026-04-18T11:37:57.988Z</time></trkpt><trkpt lat="43.5375405" lon="10.533703"><ele>100.39999999999999</ele><time>2026-04-18T11:37:58.988Z</time></trkpt><trkpt lat="43.5374448" lon="10.533749"><ele>102.0</ele><time>2026-04-18T11:37:59.988Z</time></trkpt><trkpt lat="43.5373577" lon="10.5337923"><ele>102.0</ele><time>2026-04-18T11:38:00.988Z</time></trkpt><trkpt lat="43.5372725" lon="10.5338406"><ele>102.0</ele><time>2026-04-18T11:38:01.988Z</time></trkpt><trkpt lat="43.5371863" lon="10.5338885"><ele>102.0</ele><time>2026-04-18T11:38:02.988Z</time></trkpt><trkpt lat="43.5371128" lon="10.5339351"><ele>102.0</ele><time>2026-04-18T11:38:03.988Z</time></trkpt><trkpt lat="43.5370397" lon="10.5339848"><ele>102.0</ele><time>2026-04-18T11:38:04.988Z</time></trkpt><trkpt lat="43.5369655" lon="10.5340481"><ele>102.0</ele><time>2026-04-18T11:38:05.988Z</time></trkpt><trkpt lat="43.536893" lon="10.5341096"><ele>104.0</ele><time>2026-04-18T11:38:06.988Z</time></trkpt><trkpt lat="43.5368238" lon="10.5341596"><ele>106.0</ele><time>2026-04-18T11:38:07.988Z</time></trkpt><trkpt lat="43.5367546" lon="10.5341972"><ele>108.0</ele><time>2026-04-18T11:38:08.988Z</time></trkpt><trkpt lat="43.5366763" lon="10.5341981"><ele>110.0</ele><time>2026-04-18T11:38:09.988Z</time></trkpt><trkpt lat="43.5365904" lon="10.5341845"><ele>112.0</ele><time>2026-04-18T11:38:10.988Z</time></trkpt><trkpt lat="43.5365031" lon="10.5341731"><ele>114.0</ele><time>2026-04-18T11:38:11.988Z</time></trkpt><trkpt lat="43.5364344" lon="10.5341687"><ele>114.0</ele><time>2026-04-18T11:38:12.988Z</time></trkpt><trkpt lat="43.5363105" lon="10.5341673"><ele>114.0</ele><time>2026-04-18T11:38:14.988Z</time></trkpt><trkpt lat="43.5361651" lon="10.534272"><ele>114.0</ele><time>2026-04-18T11:38:16.988Z</time></trkpt><trkpt lat="43.5360487" lon="10.5343709"><ele>114.0</ele><time>2026-04-18T11:38:18.988Z</time></trkpt><trkpt lat="43.5359812" lon="10.5344185"><ele>113.14285714285714</ele><time>2026-04-18T11:38:19.988Z</time></trkpt><trkpt lat="43.535911" lon="10.5344483"><ele>112.28571428571428</ele><time>2026-04-18T11:38:20.988Z</time></trkpt><trkpt lat="43.5358518" lon="10.5344969"><ele>111.42857142857142</ele><time>2026-04-18T11:38:21.988Z</time></trkpt><trkpt lat="43.5357913" lon="10.5345344"><ele>110.57142857142857</ele><time>2026-04-18T11:38:22.988Z</time></trkpt><trkpt lat="43.5357313" lon="10.5345837"><ele>109.71428571428571</ele><time>2026-04-18T11:38:23.988Z</time></trkpt><trkpt lat="43.5356636" lon="10.5346161"><ele>108.85714285714286</ele><time>2026-04-18T11:38:24.988Z</time></trkpt><trkpt lat="43.535595" lon="10.5346388"><ele>108.0</ele><time>2026-04-18T11:38:25.989Z</time></trkpt><trkpt lat="43.5355207" lon="10.5346529"><ele>109.5</ele><time>2026-04-18T11:38:26.988Z</time></trkpt><trkpt lat="43.5354578" lon="10.5346861"><ele>111.0</ele><time>2026-04-18T11:38:27.988Z</time></trkpt><trkpt lat="43.5353748" lon="10.5347066"><ele>112.5</ele><time>2026-04-18T11:38:28.988Z</time></trkpt><trkpt lat="43.5352977" lon="10.5347243"><ele>114.0</ele><time>2026-04-18T11:38:29.988Z</time></trkpt><trkpt lat="43.5352153" lon="10.534754"><ele>115.5</ele><time>2026-04-18T11:38:30.988Z</time></trkpt><trkpt lat="43.5351353" lon="10.5347793"><ele>117.0</ele><time>2026-04-18T11:38:31.988Z</time></trkpt><trkpt lat="43.5350685" lon="10.5348278"><ele>117.0</ele><time>2026-04-18T11:38:32.988Z</time></trkpt><trkpt lat="43.5350008" lon="10.5348742"><ele>117.0</ele><time>2026-04-18T11:38:33.988Z</time></trkpt><trkpt lat="43.5349282" lon="10.53491"><ele>117.0</ele><time>2026-04-18T11:38:34.988Z</time></trkpt><trkpt lat="43.5348597" lon="10.5349518"><ele>117.0</ele><time>2026-04-18T11:38:35.988Z</time></trkpt><trkpt lat="43.5347991" lon="10.5349865"><ele>117.0</ele><time>2026-04-18T11:38:36.988Z</time></trkpt><trkpt lat="43.5346852" lon="10.5350462"><ele>117.0</ele><time>2026-04-18T11:38:38.988Z</time></trkpt><trkpt lat="43.534621" lon="10.5350636"><ele>117.0</ele><time>2026-04-18T11:38:39.988Z</time></trkpt><trkpt lat="43.5345559" lon="10.5350848"><ele>117.00000000000001</ele><time>2026-04-18T11:38:40.988Z</time></trkpt><trkpt lat="43.5344923" lon="10.5350941"><ele>117.0</ele><time>2026-04-18T11:38:41.988Z</time></trkpt><trkpt lat="43.5344208" lon="10.5350958"><ele>117.0</ele><time>2026-04-18T11:38:42.988Z</time></trkpt><trkpt lat="43.5343499" lon="10.5350916"><ele>117.00000000000001</ele><time>2026-04-18T11:38:43.989Z</time></trkpt><trkpt lat="43.5342743" lon="10.5350859"><ele>117.0</ele><time>2026-04-18T11:38:44.988Z</time></trkpt><trkpt lat="43.5341979" lon="10.5350696"><ele>117.0</ele><time>2026-04-18T11:38:45.988Z</time></trkpt><trkpt lat="43.5341157" lon="10.5350534"><ele>116.66666666666667</ele><time>2026-04-18T11:38:46.988Z</time></trkpt><trkpt lat="43.5340417" lon="10.5350338"><ele>116.33333333333334</ele><time>2026-04-18T11:38:47.988Z</time></trkpt><trkpt lat="43.5339606" lon="10.5350077"><ele>116.0</ele><time>2026-04-18T11:38:48.988Z</time></trkpt><trkpt lat="43.5338683" lon="10.534982"><ele>115.66666666666667</ele><time>2026-04-18T11:38:49.988Z</time></trkpt><trkpt lat="43.5337744" lon="10.5349593"><ele>115.33333333333334</ele><time>2026-04-18T11:38:50.988Z</time></trkpt><trkpt lat="43.5336794" lon="10.5349375"><ele>115.0</ele><time>2026-04-18T11:38:51.989Z</time></trkpt><trkpt lat="43.5335846" lon="10.5349121"><ele>112.6</ele><time>2026-04-18T11:38:52.988Z</time></trkpt><trkpt lat="43.5334895" lon="10.5348905"><ele>110.2</ele><time>2026-04-18T11:38:53.988Z</time></trkpt><trkpt lat="43.5333927" lon="10.5348691"><ele>107.80000000000001</ele><time>2026-04-18T11:38:54.988Z</time></trkpt><trkpt lat="43.5332888" lon="10.5348375"><ele>105.4</ele><time>2026-04-18T11:38:55.988Z</time></trkpt><trkpt lat="43.533185" lon="10.5348087"><ele>103.0</ele><time>2026-04-18T11:38:56.988Z</time></trkpt><trkpt lat="43.5330815" lon="10.5347954"><ele>103.0</ele><time>2026-04-18T11:38:57.988Z</time></trkpt><trkpt lat="43.5329739" lon="10.5347693"><ele>103.0</ele><time>2026-04-18T11:38:58.988Z</time></trkpt><trkpt lat="43.5328655" lon="10.5347439"><ele>103.0</ele><time>2026-04-18T11:38:59.988Z</time></trkpt><trkpt lat="43.5327544" lon="10.5347339"><ele>103.0</ele><time>2026-04-18T11:39:00.988Z</time></trkpt><trkpt lat="43.5326398" lon="10.5347343"><ele>103.0</ele><time>2026-04-18T11:39:01.988Z</time></trkpt><trkpt lat="43.5325321" lon="10.5347455"><ele>101.0</ele><time>2026-04-18T11:39:02.988Z</time></trkpt><trkpt lat="43.5324256" lon="10.5347719"><ele>99.0</ele><time>2026-04-18T11:39:03.989Z</time></trkpt><trkpt lat="43.5323139" lon="10.5348094"><ele>97.0</ele><time>2026-04-18T11:39:04.988Z</time></trkpt><trkpt lat="43.5322027" lon="10.534848"><ele>95.0</ele><time>2026-04-18T11:39:05.989Z</time></trkpt><trkpt lat="43.5320973" lon="10.5349095"><ele>96.0</ele><time>2026-04-18T11:39:06.988Z</time></trkpt><trkpt lat="43.5319842" lon="10.5349705"><ele>97.0</ele><time>2026-04-18T11:39:07.988Z</time></trkpt><trkpt lat="43.5318662" lon="10.5350305"><ele>98.0</ele><time>2026-04-18T11:39:08.988Z</time></trkpt><trkpt lat="43.531745" lon="10.5350806"><ele>99.0</ele><time>2026-04-18T11:39:09.988Z</time></trkpt><trkpt lat="43.5316271" lon="10.5351401"><ele>99.0</ele><time>2026-04-18T11:39:10.988Z</time></trkpt><trkpt lat="43.5315056" lon="10.5351917"><ele>99.0</ele><time>2026-04-18T11:39:11.988Z</time></trkpt><trkpt lat="43.5313952" lon="10.535247"><ele>99.0</ele><time>2026-04-18T11:39:12.988Z</time></trkpt><trkpt lat="43.5312856" lon="10.5352993"><ele>99.0</ele><time>2026-04-18T11:39:13.988Z</time></trkpt><trkpt lat="43.5311734" lon="10.5353515"><ele>99.25</ele><time>2026-04-18T11:39:14.988Z</time></trkpt><trkpt lat="43.531068" lon="10.5354088"><ele>99.5</ele><time>2026-04-18T11:39:15.988Z</time></trkpt><trkpt lat="43.530956" lon="10.5354782"><ele>99.75</ele><time>2026-04-18T11:39:16.988Z</time></trkpt><trkpt lat="43.5308523" lon="10.5355717"><ele>100.0</ele><time>2026-04-18T11:39:17.988Z</time></trkpt><trkpt lat="43.5307442" lon="10.5356693"><ele>100.0</ele><time>2026-04-18T11:39:18.988Z</time></trkpt><trkpt lat="43.5306372" lon="10.5357708"><ele>100.0</ele><time>2026-04-18T11:39:19.988Z</time></trkpt><trkpt lat="43.5305336" lon="10.5358776"><ele>100.0</ele><time>2026-04-18T11:39:20.988Z</time></trkpt><trkpt lat="43.530422" lon="10.5359927"><ele>100.0</ele><time>2026-04-18T11:39:21.988Z</time></trkpt><trkpt lat="43.5303143" lon="10.5360927"><ele>100.0</ele><time>2026-04-18T11:39:22.988Z</time></trkpt><trkpt lat="43.5302062" lon="10.5362008"><ele>100.0</ele><time>2026-04-18T11:39:23.988Z</time></trkpt><trkpt lat="43.5301094" lon="10.5363169"><ele>100.0</ele><time>2026-04-18T11:39:24.988Z</time></trkpt><trkpt lat="43.5300111" lon="10.5364217"><ele>100.0</ele><time>2026-04-18T11:39:25.988Z</time></trkpt><trkpt lat="43.5299089" lon="10.5365298"><ele>97.75</ele><time>2026-04-18T11:39:26.988Z</time></trkpt><trkpt lat="43.5298134" lon="10.536639"><ele>95.5</ele><time>2026-04-18T11:39:27.988Z</time></trkpt><trkpt lat="43.5297227" lon="10.5367475"><ele>93.25</ele><time>2026-04-18T11:39:28.988Z</time></trkpt><trkpt lat="43.5296395" lon="10.5368619"><ele>91.0</ele><time>2026-04-18T11:39:29.988Z</time></trkpt><trkpt lat="43.5295681" lon="10.5369913"><ele>88.5</ele><time>2026-04-18T11:39:30.988Z</time></trkpt><trkpt lat="43.529507" lon="10.5371406"><ele>86.0</ele><time>2026-04-18T11:39:31.988Z</time></trkpt><trkpt lat="43.5294655" lon="10.5372988"><ele>83.5</ele><time>2026-04-18T11:39:32.988Z</time></trkpt><trkpt lat="43.5294417" lon="10.5374681"><ele>81.0</ele><time>2026-04-18T11:39:33.988Z</time></trkpt><trkpt lat="43.529425" lon="10.5376434"><ele>81.0</ele><time>2026-04-18T11:39:34.988Z</time></trkpt><trkpt lat="43.5294124" lon="10.5378208"><ele>81.0</ele><time>2026-04-18T11:39:35.988Z</time></trkpt><trkpt lat="43.5293991" lon="10.5379972"><ele>81.0</ele><time>2026-04-18T11:39:36.988Z</time></trkpt><trkpt lat="43.5293879" lon="10.5381659"><ele>81.0</ele><time>2026-04-18T11:39:37.988Z</time></trkpt><trkpt lat="43.5293775" lon="10.5383217"><ele>81.6</ele><time>2026-04-18T11:39:38.988Z</time></trkpt><trkpt lat="43.5293676" lon="10.5384722"><ele>82.19999999999999</ele><time>2026-04-18T11:39:39.988Z</time></trkpt><trkpt lat="43.5293591" lon="10.5386121"><ele>82.80000000000001</ele><time>2026-04-18T11:39:40.988Z</time></trkpt><trkpt lat="43.5293313" lon="10.5387362"><ele>83.4</ele><time>2026-04-18T11:39:41.988Z</time></trkpt><trkpt lat="43.5293006" lon="10.538842"><ele>84.0</ele><time>2026-04-18T11:39:42.988Z</time></trkpt><trkpt lat="43.5292678" lon="10.5389233"><ele>84.0</ele><time>2026-04-18T11:39:43.988Z</time></trkpt><trkpt lat="43.5292413" lon="10.5390027"><ele>84.0</ele><time>2026-04-18T11:39:44.988Z</time></trkpt><trkpt lat="43.5292668" lon="10.5391689"><ele>84.0</ele><time>2026-04-18T11:39:46.988Z</time></trkpt><trkpt lat="43.5293148" lon="10.5392871"><ele>84.0</ele><time>2026-04-18T11:39:47.988Z</time></trkpt><trkpt lat="43.5293581" lon="10.5394117"><ele>84.0</ele><time>2026-04-18T11:39:48.988Z</time></trkpt><trkpt lat="43.5293937" lon="10.5395544"><ele>83.25</ele><time>2026-04-18T11:39:49.989Z</time></trkpt><trkpt lat="43.5294209" lon="10.539712"><ele>82.5</ele><time>2026-04-18T11:39:50.988Z</time></trkpt><trkpt lat="43.5294252" lon="10.5398848"><ele>81.75</ele><time>2026-04-18T11:39:51.988Z</time></trkpt><trkpt lat="43.529404" lon="10.5400675"><ele>81.0</ele><time>2026-04-18T11:39:52.988Z</time></trkpt><trkpt lat="43.5293704" lon="10.5402428"><ele>80.75</ele><time>2026-04-18T11:39:53.988Z</time></trkpt><trkpt lat="43.529336" lon="10.540413"><ele>80.5</ele><time>2026-04-18T11:39:54.988Z</time></trkpt><trkpt lat="43.5292936" lon="10.5406017"><ele>80.25</ele><time>2026-04-18T11:39:55.988Z</time></trkpt><trkpt lat="43.5292517" lon="10.5407863"><ele>80.0</ele><time>2026-04-18T11:39:56.988Z</time></trkpt><trkpt lat="43.5292092" lon="10.5409624"><ele>80.0</ele><time>2026-04-18T11:39:57.988Z</time></trkpt><trkpt lat="43.529169" lon="10.5411456"><ele>80.0</ele><time>2026-04-18T11:39:58.988Z</time></trkpt><trkpt lat="43.5291332" lon="10.5413266"><ele>80.0</ele><time>2026-04-18T11:39:59.988Z</time></trkpt><trkpt lat="43.5291073" lon="10.5415094"><ele>80.0</ele><time>2026-04-18T11:40:00.988Z</time></trkpt><trkpt lat="43.5290895" lon="10.5417125"><ele>80.33333333333334</ele><time>2026-04-18T11:40:01.988Z</time></trkpt><trkpt lat="43.5290779" lon="10.5419203"><ele>80.66666666666667</ele><time>2026-04-18T11:40:02.988Z</time></trkpt><trkpt lat="43.5290695" lon="10.5421327"><ele>81.0</ele><time>2026-04-18T11:40:03.988Z</time></trkpt><trkpt lat="43.529067" lon="10.542339"><ele>82.33333333333333</ele><time>2026-04-18T11:40:04.988Z</time></trkpt><trkpt lat="43.5290671" lon="10.5425524"><ele>83.66666666666666</ele><time>2026-04-18T11:40:05.988Z</time></trkpt><trkpt lat="43.5290668" lon="10.5427695"><ele>85.0</ele><time>2026-04-18T11:40:06.988Z</time></trkpt><trkpt lat="43.5290595" lon="10.5429867"><ele>85.5</ele><time>2026-04-18T11:40:07.988Z</time></trkpt><trkpt lat="43.5290486" lon="10.5431967"><ele>86.0</ele><time>2026-04-18T11:40:08.988Z</time></trkpt><trkpt lat="43.529027" lon="10.5433952"><ele>86.5</ele><time>2026-04-18T11:40:09.988Z</time></trkpt><trkpt lat="43.5289994" lon="10.5435845"><ele>87.0</ele><time>2026-04-18T11:40:10.988Z</time></trkpt><trkpt lat="43.5289688" lon="10.5437614"><ele>87.75</ele><time>2026-04-18T11:40:11.988Z</time></trkpt><trkpt lat="43.5289471" lon="10.5439395"><ele>88.5</ele><time>2026-04-18T11:40:12.988Z</time></trkpt><trkpt lat="43.5289174" lon="10.5441114"><ele>89.25</ele><time>2026-04-18T11:40:13.989Z</time></trkpt><trkpt lat="43.5288709" lon="10.5442743"><ele>90.0</ele><time>2026-04-18T11:40:14.989Z</time></trkpt><trkpt lat="43.5288122" lon="10.5444479"><ele>90.33333333333333</ele><time>2026-04-18T11:40:15.988Z</time></trkpt><trkpt lat="43.5287264" lon="10.5446117"><ele>90.66666666666666</ele><time>2026-04-18T11:40:16.988Z</time></trkpt><trkpt lat="43.5286291" lon="10.5447724"><ele>91.0</ele><time>2026-04-18T11:40:17.988Z</time></trkpt><trkpt lat="43.5285258" lon="10.5449311"><ele>91.0</ele><time>2026-04-18T11:40:18.988Z</time></trkpt><trkpt lat="43.5284242" lon="10.5450986"><ele>91.0</ele><time>2026-04-18T11:40:19.988Z</time></trkpt><trkpt lat="43.5283187" lon="10.5452608"><ele>91.0</ele><time>2026-04-18T11:40:20.988Z</time></trkpt><trkpt lat="43.5282154" lon="10.5454221"><ele>91.0</ele><time>2026-04-18T11:40:21.988Z</time></trkpt><trkpt lat="43.528118" lon="10.5455895"><ele>91.0</ele><time>2026-04-18T11:40:22.988Z</time></trkpt><trkpt lat="43.5280295" lon="10.5457671"><ele>91.0</ele><time>2026-04-18T11:40:23.988Z</time></trkpt><trkpt lat="43.5279489" lon="10.5459505"><ele>94.33333333333333</ele><time>2026-04-18T11:40:24.989Z</time></trkpt><trkpt lat="43.5278759" lon="10.546146"><ele>97.66666666666666</ele><time>2026-04-18T11:40:25.988Z</time></trkpt><trkpt lat="43.5278111" lon="10.5463536"><ele>101.0</ele><time>2026-04-18T11:40:26.988Z</time></trkpt><trkpt lat="43.527753" lon="10.5465545"><ele>101.25</ele><time>2026-04-18T11:40:27.988Z</time></trkpt><trkpt lat="43.5277018" lon="10.5467426"><ele>101.5</ele><time>2026-04-18T11:40:28.988Z</time></trkpt><trkpt lat="43.5276559" lon="10.5469133"><ele>101.75</ele><time>2026-04-18T11:40:29.988Z</time></trkpt><trkpt lat="43.5276244" lon="10.5470706"><ele>102.0</ele><time>2026-04-18T11:40:30.988Z</time></trkpt><trkpt lat="43.5276194" lon="10.5472192"><ele>102.25</ele><time>2026-04-18T11:40:31.988Z</time></trkpt><trkpt lat="43.5276451" lon="10.5473723"><ele>102.5</ele><time>2026-04-18T11:40:32.988Z</time></trkpt><trkpt lat="43.5277045" lon="10.5475098"><ele>102.75</ele><time>2026-04-18T11:40:33.988Z</time></trkpt><trkpt lat="43.5277928" lon="10.5476366"><ele>103.0</ele><time>2026-04-18T11:40:34.988Z</time></trkpt><trkpt lat="43.5278974" lon="10.5477524"><ele>103.25</ele><time>2026-04-18T11:40:35.988Z</time></trkpt><trkpt lat="43.5280081" lon="10.5478687"><ele>103.5</ele><time>2026-04-18T11:40:36.988Z</time></trkpt><trkpt lat="43.5281154" lon="10.5479771"><ele>103.75</ele><time>2026-04-18T11:40:37.988Z</time></trkpt><trkpt lat="43.5282143" lon="10.5480979"><ele>104.0</ele><time>2026-04-18T11:40:38.988Z</time></trkpt><trkpt lat="43.5283053" lon="10.5482403"><ele>104.0</ele><time>2026-04-18T11:40:39.988Z</time></trkpt><trkpt lat="43.5283934" lon="10.548402"><ele>104.0</ele><time>2026-04-18T11:40:40.988Z</time></trkpt><trkpt lat="43.5284746" lon="10.5485713"><ele>104.0</ele><time>2026-04-18T11:40:41.988Z</time></trkpt><trkpt lat="43.5285602" lon="10.5487462"><ele>104.0</ele><time>2026-04-18T11:40:42.988Z</time></trkpt><trkpt lat="43.5286461" lon="10.5489248"><ele>100.66666666666666</ele><time>2026-04-18T11:40:43.988Z</time></trkpt><trkpt lat="43.528729" lon="10.5491056"><ele>97.33333333333333</ele><time>2026-04-18T11:40:44.988Z</time></trkpt><trkpt lat="43.5288058" lon="10.5492883"><ele>94.0</ele><time>2026-04-18T11:40:45.988Z</time></trkpt><trkpt lat="43.5288703" lon="10.549478"><ele>95.25</ele><time>2026-04-18T11:40:46.988Z</time></trkpt><trkpt lat="43.5289321" lon="10.5496637"><ele>96.5</ele><time>2026-04-18T11:40:47.988Z</time></trkpt><trkpt lat="43.5289977" lon="10.5498365"><ele>97.75</ele><time>2026-04-18T11:40:48.988Z</time></trkpt><trkpt lat="43.5290597" lon="10.5500065"><ele>99.0</ele><time>2026-04-18T11:40:49.988Z</time></trkpt><trkpt lat="43.5291008" lon="10.5501637"><ele>99.0</ele><time>2026-04-18T11:40:50.988Z</time></trkpt><trkpt lat="43.5291205" lon="10.5503013"><ele>99.0</ele><time>2026-04-18T11:40:51.988Z</time></trkpt><trkpt lat="43.5291196" lon="10.5504403"><ele>99.0</ele><time>2026-04-18T11:40:52.988Z</time></trkpt><trkpt lat="43.5290876" lon="10.5505579"><ele>99.0</ele><time>2026-04-18T11:40:53.988Z</time></trkpt><trkpt lat="43.5290244" lon="10.5506526"><ele>99.0</ele><time>2026-04-18T11:40:54.988Z</time></trkpt><trkpt lat="43.528941" lon="10.5507084"><ele>99.25</ele><time>2026-04-18T11:40:55.989Z</time></trkpt><trkpt lat="43.5288359" lon="10.550728"><ele>99.5</ele><time>2026-04-18T11:40:56.989Z</time></trkpt><trkpt lat="43.5287093" lon="10.5507239"><ele>99.75</ele><time>2026-04-18T11:40:57.988Z</time></trkpt><trkpt lat="43.5285857" lon="10.5506943"><ele>100.0</ele><time>2026-04-18T11:40:58.988Z</time></trkpt><trkpt lat="43.5284704" lon="10.55067"><ele>100.8</ele><time>2026-04-18T11:40:59.988Z</time></trkpt><trkpt lat="43.5283705" lon="10.5506725"><ele>101.6</ele><time>2026-04-18T11:41:00.988Z</time></trkpt><trkpt lat="43.5282737" lon="10.5507131"><ele>102.4</ele><time>2026-04-18T11:41:01.988Z</time></trkpt><trkpt lat="43.5281904" lon="10.5508013"><ele>103.2</ele><time>2026-04-18T11:41:02.988Z</time></trkpt><trkpt lat="43.5281265" lon="10.5509156"><ele>104.0</ele><time>2026-04-18T11:41:03.988Z</time></trkpt><trkpt lat="43.5280883" lon="10.551048"><ele>104.0</ele><time>2026-04-18T11:41:04.988Z</time></trkpt><trkpt lat="43.5280781" lon="10.5511913"><ele>104.0</ele><time>2026-04-18T11:41:05.988Z</time></trkpt><trkpt lat="43.5280993" lon="10.5513415"><ele>104.0</ele><time>2026-04-18T11:41:06.988Z</time></trkpt><trkpt lat="43.528147" lon="10.5514965"><ele>104.0</ele><time>2026-04-18T11:41:07.988Z</time></trkpt><trkpt lat="43.5281996" lon="10.5516502"><ele>103.4</ele><time>2026-04-18T11:41:08.988Z</time></trkpt><trkpt lat="43.5282498" lon="10.5518006"><ele>102.80000000000001</ele><time>2026-04-18T11:41:09.988Z</time></trkpt><trkpt lat="43.528297" lon="10.5519435"><ele>102.19999999999999</ele><time>2026-04-18T11:41:10.988Z</time></trkpt><trkpt lat="43.5283401" lon="10.5520802"><ele>101.6</ele><time>2026-04-18T11:41:11.988Z</time></trkpt><trkpt lat="43.5283658" lon="10.5522218"><ele>101.0</ele><time>2026-04-18T11:41:12.988Z</time></trkpt><trkpt lat="43.5283638" lon="10.55237"><ele>100.8</ele><time>2026-04-18T11:41:13.988Z</time></trkpt><trkpt lat="43.5283376" lon="10.5525164"><ele>100.6</ele><time>2026-04-18T11:41:14.989Z</time></trkpt><trkpt lat="43.5282818" lon="10.552649"><ele>100.4</ele><time>2026-04-18T11:41:15.988Z</time></trkpt><trkpt lat="43.5282028" lon="10.5527649"><ele>100.2</ele><time>2026-04-18T11:41:16.988Z</time></trkpt><trkpt lat="43.5281193" lon="10.5528615"><ele>100.0</ele><time>2026-04-18T11:41:17.988Z</time></trkpt><trkpt lat="43.5280206" lon="10.5529347"><ele>100.25</ele><time>2026-04-18T11:41:18.988Z</time></trkpt><trkpt lat="43.5279017" lon="10.5529773"><ele>100.5</ele><time>2026-04-18T11:41:19.988Z</time></trkpt><trkpt lat="43.5277704" lon="10.5529895"><ele>100.75</ele><time>2026-04-18T11:41:20.988Z</time></trkpt><trkpt lat="43.5276421" lon="10.5529815"><ele>101.0</ele><time>2026-04-18T11:41:21.988Z</time></trkpt><trkpt lat="43.5275162" lon="10.55298"><ele>101.0</ele><time>2026-04-18T11:41:22.988Z</time></trkpt><trkpt lat="43.5273835" lon="10.5530112"><ele>101.0</ele><time>2026-04-18T11:41:23.989Z</time></trkpt><trkpt lat="43.5272545" lon="10.5530788"><ele>101.0</ele><time>2026-04-18T11:41:24.988Z</time></trkpt><trkpt lat="43.5271331" lon="10.5531755"><ele>101.0</ele><time>2026-04-18T11:41:25.988Z</time></trkpt><trkpt lat="43.5270226" lon="10.5532843"><ele>102.0</ele><time>2026-04-18T11:41:26.988Z</time></trkpt><trkpt lat="43.5269173" lon="10.5533845"><ele>103.0</ele><time>2026-04-18T11:41:27.988Z</time></trkpt><trkpt lat="43.5268131" lon="10.5534626"><ele>104.0</ele><time>2026-04-18T11:41:28.988Z</time></trkpt><trkpt lat="43.5267088" lon="10.5535144"><ele>105.0</ele><time>2026-04-18T11:41:29.988Z</time></trkpt><trkpt lat="43.5265931" lon="10.5535321"><ele>105.0</ele><time>2026-04-18T11:41:30.988Z</time></trkpt><trkpt lat="43.5264675" lon="10.553516"><ele>105.0</ele><time>2026-04-18T11:41:31.988Z</time></trkpt><trkpt lat="43.5263304" lon="10.5534772"><ele>105.0</ele><time>2026-04-18T11:41:32.988Z</time></trkpt><trkpt lat="43.526196" lon="10.5534408"><ele>105.0</ele><time>2026-04-18T11:41:33.988Z</time></trkpt><trkpt lat="43.5260638" lon="10.5534211"><ele>104.5</ele><time>2026-04-18T11:41:34.988Z</time></trkpt><trkpt lat="43.5259298" lon="10.5534191"><ele>104.0</ele><time>2026-04-18T11:41:35.988Z</time></trkpt><trkpt lat="43.5257975" lon="10.5534275"><ele>103.5</ele><time>2026-04-18T11:41:36.988Z</time></trkpt><trkpt lat="43.5256678" lon="10.5534402"><ele>103.0</ele><time>2026-04-18T11:41:37.988Z</time></trkpt><trkpt lat="43.5255417" lon="10.5534654"><ele>103.0</ele><time>2026-04-18T11:41:38.988Z</time></trkpt><trkpt lat="43.52541" lon="10.5534889"><ele>103.0</ele><time>2026-04-18T11:41:39.988Z</time></trkpt><trkpt lat="43.5252775" lon="10.5535237"><ele>103.0</ele><time>2026-04-18T11:41:40.988Z</time></trkpt><trkpt lat="43.5251506" lon="10.5535489"><ele>103.0</ele><time>2026-04-18T11:41:41.988Z</time></trkpt><trkpt lat="43.525023" lon="10.5535774"><ele>101.5</ele><time>2026-04-18T11:41:42.988Z</time></trkpt><trkpt lat="43.5248961" lon="10.5536087"><ele>100.0</ele><time>2026-04-18T11:41:43.988Z</time></trkpt><trkpt lat="43.5247627" lon="10.5536325"><ele>98.5</ele><time>2026-04-18T11:41:44.988Z</time></trkpt><trkpt lat="43.524623" lon="10.5536605"><ele>97.0</ele><time>2026-04-18T11:41:45.988Z</time></trkpt><trkpt lat="43.5244811" lon="10.5536845"><ele>96.5</ele><time>2026-04-18T11:41:46.988Z</time></trkpt><trkpt lat="43.5243459" lon="10.5537121"><ele>96.0</ele><time>2026-04-18T11:41:47.988Z</time></trkpt><trkpt lat="43.5242119" lon="10.5537457"><ele>95.5</ele><time>2026-04-18T11:41:48.988Z</time></trkpt><trkpt lat="43.5240765" lon="10.5537824"><ele>95.0</ele><time>2026-04-18T11:41:49.988Z</time></trkpt><trkpt lat="43.5239417" lon="10.5538282"><ele>95.0</ele><time>2026-04-18T11:41:50.988Z</time></trkpt><trkpt lat="43.5238136" lon="10.553885"><ele>95.0</ele><time>2026-04-18T11:41:51.988Z</time></trkpt><trkpt lat="43.5236903" lon="10.5539644"><ele>95.0</ele><time>2026-04-18T11:41:52.988Z</time></trkpt><trkpt lat="43.5235707" lon="10.5540602"><ele>95.0</ele><time>2026-04-18T11:41:53.988Z</time></trkpt><trkpt lat="43.5234576" lon="10.5541638"><ele>93.0</ele><time>2026-04-18T11:41:54.988Z</time></trkpt><trkpt lat="43.5233496" lon="10.5542742"><ele>91.0</ele><time>2026-04-18T11:41:55.988Z</time></trkpt><trkpt lat="43.5232539" lon="10.5543761"><ele>89.0</ele><time>2026-04-18T11:41:56.988Z</time></trkpt><trkpt lat="43.523163" lon="10.5544679"><ele>87.0</ele><time>2026-04-18T11:41:57.988Z</time></trkpt><trkpt lat="43.5230546" lon="10.5545347"><ele>88.5</ele><time>2026-04-18T11:41:58.988Z</time></trkpt><trkpt lat="43.5229363" lon="10.5545909"><ele>90.0</ele><time>2026-04-18T11:41:59.989Z</time></trkpt><trkpt lat="43.5228181" lon="10.5546196"><ele>91.5</ele><time>2026-04-18T11:42:00.988Z</time></trkpt><trkpt lat="43.5226937" lon="10.5546026"><ele>93.0</ele><time>2026-04-18T11:42:01.988Z</time></trkpt><trkpt lat="43.5225764" lon="10.5545583"><ele>90.2</ele><time>2026-04-18T11:42:02.988Z</time></trkpt><trkpt lat="43.5224671" lon="10.5544887"><ele>87.4</ele><time>2026-04-18T11:42:03.988Z</time></trkpt><trkpt lat="43.5223783" lon="10.5544066"><ele>84.60000000000001</ele><time>2026-04-18T11:42:04.989Z</time></trkpt><trkpt lat="43.5222842" lon="10.5543442"><ele>81.80000000000001</ele><time>2026-04-18T11:42:05.988Z</time></trkpt><trkpt lat="43.522173" lon="10.5543103"><ele>79.0</ele><time>2026-04-18T11:42:06.988Z</time></trkpt><trkpt lat="43.5220574" lon="10.5543122"><ele>78.25</ele><time>2026-04-18T11:42:07.989Z</time></trkpt><trkpt lat="43.5219444" lon="10.5543373"><ele>77.5</ele><time>2026-04-18T11:42:08.989Z</time></trkpt><trkpt lat="43.5218384" lon="10.5543832"><ele>76.75</ele><time>2026-04-18T11:42:09.988Z</time></trkpt><trkpt lat="43.5217396" lon="10.5544622"><ele>76.0</ele><time>2026-04-18T11:42:10.988Z</time></trkpt><trkpt lat="43.521638" lon="10.5545669"><ele>78.75</ele><time>2026-04-18T11:42:11.988Z</time></trkpt><trkpt lat="43.5215398" lon="10.5546827"><ele>81.5</ele><time>2026-04-18T11:42:12.988Z</time></trkpt><trkpt lat="43.5214451" lon="10.5547997"><ele>84.25</ele><time>2026-04-18T11:42:13.988Z</time></trkpt><trkpt lat="43.5213513" lon="10.5549175"><ele>87.0</ele><time>2026-04-18T11:42:14.988Z</time></trkpt><trkpt lat="43.5212627" lon="10.5550349"><ele>85.75</ele><time>2026-04-18T11:42:15.988Z</time></trkpt><trkpt lat="43.5211789" lon="10.5551434"><ele>84.5</ele><time>2026-04-18T11:42:16.988Z</time></trkpt><trkpt lat="43.5210919" lon="10.5552369"><ele>83.25</ele><time>2026-04-18T11:42:17.988Z</time></trkpt><trkpt lat="43.5209968" lon="10.5553203"><ele>82.0</ele><time>2026-04-18T11:42:18.988Z</time></trkpt><trkpt lat="43.5208942" lon="10.5553845"><ele>82.0</ele><time>2026-04-18T11:42:19.988Z</time></trkpt><trkpt lat="43.5207807" lon="10.5554175"><ele>82.0</ele><time>2026-04-18T11:42:20.988Z</time></trkpt><trkpt lat="43.5206614" lon="10.5554092"><ele>82.0</ele><time>2026-04-18T11:42:21.988Z</time></trkpt><trkpt lat="43.520537" lon="10.5553711"><ele>82.0</ele><time>2026-04-18T11:42:22.988Z</time></trkpt><trkpt lat="43.5204212" lon="10.5553127"><ele>82.39999999999999</ele><time>2026-04-18T11:42:23.988Z</time></trkpt><trkpt lat="43.5203147" lon="10.5552535"><ele>82.8</ele><time>2026-04-18T11:42:24.988Z</time></trkpt><trkpt lat="43.520211" lon="10.5552253"><ele>83.2</ele><time>2026-04-18T11:42:25.989Z</time></trkpt><trkpt lat="43.5201024" lon="10.5552371"><ele>83.6</ele><time>2026-04-18T11:42:26.988Z</time></trkpt><trkpt lat="43.5199892" lon="10.5552899"><ele>84.0</ele><time>2026-04-18T11:42:27.988Z</time></trkpt><trkpt lat="43.519876" lon="10.5553526"><ele>84.4</ele><time>2026-04-18T11:42:28.988Z</time></trkpt><trkpt lat="43.5197644" lon="10.5554117"><ele>84.80000000000001</ele><time>2026-04-18T11:42:29.988Z</time></trkpt><trkpt lat="43.5196613" lon="10.5554738"><ele>85.19999999999999</ele><time>2026-04-18T11:42:30.988Z</time></trkpt><trkpt lat="43.5195847" lon="10.5555688"><ele>85.6</ele><time>2026-04-18T11:42:31.989Z</time></trkpt><trkpt lat="43.5195227" lon="10.5556968"><ele>86.0</ele><time>2026-04-18T11:42:32.988Z</time></trkpt><trkpt lat="43.5195001" lon="10.5558392"><ele>86.0</ele><time>2026-04-18T11:42:33.989Z</time></trkpt><trkpt lat="43.5194908" lon="10.5559756"><ele>86.0</ele><time>2026-04-18T11:42:34.988Z</time></trkpt><trkpt lat="43.5194682" lon="10.5561095"><ele>86.0</ele><time>2026-04-18T11:42:35.988Z</time></trkpt><trkpt lat="43.5194241" lon="10.5562271"><ele>86.0</ele><time>2026-04-18T11:42:36.988Z</time></trkpt><trkpt lat="43.5193455" lon="10.5563237"><ele>86.0</ele><time>2026-04-18T11:42:37.988Z</time></trkpt><trkpt lat="43.5192589" lon="10.5563836"><ele>84.75</ele><time>2026-04-18T11:42:38.988Z</time></trkpt><trkpt lat="43.5191525" lon="10.5563933"><ele>83.5</ele><time>2026-04-18T11:42:39.988Z</time></trkpt><trkpt lat="43.5190143" lon="10.5563565"><ele>82.25</ele><time>2026-04-18T11:42:40.988Z</time></trkpt><trkpt lat="43.5188706" lon="10.5562887"><ele>81.0</ele><time>2026-04-18T11:42:41.988Z</time></trkpt><trkpt lat="43.5187344" lon="10.5562187"><ele>83.75</ele><time>2026-04-18T11:42:42.988Z</time></trkpt><trkpt lat="43.5185949" lon="10.5561553"><ele>86.5</ele><time>2026-04-18T11:42:43.988Z</time></trkpt><trkpt lat="43.5184624" lon="10.5561006"><ele>89.25</ele><time>2026-04-18T11:42:44.988Z</time></trkpt><trkpt lat="43.5183284" lon="10.5560635"><ele>92.0</ele><time>2026-04-18T11:42:45.988Z</time></trkpt><trkpt lat="43.5181893" lon="10.5560474"><ele>92.0</ele><time>2026-04-18T11:42:46.988Z</time></trkpt><trkpt lat="43.5180478" lon="10.5560636"><ele>92.0</ele><time>2026-04-18T11:42:47.988Z</time></trkpt><trkpt lat="43.5179099" lon="10.5561005"><ele>92.0</ele><time>2026-04-18T11:42:48.988Z</time></trkpt><trkpt lat="43.5177611" lon="10.5561582"><ele>92.0</ele><time>2026-04-18T11:42:49.989Z</time></trkpt><trkpt lat="43.5176261" lon="10.5562279"><ele>91.75</ele><time>2026-04-18T11:42:50.988Z</time></trkpt><trkpt lat="43.517491" lon="10.5563077"><ele>91.5</ele><time>2026-04-18T11:42:51.988Z</time></trkpt><trkpt lat="43.5173712" lon="10.5563998"><ele>91.25</ele><time>2026-04-18T11:42:52.988Z</time></trkpt><trkpt lat="43.5172678" lon="10.5565176"><ele>91.0</ele><time>2026-04-18T11:42:53.989Z</time></trkpt><trkpt lat="43.5171764" lon="10.556654"><ele>91.0</ele><time>2026-04-18T11:42:54.988Z</time></trkpt><trkpt lat="43.5170775" lon="10.5567809"><ele>91.0</ele><time>2026-04-18T11:42:55.988Z</time></trkpt><trkpt lat="43.5169669" lon="10.5568994"><ele>91.0</ele><time>2026-04-18T11:42:56.988Z</time></trkpt><trkpt lat="43.5168454" lon="10.5569927"><ele>91.0</ele><time>2026-04-18T11:42:57.988Z</time></trkpt><trkpt lat="43.5167324" lon="10.5570623"><ele>91.8</ele><time>2026-04-18T11:42:58.988Z</time></trkpt><trkpt lat="43.5166357" lon="10.5571145"><ele>92.6</ele><time>2026-04-18T11:42:59.988Z</time></trkpt><trkpt lat="43.5165379" lon="10.5571395"><ele>93.4</ele><time>2026-04-18T11:43:00.988Z</time></trkpt><trkpt lat="43.5164483" lon="10.5571206"><ele>94.2</ele><time>2026-04-18T11:43:01.988Z</time></trkpt><trkpt lat="43.5163672" lon="10.5570539"><ele>95.0</ele><time>2026-04-18T11:43:02.988Z</time></trkpt><trkpt lat="43.5163074" lon="10.5569398"><ele>95.75</ele><time>2026-04-18T11:43:03.988Z</time></trkpt><trkpt lat="43.5162573" lon="10.5567727"><ele>96.5</ele><time>2026-04-18T11:43:04.988Z</time></trkpt><trkpt lat="43.5162126" lon="10.5565723"><ele>97.25</ele><time>2026-04-18T11:43:05.988Z</time></trkpt><trkpt lat="43.5161717" lon="10.5563874"><ele>98.0</ele><time>2026-04-18T11:43:06.988Z</time></trkpt><trkpt lat="43.5161318" lon="10.5562067"><ele>98.75</ele><time>2026-04-18T11:43:07.988Z</time></trkpt><trkpt lat="43.5160932" lon="10.5560355"><ele>99.5</ele><time>2026-04-18T11:43:08.988Z</time></trkpt><trkpt lat="43.5160491" lon="10.5558808"><ele>100.25</ele><time>2026-04-18T11:43:09.988Z</time></trkpt><trkpt lat="43.5159914" lon="10.555748"><ele>101.0</ele><time>2026-04-18T11:43:10.988Z</time></trkpt><trkpt lat="43.5159209" lon="10.5556329"><ele>101.0</ele><time>2026-04-18T11:43:11.988Z</time></trkpt><trkpt lat="43.5158322" lon="10.5555289"><ele>101.0</ele><time>2026-04-18T11:43:12.988Z</time></trkpt><trkpt lat="43.5157303" lon="10.5554457"><ele>101.0</ele><time>2026-04-18T11:43:13.988Z</time></trkpt><trkpt lat="43.5156162" lon="10.5553796"><ele>101.0</ele><time>2026-04-18T11:43:14.988Z</time></trkpt><trkpt lat="43.5155057" lon="10.5553426"><ele>100.25</ele><time>2026-04-18T11:43:15.989Z</time></trkpt><trkpt lat="43.5153885" lon="10.5553428"><ele>99.5</ele><time>2026-04-18T11:43:16.988Z</time></trkpt><trkpt lat="43.515273" lon="10.5553865"><ele>98.75</ele><time>2026-04-18T11:43:17.988Z</time></trkpt><trkpt lat="43.5151485" lon="10.5554758"><ele>98.0</ele><time>2026-04-18T11:43:18.988Z</time></trkpt><trkpt lat="43.5150188" lon="10.5555849"><ele>98.0</ele><time>2026-04-18T11:43:19.988Z</time></trkpt><trkpt lat="43.514897" lon="10.555695"><ele>98.0</ele><time>2026-04-18T11:43:20.989Z</time></trkpt><trkpt lat="43.5147755" lon="10.5558048"><ele>98.0</ele><time>2026-04-18T11:43:21.988Z</time></trkpt><trkpt lat="43.5146531" lon="10.555909"><ele>98.0</ele><time>2026-04-18T11:43:22.988Z</time></trkpt><trkpt lat="43.5145391" lon="10.5560123"><ele>98.5</ele><time>2026-04-18T11:43:23.988Z</time></trkpt><trkpt lat="43.5144323" lon="10.5561068"><ele>99.0</ele><time>2026-04-18T11:43:24.988Z</time></trkpt><trkpt lat="43.5143331" lon="10.556186"><ele>99.5</ele><time>2026-04-18T11:43:25.988Z</time></trkpt><trkpt lat="43.514232" lon="10.5562575"><ele>100.0</ele><time>2026-04-18T11:43:26.988Z</time></trkpt><trkpt lat="43.5141246" lon="10.5562924"><ele>100.0</ele><time>2026-04-18T11:43:27.988Z</time></trkpt><trkpt lat="43.5140121" lon="10.5562991"><ele>100.0</ele><time>2026-04-18T11:43:28.988Z</time></trkpt><trkpt lat="43.5139045" lon="10.5562703"><ele>100.0</ele><time>2026-04-18T11:43:29.988Z</time></trkpt><trkpt lat="43.5138033" lon="10.5562071"><ele>100.0</ele><time>2026-04-18T11:43:30.988Z</time></trkpt><trkpt lat="43.5137118" lon="10.5561001"><ele>98.25</ele><time>2026-04-18T11:43:31.988Z</time></trkpt><trkpt lat="43.5136297" lon="10.5559583"><ele>96.5</ele><time>2026-04-18T11:43:32.988Z</time></trkpt><trkpt lat="43.5135582" lon="10.5558135"><ele>94.75</ele><time>2026-04-18T11:43:33.988Z</time></trkpt><trkpt lat="43.513488" lon="10.5556676"><ele>93.0</ele><time>2026-04-18T11:43:34.989Z</time></trkpt><trkpt lat="43.5134184" lon="10.5555329"><ele>93.0</ele><time>2026-04-18T11:43:35.988Z</time></trkpt><trkpt lat="43.5133357" lon="10.5554165"><ele>93.0</ele><time>2026-04-18T11:43:36.988Z</time></trkpt><trkpt lat="43.5132399" lon="10.5553173"><ele>93.0</ele><time>2026-04-18T11:43:37.988Z</time></trkpt><trkpt lat="43.5131316" lon="10.5552524"><ele>93.0</ele><time>2026-04-18T11:43:38.988Z</time></trkpt><trkpt lat="43.5130206" lon="10.5552169"><ele>94.25</ele><time>2026-04-18T11:43:39.988Z</time></trkpt><trkpt lat="43.5129052" lon="10.5552221"><ele>95.5</ele><time>2026-04-18T11:43:40.988Z</time></trkpt><trkpt lat="43.5127806" lon="10.555267"><ele>96.75</ele><time>2026-04-18T11:43:41.988Z</time></trkpt><trkpt lat="43.5126449" lon="10.555333"><ele>98.0</ele><time>2026-04-18T11:43:42.988Z</time></trkpt><trkpt lat="43.5124998" lon="10.555422"><ele>98.0</ele><time>2026-04-18T11:43:43.988Z</time></trkpt><trkpt lat="43.5123608" lon="10.5555053"><ele>98.0</ele><time>2026-04-18T11:43:44.988Z</time></trkpt><trkpt lat="43.5122327" lon="10.5555904"><ele>98.0</ele><time>2026-04-18T11:43:45.988Z</time></trkpt><trkpt lat="43.5121141" lon="10.5556663"><ele>98.0</ele><time>2026-04-18T11:43:46.988Z</time></trkpt><trkpt lat="43.5119947" lon="10.5557388"><ele>99.25</ele><time>2026-04-18T11:43:47.988Z</time></trkpt><trkpt lat="43.5118657" lon="10.5558131"><ele>100.5</ele><time>2026-04-18T11:43:48.988Z</time></trkpt><trkpt lat="43.5117399" lon="10.5558709"><ele>101.75</ele><time>2026-04-18T11:43:49.988Z</time></trkpt><trkpt lat="43.5116009" lon="10.555919"><ele>103.0</ele><time>2026-04-18T11:43:50.988Z</time></trkpt><trkpt lat="43.5114608" lon="10.5559648"><ele>103.0</ele><time>2026-04-18T11:43:51.989Z</time></trkpt><trkpt lat="43.5113117" lon="10.5560008"><ele>103.0</ele><time>2026-04-18T11:43:52.988Z</time></trkpt><trkpt lat="43.5111707" lon="10.5560357"><ele>103.0</ele><time>2026-04-18T11:43:53.989Z</time></trkpt><trkpt lat="43.5110245" lon="10.5560691"><ele>103.0</ele><time>2026-04-18T11:43:54.988Z</time></trkpt><trkpt lat="43.5108822" lon="10.5560961"><ele>103.0</ele><time>2026-04-18T11:43:55.988Z</time></trkpt><trkpt lat="43.5107408" lon="10.5561212"><ele>103.0</ele><time>2026-04-18T11:43:56.988Z</time></trkpt><trkpt lat="43.5105947" lon="10.5561416"><ele>103.0</ele><time>2026-04-18T11:43:57.988Z</time></trkpt><trkpt lat="43.5104443" lon="10.5561593"><ele>103.0</ele><time>2026-04-18T11:43:58.988Z</time></trkpt><trkpt lat="43.5102921" lon="10.5561846"><ele>104.25</ele><time>2026-04-18T11:43:59.988Z</time></trkpt><trkpt lat="43.5101443" lon="10.5562158"><ele>105.5</ele><time>2026-04-18T11:44:00.988Z</time></trkpt><trkpt lat="43.5100008" lon="10.5562636"><ele>106.75</ele><time>2026-04-18T11:44:01.988Z</time></trkpt><trkpt lat="43.5098581" lon="10.5563288"><ele>108.0</ele><time>2026-04-18T11:44:02.988Z</time></trkpt><trkpt lat="43.5097177" lon="10.5564063"><ele>108.0</ele><time>2026-04-18T11:44:03.988Z</time></trkpt><trkpt lat="43.5095808" lon="10.5565026"><ele>108.0</ele><time>2026-04-18T11:44:04.988Z</time></trkpt><trkpt lat="43.5094496" lon="10.5566277"><ele>108.0</ele><time>2026-04-18T11:44:05.988Z</time></trkpt><trkpt lat="43.5093253" lon="10.5567682"><ele>108.66666666666666</ele><time>2026-04-18T11:44:06.988Z</time></trkpt><trkpt lat="43.5092036" lon="10.5569103"><ele>109.33333333333333</ele><time>2026-04-18T11:44:07.989Z</time></trkpt><trkpt lat="43.5090809" lon="10.5570606"><ele>110.0</ele><time>2026-04-18T11:44:08.988Z</time></trkpt><trkpt lat="43.5089593" lon="10.5572051"><ele>110.0</ele><time>2026-04-18T11:44:09.988Z</time></trkpt><trkpt lat="43.5088359" lon="10.55735"><ele>110.0</ele><time>2026-04-18T11:44:10.989Z</time></trkpt><trkpt lat="43.5087103" lon="10.5574952"><ele>110.0</ele><time>2026-04-18T11:44:11.988Z</time></trkpt><trkpt lat="43.5085818" lon="10.5576465"><ele>111.0</ele><time>2026-04-18T11:44:12.988Z</time></trkpt><trkpt lat="43.5084566" lon="10.5577928"><ele>112.0</ele><time>2026-04-18T11:44:13.988Z</time></trkpt><trkpt lat="43.5083382" lon="10.5579353"><ele>113.0</ele><time>2026-04-18T11:44:14.988Z</time></trkpt><trkpt lat="43.508226" lon="10.5580679"><ele>113.0</ele><time>2026-04-18T11:44:15.989Z</time></trkpt><trkpt lat="43.5081185" lon="10.5581934"><ele>113.0</ele><time>2026-04-18T11:44:16.989Z</time></trkpt><trkpt lat="43.5080194" lon="10.5583128"><ele>113.0</ele><time>2026-04-18T11:44:17.988Z</time></trkpt><trkpt lat="43.5079186" lon="10.5584298"><ele>113.0</ele><time>2026-04-18T11:44:18.988Z</time></trkpt><trkpt lat="43.5078107" lon="10.5585323"><ele>111.75</ele><time>2026-04-18T11:44:19.988Z</time></trkpt><trkpt lat="43.5076944" lon="10.5586182"><ele>110.5</ele><time>2026-04-18T11:44:20.988Z</time></trkpt><trkpt lat="43.5075618" lon="10.5586852"><ele>109.25</ele><time>2026-04-18T11:44:21.988Z</time></trkpt><trkpt lat="43.5074202" lon="10.5587328"><ele>108.0</ele><time>2026-04-18T11:44:22.988Z</time></trkpt><trkpt lat="43.5072748" lon="10.5587711"><ele>111.0</ele><time>2026-04-18T11:44:23.988Z</time></trkpt><trkpt lat="43.5071245" lon="10.5587973"><ele>114.0</ele><time>2026-04-18T11:44:24.988Z</time></trkpt><trkpt lat="43.5069763" lon="10.5588199"><ele>117.0</ele><time>2026-04-18T11:44:25.988Z</time></trkpt><trkpt lat="43.5068241" lon="10.5588516"><ele>117.0</ele><time>2026-04-18T11:44:26.988Z</time></trkpt><trkpt lat="43.5066789" lon="10.5588837"><ele>117.0</ele><time>2026-04-18T11:44:27.988Z</time></trkpt><trkpt lat="43.5065483" lon="10.5589134"><ele>117.0</ele><time>2026-04-18T11:44:28.988Z</time></trkpt><trkpt lat="43.506425" lon="10.5589393"><ele>117.0</ele><time>2026-04-18T11:44:29.988Z</time></trkpt><trkpt lat="43.5063" lon="10.5589818"><ele>116.0</ele><time>2026-04-18T11:44:30.988Z</time></trkpt><trkpt lat="43.5061777" lon="10.5590495"><ele>115.0</ele><time>2026-04-18T11:44:31.988Z</time></trkpt><trkpt lat="43.5060544" lon="10.5591403"><ele>114.0</ele><time>2026-04-18T11:44:32.988Z</time></trkpt><trkpt lat="43.5059304" lon="10.5592421"><ele>113.0</ele><time>2026-04-18T11:44:33.988Z</time></trkpt><trkpt lat="43.5058135" lon="10.5593511"><ele>113.0</ele><time>2026-04-18T11:44:34.988Z</time></trkpt><trkpt lat="43.5056979" lon="10.559452"><ele>113.0</ele><time>2026-04-18T11:44:35.988Z</time></trkpt><trkpt lat="43.5055744" lon="10.5595461"><ele>113.0</ele><time>2026-04-18T11:44:36.988Z</time></trkpt><trkpt lat="43.5054394" lon="10.5596143"><ele>113.0</ele><time>2026-04-18T11:44:37.988Z</time></trkpt><trkpt lat="43.5052973" lon="10.5596807"><ele>115.66666666666666</ele><time>2026-04-18T11:44:38.988Z</time></trkpt><trkpt lat="43.505151" lon="10.559731"><ele>118.33333333333334</ele><time>2026-04-18T11:44:39.988Z</time></trkpt><trkpt lat="43.505007" lon="10.5597809"><ele>121.0</ele><time>2026-04-18T11:44:40.988Z</time></trkpt><trkpt lat="43.5048587" lon="10.5598213"><ele>121.0</ele><time>2026-04-18T11:44:41.988Z</time></trkpt><trkpt lat="43.504719" lon="10.5598649"><ele>121.0</ele><time>2026-04-18T11:44:42.988Z</time></trkpt><trkpt lat="43.5045824" lon="10.5599034"><ele>121.0</ele><time>2026-04-18T11:44:43.988Z</time></trkpt><trkpt lat="43.5044474" lon="10.559935"><ele>121.0</ele><time>2026-04-18T11:44:44.988Z</time></trkpt><trkpt lat="43.5043167" lon="10.5599721"><ele>120.75</ele><time>2026-04-18T11:44:45.988Z</time></trkpt><trkpt lat="43.5041882" lon="10.5600144"><ele>120.5</ele><time>2026-04-18T11:44:46.988Z</time></trkpt><trkpt lat="43.5040597" lon="10.5600798"><ele>120.25</ele><time>2026-04-18T11:44:47.988Z</time></trkpt><trkpt lat="43.5039352" lon="10.5601638"><ele>120.0</ele><time>2026-04-18T11:44:48.988Z</time></trkpt><trkpt lat="43.503822" lon="10.5602535"><ele>120.8</ele><time>2026-04-18T11:44:49.988Z</time></trkpt><trkpt lat="43.5037184" lon="10.5603417"><ele>121.6</ele><time>2026-04-18T11:44:50.989Z</time></trkpt><trkpt lat="43.503625" lon="10.5604329"><ele>122.4</ele><time>2026-04-18T11:44:51.988Z</time></trkpt><trkpt lat="43.5035363" lon="10.5605153"><ele>123.2</ele><time>2026-04-18T11:44:52.988Z</time></trkpt><trkpt lat="43.5034526" lon="10.5605921"><ele>124.0</ele><time>2026-04-18T11:44:53.988Z</time></trkpt><trkpt lat="43.5033836" lon="10.5606538"><ele>124.0</ele><time>2026-04-18T11:44:54.988Z</time></trkpt><trkpt lat="43.5033155" lon="10.5606854"><ele>124.0</ele><time>2026-04-18T11:44:55.988Z</time></trkpt><trkpt lat="43.5032465" lon="10.5606766"><ele>124.0</ele><time>2026-04-18T11:44:56.988Z</time></trkpt><trkpt lat="43.5031449" lon="10.5605127"><ele>124.0</ele><time>2026-04-18T11:44:58.988Z</time></trkpt><trkpt lat="43.5030419" lon="10.5603289"><ele>124.0</ele><time>2026-04-18T11:44:59.988Z</time></trkpt><trkpt lat="43.5029461" lon="10.5601635"><ele>124.0</ele><time>2026-04-18T11:45:00.989Z</time></trkpt><trkpt lat="43.502851" lon="10.5599702"><ele>124.0</ele><time>2026-04-18T11:45:01.988Z</time></trkpt><trkpt lat="43.5027262" lon="10.5597366"><ele>126.33333333333334</ele><time>2026-04-18T11:45:02.988Z</time></trkpt><trkpt lat="43.5026194" lon="10.5595247"><ele>128.66666666666666</ele><time>2026-04-18T11:45:03.988Z</time></trkpt><trkpt lat="43.502513" lon="10.5593309"><ele>131.0</ele><time>2026-04-18T11:45:04.988Z</time></trkpt><trkpt lat="43.5024133" lon="10.5591511"><ele>131.0</ele><time>2026-04-18T11:45:05.988Z</time></trkpt><trkpt lat="43.5023298" lon="10.5589754"><ele>131.0</ele><time>2026-04-18T11:45:06.988Z</time></trkpt><trkpt lat="43.5022416" lon="10.5588053"><ele>131.0</ele><time>2026-04-18T11:45:07.988Z</time></trkpt><trkpt lat="43.5021606" lon="10.5586485"><ele>131.0</ele><time>2026-04-18T11:45:08.988Z</time></trkpt><trkpt lat="43.5020843" lon="10.5585073"><ele>131.5</ele><time>2026-04-18T11:45:09.989Z</time></trkpt><trkpt lat="43.5020026" lon="10.5583861"><ele>132.0</ele><time>2026-04-18T11:45:10.988Z</time></trkpt><trkpt lat="43.5019066" lon="10.5583082"><ele>132.5</ele><time>2026-04-18T11:45:11.988Z</time></trkpt><trkpt lat="43.5017976" lon="10.5582543"><ele>133.0</ele><time>2026-04-18T11:45:12.989Z</time></trkpt><trkpt lat="43.5016802" lon="10.5582333"><ele>133.0</ele><time>2026-04-18T11:45:13.988Z</time></trkpt><trkpt lat="43.501545" lon="10.5582483"><ele>133.0</ele><time>2026-04-18T11:45:14.988Z</time></trkpt><trkpt lat="43.5013898" lon="10.5582935"><ele>133.0</ele><time>2026-04-18T11:45:15.988Z</time></trkpt><trkpt lat="43.5012385" lon="10.558352"><ele>132.75</ele><time>2026-04-18T11:45:16.988Z</time></trkpt><trkpt lat="43.5010934" lon="10.5584041"><ele>132.5</ele><time>2026-04-18T11:45:17.988Z</time></trkpt><trkpt lat="43.5009538" lon="10.5584619"><ele>132.25</ele><time>2026-04-18T11:45:18.988Z</time></trkpt><trkpt lat="43.5008045" lon="10.5584995"><ele>132.0</ele><time>2026-04-18T11:45:19.988Z</time></trkpt><trkpt lat="43.5006528" lon="10.5585119"><ele>132.0</ele><time>2026-04-18T11:45:20.988Z</time></trkpt><trkpt lat="43.5004945" lon="10.5584974"><ele>132.0</ele><time>2026-04-18T11:45:21.988Z</time></trkpt><trkpt lat="43.5003307" lon="10.5584535"><ele>132.0</ele><time>2026-04-18T11:45:22.988Z</time></trkpt><trkpt lat="43.5001863" lon="10.5584008"><ele>133.5</ele><time>2026-04-18T11:45:23.988Z</time></trkpt><trkpt lat="43.5000538" lon="10.5583401"><ele>135.0</ele><time>2026-04-18T11:45:24.988Z</time></trkpt><trkpt lat="43.4999203" lon="10.558275"><ele>136.5</ele><time>2026-04-18T11:45:25.988Z</time></trkpt><trkpt lat="43.4997805" lon="10.5582177"><ele>138.0</ele><time>2026-04-18T11:45:26.988Z</time></trkpt><trkpt lat="43.499641" lon="10.5581724"><ele>139.75</ele><time>2026-04-18T11:45:27.988Z</time></trkpt><trkpt lat="43.4994975" lon="10.5581405"><ele>141.5</ele><time>2026-04-18T11:45:28.988Z</time></trkpt><trkpt lat="43.4993547" lon="10.5581362"><ele>143.25</ele><time>2026-04-18T11:45:29.988Z</time></trkpt><trkpt lat="43.4992117" lon="10.5581508"><ele>145.0</ele><time>2026-04-18T11:45:30.988Z</time></trkpt><trkpt lat="43.4990788" lon="10.5581759"><ele>145.0</ele><time>2026-04-18T11:45:31.988Z</time></trkpt><trkpt lat="43.4989538" lon="10.5581781"><ele>145.0</ele><time>2026-04-18T11:45:32.988Z</time></trkpt><trkpt lat="43.4988279" lon="10.5581459"><ele>145.0</ele><time>2026-04-18T11:45:33.988Z</time></trkpt><trkpt lat="43.4987071" lon="10.5580806"><ele>145.0</ele><time>2026-04-18T11:45:34.988Z</time></trkpt><trkpt lat="43.4985852" lon="10.5579882"><ele>146.5</ele><time>2026-04-18T11:45:35.988Z</time></trkpt><trkpt lat="43.4984686" lon="10.5579115"><ele>148.0</ele><time>2026-04-18T11:45:36.988Z</time></trkpt><trkpt lat="43.4983454" lon="10.5578692"><ele>149.5</ele><time>2026-04-18T11:45:37.988Z</time></trkpt><trkpt lat="43.4982096" lon="10.5578375"><ele>151.0</ele><time>2026-04-18T11:45:38.988Z</time></trkpt><trkpt lat="43.4980667" lon="10.5578351"><ele>151.25</ele><time>2026-04-18T11:45:39.988Z</time></trkpt><trkpt lat="43.4979203" lon="10.5578431"><ele>151.5</ele><time>2026-04-18T11:45:40.988Z</time></trkpt><trkpt lat="43.4977725" lon="10.5578623"><ele>151.75</ele><time>2026-04-18T11:45:41.988Z</time></trkpt><trkpt lat="43.4976313" lon="10.5578924"><ele>152.0</ele><time>2026-04-18T11:45:42.988Z</time></trkpt><trkpt lat="43.4975015" lon="10.5579208"><ele>152.0</ele><time>2026-04-18T11:45:43.988Z</time></trkpt><trkpt lat="43.4973721" lon="10.5579723"><ele>152.0</ele><time>2026-04-18T11:45:44.989Z</time></trkpt><trkpt lat="43.4972552" lon="10.5580531"><ele>152.0</ele><time>2026-04-18T11:45:45.988Z</time></trkpt><trkpt lat="43.4971336" lon="10.5581205"><ele>152.0</ele><time>2026-04-18T11:45:46.988Z</time></trkpt><trkpt lat="43.4970012" lon="10.5581543"><ele>151.0</ele><time>2026-04-18T11:45:47.988Z</time></trkpt><trkpt lat="43.4968575" lon="10.558174"><ele>150.0</ele><time>2026-04-18T11:45:48.988Z</time></trkpt><trkpt lat="43.4967293" lon="10.5581969"><ele>149.0</ele><time>2026-04-18T11:45:49.988Z</time></trkpt><trkpt lat="43.4965976" lon="10.5582285"><ele>148.0</ele><time>2026-04-18T11:45:50.988Z</time></trkpt><trkpt lat="43.4964631" lon="10.558293"><ele>148.0</ele><time>2026-04-18T11:45:51.988Z</time></trkpt><trkpt lat="43.4963416" lon="10.5583906"><ele>148.0</ele><time>2026-04-18T11:45:52.988Z</time></trkpt><trkpt lat="43.4962267" lon="10.5585052"><ele>148.0</ele><time>2026-04-18T11:45:53.988Z</time></trkpt><trkpt lat="43.4961098" lon="10.558634"><ele>148.0</ele><time>2026-04-18T11:45:54.988Z</time></trkpt><trkpt lat="43.4960172" lon="10.5587671"><ele>150.75</ele><time>2026-04-18T11:45:55.988Z</time></trkpt><trkpt lat="43.4959117" lon="10.5588797"><ele>153.5</ele><time>2026-04-18T11:45:56.988Z</time></trkpt><trkpt lat="43.4958033" lon="10.5589648"><ele>156.25</ele><time>2026-04-18T11:45:57.988Z</time></trkpt><trkpt lat="43.4956867" lon="10.5590284"><ele>159.0</ele><time>2026-04-18T11:45:58.988Z</time></trkpt><trkpt lat="43.4955592" lon="10.5590533"><ele>159.0</ele><time>2026-04-18T11:45:59.988Z</time></trkpt><trkpt lat="43.4954253" lon="10.5590428"><ele>159.0</ele><time>2026-04-18T11:46:00.988Z</time></trkpt><trkpt lat="43.4953031" lon="10.5590144"><ele>159.0</ele><time>2026-04-18T11:46:01.988Z</time></trkpt><trkpt lat="43.4951877" lon="10.5589843"><ele>159.0</ele><time>2026-04-18T11:46:02.988Z</time></trkpt><trkpt lat="43.4950717" lon="10.5589838"><ele>158.75</ele><time>2026-04-18T11:46:03.988Z</time></trkpt><trkpt lat="43.4949556" lon="10.5590114"><ele>158.5</ele><time>2026-04-18T11:46:04.988Z</time></trkpt><trkpt lat="43.4948319" lon="10.5590576"><ele>158.25</ele><time>2026-04-18T11:46:05.988Z</time></trkpt><trkpt lat="43.4947104" lon="10.5591035"><ele>158.0</ele><time>2026-04-18T11:46:06.988Z</time></trkpt><trkpt lat="43.4945849" lon="10.5591484"><ele>158.0</ele><time>2026-04-18T11:46:07.988Z</time></trkpt><trkpt lat="43.4944618" lon="10.5591824"><ele>158.0</ele><time>2026-04-18T11:46:08.988Z</time></trkpt><trkpt lat="43.4943293" lon="10.5591868"><ele>158.0</ele><time>2026-04-18T11:46:09.989Z</time></trkpt><trkpt lat="43.494191" lon="10.5591589"><ele>158.0</ele><time>2026-04-18T11:46:10.988Z</time></trkpt><trkpt lat="43.494041" lon="10.5590985"><ele>158.0</ele><time>2026-04-18T11:46:11.988Z</time></trkpt><trkpt lat="43.4939036" lon="10.5590251"><ele>158.0</ele><time>2026-04-18T11:46:12.989Z</time></trkpt><trkpt lat="43.4937712" lon="10.5589577"><ele>158.0</ele><time>2026-04-18T11:46:13.988Z</time></trkpt><trkpt lat="43.493635" lon="10.558926"><ele>158.0</ele><time>2026-04-18T11:46:14.988Z</time></trkpt><trkpt lat="43.4934887" lon="10.5589349"><ele>158.25</ele><time>2026-04-18T11:46:15.988Z</time></trkpt><trkpt lat="43.4933423" lon="10.5589534"><ele>158.5</ele><time>2026-04-18T11:46:16.988Z</time></trkpt><trkpt lat="43.4931963" lon="10.5589751"><ele>158.75</ele><time>2026-04-18T11:46:17.988Z</time></trkpt><trkpt lat="43.4930551" lon="10.5589671"><ele>159.0</ele><time>2026-04-18T11:46:18.988Z</time></trkpt><trkpt lat="43.4929213" lon="10.558955"><ele>159.0</ele><time>2026-04-18T11:46:19.988Z</time></trkpt><trkpt lat="43.49279" lon="10.5589595"><ele>159.0</ele><time>2026-04-18T11:46:20.988Z</time></trkpt><trkpt lat="43.4926671" lon="10.5589962"><ele>159.0</ele><time>2026-04-18T11:46:21.988Z</time></trkpt><trkpt lat="43.4925555" lon="10.5590675"><ele>159.0</ele><time>2026-04-18T11:46:22.988Z</time></trkpt><trkpt lat="43.4924607" lon="10.5591702"><ele>159.0</ele><time>2026-04-18T11:46:23.988Z</time></trkpt><trkpt lat="43.4923745" lon="10.5593039"><ele>159.0</ele><time>2026-04-18T11:46:24.988Z</time></trkpt><trkpt lat="43.4922841" lon="10.5594569"><ele>159.0</ele><time>2026-04-18T11:46:25.989Z</time></trkpt><trkpt lat="43.4921935" lon="10.5596301"><ele>159.0</ele><time>2026-04-18T11:46:26.988Z</time></trkpt><trkpt lat="43.4921141" lon="10.559791"><ele>159.0</ele><time>2026-04-18T11:46:27.988Z</time></trkpt><trkpt lat="43.4920294" lon="10.5599453"><ele>159.0</ele><time>2026-04-18T11:46:28.989Z</time></trkpt><trkpt lat="43.4919363" lon="10.5600801"><ele>159.0</ele><time>2026-04-18T11:46:29.988Z</time></trkpt><trkpt lat="43.4918193" lon="10.5601921"><ele>159.0</ele><time>2026-04-18T11:46:30.988Z</time></trkpt><trkpt lat="43.4916804" lon="10.5602833"><ele>159.75</ele><time>2026-04-18T11:46:31.988Z</time></trkpt><trkpt lat="43.4915401" lon="10.5603748"><ele>160.5</ele><time>2026-04-18T11:46:32.988Z</time></trkpt><trkpt lat="43.4914041" lon="10.5604512"><ele>161.25</ele><time>2026-04-18T11:46:33.988Z</time></trkpt><trkpt lat="43.4912817" lon="10.5605277"><ele>162.0</ele><time>2026-04-18T11:46:34.988Z</time></trkpt><trkpt lat="43.4911603" lon="10.5606079"><ele>162.0</ele><time>2026-04-18T11:46:35.988Z</time></trkpt><trkpt lat="43.4910802" lon="10.5607514"><ele>162.0</ele><time>2026-04-18T11:46:36.988Z</time></trkpt><trkpt lat="43.4910057" lon="10.5608851"><ele>162.0</ele><time>2026-04-18T11:46:37.988Z</time></trkpt><trkpt lat="43.4909324" lon="10.5610192"><ele>162.0</ele><time>2026-04-18T11:46:38.988Z</time></trkpt><trkpt lat="43.4908708" lon="10.5611549"><ele>166.5</ele><time>2026-04-18T11:46:39.988Z</time></trkpt><trkpt lat="43.4908042" lon="10.5612714"><ele>171.0</ele><time>2026-04-18T11:46:40.989Z</time></trkpt><trkpt lat="43.4907232" lon="10.5613631"><ele>175.5</ele><time>2026-04-18T11:46:41.988Z</time></trkpt><trkpt lat="43.4906161" lon="10.5614307"><ele>180.0</ele><time>2026-04-18T11:46:42.988Z</time></trkpt><trkpt lat="43.4905006" lon="10.5614817"><ele>178.25</ele><time>2026-04-18T11:46:43.988Z</time></trkpt><trkpt lat="43.4903915" lon="10.5615164"><ele>176.5</ele><time>2026-04-18T11:46:44.988Z</time></trkpt><trkpt lat="43.4902769" lon="10.5615233"><ele>174.75</ele><time>2026-04-18T11:46:45.988Z</time></trkpt><trkpt lat="43.490168" lon="10.5615512"><ele>173.0</ele><time>2026-04-18T11:46:46.988Z</time></trkpt><trkpt lat="43.4900621" lon="10.5616128"><ele>173.0</ele><time>2026-04-18T11:46:47.988Z</time></trkpt><trkpt lat="43.4899678" lon="10.5616962"><ele>173.0</ele><time>2026-04-18T11:46:48.988Z</time></trkpt><trkpt lat="43.4898891" lon="10.561802"><ele>173.0</ele><time>2026-04-18T11:46:49.988Z</time></trkpt><trkpt lat="43.4898111" lon="10.5619326"><ele>173.0</ele><time>2026-04-18T11:46:50.988Z</time></trkpt><trkpt lat="43.4897429" lon="10.5620553"><ele>174.4</ele><time>2026-04-18T11:46:51.989Z</time></trkpt><trkpt lat="43.489675" lon="10.5621606"><ele>175.8</ele><time>2026-04-18T11:46:52.988Z</time></trkpt><trkpt lat="43.4895979" lon="10.5622397"><ele>177.2</ele><time>2026-04-18T11:46:53.988Z</time></trkpt><trkpt lat="43.4895094" lon="10.5622674"><ele>178.6</ele><time>2026-04-18T11:46:54.988Z</time></trkpt><trkpt lat="43.4894203" lon="10.5622388"><ele>180.0</ele><time>2026-04-18T11:46:55.989Z</time></trkpt><trkpt lat="43.4893373" lon="10.5621657"><ele>180.0</ele><time>2026-04-18T11:46:56.988Z</time></trkpt><trkpt lat="43.4892559" lon="10.5620388"><ele>180.0</ele><time>2026-04-18T11:46:57.988Z</time></trkpt><trkpt lat="43.4891881" lon="10.5618872"><ele>180.0</ele><time>2026-04-18T11:46:58.988Z</time></trkpt><trkpt lat="43.4891243" lon="10.5617405"><ele>180.0</ele><time>2026-04-18T11:46:59.988Z</time></trkpt><trkpt lat="43.489066" lon="10.5616256"><ele>178.6</ele><time>2026-04-18T11:47:00.988Z</time></trkpt><trkpt lat="43.4889846" lon="10.561538"><ele>177.2</ele><time>2026-04-18T11:47:01.988Z</time></trkpt><trkpt lat="43.4888925" lon="10.561488"><ele>175.8</ele><time>2026-04-18T11:47:02.988Z</time></trkpt><trkpt lat="43.4887926" lon="10.5614849"><ele>174.4</ele><time>2026-04-18T11:47:03.988Z</time></trkpt><trkpt lat="43.4887002" lon="10.5615258"><ele>173.0</ele><time>2026-04-18T11:47:04.988Z</time></trkpt><trkpt lat="43.4886117" lon="10.5615941"><ele>172.75</ele><time>2026-04-18T11:47:05.988Z</time></trkpt><trkpt lat="43.4885254" lon="10.5616747"><ele>172.5</ele><time>2026-04-18T11:47:06.988Z</time></trkpt><trkpt lat="43.4884276" lon="10.5617595"><ele>172.25</ele><time>2026-04-18T11:47:07.988Z</time></trkpt><trkpt lat="43.4883255" lon="10.5618504"><ele>172.0</ele><time>2026-04-18T11:47:08.988Z</time></trkpt><trkpt lat="43.4882209" lon="10.5619551"><ele>173.0</ele><time>2026-04-18T11:47:09.988Z</time></trkpt><trkpt lat="43.4881199" lon="10.5620679"><ele>174.0</ele><time>2026-04-18T11:47:10.988Z</time></trkpt><trkpt lat="43.4880186" lon="10.5621849"><ele>175.0</ele><time>2026-04-18T11:47:11.988Z</time></trkpt><trkpt lat="43.4879239" lon="10.5623082"><ele>176.0</ele><time>2026-04-18T11:47:12.988Z</time></trkpt><trkpt lat="43.4878316" lon="10.5624388"><ele>175.25</ele><time>2026-04-18T11:47:13.988Z</time></trkpt><trkpt lat="43.4877457" lon="10.5625679"><ele>174.5</ele><time>2026-04-18T11:47:14.988Z</time></trkpt><trkpt lat="43.4876676" lon="10.5627005"><ele>173.75</ele><time>2026-04-18T11:47:15.988Z</time></trkpt><trkpt lat="43.4875953" lon="10.5628373"><ele>173.0</ele><time>2026-04-18T11:47:16.988Z</time></trkpt><trkpt lat="43.4875385" lon="10.562976"><ele>173.0</ele><time>2026-04-18T11:47:17.988Z</time></trkpt><trkpt lat="43.4874833" lon="10.5630944"><ele>173.0</ele><time>2026-04-18T11:47:18.988Z</time></trkpt><trkpt lat="43.4874155" lon="10.5631967"><ele>173.0</ele><time>2026-04-18T11:47:19.988Z</time></trkpt><trkpt lat="43.4873184" lon="10.5632513"><ele>173.0</ele><time>2026-04-18T11:47:20.988Z</time></trkpt><trkpt lat="43.4872016" lon="10.5632779"><ele>173.0</ele><time>2026-04-18T11:47:21.988Z</time></trkpt><trkpt lat="43.4870772" lon="10.5632851"><ele>174.60000000000002</ele><time>2026-04-18T11:47:22.988Z</time></trkpt><trkpt lat="43.4869587" lon="10.5632888"><ele>176.20000000000002</ele><time>2026-04-18T11:47:23.988Z</time></trkpt><trkpt lat="43.4868557" lon="10.563292"><ele>177.8</ele><time>2026-04-18T11:47:24.988Z</time></trkpt><trkpt lat="43.4867712" lon="10.5632743"><ele>179.4</ele><time>2026-04-18T11:47:25.988Z</time></trkpt><trkpt lat="43.4867022" lon="10.5632286"><ele>181.0</ele><time>2026-04-18T11:47:26.989Z</time></trkpt><trkpt lat="43.4866449" lon="10.563135"><ele>181.0</ele><time>2026-04-18T11:47:27.989Z</time></trkpt><trkpt lat="43.4866309" lon="10.5629938"><ele>181.0</ele><time>2026-04-18T11:47:28.988Z</time></trkpt><trkpt lat="43.4866136" lon="10.562839"><ele>181.0</ele><time>2026-04-18T11:47:29.988Z</time></trkpt><trkpt lat="43.4865832" lon="10.5626974"><ele>181.0</ele><time>2026-04-18T11:47:30.988Z</time></trkpt><trkpt lat="43.4865288" lon="10.5625726"><ele>181.0</ele><time>2026-04-18T11:47:31.988Z</time></trkpt><trkpt lat="43.4864576" lon="10.5624536"><ele>182.75</ele><time>2026-04-18T11:47:32.989Z</time></trkpt><trkpt lat="43.4863614" lon="10.562359"><ele>184.5</ele><time>2026-04-18T11:47:33.988Z</time></trkpt><trkpt lat="43.4862622" lon="10.5622739"><ele>186.25</ele><time>2026-04-18T11:47:34.988Z</time></trkpt><trkpt lat="43.486155" lon="10.5621808"><ele>188.0</ele><time>2026-04-18T11:47:35.988Z</time></trkpt><trkpt lat="43.4860495" lon="10.5620896"><ele>184.4</ele><time>2026-04-18T11:47:36.988Z</time></trkpt><trkpt lat="43.4859492" lon="10.5620091"><ele>180.8</ele><time>2026-04-18T11:47:37.989Z</time></trkpt><trkpt lat="43.4858485" lon="10.5619586"><ele>177.2</ele><time>2026-04-18T11:47:38.989Z</time></trkpt><trkpt lat="43.485754" lon="10.5619436"><ele>173.6</ele><time>2026-04-18T11:47:39.989Z</time></trkpt><trkpt lat="43.4856394" lon="10.5619641"><ele>170.0</ele><time>2026-04-18T11:47:40.989Z</time></trkpt><trkpt lat="43.4855206" lon="10.5620095"><ele>173.0</ele><time>2026-04-18T11:47:41.988Z</time></trkpt><trkpt lat="43.4853989" lon="10.5620723"><ele>176.0</ele><time>2026-04-18T11:47:42.988Z</time></trkpt><trkpt lat="43.4852765" lon="10.5621305"><ele>179.0</ele><time>2026-04-18T11:47:43.988Z</time></trkpt><trkpt lat="43.4851518" lon="10.5621847"><ele>182.0</ele><time>2026-04-18T11:47:44.988Z</time></trkpt><trkpt lat="43.4850322" lon="10.5622409"><ele>182.0</ele><time>2026-04-18T11:47:45.988Z</time></trkpt><trkpt lat="43.4849142" lon="10.5622969"><ele>182.0</ele><time>2026-04-18T11:47:46.988Z</time></trkpt><trkpt lat="43.4848006" lon="10.5623628"><ele>182.0</ele><time>2026-04-18T11:47:47.989Z</time></trkpt><trkpt lat="43.4846995" lon="10.5624544"><ele>182.0</ele><time>2026-04-18T11:47:48.988Z</time></trkpt><trkpt lat="43.4846097" lon="10.5625739"><ele>182.39999999999998</ele><time>2026-04-18T11:47:49.988Z</time></trkpt><trkpt lat="43.484525" lon="10.5627155"><ele>182.79999999999998</ele><time>2026-04-18T11:47:50.988Z</time></trkpt><trkpt lat="43.4844574" lon="10.5628619"><ele>183.2</ele><time>2026-04-18T11:47:51.989Z</time></trkpt><trkpt lat="43.4843979" lon="10.5629724"><ele>183.6</ele><time>2026-04-18T11:47:52.988Z</time></trkpt><trkpt lat="43.4843331" lon="10.5630424"><ele>184.0</ele><time>2026-04-18T11:47:53.988Z</time></trkpt><trkpt lat="43.4842661" lon="10.5630658"><ele>184.0</ele><time>2026-04-18T11:47:54.988Z</time></trkpt><trkpt lat="43.4841869" lon="10.5630401"><ele>184.0</ele><time>2026-04-18T11:47:55.988Z</time></trkpt><trkpt lat="43.4840833" lon="10.5629671"><ele>184.0</ele><time>2026-04-18T11:47:56.988Z</time></trkpt><trkpt lat="43.4839854" lon="10.5628734"><ele>184.0</ele><time>2026-04-18T11:47:57.988Z</time></trkpt><trkpt lat="43.4838764" lon="10.5627554"><ele>184.0</ele><time>2026-04-18T11:47:58.988Z</time></trkpt><trkpt lat="43.483777" lon="10.562633"><ele>184.0</ele><time>2026-04-18T11:47:59.988Z</time></trkpt><trkpt lat="43.4836778" lon="10.5625063"><ele>184.0</ele><time>2026-04-18T11:48:00.988Z</time></trkpt><trkpt lat="43.4835556" lon="10.5624154"><ele>184.0</ele><time>2026-04-18T11:48:01.988Z</time></trkpt><trkpt lat="43.4834247" lon="10.5623303"><ele>184.0</ele><time>2026-04-18T11:48:02.988Z</time></trkpt><trkpt lat="43.483294" lon="10.562252"><ele>184.0</ele><time>2026-04-18T11:48:03.988Z</time></trkpt><trkpt lat="43.483163" lon="10.5621763"><ele>184.0</ele><time>2026-04-18T11:48:04.988Z</time></trkpt><trkpt lat="43.4830177" lon="10.5621243"><ele>184.0</ele><time>2026-04-18T11:48:05.988Z</time></trkpt><trkpt lat="43.4828724" lon="10.5620857"><ele>184.5</ele><time>2026-04-18T11:48:06.988Z</time></trkpt><trkpt lat="43.4827319" lon="10.5620565"><ele>185.0</ele><time>2026-04-18T11:48:07.988Z</time></trkpt><trkpt lat="43.4825952" lon="10.5620345"><ele>185.5</ele><time>2026-04-18T11:48:08.989Z</time></trkpt><trkpt lat="43.4824712" lon="10.5620267"><ele>186.0</ele><time>2026-04-18T11:48:09.988Z</time></trkpt><trkpt lat="43.4823539" lon="10.5620176"><ele>184.25</ele><time>2026-04-18T11:48:10.988Z</time></trkpt><trkpt lat="43.4822481" lon="10.5619787"><ele>182.5</ele><time>2026-04-18T11:48:11.988Z</time></trkpt><trkpt lat="43.4821473" lon="10.5619001"><ele>180.75</ele><time>2026-04-18T11:48:12.988Z</time></trkpt><trkpt lat="43.4820641" lon="10.561781"><ele>179.0</ele><time>2026-04-18T11:48:13.988Z</time></trkpt><trkpt lat="43.4819911" lon="10.5616616"><ele>179.0</ele><time>2026-04-18T11:48:14.988Z</time></trkpt><trkpt lat="43.4819197" lon="10.5615551"><ele>179.0</ele><time>2026-04-18T11:48:15.988Z</time></trkpt><trkpt lat="43.4818382" lon="10.5614749"><ele>179.0</ele><time>2026-04-18T11:48:16.988Z</time></trkpt><trkpt lat="43.4817474" lon="10.5614337"><ele>179.0</ele><time>2026-04-18T11:48:17.988Z</time></trkpt><trkpt lat="43.48164" lon="10.5614455"><ele>179.0</ele><time>2026-04-18T11:48:18.988Z</time></trkpt><trkpt lat="43.4815384" lon="10.5615076"><ele>179.0</ele><time>2026-04-18T11:48:19.988Z</time></trkpt><trkpt lat="43.4814319" lon="10.5616006"><ele>179.0</ele><time>2026-04-18T11:48:20.988Z</time></trkpt><trkpt lat="43.4813266" lon="10.561694"><ele>179.0</ele><time>2026-04-18T11:48:21.988Z</time></trkpt><trkpt lat="43.4812251" lon="10.5617801"><ele>179.0</ele><time>2026-04-18T11:48:22.988Z</time></trkpt><trkpt lat="43.4811151" lon="10.5618506"><ele>178.25</ele><time>2026-04-18T11:48:23.988Z</time></trkpt><trkpt lat="43.4809938" lon="10.5618872"><ele>177.5</ele><time>2026-04-18T11:48:24.988Z</time></trkpt><trkpt lat="43.4808652" lon="10.5618957"><ele>176.75</ele><time>2026-04-18T11:48:25.988Z</time></trkpt><trkpt lat="43.4807375" lon="10.5619015"><ele>176.0</ele><time>2026-04-18T11:48:26.988Z</time></trkpt><trkpt lat="43.4806123" lon="10.561931"><ele>176.0</ele><time>2026-04-18T11:48:27.988Z</time></trkpt><trkpt lat="43.4804907" lon="10.5619698"><ele>176.0</ele><time>2026-04-18T11:48:28.988Z</time></trkpt><trkpt lat="43.4803698" lon="10.562025"><ele>176.0</ele><time>2026-04-18T11:48:29.988Z</time></trkpt><trkpt lat="43.4802587" lon="10.5621044"><ele>176.0</ele><time>2026-04-18T11:48:30.988Z</time></trkpt><trkpt lat="43.4801478" lon="10.5621867"><ele>179.5</ele><time>2026-04-18T11:48:31.988Z</time></trkpt><trkpt lat="43.4800364" lon="10.5622702"><ele>183.0</ele><time>2026-04-18T11:48:32.988Z</time></trkpt><trkpt lat="43.47992" lon="10.5623302"><ele>186.5</ele><time>2026-04-18T11:48:33.988Z</time></trkpt><trkpt lat="43.4797912" lon="10.5623665"><ele>190.0</ele><time>2026-04-18T11:48:34.988Z</time></trkpt><trkpt lat="43.479652" lon="10.5623871"><ele>189.25</ele><time>2026-04-18T11:48:35.988Z</time></trkpt><trkpt lat="43.479513" lon="10.5624007"><ele>188.5</ele><time>2026-04-18T11:48:36.988Z</time></trkpt><trkpt lat="43.4793778" lon="10.562404"><ele>187.75</ele><time>2026-04-18T11:48:37.988Z</time></trkpt><trkpt lat="43.4792434" lon="10.5624026"><ele>187.0</ele><time>2026-04-18T11:48:38.988Z</time></trkpt><trkpt lat="43.4791036" lon="10.5623763"><ele>187.0</ele><time>2026-04-18T11:48:39.989Z</time></trkpt><trkpt lat="43.478975" lon="10.5623516"><ele>187.0</ele><time>2026-04-18T11:48:40.989Z</time></trkpt><trkpt lat="43.4788498" lon="10.562317"><ele>187.0</ele><time>2026-04-18T11:48:41.988Z</time></trkpt><trkpt lat="43.4787272" lon="10.5622917"><ele>187.0</ele><time>2026-04-18T11:48:42.988Z</time></trkpt><trkpt lat="43.4786096" lon="10.5622746"><ele>186.39999999999998</ele><time>2026-04-18T11:48:43.988Z</time></trkpt><trkpt lat="43.4785045" lon="10.5622808"><ele>185.79999999999998</ele><time>2026-04-18T11:48:44.988Z</time></trkpt><trkpt lat="43.4784119" lon="10.5623289"><ele>185.2</ele><time>2026-04-18T11:48:45.989Z</time></trkpt><trkpt lat="43.4783243" lon="10.562413"><ele>184.6</ele><time>2026-04-18T11:48:46.988Z</time></trkpt><trkpt lat="43.4782474" lon="10.5625385"><ele>184.0</ele><time>2026-04-18T11:48:47.988Z</time></trkpt><trkpt lat="43.4781655" lon="10.5626778"><ele>184.0</ele><time>2026-04-18T11:48:48.988Z</time></trkpt><trkpt lat="43.4780783" lon="10.5628177"><ele>184.0</ele><time>2026-04-18T11:48:49.988Z</time></trkpt><trkpt lat="43.4779923" lon="10.5629519"><ele>184.0</ele><time>2026-04-18T11:48:50.988Z</time></trkpt><trkpt lat="43.4779147" lon="10.5630883"><ele>184.0</ele><time>2026-04-18T11:48:51.988Z</time></trkpt><trkpt lat="43.4778411" lon="10.5632217"><ele>184.0</ele><time>2026-04-18T11:48:52.988Z</time></trkpt><trkpt lat="43.4777694" lon="10.563348"><ele>184.0</ele><time>2026-04-18T11:48:53.988Z</time></trkpt><trkpt lat="43.4777082" lon="10.5634796"><ele>184.0</ele><time>2026-04-18T11:48:54.989Z</time></trkpt><trkpt lat="43.4776558" lon="10.5636069"><ele>184.0</ele><time>2026-04-18T11:48:55.988Z</time></trkpt><trkpt lat="43.4776127" lon="10.5637389"><ele>184.0</ele><time>2026-04-18T11:48:56.988Z</time></trkpt><trkpt lat="43.477565" lon="10.5638662"><ele>184.0</ele><time>2026-04-18T11:48:57.988Z</time></trkpt><trkpt lat="43.4775082" lon="10.5639811"><ele>184.0</ele><time>2026-04-18T11:48:58.988Z</time></trkpt><trkpt lat="43.4774313" lon="10.5640849"><ele>184.0</ele><time>2026-04-18T11:48:59.988Z</time></trkpt><trkpt lat="43.4773332" lon="10.5641524"><ele>184.0</ele><time>2026-04-18T11:49:00.989Z</time></trkpt><trkpt lat="43.4772256" lon="10.5641927"><ele>184.0</ele><time>2026-04-18T11:49:01.988Z</time></trkpt><trkpt lat="43.4771003" lon="10.5641555"><ele>181.75</ele><time>2026-04-18T11:49:02.988Z</time></trkpt><trkpt lat="43.4769877" lon="10.5641356"><ele>179.5</ele><time>2026-04-18T11:49:03.988Z</time></trkpt><trkpt lat="43.4768809" lon="10.5641559"><ele>177.25</ele><time>2026-04-18T11:49:04.988Z</time></trkpt><trkpt lat="43.4767726" lon="10.5642134"><ele>175.0</ele><time>2026-04-18T11:49:05.988Z</time></trkpt><trkpt lat="43.4766685" lon="10.5643046"><ele>175.0</ele><time>2026-04-18T11:49:06.988Z</time></trkpt><trkpt lat="43.4765771" lon="10.5644352"><ele>175.0</ele><time>2026-04-18T11:49:07.989Z</time></trkpt><trkpt lat="43.4764933" lon="10.5645874"><ele>175.0</ele><time>2026-04-18T11:49:08.988Z</time></trkpt><trkpt lat="43.4764205" lon="10.5647398"><ele>175.0</ele><time>2026-04-18T11:49:09.988Z</time></trkpt><trkpt lat="43.4763395" lon="10.5648875"><ele>175.75</ele><time>2026-04-18T11:49:10.989Z</time></trkpt><trkpt lat="43.4762407" lon="10.5650182"><ele>176.5</ele><time>2026-04-18T11:49:11.988Z</time></trkpt><trkpt lat="43.476131" lon="10.5651301"><ele>177.25</ele><time>2026-04-18T11:49:12.988Z</time></trkpt><trkpt lat="43.4760205" lon="10.5652332"><ele>178.0</ele><time>2026-04-18T11:49:13.988Z</time></trkpt><trkpt lat="43.475901" lon="10.5653197"><ele>181.25</ele><time>2026-04-18T11:49:14.988Z</time></trkpt><trkpt lat="43.475772" lon="10.5653806"><ele>184.5</ele><time>2026-04-18T11:49:15.988Z</time></trkpt><trkpt lat="43.4756438" lon="10.5653991"><ele>187.75</ele><time>2026-04-18T11:49:16.988Z</time></trkpt><trkpt lat="43.4755233" lon="10.565394"><ele>191.0</ele><time>2026-04-18T11:49:17.988Z</time></trkpt><trkpt lat="43.4754039" lon="10.5654151"><ele>191.0</ele><time>2026-04-18T11:49:18.988Z</time></trkpt><trkpt lat="43.47528" lon="10.5654729"><ele>191.0</ele><time>2026-04-18T11:49:19.988Z</time></trkpt><trkpt lat="43.4751526" lon="10.5655464"><ele>191.0</ele><time>2026-04-18T11:49:20.988Z</time></trkpt><trkpt lat="43.4750235" lon="10.5656271"><ele>191.0</ele><time>2026-04-18T11:49:21.988Z</time></trkpt><trkpt lat="43.474899" lon="10.565704"><ele>191.0</ele><time>2026-04-18T11:49:22.988Z</time></trkpt><trkpt lat="43.4747767" lon="10.5657748"><ele>191.0</ele><time>2026-04-18T11:49:23.988Z</time></trkpt><trkpt lat="43.4746575" lon="10.5658379"><ele>191.0</ele><time>2026-04-18T11:49:24.988Z</time></trkpt><trkpt lat="43.4745349" lon="10.5658759"><ele>191.0</ele><time>2026-04-18T11:49:25.988Z</time></trkpt><trkpt lat="43.4744255" lon="10.565904"><ele>189.4</ele><time>2026-04-18T11:49:26.988Z</time></trkpt><trkpt lat="43.4743284" lon="10.5659456"><ele>187.8</ele><time>2026-04-18T11:49:27.989Z</time></trkpt><trkpt lat="43.4742469" lon="10.5660359"><ele>186.20000000000002</ele><time>2026-04-18T11:49:28.988Z</time></trkpt><trkpt lat="43.474179" lon="10.5661621"><ele>184.60000000000002</ele><time>2026-04-18T11:49:29.988Z</time></trkpt><trkpt lat="43.4741369" lon="10.5663136"><ele>183.0</ele><time>2026-04-18T11:49:30.988Z</time></trkpt><trkpt lat="43.4741097" lon="10.5664564"><ele>187.0</ele><time>2026-04-18T11:49:31.988Z</time></trkpt><trkpt lat="43.4741083" lon="10.5666128"><ele>191.0</ele><time>2026-04-18T11:49:32.988Z</time></trkpt><trkpt lat="43.4741346" lon="10.5667676"><ele>195.0</ele><time>2026-04-18T11:49:33.988Z</time></trkpt><trkpt lat="43.4741671" lon="10.5668995"><ele>199.0</ele><time>2026-04-18T11:49:34.988Z</time></trkpt><trkpt lat="43.4741903" lon="10.5670121"><ele>203.0</ele><time>2026-04-18T11:49:35.988Z</time></trkpt><trkpt lat="43.4741954" lon="10.5671736"><ele>203.0</ele><time>2026-04-18T11:49:37.988Z</time></trkpt><trkpt lat="43.4741553" lon="10.5672511"><ele>203.0</ele><time>2026-04-18T11:49:38.988Z</time></trkpt><trkpt lat="43.4740777" lon="10.5672831"><ele>203.0</ele><time>2026-04-18T11:49:39.988Z</time></trkpt><trkpt lat="43.4739613" lon="10.5672383"><ele>203.0</ele><time>2026-04-18T11:49:41.988Z</time></trkpt><trkpt lat="43.4739208" lon="10.5670872"><ele>203.0</ele><time>2026-04-18T11:49:42.988Z</time></trkpt><trkpt lat="43.4738516" lon="10.5668107"><ele>203.0</ele><time>2026-04-18T11:49:43.988Z</time></trkpt><trkpt lat="43.4737988" lon="10.5666498"><ele>203.0</ele><time>2026-04-18T11:49:44.988Z</time></trkpt><trkpt lat="43.4737511" lon="10.5664697"><ele>203.0</ele><time>2026-04-18T11:49:45.988Z</time></trkpt><trkpt lat="43.4737123" lon="10.5663272"><ele>203.0</ele><time>2026-04-18T11:49:46.988Z</time></trkpt><trkpt lat="43.473649" lon="10.5661849"><ele>202.25</ele><time>2026-04-18T11:49:47.988Z</time></trkpt><trkpt lat="43.473567" lon="10.5660509"><ele>201.5</ele><time>2026-04-18T11:49:48.988Z</time></trkpt><trkpt lat="43.4734659" lon="10.5659235"><ele>200.75</ele><time>2026-04-18T11:49:49.988Z</time></trkpt><trkpt lat="43.4733714" lon="10.5658058"><ele>200.0</ele><time>2026-04-18T11:49:50.988Z</time></trkpt><trkpt lat="43.4732807" lon="10.5656895"><ele>200.0</ele><time>2026-04-18T11:49:51.988Z</time></trkpt><trkpt lat="43.4731923" lon="10.5655627"><ele>200.0</ele><time>2026-04-18T11:49:52.989Z</time></trkpt><trkpt lat="43.4731129" lon="10.565454"><ele>200.0</ele><time>2026-04-18T11:49:53.988Z</time></trkpt><trkpt lat="43.4730381" lon="10.5653363"><ele>200.0</ele><time>2026-04-18T11:49:54.989Z</time></trkpt><trkpt lat="43.4729647" lon="10.565233"><ele>199.8</ele><time>2026-04-18T11:49:55.988Z</time></trkpt><trkpt lat="43.4728884" lon="10.5651558"><ele>199.6</ele><time>2026-04-18T11:49:56.988Z</time></trkpt><trkpt lat="43.4728195" lon="10.5651025"><ele>199.39999999999998</ele><time>2026-04-18T11:49:57.988Z</time></trkpt><trkpt lat="43.4727182" lon="10.565064"><ele>199.2</ele><time>2026-04-18T11:49:59.988Z</time></trkpt><trkpt lat="43.4726287" lon="10.5650867"><ele>199.0</ele><time>2026-04-18T11:50:01.988Z</time></trkpt><trkpt lat="43.4725035" lon="10.5651034"><ele>198.99999999999997</ele><time>2026-04-18T11:50:03.988Z</time></trkpt><trkpt lat="43.4724314" lon="10.5650737"><ele>199.0</ele><time>2026-04-18T11:50:04.988Z</time></trkpt><trkpt lat="43.4723532" lon="10.5650148"><ele>199.0</ele><time>2026-04-18T11:50:05.988Z</time></trkpt><trkpt lat="43.4722745" lon="10.5649519"><ele>199.0</ele><time>2026-04-18T11:50:06.988Z</time></trkpt><trkpt lat="43.4721946" lon="10.5648936"><ele>198.99999999999997</ele><time>2026-04-18T11:50:07.988Z</time></trkpt><trkpt lat="43.4721181" lon="10.564832"><ele>199.0</ele><time>2026-04-18T11:50:08.988Z</time></trkpt><trkpt lat="43.4720474" lon="10.5647599"><ele>197.79999999999998</ele><time>2026-04-18T11:50:09.988Z</time></trkpt><trkpt lat="43.471985" lon="10.5646683"><ele>196.6</ele><time>2026-04-18T11:50:10.988Z</time></trkpt><trkpt lat="43.471928" lon="10.5645508"><ele>195.4</ele><time>2026-04-18T11:50:11.988Z</time></trkpt><trkpt lat="43.4718782" lon="10.5644083"><ele>194.2</ele><time>2026-04-18T11:50:12.988Z</time></trkpt><trkpt lat="43.471831" lon="10.5642651"><ele>193.0</ele><time>2026-04-18T11:50:13.988Z</time></trkpt><trkpt lat="43.4717889" lon="10.5641284"><ele>193.0</ele><time>2026-04-18T11:50:14.988Z</time></trkpt><trkpt lat="43.4717611" lon="10.5639835"><ele>193.0</ele><time>2026-04-18T11:50:15.988Z</time></trkpt><trkpt lat="43.4717303" lon="10.5638371"><ele>193.0</ele><time>2026-04-18T11:50:16.988Z</time></trkpt><trkpt lat="43.4717013" lon="10.5637017"><ele>193.0</ele><time>2026-04-18T11:50:17.988Z</time></trkpt><trkpt lat="43.4716666" lon="10.5635749"><ele>193.0</ele><time>2026-04-18T11:50:18.988Z</time></trkpt><trkpt lat="43.4716162" lon="10.5634566"><ele>193.0</ele><time>2026-04-18T11:50:19.988Z</time></trkpt><trkpt lat="43.4715425" lon="10.5633541"><ele>193.0</ele><time>2026-04-18T11:50:20.988Z</time></trkpt><trkpt lat="43.4714725" lon="10.563248"><ele>193.0</ele><time>2026-04-18T11:50:21.989Z</time></trkpt><trkpt lat="43.4713964" lon="10.5631376"><ele>193.0</ele><time>2026-04-18T11:50:22.988Z</time></trkpt><trkpt lat="43.4713111" lon="10.5630184"><ele>193.0</ele><time>2026-04-18T11:50:23.988Z</time></trkpt><trkpt lat="43.4712269" lon="10.562888"><ele>191.5</ele><time>2026-04-18T11:50:24.988Z</time></trkpt><trkpt lat="43.4711407" lon="10.5627589"><ele>190.0</ele><time>2026-04-18T11:50:25.988Z</time></trkpt><trkpt lat="43.4710504" lon="10.5626499"><ele>188.5</ele><time>2026-04-18T11:50:26.988Z</time></trkpt><trkpt lat="43.4709531" lon="10.56255"><ele>187.0</ele><time>2026-04-18T11:50:27.988Z</time></trkpt><trkpt lat="43.4708539" lon="10.5624665"><ele>187.0</ele><time>2026-04-18T11:50:28.988Z</time></trkpt><trkpt lat="43.4707408" lon="10.5623939"><ele>187.0</ele><time>2026-04-18T11:50:29.988Z</time></trkpt><trkpt lat="43.4706528" lon="10.5623011"><ele>187.0</ele><time>2026-04-18T11:50:30.988Z</time></trkpt><trkpt lat="43.470565" lon="10.5621817"><ele>187.0</ele><time>2026-04-18T11:50:31.988Z</time></trkpt><trkpt lat="43.470489" lon="10.5620513"><ele>185.5</ele><time>2026-04-18T11:50:32.988Z</time></trkpt><trkpt lat="43.47041" lon="10.5619119"><ele>184.0</ele><time>2026-04-18T11:50:33.988Z</time></trkpt><trkpt lat="43.4703398" lon="10.5617675"><ele>182.5</ele><time>2026-04-18T11:50:34.988Z</time></trkpt><trkpt lat="43.4702733" lon="10.5616234"><ele>181.0</ele><time>2026-04-18T11:50:35.988Z</time></trkpt><trkpt lat="43.4702115" lon="10.5614793"><ele>181.0</ele><time>2026-04-18T11:50:36.988Z</time></trkpt><trkpt lat="43.4701531" lon="10.5613355"><ele>181.0</ele><time>2026-04-18T11:50:37.988Z</time></trkpt><trkpt lat="43.4701031" lon="10.5611958"><ele>181.0</ele><time>2026-04-18T11:50:38.988Z</time></trkpt><trkpt lat="43.4700595" lon="10.5610539"><ele>181.0</ele><time>2026-04-18T11:50:39.988Z</time></trkpt><trkpt lat="43.4700349" lon="10.5609153"><ele>181.0</ele><time>2026-04-18T11:50:40.988Z</time></trkpt><trkpt lat="43.4700248" lon="10.5607681"><ele>182.4</ele><time>2026-04-18T11:50:41.988Z</time></trkpt><trkpt lat="43.4700327" lon="10.5606193"><ele>183.8</ele><time>2026-04-18T11:50:42.988Z</time></trkpt><trkpt lat="43.4700533" lon="10.5604686"><ele>185.20000000000002</ele><time>2026-04-18T11:50:43.988Z</time></trkpt><trkpt lat="43.4700746" lon="10.5603246"><ele>186.60000000000002</ele><time>2026-04-18T11:50:44.988Z</time></trkpt><trkpt lat="43.4700965" lon="10.5601817"><ele>188.0</ele><time>2026-04-18T11:50:45.988Z</time></trkpt><trkpt lat="43.4701148" lon="10.5600363"><ele>187.75</ele><time>2026-04-18T11:50:46.988Z</time></trkpt><trkpt lat="43.4701251" lon="10.559879"><ele>187.5</ele><time>2026-04-18T11:50:47.988Z</time></trkpt><trkpt lat="43.4701356" lon="10.5597129"><ele>187.25</ele><time>2026-04-18T11:50:48.988Z</time></trkpt><trkpt lat="43.4701403" lon="10.5595484"><ele>187.0</ele><time>2026-04-18T11:50:49.988Z</time></trkpt><trkpt lat="43.4701305" lon="10.5593844"><ele>187.0</ele><time>2026-04-18T11:50:50.988Z</time></trkpt><trkpt lat="43.4701115" lon="10.5592164"><ele>187.0</ele><time>2026-04-18T11:50:51.988Z</time></trkpt><trkpt lat="43.4700858" lon="10.5590569"><ele>187.0</ele><time>2026-04-18T11:50:52.988Z</time></trkpt><trkpt lat="43.4700545" lon="10.5588997"><ele>187.0</ele><time>2026-04-18T11:50:53.988Z</time></trkpt><trkpt lat="43.4700217" lon="10.558736"><ele>185.0</ele><time>2026-04-18T11:50:54.988Z</time></trkpt><trkpt lat="43.4699916" lon="10.5585947"><ele>183.0</ele><time>2026-04-18T11:50:55.988Z</time></trkpt><trkpt lat="43.4699515" lon="10.5584511"><ele>181.0</ele><time>2026-04-18T11:50:56.988Z</time></trkpt><trkpt lat="43.4699107" lon="10.5583092"><ele>179.0</ele><time>2026-04-18T11:50:57.988Z</time></trkpt><trkpt lat="43.4698612" lon="10.5581696"><ele>177.0</ele><time>2026-04-18T11:50:58.988Z</time></trkpt><trkpt lat="43.4698008" lon="10.5580353"><ele>177.0</ele><time>2026-04-18T11:50:59.988Z</time></trkpt><trkpt lat="43.4697375" lon="10.5579067"><ele>177.0</ele><time>2026-04-18T11:51:00.988Z</time></trkpt><trkpt lat="43.4696753" lon="10.5577765"><ele>177.0</ele><time>2026-04-18T11:51:01.988Z</time></trkpt><trkpt lat="43.4696016" lon="10.5576665"><ele>177.0</ele><time>2026-04-18T11:51:02.988Z</time></trkpt><trkpt lat="43.4695031" lon="10.5575709"><ele>175.6</ele><time>2026-04-18T11:51:03.988Z</time></trkpt><trkpt lat="43.4694006" lon="10.5574878"><ele>174.2</ele><time>2026-04-18T11:51:04.988Z</time></trkpt><trkpt lat="43.4693" lon="10.5574115"><ele>172.8</ele><time>2026-04-18T11:51:05.989Z</time></trkpt><trkpt lat="43.4692048" lon="10.5573247"><ele>171.4</ele><time>2026-04-18T11:51:06.988Z</time></trkpt><trkpt lat="43.469126" lon="10.5572546"><ele>170.0</ele><time>2026-04-18T11:51:07.988Z</time></trkpt><trkpt lat="43.4690419" lon="10.5572004"><ele>170.0</ele><time>2026-04-18T11:51:08.988Z</time></trkpt><trkpt lat="43.4689565" lon="10.5571731"><ele>170.0</ele><time>2026-04-18T11:51:09.988Z</time></trkpt><trkpt lat="43.4688566" lon="10.5571884"><ele>170.0</ele><time>2026-04-18T11:51:10.988Z</time></trkpt><trkpt lat="43.4687632" lon="10.5572475"><ele>170.0</ele><time>2026-04-18T11:51:11.988Z</time></trkpt><trkpt lat="43.4686705" lon="10.5573063"><ele>170.0</ele><time>2026-04-18T11:51:12.988Z</time></trkpt><trkpt lat="43.4685688" lon="10.5573381"><ele>170.2</ele><time>2026-04-18T11:51:13.989Z</time></trkpt><trkpt lat="43.4684824" lon="10.5573649"><ele>170.4</ele><time>2026-04-18T11:51:14.988Z</time></trkpt><trkpt lat="43.4683684" lon="10.55729"><ele>170.60000000000002</ele><time>2026-04-18T11:51:15.988Z</time></trkpt><trkpt lat="43.4682688" lon="10.5572363"><ele>170.8</ele><time>2026-04-18T11:51:16.988Z</time></trkpt><trkpt lat="43.4681824" lon="10.5571458"><ele>171.0</ele><time>2026-04-18T11:51:17.988Z</time></trkpt><trkpt lat="43.4681026" lon="10.5570347"><ele>168.4</ele><time>2026-04-18T11:51:18.988Z</time></trkpt><trkpt lat="43.4680395" lon="10.556915"><ele>165.8</ele><time>2026-04-18T11:51:19.988Z</time></trkpt><trkpt lat="43.4679899" lon="10.5567902"><ele>163.20000000000002</ele><time>2026-04-18T11:51:20.988Z</time></trkpt><trkpt lat="43.4679414" lon="10.5566795"><ele>160.60000000000002</ele><time>2026-04-18T11:51:21.988Z</time></trkpt><trkpt lat="43.4678845" lon="10.5565885"><ele>158.0</ele><time>2026-04-18T11:51:22.988Z</time></trkpt><trkpt lat="43.4678064" lon="10.556534"><ele>158.0</ele><time>2026-04-18T11:51:23.988Z</time></trkpt><trkpt lat="43.467731" lon="10.5565217"><ele>158.0</ele><time>2026-04-18T11:51:24.988Z</time></trkpt><trkpt lat="43.4676473" lon="10.5565599"><ele>158.0</ele><time>2026-04-18T11:51:25.988Z</time></trkpt><trkpt lat="43.4675667" lon="10.5566359"><ele>158.0</ele><time>2026-04-18T11:51:26.989Z</time></trkpt><trkpt lat="43.4674882" lon="10.5567553"><ele>158.0</ele><time>2026-04-18T11:51:27.988Z</time></trkpt><trkpt lat="43.4674072" lon="10.5568831"><ele>158.0</ele><time>2026-04-18T11:51:28.988Z</time></trkpt><trkpt lat="43.467331" lon="10.5570142"><ele>158.0</ele><time>2026-04-18T11:51:29.988Z</time></trkpt><trkpt lat="43.4672539" lon="10.5571495"><ele>158.0</ele><time>2026-04-18T11:51:30.988Z</time></trkpt><trkpt lat="43.4671865" lon="10.5572723"><ele>158.0</ele><time>2026-04-18T11:51:31.988Z</time></trkpt><trkpt lat="43.4671087" lon="10.5573853"><ele>157.20000000000002</ele><time>2026-04-18T11:51:32.988Z</time></trkpt><trkpt lat="43.4670264" lon="10.5574946"><ele>156.4</ele><time>2026-04-18T11:51:33.988Z</time></trkpt><trkpt lat="43.4669377" lon="10.5575912"><ele>155.60000000000002</ele><time>2026-04-18T11:51:34.988Z</time></trkpt><trkpt lat="43.4668392" lon="10.5576594"><ele>154.8</ele><time>2026-04-18T11:51:35.989Z</time></trkpt><trkpt lat="43.4667296" lon="10.5576881"><ele>154.0</ele><time>2026-04-18T11:51:36.988Z</time></trkpt><trkpt lat="43.4666297" lon="10.5577024"><ele>154.0</ele><time>2026-04-18T11:51:37.988Z</time></trkpt><trkpt lat="43.4665406" lon="10.5577272"><ele>154.0</ele><time>2026-04-18T11:51:38.989Z</time></trkpt><trkpt lat="43.4664609" lon="10.5577734"><ele>154.0</ele><time>2026-04-18T11:51:39.988Z</time></trkpt><trkpt lat="43.4663876" lon="10.5578541"><ele>154.0</ele><time>2026-04-18T11:51:40.989Z</time></trkpt><trkpt lat="43.4663318" lon="10.5579584"><ele>154.0</ele><time>2026-04-18T11:51:41.988Z</time></trkpt><trkpt lat="43.4662921" lon="10.5580765"><ele>154.4</ele><time>2026-04-18T11:51:42.988Z</time></trkpt><trkpt lat="43.4662695" lon="10.5582153"><ele>154.8</ele><time>2026-04-18T11:51:43.988Z</time></trkpt><trkpt lat="43.4662623" lon="10.5583678"><ele>155.2</ele><time>2026-04-18T11:51:44.989Z</time></trkpt><trkpt lat="43.4662579" lon="10.5585181"><ele>155.6</ele><time>2026-04-18T11:51:45.988Z</time></trkpt><trkpt lat="43.4662551" lon="10.5586662"><ele>156.0</ele><time>2026-04-18T11:51:46.988Z</time></trkpt><trkpt lat="43.4662589" lon="10.5588041"><ele>160.2</ele><time>2026-04-18T11:51:47.988Z</time></trkpt><trkpt lat="43.4662811" lon="10.558942"><ele>164.39999999999998</ele><time>2026-04-18T11:51:48.988Z</time></trkpt><trkpt lat="43.4663122" lon="10.5590726"><ele>168.6</ele><time>2026-04-18T11:51:49.988Z</time></trkpt><trkpt lat="43.4663653" lon="10.5591862"><ele>172.79999999999998</ele><time>2026-04-18T11:51:50.988Z</time></trkpt><trkpt lat="43.4664318" lon="10.5592829"><ele>177.0</ele><time>2026-04-18T11:51:51.988Z</time></trkpt><trkpt lat="43.4665226" lon="10.5593717"><ele>177.0</ele><time>2026-04-18T11:51:52.988Z</time></trkpt><trkpt lat="43.4666202" lon="10.5594626"><ele>177.0</ele><time>2026-04-18T11:51:53.988Z</time></trkpt><trkpt lat="43.4667131" lon="10.5595425"><ele>177.0</ele><time>2026-04-18T11:51:54.988Z</time></trkpt><trkpt lat="43.4667987" lon="10.5596167"><ele>177.0</ele><time>2026-04-18T11:51:55.988Z</time></trkpt><trkpt lat="43.4668661" lon="10.5596758"><ele>177.0</ele><time>2026-04-18T11:51:56.988Z</time></trkpt><trkpt lat="43.4669213" lon="10.5597405"><ele>176.16666666666666</ele><time>2026-04-18T11:51:57.988Z</time></trkpt><trkpt lat="43.466937" lon="10.5598825"><ele>175.33333333333334</ele><time>2026-04-18T11:51:59.988Z</time></trkpt><trkpt lat="43.4668998" lon="10.5599995"><ele>174.5</ele><time>2026-04-18T11:52:00.988Z</time></trkpt><trkpt lat="43.4668524" lon="10.5600692"><ele>173.66666666666669</ele><time>2026-04-18T11:52:01.988Z</time></trkpt><trkpt lat="43.4667823" lon="10.5601066"><ele>172.83333333333334</ele><time>2026-04-18T11:52:02.988Z</time></trkpt><trkpt lat="43.4667074" lon="10.5601118"><ele>172.0</ele><time>2026-04-18T11:52:03.988Z</time></trkpt><trkpt lat="43.4665795" lon="10.5600329"><ele>172.0</ele><time>2026-04-18T11:52:04.988Z</time></trkpt><trkpt lat="43.4664655" lon="10.5599714"><ele>172.0</ele><time>2026-04-18T11:52:05.988Z</time></trkpt><trkpt lat="43.4663397" lon="10.5599085"><ele>172.0</ele><time>2026-04-18T11:52:06.988Z</time></trkpt><trkpt lat="43.4662221" lon="10.5598466"><ele>172.0</ele><time>2026-04-18T11:52:07.988Z</time></trkpt><trkpt lat="43.466111" lon="10.559777"><ele>172.0</ele><time>2026-04-18T11:52:08.988Z</time></trkpt><trkpt lat="43.4660133" lon="10.5596914"><ele>172.0</ele><time>2026-04-18T11:52:09.988Z</time></trkpt><trkpt lat="43.4659249" lon="10.5595818"><ele>172.0</ele><time>2026-04-18T11:52:10.988Z</time></trkpt><trkpt lat="43.4658551" lon="10.5594709"><ele>172.0</ele><time>2026-04-18T11:52:11.989Z</time></trkpt><trkpt lat="43.4657701" lon="10.5593659"><ele>172.0</ele><time>2026-04-18T11:52:12.988Z</time></trkpt><trkpt lat="43.4657114" lon="10.5592451"><ele>172.0</ele><time>2026-04-18T11:52:13.988Z</time></trkpt><trkpt lat="43.4656421" lon="10.5591267"><ele>172.0</ele><time>2026-04-18T11:52:14.988Z</time></trkpt><trkpt lat="43.4656026" lon="10.5589878"><ele>172.0</ele><time>2026-04-18T11:52:15.988Z</time></trkpt><trkpt lat="43.4655696" lon="10.5588275"><ele>172.0</ele><time>2026-04-18T11:52:16.989Z</time></trkpt><trkpt lat="43.4655245" lon="10.5586887"><ele>172.2</ele><time>2026-04-18T11:52:17.988Z</time></trkpt><trkpt lat="43.4654755" lon="10.5585643"><ele>172.39999999999998</ele><time>2026-04-18T11:52:18.988Z</time></trkpt><trkpt lat="43.4654148" lon="10.5584711"><ele>172.60000000000002</ele><time>2026-04-18T11:52:19.988Z</time></trkpt><trkpt lat="43.4653335" lon="10.5583972"><ele>172.8</ele><time>2026-04-18T11:52:20.988Z</time></trkpt><trkpt lat="43.465236" lon="10.5583651"><ele>173.0</ele><time>2026-04-18T11:52:21.988Z</time></trkpt><trkpt lat="43.4651338" lon="10.55837"><ele>173.0</ele><time>2026-04-18T11:52:22.988Z</time></trkpt><trkpt lat="43.4650223" lon="10.5584073"><ele>173.0</ele><time>2026-04-18T11:52:23.988Z</time></trkpt><trkpt lat="43.4649015" lon="10.5584637"><ele>173.0</ele><time>2026-04-18T11:52:24.988Z</time></trkpt><trkpt lat="43.4647936" lon="10.5585269"><ele>173.0</ele><time>2026-04-18T11:52:25.988Z</time></trkpt><trkpt lat="43.4646928" lon="10.5585971"><ele>174.4</ele><time>2026-04-18T11:52:26.988Z</time></trkpt><trkpt lat="43.4645928" lon="10.5586286"><ele>175.8</ele><time>2026-04-18T11:52:27.988Z</time></trkpt><trkpt lat="43.4644962" lon="10.5586199"><ele>177.2</ele><time>2026-04-18T11:52:28.988Z</time></trkpt><trkpt lat="43.4643945" lon="10.5585448"><ele>178.6</ele><time>2026-04-18T11:52:29.988Z</time></trkpt><trkpt lat="43.4642957" lon="10.5584417"><ele>180.0</ele><time>2026-04-18T11:52:30.988Z</time></trkpt><trkpt lat="43.4641993" lon="10.5583328"><ele>180.0</ele><time>2026-04-18T11:52:31.988Z</time></trkpt><trkpt lat="43.4640859" lon="10.5582596"><ele>180.0</ele><time>2026-04-18T11:52:32.988Z</time></trkpt><trkpt lat="43.4639775" lon="10.5581905"><ele>180.0</ele><time>2026-04-18T11:52:33.988Z</time></trkpt><trkpt lat="43.4638657" lon="10.5581239"><ele>180.0</ele><time>2026-04-18T11:52:34.988Z</time></trkpt><trkpt lat="43.4637535" lon="10.5580725"><ele>180.0</ele><time>2026-04-18T11:52:35.988Z</time></trkpt><trkpt lat="43.4636441" lon="10.558033"><ele>180.0</ele><time>2026-04-18T11:52:36.988Z</time></trkpt><trkpt lat="43.4635368" lon="10.558021"><ele>180.0</ele><time>2026-04-18T11:52:37.988Z</time></trkpt><trkpt lat="43.4634385" lon="10.5580334"><ele>180.0</ele><time>2026-04-18T11:52:38.988Z</time></trkpt><trkpt lat="43.4633395" lon="10.5580769"><ele>180.0</ele><time>2026-04-18T11:52:39.989Z</time></trkpt><trkpt lat="43.4632654" lon="10.5581679"><ele>180.0</ele><time>2026-04-18T11:52:40.988Z</time></trkpt><trkpt lat="43.463212" lon="10.5582959"><ele>180.0</ele><time>2026-04-18T11:52:41.988Z</time></trkpt><trkpt lat="43.4631747" lon="10.5584556"><ele>180.0</ele><time>2026-04-18T11:52:42.988Z</time></trkpt><trkpt lat="43.4631415" lon="10.5586191"><ele>180.0</ele><time>2026-04-18T11:52:43.988Z</time></trkpt><trkpt lat="43.4630948" lon="10.5587811"><ele>180.0</ele><time>2026-04-18T11:52:44.988Z</time></trkpt><trkpt lat="43.4630239" lon="10.5589276"><ele>180.0</ele><time>2026-04-18T11:52:45.988Z</time></trkpt><trkpt lat="43.4629128" lon="10.5590749"><ele>180.0</ele><time>2026-04-18T11:52:46.988Z</time></trkpt><trkpt lat="43.462794" lon="10.5592127"><ele>180.0</ele><time>2026-04-18T11:52:47.988Z</time></trkpt><trkpt lat="43.4626829" lon="10.5593491"><ele>180.0</ele><time>2026-04-18T11:52:48.988Z</time></trkpt><trkpt lat="43.462574" lon="10.5595232"><ele>180.0</ele><time>2026-04-18T11:52:49.988Z</time></trkpt><trkpt lat="43.4624667" lon="10.5597252"><ele>180.0</ele><time>2026-04-18T11:52:50.988Z</time></trkpt><trkpt lat="43.462375" lon="10.55991"><ele>183.0</ele><time>2026-04-18T11:52:51.988Z</time></trkpt><trkpt lat="43.4622949" lon="10.5600828"><ele>186.0</ele><time>2026-04-18T11:52:52.988Z</time></trkpt><trkpt lat="43.4622134" lon="10.5602299"><ele>189.0</ele><time>2026-04-18T11:52:53.988Z</time></trkpt><trkpt lat="43.4621268" lon="10.5603654"><ele>192.0</ele><time>2026-04-18T11:52:54.988Z</time></trkpt><trkpt lat="43.4620262" lon="10.5604631"><ele>192.0</ele><time>2026-04-18T11:52:55.988Z</time></trkpt><trkpt lat="43.46191" lon="10.5605475"><ele>192.0</ele><time>2026-04-18T11:52:56.988Z</time></trkpt><trkpt lat="43.4618007" lon="10.5606331"><ele>192.0</ele><time>2026-04-18T11:52:57.989Z</time></trkpt><trkpt lat="43.4617138" lon="10.5607235"><ele>192.0</ele><time>2026-04-18T11:52:58.988Z</time></trkpt><trkpt lat="43.4616469" lon="10.560842"><ele>192.0</ele><time>2026-04-18T11:52:59.988Z</time></trkpt><trkpt lat="43.4616022" lon="10.5609775"><ele>192.0</ele><time>2026-04-18T11:53:00.988Z</time></trkpt><trkpt lat="43.4615843" lon="10.561121"><ele>192.0</ele><time>2026-04-18T11:53:01.988Z</time></trkpt><trkpt lat="43.4615903" lon="10.5612771"><ele>192.0</ele><time>2026-04-18T11:53:02.988Z</time></trkpt><trkpt lat="43.4616238" lon="10.5614412"><ele>194.0</ele><time>2026-04-18T11:53:03.988Z</time></trkpt><trkpt lat="43.4616659" lon="10.5615839"><ele>196.0</ele><time>2026-04-18T11:53:04.988Z</time></trkpt><trkpt lat="43.461702" lon="10.5617231"><ele>198.0</ele><time>2026-04-18T11:53:05.988Z</time></trkpt><trkpt lat="43.4617355" lon="10.5618465"><ele>200.0</ele><time>2026-04-18T11:53:06.988Z</time></trkpt><trkpt lat="43.4617597" lon="10.5619566"><ele>202.0</ele><time>2026-04-18T11:53:07.988Z</time></trkpt><trkpt lat="43.461771" lon="10.5620615"><ele>203.49999999999997</ele><time>2026-04-18T11:53:08.988Z</time></trkpt><trkpt lat="43.4616891" lon="10.5621233"><ele>205.0</ele><time>2026-04-18T11:53:09.988Z</time></trkpt><trkpt lat="43.4616253" lon="10.5621456"><ele>206.5</ele><time>2026-04-18T11:53:10.988Z</time></trkpt><trkpt lat="43.461555" lon="10.5621253"><ele>208.0</ele><time>2026-04-18T11:53:11.988Z</time></trkpt><trkpt lat="43.4614853" lon="10.5620846"><ele>209.49999999999997</ele><time>2026-04-18T11:53:12.988Z</time></trkpt><trkpt lat="43.4613963" lon="10.5620583"><ele>211.0</ele><time>2026-04-18T11:53:13.988Z</time></trkpt><trkpt lat="43.461308" lon="10.5620682"><ele>210.20000000000002</ele><time>2026-04-18T11:53:14.988Z</time></trkpt><trkpt lat="43.4612111" lon="10.5621157"><ele>209.4</ele><time>2026-04-18T11:53:15.988Z</time></trkpt><trkpt lat="43.46112" lon="10.5621893"><ele>208.6</ele><time>2026-04-18T11:53:16.988Z</time></trkpt><trkpt lat="43.4610331" lon="10.5622508"><ele>207.8</ele><time>2026-04-18T11:53:17.988Z</time></trkpt><trkpt lat="43.4609418" lon="10.5623204"><ele>207.0</ele><time>2026-04-18T11:53:18.988Z</time></trkpt><trkpt lat="43.4608517" lon="10.562383"><ele>207.0</ele><time>2026-04-18T11:53:19.988Z</time></trkpt><trkpt lat="43.4607677" lon="10.5624534"><ele>207.0</ele><time>2026-04-18T11:53:20.988Z</time></trkpt><trkpt lat="43.4606854" lon="10.5625171"><ele>207.0</ele><time>2026-04-18T11:53:21.988Z</time></trkpt><trkpt lat="43.4605907" lon="10.562558"><ele>207.0</ele><time>2026-04-18T11:53:22.988Z</time></trkpt><trkpt lat="43.4605137" lon="10.5625884"><ele>207.0</ele><time>2026-04-18T11:53:23.988Z</time></trkpt><trkpt lat="43.4604361" lon="10.562626"><ele>207.0</ele><time>2026-04-18T11:53:24.988Z</time></trkpt><trkpt lat="43.4603614" lon="10.5626568"><ele>207.0</ele><time>2026-04-18T11:53:25.988Z</time></trkpt><trkpt lat="43.460293" lon="10.5627103"><ele>207.0</ele><time>2026-04-18T11:53:26.988Z</time></trkpt><trkpt lat="43.4602258" lon="10.5627527"><ele>207.0</ele><time>2026-04-18T11:53:27.988Z</time></trkpt><trkpt lat="43.4601327" lon="10.5628511"><ele>207.0</ele><time>2026-04-18T11:53:29.988Z</time></trkpt><trkpt lat="43.4600865" lon="10.5629162"><ele>207.0</ele><time>2026-04-18T11:53:31.988Z</time></trkpt><trkpt lat="43.4601238" lon="10.5630564"><ele>208.0</ele><time>2026-04-18T11:53:33.988Z</time></trkpt><trkpt lat="43.4601215" lon="10.5632386"><ele>209.0</ele><time>2026-04-18T11:53:35.989Z</time></trkpt><trkpt lat="43.4601313" lon="10.563329"><ele>210.0</ele><time>2026-04-18T11:53:36.988Z</time></trkpt><trkpt lat="43.4601642" lon="10.5634565"><ele>211.0</ele><time>2026-04-18T11:53:38.988Z</time></trkpt><trkpt lat="43.4601876" lon="10.5635731"><ele>212.0</ele><time>2026-04-18T11:53:40.988Z</time></trkpt><trkpt lat="43.4601907" lon="10.5637054"><ele>212.33333333333334</ele><time>2026-04-18T11:53:43.988Z</time></trkpt><trkpt lat="43.4601411" lon="10.5638491"><ele>212.66666666666669</ele><time>2026-04-18T11:53:45.988Z</time></trkpt><trkpt lat="43.4601089" lon="10.5639268"><ele>213.0</ele><time>2026-04-18T11:53:46.988Z</time></trkpt><trkpt lat="43.4600857" lon="10.5640215"><ele>213.33333333333331</ele><time>2026-04-18T11:53:47.988Z</time></trkpt><trkpt lat="43.4600667" lon="10.5641122"><ele>213.66666666666666</ele><time>2026-04-18T11:53:48.988Z</time></trkpt><trkpt lat="43.4600568" lon="10.564215"><ele>214.0</ele><time>2026-04-18T11:53:49.989Z</time></trkpt><trkpt lat="43.4600622" lon="10.5643114"><ele>213.99999999999997</ele><time>2026-04-18T11:53:50.989Z</time></trkpt><trkpt lat="43.4600672" lon="10.5644137"><ele>214.0</ele><time>2026-04-18T11:53:51.989Z</time></trkpt><trkpt lat="43.4600674" lon="10.5645067"><ele>214.0</ele><time>2026-04-18T11:53:52.988Z</time></trkpt><trkpt lat="43.4600571" lon="10.564605"><ele>214.0</ele><time>2026-04-18T11:53:53.988Z</time></trkpt><trkpt lat="43.4600371" lon="10.5647662"><ele>213.99999999999997</ele><time>2026-04-18T11:53:55.988Z</time></trkpt><trkpt lat="43.4600155" lon="10.5648483"><ele>214.0</ele><time>2026-04-18T11:53:56.989Z</time></trkpt><trkpt lat="43.459976" lon="10.5649217"><ele>214.2</ele><time>2026-04-18T11:53:57.988Z</time></trkpt><trkpt lat="43.4599329" lon="10.5649918"><ele>214.39999999999998</ele><time>2026-04-18T11:53:58.989Z</time></trkpt><trkpt lat="43.4598528" lon="10.5651085"><ele>214.6</ele><time>2026-04-18T11:54:00.989Z</time></trkpt><trkpt lat="43.4597971" lon="10.5652619"><ele>214.8</ele><time>2026-04-18T11:54:02.988Z</time></trkpt><trkpt lat="43.4597715" lon="10.5653777"><ele>215.0</ele><time>2026-04-18T11:54:03.988Z</time></trkpt><trkpt lat="43.4597251" lon="10.5655035"><ele>215.8</ele><time>2026-04-18T11:54:04.988Z</time></trkpt><trkpt lat="43.4596712" lon="10.5656112"><ele>216.6</ele><time>2026-04-18T11:54:05.989Z</time></trkpt><trkpt lat="43.4596212" lon="10.5657186"><ele>217.39999999999998</ele><time>2026-04-18T11:54:06.988Z</time></trkpt><trkpt lat="43.4595699" lon="10.5658262"><ele>218.2</ele><time>2026-04-18T11:54:07.988Z</time></trkpt><trkpt lat="43.4595214" lon="10.5659445"><ele>219.0</ele><time>2026-04-18T11:54:08.988Z</time></trkpt><trkpt lat="43.4594664" lon="10.5660586"><ele>217.39999999999998</ele><time>2026-04-18T11:54:09.988Z</time></trkpt><trkpt lat="43.4594125" lon="10.5661634"><ele>215.79999999999998</ele><time>2026-04-18T11:54:10.988Z</time></trkpt><trkpt lat="43.459356" lon="10.566274"><ele>214.2</ele><time>2026-04-18T11:54:11.988Z</time></trkpt><trkpt lat="43.4592903" lon="10.566394"><ele>212.60000000000002</ele><time>2026-04-18T11:54:12.988Z</time></trkpt><trkpt lat="43.4592214" lon="10.5665041"><ele>211.0</ele><time>2026-04-18T11:54:13.988Z</time></trkpt><trkpt lat="43.459159" lon="10.5666174"><ele>211.0</ele><time>2026-04-18T11:54:14.988Z</time></trkpt><trkpt lat="43.4590947" lon="10.5667301"><ele>211.0</ele><time>2026-04-18T11:54:15.988Z</time></trkpt><trkpt lat="43.4590349" lon="10.5668496"><ele>211.0</ele><time>2026-04-18T11:54:16.988Z</time></trkpt><trkpt lat="43.4589732" lon="10.5669636"><ele>211.0</ele><time>2026-04-18T11:54:17.988Z</time></trkpt><trkpt lat="43.4589041" lon="10.5670774"><ele>211.0</ele><time>2026-04-18T11:54:18.988Z</time></trkpt><trkpt lat="43.4588338" lon="10.567199"><ele>211.4</ele><time>2026-04-18T11:54:19.988Z</time></trkpt><trkpt lat="43.4587651" lon="10.5673128"><ele>211.8</ele><time>2026-04-18T11:54:20.988Z</time></trkpt><trkpt lat="43.4587038" lon="10.5674205"><ele>212.20000000000002</ele><time>2026-04-18T11:54:21.988Z</time></trkpt><trkpt lat="43.4586459" lon="10.5675225"><ele>212.60000000000002</ele><time>2026-04-18T11:54:22.988Z</time></trkpt><trkpt lat="43.4585869" lon="10.5676184"><ele>213.0</ele><time>2026-04-18T11:54:23.988Z</time></trkpt><trkpt lat="43.458513" lon="10.5676884"><ele>213.0</ele><time>2026-04-18T11:54:24.988Z</time></trkpt><trkpt lat="43.4584219" lon="10.5677246"><ele>213.0</ele><time>2026-04-18T11:54:25.988Z</time></trkpt><trkpt lat="43.4583291" lon="10.5677283"><ele>213.0</ele><time>2026-04-18T11:54:26.988Z</time></trkpt><trkpt lat="43.4582363" lon="10.5677021"><ele>213.0</ele><time>2026-04-18T11:54:27.988Z</time></trkpt><trkpt lat="43.4581391" lon="10.5676378"><ele>213.0</ele><time>2026-04-18T11:54:28.988Z</time></trkpt><trkpt lat="43.458063" lon="10.5675428"><ele>213.0</ele><time>2026-04-18T11:54:29.988Z</time></trkpt><trkpt lat="43.4579937" lon="10.5674561"><ele>213.0</ele><time>2026-04-18T11:54:30.988Z</time></trkpt><trkpt lat="43.4579308" lon="10.5673872"><ele>213.0</ele><time>2026-04-18T11:54:31.988Z</time></trkpt><trkpt lat="43.4578686" lon="10.5673352"><ele>213.0</ele><time>2026-04-18T11:54:32.988Z</time></trkpt><trkpt lat="43.4577923" lon="10.5673172"><ele>213.0</ele><time>2026-04-18T11:54:33.988Z</time></trkpt><trkpt lat="43.4577122" lon="10.5673331"><ele>213.0</ele><time>2026-04-18T11:54:34.988Z</time></trkpt><trkpt lat="43.4576443" lon="10.567388"><ele>212.5</ele><time>2026-04-18T11:54:35.988Z</time></trkpt><trkpt lat="43.4575924" lon="10.5674869"><ele>212.0</ele><time>2026-04-18T11:54:36.988Z</time></trkpt><trkpt lat="43.4575623" lon="10.5675882"><ele>211.5</ele><time>2026-04-18T11:54:37.989Z</time></trkpt><trkpt lat="43.4575277" lon="10.5676758"><ele>211.0</ele><time>2026-04-18T11:54:38.989Z</time></trkpt><trkpt lat="43.457475" lon="10.5677311"><ele>210.5</ele><time>2026-04-18T11:54:39.988Z</time></trkpt><trkpt lat="43.4573964" lon="10.5677576"><ele>210.0</ele><time>2026-04-18T11:54:40.988Z</time></trkpt><trkpt lat="43.457312" lon="10.5677327"><ele>210.0</ele><time>2026-04-18T11:54:41.988Z</time></trkpt><trkpt lat="43.4572434" lon="10.5676657"><ele>210.0</ele><time>2026-04-18T11:54:42.988Z</time></trkpt><trkpt lat="43.4571679" lon="10.5675549"><ele>210.0</ele><time>2026-04-18T11:54:43.988Z</time></trkpt><trkpt lat="43.4571016" lon="10.5674347"><ele>210.0</ele><time>2026-04-18T11:54:44.988Z</time></trkpt><trkpt lat="43.4570338" lon="10.5673203"><ele>210.0</ele><time>2026-04-18T11:54:45.989Z</time></trkpt><trkpt lat="43.4569521" lon="10.5672028"><ele>209.0</ele><time>2026-04-18T11:54:46.989Z</time></trkpt><trkpt lat="43.4568632" lon="10.5671166"><ele>208.0</ele><time>2026-04-18T11:54:47.988Z</time></trkpt><trkpt lat="43.4567645" lon="10.5670458"><ele>207.0</ele><time>2026-04-18T11:54:48.988Z</time></trkpt><trkpt lat="43.4566612" lon="10.5670004"><ele>206.0</ele><time>2026-04-18T11:54:49.988Z</time></trkpt><trkpt lat="43.4565576" lon="10.5669633"><ele>205.0</ele><time>2026-04-18T11:54:50.988Z</time></trkpt><trkpt lat="43.4564589" lon="10.5669333"><ele>205.0</ele><time>2026-04-18T11:54:51.988Z</time></trkpt><trkpt lat="43.4563607" lon="10.566903"><ele>205.0</ele><time>2026-04-18T11:54:52.989Z</time></trkpt><trkpt lat="43.4562621" lon="10.5668586"><ele>205.0</ele><time>2026-04-18T11:54:53.988Z</time></trkpt><trkpt lat="43.456166" lon="10.5667887"><ele>205.0</ele><time>2026-04-18T11:54:54.988Z</time></trkpt><trkpt lat="43.4560812" lon="10.5666681"><ele>205.0</ele><time>2026-04-18T11:54:55.988Z</time></trkpt><trkpt lat="43.4559938" lon="10.5665559"><ele>206.75</ele><time>2026-04-18T11:54:56.988Z</time></trkpt><trkpt lat="43.4559059" lon="10.5664453"><ele>208.5</ele><time>2026-04-18T11:54:57.988Z</time></trkpt><trkpt lat="43.4558075" lon="10.5663666"><ele>210.25</ele><time>2026-04-18T11:54:58.988Z</time></trkpt><trkpt lat="43.4556892" lon="10.5663164"><ele>212.0</ele><time>2026-04-18T11:54:59.988Z</time></trkpt><trkpt lat="43.4555513" lon="10.5662784"><ele>214.0</ele><time>2026-04-18T11:55:00.988Z</time></trkpt><trkpt lat="43.4554127" lon="10.5662444"><ele>216.0</ele><time>2026-04-18T11:55:01.988Z</time></trkpt><trkpt lat="43.4552754" lon="10.5662065"><ele>218.0</ele><time>2026-04-18T11:55:02.989Z</time></trkpt><trkpt lat="43.4551383" lon="10.5661737"><ele>220.0</ele><time>2026-04-18T11:55:03.988Z</time></trkpt><trkpt lat="43.4550061" lon="10.566142"><ele>217.75</ele><time>2026-04-18T11:55:04.988Z</time></trkpt><trkpt lat="43.4548747" lon="10.566097"><ele>215.5</ele><time>2026-04-18T11:55:05.988Z</time></trkpt><trkpt lat="43.4547601" lon="10.5660286"><ele>213.25</ele><time>2026-04-18T11:55:06.988Z</time></trkpt><trkpt lat="43.4546583" lon="10.5659414"><ele>211.0</ele><time>2026-04-18T11:55:07.988Z</time></trkpt><trkpt lat="43.4545733" lon="10.5658155"><ele>211.0</ele><time>2026-04-18T11:55:08.989Z</time></trkpt><trkpt lat="43.4544901" lon="10.5657023"><ele>211.0</ele><time>2026-04-18T11:55:09.988Z</time></trkpt><trkpt lat="43.4543878" lon="10.565614"><ele>211.0</ele><time>2026-04-18T11:55:10.988Z</time></trkpt><trkpt lat="43.454283" lon="10.5655527"><ele>211.0</ele><time>2026-04-18T11:55:11.988Z</time></trkpt><trkpt lat="43.4541714" lon="10.5655039"><ele>211.0</ele><time>2026-04-18T11:55:12.988Z</time></trkpt><trkpt lat="43.4540486" lon="10.5654775"><ele>211.0</ele><time>2026-04-18T11:55:13.988Z</time></trkpt><trkpt lat="43.4539238" lon="10.5654614"><ele>211.0</ele><time>2026-04-18T11:55:14.988Z</time></trkpt><trkpt lat="43.4538001" lon="10.5654752"><ele>211.0</ele><time>2026-04-18T11:55:15.988Z</time></trkpt><trkpt lat="43.4536826" lon="10.5654906"><ele>209.20000000000002</ele><time>2026-04-18T11:55:16.988Z</time></trkpt><trkpt lat="43.4535689" lon="10.565508"><ele>207.4</ele><time>2026-04-18T11:55:17.988Z</time></trkpt><trkpt lat="43.4534682" lon="10.5655324"><ele>205.6</ele><time>2026-04-18T11:55:18.988Z</time></trkpt><trkpt lat="43.4533753" lon="10.5655738"><ele>203.8</ele><time>2026-04-18T11:55:19.988Z</time></trkpt><trkpt lat="43.4532815" lon="10.5656272"><ele>202.0</ele><time>2026-04-18T11:55:20.989Z</time></trkpt><trkpt lat="43.4532249" lon="10.5657133"><ele>202.0</ele><time>2026-04-18T11:55:21.988Z</time></trkpt><trkpt lat="43.4531823" lon="10.5658297"><ele>202.0</ele><time>2026-04-18T11:55:22.988Z</time></trkpt><trkpt lat="43.4531361" lon="10.565971"><ele>202.0</ele><time>2026-04-18T11:55:23.989Z</time></trkpt><trkpt lat="43.4530836" lon="10.5661133"><ele>202.0</ele><time>2026-04-18T11:55:24.988Z</time></trkpt><trkpt lat="43.4530362" lon="10.566263"><ele>202.0</ele><time>2026-04-18T11:55:25.988Z</time></trkpt><trkpt lat="43.452979" lon="10.5664"><ele>201.8</ele><time>2026-04-18T11:55:26.988Z</time></trkpt><trkpt lat="43.4529255" lon="10.5665319"><ele>201.6</ele><time>2026-04-18T11:55:27.988Z</time></trkpt><trkpt lat="43.4528719" lon="10.5666612"><ele>201.4</ele><time>2026-04-18T11:55:28.988Z</time></trkpt><trkpt lat="43.4528205" lon="10.566788"><ele>201.20000000000002</ele><time>2026-04-18T11:55:29.989Z</time></trkpt><trkpt lat="43.4527737" lon="10.5669145"><ele>201.0</ele><time>2026-04-18T11:55:30.988Z</time></trkpt><trkpt lat="43.4527217" lon="10.5670342"><ele>202.33333333333334</ele><time>2026-04-18T11:55:31.988Z</time></trkpt><trkpt lat="43.4526683" lon="10.5671335"><ele>203.66666666666669</ele><time>2026-04-18T11:55:32.988Z</time></trkpt><trkpt lat="43.4526092" lon="10.5672056"><ele>205.0</ele><time>2026-04-18T11:55:33.988Z</time></trkpt><trkpt lat="43.4525442" lon="10.5672546"><ele>206.33333333333334</ele><time>2026-04-18T11:55:34.988Z</time></trkpt><trkpt lat="43.4524767" lon="10.5672425"><ele>207.66666666666669</ele><time>2026-04-18T11:55:35.988Z</time></trkpt><trkpt lat="43.4524131" lon="10.5671932"><ele>209.0</ele><time>2026-04-18T11:55:36.988Z</time></trkpt><trkpt lat="43.4523871" lon="10.5670953"><ele>207.39999999999998</ele><time>2026-04-18T11:55:37.988Z</time></trkpt><trkpt lat="43.4523787" lon="10.5669675"><ele>205.8</ele><time>2026-04-18T11:55:38.988Z</time></trkpt><trkpt lat="43.4523814" lon="10.5668203"><ele>204.2</ele><time>2026-04-18T11:55:39.988Z</time></trkpt><trkpt lat="43.4523869" lon="10.5666624"><ele>202.60000000000002</ele><time>2026-04-18T11:55:40.989Z</time></trkpt><trkpt lat="43.4524048" lon="10.566515"><ele>201.0</ele><time>2026-04-18T11:55:41.988Z</time></trkpt><trkpt lat="43.4524197" lon="10.5663828"><ele>201.0</ele><time>2026-04-18T11:55:42.988Z</time></trkpt><trkpt lat="43.4524248" lon="10.5662422"><ele>201.0</ele><time>2026-04-18T11:55:43.988Z</time></trkpt><trkpt lat="43.4524058" lon="10.5661211"><ele>201.0</ele><time>2026-04-18T11:55:44.988Z</time></trkpt><trkpt lat="43.4523541" lon="10.5660194"><ele>201.0</ele><time>2026-04-18T11:55:45.988Z</time></trkpt><trkpt lat="43.452276" lon="10.5659386"><ele>201.0</ele><time>2026-04-18T11:55:46.988Z</time></trkpt><trkpt lat="43.4521774" lon="10.5658899"><ele>201.20000000000002</ele><time>2026-04-18T11:55:47.989Z</time></trkpt><trkpt lat="43.4520548" lon="10.5658895"><ele>201.4</ele><time>2026-04-18T11:55:48.988Z</time></trkpt><trkpt lat="43.4519464" lon="10.5659018"><ele>201.6</ele><time>2026-04-18T11:55:49.989Z</time></trkpt><trkpt lat="43.4518453" lon="10.5658879"><ele>201.8</ele><time>2026-04-18T11:55:50.988Z</time></trkpt><trkpt lat="43.4517511" lon="10.5658383"><ele>202.0</ele><time>2026-04-18T11:55:51.988Z</time></trkpt><trkpt lat="43.4516784" lon="10.565751"><ele>202.0</ele><time>2026-04-18T11:55:52.988Z</time></trkpt><trkpt lat="43.4516331" lon="10.5656256"><ele>202.0</ele><time>2026-04-18T11:55:53.988Z</time></trkpt><trkpt lat="43.4516091" lon="10.5654792"><ele>202.0</ele><time>2026-04-18T11:55:54.988Z</time></trkpt><trkpt lat="43.4516097" lon="10.5653219"><ele>202.0</ele><time>2026-04-18T11:55:55.989Z</time></trkpt><trkpt lat="43.4516461" lon="10.5651504"><ele>200.5</ele><time>2026-04-18T11:55:56.988Z</time></trkpt><trkpt lat="43.4517026" lon="10.5649887"><ele>199.0</ele><time>2026-04-18T11:55:57.988Z</time></trkpt><trkpt lat="43.451759" lon="10.5648237"><ele>197.5</ele><time>2026-04-18T11:55:58.988Z</time></trkpt><trkpt lat="43.4518098" lon="10.5646595"><ele>196.0</ele><time>2026-04-18T11:55:59.988Z</time></trkpt><trkpt lat="43.4518483" lon="10.5644948"><ele>194.75</ele><time>2026-04-18T11:56:00.988Z</time></trkpt><trkpt lat="43.451865" lon="10.5643198"><ele>193.5</ele><time>2026-04-18T11:56:01.988Z</time></trkpt><trkpt lat="43.4518572" lon="10.5641563"><ele>192.25</ele><time>2026-04-18T11:56:02.988Z</time></trkpt><trkpt lat="43.4518367" lon="10.5640053"><ele>191.0</ele><time>2026-04-18T11:56:03.988Z</time></trkpt><trkpt lat="43.4517969" lon="10.5638718"><ele>191.0</ele><time>2026-04-18T11:56:04.988Z</time></trkpt><trkpt lat="43.4517405" lon="10.5637738"><ele>191.0</ele><time>2026-04-18T11:56:05.988Z</time></trkpt><trkpt lat="43.4516559" lon="10.5637134"><ele>191.0</ele><time>2026-04-18T11:56:06.988Z</time></trkpt><trkpt lat="43.4515613" lon="10.563713"><ele>191.0</ele><time>2026-04-18T11:56:07.988Z</time></trkpt><trkpt lat="43.4514594" lon="10.5637634"><ele>191.0</ele><time>2026-04-18T11:56:08.988Z</time></trkpt><trkpt lat="43.4513603" lon="10.5638472"><ele>190.0</ele><time>2026-04-18T11:56:09.988Z</time></trkpt><trkpt lat="43.4512574" lon="10.5639523"><ele>189.0</ele><time>2026-04-18T11:56:10.989Z</time></trkpt><trkpt lat="43.4511485" lon="10.5640605"><ele>188.0</ele><time>2026-04-18T11:56:11.988Z</time></trkpt><trkpt lat="43.451045" lon="10.5641828"><ele>187.0</ele><time>2026-04-18T11:56:12.988Z</time></trkpt><trkpt lat="43.4509403" lon="10.5642918"><ele>187.0</ele><time>2026-04-18T11:56:13.988Z</time></trkpt><trkpt lat="43.4508371" lon="10.5644063"><ele>187.0</ele><time>2026-04-18T11:56:14.988Z</time></trkpt><trkpt lat="43.4507338" lon="10.5645114"><ele>187.0</ele><time>2026-04-18T11:56:15.989Z</time></trkpt><trkpt lat="43.4506286" lon="10.5646251"><ele>187.0</ele><time>2026-04-18T11:56:16.988Z</time></trkpt><trkpt lat="43.4505323" lon="10.5647317"><ele>187.5</ele><time>2026-04-18T11:56:17.988Z</time></trkpt><trkpt lat="43.4504248" lon="10.5648328"><ele>188.0</ele><time>2026-04-18T11:56:18.988Z</time></trkpt><trkpt lat="43.4503" lon="10.5649266"><ele>188.5</ele><time>2026-04-18T11:56:19.988Z</time></trkpt><trkpt lat="43.4501699" lon="10.565002"><ele>189.0</ele><time>2026-04-18T11:56:20.988Z</time></trkpt><trkpt lat="43.4500361" lon="10.5650727"><ele>189.0</ele><time>2026-04-18T11:56:21.988Z</time></trkpt><trkpt lat="43.4499117" lon="10.5651319"><ele>189.0</ele><time>2026-04-18T11:56:22.988Z</time></trkpt><trkpt lat="43.4497919" lon="10.5651911"><ele>189.0</ele><time>2026-04-18T11:56:23.988Z</time></trkpt><trkpt lat="43.4496723" lon="10.5652325"><ele>189.0</ele><time>2026-04-18T11:56:24.988Z</time></trkpt><trkpt lat="43.449559" lon="10.5652657"><ele>188.0</ele><time>2026-04-18T11:56:25.988Z</time></trkpt><trkpt lat="43.4494537" lon="10.5653224"><ele>187.0</ele><time>2026-04-18T11:56:26.988Z</time></trkpt><trkpt lat="43.4493623" lon="10.565409"><ele>186.0</ele><time>2026-04-18T11:56:27.988Z</time></trkpt><trkpt lat="43.4492725" lon="10.5655041"><ele>185.0</ele><time>2026-04-18T11:56:28.988Z</time></trkpt><trkpt lat="43.4491726" lon="10.5655745"><ele>184.0</ele><time>2026-04-18T11:56:29.988Z</time></trkpt><trkpt lat="43.4490649" lon="10.5656333"><ele>186.79999999999998</ele><time>2026-04-18T11:56:30.988Z</time></trkpt><trkpt lat="43.4489586" lon="10.5656632"><ele>189.6</ele><time>2026-04-18T11:56:31.988Z</time></trkpt><trkpt lat="43.4488558" lon="10.5656602"><ele>192.4</ele><time>2026-04-18T11:56:32.988Z</time></trkpt><trkpt lat="43.4487504" lon="10.5656082"><ele>195.2</ele><time>2026-04-18T11:56:33.988Z</time></trkpt><trkpt lat="43.448648" lon="10.5655292"><ele>198.0</ele><time>2026-04-18T11:56:34.988Z</time></trkpt><trkpt lat="43.4485623" lon="10.5654132"><ele>196.0</ele><time>2026-04-18T11:56:35.989Z</time></trkpt><trkpt lat="43.4484825" lon="10.5652754"><ele>194.0</ele><time>2026-04-18T11:56:36.988Z</time></trkpt><trkpt lat="43.448407" lon="10.5651366"><ele>192.0</ele><time>2026-04-18T11:56:37.988Z</time></trkpt><trkpt lat="43.4483342" lon="10.5649999"><ele>190.0</ele><time>2026-04-18T11:56:38.988Z</time></trkpt><trkpt lat="43.4482642" lon="10.5648749"><ele>190.0</ele><time>2026-04-18T11:56:39.988Z</time></trkpt><trkpt lat="43.4481967" lon="10.5647903"><ele>190.0</ele><time>2026-04-18T11:56:40.988Z</time></trkpt><trkpt lat="43.4481105" lon="10.5647488"><ele>190.0</ele><time>2026-04-18T11:56:41.988Z</time></trkpt><trkpt lat="43.4480259" lon="10.564745"><ele>190.0</ele><time>2026-04-18T11:56:42.988Z</time></trkpt><trkpt lat="43.44795" lon="10.564792"><ele>190.0</ele><time>2026-04-18T11:56:43.989Z</time></trkpt><trkpt lat="43.4478724" lon="10.5648808"><ele>189.25</ele><time>2026-04-18T11:56:44.989Z</time></trkpt><trkpt lat="43.4478078" lon="10.5650008"><ele>188.5</ele><time>2026-04-18T11:56:45.988Z</time></trkpt><trkpt lat="43.4477406" lon="10.5651299"><ele>187.75</ele><time>2026-04-18T11:56:46.988Z</time></trkpt><trkpt lat="43.4476975" lon="10.5652715"><ele>187.0</ele><time>2026-04-18T11:56:47.988Z</time></trkpt><trkpt lat="43.4476739" lon="10.5654278"><ele>187.0</ele><time>2026-04-18T11:56:48.988Z</time></trkpt><trkpt lat="43.4476684" lon="10.5655871"><ele>187.0</ele><time>2026-04-18T11:56:49.988Z</time></trkpt><trkpt lat="43.447652" lon="10.5657433"><ele>187.0</ele><time>2026-04-18T11:56:50.988Z</time></trkpt><trkpt lat="43.4476149" lon="10.5658908"><ele>187.0</ele><time>2026-04-18T11:56:51.988Z</time></trkpt><trkpt lat="43.4475511" lon="10.5660398"><ele>187.0</ele><time>2026-04-18T11:56:52.988Z</time></trkpt><trkpt lat="43.4474647" lon="10.5661634"><ele>187.0</ele><time>2026-04-18T11:56:53.988Z</time></trkpt><trkpt lat="43.4473763" lon="10.5662843"><ele>187.0</ele><time>2026-04-18T11:56:54.988Z</time></trkpt><trkpt lat="43.4472831" lon="10.5664056"><ele>187.0</ele><time>2026-04-18T11:56:55.988Z</time></trkpt><trkpt lat="43.4471936" lon="10.5665177"><ele>186.5</ele><time>2026-04-18T11:56:56.988Z</time></trkpt><trkpt lat="43.4471114" lon="10.5666309"><ele>186.0</ele><time>2026-04-18T11:56:57.988Z</time></trkpt><trkpt lat="43.4470496" lon="10.5667552"><ele>185.5</ele><time>2026-04-18T11:56:58.988Z</time></trkpt><trkpt lat="43.447018" lon="10.5669044"><ele>185.0</ele><time>2026-04-18T11:56:59.988Z</time></trkpt><trkpt lat="43.4470075" lon="10.5670666"><ele>185.0</ele><time>2026-04-18T11:57:00.988Z</time></trkpt><trkpt lat="43.4470225" lon="10.5672356"><ele>185.0</ele><time>2026-04-18T11:57:01.988Z</time></trkpt><trkpt lat="43.4470422" lon="10.5674035"><ele>185.0</ele><time>2026-04-18T11:57:02.988Z</time></trkpt><trkpt lat="43.4471101" lon="10.5675429"><ele>185.0</ele><time>2026-04-18T11:57:03.988Z</time></trkpt><trkpt lat="43.4471665" lon="10.5676765"><ele>185.33333333333331</ele><time>2026-04-18T11:57:04.988Z</time></trkpt><trkpt lat="43.4472136" lon="10.5677883"><ele>185.66666666666666</ele><time>2026-04-18T11:57:05.988Z</time></trkpt><trkpt lat="43.4472524" lon="10.5678862"><ele>186.0</ele><time>2026-04-18T11:57:06.988Z</time></trkpt><trkpt lat="43.4472534" lon="10.5679804"><ele>186.33333333333334</ele><time>2026-04-18T11:57:07.988Z</time></trkpt><trkpt lat="43.4472228" lon="10.5680725"><ele>186.66666666666669</ele><time>2026-04-18T11:57:08.988Z</time></trkpt><trkpt lat="43.4471804" lon="10.5681639"><ele>187.0</ele><time>2026-04-18T11:57:09.988Z</time></trkpt><trkpt lat="43.4471193" lon="10.5682418"><ele>189.2</ele><time>2026-04-18T11:57:10.988Z</time></trkpt><trkpt lat="43.447037" lon="10.568273"><ele>191.39999999999998</ele><time>2026-04-18T11:57:11.988Z</time></trkpt><trkpt lat="43.4469344" lon="10.5682726"><ele>193.60000000000002</ele><time>2026-04-18T11:57:12.988Z</time></trkpt><trkpt lat="43.4468239" lon="10.5682332"><ele>195.8</ele><time>2026-04-18T11:57:13.988Z</time></trkpt><trkpt lat="43.4467203" lon="10.5681363"><ele>198.0</ele><time>2026-04-18T11:57:14.988Z</time></trkpt><trkpt lat="43.44662" lon="10.5680237"><ele>198.0</ele><time>2026-04-18T11:57:15.988Z</time></trkpt><trkpt lat="43.4465243" lon="10.5679056"><ele>198.0</ele><time>2026-04-18T11:57:16.988Z</time></trkpt><trkpt lat="43.4464372" lon="10.5677967"><ele>198.0</ele><time>2026-04-18T11:57:17.989Z</time></trkpt><trkpt lat="43.4463487" lon="10.5676965"><ele>198.0</ele><time>2026-04-18T11:57:18.988Z</time></trkpt><trkpt lat="43.4462363" lon="10.5676402"><ele>195.75</ele><time>2026-04-18T11:57:19.988Z</time></trkpt><trkpt lat="43.4461228" lon="10.5675912"><ele>193.5</ele><time>2026-04-18T11:57:20.988Z</time></trkpt><trkpt lat="43.4460026" lon="10.5675551"><ele>191.25</ele><time>2026-04-18T11:57:21.988Z</time></trkpt><trkpt lat="43.4458891" lon="10.5675429"><ele>189.0</ele><time>2026-04-18T11:57:22.988Z</time></trkpt><trkpt lat="43.445772" lon="10.5675575"><ele>189.0</ele><time>2026-04-18T11:57:23.989Z</time></trkpt><trkpt lat="43.445665" lon="10.5676074"><ele>189.0</ele><time>2026-04-18T11:57:24.988Z</time></trkpt><trkpt lat="43.445568" lon="10.567682"><ele>189.0</ele><time>2026-04-18T11:57:25.988Z</time></trkpt><trkpt lat="43.4454836" lon="10.5677674"><ele>189.0</ele><time>2026-04-18T11:57:26.988Z</time></trkpt><trkpt lat="43.4454151" lon="10.567874"><ele>189.0</ele><time>2026-04-18T11:57:27.988Z</time></trkpt><trkpt lat="43.4453543" lon="10.5679827"><ele>188.2</ele><time>2026-04-18T11:57:28.988Z</time></trkpt><trkpt lat="43.4452962" lon="10.5680993"><ele>187.39999999999998</ele><time>2026-04-18T11:57:29.988Z</time></trkpt><trkpt lat="43.4452405" lon="10.5682128"><ele>186.6</ele><time>2026-04-18T11:57:30.988Z</time></trkpt><trkpt lat="43.445178" lon="10.5683225"><ele>185.8</ele><time>2026-04-18T11:57:31.988Z</time></trkpt><trkpt lat="43.445108" lon="10.568427"><ele>185.0</ele><time>2026-04-18T11:57:32.988Z</time></trkpt><trkpt lat="43.4450279" lon="10.5685227"><ele>185.0</ele><time>2026-04-18T11:57:33.988Z</time></trkpt><trkpt lat="43.4449413" lon="10.5686055"><ele>185.0</ele><time>2026-04-18T11:57:34.988Z</time></trkpt><trkpt lat="43.4448388" lon="10.5686755"><ele>185.0</ele><time>2026-04-18T11:57:35.988Z</time></trkpt><trkpt lat="43.4447406" lon="10.5687262"><ele>185.0</ele><time>2026-04-18T11:57:36.989Z</time></trkpt><trkpt lat="43.4446395" lon="10.5687856"><ele>185.0</ele><time>2026-04-18T11:57:37.988Z</time></trkpt><trkpt lat="43.4445402" lon="10.5688543"><ele>183.0</ele><time>2026-04-18T11:57:38.988Z</time></trkpt><trkpt lat="43.4444388" lon="10.5689412"><ele>181.0</ele><time>2026-04-18T11:57:39.988Z</time></trkpt><trkpt lat="43.4443376" lon="10.5690404"><ele>179.0</ele><time>2026-04-18T11:57:40.988Z</time></trkpt><trkpt lat="43.444243" lon="10.5691412"><ele>177.0</ele><time>2026-04-18T11:57:41.988Z</time></trkpt><trkpt lat="43.44415" lon="10.5692347"><ele>177.0</ele><time>2026-04-18T11:57:42.988Z</time></trkpt><trkpt lat="43.4440512" lon="10.5693192"><ele>177.0</ele><time>2026-04-18T11:57:43.988Z</time></trkpt><trkpt lat="43.4439438" lon="10.56938"><ele>177.0</ele><time>2026-04-18T11:57:44.988Z</time></trkpt><trkpt lat="43.4438363" lon="10.5694163"><ele>177.0</ele><time>2026-04-18T11:57:45.988Z</time></trkpt><trkpt lat="43.4437215" lon="10.5694324"><ele>174.2</ele><time>2026-04-18T11:57:46.988Z</time></trkpt><trkpt lat="43.4436098" lon="10.5694311"><ele>171.39999999999998</ele><time>2026-04-18T11:57:47.988Z</time></trkpt><trkpt lat="43.4434994" lon="10.5694149"><ele>168.60000000000002</ele><time>2026-04-18T11:57:48.988Z</time></trkpt><trkpt lat="43.4434013" lon="10.5694084"><ele>165.8</ele><time>2026-04-18T11:57:49.988Z</time></trkpt><trkpt lat="43.4433095" lon="10.5694249"><ele>163.0</ele><time>2026-04-18T11:57:50.988Z</time></trkpt><trkpt lat="43.4432232" lon="10.5694794"><ele>165.2</ele><time>2026-04-18T11:57:51.988Z</time></trkpt><trkpt lat="43.443155" lon="10.5695829"><ele>167.4</ele><time>2026-04-18T11:57:52.988Z</time></trkpt><trkpt lat="43.4431137" lon="10.5697293"><ele>169.6</ele><time>2026-04-18T11:57:53.988Z</time></trkpt><trkpt lat="43.4430868" lon="10.5698729"><ele>171.79999999999998</ele><time>2026-04-18T11:57:54.988Z</time></trkpt><trkpt lat="43.4430701" lon="10.5700125"><ele>174.0</ele><time>2026-04-18T11:57:55.988Z</time></trkpt><trkpt lat="43.4430523" lon="10.5701337"><ele>174.0</ele><time>2026-04-18T11:57:56.989Z</time></trkpt><trkpt lat="43.4430161" lon="10.5702255"><ele>174.0</ele><time>2026-04-18T11:57:57.988Z</time></trkpt><trkpt lat="43.4429615" lon="10.5702792"><ele>174.0</ele><time>2026-04-18T11:57:58.988Z</time></trkpt><trkpt lat="43.4429048" lon="10.5703184"><ele>174.0</ele><time>2026-04-18T11:57:59.988Z</time></trkpt><trkpt lat="43.4427834" lon="10.5703119"><ele>174.0</ele><time>2026-04-18T11:58:01.988Z</time></trkpt><trkpt lat="43.4427253" lon="10.5702422"><ele>174.0</ele><time>2026-04-18T11:58:02.988Z</time></trkpt><trkpt lat="43.4426756" lon="10.5701365"><ele>174.2</ele><time>2026-04-18T11:58:03.988Z</time></trkpt><trkpt lat="43.4426418" lon="10.5700097"><ele>174.39999999999998</ele><time>2026-04-18T11:58:04.988Z</time></trkpt><trkpt lat="43.4426483" lon="10.569873"><ele>174.6</ele><time>2026-04-18T11:58:05.988Z</time></trkpt><trkpt lat="43.4426643" lon="10.5697278"><ele>174.8</ele><time>2026-04-18T11:58:06.988Z</time></trkpt><trkpt lat="43.4426571" lon="10.5695986"><ele>175.0</ele><time>2026-04-18T11:58:07.988Z</time></trkpt><trkpt lat="43.442636" lon="10.5694776"><ele>175.0</ele><time>2026-04-18T11:58:08.988Z</time></trkpt><trkpt lat="43.4425955" lon="10.5693608"><ele>175.0</ele><time>2026-04-18T11:58:09.988Z</time></trkpt><trkpt lat="43.4425313" lon="10.5692695"><ele>175.0</ele><time>2026-04-18T11:58:10.988Z</time></trkpt><trkpt lat="43.4424537" lon="10.5692126"><ele>175.0</ele><time>2026-04-18T11:58:11.988Z</time></trkpt><trkpt lat="43.4423429" lon="10.5691916"><ele>175.0</ele><time>2026-04-18T11:58:12.988Z</time></trkpt><trkpt lat="43.4422226" lon="10.5691926"><ele>178.4</ele><time>2026-04-18T11:58:13.988Z</time></trkpt><trkpt lat="43.4421062" lon="10.5691992"><ele>181.8</ele><time>2026-04-18T11:58:14.988Z</time></trkpt><trkpt lat="43.4419907" lon="10.5691827"><ele>185.2</ele><time>2026-04-18T11:58:15.989Z</time></trkpt><trkpt lat="43.4418816" lon="10.5691467"><ele>188.6</ele><time>2026-04-18T11:58:16.988Z</time></trkpt><trkpt lat="43.4417917" lon="10.5690747"><ele>192.0</ele><time>2026-04-18T11:58:17.988Z</time></trkpt><trkpt lat="43.4417191" lon="10.5689619"><ele>192.0</ele><time>2026-04-18T11:58:18.989Z</time></trkpt><trkpt lat="43.4416535" lon="10.5688241"><ele>192.0</ele><time>2026-04-18T11:58:19.988Z</time></trkpt><trkpt lat="43.4415899" lon="10.5686613"><ele>192.0</ele><time>2026-04-18T11:58:20.988Z</time></trkpt><trkpt lat="43.4415243" lon="10.5685002"><ele>192.0</ele><time>2026-04-18T11:58:21.988Z</time></trkpt><trkpt lat="43.441461" lon="10.5683538"><ele>191.6</ele><time>2026-04-18T11:58:22.988Z</time></trkpt><trkpt lat="43.4414013" lon="10.5682199"><ele>191.2</ele><time>2026-04-18T11:58:23.988Z</time></trkpt><trkpt lat="43.4413346" lon="10.5680967"><ele>190.8</ele><time>2026-04-18T11:58:24.988Z</time></trkpt><trkpt lat="43.4412609" lon="10.5679921"><ele>190.4</ele><time>2026-04-18T11:58:25.988Z</time></trkpt><trkpt lat="43.4411791" lon="10.5679168"><ele>190.0</ele><time>2026-04-18T11:58:26.988Z</time></trkpt><trkpt lat="43.4410831" lon="10.567884"><ele>190.0</ele><time>2026-04-18T11:58:27.988Z</time></trkpt><trkpt lat="43.4409787" lon="10.5678932"><ele>190.0</ele><time>2026-04-18T11:58:28.988Z</time></trkpt><trkpt lat="43.4408792" lon="10.5679446"><ele>190.0</ele><time>2026-04-18T11:58:29.988Z</time></trkpt><trkpt lat="43.4407791" lon="10.5680146"><ele>190.0</ele><time>2026-04-18T11:58:30.988Z</time></trkpt><trkpt lat="43.4406757" lon="10.5680569"><ele>190.0</ele><time>2026-04-18T11:58:31.988Z</time></trkpt><trkpt lat="43.4405712" lon="10.5680638"><ele>189.5</ele><time>2026-04-18T11:58:32.988Z</time></trkpt><trkpt lat="43.440462" lon="10.5680312"><ele>189.0</ele><time>2026-04-18T11:58:33.989Z</time></trkpt><trkpt lat="43.4403537" lon="10.5679658"><ele>188.5</ele><time>2026-04-18T11:58:34.988Z</time></trkpt><trkpt lat="43.4402371" lon="10.5678858"><ele>188.0</ele><time>2026-04-18T11:58:35.988Z</time></trkpt><trkpt lat="43.440117" lon="10.567805"><ele>188.0</ele><time>2026-04-18T11:58:36.988Z</time></trkpt><trkpt lat="43.4399952" lon="10.567727"><ele>188.0</ele><time>2026-04-18T11:58:37.988Z</time></trkpt><trkpt lat="43.4398777" lon="10.5676503"><ele>188.0</ele><time>2026-04-18T11:58:38.988Z</time></trkpt><trkpt lat="43.4397621" lon="10.5675667"><ele>188.0</ele><time>2026-04-18T11:58:39.988Z</time></trkpt><trkpt lat="43.4396523" lon="10.5674804"><ele>190.75</ele><time>2026-04-18T11:58:40.988Z</time></trkpt><trkpt lat="43.4395525" lon="10.5673868"><ele>193.5</ele><time>2026-04-18T11:58:41.988Z</time></trkpt><trkpt lat="43.4394673" lon="10.5672817"><ele>196.25</ele><time>2026-04-18T11:58:42.988Z</time></trkpt><trkpt lat="43.4393853" lon="10.5671697"><ele>199.0</ele><time>2026-04-18T11:58:43.988Z</time></trkpt><trkpt lat="43.4393076" lon="10.5670513"><ele>197.5</ele><time>2026-04-18T11:58:44.988Z</time></trkpt><trkpt lat="43.4392288" lon="10.5669405"><ele>196.0</ele><time>2026-04-18T11:58:45.989Z</time></trkpt><trkpt lat="43.439134" lon="10.5668372"><ele>194.5</ele><time>2026-04-18T11:58:46.988Z</time></trkpt><trkpt lat="43.439028" lon="10.5667603"><ele>193.0</ele><time>2026-04-18T11:58:47.988Z</time></trkpt><trkpt lat="43.4389026" lon="10.5667001"><ele>193.75</ele><time>2026-04-18T11:58:48.988Z</time></trkpt><trkpt lat="43.4387748" lon="10.5666697"><ele>194.5</ele><time>2026-04-18T11:58:49.988Z</time></trkpt><trkpt lat="43.4386486" lon="10.5666615"><ele>195.25</ele><time>2026-04-18T11:58:50.988Z</time></trkpt><trkpt lat="43.4385211" lon="10.5666662"><ele>196.0</ele><time>2026-04-18T11:58:51.988Z</time></trkpt><trkpt lat="43.4384008" lon="10.5666704"><ele>196.0</ele><time>2026-04-18T11:58:52.988Z</time></trkpt><trkpt lat="43.4382831" lon="10.5666723"><ele>196.0</ele><time>2026-04-18T11:58:53.989Z</time></trkpt><trkpt lat="43.4381662" lon="10.5666797"><ele>196.0</ele><time>2026-04-18T11:58:54.988Z</time></trkpt><trkpt lat="43.4380591" lon="10.5666863"><ele>196.0</ele><time>2026-04-18T11:58:55.988Z</time></trkpt><trkpt lat="43.4379626" lon="10.5667097"><ele>196.0</ele><time>2026-04-18T11:58:56.988Z</time></trkpt><trkpt lat="43.437875" lon="10.5667612"><ele>194.60000000000002</ele><time>2026-04-18T11:58:57.988Z</time></trkpt><trkpt lat="43.4378123" lon="10.5668562"><ele>193.2</ele><time>2026-04-18T11:58:58.988Z</time></trkpt><trkpt lat="43.4377662" lon="10.5669714"><ele>191.8</ele><time>2026-04-18T11:58:59.988Z</time></trkpt><trkpt lat="43.4377489" lon="10.5670978"><ele>190.39999999999998</ele><time>2026-04-18T11:59:00.988Z</time></trkpt><trkpt lat="43.4377358" lon="10.5672262"><ele>189.0</ele><time>2026-04-18T11:59:01.989Z</time></trkpt><trkpt lat="43.4377182" lon="10.5673549"><ele>189.0</ele><time>2026-04-18T11:59:02.988Z</time></trkpt><trkpt lat="43.4376453" lon="10.5674468"><ele>189.0</ele><time>2026-04-18T11:59:03.988Z</time></trkpt><trkpt lat="43.4375623" lon="10.5675405"><ele>189.0</ele><time>2026-04-18T11:59:04.988Z</time></trkpt><trkpt lat="43.4374543" lon="10.5675938"><ele>189.0</ele><time>2026-04-18T11:59:05.988Z</time></trkpt><trkpt lat="43.4373359" lon="10.5676198"><ele>189.0</ele><time>2026-04-18T11:59:06.988Z</time></trkpt><trkpt lat="43.4372194" lon="10.5676205"><ele>188.39999999999998</ele><time>2026-04-18T11:59:07.988Z</time></trkpt><trkpt lat="43.4371026" lon="10.5675746"><ele>187.8</ele><time>2026-04-18T11:59:08.988Z</time></trkpt><trkpt lat="43.4370089" lon="10.5675067"><ele>187.2</ele><time>2026-04-18T11:59:09.988Z</time></trkpt><trkpt lat="43.4369186" lon="10.5674286"><ele>186.60000000000002</ele><time>2026-04-18T11:59:10.988Z</time></trkpt><trkpt lat="43.4368317" lon="10.5673551"><ele>186.0</ele><time>2026-04-18T11:59:11.988Z</time></trkpt><trkpt lat="43.4367409" lon="10.5673088"><ele>186.0</ele><time>2026-04-18T11:59:12.988Z</time></trkpt><trkpt lat="43.4366431" lon="10.5672996"><ele>186.0</ele><time>2026-04-18T11:59:13.988Z</time></trkpt><trkpt lat="43.4365473" lon="10.5673251"><ele>186.0</ele><time>2026-04-18T11:59:14.988Z</time></trkpt><trkpt lat="43.436452" lon="10.5673871"><ele>186.0</ele><time>2026-04-18T11:59:15.988Z</time></trkpt><trkpt lat="43.4363515" lon="10.5674714"><ele>186.0</ele><time>2026-04-18T11:59:16.988Z</time></trkpt><trkpt lat="43.4362551" lon="10.5675483"><ele>185.5</ele><time>2026-04-18T11:59:17.988Z</time></trkpt><trkpt lat="43.4361509" lon="10.567611"><ele>185.0</ele><time>2026-04-18T11:59:18.988Z</time></trkpt><trkpt lat="43.4360346" lon="10.5676505"><ele>184.5</ele><time>2026-04-18T11:59:19.988Z</time></trkpt><trkpt lat="43.4359005" lon="10.5676543"><ele>184.0</ele><time>2026-04-18T11:59:20.988Z</time></trkpt><trkpt lat="43.435769" lon="10.5676525"><ele>184.0</ele><time>2026-04-18T11:59:21.988Z</time></trkpt><trkpt lat="43.4356381" lon="10.5676398"><ele>184.0</ele><time>2026-04-18T11:59:22.988Z</time></trkpt><trkpt lat="43.4355069" lon="10.5676092"><ele>184.0</ele><time>2026-04-18T11:59:23.988Z</time></trkpt><trkpt lat="43.4353775" lon="10.5675632"><ele>184.0</ele><time>2026-04-18T11:59:24.988Z</time></trkpt><trkpt lat="43.4352461" lon="10.5674998"><ele>184.25</ele><time>2026-04-18T11:59:25.988Z</time></trkpt><trkpt lat="43.435117" lon="10.5674031"><ele>184.5</ele><time>2026-04-18T11:59:26.989Z</time></trkpt><trkpt lat="43.4349903" lon="10.5673168"><ele>184.75</ele><time>2026-04-18T11:59:27.988Z</time></trkpt><trkpt lat="43.4348667" lon="10.5672242"><ele>185.0</ele><time>2026-04-18T11:59:28.988Z</time></trkpt><trkpt lat="43.434744" lon="10.5671439"><ele>186.0</ele><time>2026-04-18T11:59:29.988Z</time></trkpt><trkpt lat="43.4346267" lon="10.5670526"><ele>187.0</ele><time>2026-04-18T11:59:30.988Z</time></trkpt><trkpt lat="43.4345322" lon="10.5669488"><ele>188.0</ele><time>2026-04-18T11:59:31.988Z</time></trkpt><trkpt lat="43.4344527" lon="10.5668113"><ele>189.0</ele><time>2026-04-18T11:59:32.988Z</time></trkpt><trkpt lat="43.4343761" lon="10.5666578"><ele>186.75</ele><time>2026-04-18T11:59:33.989Z</time></trkpt><trkpt lat="43.4342939" lon="10.5664997"><ele>184.5</ele><time>2026-04-18T11:59:34.988Z</time></trkpt><trkpt lat="43.4342082" lon="10.5663558"><ele>182.25</ele><time>2026-04-18T11:59:35.988Z</time></trkpt><trkpt lat="43.4341241" lon="10.5662237"><ele>180.0</ele><time>2026-04-18T11:59:36.988Z</time></trkpt><trkpt lat="43.4340596" lon="10.5660936"><ele>179.33333333333334</ele><time>2026-04-18T11:59:37.988Z</time></trkpt><trkpt lat="43.4340084" lon="10.5659602"><ele>178.66666666666666</ele><time>2026-04-18T11:59:38.988Z</time></trkpt><trkpt lat="43.4339506" lon="10.5658481"><ele>178.0</ele><time>2026-04-18T11:59:39.988Z</time></trkpt><trkpt lat="43.4339034" lon="10.56574"><ele>177.33333333333331</ele><time>2026-04-18T11:59:40.988Z</time></trkpt><trkpt lat="43.4338577" lon="10.565653"><ele>176.66666666666666</ele><time>2026-04-18T11:59:41.988Z</time></trkpt><trkpt lat="43.4338169" lon="10.5655773"><ele>176.0</ele><time>2026-04-18T11:59:42.988Z</time></trkpt><trkpt lat="43.4336764" lon="10.5655679"><ele>176.0</ele><time>2026-04-18T11:59:44.988Z</time></trkpt><trkpt lat="43.4336118" lon="10.5655862"><ele>176.0</ele><time>2026-04-18T11:59:45.988Z</time></trkpt><trkpt lat="43.4335459" lon="10.5656033"><ele>176.0</ele><time>2026-04-18T11:59:46.988Z</time></trkpt><trkpt lat="43.4334863" lon="10.5656511"><ele>176.0</ele><time>2026-04-18T11:59:47.988Z</time></trkpt><trkpt lat="43.4334194" lon="10.565711"><ele>176.0</ele><time>2026-04-18T11:59:48.988Z</time></trkpt><trkpt lat="43.4333547" lon="10.5657453"><ele>176.0</ele><time>2026-04-18T11:59:49.988Z</time></trkpt><trkpt lat="43.433284" lon="10.5657911"><ele>176.0</ele><time>2026-04-18T11:59:50.989Z</time></trkpt><trkpt lat="43.4332277" lon="10.5658403"><ele>176.0</ele><time>2026-04-18T11:59:51.988Z</time></trkpt><trkpt lat="43.4331679" lon="10.565883"><ele>176.0</ele><time>2026-04-18T11:59:52.988Z</time></trkpt><trkpt lat="43.4330953" lon="10.5659401"><ele>176.0</ele><time>2026-04-18T11:59:53.988Z</time></trkpt><trkpt lat="43.4330345" lon="10.5659985"><ele>176.0</ele><time>2026-04-18T11:59:54.988Z</time></trkpt><trkpt lat="43.4329698" lon="10.5660527"><ele>176.0</ele><time>2026-04-18T11:59:55.988Z</time></trkpt><trkpt lat="43.432907" lon="10.5661075"><ele>176.0</ele><time>2026-04-18T11:59:56.988Z</time></trkpt><trkpt lat="43.4328368" lon="10.5661622"><ele>176.4</ele><time>2026-04-18T11:59:57.988Z</time></trkpt><trkpt lat="43.4327598" lon="10.5662297"><ele>176.8</ele><time>2026-04-18T11:59:58.988Z</time></trkpt><trkpt lat="43.4326821" lon="10.5663057"><ele>177.20000000000002</ele><time>2026-04-18T11:59:59.989Z</time></trkpt><trkpt lat="43.4326069" lon="10.5663922"><ele>177.60000000000002</ele><time>2026-04-18T12:00:00.988Z</time></trkpt><trkpt lat="43.4325316" lon="10.5664693"><ele>178.0</ele><time>2026-04-18T12:00:01.988Z</time></trkpt><trkpt lat="43.4324563" lon="10.5665366"><ele>178.0</ele><time>2026-04-18T12:00:02.988Z</time></trkpt><trkpt lat="43.4323792" lon="10.5666085"><ele>178.0</ele><time>2026-04-18T12:00:03.988Z</time></trkpt><trkpt lat="43.4322993" lon="10.5666821"><ele>178.0</ele><time>2026-04-18T12:00:04.988Z</time></trkpt><trkpt lat="43.4322237" lon="10.5667507"><ele>178.0</ele><time>2026-04-18T12:00:05.988Z</time></trkpt><trkpt lat="43.4321534" lon="10.5668233"><ele>178.0</ele><time>2026-04-18T12:00:06.988Z</time></trkpt><trkpt lat="43.4321009" lon="10.5669215"><ele>175.8</ele><time>2026-04-18T12:00:07.988Z</time></trkpt><trkpt lat="43.4320616" lon="10.5670383"><ele>173.60000000000002</ele><time>2026-04-18T12:00:08.988Z</time></trkpt><trkpt lat="43.4320459" lon="10.567172"><ele>171.39999999999998</ele><time>2026-04-18T12:00:09.988Z</time></trkpt><trkpt lat="43.4320521" lon="10.5673126"><ele>169.2</ele><time>2026-04-18T12:00:10.988Z</time></trkpt><trkpt lat="43.4320838" lon="10.5674805"><ele>167.0</ele><time>2026-04-18T12:00:11.988Z</time></trkpt><trkpt lat="43.4321225" lon="10.5676445"><ele>169.25</ele><time>2026-04-18T12:00:12.988Z</time></trkpt><trkpt lat="43.4321603" lon="10.5677993"><ele>171.5</ele><time>2026-04-18T12:00:13.988Z</time></trkpt><trkpt lat="43.4322029" lon="10.5679518"><ele>173.75</ele><time>2026-04-18T12:00:14.988Z</time></trkpt><trkpt lat="43.4322711" lon="10.5680969"><ele>176.0</ele><time>2026-04-18T12:00:15.988Z</time></trkpt><trkpt lat="43.4323428" lon="10.5682418"><ele>176.0</ele><time>2026-04-18T12:00:16.988Z</time></trkpt><trkpt lat="43.4324156" lon="10.5683827"><ele>176.0</ele><time>2026-04-18T12:00:17.989Z</time></trkpt><trkpt lat="43.4324864" lon="10.5685353"><ele>176.0</ele><time>2026-04-18T12:00:18.988Z</time></trkpt><trkpt lat="43.4325449" lon="10.5687091"><ele>176.0</ele><time>2026-04-18T12:00:19.988Z</time></trkpt><trkpt lat="43.4325954" lon="10.5688698"><ele>173.5</ele><time>2026-04-18T12:00:20.988Z</time></trkpt><trkpt lat="43.432647" lon="10.5690354"><ele>171.0</ele><time>2026-04-18T12:00:21.988Z</time></trkpt><trkpt lat="43.4326934" lon="10.5691906"><ele>168.5</ele><time>2026-04-18T12:00:22.988Z</time></trkpt><trkpt lat="43.4327358" lon="10.5693402"><ele>166.0</ele><time>2026-04-18T12:00:23.988Z</time></trkpt><trkpt lat="43.4327695" lon="10.5694947"><ele>164.60000000000002</ele><time>2026-04-18T12:00:24.988Z</time></trkpt><trkpt lat="43.4328003" lon="10.5696374"><ele>163.20000000000002</ele><time>2026-04-18T12:00:25.988Z</time></trkpt><trkpt lat="43.4328464" lon="10.5697508"><ele>161.8</ele><time>2026-04-18T12:00:26.988Z</time></trkpt><trkpt lat="43.4329215" lon="10.5698541"><ele>160.4</ele><time>2026-04-18T12:00:27.988Z</time></trkpt><trkpt lat="43.4330049" lon="10.5699355"><ele>159.0</ele><time>2026-04-18T12:00:28.988Z</time></trkpt><trkpt lat="43.433084" lon="10.5700201"><ele>163.0</ele><time>2026-04-18T12:00:29.988Z</time></trkpt><trkpt lat="43.4331457" lon="10.5701227"><ele>167.0</ele><time>2026-04-18T12:00:30.988Z</time></trkpt><trkpt lat="43.4331819" lon="10.5702487"><ele>171.0</ele><time>2026-04-18T12:00:31.988Z</time></trkpt><trkpt lat="43.4332145" lon="10.5703744"><ele>175.0</ele><time>2026-04-18T12:00:32.988Z</time></trkpt><trkpt lat="43.4332284" lon="10.5705235"><ele>179.0</ele><time>2026-04-18T12:00:33.988Z</time></trkpt><trkpt lat="43.433207" lon="10.5706506"><ele>180.33333333333331</ele><time>2026-04-18T12:00:34.988Z</time></trkpt><trkpt lat="43.4330855" lon="10.5707316"><ele>181.66666666666666</ele><time>2026-04-18T12:00:35.988Z</time></trkpt><trkpt lat="43.4329106" lon="10.5708835"><ele>183.0</ele><time>2026-04-18T12:00:36.988Z</time></trkpt><trkpt lat="43.4328137" lon="10.5710331"><ele>180.75</ele><time>2026-04-18T12:00:37.988Z</time></trkpt><trkpt lat="43.4327055" lon="10.5711799"><ele>178.5</ele><time>2026-04-18T12:00:38.988Z</time></trkpt><trkpt lat="43.4326072" lon="10.5713195"><ele>176.25</ele><time>2026-04-18T12:00:39.989Z</time></trkpt><trkpt lat="43.4325117" lon="10.5714544"><ele>174.0</ele><time>2026-04-18T12:00:40.988Z</time></trkpt><trkpt lat="43.4324305" lon="10.5715675"><ele>174.0</ele><time>2026-04-18T12:00:41.988Z</time></trkpt><trkpt lat="43.4323457" lon="10.5716376"><ele>174.0</ele><time>2026-04-18T12:00:42.989Z</time></trkpt><trkpt lat="43.432278" lon="10.5716649"><ele>174.0</ele><time>2026-04-18T12:00:43.988Z</time></trkpt><trkpt lat="43.4322114" lon="10.5716692"><ele>174.0</ele><time>2026-04-18T12:00:44.988Z</time></trkpt><trkpt lat="43.4321338" lon="10.5716503"><ele>174.0</ele><time>2026-04-18T12:00:45.989Z</time></trkpt><trkpt lat="43.432042" lon="10.5716337"><ele>174.0</ele><time>2026-04-18T12:00:46.988Z</time></trkpt><trkpt lat="43.4319463" lon="10.571617"><ele>173.2</ele><time>2026-04-18T12:00:47.988Z</time></trkpt><trkpt lat="43.4318598" lon="10.5715886"><ele>172.39999999999998</ele><time>2026-04-18T12:00:48.988Z</time></trkpt><trkpt lat="43.4317888" lon="10.5715327"><ele>171.6</ele><time>2026-04-18T12:00:49.988Z</time></trkpt><trkpt lat="43.4317356" lon="10.5714393"><ele>170.8</ele><time>2026-04-18T12:00:50.988Z</time></trkpt><trkpt lat="43.431726" lon="10.5713209"><ele>170.0</ele><time>2026-04-18T12:00:51.988Z</time></trkpt><trkpt lat="43.4317327" lon="10.5711709"><ele>170.0</ele><time>2026-04-18T12:00:52.988Z</time></trkpt><trkpt lat="43.4317386" lon="10.5710297"><ele>170.0</ele><time>2026-04-18T12:00:53.988Z</time></trkpt><trkpt lat="43.431741" lon="10.5708977"><ele>170.0</ele><time>2026-04-18T12:00:54.988Z</time></trkpt><trkpt lat="43.4317219" lon="10.5707534"><ele>170.0</ele><time>2026-04-18T12:00:55.988Z</time></trkpt><trkpt lat="43.4316855" lon="10.5705965"><ele>170.0</ele><time>2026-04-18T12:00:56.988Z</time></trkpt><trkpt lat="43.4316404" lon="10.5704149"><ele>169.0</ele><time>2026-04-18T12:00:57.988Z</time></trkpt><trkpt lat="43.4315883" lon="10.5702557"><ele>168.0</ele><time>2026-04-18T12:00:58.988Z</time></trkpt><trkpt lat="43.4315206" lon="10.5700966"><ele>167.0</ele><time>2026-04-18T12:00:59.988Z</time></trkpt><trkpt lat="43.4314465" lon="10.5699465"><ele>166.0</ele><time>2026-04-18T12:01:00.988Z</time></trkpt><trkpt lat="43.4313729" lon="10.5698122"><ele>166.0</ele><time>2026-04-18T12:01:01.988Z</time></trkpt><trkpt lat="43.4313306" lon="10.5696736"><ele>166.0</ele><time>2026-04-18T12:01:02.988Z</time></trkpt><trkpt lat="43.4312855" lon="10.5695322"><ele>166.0</ele><time>2026-04-18T12:01:03.988Z</time></trkpt><trkpt lat="43.4312523" lon="10.5693994"><ele>166.0</ele><time>2026-04-18T12:01:04.988Z</time></trkpt><trkpt lat="43.4312024" lon="10.569286"><ele>166.0</ele><time>2026-04-18T12:01:05.988Z</time></trkpt><trkpt lat="43.4311446" lon="10.5691915"><ele>167.20000000000002</ele><time>2026-04-18T12:01:06.988Z</time></trkpt><trkpt lat="43.4310604" lon="10.5691404"><ele>168.4</ele><time>2026-04-18T12:01:07.988Z</time></trkpt><trkpt lat="43.4309669" lon="10.5691281"><ele>169.6</ele><time>2026-04-18T12:01:08.988Z</time></trkpt><trkpt lat="43.4308508" lon="10.5691636"><ele>170.8</ele><time>2026-04-18T12:01:09.988Z</time></trkpt><trkpt lat="43.4307354" lon="10.5692276"><ele>172.0</ele><time>2026-04-18T12:01:10.988Z</time></trkpt><trkpt lat="43.4306262" lon="10.5692845"><ele>172.0</ele><time>2026-04-18T12:01:11.988Z</time></trkpt><trkpt lat="43.4305234" lon="10.5693152"><ele>172.0</ele><time>2026-04-18T12:01:12.988Z</time></trkpt><trkpt lat="43.4304248" lon="10.5692984"><ele>172.0</ele><time>2026-04-18T12:01:13.988Z</time></trkpt><trkpt lat="43.4303466" lon="10.5692336"><ele>172.0</ele><time>2026-04-18T12:01:14.988Z</time></trkpt><trkpt lat="43.4303032" lon="10.5691294"><ele>172.0</ele><time>2026-04-18T12:01:15.988Z</time></trkpt><trkpt lat="43.4302889" lon="10.5690038"><ele>172.5</ele><time>2026-04-18T12:01:16.988Z</time></trkpt><trkpt lat="43.4302853" lon="10.5688396"><ele>173.0</ele><time>2026-04-18T12:01:17.988Z</time></trkpt><trkpt lat="43.4302926" lon="10.5686867"><ele>173.5</ele><time>2026-04-18T12:01:18.988Z</time></trkpt><trkpt lat="43.4302819" lon="10.568536"><ele>174.0</ele><time>2026-04-18T12:01:19.988Z</time></trkpt><trkpt lat="43.4302406" lon="10.5683887"><ele>174.0</ele><time>2026-04-18T12:01:20.988Z</time></trkpt><trkpt lat="43.4301671" lon="10.5682586"><ele>174.0</ele><time>2026-04-18T12:01:21.988Z</time></trkpt><trkpt lat="43.4300669" lon="10.5681335"><ele>174.0</ele><time>2026-04-18T12:01:22.988Z</time></trkpt><trkpt lat="43.4299572" lon="10.5680154"><ele>174.0</ele><time>2026-04-18T12:01:23.988Z</time></trkpt><trkpt lat="43.4298459" lon="10.5679106"><ele>174.0</ele><time>2026-04-18T12:01:24.988Z</time></trkpt><trkpt lat="43.4297426" lon="10.5678071"><ele>174.0</ele><time>2026-04-18T12:01:25.988Z</time></trkpt><trkpt lat="43.4296378" lon="10.5677172"><ele>174.0</ele><time>2026-04-18T12:01:26.988Z</time></trkpt><trkpt lat="43.4295187" lon="10.5676632"><ele>174.0</ele><time>2026-04-18T12:01:27.988Z</time></trkpt><trkpt lat="43.4293699" lon="10.5676317"><ele>174.0</ele><time>2026-04-18T12:01:28.988Z</time></trkpt><trkpt lat="43.4292304" lon="10.567597"><ele>174.0</ele><time>2026-04-18T12:01:29.988Z</time></trkpt><trkpt lat="43.4291005" lon="10.5675891"><ele>174.0</ele><time>2026-04-18T12:01:30.988Z</time></trkpt><trkpt lat="43.4289682" lon="10.5676329"><ele>174.0</ele><time>2026-04-18T12:01:31.988Z</time></trkpt><trkpt lat="43.4288283" lon="10.5677116"><ele>174.79999999999998</ele><time>2026-04-18T12:01:32.988Z</time></trkpt><trkpt lat="43.428706" lon="10.5677882"><ele>175.6</ele><time>2026-04-18T12:01:33.988Z</time></trkpt><trkpt lat="43.4286035" lon="10.5678665"><ele>176.4</ele><time>2026-04-18T12:01:34.988Z</time></trkpt><trkpt lat="43.4285158" lon="10.5679234"><ele>177.2</ele><time>2026-04-18T12:01:35.988Z</time></trkpt><trkpt lat="43.428426" lon="10.5679427"><ele>178.0</ele><time>2026-04-18T12:01:36.988Z</time></trkpt><trkpt lat="43.4283477" lon="10.5679169"><ele>178.0</ele><time>2026-04-18T12:01:37.988Z</time></trkpt><trkpt lat="43.4282932" lon="10.5678379"><ele>178.0</ele><time>2026-04-18T12:01:38.988Z</time></trkpt><trkpt lat="43.4282586" lon="10.5677065"><ele>178.0</ele><time>2026-04-18T12:01:39.988Z</time></trkpt><trkpt lat="43.4282291" lon="10.5675462"><ele>178.0</ele><time>2026-04-18T12:01:40.989Z</time></trkpt><trkpt lat="43.428192" lon="10.5673864"><ele>178.0</ele><time>2026-04-18T12:01:41.988Z</time></trkpt><trkpt lat="43.4281299" lon="10.5672167"><ele>178.0</ele><time>2026-04-18T12:01:42.988Z</time></trkpt><trkpt lat="43.4280532" lon="10.5670751"><ele>178.0</ele><time>2026-04-18T12:01:43.988Z</time></trkpt><trkpt lat="43.4279529" lon="10.5669527"><ele>178.0</ele><time>2026-04-18T12:01:44.989Z</time></trkpt><trkpt lat="43.4278488" lon="10.5668655"><ele>178.0</ele><time>2026-04-18T12:01:45.989Z</time></trkpt><trkpt lat="43.4277434" lon="10.5668154"><ele>179.5</ele><time>2026-04-18T12:01:46.988Z</time></trkpt><trkpt lat="43.4276459" lon="10.5667643"><ele>181.0</ele><time>2026-04-18T12:01:47.988Z</time></trkpt><trkpt lat="43.4275562" lon="10.5666972"><ele>182.5</ele><time>2026-04-18T12:01:48.988Z</time></trkpt><trkpt lat="43.4275139" lon="10.5665993"><ele>184.0</ele><time>2026-04-18T12:01:49.988Z</time></trkpt><trkpt lat="43.4275123" lon="10.566492"><ele>185.5</ele><time>2026-04-18T12:01:50.988Z</time></trkpt><trkpt lat="43.4275511" lon="10.5663985"><ele>187.0</ele><time>2026-04-18T12:01:51.988Z</time></trkpt><trkpt lat="43.4275997" lon="10.5663144"><ele>187.0</ele><time>2026-04-18T12:01:52.988Z</time></trkpt><trkpt lat="43.4276776" lon="10.5662545"><ele>187.0</ele><time>2026-04-18T12:01:53.988Z</time></trkpt><trkpt lat="43.4277292" lon="10.5661962"><ele>187.0</ele><time>2026-04-18T12:01:54.988Z</time></trkpt><trkpt lat="43.4277563" lon="10.5661171"><ele>187.0</ele><time>2026-04-18T12:01:55.988Z</time></trkpt><trkpt lat="43.4277307" lon="10.566025"><ele>187.0</ele><time>2026-04-18T12:01:56.988Z</time></trkpt><trkpt lat="43.4277103" lon="10.5659327"><ele>187.0</ele><time>2026-04-18T12:01:57.988Z</time></trkpt><trkpt lat="43.4276799" lon="10.5658311"><ele>187.0</ele><time>2026-04-18T12:01:58.988Z</time></trkpt><trkpt lat="43.4276237" lon="10.5657111"><ele>187.66666666666669</ele><time>2026-04-18T12:01:59.988Z</time></trkpt><trkpt lat="43.4273871" lon="10.5654845"><ele>188.33333333333334</ele><time>2026-04-18T12:02:00.988Z</time></trkpt><trkpt lat="43.4272809" lon="10.5653473"><ele>189.0</ele><time>2026-04-18T12:02:01.988Z</time></trkpt><trkpt lat="43.4271408" lon="10.5652095"><ele>190.75</ele><time>2026-04-18T12:02:02.988Z</time></trkpt><trkpt lat="43.4270362" lon="10.565079"><ele>192.5</ele><time>2026-04-18T12:02:03.988Z</time></trkpt><trkpt lat="43.4269269" lon="10.5649813"><ele>194.25</ele><time>2026-04-18T12:02:04.988Z</time></trkpt><trkpt lat="43.426833" lon="10.5648992"><ele>196.0</ele><time>2026-04-18T12:02:05.988Z</time></trkpt><trkpt lat="43.4267415" lon="10.5648213"><ele>196.0</ele><time>2026-04-18T12:02:06.988Z</time></trkpt><trkpt lat="43.4266578" lon="10.5647998"><ele>196.0</ele><time>2026-04-18T12:02:07.988Z</time></trkpt><trkpt lat="43.4265452" lon="10.5648043"><ele>196.0</ele><time>2026-04-18T12:02:08.988Z</time></trkpt><trkpt lat="43.4264351" lon="10.5648235"><ele>196.0</ele><time>2026-04-18T12:02:09.988Z</time></trkpt><trkpt lat="43.4263122" lon="10.5649059"><ele>196.0</ele><time>2026-04-18T12:02:10.988Z</time></trkpt><trkpt lat="43.4262045" lon="10.564946"><ele>197.75</ele><time>2026-04-18T12:02:11.988Z</time></trkpt><trkpt lat="43.4260911" lon="10.5649637"><ele>199.5</ele><time>2026-04-18T12:02:12.988Z</time></trkpt><trkpt lat="43.42595" lon="10.5649299"><ele>201.25</ele><time>2026-04-18T12:02:13.988Z</time></trkpt><trkpt lat="43.4258187" lon="10.5648883"><ele>203.0</ele><time>2026-04-18T12:02:14.988Z</time></trkpt><trkpt lat="43.4257092" lon="10.5648622"><ele>203.0</ele><time>2026-04-18T12:02:15.988Z</time></trkpt><trkpt lat="43.4255941" lon="10.5648818"><ele>203.0</ele><time>2026-04-18T12:02:16.988Z</time></trkpt><trkpt lat="43.425493" lon="10.5649529"><ele>203.0</ele><time>2026-04-18T12:02:17.988Z</time></trkpt><trkpt lat="43.4253941" lon="10.5650217"><ele>203.0</ele><time>2026-04-18T12:02:18.988Z</time></trkpt><trkpt lat="43.425283" lon="10.5651358"><ele>203.75</ele><time>2026-04-18T12:02:19.988Z</time></trkpt><trkpt lat="43.4252118" lon="10.5652627"><ele>204.5</ele><time>2026-04-18T12:02:20.988Z</time></trkpt><trkpt lat="43.4252561" lon="10.5654702"><ele>205.25</ele><time>2026-04-18T12:02:21.988Z</time></trkpt><trkpt lat="43.425244" lon="10.5656077"><ele>206.0</ele><time>2026-04-18T12:02:22.989Z</time></trkpt><trkpt lat="43.4252484" lon="10.5657609"><ele>207.00000000000003</ele><time>2026-04-18T12:02:23.989Z</time></trkpt><trkpt lat="43.4253104" lon="10.5659008"><ele>208.0</ele><time>2026-04-18T12:02:24.988Z</time></trkpt><trkpt lat="43.4253491" lon="10.5660309"><ele>209.0</ele><time>2026-04-18T12:02:25.988Z</time></trkpt><trkpt lat="43.4253661" lon="10.566121"><ele>210.0</ele><time>2026-04-18T12:02:26.989Z</time></trkpt><trkpt lat="43.4253816" lon="10.566229"><ele>211.00000000000003</ele><time>2026-04-18T12:02:27.988Z</time></trkpt><trkpt lat="43.425359" lon="10.566332"><ele>212.0</ele><time>2026-04-18T12:02:28.988Z</time></trkpt><trkpt lat="43.4252791" lon="10.566504"><ele>216.0</ele><time>2026-04-18T12:02:30.988Z</time></trkpt><trkpt lat="43.4251251" lon="10.5665219"><ele>220.0</ele><time>2026-04-18T12:02:31.988Z</time></trkpt><trkpt lat="43.4249889" lon="10.5664879"><ele>224.0</ele><time>2026-04-18T12:02:32.988Z</time></trkpt><trkpt lat="43.4248701" lon="10.5663301"><ele>225.0</ele><time>2026-04-18T12:02:33.988Z</time></trkpt><trkpt lat="43.4247685" lon="10.5661792"><ele>226.0</ele><time>2026-04-18T12:02:34.988Z</time></trkpt><trkpt lat="43.4246796" lon="10.5660179"><ele>227.0</ele><time>2026-04-18T12:02:35.988Z</time></trkpt><trkpt lat="43.4246192" lon="10.5658339"><ele>228.0</ele><time>2026-04-18T12:02:36.988Z</time></trkpt><trkpt lat="43.4245751" lon="10.5656798"><ele>228.0</ele><time>2026-04-18T12:02:37.988Z</time></trkpt><trkpt lat="43.4245457" lon="10.5655246"><ele>228.0</ele><time>2026-04-18T12:02:38.988Z</time></trkpt><trkpt lat="43.4245124" lon="10.565382"><ele>228.0</ele><time>2026-04-18T12:02:39.988Z</time></trkpt><trkpt lat="43.4244587" lon="10.5652602"><ele>228.0</ele><time>2026-04-18T12:02:40.988Z</time></trkpt><trkpt lat="43.4243761" lon="10.5651432"><ele>228.0</ele><time>2026-04-18T12:02:41.989Z</time></trkpt><trkpt lat="43.4242758" lon="10.5650475"><ele>226.66666666666666</ele><time>2026-04-18T12:02:42.988Z</time></trkpt><trkpt lat="43.424177" lon="10.5649889"><ele>225.33333333333331</ele><time>2026-04-18T12:02:43.988Z</time></trkpt><trkpt lat="43.4240846" lon="10.5649713"><ele>224.0</ele><time>2026-04-18T12:02:44.988Z</time></trkpt><trkpt lat="43.4240048" lon="10.5650002"><ele>222.66666666666666</ele><time>2026-04-18T12:02:45.988Z</time></trkpt><trkpt lat="43.4239479" lon="10.5650682"><ele>221.33333333333331</ele><time>2026-04-18T12:02:46.988Z</time></trkpt><trkpt lat="43.4239257" lon="10.5651615"><ele>220.0</ele><time>2026-04-18T12:02:47.988Z</time></trkpt><trkpt lat="43.4239394" lon="10.5653001"><ele>222.0</ele><time>2026-04-18T12:02:48.988Z</time></trkpt><trkpt lat="43.4239692" lon="10.5654583"><ele>224.0</ele><time>2026-04-18T12:02:49.989Z</time></trkpt><trkpt lat="43.4240098" lon="10.5656346"><ele>226.0</ele><time>2026-04-18T12:02:50.988Z</time></trkpt><trkpt lat="43.4240644" lon="10.5658192"><ele>228.0</ele><time>2026-04-18T12:02:51.989Z</time></trkpt><trkpt lat="43.4241143" lon="10.5659882"><ele>228.0</ele><time>2026-04-18T12:02:52.988Z</time></trkpt><trkpt lat="43.4241762" lon="10.5661324"><ele>228.0</ele><time>2026-04-18T12:02:53.988Z</time></trkpt><trkpt lat="43.4242273" lon="10.5662566"><ele>228.0</ele><time>2026-04-18T12:02:54.988Z</time></trkpt><trkpt lat="43.424256" lon="10.5663842"><ele>228.0</ele><time>2026-04-18T12:02:55.988Z</time></trkpt><trkpt lat="43.4242712" lon="10.5665099"><ele>228.0</ele><time>2026-04-18T12:02:56.988Z</time></trkpt><trkpt lat="43.42426" lon="10.5666287"><ele>229.0</ele><time>2026-04-18T12:02:57.988Z</time></trkpt><trkpt lat="43.4242074" lon="10.5667448"><ele>230.0</ele><time>2026-04-18T12:02:58.988Z</time></trkpt><trkpt lat="43.4240994" lon="10.5666983"><ele>231.0</ele><time>2026-04-18T12:02:59.988Z</time></trkpt><trkpt lat="43.4239866" lon="10.5666449"><ele>232.0</ele><time>2026-04-18T12:03:00.988Z</time></trkpt><trkpt lat="43.4238542" lon="10.5665519"><ele>233.0</ele><time>2026-04-18T12:03:01.988Z</time></trkpt><trkpt lat="43.4237476" lon="10.5665135"><ele>234.0</ele><time>2026-04-18T12:03:02.988Z</time></trkpt><trkpt lat="43.4236303" lon="10.5665112"><ele>235.0</ele><time>2026-04-18T12:03:03.988Z</time></trkpt><trkpt lat="43.4235054" lon="10.5665424"><ele>236.0</ele><time>2026-04-18T12:03:04.988Z</time></trkpt><trkpt lat="43.4233812" lon="10.5665874"><ele>236.0</ele><time>2026-04-18T12:03:05.989Z</time></trkpt><trkpt lat="43.423266" lon="10.5666366"><ele>236.0</ele><time>2026-04-18T12:03:06.988Z</time></trkpt><trkpt lat="43.4231449" lon="10.5666839"><ele>236.0</ele><time>2026-04-18T12:03:07.988Z</time></trkpt><trkpt lat="43.4230279" lon="10.5667027"><ele>236.0</ele><time>2026-04-18T12:03:08.988Z</time></trkpt><trkpt lat="43.4229023" lon="10.5666944"><ele>237.25</ele><time>2026-04-18T12:03:09.988Z</time></trkpt><trkpt lat="43.4227756" lon="10.5666637"><ele>238.5</ele><time>2026-04-18T12:03:10.988Z</time></trkpt><trkpt lat="43.4226386" lon="10.5666158"><ele>239.75</ele><time>2026-04-18T12:03:11.988Z</time></trkpt><trkpt lat="43.4225028" lon="10.5665752"><ele>241.0</ele><time>2026-04-18T12:03:12.988Z</time></trkpt><trkpt lat="43.4223702" lon="10.5665569"><ele>241.0</ele><time>2026-04-18T12:03:13.988Z</time></trkpt><trkpt lat="43.4222476" lon="10.5665565"><ele>241.0</ele><time>2026-04-18T12:03:14.988Z</time></trkpt><trkpt lat="43.4221253" lon="10.5665758"><ele>241.0</ele><time>2026-04-18T12:03:15.988Z</time></trkpt><trkpt lat="43.4220047" lon="10.5666214"><ele>241.0</ele><time>2026-04-18T12:03:16.988Z</time></trkpt><trkpt lat="43.4218816" lon="10.5666847"><ele>241.0</ele><time>2026-04-18T12:03:17.988Z</time></trkpt><trkpt lat="43.4217625" lon="10.5667651"><ele>241.0</ele><time>2026-04-18T12:03:18.988Z</time></trkpt><trkpt lat="43.4216522" lon="10.566838"><ele>241.0</ele><time>2026-04-18T12:03:19.988Z</time></trkpt><trkpt lat="43.4215486" lon="10.5668923"><ele>241.0</ele><time>2026-04-18T12:03:20.989Z</time></trkpt><trkpt lat="43.4214478" lon="10.5669539"><ele>242.60000000000002</ele><time>2026-04-18T12:03:21.988Z</time></trkpt><trkpt lat="43.421355" lon="10.5670297"><ele>244.20000000000002</ele><time>2026-04-18T12:03:22.988Z</time></trkpt><trkpt lat="43.4212753" lon="10.5671195"><ele>245.79999999999998</ele><time>2026-04-18T12:03:23.988Z</time></trkpt><trkpt lat="43.4212114" lon="10.5672285"><ele>247.39999999999998</ele><time>2026-04-18T12:03:24.988Z</time></trkpt><trkpt lat="43.4211669" lon="10.567354"><ele>249.0</ele><time>2026-04-18T12:03:25.988Z</time></trkpt><trkpt lat="43.4211478" lon="10.5674938"><ele>250.5</ele><time>2026-04-18T12:03:26.989Z</time></trkpt><trkpt lat="43.4211487" lon="10.5676414"><ele>252.0</ele><time>2026-04-18T12:03:27.988Z</time></trkpt><trkpt lat="43.4212" lon="10.5677849"><ele>253.5</ele><time>2026-04-18T12:03:28.988Z</time></trkpt><trkpt lat="43.4212642" lon="10.5679362"><ele>255.0</ele><time>2026-04-18T12:03:29.989Z</time></trkpt><trkpt lat="43.4213436" lon="10.5680632"><ele>255.0</ele><time>2026-04-18T12:03:30.988Z</time></trkpt><trkpt lat="43.421434" lon="10.568176"><ele>255.0</ele><time>2026-04-18T12:03:31.988Z</time></trkpt><trkpt lat="43.4215378" lon="10.5682551"><ele>255.0</ele><time>2026-04-18T12:03:32.989Z</time></trkpt><trkpt lat="43.4216452" lon="10.5683081"><ele>255.0</ele><time>2026-04-18T12:03:33.988Z</time></trkpt><trkpt lat="43.4217697" lon="10.5683315"><ele>255.0</ele><time>2026-04-18T12:03:34.988Z</time></trkpt><trkpt lat="43.4219" lon="10.5683188"><ele>255.0</ele><time>2026-04-18T12:03:35.988Z</time></trkpt><trkpt lat="43.4220304" lon="10.5683065"><ele>255.0</ele><time>2026-04-18T12:03:36.988Z</time></trkpt><trkpt lat="43.4221506" lon="10.5683052"><ele>255.0</ele><time>2026-04-18T12:03:37.988Z</time></trkpt><trkpt lat="43.4222655" lon="10.5683327"><ele>254.75</ele><time>2026-04-18T12:03:38.989Z</time></trkpt><trkpt lat="43.422364" lon="10.5684084"><ele>254.5</ele><time>2026-04-18T12:03:39.988Z</time></trkpt><trkpt lat="43.4224528" lon="10.5685212"><ele>254.25</ele><time>2026-04-18T12:03:40.988Z</time></trkpt><trkpt lat="43.4225344" lon="10.5686425"><ele>254.0</ele><time>2026-04-18T12:03:41.988Z</time></trkpt><trkpt lat="43.4226269" lon="10.5687372"><ele>255.75</ele><time>2026-04-18T12:03:42.988Z</time></trkpt><trkpt lat="43.4227427" lon="10.5687976"><ele>257.5</ele><time>2026-04-18T12:03:43.988Z</time></trkpt><trkpt lat="43.4228675" lon="10.5688297"><ele>259.25</ele><time>2026-04-18T12:03:44.988Z</time></trkpt><trkpt lat="43.4229977" lon="10.5688298"><ele>261.0</ele><time>2026-04-18T12:03:45.988Z</time></trkpt><trkpt lat="43.4231117" lon="10.5688358"><ele>261.0</ele><time>2026-04-18T12:03:46.988Z</time></trkpt><trkpt lat="43.4232214" lon="10.5688703"><ele>261.0</ele><time>2026-04-18T12:03:47.988Z</time></trkpt><trkpt lat="43.4233239" lon="10.5689387"><ele>261.0</ele><time>2026-04-18T12:03:48.988Z</time></trkpt><trkpt lat="43.4234302" lon="10.5690158"><ele>261.0</ele><time>2026-04-18T12:03:49.988Z</time></trkpt><trkpt lat="43.4234902" lon="10.5692004"><ele>261.0</ele><time>2026-04-18T12:03:50.988Z</time></trkpt><trkpt lat="43.4235621" lon="10.5693589"><ele>261.0</ele><time>2026-04-18T12:03:51.988Z</time></trkpt><trkpt lat="43.4236428" lon="10.5695011"><ele>261.0</ele><time>2026-04-18T12:03:52.988Z</time></trkpt><trkpt lat="43.4237228" lon="10.5696213"><ele>261.0</ele><time>2026-04-18T12:03:53.988Z</time></trkpt><trkpt lat="43.4238155" lon="10.5697053"><ele>262.25</ele><time>2026-04-18T12:03:54.988Z</time></trkpt><trkpt lat="43.4239182" lon="10.5697665"><ele>263.5</ele><time>2026-04-18T12:03:55.988Z</time></trkpt><trkpt lat="43.4240554" lon="10.5697894"><ele>264.75</ele><time>2026-04-18T12:03:56.988Z</time></trkpt><trkpt lat="43.424197" lon="10.5698199"><ele>266.0</ele><time>2026-04-18T12:03:57.988Z</time></trkpt><trkpt lat="43.4243293" lon="10.5698389"><ele>266.0</ele><time>2026-04-18T12:03:58.988Z</time></trkpt><trkpt lat="43.424452" lon="10.5698567"><ele>266.0</ele><time>2026-04-18T12:03:59.988Z</time></trkpt><trkpt lat="43.4245663" lon="10.5698672"><ele>266.0</ele><time>2026-04-18T12:04:00.988Z</time></trkpt><trkpt lat="43.4246702" lon="10.5698857"><ele>266.0</ele><time>2026-04-18T12:04:01.988Z</time></trkpt><trkpt lat="43.4247657" lon="10.5699115"><ele>266.0</ele><time>2026-04-18T12:04:02.988Z</time></trkpt><trkpt lat="43.4248564" lon="10.569958"><ele>266.2</ele><time>2026-04-18T12:04:03.988Z</time></trkpt><trkpt lat="43.4249117" lon="10.5700673"><ele>266.40000000000003</ele><time>2026-04-18T12:04:04.988Z</time></trkpt><trkpt lat="43.4249611" lon="10.5701753"><ele>266.6</ele><time>2026-04-18T12:04:05.988Z</time></trkpt><trkpt lat="43.4249775" lon="10.5702838"><ele>266.8</ele><time>2026-04-18T12:04:06.988Z</time></trkpt><trkpt lat="43.4249475" lon="10.5703901"><ele>267.0</ele><time>2026-04-18T12:04:07.988Z</time></trkpt><trkpt lat="43.4248703" lon="10.5705417"><ele>267.0</ele><time>2026-04-18T12:04:08.988Z</time></trkpt><trkpt lat="43.4247238" lon="10.5707047"><ele>267.0</ele><time>2026-04-18T12:04:09.988Z</time></trkpt><trkpt lat="43.424609" lon="10.5708366"><ele>267.0</ele><time>2026-04-18T12:04:10.988Z</time></trkpt><trkpt lat="43.4244772" lon="10.5709327"><ele>268.75</ele><time>2026-04-18T12:04:11.988Z</time></trkpt><trkpt lat="43.4243506" lon="10.5710167"><ele>270.5</ele><time>2026-04-18T12:04:12.988Z</time></trkpt><trkpt lat="43.4242144" lon="10.5710675"><ele>272.25</ele><time>2026-04-18T12:04:13.988Z</time></trkpt><trkpt lat="43.4240742" lon="10.571073"><ele>274.0</ele><time>2026-04-18T12:04:14.989Z</time></trkpt><trkpt lat="43.4239325" lon="10.5710496"><ele>275.25</ele><time>2026-04-18T12:04:15.988Z</time></trkpt><trkpt lat="43.4238021" lon="10.5710005"><ele>276.5</ele><time>2026-04-18T12:04:16.988Z</time></trkpt><trkpt lat="43.4236721" lon="10.570971"><ele>277.75</ele><time>2026-04-18T12:04:17.988Z</time></trkpt><trkpt lat="43.4235335" lon="10.5709794"><ele>279.0</ele><time>2026-04-18T12:04:18.988Z</time></trkpt><trkpt lat="43.4233905" lon="10.5710131"><ele>279.0</ele><time>2026-04-18T12:04:19.988Z</time></trkpt><trkpt lat="43.423257" lon="10.5710447"><ele>279.0</ele><time>2026-04-18T12:04:20.988Z</time></trkpt><trkpt lat="43.4231324" lon="10.5710533"><ele>279.0</ele><time>2026-04-18T12:04:21.988Z</time></trkpt><trkpt lat="43.4230068" lon="10.5710355"><ele>279.0</ele><time>2026-04-18T12:04:22.988Z</time></trkpt><trkpt lat="43.4228876" lon="10.5709736"><ele>280.5</ele><time>2026-04-18T12:04:23.988Z</time></trkpt><trkpt lat="43.4227737" lon="10.5709058"><ele>282.0</ele><time>2026-04-18T12:04:24.988Z</time></trkpt><trkpt lat="43.4226598" lon="10.5708382"><ele>283.5</ele><time>2026-04-18T12:04:25.988Z</time></trkpt><trkpt lat="43.422554" lon="10.5707822"><ele>285.0</ele><time>2026-04-18T12:04:26.988Z</time></trkpt><trkpt lat="43.4224391" lon="10.5707639"><ele>285.0</ele><time>2026-04-18T12:04:27.988Z</time></trkpt><trkpt lat="43.4223245" lon="10.5707805"><ele>285.0</ele><time>2026-04-18T12:04:28.988Z</time></trkpt><trkpt lat="43.4222187" lon="10.570836"><ele>285.0</ele><time>2026-04-18T12:04:29.988Z</time></trkpt><trkpt lat="43.4221206" lon="10.5709151"><ele>285.0</ele><time>2026-04-18T12:04:30.988Z</time></trkpt><trkpt lat="43.4220334" lon="10.570986"><ele>285.0</ele><time>2026-04-18T12:04:31.988Z</time></trkpt><trkpt lat="43.4219373" lon="10.5710395"><ele>287.25</ele><time>2026-04-18T12:04:32.988Z</time></trkpt><trkpt lat="43.4218278" lon="10.571065"><ele>289.5</ele><time>2026-04-18T12:04:33.988Z</time></trkpt><trkpt lat="43.4217159" lon="10.571066"><ele>291.75</ele><time>2026-04-18T12:04:34.988Z</time></trkpt><trkpt lat="43.4215974" lon="10.5710327"><ele>294.0</ele><time>2026-04-18T12:04:35.988Z</time></trkpt><trkpt lat="43.4214852" lon="10.5709711"><ele>294.0</ele><time>2026-04-18T12:04:36.988Z</time></trkpt><trkpt lat="43.4213727" lon="10.5708592"><ele>294.0</ele><time>2026-04-18T12:04:37.988Z</time></trkpt><trkpt lat="43.4212727" lon="10.5707476"><ele>294.0</ele><time>2026-04-18T12:04:38.989Z</time></trkpt><trkpt lat="43.4211767" lon="10.570629"><ele>294.0</ele><time>2026-04-18T12:04:39.988Z</time></trkpt><trkpt lat="43.4210722" lon="10.5705416"><ele>296.5</ele><time>2026-04-18T12:04:40.988Z</time></trkpt><trkpt lat="43.4209531" lon="10.570457"><ele>299.0</ele><time>2026-04-18T12:04:41.988Z</time></trkpt><trkpt lat="43.4208257" lon="10.5704091"><ele>301.5</ele><time>2026-04-18T12:04:42.988Z</time></trkpt><trkpt lat="43.4206912" lon="10.570381"><ele>304.0</ele><time>2026-04-18T12:04:43.988Z</time></trkpt><trkpt lat="43.4205616" lon="10.5703604"><ele>303.5</ele><time>2026-04-18T12:04:44.988Z</time></trkpt><trkpt lat="43.4204364" lon="10.5703356"><ele>303.0</ele><time>2026-04-18T12:04:45.988Z</time></trkpt><trkpt lat="43.4203093" lon="10.5702941"><ele>302.5</ele><time>2026-04-18T12:04:46.988Z</time></trkpt><trkpt lat="43.4201918" lon="10.5702319"><ele>302.0</ele><time>2026-04-18T12:04:47.988Z</time></trkpt><trkpt lat="43.4200764" lon="10.5701517"><ele>302.0</ele><time>2026-04-18T12:04:48.988Z</time></trkpt><trkpt lat="43.4199726" lon="10.5700422"><ele>302.0</ele><time>2026-04-18T12:04:49.988Z</time></trkpt><trkpt lat="43.4198705" lon="10.5699032"><ele>302.0</ele><time>2026-04-18T12:04:50.988Z</time></trkpt><trkpt lat="43.4197755" lon="10.5697644"><ele>302.0</ele><time>2026-04-18T12:04:51.989Z</time></trkpt><trkpt lat="43.419691" lon="10.5696288"><ele>303.5</ele><time>2026-04-18T12:04:52.988Z</time></trkpt><trkpt lat="43.419614" lon="10.5694945"><ele>305.0</ele><time>2026-04-18T12:04:53.988Z</time></trkpt><trkpt lat="43.4195445" lon="10.5693593"><ele>306.5</ele><time>2026-04-18T12:04:54.988Z</time></trkpt><trkpt lat="43.4194705" lon="10.5692542"><ele>308.0</ele><time>2026-04-18T12:04:55.988Z</time></trkpt><trkpt lat="43.4193857" lon="10.5691753"><ele>308.0</ele><time>2026-04-18T12:04:56.988Z</time></trkpt><trkpt lat="43.4192788" lon="10.569126"><ele>308.0</ele><time>2026-04-18T12:04:57.989Z</time></trkpt><trkpt lat="43.4191524" lon="10.5691079"><ele>308.0</ele><time>2026-04-18T12:04:58.988Z</time></trkpt><trkpt lat="43.4190083" lon="10.5691067"><ele>308.0</ele><time>2026-04-18T12:04:59.988Z</time></trkpt><trkpt lat="43.418875" lon="10.5691026"><ele>308.0</ele><time>2026-04-18T12:05:00.988Z</time></trkpt><trkpt lat="43.4187683" lon="10.5691139"><ele>308.0</ele><time>2026-04-18T12:05:01.989Z</time></trkpt><trkpt lat="43.4186663" lon="10.5691649"><ele>308.0</ele><time>2026-04-18T12:05:02.988Z</time></trkpt><trkpt lat="43.4185684" lon="10.5692559"><ele>308.0</ele><time>2026-04-18T12:05:03.988Z</time></trkpt><trkpt lat="43.4184826" lon="10.5693769"><ele>308.0</ele><time>2026-04-18T12:05:04.988Z</time></trkpt><trkpt lat="43.4184154" lon="10.569494"><ele>308.0</ele><time>2026-04-18T12:05:05.988Z</time></trkpt><trkpt lat="43.4183356" lon="10.5695864"><ele>308.0</ele><time>2026-04-18T12:05:06.988Z</time></trkpt><trkpt lat="43.4182459" lon="10.5696429"><ele>308.0</ele><time>2026-04-18T12:05:07.988Z</time></trkpt><trkpt lat="43.4181487" lon="10.5696523"><ele>308.0</ele><time>2026-04-18T12:05:08.988Z</time></trkpt><trkpt lat="43.4180501" lon="10.5696034"><ele>311.0</ele><time>2026-04-18T12:05:09.988Z</time></trkpt><trkpt lat="43.4179504" lon="10.5695421"><ele>314.0</ele><time>2026-04-18T12:05:10.988Z</time></trkpt><trkpt lat="43.4178305" lon="10.5695113"><ele>317.0</ele><time>2026-04-18T12:05:11.988Z</time></trkpt><trkpt lat="43.4177114" lon="10.569501"><ele>320.0</ele><time>2026-04-18T12:05:12.988Z</time></trkpt><trkpt lat="43.4176077" lon="10.5694612"><ele>320.0</ele><time>2026-04-18T12:05:13.988Z</time></trkpt><trkpt lat="43.4175222" lon="10.5693698"><ele>320.0</ele><time>2026-04-18T12:05:14.989Z</time></trkpt><trkpt lat="43.4174482" lon="10.5692556"><ele>320.0</ele><time>2026-04-18T12:05:15.988Z</time></trkpt><trkpt lat="43.4174044" lon="10.5691037"><ele>320.0</ele><time>2026-04-18T12:05:16.988Z</time></trkpt><trkpt lat="43.4173809" lon="10.5689186"><ele>320.0</ele><time>2026-04-18T12:05:17.988Z</time></trkpt><trkpt lat="43.4173608" lon="10.5687381"><ele>320.0</ele><time>2026-04-18T12:05:18.988Z</time></trkpt><trkpt lat="43.4173235" lon="10.56858"><ele>320.0</ele><time>2026-04-18T12:05:19.988Z</time></trkpt><trkpt lat="43.4172769" lon="10.568449"><ele>320.0</ele><time>2026-04-18T12:05:20.988Z</time></trkpt><trkpt lat="43.4172086" lon="10.5683504"><ele>320.75</ele><time>2026-04-18T12:05:21.988Z</time></trkpt><trkpt lat="43.4171106" lon="10.568279"><ele>321.5</ele><time>2026-04-18T12:05:22.988Z</time></trkpt><trkpt lat="43.4169955" lon="10.5682422"><ele>322.25</ele><time>2026-04-18T12:05:23.988Z</time></trkpt><trkpt lat="43.4168571" lon="10.5682319"><ele>323.0</ele><time>2026-04-18T12:05:24.988Z</time></trkpt><trkpt lat="43.4167197" lon="10.568231"><ele>323.0</ele><time>2026-04-18T12:05:25.988Z</time></trkpt><trkpt lat="43.4165829" lon="10.56823"><ele>323.0</ele><time>2026-04-18T12:05:26.988Z</time></trkpt><trkpt lat="43.4164526" lon="10.5682358"><ele>323.0</ele><time>2026-04-18T12:05:27.988Z</time></trkpt><trkpt lat="43.4163376" lon="10.5682468"><ele>323.0</ele><time>2026-04-18T12:05:28.988Z</time></trkpt><trkpt lat="43.4162373" lon="10.568287"><ele>322.59999999999997</ele><time>2026-04-18T12:05:29.988Z</time></trkpt><trkpt lat="43.4161526" lon="10.5683572"><ele>322.2</ele><time>2026-04-18T12:05:30.988Z</time></trkpt><trkpt lat="43.4160867" lon="10.5684519"><ele>321.8</ele><time>2026-04-18T12:05:31.988Z</time></trkpt><trkpt lat="43.416048" lon="10.5685734"><ele>321.4</ele><time>2026-04-18T12:05:32.988Z</time></trkpt><trkpt lat="43.4160444" lon="10.5687185"><ele>321.0</ele><time>2026-04-18T12:05:33.988Z</time></trkpt><trkpt lat="43.4160744" lon="10.5688503"><ele>321.0</ele><time>2026-04-18T12:05:34.988Z</time></trkpt><trkpt lat="43.4161382" lon="10.568969"><ele>321.0</ele><time>2026-04-18T12:05:35.988Z</time></trkpt><trkpt lat="43.4162343" lon="10.5690765"><ele>321.0</ele><time>2026-04-18T12:05:36.988Z</time></trkpt><trkpt lat="43.4163532" lon="10.5691699"><ele>321.0</ele><time>2026-04-18T12:05:37.988Z</time></trkpt><trkpt lat="43.4164667" lon="10.5692499"><ele>323.75</ele><time>2026-04-18T12:05:38.988Z</time></trkpt><trkpt lat="43.4165571" lon="10.5693453"><ele>326.5</ele><time>2026-04-18T12:05:39.988Z</time></trkpt><trkpt lat="43.4166144" lon="10.5694719"><ele>329.25</ele><time>2026-04-18T12:05:40.989Z</time></trkpt><trkpt lat="43.4166575" lon="10.5696314"><ele>332.0</ele><time>2026-04-18T12:05:41.989Z</time></trkpt><trkpt lat="43.4166922" lon="10.569832"><ele>333.33333333333337</ele><time>2026-04-18T12:05:42.988Z</time></trkpt><trkpt lat="43.4167168" lon="10.5700594"><ele>334.6666666666667</ele><time>2026-04-18T12:05:43.989Z</time></trkpt><trkpt lat="43.4167199" lon="10.5702974"><ele>336.0</ele><time>2026-04-18T12:05:44.988Z</time></trkpt><trkpt lat="43.4167159" lon="10.5705334"><ele>336.5</ele><time>2026-04-18T12:05:45.988Z</time></trkpt><trkpt lat="43.4167172" lon="10.570747"><ele>337.0</ele><time>2026-04-18T12:05:46.989Z</time></trkpt><trkpt lat="43.416714" lon="10.5709418"><ele>337.5</ele><time>2026-04-18T12:05:47.988Z</time></trkpt><trkpt lat="43.4167117" lon="10.5711212"><ele>338.0</ele><time>2026-04-18T12:05:48.988Z</time></trkpt><trkpt lat="43.4166944" lon="10.5712954"><ele>339.75</ele><time>2026-04-18T12:05:49.988Z</time></trkpt><trkpt lat="43.4166493" lon="10.5714572"><ele>341.5</ele><time>2026-04-18T12:05:50.988Z</time></trkpt><trkpt lat="43.4165846" lon="10.5715968"><ele>343.25</ele><time>2026-04-18T12:05:51.988Z</time></trkpt><trkpt lat="43.4164931" lon="10.5717154"><ele>345.0</ele><time>2026-04-18T12:05:52.988Z</time></trkpt><trkpt lat="43.416402" lon="10.5718032"><ele>345.4</ele><time>2026-04-18T12:05:53.988Z</time></trkpt><trkpt lat="43.4163161" lon="10.5718696"><ele>345.8</ele><time>2026-04-18T12:05:54.988Z</time></trkpt><trkpt lat="43.41624" lon="10.5719359"><ele>346.20000000000005</ele><time>2026-04-18T12:05:55.988Z</time></trkpt><trkpt lat="43.416174" lon="10.57202"><ele>346.6</ele><time>2026-04-18T12:05:56.988Z</time></trkpt><trkpt lat="43.4161203" lon="10.5721349"><ele>347.0</ele><time>2026-04-18T12:05:57.989Z</time></trkpt><trkpt lat="43.4160755" lon="10.5722787"><ele>347.0</ele><time>2026-04-18T12:05:58.988Z</time></trkpt><trkpt lat="43.4160265" lon="10.57243"><ele>347.0</ele><time>2026-04-18T12:05:59.988Z</time></trkpt><trkpt lat="43.4159765" lon="10.5725984"><ele>347.0</ele><time>2026-04-18T12:06:00.988Z</time></trkpt><trkpt lat="43.4159299" lon="10.5727657"><ele>347.0</ele><time>2026-04-18T12:06:01.988Z</time></trkpt><trkpt lat="43.4158846" lon="10.5729334"><ele>348.5</ele><time>2026-04-18T12:06:02.988Z</time></trkpt><trkpt lat="43.4158459" lon="10.5730976"><ele>350.0</ele><time>2026-04-18T12:06:03.988Z</time></trkpt><trkpt lat="43.415808" lon="10.5732659"><ele>351.5</ele><time>2026-04-18T12:06:04.988Z</time></trkpt><trkpt lat="43.4157767" lon="10.5734134"><ele>353.0</ele><time>2026-04-18T12:06:05.988Z</time></trkpt><trkpt lat="43.4157432" lon="10.573559"><ele>355.0</ele><time>2026-04-18T12:06:06.988Z</time></trkpt><trkpt lat="43.4157015" lon="10.5737043"><ele>357.0</ele><time>2026-04-18T12:06:07.988Z</time></trkpt><trkpt lat="43.41565" lon="10.5738443"><ele>359.0</ele><time>2026-04-18T12:06:08.988Z</time></trkpt><trkpt lat="43.4155911" lon="10.5739834"><ele>361.0</ele><time>2026-04-18T12:06:09.988Z</time></trkpt><trkpt lat="43.4155057" lon="10.5741041"><ele>361.6</ele><time>2026-04-18T12:06:10.988Z</time></trkpt><trkpt lat="43.4154324" lon="10.574221"><ele>362.20000000000005</ele><time>2026-04-18T12:06:11.988Z</time></trkpt><trkpt lat="43.4153257" lon="10.5743013"><ele>362.79999999999995</ele><time>2026-04-18T12:06:12.988Z</time></trkpt><trkpt lat="43.4152338" lon="10.5743775"><ele>363.4</ele><time>2026-04-18T12:06:13.988Z</time></trkpt><trkpt lat="43.4151461" lon="10.5744536"><ele>364.0</ele><time>2026-04-18T12:06:14.988Z</time></trkpt><trkpt lat="43.4150648" lon="10.5745463"><ele>364.0</ele><time>2026-04-18T12:06:15.988Z</time></trkpt><trkpt lat="43.4149994" lon="10.5746675"><ele>364.0</ele><time>2026-04-18T12:06:16.988Z</time></trkpt><trkpt lat="43.4149533" lon="10.5748033"><ele>364.0</ele><time>2026-04-18T12:06:17.988Z</time></trkpt><trkpt lat="43.4149063" lon="10.5749526"><ele>364.0</ele><time>2026-04-18T12:06:18.988Z</time></trkpt><trkpt lat="43.414854" lon="10.5750976"><ele>364.0</ele><time>2026-04-18T12:06:19.988Z</time></trkpt><trkpt lat="43.4147803" lon="10.5752323"><ele>364.0</ele><time>2026-04-18T12:06:20.989Z</time></trkpt><trkpt lat="43.4146892" lon="10.5753494"><ele>364.0</ele><time>2026-04-18T12:06:21.988Z</time></trkpt><trkpt lat="43.4145794" lon="10.5754445"><ele>364.0</ele><time>2026-04-18T12:06:22.988Z</time></trkpt><trkpt lat="43.4144825" lon="10.5755277"><ele>365.4</ele><time>2026-04-18T12:06:23.989Z</time></trkpt><trkpt lat="43.4143866" lon="10.5756043"><ele>366.79999999999995</ele><time>2026-04-18T12:06:24.988Z</time></trkpt><trkpt lat="43.4142958" lon="10.5756707"><ele>368.20000000000005</ele><time>2026-04-18T12:06:25.988Z</time></trkpt><trkpt lat="43.4142056" lon="10.5757463"><ele>369.6</ele><time>2026-04-18T12:06:26.988Z</time></trkpt><trkpt lat="43.4141202" lon="10.5758193"><ele>371.0</ele><time>2026-04-18T12:06:27.988Z</time></trkpt><trkpt lat="43.4140426" lon="10.5758909"><ele>371.0</ele><time>2026-04-18T12:06:28.988Z</time></trkpt><trkpt lat="43.4139591" lon="10.5760322"><ele>371.0</ele><time>2026-04-18T12:06:30.988Z</time></trkpt><trkpt lat="43.4138954" lon="10.5761012"><ele>371.0</ele><time>2026-04-18T12:06:31.988Z</time></trkpt><trkpt lat="43.4138366" lon="10.5761683"><ele>371.0</ele><time>2026-04-18T12:06:32.988Z</time></trkpt><trkpt lat="43.4137749" lon="10.5762208"><ele>371.0</ele><time>2026-04-18T12:06:33.989Z</time></trkpt><trkpt lat="43.4137033" lon="10.5762731"><ele>371.0</ele><time>2026-04-18T12:06:34.988Z</time></trkpt><trkpt lat="43.413629" lon="10.576312"><ele>371.1666666666667</ele><time>2026-04-18T12:06:35.989Z</time></trkpt><trkpt lat="43.413552" lon="10.5763577"><ele>371.33333333333337</ele><time>2026-04-18T12:06:36.989Z</time></trkpt><trkpt lat="43.4134741" lon="10.5764022"><ele>371.5</ele><time>2026-04-18T12:06:37.989Z</time></trkpt><trkpt lat="43.4133908" lon="10.5764512"><ele>371.6666666666667</ele><time>2026-04-18T12:06:38.988Z</time></trkpt><trkpt lat="43.4133091" lon="10.5764932"><ele>371.8333333333333</ele><time>2026-04-18T12:06:39.988Z</time></trkpt><trkpt lat="43.4132267" lon="10.5765277"><ele>372.0</ele><time>2026-04-18T12:06:40.988Z</time></trkpt><trkpt lat="43.4131436" lon="10.5765457"><ele>372.00000000000006</ele><time>2026-04-18T12:06:41.988Z</time></trkpt><trkpt lat="43.4130662" lon="10.5765563"><ele>372.0</ele><time>2026-04-18T12:06:42.988Z</time></trkpt><trkpt lat="43.4129893" lon="10.5765696"><ele>372.0</ele><time>2026-04-18T12:06:43.988Z</time></trkpt><trkpt lat="43.4129217" lon="10.576562"><ele>372.0</ele><time>2026-04-18T12:06:44.988Z</time></trkpt><trkpt lat="43.4128548" lon="10.5765615"><ele>372.0</ele><time>2026-04-18T12:06:45.988Z</time></trkpt><trkpt lat="43.4127853" lon="10.5765691"><ele>372.00000000000006</ele><time>2026-04-18T12:06:46.988Z</time></trkpt><trkpt lat="43.412723" lon="10.5765921"><ele>372.0</ele><time>2026-04-18T12:06:47.988Z</time></trkpt><trkpt lat="43.4126587" lon="10.5766714"><ele>372.3333333333333</ele><time>2026-04-18T12:06:48.988Z</time></trkpt><trkpt lat="43.4126055" lon="10.5767229"><ele>372.6666666666667</ele><time>2026-04-18T12:06:49.988Z</time></trkpt><trkpt lat="43.4125472" lon="10.5767727"><ele>373.0</ele><time>2026-04-18T12:06:50.988Z</time></trkpt><trkpt lat="43.4124561" lon="10.5768079"><ele>373.33333333333337</ele><time>2026-04-18T12:06:51.988Z</time></trkpt><trkpt lat="43.4123765" lon="10.576884"><ele>373.6666666666667</ele><time>2026-04-18T12:06:52.988Z</time></trkpt><trkpt lat="43.4123132" lon="10.5769486"><ele>374.0</ele><time>2026-04-18T12:06:53.988Z</time></trkpt><trkpt lat="43.4122433" lon="10.5770377"><ele>373.6</ele><time>2026-04-18T12:06:54.988Z</time></trkpt><trkpt lat="43.4121765" lon="10.5771191"><ele>373.2</ele><time>2026-04-18T12:06:55.988Z</time></trkpt><trkpt lat="43.4121106" lon="10.5772166"><ele>372.8</ele><time>2026-04-18T12:06:56.988Z</time></trkpt><trkpt lat="43.4120381" lon="10.5773241"><ele>372.40000000000003</ele><time>2026-04-18T12:06:57.988Z</time></trkpt><trkpt lat="43.4119672" lon="10.5774373"><ele>372.0</ele><time>2026-04-18T12:06:58.988Z</time></trkpt><trkpt lat="43.4118991" lon="10.5775402"><ele>372.0</ele><time>2026-04-18T12:06:59.988Z</time></trkpt><trkpt lat="43.4118368" lon="10.5776426"><ele>372.0</ele><time>2026-04-18T12:07:00.988Z</time></trkpt><trkpt lat="43.4117783" lon="10.5777277"><ele>372.0</ele><time>2026-04-18T12:07:01.988Z</time></trkpt><trkpt lat="43.4117147" lon="10.5778298"><ele>372.0</ele><time>2026-04-18T12:07:02.988Z</time></trkpt><trkpt lat="43.411669" lon="10.5779645"><ele>372.0</ele><time>2026-04-18T12:07:03.988Z</time></trkpt><trkpt lat="43.4116274" lon="10.5781067"><ele>372.40000000000003</ele><time>2026-04-18T12:07:04.988Z</time></trkpt><trkpt lat="43.4115856" lon="10.578232"><ele>372.8</ele><time>2026-04-18T12:07:05.988Z</time></trkpt><trkpt lat="43.4115395" lon="10.5783511"><ele>373.2</ele><time>2026-04-18T12:07:06.988Z</time></trkpt><trkpt lat="43.4114676" lon="10.5784363"><ele>373.6</ele><time>2026-04-18T12:07:07.988Z</time></trkpt><trkpt lat="43.4113856" lon="10.5785203"><ele>374.0</ele><time>2026-04-18T12:07:08.989Z</time></trkpt><trkpt lat="43.4112935" lon="10.5786042"><ele>374.0</ele><time>2026-04-18T12:07:09.988Z</time></trkpt><trkpt lat="43.4112013" lon="10.578671"><ele>374.0</ele><time>2026-04-18T12:07:10.988Z</time></trkpt><trkpt lat="43.4111159" lon="10.5787301"><ele>374.0</ele><time>2026-04-18T12:07:11.988Z</time></trkpt><trkpt lat="43.4110262" lon="10.5787656"><ele>374.0</ele><time>2026-04-18T12:07:12.988Z</time></trkpt><trkpt lat="43.4109377" lon="10.5787913"><ele>374.0</ele><time>2026-04-18T12:07:13.988Z</time></trkpt><trkpt lat="43.4108482" lon="10.5787779"><ele>374.0</ele><time>2026-04-18T12:07:14.988Z</time></trkpt><trkpt lat="43.410763" lon="10.5787528"><ele>374.0</ele><time>2026-04-18T12:07:15.988Z</time></trkpt><trkpt lat="43.4106739" lon="10.5786956"><ele>374.0</ele><time>2026-04-18T12:07:16.988Z</time></trkpt><trkpt lat="43.4105862" lon="10.5786251"><ele>374.0</ele><time>2026-04-18T12:07:17.988Z</time></trkpt><trkpt lat="43.4104948" lon="10.5785669"><ele>374.0</ele><time>2026-04-18T12:07:18.989Z</time></trkpt><trkpt lat="43.4103872" lon="10.5785202"><ele>375.0</ele><time>2026-04-18T12:07:19.988Z</time></trkpt><trkpt lat="43.4102711" lon="10.5784924"><ele>376.0</ele><time>2026-04-18T12:07:20.988Z</time></trkpt><trkpt lat="43.4101567" lon="10.5784735"><ele>377.0</ele><time>2026-04-18T12:07:21.988Z</time></trkpt><trkpt lat="43.4100379" lon="10.5784721"><ele>378.0</ele><time>2026-04-18T12:07:22.988Z</time></trkpt><trkpt lat="43.4099203" lon="10.5784693"><ele>378.0</ele><time>2026-04-18T12:07:23.988Z</time></trkpt><trkpt lat="43.4098058" lon="10.5784651"><ele>378.0</ele><time>2026-04-18T12:07:24.988Z</time></trkpt><trkpt lat="43.4096934" lon="10.5784664"><ele>378.0</ele><time>2026-04-18T12:07:25.988Z</time></trkpt><trkpt lat="43.4095734" lon="10.5784683"><ele>378.0</ele><time>2026-04-18T12:07:26.988Z</time></trkpt><trkpt lat="43.4094569" lon="10.5784704"><ele>378.79999999999995</ele><time>2026-04-18T12:07:27.988Z</time></trkpt><trkpt lat="43.4093443" lon="10.5784675"><ele>379.6</ele><time>2026-04-18T12:07:28.988Z</time></trkpt><trkpt lat="43.4092294" lon="10.5784646"><ele>380.4</ele><time>2026-04-18T12:07:29.988Z</time></trkpt><trkpt lat="43.4091238" lon="10.5784544"><ele>381.20000000000005</ele><time>2026-04-18T12:07:30.988Z</time></trkpt><trkpt lat="43.4090293" lon="10.5784476"><ele>382.0</ele><time>2026-04-18T12:07:31.988Z</time></trkpt><trkpt lat="43.408941" lon="10.5784501"><ele>382.0</ele><time>2026-04-18T12:07:32.988Z</time></trkpt><trkpt lat="43.4088688" lon="10.5784527"><ele>382.0</ele><time>2026-04-18T12:07:33.988Z</time></trkpt><trkpt lat="43.4088053" lon="10.5784587"><ele>382.0</ele><time>2026-04-18T12:07:34.988Z</time></trkpt><trkpt lat="43.4087154" lon="10.5784581"><ele>382.0</ele><time>2026-04-18T12:07:36.988Z</time></trkpt><trkpt lat="43.408592" lon="10.5784652"><ele>382.0</ele><time>2026-04-18T12:07:38.988Z</time></trkpt><trkpt lat="43.4085047" lon="10.5784869"><ele>382.0</ele><time>2026-04-18T12:07:39.988Z</time></trkpt><trkpt lat="43.408412" lon="10.5785051"><ele>382.0</ele><time>2026-04-18T12:07:40.988Z</time></trkpt><trkpt lat="43.4083106" lon="10.5785066"><ele>382.0</ele><time>2026-04-18T12:07:41.988Z</time></trkpt><trkpt lat="43.4082144" lon="10.5785122"><ele>382.0</ele><time>2026-04-18T12:07:42.988Z</time></trkpt><trkpt lat="43.4081141" lon="10.5785069"><ele>382.0</ele><time>2026-04-18T12:07:43.989Z</time></trkpt><trkpt lat="43.4080106" lon="10.5784961"><ele>382.0</ele><time>2026-04-18T12:07:44.988Z</time></trkpt><trkpt lat="43.4079131" lon="10.5784963"><ele>382.0</ele><time>2026-04-18T12:07:45.988Z</time></trkpt><trkpt lat="43.4078093" lon="10.5785031"><ele>382.0</ele><time>2026-04-18T12:07:46.988Z</time></trkpt><trkpt lat="43.407715" lon="10.5784979"><ele>382.0</ele><time>2026-04-18T12:07:47.988Z</time></trkpt><trkpt lat="43.4076199" lon="10.5784943"><ele>382.0</ele><time>2026-04-18T12:07:48.988Z</time></trkpt><trkpt lat="43.4075083" lon="10.578472"><ele>382.0</ele><time>2026-04-18T12:07:49.988Z</time></trkpt><trkpt lat="43.4074073" lon="10.5784089"><ele>382.0</ele><time>2026-04-18T12:07:50.988Z</time></trkpt><trkpt lat="43.4073157" lon="10.5783239"><ele>382.0</ele><time>2026-04-18T12:07:51.988Z</time></trkpt><trkpt lat="43.4072301" lon="10.5782213"><ele>382.0</ele><time>2026-04-18T12:07:52.988Z</time></trkpt><trkpt lat="43.407148" lon="10.578105"><ele>382.0</ele><time>2026-04-18T12:07:53.988Z</time></trkpt><trkpt lat="43.4070846" lon="10.5779588"><ele>383.25</ele><time>2026-04-18T12:07:54.988Z</time></trkpt><trkpt lat="43.4070339" lon="10.5777877"><ele>384.5</ele><time>2026-04-18T12:07:55.988Z</time></trkpt><trkpt lat="43.4070048" lon="10.5776045"><ele>385.75</ele><time>2026-04-18T12:07:56.988Z</time></trkpt><trkpt lat="43.4069693" lon="10.5774232"><ele>387.0</ele><time>2026-04-18T12:07:57.988Z</time></trkpt><trkpt lat="43.4069047" lon="10.5772613"><ele>387.0</ele><time>2026-04-18T12:07:58.988Z</time></trkpt><trkpt lat="43.4068187" lon="10.5771091"><ele>387.0</ele><time>2026-04-18T12:07:59.988Z</time></trkpt><trkpt lat="43.4067131" lon="10.5769715"><ele>387.0</ele><time>2026-04-18T12:08:00.988Z</time></trkpt><trkpt lat="43.4066063" lon="10.5768613"><ele>387.0</ele><time>2026-04-18T12:08:01.989Z</time></trkpt><trkpt lat="43.4064939" lon="10.5767492"><ele>388.25</ele><time>2026-04-18T12:08:02.988Z</time></trkpt><trkpt lat="43.4063871" lon="10.5766575"><ele>389.5</ele><time>2026-04-18T12:08:03.988Z</time></trkpt><trkpt lat="43.4062892" lon="10.5765297"><ele>390.75</ele><time>2026-04-18T12:08:04.988Z</time></trkpt><trkpt lat="43.4062076" lon="10.5763851"><ele>392.0</ele><time>2026-04-18T12:08:05.988Z</time></trkpt><trkpt lat="43.4061259" lon="10.57623"><ele>389.0</ele><time>2026-04-18T12:08:06.988Z</time></trkpt><trkpt lat="43.4060119" lon="10.5760575"><ele>386.0</ele><time>2026-04-18T12:08:07.988Z</time></trkpt><trkpt lat="43.405885" lon="10.5759082"><ele>383.0</ele><time>2026-04-18T12:08:08.988Z</time></trkpt><trkpt lat="43.4057781" lon="10.5757575"><ele>383.0</ele><time>2026-04-18T12:08:09.988Z</time></trkpt><trkpt lat="43.4056801" lon="10.5756035"><ele>383.0</ele><time>2026-04-18T12:08:10.988Z</time></trkpt><trkpt lat="43.4055978" lon="10.5754591"><ele>383.0</ele><time>2026-04-18T12:08:11.988Z</time></trkpt><trkpt lat="43.4055297" lon="10.5752961"><ele>383.0</ele><time>2026-04-18T12:08:12.988Z</time></trkpt><trkpt lat="43.4054636" lon="10.575167"><ele>383.2</ele><time>2026-04-18T12:08:13.988Z</time></trkpt><trkpt lat="43.4053839" lon="10.5750777"><ele>383.4</ele><time>2026-04-18T12:08:14.988Z</time></trkpt><trkpt lat="43.4052921" lon="10.5750355"><ele>383.59999999999997</ele><time>2026-04-18T12:08:15.988Z</time></trkpt><trkpt lat="43.4051931" lon="10.5750239"><ele>383.79999999999995</ele><time>2026-04-18T12:08:16.988Z</time></trkpt><trkpt lat="43.4050896" lon="10.5750718"><ele>384.0</ele><time>2026-04-18T12:08:17.988Z</time></trkpt><trkpt lat="43.404981" lon="10.5751698"><ele>384.0</ele><time>2026-04-18T12:08:18.988Z</time></trkpt><trkpt lat="43.4048713" lon="10.5752982"><ele>384.0</ele><time>2026-04-18T12:08:19.988Z</time></trkpt><trkpt lat="43.4047748" lon="10.5754208"><ele>384.0</ele><time>2026-04-18T12:08:20.988Z</time></trkpt><trkpt lat="43.4046848" lon="10.5755141"><ele>384.0</ele><time>2026-04-18T12:08:21.988Z</time></trkpt><trkpt lat="43.4045999" lon="10.5756002"><ele>385.2</ele><time>2026-04-18T12:08:22.989Z</time></trkpt><trkpt lat="43.4045131" lon="10.5756428"><ele>386.4</ele><time>2026-04-18T12:08:23.988Z</time></trkpt><trkpt lat="43.4044268" lon="10.5756301"><ele>387.6</ele><time>2026-04-18T12:08:24.988Z</time></trkpt><trkpt lat="43.4043528" lon="10.5755671"><ele>388.8</ele><time>2026-04-18T12:08:25.988Z</time></trkpt><trkpt lat="43.4042903" lon="10.5754515"><ele>390.0</ele><time>2026-04-18T12:08:26.988Z</time></trkpt><trkpt lat="43.4042316" lon="10.5752936"><ele>390.0</ele><time>2026-04-18T12:08:27.989Z</time></trkpt><trkpt lat="43.4041883" lon="10.575128"><ele>390.0</ele><time>2026-04-18T12:08:28.989Z</time></trkpt><trkpt lat="43.4041302" lon="10.5749471"><ele>390.0</ele><time>2026-04-18T12:08:29.988Z</time></trkpt><trkpt lat="43.4040765" lon="10.5747725"><ele>390.0</ele><time>2026-04-18T12:08:30.988Z</time></trkpt><trkpt lat="43.4040223" lon="10.5745952"><ele>388.5</ele><time>2026-04-18T12:08:31.989Z</time></trkpt><trkpt lat="43.4039668" lon="10.5744185"><ele>387.0</ele><time>2026-04-18T12:08:32.988Z</time></trkpt><trkpt lat="43.4039085" lon="10.5742449"><ele>385.5</ele><time>2026-04-18T12:08:33.988Z</time></trkpt><trkpt lat="43.4038447" lon="10.5740911"><ele>384.0</ele><time>2026-04-18T12:08:34.989Z</time></trkpt><trkpt lat="43.4037793" lon="10.5739461"><ele>386.25</ele><time>2026-04-18T12:08:35.988Z</time></trkpt><trkpt lat="43.4037209" lon="10.5737829"><ele>388.5</ele><time>2026-04-18T12:08:36.988Z</time></trkpt><trkpt lat="43.403706" lon="10.5736115"><ele>390.75</ele><time>2026-04-18T12:08:37.989Z</time></trkpt><trkpt lat="43.4037053" lon="10.5734289"><ele>393.0</ele><time>2026-04-18T12:08:38.988Z</time></trkpt><trkpt lat="43.4037125" lon="10.5732421"><ele>393.0</ele><time>2026-04-18T12:08:39.988Z</time></trkpt><trkpt lat="43.4037714" lon="10.5730476"><ele>393.0</ele><time>2026-04-18T12:08:40.988Z</time></trkpt><trkpt lat="43.4038158" lon="10.5728814"><ele>393.0</ele><time>2026-04-18T12:08:41.989Z</time></trkpt><trkpt lat="43.4038859" lon="10.5727015"><ele>393.0</ele><time>2026-04-18T12:08:42.988Z</time></trkpt><trkpt lat="43.4039449" lon="10.5725392"><ele>390.25</ele><time>2026-04-18T12:08:43.988Z</time></trkpt><trkpt lat="43.4039715" lon="10.5723863"><ele>387.5</ele><time>2026-04-18T12:08:44.988Z</time></trkpt><trkpt lat="43.4039782" lon="10.5722218"><ele>384.75</ele><time>2026-04-18T12:08:45.988Z</time></trkpt><trkpt lat="43.4039589" lon="10.5720515"><ele>382.0</ele><time>2026-04-18T12:08:46.988Z</time></trkpt><trkpt lat="43.4039098" lon="10.5718948"><ele>381.75</ele><time>2026-04-18T12:08:47.988Z</time></trkpt><trkpt lat="43.4038343" lon="10.5717718"><ele>381.5</ele><time>2026-04-18T12:08:48.988Z</time></trkpt><trkpt lat="43.4037337" lon="10.5716778"><ele>381.25</ele><time>2026-04-18T12:08:49.988Z</time></trkpt><trkpt lat="43.4036057" lon="10.5716088"><ele>381.0</ele><time>2026-04-18T12:08:50.988Z</time></trkpt><trkpt lat="43.4034731" lon="10.5715692"><ele>382.75</ele><time>2026-04-18T12:08:51.988Z</time></trkpt><trkpt lat="43.4033456" lon="10.571538"><ele>384.5</ele><time>2026-04-18T12:08:52.988Z</time></trkpt><trkpt lat="43.4032259" lon="10.5714909"><ele>386.25</ele><time>2026-04-18T12:08:53.988Z</time></trkpt><trkpt lat="43.4031196" lon="10.5714047"><ele>388.0</ele><time>2026-04-18T12:08:54.988Z</time></trkpt><trkpt lat="43.403033" lon="10.5712959"><ele>387.75</ele><time>2026-04-18T12:08:55.988Z</time></trkpt><trkpt lat="43.4029692" lon="10.5711447"><ele>387.5</ele><time>2026-04-18T12:08:56.989Z</time></trkpt><trkpt lat="43.4029161" lon="10.5709971"><ele>387.25</ele><time>2026-04-18T12:08:57.989Z</time></trkpt><trkpt lat="43.4028706" lon="10.5708664"><ele>387.0</ele><time>2026-04-18T12:08:58.988Z</time></trkpt><trkpt lat="43.4027938" lon="10.5707567"><ele>387.0</ele><time>2026-04-18T12:08:59.988Z</time></trkpt><trkpt lat="43.4027056" lon="10.5706857"><ele>387.0</ele><time>2026-04-18T12:09:00.988Z</time></trkpt><trkpt lat="43.4026037" lon="10.5706624"><ele>387.0</ele><time>2026-04-18T12:09:01.988Z</time></trkpt><trkpt lat="43.4025138" lon="10.570661"><ele>387.0</ele><time>2026-04-18T12:09:02.988Z</time></trkpt><trkpt lat="43.4024093" lon="10.5707081"><ele>387.0</ele><time>2026-04-18T12:09:03.988Z</time></trkpt><trkpt lat="43.4023219" lon="10.5707768"><ele>387.0</ele><time>2026-04-18T12:09:04.988Z</time></trkpt><trkpt lat="43.4022325" lon="10.5708569"><ele>387.0</ele><time>2026-04-18T12:09:05.988Z</time></trkpt><trkpt lat="43.4021459" lon="10.5710089"><ele>387.0</ele><time>2026-04-18T12:09:06.988Z</time></trkpt><trkpt lat="43.4020458" lon="10.5710905"><ele>387.0</ele><time>2026-04-18T12:09:07.988Z</time></trkpt><trkpt lat="43.4019337" lon="10.5711185"><ele>386.0</ele><time>2026-04-18T12:09:08.988Z</time></trkpt><trkpt lat="43.4018089" lon="10.5711041"><ele>385.0</ele><time>2026-04-18T12:09:09.988Z</time></trkpt><trkpt lat="43.4016761" lon="10.5710709"><ele>384.0</ele><time>2026-04-18T12:09:10.988Z</time></trkpt><trkpt lat="43.401563" lon="10.5710052"><ele>383.0</ele><time>2026-04-18T12:09:11.988Z</time></trkpt><trkpt lat="43.4014524" lon="10.5709574"><ele>383.0</ele><time>2026-04-18T12:09:12.988Z</time></trkpt><trkpt lat="43.4013341" lon="10.5709485"><ele>383.0</ele><time>2026-04-18T12:09:13.988Z</time></trkpt><trkpt lat="43.4012322" lon="10.5709582"><ele>383.0</ele><time>2026-04-18T12:09:14.988Z</time></trkpt><trkpt lat="43.4011395" lon="10.5710096"><ele>383.0</ele><time>2026-04-18T12:09:15.988Z</time></trkpt><trkpt lat="43.4010573" lon="10.571095"><ele>383.0</ele><time>2026-04-18T12:09:16.988Z</time></trkpt><trkpt lat="43.4009778" lon="10.5712202"><ele>384.25</ele><time>2026-04-18T12:09:17.988Z</time></trkpt><trkpt lat="43.400907" lon="10.5713576"><ele>385.5</ele><time>2026-04-18T12:09:18.988Z</time></trkpt><trkpt lat="43.4008222" lon="10.5714892"><ele>386.75</ele><time>2026-04-18T12:09:19.989Z</time></trkpt><trkpt lat="43.4007235" lon="10.5716152"><ele>388.0</ele><time>2026-04-18T12:09:20.988Z</time></trkpt><trkpt lat="43.4006219" lon="10.5717214"><ele>388.0</ele><time>2026-04-18T12:09:21.988Z</time></trkpt><trkpt lat="43.4005152" lon="10.5718168"><ele>388.0</ele><time>2026-04-18T12:09:22.988Z</time></trkpt><trkpt lat="43.4004051" lon="10.5719057"><ele>388.0</ele><time>2026-04-18T12:09:23.988Z</time></trkpt><trkpt lat="43.4002932" lon="10.5719914"><ele>388.0</ele><time>2026-04-18T12:09:24.988Z</time></trkpt><trkpt lat="43.4002" lon="10.5720924"><ele>387.75</ele><time>2026-04-18T12:09:25.988Z</time></trkpt><trkpt lat="43.4001201" lon="10.5722327"><ele>387.5</ele><time>2026-04-18T12:09:26.988Z</time></trkpt><trkpt lat="43.4000439" lon="10.5724014"><ele>387.25</ele><time>2026-04-18T12:09:27.988Z</time></trkpt><trkpt lat="43.3999757" lon="10.5725733"><ele>387.0</ele><time>2026-04-18T12:09:28.988Z</time></trkpt><trkpt lat="43.3999118" lon="10.5727439"><ele>387.0</ele><time>2026-04-18T12:09:29.988Z</time></trkpt><trkpt lat="43.3998314" lon="10.5729013"><ele>387.0</ele><time>2026-04-18T12:09:30.988Z</time></trkpt><trkpt lat="43.3997429" lon="10.5730525"><ele>387.0</ele><time>2026-04-18T12:09:31.988Z</time></trkpt><trkpt lat="43.3996339" lon="10.5731721"><ele>387.0</ele><time>2026-04-18T12:09:32.988Z</time></trkpt><trkpt lat="43.3995172" lon="10.5732858"><ele>387.0</ele><time>2026-04-18T12:09:33.988Z</time></trkpt><trkpt lat="43.3993824" lon="10.5733813"><ele>387.0</ele><time>2026-04-18T12:09:34.988Z</time></trkpt><trkpt lat="43.3992318" lon="10.5734424"><ele>387.0</ele><time>2026-04-18T12:09:35.988Z</time></trkpt><trkpt lat="43.3990669" lon="10.5734866"><ele>387.0</ele><time>2026-04-18T12:09:36.989Z</time></trkpt><trkpt lat="43.3989095" lon="10.573532"><ele>387.0</ele><time>2026-04-18T12:09:37.988Z</time></trkpt><trkpt lat="43.398756" lon="10.5735732"><ele>387.0</ele><time>2026-04-18T12:09:38.988Z</time></trkpt><trkpt lat="43.3986083" lon="10.5736133"><ele>386.5</ele><time>2026-04-18T12:09:39.988Z</time></trkpt><trkpt lat="43.3984653" lon="10.5736399"><ele>386.0</ele><time>2026-04-18T12:09:40.989Z</time></trkpt><trkpt lat="43.3983322" lon="10.5736632"><ele>385.5</ele><time>2026-04-18T12:09:41.988Z</time></trkpt><trkpt lat="43.3982035" lon="10.573677"><ele>385.0</ele><time>2026-04-18T12:09:42.988Z</time></trkpt><trkpt lat="43.3980813" lon="10.573667"><ele>386.25</ele><time>2026-04-18T12:09:43.988Z</time></trkpt><trkpt lat="43.3979664" lon="10.5736255"><ele>387.5</ele><time>2026-04-18T12:09:44.988Z</time></trkpt><trkpt lat="43.397856" lon="10.5735583"><ele>388.75</ele><time>2026-04-18T12:09:45.989Z</time></trkpt><trkpt lat="43.397766" lon="10.5734537"><ele>390.0</ele><time>2026-04-18T12:09:46.988Z</time></trkpt><trkpt lat="43.3976791" lon="10.5733318"><ele>390.0</ele><time>2026-04-18T12:09:47.988Z</time></trkpt><trkpt lat="43.3975869" lon="10.5732211"><ele>390.0</ele><time>2026-04-18T12:09:48.988Z</time></trkpt><trkpt lat="43.3974932" lon="10.5731224"><ele>390.0</ele><time>2026-04-18T12:09:49.989Z</time></trkpt><trkpt lat="43.3973528" lon="10.5730479"><ele>390.0</ele><time>2026-04-18T12:09:50.988Z</time></trkpt><trkpt lat="43.3971971" lon="10.5729982"><ele>392.66666666666663</ele><time>2026-04-18T12:09:51.988Z</time></trkpt><trkpt lat="43.3970329" lon="10.5729606"><ele>395.3333333333333</ele><time>2026-04-18T12:09:52.988Z</time></trkpt><trkpt lat="43.39685" lon="10.5729268"><ele>398.0</ele><time>2026-04-18T12:09:53.988Z</time></trkpt><trkpt lat="43.3966775" lon="10.5728895"><ele>393.66666666666663</ele><time>2026-04-18T12:09:54.988Z</time></trkpt><trkpt lat="43.3965164" lon="10.5728415"><ele>389.33333333333337</ele><time>2026-04-18T12:09:55.988Z</time></trkpt><trkpt lat="43.3963725" lon="10.5728126"><ele>385.0</ele><time>2026-04-18T12:09:56.988Z</time></trkpt><trkpt lat="43.39622" lon="10.5727825"><ele>385.0</ele><time>2026-04-18T12:09:57.988Z</time></trkpt><trkpt lat="43.3960694" lon="10.5727376"><ele>385.0</ele><time>2026-04-18T12:09:58.988Z</time></trkpt><trkpt lat="43.3959133" lon="10.5727091"><ele>385.0</ele><time>2026-04-18T12:09:59.988Z</time></trkpt><trkpt lat="43.3957671" lon="10.5727026"><ele>385.0</ele><time>2026-04-18T12:10:00.988Z</time></trkpt><trkpt lat="43.3956275" lon="10.5727138"><ele>385.0</ele><time>2026-04-18T12:10:01.988Z</time></trkpt><trkpt lat="43.3954903" lon="10.5727436"><ele>385.0</ele><time>2026-04-18T12:10:02.988Z</time></trkpt><trkpt lat="43.3953491" lon="10.5728007"><ele>385.0</ele><time>2026-04-18T12:10:03.988Z</time></trkpt><trkpt lat="43.3951995" lon="10.5728731"><ele>391.0</ele><time>2026-04-18T12:10:04.988Z</time></trkpt><trkpt lat="43.3950549" lon="10.5729461"><ele>397.0</ele><time>2026-04-18T12:10:05.988Z</time></trkpt><trkpt lat="43.3949057" lon="10.5730206"><ele>403.0</ele><time>2026-04-18T12:10:06.988Z</time></trkpt><trkpt lat="43.3947402" lon="10.5730987"><ele>399.0</ele><time>2026-04-18T12:10:07.988Z</time></trkpt><trkpt lat="43.3945926" lon="10.5731742"><ele>395.0</ele><time>2026-04-18T12:10:08.988Z</time></trkpt><trkpt lat="43.3944496" lon="10.5732525"><ele>391.0</ele><time>2026-04-18T12:10:09.989Z</time></trkpt><trkpt lat="43.3943017" lon="10.5733302"><ele>391.0</ele><time>2026-04-18T12:10:10.988Z</time></trkpt><trkpt lat="43.3941581" lon="10.573399"><ele>391.0</ele><time>2026-04-18T12:10:11.988Z</time></trkpt><trkpt lat="43.3940157" lon="10.5734817"><ele>391.0</ele><time>2026-04-18T12:10:12.988Z</time></trkpt><trkpt lat="43.3938781" lon="10.5735758"><ele>392.0</ele><time>2026-04-18T12:10:13.988Z</time></trkpt><trkpt lat="43.393733" lon="10.5736836"><ele>393.0</ele><time>2026-04-18T12:10:14.988Z</time></trkpt><trkpt lat="43.3935967" lon="10.5737861"><ele>394.0</ele><time>2026-04-18T12:10:15.988Z</time></trkpt><trkpt lat="43.3934713" lon="10.5738801"><ele>394.0</ele><time>2026-04-18T12:10:16.988Z</time></trkpt><trkpt lat="43.393349" lon="10.5739758"><ele>394.0</ele><time>2026-04-18T12:10:17.988Z</time></trkpt><trkpt lat="43.3932286" lon="10.5740636"><ele>394.0</ele><time>2026-04-18T12:10:18.988Z</time></trkpt><trkpt lat="43.3931188" lon="10.5741542"><ele>394.0</ele><time>2026-04-18T12:10:19.988Z</time></trkpt><trkpt lat="43.3930161" lon="10.5742543"><ele>393.25</ele><time>2026-04-18T12:10:20.988Z</time></trkpt><trkpt lat="43.3929218" lon="10.574377"><ele>392.5</ele><time>2026-04-18T12:10:21.988Z</time></trkpt><trkpt lat="43.3928491" lon="10.5745367"><ele>391.75</ele><time>2026-04-18T12:10:22.988Z</time></trkpt><trkpt lat="43.3927926" lon="10.5747094"><ele>391.0</ele><time>2026-04-18T12:10:23.988Z</time></trkpt><trkpt lat="43.3927352" lon="10.5748789"><ele>391.0</ele><time>2026-04-18T12:10:24.988Z</time></trkpt><trkpt lat="43.3926836" lon="10.5750411"><ele>391.0</ele><time>2026-04-18T12:10:25.988Z</time></trkpt><trkpt lat="43.3926161" lon="10.5751931"><ele>391.0</ele><time>2026-04-18T12:10:26.988Z</time></trkpt><trkpt lat="43.392532" lon="10.5753186"><ele>391.0</ele><time>2026-04-18T12:10:27.988Z</time></trkpt><trkpt lat="43.3924388" lon="10.5754308"><ele>392.75</ele><time>2026-04-18T12:10:28.988Z</time></trkpt><trkpt lat="43.3923142" lon="10.5754777"><ele>394.5</ele><time>2026-04-18T12:10:29.988Z</time></trkpt><trkpt lat="43.3921926" lon="10.5755249"><ele>396.25</ele><time>2026-04-18T12:10:30.988Z</time></trkpt><trkpt lat="43.3920662" lon="10.5755352"><ele>398.0</ele><time>2026-04-18T12:10:31.988Z</time></trkpt><trkpt lat="43.3919555" lon="10.5755395"><ele>398.2</ele><time>2026-04-18T12:10:32.988Z</time></trkpt><trkpt lat="43.3918486" lon="10.5755292"><ele>398.4</ele><time>2026-04-18T12:10:33.988Z</time></trkpt><trkpt lat="43.3917521" lon="10.5754863"><ele>398.59999999999997</ele><time>2026-04-18T12:10:34.988Z</time></trkpt><trkpt lat="43.3916682" lon="10.5753934"><ele>398.79999999999995</ele><time>2026-04-18T12:10:35.988Z</time></trkpt><trkpt lat="43.3915938" lon="10.5752848"><ele>399.0</ele><time>2026-04-18T12:10:36.988Z</time></trkpt><trkpt lat="43.3915468" lon="10.5751047"><ele>398.25</ele><time>2026-04-18T12:10:37.988Z</time></trkpt><trkpt lat="43.3914856" lon="10.5749309"><ele>397.5</ele><time>2026-04-18T12:10:38.988Z</time></trkpt><trkpt lat="43.3914031" lon="10.5747619"><ele>396.75</ele><time>2026-04-18T12:10:39.988Z</time></trkpt><trkpt lat="43.3913284" lon="10.5745933"><ele>396.0</ele><time>2026-04-18T12:10:40.988Z</time></trkpt><trkpt lat="43.3912644" lon="10.5744133"><ele>398.0</ele><time>2026-04-18T12:10:41.988Z</time></trkpt><trkpt lat="43.3912204" lon="10.5741927"><ele>400.0</ele><time>2026-04-18T12:10:42.988Z</time></trkpt><trkpt lat="43.3911858" lon="10.5739833"><ele>402.0</ele><time>2026-04-18T12:10:43.988Z</time></trkpt><trkpt lat="43.391162" lon="10.5737837"><ele>401.25</ele><time>2026-04-18T12:10:44.988Z</time></trkpt><trkpt lat="43.3911405" lon="10.5735931"><ele>400.5</ele><time>2026-04-18T12:10:45.988Z</time></trkpt><trkpt lat="43.3911156" lon="10.5734204"><ele>399.75</ele><time>2026-04-18T12:10:46.988Z</time></trkpt><trkpt lat="43.3910753" lon="10.5732839"><ele>399.0</ele><time>2026-04-18T12:10:47.988Z</time></trkpt><trkpt lat="43.3910196" lon="10.5731793"><ele>399.0</ele><time>2026-04-18T12:10:48.988Z</time></trkpt><trkpt lat="43.3909383" lon="10.5731056"><ele>399.0</ele><time>2026-04-18T12:10:49.988Z</time></trkpt><trkpt lat="43.3908438" lon="10.5730692"><ele>399.0</ele><time>2026-04-18T12:10:50.988Z</time></trkpt><trkpt lat="43.3907312" lon="10.5730815"><ele>399.0</ele><time>2026-04-18T12:10:51.988Z</time></trkpt><trkpt lat="43.3905963" lon="10.5731332"><ele>399.0</ele><time>2026-04-18T12:10:52.988Z</time></trkpt><trkpt lat="43.3904597" lon="10.5731971"><ele>398.5</ele><time>2026-04-18T12:10:53.989Z</time></trkpt><trkpt lat="43.3903192" lon="10.5732517"><ele>398.0</ele><time>2026-04-18T12:10:54.988Z</time></trkpt><trkpt lat="43.3901799" lon="10.5732857"><ele>397.5</ele><time>2026-04-18T12:10:55.988Z</time></trkpt><trkpt lat="43.3900437" lon="10.5733117"><ele>397.0</ele><time>2026-04-18T12:10:56.989Z</time></trkpt><trkpt lat="43.3899194" lon="10.573349"><ele>397.0</ele><time>2026-04-18T12:10:57.988Z</time></trkpt><trkpt lat="43.3898064" lon="10.5734199"><ele>397.0</ele><time>2026-04-18T12:10:58.988Z</time></trkpt><trkpt lat="43.3897146" lon="10.5735133"><ele>397.0</ele><time>2026-04-18T12:10:59.988Z</time></trkpt><trkpt lat="43.3896454" lon="10.5736377"><ele>397.0</ele><time>2026-04-18T12:11:00.988Z</time></trkpt><trkpt lat="43.3896036" lon="10.5737973"><ele>394.5</ele><time>2026-04-18T12:11:01.988Z</time></trkpt><trkpt lat="43.3895659" lon="10.5739519"><ele>392.0</ele><time>2026-04-18T12:11:02.988Z</time></trkpt><trkpt lat="43.3895159" lon="10.5741024"><ele>389.5</ele><time>2026-04-18T12:11:03.988Z</time></trkpt><trkpt lat="43.3894491" lon="10.574256"><ele>387.0</ele><time>2026-04-18T12:11:04.988Z</time></trkpt><trkpt lat="43.389343" lon="10.5743975"><ele>389.25</ele><time>2026-04-18T12:11:05.988Z</time></trkpt><trkpt lat="43.3892307" lon="10.5745424"><ele>391.5</ele><time>2026-04-18T12:11:06.988Z</time></trkpt><trkpt lat="43.3891183" lon="10.5746764"><ele>393.75</ele><time>2026-04-18T12:11:07.988Z</time></trkpt><trkpt lat="43.3890092" lon="10.5747939"><ele>396.0</ele><time>2026-04-18T12:11:08.988Z</time></trkpt><trkpt lat="43.3889039" lon="10.57489"><ele>393.25</ele><time>2026-04-18T12:11:09.988Z</time></trkpt><trkpt lat="43.3887917" lon="10.5749427"><ele>390.5</ele><time>2026-04-18T12:11:10.988Z</time></trkpt><trkpt lat="43.3886559" lon="10.5749789"><ele>387.75</ele><time>2026-04-18T12:11:11.988Z</time></trkpt><trkpt lat="43.3885052" lon="10.5749854"><ele>385.0</ele><time>2026-04-18T12:11:12.988Z</time></trkpt><trkpt lat="43.3883535" lon="10.5749861"><ele>385.0</ele><time>2026-04-18T12:11:13.988Z</time></trkpt><trkpt lat="43.3881979" lon="10.5749895"><ele>385.0</ele><time>2026-04-18T12:11:14.988Z</time></trkpt><trkpt lat="43.3880508" lon="10.5749881"><ele>385.0</ele><time>2026-04-18T12:11:15.988Z</time></trkpt><trkpt lat="43.3879102" lon="10.5749921"><ele>385.0</ele><time>2026-04-18T12:11:16.988Z</time></trkpt><trkpt lat="43.3877727" lon="10.5749853"><ele>386.0</ele><time>2026-04-18T12:11:17.988Z</time></trkpt><trkpt lat="43.3876358" lon="10.5749563"><ele>387.0</ele><time>2026-04-18T12:11:18.988Z</time></trkpt><trkpt lat="43.3874926" lon="10.5749178"><ele>388.0</ele><time>2026-04-18T12:11:19.988Z</time></trkpt><trkpt lat="43.3873236" lon="10.5748384"><ele>389.33333333333337</ele><time>2026-04-18T12:11:20.988Z</time></trkpt><trkpt lat="43.387173" lon="10.5747719"><ele>390.66666666666663</ele><time>2026-04-18T12:11:21.988Z</time></trkpt><trkpt lat="43.387023" lon="10.5747096"><ele>392.0</ele><time>2026-04-18T12:11:22.988Z</time></trkpt><trkpt lat="43.3868745" lon="10.5746516"><ele>392.0</ele><time>2026-04-18T12:11:23.988Z</time></trkpt><trkpt lat="43.3867223" lon="10.5745889"><ele>392.0</ele><time>2026-04-18T12:11:24.988Z</time></trkpt><trkpt lat="43.3865834" lon="10.5745348"><ele>392.0</ele><time>2026-04-18T12:11:25.988Z</time></trkpt><trkpt lat="43.3864613" lon="10.5744884"><ele>392.0</ele><time>2026-04-18T12:11:26.989Z</time></trkpt><trkpt lat="43.386332" lon="10.5744282"><ele>388.75</ele><time>2026-04-18T12:11:27.988Z</time></trkpt><trkpt lat="43.3862355" lon="10.5744142"><ele>385.5</ele><time>2026-04-18T12:11:28.988Z</time></trkpt><trkpt lat="43.3861066" lon="10.5744353"><ele>382.25</ele><time>2026-04-18T12:11:29.988Z</time></trkpt><trkpt lat="43.3859858" lon="10.5744872"><ele>379.0</ele><time>2026-04-18T12:11:30.988Z</time></trkpt><trkpt lat="43.3858613" lon="10.5745733"><ele>379.0</ele><time>2026-04-18T12:11:31.988Z</time></trkpt><trkpt lat="43.3857447" lon="10.5746705"><ele>379.0</ele><time>2026-04-18T12:11:32.988Z</time></trkpt><trkpt lat="43.3856235" lon="10.5747742"><ele>379.0</ele><time>2026-04-18T12:11:33.988Z</time></trkpt><trkpt lat="43.3855024" lon="10.5749084"><ele>379.0</ele><time>2026-04-18T12:11:34.988Z</time></trkpt><trkpt lat="43.3853866" lon="10.5750538"><ele>378.25</ele><time>2026-04-18T12:11:35.988Z</time></trkpt><trkpt lat="43.38529" lon="10.5752001"><ele>377.5</ele><time>2026-04-18T12:11:36.988Z</time></trkpt><trkpt lat="43.3851915" lon="10.5753549"><ele>376.75</ele><time>2026-04-18T12:11:37.988Z</time></trkpt><trkpt lat="43.3850744" lon="10.575491"><ele>376.0</ele><time>2026-04-18T12:11:38.988Z</time></trkpt><trkpt lat="43.3849605" lon="10.575608"><ele>376.0</ele><time>2026-04-18T12:11:39.988Z</time></trkpt><trkpt lat="43.3848612" lon="10.5757057"><ele>376.0</ele><time>2026-04-18T12:11:40.988Z</time></trkpt><trkpt lat="43.3847478" lon="10.5757981"><ele>376.0</ele><time>2026-04-18T12:11:41.989Z</time></trkpt><trkpt lat="43.3846334" lon="10.5758142"><ele>376.0</ele><time>2026-04-18T12:11:42.988Z</time></trkpt><trkpt lat="43.3845346" lon="10.5758221"><ele>373.4</ele><time>2026-04-18T12:11:43.988Z</time></trkpt><trkpt lat="43.3844398" lon="10.5757871"><ele>370.8</ele><time>2026-04-18T12:11:44.988Z</time></trkpt><trkpt lat="43.3843555" lon="10.5756991"><ele>368.2</ele><time>2026-04-18T12:11:45.988Z</time></trkpt><trkpt lat="43.3842642" lon="10.5756247"><ele>365.59999999999997</ele><time>2026-04-18T12:11:46.988Z</time></trkpt><trkpt lat="43.3841659" lon="10.5755616"><ele>363.0</ele><time>2026-04-18T12:11:47.988Z</time></trkpt><trkpt lat="43.3840649" lon="10.5755265"><ele>363.0</ele><time>2026-04-18T12:11:48.988Z</time></trkpt><trkpt lat="43.3839587" lon="10.5755172"><ele>363.0</ele><time>2026-04-18T12:11:49.988Z</time></trkpt><trkpt lat="43.3838645" lon="10.5755409"><ele>363.0</ele><time>2026-04-18T12:11:50.988Z</time></trkpt><trkpt lat="43.38379" lon="10.5756152"><ele>363.0</ele><time>2026-04-18T12:11:51.988Z</time></trkpt><trkpt lat="43.3837366" lon="10.5757258"><ele>363.0</ele><time>2026-04-18T12:11:52.988Z</time></trkpt><trkpt lat="43.3836947" lon="10.575857"><ele>359.0</ele><time>2026-04-18T12:11:53.988Z</time></trkpt><trkpt lat="43.3836937" lon="10.5760211"><ele>355.0</ele><time>2026-04-18T12:11:54.988Z</time></trkpt><trkpt lat="43.3837033" lon="10.5761774"><ele>351.0</ele><time>2026-04-18T12:11:55.989Z</time></trkpt><trkpt lat="43.3837365" lon="10.5763345"><ele>347.0</ele><time>2026-04-18T12:11:56.988Z</time></trkpt><trkpt lat="43.3838032" lon="10.5764592"><ele>350.5</ele><time>2026-04-18T12:11:57.988Z</time></trkpt><trkpt lat="43.3838653" lon="10.5765882"><ele>354.0</ele><time>2026-04-18T12:11:58.988Z</time></trkpt><trkpt lat="43.3839104" lon="10.5767194"><ele>357.5</ele><time>2026-04-18T12:11:59.988Z</time></trkpt><trkpt lat="43.3839426" lon="10.5768768"><ele>361.0</ele><time>2026-04-18T12:12:00.988Z</time></trkpt><trkpt lat="43.3839535" lon="10.5770424"><ele>361.0</ele><time>2026-04-18T12:12:01.988Z</time></trkpt><trkpt lat="43.3839473" lon="10.5772207"><ele>361.0</ele><time>2026-04-18T12:12:02.988Z</time></trkpt><trkpt lat="43.383923" lon="10.577392"><ele>361.0</ele><time>2026-04-18T12:12:03.988Z</time></trkpt><trkpt lat="43.3838841" lon="10.5775701"><ele>361.0</ele><time>2026-04-18T12:12:04.989Z</time></trkpt><trkpt lat="43.3838198" lon="10.5777481"><ele>357.25</ele><time>2026-04-18T12:12:05.988Z</time></trkpt><trkpt lat="43.3837397" lon="10.5779147"><ele>353.5</ele><time>2026-04-18T12:12:06.988Z</time></trkpt><trkpt lat="43.3836411" lon="10.578061"><ele>349.75</ele><time>2026-04-18T12:12:07.989Z</time></trkpt><trkpt lat="43.3835365" lon="10.5782079"><ele>346.0</ele><time>2026-04-18T12:12:08.988Z</time></trkpt><trkpt lat="43.3834368" lon="10.5783541"><ele>346.0</ele><time>2026-04-18T12:12:09.988Z</time></trkpt><trkpt lat="43.3833581" lon="10.5785152"><ele>346.0</ele><time>2026-04-18T12:12:10.989Z</time></trkpt><trkpt lat="43.3832892" lon="10.5786887"><ele>346.0</ele><time>2026-04-18T12:12:11.988Z</time></trkpt><trkpt lat="43.383224" lon="10.5788566"><ele>346.0</ele><time>2026-04-18T12:12:12.988Z</time></trkpt><trkpt lat="43.3831435" lon="10.5790143"><ele>344.3333333333333</ele><time>2026-04-18T12:12:13.988Z</time></trkpt><trkpt lat="43.3830414" lon="10.5791612"><ele>342.6666666666667</ele><time>2026-04-18T12:12:14.988Z</time></trkpt><trkpt lat="43.3829206" lon="10.5793029"><ele>341.0</ele><time>2026-04-18T12:12:15.988Z</time></trkpt><trkpt lat="43.3827996" lon="10.5794407"><ele>344.6666666666667</ele><time>2026-04-18T12:12:16.988Z</time></trkpt><trkpt lat="43.3826733" lon="10.5795724"><ele>348.3333333333333</ele><time>2026-04-18T12:12:17.988Z</time></trkpt><trkpt lat="43.3825502" lon="10.5796995"><ele>352.0</ele><time>2026-04-18T12:12:18.988Z</time></trkpt><trkpt lat="43.3824294" lon="10.5798218"><ele>352.0</ele><time>2026-04-18T12:12:19.988Z</time></trkpt><trkpt lat="43.3823115" lon="10.5799396"><ele>352.0</ele><time>2026-04-18T12:12:20.988Z</time></trkpt><trkpt lat="43.3821956" lon="10.5800557"><ele>352.0</ele><time>2026-04-18T12:12:21.988Z</time></trkpt><trkpt lat="43.3820816" lon="10.5801765"><ele>352.0</ele><time>2026-04-18T12:12:22.989Z</time></trkpt><trkpt lat="43.3819804" lon="10.5802996"><ele>350.75</ele><time>2026-04-18T12:12:23.988Z</time></trkpt><trkpt lat="43.38188" lon="10.5804318"><ele>349.5</ele><time>2026-04-18T12:12:24.989Z</time></trkpt><trkpt lat="43.3817846" lon="10.5805642"><ele>348.25</ele><time>2026-04-18T12:12:25.988Z</time></trkpt><trkpt lat="43.3816889" lon="10.5806933"><ele>347.0</ele><time>2026-04-18T12:12:26.988Z</time></trkpt><trkpt lat="43.3816066" lon="10.5808057"><ele>347.0</ele><time>2026-04-18T12:12:27.988Z</time></trkpt><trkpt lat="43.3815377" lon="10.5809168"><ele>347.0</ele><time>2026-04-18T12:12:28.988Z</time></trkpt><trkpt lat="43.3814903" lon="10.581044"><ele>347.0</ele><time>2026-04-18T12:12:29.988Z</time></trkpt><trkpt lat="43.3814793" lon="10.5811947"><ele>347.0</ele><time>2026-04-18T12:12:30.988Z</time></trkpt><trkpt lat="43.3814965" lon="10.5813589"><ele>347.0</ele><time>2026-04-18T12:12:31.988Z</time></trkpt><trkpt lat="43.3815394" lon="10.5815214"><ele>346.75</ele><time>2026-04-18T12:12:32.989Z</time></trkpt><trkpt lat="43.3815835" lon="10.5816897"><ele>346.5</ele><time>2026-04-18T12:12:33.988Z</time></trkpt><trkpt lat="43.381628" lon="10.5818562"><ele>346.25</ele><time>2026-04-18T12:12:34.988Z</time></trkpt><trkpt lat="43.3816661" lon="10.5820157"><ele>346.0</ele><time>2026-04-18T12:12:35.989Z</time></trkpt><trkpt lat="43.3817112" lon="10.5821644"><ele>344.5</ele><time>2026-04-18T12:12:36.988Z</time></trkpt><trkpt lat="43.3817627" lon="10.5822994"><ele>343.0</ele><time>2026-04-18T12:12:37.988Z</time></trkpt><trkpt lat="43.381836" lon="10.5824251"><ele>341.5</ele><time>2026-04-18T12:12:38.988Z</time></trkpt><trkpt lat="43.3819239" lon="10.5825324"><ele>340.0</ele><time>2026-04-18T12:12:39.988Z</time></trkpt><trkpt lat="43.3820264" lon="10.5826281"><ele>340.0</ele><time>2026-04-18T12:12:40.988Z</time></trkpt><trkpt lat="43.3821382" lon="10.5827038"><ele>340.0</ele><time>2026-04-18T12:12:41.988Z</time></trkpt><trkpt lat="43.3822616" lon="10.5827749"><ele>340.0</ele><time>2026-04-18T12:12:42.988Z</time></trkpt><trkpt lat="43.3823745" lon="10.5828507"><ele>340.0</ele><time>2026-04-18T12:12:43.988Z</time></trkpt><trkpt lat="43.3824791" lon="10.5829441"><ele>340.0</ele><time>2026-04-18T12:12:44.988Z</time></trkpt><trkpt lat="43.3825838" lon="10.5830524"><ele>340.0</ele><time>2026-04-18T12:12:45.988Z</time></trkpt><trkpt lat="43.3826755" lon="10.5831799"><ele>340.0</ele><time>2026-04-18T12:12:46.988Z</time></trkpt><trkpt lat="43.3827506" lon="10.5833299"><ele>340.0</ele><time>2026-04-18T12:12:47.989Z</time></trkpt><trkpt lat="43.382814" lon="10.5834899"><ele>340.0</ele><time>2026-04-18T12:12:48.988Z</time></trkpt><trkpt lat="43.382863" lon="10.5836563"><ele>340.0</ele><time>2026-04-18T12:12:49.988Z</time></trkpt><trkpt lat="43.3828896" lon="10.583829"><ele>340.0</ele><time>2026-04-18T12:12:50.988Z</time></trkpt><trkpt lat="43.3829009" lon="10.5840054"><ele>340.0</ele><time>2026-04-18T12:12:51.988Z</time></trkpt><trkpt lat="43.3829204" lon="10.5841773"><ele>338.5</ele><time>2026-04-18T12:12:52.988Z</time></trkpt><trkpt lat="43.3829611" lon="10.5843457"><ele>337.0</ele><time>2026-04-18T12:12:53.988Z</time></trkpt><trkpt lat="43.3830219" lon="10.5845193"><ele>335.5</ele><time>2026-04-18T12:12:54.988Z</time></trkpt><trkpt lat="43.3830766" lon="10.584689"><ele>334.0</ele><time>2026-04-18T12:12:55.988Z</time></trkpt><trkpt lat="43.3831258" lon="10.5848712"><ele>337.25</ele><time>2026-04-18T12:12:56.988Z</time></trkpt><trkpt lat="43.3831298" lon="10.5850658"><ele>340.5</ele><time>2026-04-18T12:12:57.988Z</time></trkpt><trkpt lat="43.3831594" lon="10.5852445"><ele>343.75</ele><time>2026-04-18T12:12:58.988Z</time></trkpt><trkpt lat="43.3831965" lon="10.5854078"><ele>347.0</ele><time>2026-04-18T12:12:59.988Z</time></trkpt><trkpt lat="43.383232" lon="10.5855698"><ele>347.0</ele><time>2026-04-18T12:13:00.988Z</time></trkpt><trkpt lat="43.3832529" lon="10.5857409"><ele>347.0</ele><time>2026-04-18T12:13:01.988Z</time></trkpt><trkpt lat="43.3832448" lon="10.5859227"><ele>347.0</ele><time>2026-04-18T12:13:02.988Z</time></trkpt><trkpt lat="43.3832114" lon="10.5861041"><ele>347.0</ele><time>2026-04-18T12:13:03.988Z</time></trkpt><trkpt lat="43.3831609" lon="10.5862767"><ele>346.25</ele><time>2026-04-18T12:13:04.988Z</time></trkpt><trkpt lat="43.3831234" lon="10.5864372"><ele>345.5</ele><time>2026-04-18T12:13:05.988Z</time></trkpt><trkpt lat="43.3831066" lon="10.5865987"><ele>344.75</ele><time>2026-04-18T12:13:06.988Z</time></trkpt><trkpt lat="43.3831112" lon="10.5867704"><ele>344.0</ele><time>2026-04-18T12:13:07.989Z</time></trkpt><trkpt lat="43.3831343" lon="10.5869554"><ele>343.25</ele><time>2026-04-18T12:13:08.988Z</time></trkpt><trkpt lat="43.3831578" lon="10.5871308"><ele>342.5</ele><time>2026-04-18T12:13:09.988Z</time></trkpt><trkpt lat="43.3831876" lon="10.5873027"><ele>341.75</ele><time>2026-04-18T12:13:10.988Z</time></trkpt><trkpt lat="43.3832153" lon="10.5874631"><ele>341.0</ele><time>2026-04-18T12:13:11.988Z</time></trkpt><trkpt lat="43.3832381" lon="10.5876226"><ele>341.0</ele><time>2026-04-18T12:13:12.988Z</time></trkpt><trkpt lat="43.3832742" lon="10.5877862"><ele>341.0</ele><time>2026-04-18T12:13:13.988Z</time></trkpt><trkpt lat="43.3833328" lon="10.5879448"><ele>341.0</ele><time>2026-04-18T12:13:14.988Z</time></trkpt><trkpt lat="43.383407" lon="10.58811"><ele>341.0</ele><time>2026-04-18T12:13:15.988Z</time></trkpt><trkpt lat="43.3834822" lon="10.5882743"><ele>339.25</ele><time>2026-04-18T12:13:16.988Z</time></trkpt><trkpt lat="43.3835464" lon="10.5884441"><ele>337.5</ele><time>2026-04-18T12:13:17.988Z</time></trkpt><trkpt lat="43.3835869" lon="10.5886246"><ele>335.75</ele><time>2026-04-18T12:13:18.988Z</time></trkpt><trkpt lat="43.3836155" lon="10.5888024"><ele>334.0</ele><time>2026-04-18T12:13:19.988Z</time></trkpt><trkpt lat="43.3836371" lon="10.5889784"><ele>333.2</ele><time>2026-04-18T12:13:20.988Z</time></trkpt><trkpt lat="43.3836647" lon="10.5891324"><ele>332.4</ele><time>2026-04-18T12:13:21.988Z</time></trkpt><trkpt lat="43.3837095" lon="10.589262"><ele>331.6</ele><time>2026-04-18T12:13:22.988Z</time></trkpt><trkpt lat="43.3837696" lon="10.5893921"><ele>330.8</ele><time>2026-04-18T12:13:23.988Z</time></trkpt><trkpt lat="43.3838395" lon="10.5895214"><ele>330.0</ele><time>2026-04-18T12:13:24.988Z</time></trkpt><trkpt lat="43.3839271" lon="10.5896569"><ele>330.0</ele><time>2026-04-18T12:13:25.988Z</time></trkpt><trkpt lat="43.3840131" lon="10.5897875"><ele>330.0</ele><time>2026-04-18T12:13:26.988Z</time></trkpt><trkpt lat="43.3841005" lon="10.5899155"><ele>330.0</ele><time>2026-04-18T12:13:27.988Z</time></trkpt><trkpt lat="43.3841821" lon="10.5900515"><ele>330.0</ele><time>2026-04-18T12:13:28.988Z</time></trkpt><trkpt lat="43.3842588" lon="10.5901864"><ele>330.0</ele><time>2026-04-18T12:13:29.988Z</time></trkpt><trkpt lat="43.3843198" lon="10.590335"><ele>330.0</ele><time>2026-04-18T12:13:30.988Z</time></trkpt><trkpt lat="43.3843761" lon="10.590496"><ele>330.0</ele><time>2026-04-18T12:13:31.988Z</time></trkpt><trkpt lat="43.3844321" lon="10.5906577"><ele>330.0</ele><time>2026-04-18T12:13:32.989Z</time></trkpt><trkpt lat="43.3844828" lon="10.5908185"><ele>328.75</ele><time>2026-04-18T12:13:33.988Z</time></trkpt><trkpt lat="43.3845265" lon="10.5909691"><ele>327.5</ele><time>2026-04-18T12:13:34.988Z</time></trkpt><trkpt lat="43.3845727" lon="10.5911092"><ele>326.25</ele><time>2026-04-18T12:13:35.988Z</time></trkpt><trkpt lat="43.3846405" lon="10.59124"><ele>325.0</ele><time>2026-04-18T12:13:36.989Z</time></trkpt><trkpt lat="43.3847304" lon="10.5913657"><ele>325.0</ele><time>2026-04-18T12:13:37.988Z</time></trkpt><trkpt lat="43.3848358" lon="10.5914732"><ele>325.0</ele><time>2026-04-18T12:13:38.988Z</time></trkpt><trkpt lat="43.3849539" lon="10.5915615"><ele>325.0</ele><time>2026-04-18T12:13:39.988Z</time></trkpt><trkpt lat="43.3850721" lon="10.5916318"><ele>325.0</ele><time>2026-04-18T12:13:40.988Z</time></trkpt><trkpt lat="43.3852073" lon="10.5916795"><ele>325.0</ele><time>2026-04-18T12:13:41.988Z</time></trkpt><trkpt lat="43.3853372" lon="10.5917218"><ele>325.0</ele><time>2026-04-18T12:13:42.988Z</time></trkpt><trkpt lat="43.3854759" lon="10.5917219"><ele>325.0</ele><time>2026-04-18T12:13:43.988Z</time></trkpt><trkpt lat="43.3856044" lon="10.5917241"><ele>325.0</ele><time>2026-04-18T12:13:44.988Z</time></trkpt><trkpt lat="43.3857315" lon="10.5917351"><ele>324.0</ele><time>2026-04-18T12:13:45.988Z</time></trkpt><trkpt lat="43.3858462" lon="10.591773"><ele>323.0</ele><time>2026-04-18T12:13:46.988Z</time></trkpt><trkpt lat="43.3859494" lon="10.5918344"><ele>322.0</ele><time>2026-04-18T12:13:47.988Z</time></trkpt><trkpt lat="43.3860369" lon="10.5919406"><ele>321.0</ele><time>2026-04-18T12:13:48.988Z</time></trkpt><trkpt lat="43.3860968" lon="10.5920793"><ele>321.0</ele><time>2026-04-18T12:13:49.988Z</time></trkpt><trkpt lat="43.3861316" lon="10.5922473"><ele>321.0</ele><time>2026-04-18T12:13:50.988Z</time></trkpt><trkpt lat="43.3861556" lon="10.5924172"><ele>321.0</ele><time>2026-04-18T12:13:51.988Z</time></trkpt><trkpt lat="43.3861755" lon="10.5925872"><ele>321.0</ele><time>2026-04-18T12:13:52.989Z</time></trkpt><trkpt lat="43.386186" lon="10.5927575"><ele>319.8</ele><time>2026-04-18T12:13:53.988Z</time></trkpt><trkpt lat="43.3861922" lon="10.5929236"><ele>318.6</ele><time>2026-04-18T12:13:54.988Z</time></trkpt><trkpt lat="43.3861931" lon="10.5930813"><ele>317.4</ele><time>2026-04-18T12:13:55.988Z</time></trkpt><trkpt lat="43.3861957" lon="10.5932361"><ele>316.2</ele><time>2026-04-18T12:13:56.988Z</time></trkpt><trkpt lat="43.3862123" lon="10.5933702"><ele>315.0</ele><time>2026-04-18T12:13:57.988Z</time></trkpt><trkpt lat="43.386257" lon="10.5935025"><ele>315.0</ele><time>2026-04-18T12:13:58.988Z</time></trkpt><trkpt lat="43.3863319" lon="10.5936076"><ele>315.0</ele><time>2026-04-18T12:13:59.988Z</time></trkpt><trkpt lat="43.3864336" lon="10.5936936"><ele>315.0</ele><time>2026-04-18T12:14:00.988Z</time></trkpt><trkpt lat="43.3865436" lon="10.5937697"><ele>315.0</ele><time>2026-04-18T12:14:01.988Z</time></trkpt><trkpt lat="43.3866621" lon="10.5938524"><ele>315.75</ele><time>2026-04-18T12:14:02.988Z</time></trkpt><trkpt lat="43.3867699" lon="10.5939552"><ele>316.5</ele><time>2026-04-18T12:14:03.988Z</time></trkpt><trkpt lat="43.3868704" lon="10.5940576"><ele>317.25</ele><time>2026-04-18T12:14:04.989Z</time></trkpt><trkpt lat="43.3869811" lon="10.5941403"><ele>318.0</ele><time>2026-04-18T12:14:05.988Z</time></trkpt><trkpt lat="43.3870907" lon="10.5942137"><ele>318.5</ele><time>2026-04-18T12:14:06.988Z</time></trkpt><trkpt lat="43.3871972" lon="10.5942847"><ele>319.0</ele><time>2026-04-18T12:14:07.988Z</time></trkpt><trkpt lat="43.3873047" lon="10.5943631"><ele>319.5</ele><time>2026-04-18T12:14:08.988Z</time></trkpt><trkpt lat="43.3874075" lon="10.5944479"><ele>320.0</ele><time>2026-04-18T12:14:09.988Z</time></trkpt><trkpt lat="43.3874928" lon="10.5945423"><ele>320.0</ele><time>2026-04-18T12:14:10.988Z</time></trkpt><trkpt lat="43.3875768" lon="10.5946394"><ele>320.0</ele><time>2026-04-18T12:14:11.988Z</time></trkpt><trkpt lat="43.3876478" lon="10.5947308"><ele>320.0</ele><time>2026-04-18T12:14:12.989Z</time></trkpt><trkpt lat="43.3877058" lon="10.5948225"><ele>320.0</ele><time>2026-04-18T12:14:13.988Z</time></trkpt><trkpt lat="43.3877424" lon="10.5949193"><ele>320.0</ele><time>2026-04-18T12:14:14.988Z</time></trkpt><trkpt lat="43.3877414" lon="10.5950266"><ele>320.0</ele><time>2026-04-18T12:14:15.988Z</time></trkpt><trkpt lat="43.3877317" lon="10.5951317"><ele>320.0</ele><time>2026-04-18T12:14:16.988Z</time></trkpt><trkpt lat="43.3877045" lon="10.5952186"><ele>320.0</ele><time>2026-04-18T12:14:17.988Z</time></trkpt><trkpt lat="43.3875614" lon="10.5952752"><ele>320.0</ele><time>2026-04-18T12:14:18.988Z</time></trkpt><trkpt lat="43.3874502" lon="10.5953283"><ele>320.0</ele><time>2026-04-18T12:14:19.988Z</time></trkpt><trkpt lat="43.3873423" lon="10.5953863"><ele>322.2</ele><time>2026-04-18T12:14:20.988Z</time></trkpt><trkpt lat="43.3872429" lon="10.5954477"><ele>324.4</ele><time>2026-04-18T12:14:21.988Z</time></trkpt><trkpt lat="43.3871537" lon="10.5955151"><ele>326.6</ele><time>2026-04-18T12:14:22.988Z</time></trkpt><trkpt lat="43.3870739" lon="10.5956142"><ele>328.8</ele><time>2026-04-18T12:14:23.988Z</time></trkpt><trkpt lat="43.3870173" lon="10.5957359"><ele>331.0</ele><time>2026-04-18T12:14:24.988Z</time></trkpt><trkpt lat="43.3869689" lon="10.5958852"><ele>325.75</ele><time>2026-04-18T12:14:25.988Z</time></trkpt><trkpt lat="43.3869325" lon="10.5960676"><ele>320.5</ele><time>2026-04-18T12:14:26.988Z</time></trkpt><trkpt lat="43.3868936" lon="10.596268"><ele>315.25</ele><time>2026-04-18T12:14:27.989Z</time></trkpt><trkpt lat="43.3868545" lon="10.5964793"><ele>310.0</ele><time>2026-04-18T12:14:28.988Z</time></trkpt><trkpt lat="43.3868067" lon="10.5966845"><ele>310.0</ele><time>2026-04-18T12:14:29.988Z</time></trkpt><trkpt lat="43.3867611" lon="10.596899"><ele>310.0</ele><time>2026-04-18T12:14:30.988Z</time></trkpt><trkpt lat="43.3867129" lon="10.5971081"><ele>310.0</ele><time>2026-04-18T12:14:31.988Z</time></trkpt><trkpt lat="43.3866815" lon="10.5973101"><ele>311.0</ele><time>2026-04-18T12:14:32.988Z</time></trkpt><trkpt lat="43.3866518" lon="10.597507"><ele>312.0</ele><time>2026-04-18T12:14:33.988Z</time></trkpt><trkpt lat="43.386629" lon="10.5977062"><ele>313.0</ele><time>2026-04-18T12:14:34.988Z</time></trkpt><trkpt lat="43.3866146" lon="10.5978981"><ele>314.0</ele><time>2026-04-18T12:14:35.988Z</time></trkpt><trkpt lat="43.3866152" lon="10.5980916"><ele>314.25</ele><time>2026-04-18T12:14:36.988Z</time></trkpt><trkpt lat="43.3866274" lon="10.5982842"><ele>314.5</ele><time>2026-04-18T12:14:37.988Z</time></trkpt><trkpt lat="43.3866559" lon="10.5984749"><ele>314.75</ele><time>2026-04-18T12:14:38.988Z</time></trkpt><trkpt lat="43.3866978" lon="10.5986767"><ele>315.0</ele><time>2026-04-18T12:14:39.988Z</time></trkpt><trkpt lat="43.3867427" lon="10.5988691"><ele>314.0</ele><time>2026-04-18T12:14:40.988Z</time></trkpt><trkpt lat="43.3867842" lon="10.5990564"><ele>313.0</ele><time>2026-04-18T12:14:41.988Z</time></trkpt><trkpt lat="43.3868198" lon="10.5992212"><ele>312.0</ele><time>2026-04-18T12:14:42.988Z</time></trkpt><trkpt lat="43.386846" lon="10.5993801"><ele>311.0</ele><time>2026-04-18T12:14:43.988Z</time></trkpt><trkpt lat="43.3868524" lon="10.5995244"><ele>311.0</ele><time>2026-04-18T12:14:44.988Z</time></trkpt><trkpt lat="43.3868508" lon="10.5996483"><ele>311.0</ele><time>2026-04-18T12:14:45.988Z</time></trkpt><trkpt lat="43.3868454" lon="10.5997559"><ele>311.0</ele><time>2026-04-18T12:14:46.988Z</time></trkpt><trkpt lat="43.3868138" lon="10.5998438"><ele>311.0</ele><time>2026-04-18T12:14:47.988Z</time></trkpt><trkpt lat="43.3867552" lon="10.5999243"><ele>311.0</ele><time>2026-04-18T12:14:48.988Z</time></trkpt><trkpt lat="43.3866537" lon="10.6000058"><ele>311.0</ele><time>2026-04-18T12:14:49.988Z</time></trkpt><trkpt lat="43.3865459" lon="10.6000882"><ele>311.0</ele><time>2026-04-18T12:14:50.988Z</time></trkpt><trkpt lat="43.3864317" lon="10.6001838"><ele>311.0</ele><time>2026-04-18T12:14:51.988Z</time></trkpt><trkpt lat="43.3862985" lon="10.6002998"><ele>311.0</ele><time>2026-04-18T12:14:52.989Z</time></trkpt><trkpt lat="43.3861557" lon="10.6004232"><ele>311.6666666666667</ele><time>2026-04-18T12:14:53.988Z</time></trkpt><trkpt lat="43.3860217" lon="10.6005414"><ele>312.3333333333333</ele><time>2026-04-18T12:14:54.989Z</time></trkpt><trkpt lat="43.385882" lon="10.6006666"><ele>313.0</ele><time>2026-04-18T12:14:55.989Z</time></trkpt><trkpt lat="43.3857542" lon="10.6007745"><ele>313.0</ele><time>2026-04-18T12:14:56.988Z</time></trkpt><trkpt lat="43.3856247" lon="10.6008846"><ele>313.0</ele><time>2026-04-18T12:14:57.988Z</time></trkpt><trkpt lat="43.3855008" lon="10.6010066"><ele>313.0</ele><time>2026-04-18T12:14:58.988Z</time></trkpt><trkpt lat="43.3853833" lon="10.6011365"><ele>311.75</ele><time>2026-04-18T12:14:59.988Z</time></trkpt><trkpt lat="43.3852798" lon="10.6012831"><ele>310.5</ele><time>2026-04-18T12:15:00.988Z</time></trkpt><trkpt lat="43.3851806" lon="10.6014394"><ele>309.25</ele><time>2026-04-18T12:15:01.989Z</time></trkpt><trkpt lat="43.3850904" lon="10.6015951"><ele>308.0</ele><time>2026-04-18T12:15:02.988Z</time></trkpt><trkpt lat="43.3850073" lon="10.6017513"><ele>308.0</ele><time>2026-04-18T12:15:03.988Z</time></trkpt><trkpt lat="43.3849112" lon="10.6019059"><ele>308.0</ele><time>2026-04-18T12:15:04.988Z</time></trkpt><trkpt lat="43.3847881" lon="10.6020547"><ele>308.0</ele><time>2026-04-18T12:15:05.988Z</time></trkpt><trkpt lat="43.3846601" lon="10.602202"><ele>306.0</ele><time>2026-04-18T12:15:06.988Z</time></trkpt><trkpt lat="43.3845354" lon="10.6023441"><ele>304.0</ele><time>2026-04-18T12:15:07.988Z</time></trkpt><trkpt lat="43.3844028" lon="10.602471"><ele>302.0</ele><time>2026-04-18T12:15:08.988Z</time></trkpt><trkpt lat="43.3842786" lon="10.6026011"><ele>302.0</ele><time>2026-04-18T12:15:09.989Z</time></trkpt><trkpt lat="43.3841526" lon="10.6027357"><ele>302.0</ele><time>2026-04-18T12:15:10.988Z</time></trkpt><trkpt lat="43.3840277" lon="10.6028798"><ele>302.0</ele><time>2026-04-18T12:15:11.988Z</time></trkpt><trkpt lat="43.3839112" lon="10.6030341"><ele>301.0</ele><time>2026-04-18T12:15:12.989Z</time></trkpt><trkpt lat="43.3838001" lon="10.6031856"><ele>300.0</ele><time>2026-04-18T12:15:13.988Z</time></trkpt><trkpt lat="43.3836904" lon="10.6033214"><ele>299.0</ele><time>2026-04-18T12:15:14.988Z</time></trkpt><trkpt lat="43.3835896" lon="10.6034679"><ele>299.0</ele><time>2026-04-18T12:15:15.988Z</time></trkpt><trkpt lat="43.3834878" lon="10.6036041"><ele>299.0</ele><time>2026-04-18T12:15:16.988Z</time></trkpt><trkpt lat="43.3833941" lon="10.6037269"><ele>299.0</ele><time>2026-04-18T12:15:17.988Z</time></trkpt><trkpt lat="43.3833027" lon="10.6038259"><ele>299.0</ele><time>2026-04-18T12:15:18.988Z</time></trkpt><trkpt lat="43.3831975" lon="10.6039099"><ele>300.0</ele><time>2026-04-18T12:15:19.988Z</time></trkpt><trkpt lat="43.3830702" lon="10.6039573"><ele>301.0</ele><time>2026-04-18T12:15:20.988Z</time></trkpt><trkpt lat="43.3829309" lon="10.6039636"><ele>302.0</ele><time>2026-04-18T12:15:21.988Z</time></trkpt><trkpt lat="43.3827781" lon="10.6039557"><ele>303.0</ele><time>2026-04-18T12:15:22.988Z</time></trkpt><trkpt lat="43.3826164" lon="10.603948"><ele>303.0</ele><time>2026-04-18T12:15:23.988Z</time></trkpt><trkpt lat="43.3824683" lon="10.6039532"><ele>303.0</ele><time>2026-04-18T12:15:24.989Z</time></trkpt><trkpt lat="43.3823267" lon="10.6039682"><ele>303.0</ele><time>2026-04-18T12:15:25.988Z</time></trkpt><trkpt lat="43.3821849" lon="10.6039697"><ele>303.0</ele><time>2026-04-18T12:15:26.988Z</time></trkpt><trkpt lat="43.3820488" lon="10.6039506"><ele>302.75</ele><time>2026-04-18T12:15:27.988Z</time></trkpt><trkpt lat="43.3819093" lon="10.603902"><ele>302.5</ele><time>2026-04-18T12:15:28.988Z</time></trkpt><trkpt lat="43.3817884" lon="10.603815"><ele>302.25</ele><time>2026-04-18T12:15:29.988Z</time></trkpt><trkpt lat="43.3816722" lon="10.6037048"><ele>302.0</ele><time>2026-04-18T12:15:30.988Z</time></trkpt><trkpt lat="43.381559" lon="10.6035904"><ele>298.75</ele><time>2026-04-18T12:15:31.988Z</time></trkpt><trkpt lat="43.3814346" lon="10.603501"><ele>295.5</ele><time>2026-04-18T12:15:32.988Z</time></trkpt><trkpt lat="43.3812977" lon="10.6034324"><ele>292.25</ele><time>2026-04-18T12:15:33.988Z</time></trkpt><trkpt lat="43.3811652" lon="10.6033776"><ele>289.0</ele><time>2026-04-18T12:15:34.988Z</time></trkpt><trkpt lat="43.3810391" lon="10.6033152"><ele>289.0</ele><time>2026-04-18T12:15:35.988Z</time></trkpt><trkpt lat="43.3809286" lon="10.6032385"><ele>289.0</ele><time>2026-04-18T12:15:36.989Z</time></trkpt><trkpt lat="43.3808305" lon="10.6031104"><ele>289.0</ele><time>2026-04-18T12:15:37.988Z</time></trkpt><trkpt lat="43.3807598" lon="10.6029516"><ele>289.0</ele><time>2026-04-18T12:15:38.988Z</time></trkpt><trkpt lat="43.3806971" lon="10.6027711"><ele>290.0</ele><time>2026-04-18T12:15:39.988Z</time></trkpt><trkpt lat="43.3806257" lon="10.6025828"><ele>291.0</ele><time>2026-04-18T12:15:40.988Z</time></trkpt><trkpt lat="43.3805368" lon="10.6023899"><ele>292.0</ele><time>2026-04-18T12:15:41.988Z</time></trkpt><trkpt lat="43.3804409" lon="10.602201"><ele>292.0</ele><time>2026-04-18T12:15:42.988Z</time></trkpt><trkpt lat="43.3803423" lon="10.602012"><ele>292.0</ele><time>2026-04-18T12:15:43.988Z</time></trkpt><trkpt lat="43.3802499" lon="10.6018174"><ele>292.0</ele><time>2026-04-18T12:15:44.989Z</time></trkpt><trkpt lat="43.3801644" lon="10.6016261"><ele>290.75</ele><time>2026-04-18T12:15:45.988Z</time></trkpt><trkpt lat="43.3800877" lon="10.6014336"><ele>289.5</ele><time>2026-04-18T12:15:46.988Z</time></trkpt><trkpt lat="43.3800194" lon="10.6012476"><ele>288.25</ele><time>2026-04-18T12:15:47.988Z</time></trkpt><trkpt lat="43.3799587" lon="10.6010819"><ele>287.0</ele><time>2026-04-18T12:15:48.988Z</time></trkpt><trkpt lat="43.3798975" lon="10.6009199"><ele>285.0</ele><time>2026-04-18T12:15:49.988Z</time></trkpt><trkpt lat="43.3798335" lon="10.6007891"><ele>283.0</ele><time>2026-04-18T12:15:50.988Z</time></trkpt><trkpt lat="43.3797528" lon="10.6006846"><ele>281.0</ele><time>2026-04-18T12:15:51.988Z</time></trkpt><trkpt lat="43.3796457" lon="10.6006162"><ele>279.0</ele><time>2026-04-18T12:15:52.988Z</time></trkpt><trkpt lat="43.3795155" lon="10.6005788"><ele>279.0</ele><time>2026-04-18T12:15:53.988Z</time></trkpt><trkpt lat="43.3793417" lon="10.6005708"><ele>279.0</ele><time>2026-04-18T12:15:54.989Z</time></trkpt><trkpt lat="43.3791654" lon="10.6005655"><ele>279.0</ele><time>2026-04-18T12:15:55.988Z</time></trkpt><trkpt lat="43.3789963" lon="10.6005351"><ele>281.3333333333333</ele><time>2026-04-18T12:15:56.989Z</time></trkpt><trkpt lat="43.3788363" lon="10.6004895"><ele>283.66666666666663</ele><time>2026-04-18T12:15:57.988Z</time></trkpt><trkpt lat="43.3786804" lon="10.6004044"><ele>286.0</ele><time>2026-04-18T12:15:58.988Z</time></trkpt><trkpt lat="43.3785317" lon="10.6002896"><ele>280.3333333333333</ele><time>2026-04-18T12:15:59.988Z</time></trkpt><trkpt lat="43.3783924" lon="10.6001593"><ele>274.6666666666667</ele><time>2026-04-18T12:16:00.988Z</time></trkpt><trkpt lat="43.378276" lon="10.6000344"><ele>269.0</ele><time>2026-04-18T12:16:01.988Z</time></trkpt><trkpt lat="43.3781625" lon="10.5999352"><ele>269.0</ele><time>2026-04-18T12:16:02.988Z</time></trkpt><trkpt lat="43.3780437" lon="10.5998653"><ele>269.0</ele><time>2026-04-18T12:16:03.988Z</time></trkpt><trkpt lat="43.3779" lon="10.5998293"><ele>269.0</ele><time>2026-04-18T12:16:04.988Z</time></trkpt><trkpt lat="43.377733" lon="10.5998078"><ele>269.0</ele><time>2026-04-18T12:16:05.988Z</time></trkpt><trkpt lat="43.377566" lon="10.5997943"><ele>270.0</ele><time>2026-04-18T12:16:06.988Z</time></trkpt><trkpt lat="43.3774013" lon="10.5997888"><ele>271.0</ele><time>2026-04-18T12:16:07.989Z</time></trkpt><trkpt lat="43.3772375" lon="10.5997838"><ele>272.0</ele><time>2026-04-18T12:16:08.988Z</time></trkpt><trkpt lat="43.3770715" lon="10.5997767"><ele>272.0</ele><time>2026-04-18T12:16:09.988Z</time></trkpt><trkpt lat="43.3769171" lon="10.5997718"><ele>272.0</ele><time>2026-04-18T12:16:10.988Z</time></trkpt><trkpt lat="43.3767586" lon="10.5997679"><ele>272.0</ele><time>2026-04-18T12:16:11.988Z</time></trkpt><trkpt lat="43.3766143" lon="10.5997493"><ele>272.0</ele><time>2026-04-18T12:16:12.988Z</time></trkpt><trkpt lat="43.3764651" lon="10.5997127"><ele>272.0</ele><time>2026-04-18T12:16:13.989Z</time></trkpt><trkpt lat="43.3763173" lon="10.59965"><ele>272.0</ele><time>2026-04-18T12:16:14.988Z</time></trkpt><trkpt lat="43.376165" lon="10.5995697"><ele>270.0</ele><time>2026-04-18T12:16:15.988Z</time></trkpt><trkpt lat="43.3760053" lon="10.5994714"><ele>268.0</ele><time>2026-04-18T12:16:16.988Z</time></trkpt><trkpt lat="43.3758517" lon="10.5993772"><ele>266.0</ele><time>2026-04-18T12:16:17.988Z</time></trkpt><trkpt lat="43.3756999" lon="10.5992858"><ele>266.0</ele><time>2026-04-18T12:16:18.988Z</time></trkpt><trkpt lat="43.3755613" lon="10.5992047"><ele>266.0</ele><time>2026-04-18T12:16:19.988Z</time></trkpt><trkpt lat="43.375431" lon="10.5991221"><ele>266.0</ele><time>2026-04-18T12:16:20.988Z</time></trkpt><trkpt lat="43.3753026" lon="10.5990493"><ele>266.0</ele><time>2026-04-18T12:16:21.988Z</time></trkpt><trkpt lat="43.3751623" lon="10.598983"><ele>267.75</ele><time>2026-04-18T12:16:22.988Z</time></trkpt><trkpt lat="43.3750172" lon="10.5989504"><ele>269.5</ele><time>2026-04-18T12:16:23.988Z</time></trkpt><trkpt lat="43.3748723" lon="10.5989382"><ele>271.25</ele><time>2026-04-18T12:16:24.988Z</time></trkpt><trkpt lat="43.3747359" lon="10.5989159"><ele>273.0</ele><time>2026-04-18T12:16:25.988Z</time></trkpt><trkpt lat="43.374608" lon="10.5988728"><ele>273.5</ele><time>2026-04-18T12:16:26.988Z</time></trkpt><trkpt lat="43.3744858" lon="10.5987929"><ele>274.0</ele><time>2026-04-18T12:16:27.988Z</time></trkpt><trkpt lat="43.3743711" lon="10.5986918"><ele>274.5</ele><time>2026-04-18T12:16:28.988Z</time></trkpt><trkpt lat="43.3742747" lon="10.5986014"><ele>275.0</ele><time>2026-04-18T12:16:29.988Z</time></trkpt><trkpt lat="43.3741823" lon="10.5985426"><ele>273.0</ele><time>2026-04-18T12:16:30.988Z</time></trkpt><trkpt lat="43.3740905" lon="10.5985121"><ele>271.0</ele><time>2026-04-18T12:16:31.988Z</time></trkpt><trkpt lat="43.3740042" lon="10.5985062"><ele>269.0</ele><time>2026-04-18T12:16:32.988Z</time></trkpt><trkpt lat="43.3739188" lon="10.5985305"><ele>267.0</ele><time>2026-04-18T12:16:33.988Z</time></trkpt><trkpt lat="43.3738372" lon="10.5986101"><ele>265.0</ele><time>2026-04-18T12:16:34.988Z</time></trkpt><trkpt lat="43.373769" lon="10.5987331"><ele>265.0</ele><time>2026-04-18T12:16:35.988Z</time></trkpt><trkpt lat="43.3737104" lon="10.5988618"><ele>265.0</ele><time>2026-04-18T12:16:36.988Z</time></trkpt><trkpt lat="43.3736261" lon="10.5989899"><ele>265.0</ele><time>2026-04-18T12:16:37.988Z</time></trkpt><trkpt lat="43.3735237" lon="10.5991018"><ele>265.0</ele><time>2026-04-18T12:16:38.989Z</time></trkpt><trkpt lat="43.3734047" lon="10.5991766"><ele>265.0</ele><time>2026-04-18T12:16:39.988Z</time></trkpt><trkpt lat="43.3732809" lon="10.5992125"><ele>265.0</ele><time>2026-04-18T12:16:40.988Z</time></trkpt><trkpt lat="43.3731553" lon="10.5992106"><ele>265.0</ele><time>2026-04-18T12:16:41.988Z</time></trkpt><trkpt lat="43.3730297" lon="10.5991673"><ele>265.0</ele><time>2026-04-18T12:16:42.988Z</time></trkpt><trkpt lat="43.3728969" lon="10.599104"><ele>264.5</ele><time>2026-04-18T12:16:43.988Z</time></trkpt><trkpt lat="43.3727646" lon="10.5990361"><ele>264.0</ele><time>2026-04-18T12:16:44.988Z</time></trkpt><trkpt lat="43.3726361" lon="10.5989594"><ele>263.5</ele><time>2026-04-18T12:16:45.988Z</time></trkpt><trkpt lat="43.3725183" lon="10.5988693"><ele>263.0</ele><time>2026-04-18T12:16:46.988Z</time></trkpt><trkpt lat="43.3724154" lon="10.598762"><ele>261.5</ele><time>2026-04-18T12:16:47.988Z</time></trkpt><trkpt lat="43.372327" lon="10.598636"><ele>260.0</ele><time>2026-04-18T12:16:48.988Z</time></trkpt><trkpt lat="43.3722658" lon="10.5984797"><ele>258.5</ele><time>2026-04-18T12:16:49.989Z</time></trkpt><trkpt lat="43.3722358" lon="10.5983074"><ele>257.0</ele><time>2026-04-18T12:16:50.988Z</time></trkpt><trkpt lat="43.3722247" lon="10.5981267"><ele>257.0</ele><time>2026-04-18T12:16:51.988Z</time></trkpt><trkpt lat="43.3722132" lon="10.597949"><ele>257.0</ele><time>2026-04-18T12:16:52.988Z</time></trkpt><trkpt lat="43.372187" lon="10.5977751"><ele>257.0</ele><time>2026-04-18T12:16:53.988Z</time></trkpt><trkpt lat="43.3721456" lon="10.5976151"><ele>257.0</ele><time>2026-04-18T12:16:54.988Z</time></trkpt><trkpt lat="43.3720935" lon="10.5974877"><ele>256.6</ele><time>2026-04-18T12:16:55.988Z</time></trkpt><trkpt lat="43.3720395" lon="10.5973746"><ele>256.2</ele><time>2026-04-18T12:16:56.988Z</time></trkpt><trkpt lat="43.3719478" lon="10.5973338"><ele>255.8</ele><time>2026-04-18T12:16:57.988Z</time></trkpt><trkpt lat="43.3718786" lon="10.5972687"><ele>255.4</ele><time>2026-04-18T12:16:58.988Z</time></trkpt><trkpt lat="43.3717387" lon="10.5973152"><ele>255.0</ele><time>2026-04-18T12:17:00.988Z</time></trkpt><trkpt lat="43.3716764" lon="10.5974033"><ele>255.0</ele><time>2026-04-18T12:17:01.988Z</time></trkpt><trkpt lat="43.3715954" lon="10.5975873"><ele>255.0</ele><time>2026-04-18T12:17:02.988Z</time></trkpt><trkpt lat="43.3715711" lon="10.5977214"><ele>255.0</ele><time>2026-04-18T12:17:03.988Z</time></trkpt><trkpt lat="43.3715455" lon="10.597842"><ele>255.0</ele><time>2026-04-18T12:17:04.988Z</time></trkpt><trkpt lat="43.3715517" lon="10.5980054"><ele>255.0</ele><time>2026-04-18T12:17:05.988Z</time></trkpt><trkpt lat="43.3715955" lon="10.5981427"><ele>255.0</ele><time>2026-04-18T12:17:06.988Z</time></trkpt><trkpt lat="43.371625" lon="10.5982805"><ele>255.0</ele><time>2026-04-18T12:17:07.988Z</time></trkpt><trkpt lat="43.3716416" lon="10.5984235"><ele>255.0</ele><time>2026-04-18T12:17:08.988Z</time></trkpt><trkpt lat="43.3716546" lon="10.598578"><ele>255.0</ele><time>2026-04-18T12:17:09.988Z</time></trkpt><trkpt lat="43.3716559" lon="10.598732"><ele>254.75</ele><time>2026-04-18T12:17:10.988Z</time></trkpt><trkpt lat="43.3716408" lon="10.5988828"><ele>254.5</ele><time>2026-04-18T12:17:11.988Z</time></trkpt><trkpt lat="43.3715934" lon="10.5990172"><ele>254.25</ele><time>2026-04-18T12:17:12.988Z</time></trkpt><trkpt lat="43.3715282" lon="10.5991445"><ele>254.0</ele><time>2026-04-18T12:17:13.988Z</time></trkpt><trkpt lat="43.3714462" lon="10.5992627"><ele>254.0</ele><time>2026-04-18T12:17:14.988Z</time></trkpt><trkpt lat="43.3713661" lon="10.5993612"><ele>253.99999999999997</ele><time>2026-04-18T12:17:15.988Z</time></trkpt><trkpt lat="43.3712987" lon="10.5994597"><ele>253.99999999999997</ele><time>2026-04-18T12:17:16.988Z</time></trkpt><trkpt lat="43.3712415" lon="10.5995814"><ele>254.0</ele><time>2026-04-18T12:17:17.988Z</time></trkpt><trkpt lat="43.3712103" lon="10.5997336"><ele>254.0</ele><time>2026-04-18T12:17:18.988Z</time></trkpt><trkpt lat="43.3711964" lon="10.5999"><ele>249.75</ele><time>2026-04-18T12:17:19.988Z</time></trkpt><trkpt lat="43.3711857" lon="10.6000664"><ele>245.5</ele><time>2026-04-18T12:17:20.988Z</time></trkpt><trkpt lat="43.371183" lon="10.6002459"><ele>241.25</ele><time>2026-04-18T12:17:21.988Z</time></trkpt><trkpt lat="43.3711743" lon="10.6004243"><ele>237.0</ele><time>2026-04-18T12:17:22.988Z</time></trkpt><trkpt lat="43.3711628" lon="10.6005959"><ele>237.0</ele><time>2026-04-18T12:17:23.988Z</time></trkpt><trkpt lat="43.3711442" lon="10.6007649"><ele>237.0</ele><time>2026-04-18T12:17:24.988Z</time></trkpt><trkpt lat="43.3711371" lon="10.6009251"><ele>237.0</ele><time>2026-04-18T12:17:25.988Z</time></trkpt><trkpt lat="43.3711201" lon="10.6010854"><ele>237.0</ele><time>2026-04-18T12:17:26.988Z</time></trkpt><trkpt lat="43.3710967" lon="10.6012283"><ele>237.8</ele><time>2026-04-18T12:17:27.988Z</time></trkpt><trkpt lat="43.3710759" lon="10.6013613"><ele>238.6</ele><time>2026-04-18T12:17:28.988Z</time></trkpt><trkpt lat="43.3709791" lon="10.6014499"><ele>239.40000000000003</ele><time>2026-04-18T12:17:29.988Z</time></trkpt><trkpt lat="43.3708944" lon="10.6015354"><ele>240.20000000000002</ele><time>2026-04-18T12:17:30.988Z</time></trkpt><trkpt lat="43.3707943" lon="10.6016216"><ele>241.0</ele><time>2026-04-18T12:17:31.988Z</time></trkpt><trkpt lat="43.3706802" lon="10.6017143"><ele>241.0</ele><time>2026-04-18T12:17:32.988Z</time></trkpt><trkpt lat="43.3705539" lon="10.6017872"><ele>241.0</ele><time>2026-04-18T12:17:33.988Z</time></trkpt><trkpt lat="43.3704254" lon="10.6018478"><ele>241.0</ele><time>2026-04-18T12:17:34.988Z</time></trkpt><trkpt lat="43.370306" lon="10.6019079"><ele>241.0</ele><time>2026-04-18T12:17:35.988Z</time></trkpt><trkpt lat="43.3701879" lon="10.6019675"><ele>241.75</ele><time>2026-04-18T12:17:36.988Z</time></trkpt><trkpt lat="43.370073" lon="10.6020292"><ele>242.5</ele><time>2026-04-18T12:17:37.988Z</time></trkpt><trkpt lat="43.3699619" lon="10.6020853"><ele>243.25</ele><time>2026-04-18T12:17:38.988Z</time></trkpt><trkpt lat="43.3698508" lon="10.6021417"><ele>244.0</ele><time>2026-04-18T12:17:39.988Z</time></trkpt><trkpt lat="43.3697397" lon="10.6022112"><ele>241.25</ele><time>2026-04-18T12:17:40.988Z</time></trkpt><trkpt lat="43.3696412" lon="10.602307"><ele>238.5</ele><time>2026-04-18T12:17:41.988Z</time></trkpt><trkpt lat="43.3695561" lon="10.6024111"><ele>235.75</ele><time>2026-04-18T12:17:42.988Z</time></trkpt><trkpt lat="43.369475" lon="10.6025186"><ele>233.0</ele><time>2026-04-18T12:17:43.988Z</time></trkpt><trkpt lat="43.3693964" lon="10.6026184"><ele>233.0</ele><time>2026-04-18T12:17:44.988Z</time></trkpt><trkpt lat="43.3693091" lon="10.6027077"><ele>233.0</ele><time>2026-04-18T12:17:45.988Z</time></trkpt><trkpt lat="43.3692145" lon="10.6027801"><ele>233.0</ele><time>2026-04-18T12:17:46.988Z</time></trkpt><trkpt lat="43.3691175" lon="10.6028279"><ele>233.0</ele><time>2026-04-18T12:17:47.988Z</time></trkpt><trkpt lat="43.3690156" lon="10.6028639"><ele>233.0</ele><time>2026-04-18T12:17:48.988Z</time></trkpt><trkpt lat="43.3689184" lon="10.6028678"><ele>232.60000000000002</ele><time>2026-04-18T12:17:49.988Z</time></trkpt><trkpt lat="43.3688152" lon="10.6028506"><ele>232.20000000000002</ele><time>2026-04-18T12:17:50.988Z</time></trkpt><trkpt lat="43.3687115" lon="10.6028026"><ele>231.8</ele><time>2026-04-18T12:17:51.988Z</time></trkpt><trkpt lat="43.3686111" lon="10.6027451"><ele>231.4</ele><time>2026-04-18T12:17:52.988Z</time></trkpt><trkpt lat="43.3685071" lon="10.6026809"><ele>231.0</ele><time>2026-04-18T12:17:53.988Z</time></trkpt><trkpt lat="43.3684073" lon="10.6026155"><ele>231.0</ele><time>2026-04-18T12:17:54.988Z</time></trkpt><trkpt lat="43.3683128" lon="10.6025393"><ele>231.00000000000003</ele><time>2026-04-18T12:17:55.988Z</time></trkpt><trkpt lat="43.3682135" lon="10.6024617"><ele>231.00000000000003</ele><time>2026-04-18T12:17:56.988Z</time></trkpt><trkpt lat="43.3681117" lon="10.6023942"><ele>231.0</ele><time>2026-04-18T12:17:57.988Z</time></trkpt><trkpt lat="43.3680126" lon="10.6023388"><ele>231.0</ele><time>2026-04-18T12:17:58.988Z</time></trkpt><trkpt lat="43.3679246" lon="10.6022595"><ele>231.60000000000002</ele><time>2026-04-18T12:17:59.988Z</time></trkpt><trkpt lat="43.3678528" lon="10.6022196"><ele>232.20000000000002</ele><time>2026-04-18T12:18:00.988Z</time></trkpt><trkpt lat="43.3677695" lon="10.6021643"><ele>232.79999999999998</ele><time>2026-04-18T12:18:01.988Z</time></trkpt><trkpt lat="43.367682" lon="10.6021073"><ele>233.39999999999998</ele><time>2026-04-18T12:18:02.988Z</time></trkpt><trkpt lat="43.3675895" lon="10.6020511"><ele>234.0</ele><time>2026-04-18T12:18:03.988Z</time></trkpt><trkpt lat="43.3675016" lon="10.6019855"><ele>232.6</ele><time>2026-04-18T12:18:04.988Z</time></trkpt><trkpt lat="43.3674074" lon="10.6019223"><ele>231.2</ele><time>2026-04-18T12:18:05.988Z</time></trkpt><trkpt lat="43.3673188" lon="10.6018558"><ele>229.79999999999998</ele><time>2026-04-18T12:18:06.988Z</time></trkpt><trkpt lat="43.367231" lon="10.6017921"><ele>228.39999999999998</ele><time>2026-04-18T12:18:07.988Z</time></trkpt><trkpt lat="43.3671441" lon="10.601731"><ele>227.0</ele><time>2026-04-18T12:18:08.988Z</time></trkpt><trkpt lat="43.3670572" lon="10.6016682"><ele>227.0</ele><time>2026-04-18T12:18:09.988Z</time></trkpt><trkpt lat="43.3669685" lon="10.6016095"><ele>227.0</ele><time>2026-04-18T12:18:10.988Z</time></trkpt><trkpt lat="43.3668771" lon="10.6015405"><ele>227.0</ele><time>2026-04-18T12:18:11.988Z</time></trkpt><trkpt lat="43.366799" lon="10.6014767"><ele>227.0</ele><time>2026-04-18T12:18:12.988Z</time></trkpt><trkpt lat="43.3667187" lon="10.6014253"><ele>227.0</ele><time>2026-04-18T12:18:13.989Z</time></trkpt><trkpt lat="43.3666381" lon="10.6013641"><ele>227.0</ele><time>2026-04-18T12:18:14.988Z</time></trkpt><trkpt lat="43.3665644" lon="10.6013121"><ele>227.0</ele><time>2026-04-18T12:18:15.988Z</time></trkpt><trkpt lat="43.3664912" lon="10.6012614"><ele>227.0</ele><time>2026-04-18T12:18:16.988Z</time></trkpt><trkpt lat="43.366413" lon="10.6011848"><ele>227.0</ele><time>2026-04-18T12:18:17.989Z</time></trkpt><trkpt lat="43.3663319" lon="10.6011108"><ele>227.0</ele><time>2026-04-18T12:18:18.988Z</time></trkpt><trkpt lat="43.3662515" lon="10.6010465"><ele>225.66666666666669</ele><time>2026-04-18T12:18:19.988Z</time></trkpt><trkpt lat="43.3661652" lon="10.6009949"><ele>224.33333333333334</ele><time>2026-04-18T12:18:20.988Z</time></trkpt><trkpt lat="43.3660756" lon="10.600953"><ele>223.0</ele><time>2026-04-18T12:18:21.988Z</time></trkpt><trkpt lat="43.3660064" lon="10.6008924"><ele>221.66666666666669</ele><time>2026-04-18T12:18:22.988Z</time></trkpt><trkpt lat="43.3659363" lon="10.6008394"><ele>220.33333333333334</ele><time>2026-04-18T12:18:23.988Z</time></trkpt><trkpt lat="43.3658677" lon="10.6008017"><ele>219.0</ele><time>2026-04-18T12:18:24.988Z</time></trkpt><trkpt lat="43.3658065" lon="10.6007692"><ele>219.0</ele><time>2026-04-18T12:18:25.988Z</time></trkpt><trkpt lat="43.3657213" lon="10.6007037"><ele>218.99999999999997</ele><time>2026-04-18T12:18:27.988Z</time></trkpt><trkpt lat="43.3657989" lon="10.6007858"><ele>218.99999999999997</ele><time>2026-04-18T12:18:34.988Z</time></trkpt><trkpt lat="43.3659067" lon="10.6008428"><ele>219.0</ele><time>2026-04-18T12:18:36.988Z</time></trkpt><trkpt lat="43.3659964" lon="10.6008895"><ele>219.0</ele><time>2026-04-18T12:18:37.988Z</time></trkpt><trkpt lat="43.3660905" lon="10.6009669"><ele>219.0</ele><time>2026-04-18T12:18:38.988Z</time></trkpt><trkpt lat="43.3662012" lon="10.6010477"><ele>219.0</ele><time>2026-04-18T12:18:39.988Z</time></trkpt><trkpt lat="43.3663292" lon="10.6011484"><ele>219.0</ele><time>2026-04-18T12:18:40.989Z</time></trkpt><trkpt lat="43.3664536" lon="10.60124"><ele>219.0</ele><time>2026-04-18T12:18:41.988Z</time></trkpt><trkpt lat="43.3665715" lon="10.6013237"><ele>221.0</ele><time>2026-04-18T12:18:42.988Z</time></trkpt><trkpt lat="43.3666917" lon="10.6014003"><ele>223.0</ele><time>2026-04-18T12:18:43.988Z</time></trkpt><trkpt lat="43.3668054" lon="10.6014898"><ele>225.0</ele><time>2026-04-18T12:18:44.988Z</time></trkpt><trkpt lat="43.3669225" lon="10.6015668"><ele>227.0</ele><time>2026-04-18T12:18:45.989Z</time></trkpt><trkpt lat="43.367031" lon="10.6016525"><ele>227.0</ele><time>2026-04-18T12:18:46.988Z</time></trkpt><trkpt lat="43.3671358" lon="10.6017318"><ele>227.0</ele><time>2026-04-18T12:18:47.988Z</time></trkpt><trkpt lat="43.3672396" lon="10.6018081"><ele>227.0</ele><time>2026-04-18T12:18:48.988Z</time></trkpt><trkpt lat="43.3673444" lon="10.6018805"><ele>227.0</ele><time>2026-04-18T12:18:49.988Z</time></trkpt><trkpt lat="43.3674527" lon="10.6019556"><ele>228.75</ele><time>2026-04-18T12:18:50.988Z</time></trkpt><trkpt lat="43.3675727" lon="10.6020406"><ele>230.5</ele><time>2026-04-18T12:18:51.988Z</time></trkpt><trkpt lat="43.3676982" lon="10.6021345"><ele>232.25</ele><time>2026-04-18T12:18:52.988Z</time></trkpt><trkpt lat="43.3678231" lon="10.602224"><ele>234.0</ele><time>2026-04-18T12:18:53.988Z</time></trkpt><trkpt lat="43.3679492" lon="10.6023073"><ele>233.25</ele><time>2026-04-18T12:18:54.988Z</time></trkpt><trkpt lat="43.3680604" lon="10.6024037"><ele>232.5</ele><time>2026-04-18T12:18:55.988Z</time></trkpt><trkpt lat="43.3681603" lon="10.6024959"><ele>231.75</ele><time>2026-04-18T12:18:56.989Z</time></trkpt><trkpt lat="43.3682698" lon="10.6025661"><ele>231.0</ele><time>2026-04-18T12:18:57.988Z</time></trkpt><trkpt lat="43.3683779" lon="10.6026436"><ele>231.0</ele><time>2026-04-18T12:18:58.988Z</time></trkpt><trkpt lat="43.3684873" lon="10.6027191"><ele>231.0</ele><time>2026-04-18T12:18:59.988Z</time></trkpt><trkpt lat="43.3685955" lon="10.6027806"><ele>231.0</ele><time>2026-04-18T12:19:00.988Z</time></trkpt><trkpt lat="43.3687041" lon="10.6028547"><ele>231.0</ele><time>2026-04-18T12:19:01.989Z</time></trkpt><trkpt lat="43.3688" lon="10.6029209"><ele>231.0</ele><time>2026-04-18T12:19:02.988Z</time></trkpt><trkpt lat="43.3688936" lon="10.60299"><ele>231.00000000000003</ele><time>2026-04-18T12:19:03.988Z</time></trkpt><trkpt lat="43.3689918" lon="10.6030643"><ele>231.00000000000003</ele><time>2026-04-18T12:19:04.988Z</time></trkpt><trkpt lat="43.3690685" lon="10.6031524"><ele>231.0</ele><time>2026-04-18T12:19:05.988Z</time></trkpt><trkpt lat="43.3691666" lon="10.603229"><ele>231.0</ele><time>2026-04-18T12:19:06.988Z</time></trkpt><trkpt lat="43.369247" lon="10.6033015"><ele>231.0</ele><time>2026-04-18T12:19:07.988Z</time></trkpt><trkpt lat="43.3693043" lon="10.6033834"><ele>231.00000000000003</ele><time>2026-04-18T12:19:08.988Z</time></trkpt><trkpt lat="43.369365" lon="10.6034755"><ele>231.00000000000003</ele><time>2026-04-18T12:19:09.988Z</time></trkpt><trkpt lat="43.3694238" lon="10.6035742"><ele>231.0</ele><time>2026-04-18T12:19:10.989Z</time></trkpt><trkpt lat="43.3694907" lon="10.6036786"><ele>231.0</ele><time>2026-04-18T12:19:11.988Z</time></trkpt><trkpt lat="43.3695527" lon="10.6037773"><ele>233.0</ele><time>2026-04-18T12:19:12.988Z</time></trkpt><trkpt lat="43.3696056" lon="10.6038728"><ele>235.00000000000003</ele><time>2026-04-18T12:19:13.989Z</time></trkpt><trkpt lat="43.3696524" lon="10.6039706"><ele>237.00000000000003</ele><time>2026-04-18T12:19:14.988Z</time></trkpt><trkpt lat="43.3696959" lon="10.6040809"><ele>239.0</ele><time>2026-04-18T12:19:15.988Z</time></trkpt><trkpt lat="43.3697466" lon="10.6041861"><ele>241.0</ele><time>2026-04-18T12:19:16.988Z</time></trkpt><trkpt lat="43.3698145" lon="10.6042962"><ele>241.0</ele><time>2026-04-18T12:19:17.988Z</time></trkpt><trkpt lat="43.3698842" lon="10.6043847"><ele>241.00000000000003</ele><time>2026-04-18T12:19:18.988Z</time></trkpt><trkpt lat="43.3699724" lon="10.6044708"><ele>241.00000000000003</ele><time>2026-04-18T12:19:19.988Z</time></trkpt><trkpt lat="43.370065" lon="10.6045567"><ele>241.0</ele><time>2026-04-18T12:19:20.988Z</time></trkpt><trkpt lat="43.3701471" lon="10.6046392"><ele>241.0</ele><time>2026-04-18T12:19:21.988Z</time></trkpt><trkpt lat="43.3702331" lon="10.6047112"><ele>240.20000000000002</ele><time>2026-04-18T12:19:22.988Z</time></trkpt><trkpt lat="43.3703221" lon="10.6047743"><ele>239.40000000000003</ele><time>2026-04-18T12:19:23.988Z</time></trkpt><trkpt lat="43.3704166" lon="10.6048337"><ele>238.6</ele><time>2026-04-18T12:19:24.988Z</time></trkpt><trkpt lat="43.3705184" lon="10.6048952"><ele>237.8</ele><time>2026-04-18T12:19:25.988Z</time></trkpt><trkpt lat="43.3706295" lon="10.6049627"><ele>237.0</ele><time>2026-04-18T12:19:26.988Z</time></trkpt><trkpt lat="43.3707393" lon="10.6050247"><ele>237.0</ele><time>2026-04-18T12:19:27.988Z</time></trkpt><trkpt lat="43.3708466" lon="10.6050837"><ele>237.0</ele><time>2026-04-18T12:19:28.988Z</time></trkpt><trkpt lat="43.3709488" lon="10.6051421"><ele>237.0</ele><time>2026-04-18T12:19:29.988Z</time></trkpt><trkpt lat="43.3710565" lon="10.6052046"><ele>237.0</ele><time>2026-04-18T12:19:30.988Z</time></trkpt><trkpt lat="43.3711565" lon="10.60527"><ele>237.39999999999998</ele><time>2026-04-18T12:19:31.988Z</time></trkpt><trkpt lat="43.3712554" lon="10.6053351"><ele>237.79999999999998</ele><time>2026-04-18T12:19:32.988Z</time></trkpt><trkpt lat="43.3713473" lon="10.6054119"><ele>238.2</ele><time>2026-04-18T12:19:33.988Z</time></trkpt><trkpt lat="43.371422" lon="10.6055055"><ele>238.6</ele><time>2026-04-18T12:19:34.988Z</time></trkpt><trkpt lat="43.37149" lon="10.6056092"><ele>239.0</ele><time>2026-04-18T12:19:35.988Z</time></trkpt><trkpt lat="43.3715481" lon="10.6057312"><ele>239.0</ele><time>2026-04-18T12:19:36.988Z</time></trkpt><trkpt lat="43.371582" lon="10.6058685"><ele>239.0</ele><time>2026-04-18T12:19:37.988Z</time></trkpt><trkpt lat="43.3716033" lon="10.6060249"><ele>239.0</ele><time>2026-04-18T12:19:38.988Z</time></trkpt><trkpt lat="43.3716171" lon="10.6061985"><ele>239.0</ele><time>2026-04-18T12:19:39.988Z</time></trkpt><trkpt lat="43.3716327" lon="10.6063654"><ele>238.25</ele><time>2026-04-18T12:19:40.988Z</time></trkpt><trkpt lat="43.3716553" lon="10.6065217"><ele>237.5</ele><time>2026-04-18T12:19:41.988Z</time></trkpt><trkpt lat="43.3716831" lon="10.6066791"><ele>236.75</ele><time>2026-04-18T12:19:42.989Z</time></trkpt><trkpt lat="43.3717061" lon="10.6068226"><ele>236.0</ele><time>2026-04-18T12:19:43.988Z</time></trkpt><trkpt lat="43.3717214" lon="10.606985"><ele>234.60000000000002</ele><time>2026-04-18T12:19:44.988Z</time></trkpt><trkpt lat="43.3717175" lon="10.607125"><ele>233.20000000000002</ele><time>2026-04-18T12:19:45.988Z</time></trkpt><trkpt lat="43.3717105" lon="10.6072599"><ele>231.79999999999998</ele><time>2026-04-18T12:19:46.988Z</time></trkpt><trkpt lat="43.3717108" lon="10.6073873"><ele>230.39999999999998</ele><time>2026-04-18T12:19:47.988Z</time></trkpt><trkpt lat="43.3717332" lon="10.6075008"><ele>229.0</ele><time>2026-04-18T12:19:48.988Z</time></trkpt><trkpt lat="43.3717783" lon="10.6076272"><ele>229.0</ele><time>2026-04-18T12:19:49.988Z</time></trkpt><trkpt lat="43.3718265" lon="10.6077561"><ele>228.99999999999997</ele><time>2026-04-18T12:19:50.988Z</time></trkpt><trkpt lat="43.3718669" lon="10.6078808"><ele>228.99999999999997</ele><time>2026-04-18T12:19:51.988Z</time></trkpt><trkpt lat="43.3718941" lon="10.608006"><ele>229.0</ele><time>2026-04-18T12:19:52.988Z</time></trkpt><trkpt lat="43.3719115" lon="10.6081362"><ele>229.0</ele><time>2026-04-18T12:19:53.988Z</time></trkpt><trkpt lat="43.3719107" lon="10.6082881"><ele>228.66666666666666</ele><time>2026-04-18T12:19:54.988Z</time></trkpt><trkpt lat="43.3718902" lon="10.6084318"><ele>228.33333333333331</ele><time>2026-04-18T12:19:55.988Z</time></trkpt><trkpt lat="43.3718705" lon="10.6085647"><ele>228.0</ele><time>2026-04-18T12:19:56.988Z</time></trkpt><trkpt lat="43.3718498" lon="10.6086735"><ele>227.66666666666669</ele><time>2026-04-18T12:19:57.988Z</time></trkpt><trkpt lat="43.3717998" lon="10.6087505"><ele>227.33333333333334</ele><time>2026-04-18T12:19:58.988Z</time></trkpt><trkpt lat="43.3717368" lon="10.6087992"><ele>227.0</ele><time>2026-04-18T12:19:59.988Z</time></trkpt><trkpt lat="43.3716279" lon="10.6088082"><ele>227.00000000000003</ele><time>2026-04-18T12:20:01.988Z</time></trkpt><trkpt lat="43.3715684" lon="10.6087704"><ele>227.0</ele><time>2026-04-18T12:20:02.988Z</time></trkpt><trkpt lat="43.3715093" lon="10.6087234"><ele>227.0</ele><time>2026-04-18T12:20:03.988Z</time></trkpt><trkpt lat="43.3714721" lon="10.608648"><ele>227.0</ele><time>2026-04-18T12:20:04.988Z</time></trkpt><trkpt lat="43.3713574" lon="10.6085831"><ele>227.00000000000003</ele><time>2026-04-18T12:20:06.988Z</time></trkpt><trkpt lat="43.3712763" lon="10.6085696"><ele>227.0</ele><time>2026-04-18T12:20:07.988Z</time></trkpt><trkpt lat="43.3711735" lon="10.6085791"><ele>227.6</ele><time>2026-04-18T12:20:08.988Z</time></trkpt><trkpt lat="43.3710806" lon="10.6085981"><ele>228.2</ele><time>2026-04-18T12:20:09.988Z</time></trkpt><trkpt lat="43.3709898" lon="10.6086331"><ele>228.8</ele><time>2026-04-18T12:20:10.988Z</time></trkpt><trkpt lat="43.3708903" lon="10.608656"><ele>229.4</ele><time>2026-04-18T12:20:11.988Z</time></trkpt><trkpt lat="43.3708033" lon="10.6086969"><ele>230.0</ele><time>2026-04-18T12:20:12.988Z</time></trkpt><trkpt lat="43.3707152" lon="10.608731"><ele>230.0</ele><time>2026-04-18T12:20:13.988Z</time></trkpt><trkpt lat="43.3706269" lon="10.6087752"><ele>230.0</ele><time>2026-04-18T12:20:14.988Z</time></trkpt><trkpt lat="43.3705622" lon="10.6088743"><ele>230.0</ele><time>2026-04-18T12:20:15.989Z</time></trkpt><trkpt lat="43.3704911" lon="10.6089802"><ele>230.0</ele><time>2026-04-18T12:20:16.988Z</time></trkpt><trkpt lat="43.3704268" lon="10.6090934"><ele>230.0</ele><time>2026-04-18T12:20:17.988Z</time></trkpt><trkpt lat="43.3703458" lon="10.609207"><ele>227.25</ele><time>2026-04-18T12:20:18.988Z</time></trkpt><trkpt lat="43.3702578" lon="10.6093233"><ele>224.5</ele><time>2026-04-18T12:20:19.988Z</time></trkpt><trkpt lat="43.3701472" lon="10.6094249"><ele>221.75</ele><time>2026-04-18T12:20:20.988Z</time></trkpt><trkpt lat="43.3700468" lon="10.6095146"><ele>219.0</ele><time>2026-04-18T12:20:21.988Z</time></trkpt><trkpt lat="43.3699524" lon="10.6096044"><ele>219.0</ele><time>2026-04-18T12:20:22.988Z</time></trkpt><trkpt lat="43.3698749" lon="10.6096908"><ele>218.99999999999997</ele><time>2026-04-18T12:20:23.988Z</time></trkpt><trkpt lat="43.3698132" lon="10.6097802"><ele>218.99999999999997</ele><time>2026-04-18T12:20:24.988Z</time></trkpt><trkpt lat="43.3697517" lon="10.6098762"><ele>219.0</ele><time>2026-04-18T12:20:25.988Z</time></trkpt><trkpt lat="43.3696909" lon="10.6099718"><ele>219.0</ele><time>2026-04-18T12:20:26.988Z</time></trkpt><trkpt lat="43.3696226" lon="10.6100847"><ele>218.0</ele><time>2026-04-18T12:20:27.988Z</time></trkpt><trkpt lat="43.3695509" lon="10.6101881"><ele>216.99999999999997</ele><time>2026-04-18T12:20:28.989Z</time></trkpt><trkpt lat="43.3694744" lon="10.610297"><ele>215.99999999999997</ele><time>2026-04-18T12:20:29.988Z</time></trkpt><trkpt lat="43.3693956" lon="10.6103967"><ele>215.0</ele><time>2026-04-18T12:20:30.988Z</time></trkpt><trkpt lat="43.3693214" lon="10.6105071"><ele>214.0</ele><time>2026-04-18T12:20:31.988Z</time></trkpt><trkpt lat="43.3692515" lon="10.6105955"><ele>214.0</ele><time>2026-04-18T12:20:32.988Z</time></trkpt><trkpt lat="43.369183" lon="10.6106662"><ele>213.99999999999997</ele><time>2026-04-18T12:20:33.989Z</time></trkpt><trkpt lat="43.3691051" lon="10.6107079"><ele>213.99999999999997</ele><time>2026-04-18T12:20:34.988Z</time></trkpt><trkpt lat="43.3690227" lon="10.6107306"><ele>214.0</ele><time>2026-04-18T12:20:35.988Z</time></trkpt><trkpt lat="43.3689031" lon="10.6107127"><ele>214.0</ele><time>2026-04-18T12:20:36.988Z</time></trkpt><trkpt lat="43.3688015" lon="10.6107095"><ele>213.6</ele><time>2026-04-18T12:20:37.988Z</time></trkpt><trkpt lat="43.3687089" lon="10.610727"><ele>213.2</ele><time>2026-04-18T12:20:38.988Z</time></trkpt><trkpt lat="43.3686157" lon="10.6107669"><ele>212.79999999999998</ele><time>2026-04-18T12:20:39.988Z</time></trkpt><trkpt lat="43.3685256" lon="10.610809"><ele>212.39999999999998</ele><time>2026-04-18T12:20:40.988Z</time></trkpt><trkpt lat="43.368424" lon="10.6108473"><ele>212.0</ele><time>2026-04-18T12:20:41.988Z</time></trkpt><trkpt lat="43.368331" lon="10.6108257"><ele>212.0</ele><time>2026-04-18T12:20:42.988Z</time></trkpt><trkpt lat="43.3682336" lon="10.6107789"><ele>212.0</ele><time>2026-04-18T12:20:43.988Z</time></trkpt><trkpt lat="43.3681275" lon="10.61074"><ele>212.0</ele><time>2026-04-18T12:20:44.988Z</time></trkpt><trkpt lat="43.3680279" lon="10.6107012"><ele>212.0</ele><time>2026-04-18T12:20:45.988Z</time></trkpt><trkpt lat="43.3679301" lon="10.6106556"><ele>212.0</ele><time>2026-04-18T12:20:46.988Z</time></trkpt><trkpt lat="43.3678221" lon="10.6106151"><ele>212.6</ele><time>2026-04-18T12:20:47.989Z</time></trkpt><trkpt lat="43.367711" lon="10.6105868"><ele>213.2</ele><time>2026-04-18T12:20:48.988Z</time></trkpt><trkpt lat="43.3676044" lon="10.6105532"><ele>213.8</ele><time>2026-04-18T12:20:49.988Z</time></trkpt><trkpt lat="43.3675042" lon="10.6105168"><ele>214.4</ele><time>2026-04-18T12:20:50.988Z</time></trkpt><trkpt lat="43.3674095" lon="10.6104711"><ele>215.0</ele><time>2026-04-18T12:20:51.988Z</time></trkpt><trkpt lat="43.3673258" lon="10.6104323"><ele>215.0</ele><time>2026-04-18T12:20:52.988Z</time></trkpt><trkpt lat="43.3672348" lon="10.6103711"><ele>215.0</ele><time>2026-04-18T12:20:53.988Z</time></trkpt><trkpt lat="43.3671616" lon="10.6102842"><ele>215.0</ele><time>2026-04-18T12:20:54.988Z</time></trkpt><trkpt lat="43.3670995" lon="10.6101895"><ele>215.0</ele><time>2026-04-18T12:20:55.989Z</time></trkpt><trkpt lat="43.3670355" lon="10.6101034"><ele>215.0</ele><time>2026-04-18T12:20:56.988Z</time></trkpt><trkpt lat="43.3669647" lon="10.6100383"><ele>213.4</ele><time>2026-04-18T12:20:57.988Z</time></trkpt><trkpt lat="43.3668747" lon="10.6099839"><ele>211.8</ele><time>2026-04-18T12:20:58.988Z</time></trkpt><trkpt lat="43.3667677" lon="10.6099484"><ele>210.2</ele><time>2026-04-18T12:20:59.988Z</time></trkpt><trkpt lat="43.3666666" lon="10.6099138"><ele>208.6</ele><time>2026-04-18T12:21:00.988Z</time></trkpt><trkpt lat="43.3665668" lon="10.6098848"><ele>207.0</ele><time>2026-04-18T12:21:01.988Z</time></trkpt><trkpt lat="43.366474" lon="10.609865"><ele>207.0</ele><time>2026-04-18T12:21:02.989Z</time></trkpt><trkpt lat="43.3663819" lon="10.609862"><ele>207.0</ele><time>2026-04-18T12:21:03.988Z</time></trkpt><trkpt lat="43.3662825" lon="10.6098788"><ele>207.0</ele><time>2026-04-18T12:21:04.988Z</time></trkpt><trkpt lat="43.3661806" lon="10.6099223"><ele>207.0</ele><time>2026-04-18T12:21:05.988Z</time></trkpt><trkpt lat="43.3660877" lon="10.6099647"><ele>207.0</ele><time>2026-04-18T12:21:06.988Z</time></trkpt><trkpt lat="43.3659961" lon="10.6099923"><ele>207.2</ele><time>2026-04-18T12:21:07.988Z</time></trkpt><trkpt lat="43.3658858" lon="10.6099867"><ele>207.39999999999998</ele><time>2026-04-18T12:21:08.988Z</time></trkpt><trkpt lat="43.3657759" lon="10.6099585"><ele>207.60000000000002</ele><time>2026-04-18T12:21:09.988Z</time></trkpt><trkpt lat="43.365671" lon="10.6099044"><ele>207.8</ele><time>2026-04-18T12:21:10.988Z</time></trkpt><trkpt lat="43.3655634" lon="10.6098482"><ele>208.0</ele><time>2026-04-18T12:21:11.988Z</time></trkpt><trkpt lat="43.3654609" lon="10.6097935"><ele>210.8</ele><time>2026-04-18T12:21:12.988Z</time></trkpt><trkpt lat="43.3653645" lon="10.6097625"><ele>213.60000000000002</ele><time>2026-04-18T12:21:13.988Z</time></trkpt><trkpt lat="43.3652697" lon="10.6097352"><ele>216.39999999999998</ele><time>2026-04-18T12:21:14.988Z</time></trkpt><trkpt lat="43.3651739" lon="10.6096917"><ele>219.2</ele><time>2026-04-18T12:21:15.988Z</time></trkpt><trkpt lat="43.3650761" lon="10.6096606"><ele>222.0</ele><time>2026-04-18T12:21:16.988Z</time></trkpt><trkpt lat="43.3649722" lon="10.6096449"><ele>222.0</ele><time>2026-04-18T12:21:17.988Z</time></trkpt><trkpt lat="43.3648593" lon="10.6096369"><ele>222.0</ele><time>2026-04-18T12:21:18.988Z</time></trkpt><trkpt lat="43.3647312" lon="10.6096363"><ele>222.0</ele><time>2026-04-18T12:21:19.988Z</time></trkpt><trkpt lat="43.3646001" lon="10.6096401"><ele>222.0</ele><time>2026-04-18T12:21:20.988Z</time></trkpt><trkpt lat="43.3644755" lon="10.6096495"><ele>223.0</ele><time>2026-04-18T12:21:21.988Z</time></trkpt><trkpt lat="43.3643466" lon="10.6096572"><ele>224.0</ele><time>2026-04-18T12:21:22.988Z</time></trkpt><trkpt lat="43.3642192" lon="10.6096526"><ele>225.0</ele><time>2026-04-18T12:21:23.988Z</time></trkpt><trkpt lat="43.3640994" lon="10.6096513"><ele>226.0</ele><time>2026-04-18T12:21:24.988Z</time></trkpt><trkpt lat="43.36399" lon="10.6096315"><ele>225.99999999999997</ele><time>2026-04-18T12:21:25.988Z</time></trkpt><trkpt lat="43.3638931" lon="10.6096111"><ele>226.0</ele><time>2026-04-18T12:21:26.988Z</time></trkpt><trkpt lat="43.3638057" lon="10.6095849"><ele>226.0</ele><time>2026-04-18T12:21:27.988Z</time></trkpt><trkpt lat="43.3637258" lon="10.6095849"><ele>226.0</ele><time>2026-04-18T12:21:28.988Z</time></trkpt><trkpt lat="43.363644" lon="10.6096259"><ele>225.99999999999997</ele><time>2026-04-18T12:21:29.988Z</time></trkpt><trkpt lat="43.3635757" lon="10.6096807"><ele>226.0</ele><time>2026-04-18T12:21:30.989Z</time></trkpt><trkpt lat="43.3635135" lon="10.6097444"><ele>226.16666666666666</ele><time>2026-04-18T12:21:31.988Z</time></trkpt><trkpt lat="43.3634735" lon="10.6098169"><ele>226.33333333333331</ele><time>2026-04-18T12:21:32.988Z</time></trkpt><trkpt lat="43.363437" lon="10.6099094"><ele>226.5</ele><time>2026-04-18T12:21:33.988Z</time></trkpt><trkpt lat="43.3634179" lon="10.6100229"><ele>226.66666666666669</ele><time>2026-04-18T12:21:34.988Z</time></trkpt><trkpt lat="43.3633918" lon="10.6101482"><ele>226.83333333333334</ele><time>2026-04-18T12:21:35.988Z</time></trkpt><trkpt lat="43.3633641" lon="10.6102515"><ele>227.0</ele><time>2026-04-18T12:21:36.988Z</time></trkpt><trkpt lat="43.3633203" lon="10.6103405"><ele>227.00000000000003</ele><time>2026-04-18T12:21:37.988Z</time></trkpt><trkpt lat="43.3632574" lon="10.610401"><ele>227.0</ele><time>2026-04-18T12:21:38.989Z</time></trkpt><trkpt lat="43.3631818" lon="10.6104258"><ele>227.0</ele><time>2026-04-18T12:21:39.988Z</time></trkpt><trkpt lat="43.3630921" lon="10.6103933"><ele>227.0</ele><time>2026-04-18T12:21:40.988Z</time></trkpt><trkpt lat="43.3630099" lon="10.6103588"><ele>227.00000000000003</ele><time>2026-04-18T12:21:41.988Z</time></trkpt><trkpt lat="43.362915" lon="10.6103368"><ele>227.0</ele><time>2026-04-18T12:21:42.988Z</time></trkpt><trkpt lat="43.3628103" lon="10.6103361"><ele>226.39999999999998</ele><time>2026-04-18T12:21:43.988Z</time></trkpt><trkpt lat="43.3627145" lon="10.6103452"><ele>225.79999999999998</ele><time>2026-04-18T12:21:44.988Z</time></trkpt><trkpt lat="43.3626095" lon="10.6103631"><ele>225.2</ele><time>2026-04-18T12:21:45.988Z</time></trkpt><trkpt lat="43.362507" lon="10.6103989"><ele>224.6</ele><time>2026-04-18T12:21:46.988Z</time></trkpt><trkpt lat="43.3624113" lon="10.6104431"><ele>224.0</ele><time>2026-04-18T12:21:47.989Z</time></trkpt><trkpt lat="43.36232" lon="10.6104868"><ele>224.0</ele><time>2026-04-18T12:21:48.988Z</time></trkpt><trkpt lat="43.3622224" lon="10.6105322"><ele>223.99999999999997</ele><time>2026-04-18T12:21:49.988Z</time></trkpt><trkpt lat="43.3621274" lon="10.6105742"><ele>223.99999999999997</ele><time>2026-04-18T12:21:50.988Z</time></trkpt><trkpt lat="43.3620263" lon="10.6106289"><ele>224.0</ele><time>2026-04-18T12:21:51.988Z</time></trkpt><trkpt lat="43.3619185" lon="10.6106832"><ele>224.0</ele><time>2026-04-18T12:21:52.989Z</time></trkpt><trkpt lat="43.3618104" lon="10.6107323"><ele>222.2</ele><time>2026-04-18T12:21:53.988Z</time></trkpt><trkpt lat="43.361705" lon="10.6107888"><ele>220.39999999999998</ele><time>2026-04-18T12:21:54.988Z</time></trkpt><trkpt lat="43.361609" lon="10.6108568"><ele>218.6</ele><time>2026-04-18T12:21:55.988Z</time></trkpt><trkpt lat="43.3615086" lon="10.6109016"><ele>216.8</ele><time>2026-04-18T12:21:56.988Z</time></trkpt><trkpt lat="43.361413" lon="10.6109317"><ele>215.0</ele><time>2026-04-18T12:21:57.989Z</time></trkpt><trkpt lat="43.3613143" lon="10.6109658"><ele>213.8</ele><time>2026-04-18T12:21:58.988Z</time></trkpt><trkpt lat="43.3612038" lon="10.6109769"><ele>212.6</ele><time>2026-04-18T12:21:59.988Z</time></trkpt><trkpt lat="43.3610889" lon="10.6109815"><ele>211.39999999999998</ele><time>2026-04-18T12:22:00.988Z</time></trkpt><trkpt lat="43.3609761" lon="10.6109757"><ele>210.2</ele><time>2026-04-18T12:22:01.988Z</time></trkpt><trkpt lat="43.3608657" lon="10.610967"><ele>209.0</ele><time>2026-04-18T12:22:02.988Z</time></trkpt><trkpt lat="43.3607452" lon="10.6109637"><ele>209.0</ele><time>2026-04-18T12:22:03.988Z</time></trkpt><trkpt lat="43.3606287" lon="10.6109754"><ele>209.0</ele><time>2026-04-18T12:22:04.988Z</time></trkpt><trkpt lat="43.3605076" lon="10.6110005"><ele>209.0</ele><time>2026-04-18T12:22:05.988Z</time></trkpt><trkpt lat="43.3603876" lon="10.6110235"><ele>209.0</ele><time>2026-04-18T12:22:06.988Z</time></trkpt><trkpt lat="43.3602674" lon="10.6110569"><ele>205.25</ele><time>2026-04-18T12:22:07.989Z</time></trkpt><trkpt lat="43.3601429" lon="10.6111019"><ele>201.5</ele><time>2026-04-18T12:22:08.988Z</time></trkpt><trkpt lat="43.3600171" lon="10.611145"><ele>197.75</ele><time>2026-04-18T12:22:09.988Z</time></trkpt><trkpt lat="43.3598928" lon="10.61119"><ele>194.0</ele><time>2026-04-18T12:22:10.988Z</time></trkpt><trkpt lat="43.3597688" lon="10.6112341"><ele>194.0</ele><time>2026-04-18T12:22:11.988Z</time></trkpt><trkpt lat="43.359647" lon="10.6112782"><ele>194.0</ele><time>2026-04-18T12:22:12.988Z</time></trkpt><trkpt lat="43.359532" lon="10.61132"><ele>194.0</ele><time>2026-04-18T12:22:13.989Z</time></trkpt><trkpt lat="43.3594169" lon="10.6113364"><ele>194.0</ele><time>2026-04-18T12:22:14.988Z</time></trkpt><trkpt lat="43.3593035" lon="10.6113442"><ele>194.0</ele><time>2026-04-18T12:22:15.988Z</time></trkpt><trkpt lat="43.3591861" lon="10.6113422"><ele>194.0</ele><time>2026-04-18T12:22:16.988Z</time></trkpt><trkpt lat="43.3590781" lon="10.6113315"><ele>194.0</ele><time>2026-04-18T12:22:17.988Z</time></trkpt><trkpt lat="43.3589625" lon="10.6113045"><ele>194.0</ele><time>2026-04-18T12:22:18.988Z</time></trkpt><trkpt lat="43.3588453" lon="10.6112823"><ele>194.2</ele><time>2026-04-18T12:22:19.988Z</time></trkpt><trkpt lat="43.3587324" lon="10.6112583"><ele>194.39999999999998</ele><time>2026-04-18T12:22:20.988Z</time></trkpt><trkpt lat="43.3586221" lon="10.611242"><ele>194.6</ele><time>2026-04-18T12:22:21.988Z</time></trkpt><trkpt lat="43.3585105" lon="10.6112284"><ele>194.8</ele><time>2026-04-18T12:22:22.988Z</time></trkpt><trkpt lat="43.358416" lon="10.6112286"><ele>195.0</ele><time>2026-04-18T12:22:23.988Z</time></trkpt><trkpt lat="43.3583311" lon="10.6112389"><ele>195.0</ele><time>2026-04-18T12:22:24.988Z</time></trkpt><trkpt lat="43.3582483" lon="10.6112624"><ele>195.0</ele><time>2026-04-18T12:22:25.988Z</time></trkpt><trkpt lat="43.358154" lon="10.6113051"><ele>195.0</ele><time>2026-04-18T12:22:26.988Z</time></trkpt><trkpt lat="43.3580562" lon="10.611359"><ele>195.0</ele><time>2026-04-18T12:22:27.988Z</time></trkpt><trkpt lat="43.3579578" lon="10.6114112"><ele>195.0</ele><time>2026-04-18T12:22:28.988Z</time></trkpt><trkpt lat="43.35786" lon="10.6114535"><ele>195.4</ele><time>2026-04-18T12:22:29.988Z</time></trkpt><trkpt lat="43.3577551" lon="10.6114843"><ele>195.8</ele><time>2026-04-18T12:22:30.988Z</time></trkpt><trkpt lat="43.3576537" lon="10.6115052"><ele>196.2</ele><time>2026-04-18T12:22:31.989Z</time></trkpt><trkpt lat="43.3575464" lon="10.611517"><ele>196.6</ele><time>2026-04-18T12:22:32.988Z</time></trkpt><trkpt lat="43.3574344" lon="10.6115323"><ele>197.0</ele><time>2026-04-18T12:22:33.988Z</time></trkpt><trkpt lat="43.3573176" lon="10.6115518"><ele>197.0</ele><time>2026-04-18T12:22:34.988Z</time></trkpt><trkpt lat="43.3572036" lon="10.6115764"><ele>197.0</ele><time>2026-04-18T12:22:35.988Z</time></trkpt><trkpt lat="43.3570913" lon="10.6116064"><ele>197.0</ele><time>2026-04-18T12:22:36.988Z</time></trkpt><trkpt lat="43.3569815" lon="10.6116225"><ele>197.0</ele><time>2026-04-18T12:22:37.988Z</time></trkpt><trkpt lat="43.3568708" lon="10.6116273"><ele>195.5</ele><time>2026-04-18T12:22:38.988Z</time></trkpt><trkpt lat="43.3567574" lon="10.6116292"><ele>194.0</ele><time>2026-04-18T12:22:39.989Z</time></trkpt><trkpt lat="43.3566442" lon="10.6116275"><ele>192.5</ele><time>2026-04-18T12:22:40.988Z</time></trkpt><trkpt lat="43.3565336" lon="10.6116185"><ele>191.0</ele><time>2026-04-18T12:22:41.989Z</time></trkpt><trkpt lat="43.3564187" lon="10.6116087"><ele>190.5</ele><time>2026-04-18T12:22:42.988Z</time></trkpt><trkpt lat="43.3563045" lon="10.6115961"><ele>190.0</ele><time>2026-04-18T12:22:43.988Z</time></trkpt><trkpt lat="43.3561891" lon="10.6115896"><ele>189.5</ele><time>2026-04-18T12:22:44.989Z</time></trkpt><trkpt lat="43.3560737" lon="10.6115878"><ele>189.0</ele><time>2026-04-18T12:22:45.988Z</time></trkpt><trkpt lat="43.3559591" lon="10.6115847"><ele>189.0</ele><time>2026-04-18T12:22:46.988Z</time></trkpt><trkpt lat="43.3558464" lon="10.6115783"><ele>189.0</ele><time>2026-04-18T12:22:47.988Z</time></trkpt><trkpt lat="43.3557384" lon="10.611571"><ele>189.0</ele><time>2026-04-18T12:22:48.988Z</time></trkpt><trkpt lat="43.3556335" lon="10.6115631"><ele>189.0</ele><time>2026-04-18T12:22:49.988Z</time></trkpt><trkpt lat="43.3555293" lon="10.6115517"><ele>189.0</ele><time>2026-04-18T12:22:50.988Z</time></trkpt><trkpt lat="43.3554263" lon="10.6115343"><ele>188.79999999999998</ele><time>2026-04-18T12:22:51.988Z</time></trkpt><trkpt lat="43.3553181" lon="10.6115129"><ele>188.6</ele><time>2026-04-18T12:22:52.988Z</time></trkpt><trkpt lat="43.355219" lon="10.6114984"><ele>188.4</ele><time>2026-04-18T12:22:53.988Z</time></trkpt><trkpt lat="43.3551211" lon="10.6114844"><ele>188.2</ele><time>2026-04-18T12:22:54.988Z</time></trkpt><trkpt lat="43.3550241" lon="10.6114888"><ele>188.0</ele><time>2026-04-18T12:22:55.988Z</time></trkpt><trkpt lat="43.3549287" lon="10.6114999"><ele>188.0</ele><time>2026-04-18T12:22:56.988Z</time></trkpt><trkpt lat="43.3548316" lon="10.6115021"><ele>188.0</ele><time>2026-04-18T12:22:57.988Z</time></trkpt><trkpt lat="43.3547367" lon="10.6114844"><ele>188.0</ele><time>2026-04-18T12:22:58.988Z</time></trkpt><trkpt lat="43.3546435" lon="10.6114599"><ele>188.0</ele><time>2026-04-18T12:22:59.988Z</time></trkpt><trkpt lat="43.3545659" lon="10.6114289"><ele>188.0</ele><time>2026-04-18T12:23:00.988Z</time></trkpt><trkpt lat="43.3545026" lon="10.6113998"><ele>188.0</ele><time>2026-04-18T12:23:01.988Z</time></trkpt><trkpt lat="43.3544039" lon="10.6113592"><ele>186.8</ele><time>2026-04-18T12:23:03.988Z</time></trkpt><trkpt lat="43.3542844" lon="10.61132"><ele>185.60000000000002</ele><time>2026-04-18T12:23:05.988Z</time></trkpt><trkpt lat="43.3542091" lon="10.6112955"><ele>184.39999999999998</ele><time>2026-04-18T12:23:06.988Z</time></trkpt><trkpt lat="43.3541327" lon="10.6112592"><ele>183.2</ele><time>2026-04-18T12:23:07.988Z</time></trkpt><trkpt lat="43.3540416" lon="10.6112255"><ele>182.0</ele><time>2026-04-18T12:23:08.988Z</time></trkpt><trkpt lat="43.3539514" lon="10.6111825"><ele>179.6</ele><time>2026-04-18T12:23:09.988Z</time></trkpt><trkpt lat="43.3538574" lon="10.6111407"><ele>177.2</ele><time>2026-04-18T12:23:10.988Z</time></trkpt><trkpt lat="43.3537596" lon="10.611097"><ele>174.8</ele><time>2026-04-18T12:23:11.988Z</time></trkpt><trkpt lat="43.3536629" lon="10.6110562"><ele>172.4</ele><time>2026-04-18T12:23:12.988Z</time></trkpt><trkpt lat="43.3535728" lon="10.6110107"><ele>170.0</ele><time>2026-04-18T12:23:13.988Z</time></trkpt><trkpt lat="43.3534894" lon="10.6109736"><ele>170.0</ele><time>2026-04-18T12:23:14.988Z</time></trkpt><trkpt lat="43.3534" lon="10.6109336"><ele>170.0</ele><time>2026-04-18T12:23:15.988Z</time></trkpt><trkpt lat="43.3533094" lon="10.6108973"><ele>170.0</ele><time>2026-04-18T12:23:16.988Z</time></trkpt><trkpt lat="43.3532205" lon="10.6108582"><ele>170.0</ele><time>2026-04-18T12:23:17.988Z</time></trkpt><trkpt lat="43.3531336" lon="10.6108431"><ele>170.0</ele><time>2026-04-18T12:23:18.989Z</time></trkpt><trkpt lat="43.3530441" lon="10.6108261"><ele>169.4</ele><time>2026-04-18T12:23:19.988Z</time></trkpt><trkpt lat="43.3529512" lon="10.6107909"><ele>168.8</ele><time>2026-04-18T12:23:20.988Z</time></trkpt><trkpt lat="43.3528513" lon="10.6107397"><ele>168.2</ele><time>2026-04-18T12:23:21.988Z</time></trkpt><trkpt lat="43.3527665" lon="10.6106799"><ele>167.6</ele><time>2026-04-18T12:23:22.988Z</time></trkpt><trkpt lat="43.3526848" lon="10.6106175"><ele>167.0</ele><time>2026-04-18T12:23:23.988Z</time></trkpt><trkpt lat="43.3526026" lon="10.6105531"><ele>167.0</ele><time>2026-04-18T12:23:24.988Z</time></trkpt><trkpt lat="43.3525085" lon="10.610497"><ele>167.0</ele><time>2026-04-18T12:23:25.988Z</time></trkpt><trkpt lat="43.3524144" lon="10.6104615"><ele>167.0</ele><time>2026-04-18T12:23:26.988Z</time></trkpt><trkpt lat="43.3523204" lon="10.6104297"><ele>167.0</ele><time>2026-04-18T12:23:27.988Z</time></trkpt><trkpt lat="43.352224" lon="10.6103979"><ele>167.0</ele><time>2026-04-18T12:23:28.988Z</time></trkpt><trkpt lat="43.3521285" lon="10.6103573"><ele>166.2</ele><time>2026-04-18T12:23:29.988Z</time></trkpt><trkpt lat="43.3520377" lon="10.6103105"><ele>165.39999999999998</ele><time>2026-04-18T12:23:30.988Z</time></trkpt><trkpt lat="43.3519491" lon="10.6102516"><ele>164.60000000000002</ele><time>2026-04-18T12:23:31.988Z</time></trkpt><trkpt lat="43.3518741" lon="10.6101807"><ele>163.8</ele><time>2026-04-18T12:23:32.988Z</time></trkpt><trkpt lat="43.3518008" lon="10.6101106"><ele>163.0</ele><time>2026-04-18T12:23:33.988Z</time></trkpt><trkpt lat="43.3517224" lon="10.610063"><ele>163.0</ele><time>2026-04-18T12:23:34.988Z</time></trkpt><trkpt lat="43.3516445" lon="10.6100416"><ele>163.0</ele><time>2026-04-18T12:23:35.988Z</time></trkpt><trkpt lat="43.3515738" lon="10.6100294"><ele>163.0</ele><time>2026-04-18T12:23:36.988Z</time></trkpt><trkpt lat="43.3514993" lon="10.6100345"><ele>163.0</ele><time>2026-04-18T12:23:37.988Z</time></trkpt><trkpt lat="43.3514245" lon="10.6100591"><ele>163.0</ele><time>2026-04-18T12:23:38.988Z</time></trkpt><trkpt lat="43.3513464" lon="10.6100806"><ele>163.0</ele><time>2026-04-18T12:23:39.988Z</time></trkpt><trkpt lat="43.3512575" lon="10.6101123"><ele>162.4</ele><time>2026-04-18T12:23:40.988Z</time></trkpt><trkpt lat="43.3511691" lon="10.6101569"><ele>161.8</ele><time>2026-04-18T12:23:41.988Z</time></trkpt><trkpt lat="43.3510781" lon="10.6101979"><ele>161.2</ele><time>2026-04-18T12:23:42.988Z</time></trkpt><trkpt lat="43.350989" lon="10.6102398"><ele>160.6</ele><time>2026-04-18T12:23:43.989Z</time></trkpt><trkpt lat="43.3508986" lon="10.6102862"><ele>160.0</ele><time>2026-04-18T12:23:44.988Z</time></trkpt><trkpt lat="43.3508036" lon="10.610342"><ele>158.83333333333334</ele><time>2026-04-18T12:23:45.988Z</time></trkpt><trkpt lat="43.3507151" lon="10.610393"><ele>157.66666666666669</ele><time>2026-04-18T12:23:46.988Z</time></trkpt><trkpt lat="43.3506336" lon="10.6104408"><ele>156.5</ele><time>2026-04-18T12:23:47.989Z</time></trkpt><trkpt lat="43.3505597" lon="10.610489"><ele>155.33333333333334</ele><time>2026-04-18T12:23:48.988Z</time></trkpt><trkpt lat="43.3504804" lon="10.6105245"><ele>154.16666666666666</ele><time>2026-04-18T12:23:49.988Z</time></trkpt><trkpt lat="43.3504016" lon="10.6105527"><ele>153.0</ele><time>2026-04-18T12:23:50.988Z</time></trkpt><trkpt lat="43.3503222" lon="10.6105512"><ele>152.42857142857142</ele><time>2026-04-18T12:23:51.988Z</time></trkpt><trkpt lat="43.3502439" lon="10.6105358"><ele>151.85714285714286</ele><time>2026-04-18T12:23:52.988Z</time></trkpt><trkpt lat="43.3501745" lon="10.6105302"><ele>151.28571428571428</ele><time>2026-04-18T12:23:53.988Z</time></trkpt><trkpt lat="43.3501078" lon="10.6105288"><ele>150.71428571428572</ele><time>2026-04-18T12:23:54.988Z</time></trkpt><trkpt lat="43.3500417" lon="10.610573"><ele>150.14285714285714</ele><time>2026-04-18T12:23:55.988Z</time></trkpt><trkpt lat="43.3499878" lon="10.6106476"><ele>149.57142857142856</ele><time>2026-04-18T12:23:56.988Z</time></trkpt><trkpt lat="43.3499387" lon="10.6107373"><ele>149.0</ele><time>2026-04-18T12:23:57.988Z</time></trkpt><trkpt lat="43.3498904" lon="10.6108331"><ele>149.0</ele><time>2026-04-18T12:23:58.988Z</time></trkpt><trkpt lat="43.3498416" lon="10.6109283"><ele>149.0</ele><time>2026-04-18T12:23:59.988Z</time></trkpt><trkpt lat="43.3497931" lon="10.611024"><ele>149.0</ele><time>2026-04-18T12:24:00.988Z</time></trkpt><trkpt lat="43.34975" lon="10.6111205"><ele>149.0</ele><time>2026-04-18T12:24:01.988Z</time></trkpt><trkpt lat="43.3497001" lon="10.6112166"><ele>149.0</ele><time>2026-04-18T12:24:02.988Z</time></trkpt><trkpt lat="43.3496517" lon="10.6113204"><ele>149.0</ele><time>2026-04-18T12:24:03.988Z</time></trkpt><trkpt lat="43.3495999" lon="10.6114288"><ele>145.4</ele><time>2026-04-18T12:24:04.988Z</time></trkpt><trkpt lat="43.3495439" lon="10.6115397"><ele>141.8</ele><time>2026-04-18T12:24:05.988Z</time></trkpt><trkpt lat="43.3494907" lon="10.6116508"><ele>138.2</ele><time>2026-04-18T12:24:06.988Z</time></trkpt><trkpt lat="43.349431" lon="10.6117681"><ele>134.6</ele><time>2026-04-18T12:24:07.988Z</time></trkpt><trkpt lat="43.3493734" lon="10.6118838"><ele>131.0</ele><time>2026-04-18T12:24:08.988Z</time></trkpt><trkpt lat="43.349322" lon="10.6119946"><ele>129.4</ele><time>2026-04-18T12:24:09.988Z</time></trkpt><trkpt lat="43.3492693" lon="10.6121"><ele>127.8</ele><time>2026-04-18T12:24:10.988Z</time></trkpt><trkpt lat="43.3492133" lon="10.6122166"><ele>126.20000000000002</ele><time>2026-04-18T12:24:11.988Z</time></trkpt><trkpt lat="43.3491539" lon="10.6123332"><ele>124.60000000000001</ele><time>2026-04-18T12:24:12.988Z</time></trkpt><trkpt lat="43.3491028" lon="10.6124455"><ele>123.0</ele><time>2026-04-18T12:24:13.988Z</time></trkpt><trkpt lat="43.3490515" lon="10.6125472"><ele>123.0</ele><time>2026-04-18T12:24:14.988Z</time></trkpt><trkpt lat="43.3490008" lon="10.6126567"><ele>123.00000000000001</ele><time>2026-04-18T12:24:15.988Z</time></trkpt><trkpt lat="43.3489475" lon="10.6127803"><ele>123.00000000000001</ele><time>2026-04-18T12:24:16.988Z</time></trkpt><trkpt lat="43.3488945" lon="10.6129127"><ele>123.0</ele><time>2026-04-18T12:24:17.988Z</time></trkpt><trkpt lat="43.3488515" lon="10.6130495"><ele>123.0</ele><time>2026-04-18T12:24:18.988Z</time></trkpt><trkpt lat="43.3488099" lon="10.6132055"><ele>119.0</ele><time>2026-04-18T12:24:19.988Z</time></trkpt><trkpt lat="43.3487772" lon="10.6133747"><ele>115.0</ele><time>2026-04-18T12:24:20.989Z</time></trkpt><trkpt lat="43.3487457" lon="10.6135324"><ele>111.0</ele><time>2026-04-18T12:24:21.988Z</time></trkpt><trkpt lat="43.3487129" lon="10.6136744"><ele>107.0</ele><time>2026-04-18T12:24:22.988Z</time></trkpt><trkpt lat="43.3486604" lon="10.6138102"><ele>107.0</ele><time>2026-04-18T12:24:23.988Z</time></trkpt><trkpt lat="43.3485971" lon="10.6139408"><ele>106.99999999999999</ele><time>2026-04-18T12:24:24.989Z</time></trkpt><trkpt lat="43.3485332" lon="10.6140635"><ele>106.99999999999999</ele><time>2026-04-18T12:24:25.988Z</time></trkpt><trkpt lat="43.3484802" lon="10.6141825"><ele>107.0</ele><time>2026-04-18T12:24:26.988Z</time></trkpt><trkpt lat="43.3484277" lon="10.614302"><ele>107.0</ele><time>2026-04-18T12:24:27.988Z</time></trkpt><trkpt lat="43.3483753" lon="10.6144322"><ele>107.19999999999999</ele><time>2026-04-18T12:24:28.988Z</time></trkpt><trkpt lat="43.3483231" lon="10.6145504"><ele>107.39999999999999</ele><time>2026-04-18T12:24:29.988Z</time></trkpt><trkpt lat="43.3482784" lon="10.6146649"><ele>107.60000000000001</ele><time>2026-04-18T12:24:30.988Z</time></trkpt><trkpt lat="43.348228" lon="10.6147787"><ele>107.80000000000001</ele><time>2026-04-18T12:24:31.988Z</time></trkpt><trkpt lat="43.3481838" lon="10.6148913"><ele>108.0</ele><time>2026-04-18T12:24:32.988Z</time></trkpt><trkpt lat="43.3481305" lon="10.6150006"><ele>108.0</ele><time>2026-04-18T12:24:33.988Z</time></trkpt><trkpt lat="43.3480769" lon="10.6151051"><ele>108.00000000000001</ele><time>2026-04-18T12:24:34.988Z</time></trkpt><trkpt lat="43.3480175" lon="10.615199"><ele>108.00000000000001</ele><time>2026-04-18T12:24:35.988Z</time></trkpt><trkpt lat="43.3479591" lon="10.615296"><ele>108.0</ele><time>2026-04-18T12:24:36.988Z</time></trkpt><trkpt lat="43.3479028" lon="10.6153911"><ele>108.0</ele><time>2026-04-18T12:24:37.989Z</time></trkpt><trkpt lat="43.3478535" lon="10.6154877"><ele>105.83333333333333</ele><time>2026-04-18T12:24:38.988Z</time></trkpt><trkpt lat="43.3478098" lon="10.6155817"><ele>103.66666666666667</ele><time>2026-04-18T12:24:39.989Z</time></trkpt><trkpt lat="43.3477689" lon="10.6156768"><ele>101.5</ele><time>2026-04-18T12:24:40.989Z</time></trkpt><trkpt lat="43.3477277" lon="10.6157696"><ele>99.33333333333334</ele><time>2026-04-18T12:24:41.988Z</time></trkpt><trkpt lat="43.3476871" lon="10.615859"><ele>97.16666666666667</ele><time>2026-04-18T12:24:42.988Z</time></trkpt><trkpt lat="43.347644" lon="10.6159443"><ele>95.0</ele><time>2026-04-18T12:24:43.988Z</time></trkpt><trkpt lat="43.3475999" lon="10.6160274"><ele>95.0</ele><time>2026-04-18T12:24:44.988Z</time></trkpt><trkpt lat="43.3475621" lon="10.616117"><ele>95.0</ele><time>2026-04-18T12:24:45.989Z</time></trkpt><trkpt lat="43.3475256" lon="10.6162199"><ele>95.0</ele><time>2026-04-18T12:24:46.989Z</time></trkpt><trkpt lat="43.3474924" lon="10.616329"><ele>95.0</ele><time>2026-04-18T12:24:47.988Z</time></trkpt><trkpt lat="43.3474564" lon="10.6164332"><ele>95.0</ele><time>2026-04-18T12:24:48.988Z</time></trkpt><trkpt lat="43.3474276" lon="10.6165416"><ele>95.0</ele><time>2026-04-18T12:24:49.988Z</time></trkpt><trkpt lat="43.3474133" lon="10.6166325"><ele>95.0</ele><time>2026-04-18T12:24:50.988Z</time></trkpt><trkpt lat="43.3474175" lon="10.6167262"><ele>95.0</ele><time>2026-04-18T12:24:51.988Z</time></trkpt><trkpt lat="43.3474541" lon="10.6168078"><ele>95.0</ele><time>2026-04-18T12:24:52.988Z</time></trkpt><trkpt lat="43.3475084" lon="10.6168631"><ele>95.0</ele><time>2026-04-18T12:24:53.988Z</time></trkpt><trkpt lat="43.3475529" lon="10.6169433"><ele>95.0</ele><time>2026-04-18T12:24:54.988Z</time></trkpt><trkpt lat="43.3475766" lon="10.6170499"><ele>95.0</ele><time>2026-04-18T12:24:55.988Z</time></trkpt><trkpt lat="43.3475899" lon="10.6171726"><ele>93.2</ele><time>2026-04-18T12:24:56.988Z</time></trkpt><trkpt lat="43.3475995" lon="10.6173036"><ele>91.4</ele><time>2026-04-18T12:24:57.988Z</time></trkpt><trkpt lat="43.347608" lon="10.6174482"><ele>89.6</ele><time>2026-04-18T12:24:58.988Z</time></trkpt><trkpt lat="43.3476213" lon="10.6175957"><ele>87.8</ele><time>2026-04-18T12:24:59.988Z</time></trkpt><trkpt lat="43.3476321" lon="10.6177489"><ele>86.0</ele><time>2026-04-18T12:25:00.988Z</time></trkpt><trkpt lat="43.3476455" lon="10.6179072"><ele>84.2</ele><time>2026-04-18T12:25:01.988Z</time></trkpt><trkpt lat="43.3476575" lon="10.6180512"><ele>82.39999999999999</ele><time>2026-04-18T12:25:02.988Z</time></trkpt><trkpt lat="43.3476645" lon="10.6181846"><ele>80.6</ele><time>2026-04-18T12:25:03.988Z</time></trkpt><trkpt lat="43.3476657" lon="10.6183145"><ele>78.8</ele><time>2026-04-18T12:25:04.988Z</time></trkpt><trkpt lat="43.3476553" lon="10.6184459"><ele>77.0</ele><time>2026-04-18T12:25:05.988Z</time></trkpt><trkpt lat="43.3476127" lon="10.6185621"><ele>75.33333333333334</ele><time>2026-04-18T12:25:06.988Z</time></trkpt><trkpt lat="43.3475692" lon="10.6186582"><ele>73.66666666666667</ele><time>2026-04-18T12:25:07.988Z</time></trkpt><trkpt lat="43.347549" lon="10.618802"><ele>72.0</ele><time>2026-04-18T12:25:09.988Z</time></trkpt><trkpt lat="43.3475742" lon="10.6188882"><ele>70.33333333333333</ele><time>2026-04-18T12:25:10.988Z</time></trkpt><trkpt lat="43.3476167" lon="10.6189745"><ele>68.66666666666666</ele><time>2026-04-18T12:25:11.988Z</time></trkpt><trkpt lat="43.3476676" lon="10.6190698"><ele>67.0</ele><time>2026-04-18T12:25:12.989Z</time></trkpt><trkpt lat="43.3477221" lon="10.6191847"><ele>67.0</ele><time>2026-04-18T12:25:13.988Z</time></trkpt><trkpt lat="43.3477629" lon="10.6193155"><ele>67.0</ele><time>2026-04-18T12:25:14.988Z</time></trkpt><trkpt lat="43.3477907" lon="10.6194674"><ele>67.0</ele><time>2026-04-18T12:25:15.988Z</time></trkpt><trkpt lat="43.3478201" lon="10.6196093"><ele>67.0</ele><time>2026-04-18T12:25:16.988Z</time></trkpt><trkpt lat="43.3478492" lon="10.6197585"><ele>67.0</ele><time>2026-04-18T12:25:17.989Z</time></trkpt><trkpt lat="43.3478756" lon="10.6199044"><ele>64.0</ele><time>2026-04-18T12:25:18.988Z</time></trkpt><trkpt lat="43.347896" lon="10.6200521"><ele>61.0</ele><time>2026-04-18T12:25:19.988Z</time></trkpt><trkpt lat="43.3479039" lon="10.6202063"><ele>58.0</ele><time>2026-04-18T12:25:20.988Z</time></trkpt><trkpt lat="43.347897" lon="10.6203724"><ele>55.0</ele><time>2026-04-18T12:25:21.988Z</time></trkpt><trkpt lat="43.3478703" lon="10.6205405"><ele>53.8</ele><time>2026-04-18T12:25:22.989Z</time></trkpt><trkpt lat="43.3478386" lon="10.6206993"><ele>52.6</ele><time>2026-04-18T12:25:23.988Z</time></trkpt><trkpt lat="43.3478133" lon="10.6208567"><ele>51.400000000000006</ele><time>2026-04-18T12:25:24.988Z</time></trkpt><trkpt lat="43.3477937" lon="10.621"><ele>50.2</ele><time>2026-04-18T12:25:25.988Z</time></trkpt><trkpt lat="43.3477792" lon="10.6211303"><ele>49.0</ele><time>2026-04-18T12:25:26.988Z</time></trkpt><trkpt lat="43.3477606" lon="10.6212493"><ele>46.6</ele><time>2026-04-18T12:25:27.989Z</time></trkpt><trkpt lat="43.3477414" lon="10.6213741"><ele>44.2</ele><time>2026-04-18T12:25:28.988Z</time></trkpt><trkpt lat="43.3477333" lon="10.6215059"><ele>41.800000000000004</ele><time>2026-04-18T12:25:29.989Z</time></trkpt><trkpt lat="43.3477446" lon="10.6216491"><ele>39.400000000000006</ele><time>2026-04-18T12:25:30.988Z</time></trkpt><trkpt lat="43.3477723" lon="10.6217946"><ele>37.0</ele><time>2026-04-18T12:25:31.988Z</time></trkpt><trkpt lat="43.3478073" lon="10.6219508"><ele>36.4</ele><time>2026-04-18T12:25:32.988Z</time></trkpt><trkpt lat="43.3478421" lon="10.6220954"><ele>35.800000000000004</ele><time>2026-04-18T12:25:33.988Z</time></trkpt><trkpt lat="43.3478701" lon="10.6222379"><ele>35.2</ele><time>2026-04-18T12:25:34.988Z</time></trkpt><trkpt lat="43.3478705" lon="10.6223753"><ele>34.6</ele><time>2026-04-18T12:25:35.988Z</time></trkpt><trkpt lat="43.3478533" lon="10.6225128"><ele>34.0</ele><time>2026-04-18T12:25:36.988Z</time></trkpt><trkpt lat="43.3478419" lon="10.6226361"><ele>34.0</ele><time>2026-04-18T12:25:37.988Z</time></trkpt><trkpt lat="43.3478355" lon="10.6227557"><ele>34.0</ele><time>2026-04-18T12:25:38.988Z</time></trkpt><trkpt lat="43.3478311" lon="10.6228789"><ele>34.0</ele><time>2026-04-18T12:25:39.988Z</time></trkpt><trkpt lat="43.3478313" lon="10.622997"><ele>34.0</ele><time>2026-04-18T12:25:40.988Z</time></trkpt><trkpt lat="43.3478299" lon="10.6231094"><ele>34.0</ele><time>2026-04-18T12:25:41.988Z</time></trkpt><trkpt lat="43.347821" lon="10.6232081"><ele>34.0</ele><time>2026-04-18T12:25:42.988Z</time></trkpt><trkpt lat="43.3478085" lon="10.6233037"><ele>33.8</ele><time>2026-04-18T12:25:43.988Z</time></trkpt><trkpt lat="43.3477887" lon="10.6234265"><ele>33.599999999999994</ele><time>2026-04-18T12:25:45.989Z</time></trkpt><trkpt lat="43.3477898" lon="10.6235289"><ele>33.4</ele><time>2026-04-18T12:25:52.988Z</time></trkpt><trkpt lat="43.3478864" lon="10.6236947"><ele>33.199999999999996</ele><time>2026-04-18T12:25:54.988Z</time></trkpt><trkpt lat="43.3479799" lon="10.6238119"><ele>33.0</ele><time>2026-04-18T12:25:55.988Z</time></trkpt><trkpt lat="43.3480955" lon="10.6239587"><ele>33.0</ele><time>2026-04-18T12:25:56.988Z</time></trkpt><trkpt lat="43.3482331" lon="10.624137"><ele>33.0</ele><time>2026-04-18T12:25:57.988Z</time></trkpt><trkpt lat="43.3483861" lon="10.6243314"><ele>33.0</ele><time>2026-04-18T12:25:58.988Z</time></trkpt><trkpt lat="43.3485345" lon="10.6245113"><ele>32.666666666666664</ele><time>2026-04-18T12:25:59.988Z</time></trkpt><trkpt lat="43.3486779" lon="10.6246874"><ele>32.33333333333333</ele><time>2026-04-18T12:26:00.988Z</time></trkpt><trkpt lat="43.3488205" lon="10.624852"><ele>32.0</ele><time>2026-04-18T12:26:01.988Z</time></trkpt><trkpt lat="43.3489649" lon="10.6250113"><ele>32.0</ele><time>2026-04-18T12:26:02.988Z</time></trkpt><trkpt lat="43.3491174" lon="10.6251691"><ele>32.0</ele><time>2026-04-18T12:26:03.988Z</time></trkpt><trkpt lat="43.3492818" lon="10.6253199"><ele>32.0</ele><time>2026-04-18T12:26:04.988Z</time></trkpt><trkpt lat="43.3494361" lon="10.6254535"><ele>32.0</ele><time>2026-04-18T12:26:05.988Z</time></trkpt><trkpt lat="43.3495818" lon="10.625578"><ele>32.0</ele><time>2026-04-18T12:26:06.988Z</time></trkpt><trkpt lat="43.3497214" lon="10.6256859"><ele>32.0</ele><time>2026-04-18T12:26:07.988Z</time></trkpt><trkpt lat="43.3498579" lon="10.6257821"><ele>34.0</ele><time>2026-04-18T12:26:08.988Z</time></trkpt><trkpt lat="43.349991" lon="10.6258659"><ele>36.0</ele><time>2026-04-18T12:26:09.988Z</time></trkpt><trkpt lat="43.3501083" lon="10.6259364"><ele>38.0</ele><time>2026-04-18T12:26:10.989Z</time></trkpt><trkpt lat="43.3502096" lon="10.6260028"><ele>40.0</ele><time>2026-04-18T12:26:11.988Z</time></trkpt><trkpt lat="43.3502919" lon="10.6260754"><ele>39.0</ele><time>2026-04-18T12:26:12.988Z</time></trkpt><trkpt lat="43.3503388" lon="10.6261677"><ele>38.0</ele><time>2026-04-18T12:26:13.988Z</time></trkpt><trkpt lat="43.350363" lon="10.6262807"><ele>37.0</ele><time>2026-04-18T12:26:14.988Z</time></trkpt><trkpt lat="43.3503573" lon="10.6264097"><ele>36.0</ele><time>2026-04-18T12:26:15.988Z</time></trkpt><trkpt lat="43.3503108" lon="10.626559"><ele>35.0</ele><time>2026-04-18T12:26:16.988Z</time></trkpt><trkpt lat="43.3502303" lon="10.6267389"><ele>35.0</ele><time>2026-04-18T12:26:17.988Z</time></trkpt><trkpt lat="43.3501436" lon="10.6269248"><ele>35.0</ele><time>2026-04-18T12:26:18.988Z</time></trkpt><trkpt lat="43.350058" lon="10.6271136"><ele>35.0</ele><time>2026-04-18T12:26:19.988Z</time></trkpt><trkpt lat="43.3499764" lon="10.6272955"><ele>35.0</ele><time>2026-04-18T12:26:20.988Z</time></trkpt><trkpt lat="43.3498855" lon="10.6274836"><ele>35.0</ele><time>2026-04-18T12:26:21.988Z</time></trkpt><trkpt lat="43.3497909" lon="10.627674"><ele>35.0</ele><time>2026-04-18T12:26:22.988Z</time></trkpt><trkpt lat="43.349694" lon="10.627864"><ele>34.666666666666664</ele><time>2026-04-18T12:26:23.988Z</time></trkpt><trkpt lat="43.3496041" lon="10.6280474"><ele>34.333333333333336</ele><time>2026-04-18T12:26:24.988Z</time></trkpt><trkpt lat="43.3495195" lon="10.6282372"><ele>34.0</ele><time>2026-04-18T12:26:25.988Z</time></trkpt><trkpt lat="43.3494325" lon="10.6284274"><ele>34.0</ele><time>2026-04-18T12:26:26.988Z</time></trkpt><trkpt lat="43.3493442" lon="10.6286175"><ele>34.0</ele><time>2026-04-18T12:26:27.988Z</time></trkpt><trkpt lat="43.3492478" lon="10.6287987"><ele>34.0</ele><time>2026-04-18T12:26:28.988Z</time></trkpt><trkpt lat="43.3491564" lon="10.6289798"><ele>33.66666666666667</ele><time>2026-04-18T12:26:29.988Z</time></trkpt><trkpt lat="43.3490584" lon="10.6291602"><ele>33.333333333333336</ele><time>2026-04-18T12:26:30.988Z</time></trkpt><trkpt lat="43.3489687" lon="10.6293363"><ele>33.0</ele><time>2026-04-18T12:26:31.988Z</time></trkpt><trkpt lat="43.3488752" lon="10.6295131"><ele>32.0</ele><time>2026-04-18T12:26:32.988Z</time></trkpt><trkpt lat="43.3487824" lon="10.6296857"><ele>31.0</ele><time>2026-04-18T12:26:33.988Z</time></trkpt><trkpt lat="43.3486872" lon="10.6298574"><ele>30.0</ele><time>2026-04-18T12:26:34.989Z</time></trkpt><trkpt lat="43.3485896" lon="10.6300344"><ele>30.0</ele><time>2026-04-18T12:26:35.988Z</time></trkpt><trkpt lat="43.3484933" lon="10.6302077"><ele>30.0</ele><time>2026-04-18T12:26:36.988Z</time></trkpt><trkpt lat="43.3483921" lon="10.6303795"><ele>30.0</ele><time>2026-04-18T12:26:37.989Z</time></trkpt><trkpt lat="43.3482918" lon="10.6305569"><ele>29.666666666666664</ele><time>2026-04-18T12:26:38.988Z</time></trkpt><trkpt lat="43.3481898" lon="10.6307396"><ele>29.333333333333332</ele><time>2026-04-18T12:26:39.988Z</time></trkpt><trkpt lat="43.3480934" lon="10.6309227"><ele>29.0</ele><time>2026-04-18T12:26:40.988Z</time></trkpt><trkpt lat="43.3479877" lon="10.6311053"><ele>30.0</ele><time>2026-04-18T12:26:41.988Z</time></trkpt><trkpt lat="43.3478798" lon="10.6312901"><ele>31.0</ele><time>2026-04-18T12:26:42.988Z</time></trkpt><trkpt lat="43.3477702" lon="10.6314714"><ele>32.0</ele><time>2026-04-18T12:26:43.988Z</time></trkpt><trkpt lat="43.3476614" lon="10.63165"><ele>32.0</ele><time>2026-04-18T12:26:44.989Z</time></trkpt><trkpt lat="43.3475472" lon="10.6318229"><ele>32.0</ele><time>2026-04-18T12:26:45.988Z</time></trkpt><trkpt lat="43.347431" lon="10.6320073"><ele>32.0</ele><time>2026-04-18T12:26:46.988Z</time></trkpt><trkpt lat="43.3473104" lon="10.6321939"><ele>31.0</ele><time>2026-04-18T12:26:47.988Z</time></trkpt><trkpt lat="43.3471934" lon="10.6323828"><ele>30.0</ele><time>2026-04-18T12:26:48.988Z</time></trkpt><trkpt lat="43.3470716" lon="10.6325717"><ele>29.0</ele><time>2026-04-18T12:26:49.988Z</time></trkpt><trkpt lat="43.3469488" lon="10.6327597"><ele>30.333333333333332</ele><time>2026-04-18T12:26:50.988Z</time></trkpt><trkpt lat="43.3468253" lon="10.6329478"><ele>31.666666666666664</ele><time>2026-04-18T12:26:51.988Z</time></trkpt><trkpt lat="43.3467051" lon="10.6331344"><ele>33.0</ele><time>2026-04-18T12:26:52.988Z</time></trkpt><trkpt lat="43.3465851" lon="10.6333238"><ele>33.0</ele><time>2026-04-18T12:26:53.988Z</time></trkpt><trkpt lat="43.3464709" lon="10.6335154"><ele>33.0</ele><time>2026-04-18T12:26:54.988Z</time></trkpt><trkpt lat="43.3463537" lon="10.6337067"><ele>33.0</ele><time>2026-04-18T12:26:55.989Z</time></trkpt><trkpt lat="43.3462369" lon="10.633893"><ele>32.0</ele><time>2026-04-18T12:26:56.988Z</time></trkpt><trkpt lat="43.3461191" lon="10.6340809"><ele>31.0</ele><time>2026-04-18T12:26:57.988Z</time></trkpt><trkpt lat="43.3460036" lon="10.6342623"><ele>30.0</ele><time>2026-04-18T12:26:58.988Z</time></trkpt><trkpt lat="43.3458905" lon="10.634456"><ele>33.333333333333336</ele><time>2026-04-18T12:26:59.988Z</time></trkpt><trkpt lat="43.345777" lon="10.6346486"><ele>36.66666666666667</ele><time>2026-04-18T12:27:00.988Z</time></trkpt><trkpt lat="43.3456668" lon="10.6348412"><ele>40.0</ele><time>2026-04-18T12:27:01.988Z</time></trkpt><trkpt lat="43.3455532" lon="10.6350333"><ele>38.66666666666667</ele><time>2026-04-18T12:27:02.988Z</time></trkpt><trkpt lat="43.345439" lon="10.6352257"><ele>37.333333333333336</ele><time>2026-04-18T12:27:03.989Z</time></trkpt><trkpt lat="43.345327" lon="10.6354169"><ele>36.0</ele><time>2026-04-18T12:27:04.988Z</time></trkpt><trkpt lat="43.3452143" lon="10.6356109"><ele>36.0</ele><time>2026-04-18T12:27:05.988Z</time></trkpt><trkpt lat="43.3451021" lon="10.6358036"><ele>36.0</ele><time>2026-04-18T12:27:06.988Z</time></trkpt><trkpt lat="43.344992" lon="10.6359966"><ele>36.0</ele><time>2026-04-18T12:27:07.988Z</time></trkpt><trkpt lat="43.3448823" lon="10.6361893"><ele>33.0</ele><time>2026-04-18T12:27:08.988Z</time></trkpt><trkpt lat="43.3447732" lon="10.6363841"><ele>30.0</ele><time>2026-04-18T12:27:09.988Z</time></trkpt><trkpt lat="43.3446653" lon="10.6365871"><ele>27.0</ele><time>2026-04-18T12:27:10.988Z</time></trkpt><trkpt lat="43.3445636" lon="10.63679"><ele>29.0</ele><time>2026-04-18T12:27:11.988Z</time></trkpt><trkpt lat="43.344465" lon="10.6369985"><ele>31.0</ele><time>2026-04-18T12:27:12.988Z</time></trkpt><trkpt lat="43.3443698" lon="10.6372096"><ele>33.0</ele><time>2026-04-18T12:27:13.988Z</time></trkpt><trkpt lat="43.3442745" lon="10.6374215"><ele>33.0</ele><time>2026-04-18T12:27:14.989Z</time></trkpt><trkpt lat="43.3441806" lon="10.637628"><ele>33.0</ele><time>2026-04-18T12:27:15.988Z</time></trkpt><trkpt lat="43.3440881" lon="10.6378397"><ele>33.0</ele><time>2026-04-18T12:27:16.988Z</time></trkpt><trkpt lat="43.3439924" lon="10.6380566"><ele>33.0</ele><time>2026-04-18T12:27:17.988Z</time></trkpt><trkpt lat="43.3439013" lon="10.6382662"><ele>33.0</ele><time>2026-04-18T12:27:18.988Z</time></trkpt><trkpt lat="43.3438067" lon="10.6384771"><ele>33.0</ele><time>2026-04-18T12:27:19.988Z</time></trkpt><trkpt lat="43.3437088" lon="10.6386871"><ele>33.0</ele><time>2026-04-18T12:27:20.988Z</time></trkpt><trkpt lat="43.3436036" lon="10.638897"><ele>33.0</ele><time>2026-04-18T12:27:21.988Z</time></trkpt><trkpt lat="43.34349" lon="10.6390991"><ele>33.0</ele><time>2026-04-18T12:27:22.988Z</time></trkpt><trkpt lat="43.3433698" lon="10.639296"><ele>33.0</ele><time>2026-04-18T12:27:23.988Z</time></trkpt><trkpt lat="43.3432415" lon="10.6394923"><ele>33.0</ele><time>2026-04-18T12:27:24.988Z</time></trkpt><trkpt lat="43.3431081" lon="10.639688"><ele>33.0</ele><time>2026-04-18T12:27:25.988Z</time></trkpt><trkpt lat="43.3429696" lon="10.6398779"><ele>33.0</ele><time>2026-04-18T12:27:26.988Z</time></trkpt><trkpt lat="43.3428345" lon="10.6400703"><ele>33.0</ele><time>2026-04-18T12:27:27.988Z</time></trkpt><trkpt lat="43.3426868" lon="10.640253"><ele>33.0</ele><time>2026-04-18T12:27:28.988Z</time></trkpt><trkpt lat="43.3425389" lon="10.6404313"><ele>32.666666666666664</ele><time>2026-04-18T12:27:29.988Z</time></trkpt><trkpt lat="43.3423931" lon="10.6406061"><ele>32.33333333333333</ele><time>2026-04-18T12:27:30.988Z</time></trkpt><trkpt lat="43.3422484" lon="10.6407773"><ele>32.0</ele><time>2026-04-18T12:27:31.989Z</time></trkpt><trkpt lat="43.3421064" lon="10.64095"><ele>32.0</ele><time>2026-04-18T12:27:32.988Z</time></trkpt><trkpt lat="43.34197" lon="10.6411244"><ele>32.0</ele><time>2026-04-18T12:27:33.988Z</time></trkpt><trkpt lat="43.3418291" lon="10.6412993"><ele>32.0</ele><time>2026-04-18T12:27:34.988Z</time></trkpt><trkpt lat="43.3416849" lon="10.6414729"><ele>32.666666666666664</ele><time>2026-04-18T12:27:35.988Z</time></trkpt><trkpt lat="43.3415377" lon="10.6416485"><ele>33.333333333333336</ele><time>2026-04-18T12:27:36.988Z</time></trkpt><trkpt lat="43.3414" lon="10.641818"><ele>34.0</ele><time>2026-04-18T12:27:37.988Z</time></trkpt><trkpt lat="43.341257" lon="10.6419896"><ele>32.66666666666667</ele><time>2026-04-18T12:27:38.988Z</time></trkpt><trkpt lat="43.3411196" lon="10.6421596"><ele>31.333333333333336</ele><time>2026-04-18T12:27:39.988Z</time></trkpt><trkpt lat="43.3409803" lon="10.6423236"><ele>30.0</ele><time>2026-04-18T12:27:40.988Z</time></trkpt><trkpt lat="43.340842" lon="10.6424904"><ele>30.0</ele><time>2026-04-18T12:27:41.988Z</time></trkpt><trkpt lat="43.3407019" lon="10.6426545"><ele>30.0</ele><time>2026-04-18T12:27:42.988Z</time></trkpt><trkpt lat="43.340575" lon="10.6428169"><ele>30.0</ele><time>2026-04-18T12:27:43.988Z</time></trkpt><trkpt lat="43.3404595" lon="10.6429831"><ele>30.333333333333336</ele><time>2026-04-18T12:27:44.988Z</time></trkpt><trkpt lat="43.3403469" lon="10.6431528"><ele>30.666666666666668</ele><time>2026-04-18T12:27:45.988Z</time></trkpt><trkpt lat="43.3402483" lon="10.6433301"><ele>31.0</ele><time>2026-04-18T12:27:46.989Z</time></trkpt><trkpt lat="43.3401599" lon="10.643516"><ele>31.333333333333336</ele><time>2026-04-18T12:27:47.988Z</time></trkpt><trkpt lat="43.3400793" lon="10.6437171"><ele>31.666666666666664</ele><time>2026-04-18T12:27:48.988Z</time></trkpt><trkpt lat="43.3400107" lon="10.6439272"><ele>32.0</ele><time>2026-04-18T12:27:49.988Z</time></trkpt><trkpt lat="43.3399433" lon="10.6441407"><ele>32.0</ele><time>2026-04-18T12:27:50.988Z</time></trkpt><trkpt lat="43.3398759" lon="10.6443615"><ele>32.0</ele><time>2026-04-18T12:27:51.988Z</time></trkpt><trkpt lat="43.3398169" lon="10.6445949"><ele>32.0</ele><time>2026-04-18T12:27:52.988Z</time></trkpt><trkpt lat="43.3397532" lon="10.6448253"><ele>31.666666666666664</ele><time>2026-04-18T12:27:53.988Z</time></trkpt><trkpt lat="43.339696" lon="10.6450662"><ele>31.333333333333336</ele><time>2026-04-18T12:27:54.988Z</time></trkpt><trkpt lat="43.3396364" lon="10.6453003"><ele>31.0</ele><time>2026-04-18T12:27:55.988Z</time></trkpt><trkpt lat="43.3395838" lon="10.6455353"><ele>31.0</ele><time>2026-04-18T12:27:56.988Z</time></trkpt><trkpt lat="43.3395267" lon="10.645776"><ele>31.0</ele><time>2026-04-18T12:27:57.988Z</time></trkpt><trkpt lat="43.33947" lon="10.6460207"><ele>31.0</ele><time>2026-04-18T12:27:58.989Z</time></trkpt><trkpt lat="43.3394095" lon="10.6462667"><ele>31.333333333333336</ele><time>2026-04-18T12:27:59.988Z</time></trkpt><trkpt lat="43.3393504" lon="10.646526"><ele>31.666666666666664</ele><time>2026-04-18T12:28:00.988Z</time></trkpt><trkpt lat="43.3392854" lon="10.6467923"><ele>32.0</ele><time>2026-04-18T12:28:01.988Z</time></trkpt><trkpt lat="43.3392187" lon="10.6470772"><ele>32.0</ele><time>2026-04-18T12:28:02.988Z</time></trkpt><trkpt lat="43.3390876" lon="10.6476198"><ele>32.0</ele><time>2026-04-18T12:28:04.988Z</time></trkpt><trkpt lat="43.3390199" lon="10.6478939"><ele>32.0</ele><time>2026-04-18T12:28:05.988Z</time></trkpt><trkpt lat="43.3389469" lon="10.6481561"><ele>32.0</ele><time>2026-04-18T12:28:06.988Z</time></trkpt><trkpt lat="43.3388765" lon="10.6484178"><ele>32.0</ele><time>2026-04-18T12:28:07.988Z</time></trkpt><trkpt lat="43.3387999" lon="10.648678"><ele>32.0</ele><time>2026-04-18T12:28:08.988Z</time></trkpt><trkpt lat="43.338708" lon="10.6489393"><ele>32.0</ele><time>2026-04-18T12:28:09.989Z</time></trkpt><trkpt lat="43.3386134" lon="10.6491912"><ele>32.0</ele><time>2026-04-18T12:28:10.988Z</time></trkpt><trkpt lat="43.3385099" lon="10.6494377"><ele>32.0</ele><time>2026-04-18T12:28:11.988Z</time></trkpt><trkpt lat="43.3383962" lon="10.6496779"><ele>32.0</ele><time>2026-04-18T12:28:12.988Z</time></trkpt><trkpt lat="43.3382738" lon="10.6499093"><ele>32.0</ele><time>2026-04-18T12:28:13.988Z</time></trkpt><trkpt lat="43.3381448" lon="10.6501294"><ele>31.666666666666664</ele><time>2026-04-18T12:28:14.988Z</time></trkpt><trkpt lat="43.338007" lon="10.6503475"><ele>31.333333333333336</ele><time>2026-04-18T12:28:15.988Z</time></trkpt><trkpt lat="43.3378691" lon="10.6505612"><ele>31.0</ele><time>2026-04-18T12:28:16.988Z</time></trkpt><trkpt lat="43.3377341" lon="10.6507702"><ele>31.0</ele><time>2026-04-18T12:28:17.988Z</time></trkpt><trkpt lat="43.3375978" lon="10.6509714"><ele>31.0</ele><time>2026-04-18T12:28:18.988Z</time></trkpt><trkpt lat="43.3374621" lon="10.6511639"><ele>31.0</ele><time>2026-04-18T12:28:19.988Z</time></trkpt><trkpt lat="43.3373371" lon="10.651347"><ele>31.333333333333336</ele><time>2026-04-18T12:28:20.988Z</time></trkpt><trkpt lat="43.3372222" lon="10.6515255"><ele>31.666666666666664</ele><time>2026-04-18T12:28:21.988Z</time></trkpt><trkpt lat="43.337115" lon="10.651688"><ele>32.0</ele><time>2026-04-18T12:28:22.988Z</time></trkpt><trkpt lat="43.3370083" lon="10.6518391"><ele>32.25</ele><time>2026-04-18T12:28:23.988Z</time></trkpt><trkpt lat="43.3369044" lon="10.65199"><ele>32.5</ele><time>2026-04-18T12:28:24.988Z</time></trkpt><trkpt lat="43.3368163" lon="10.6521307"><ele>32.75</ele><time>2026-04-18T12:28:25.988Z</time></trkpt><trkpt lat="43.336735" lon="10.6522539"><ele>33.0</ele><time>2026-04-18T12:28:26.988Z</time></trkpt><trkpt lat="43.336664" lon="10.6523603"><ele>33.0</ele><time>2026-04-18T12:28:27.988Z</time></trkpt><trkpt lat="43.336584" lon="10.6524428"><ele>33.0</ele><time>2026-04-18T12:28:28.988Z</time></trkpt><trkpt lat="43.3365107" lon="10.65248"><ele>33.0</ele><time>2026-04-18T12:28:29.988Z</time></trkpt><trkpt lat="43.336448" lon="10.6524958"><ele>33.0</ele><time>2026-04-18T12:28:30.988Z</time></trkpt><trkpt lat="43.3363828" lon="10.6525147"><ele>33.0</ele><time>2026-04-18T12:28:32.988Z</time></trkpt><trkpt lat="43.336303" lon="10.6526376"><ele>33.0</ele><time>2026-04-18T12:29:28.988Z</time></trkpt><trkpt lat="43.3362832" lon="10.6527348"><ele>33.0</ele><time>2026-04-18T12:29:29.988Z</time></trkpt><trkpt lat="43.3362594" lon="10.6528566"><ele>33.0</ele><time>2026-04-18T12:29:30.988Z</time></trkpt><trkpt lat="43.3362077" lon="10.6530031"><ele>33.0</ele><time>2026-04-18T12:29:31.988Z</time></trkpt><trkpt lat="43.3361264" lon="10.6531571"><ele>33.0</ele><time>2026-04-18T12:29:32.988Z</time></trkpt><trkpt lat="43.3360319" lon="10.6533117"><ele>33.0</ele><time>2026-04-18T12:29:33.988Z</time></trkpt><trkpt lat="43.3359266" lon="10.6534847"><ele>33.0</ele><time>2026-04-18T12:29:34.988Z</time></trkpt><trkpt lat="43.3358143" lon="10.6536737"><ele>33.0</ele><time>2026-04-18T12:29:35.988Z</time></trkpt><trkpt lat="43.3357007" lon="10.6538709"><ele>33.0</ele><time>2026-04-18T12:29:36.988Z</time></trkpt><trkpt lat="43.3355755" lon="10.6540894"><ele>33.0</ele><time>2026-04-18T12:29:37.988Z</time></trkpt><trkpt lat="43.335456" lon="10.6542984"><ele>33.0</ele><time>2026-04-18T12:29:38.988Z</time></trkpt><trkpt lat="43.3353365" lon="10.6545097"><ele>33.0</ele><time>2026-04-18T12:29:39.988Z</time></trkpt><trkpt lat="43.3352213" lon="10.6547209"><ele>33.0</ele><time>2026-04-18T12:29:40.988Z</time></trkpt><trkpt lat="43.3350994" lon="10.6549389"><ele>33.0</ele><time>2026-04-18T12:29:41.989Z</time></trkpt><trkpt lat="43.3349822" lon="10.6551598"><ele>32.333333333333336</ele><time>2026-04-18T12:29:42.988Z</time></trkpt><trkpt lat="43.3348681" lon="10.6553753"><ele>31.666666666666668</ele><time>2026-04-18T12:29:43.988Z</time></trkpt><trkpt lat="43.3347495" lon="10.6555871"><ele>31.0</ele><time>2026-04-18T12:29:44.988Z</time></trkpt><trkpt lat="43.334632" lon="10.6557952"><ele>31.0</ele><time>2026-04-18T12:29:45.988Z</time></trkpt><trkpt lat="43.3345222" lon="10.6559972"><ele>31.0</ele><time>2026-04-18T12:29:46.988Z</time></trkpt><trkpt lat="43.3344197" lon="10.6561916"><ele>31.0</ele><time>2026-04-18T12:29:47.988Z</time></trkpt><trkpt lat="43.334314" lon="10.6563862"><ele>31.666666666666668</ele><time>2026-04-18T12:29:48.989Z</time></trkpt><trkpt lat="43.3342055" lon="10.6565837"><ele>32.333333333333336</ele><time>2026-04-18T12:29:49.988Z</time></trkpt><trkpt lat="43.3340996" lon="10.6567828"><ele>33.0</ele><time>2026-04-18T12:29:50.988Z</time></trkpt><trkpt lat="43.333992" lon="10.6569814"><ele>32.666666666666664</ele><time>2026-04-18T12:29:51.988Z</time></trkpt><trkpt lat="43.3338819" lon="10.6571789"><ele>32.33333333333333</ele><time>2026-04-18T12:29:52.988Z</time></trkpt><trkpt lat="43.3337794" lon="10.6573776"><ele>32.0</ele><time>2026-04-18T12:29:53.988Z</time></trkpt><trkpt lat="43.3336682" lon="10.6575795"><ele>32.0</ele><time>2026-04-18T12:29:54.988Z</time></trkpt><trkpt lat="43.3335575" lon="10.6577793"><ele>32.0</ele><time>2026-04-18T12:29:55.988Z</time></trkpt><trkpt lat="43.3334522" lon="10.6579801"><ele>32.0</ele><time>2026-04-18T12:29:56.988Z</time></trkpt><trkpt lat="43.3333419" lon="10.6581722"><ele>32.0</ele><time>2026-04-18T12:29:57.988Z</time></trkpt><trkpt lat="43.3332298" lon="10.658365"><ele>32.0</ele><time>2026-04-18T12:29:58.988Z</time></trkpt><trkpt lat="43.3331223" lon="10.6585671"><ele>32.0</ele><time>2026-04-18T12:29:59.989Z</time></trkpt><trkpt lat="43.3330139" lon="10.6587706"><ele>33.0</ele><time>2026-04-18T12:30:00.988Z</time></trkpt><trkpt lat="43.3329039" lon="10.6589694"><ele>34.0</ele><time>2026-04-18T12:30:01.988Z</time></trkpt><trkpt lat="43.3327939" lon="10.6591728"><ele>35.0</ele><time>2026-04-18T12:30:02.989Z</time></trkpt><trkpt lat="43.3326848" lon="10.6593728"><ele>36.33333333333333</ele><time>2026-04-18T12:30:03.988Z</time></trkpt><trkpt lat="43.3325776" lon="10.6595686"><ele>37.666666666666664</ele><time>2026-04-18T12:30:04.988Z</time></trkpt><trkpt lat="43.3324706" lon="10.6597604"><ele>39.0</ele><time>2026-04-18T12:30:05.988Z</time></trkpt><trkpt lat="43.3323652" lon="10.6599388"><ele>39.0</ele><time>2026-04-18T12:30:06.988Z</time></trkpt><trkpt lat="43.3322535" lon="10.6601248"><ele>39.0</ele><time>2026-04-18T12:30:07.988Z</time></trkpt><trkpt lat="43.3321288" lon="10.6603161"><ele>39.0</ele><time>2026-04-18T12:30:08.988Z</time></trkpt><trkpt lat="43.3319973" lon="10.6605005"><ele>38.0</ele><time>2026-04-18T12:30:09.988Z</time></trkpt><trkpt lat="43.3318593" lon="10.6606771"><ele>37.0</ele><time>2026-04-18T12:30:10.988Z</time></trkpt><trkpt lat="43.3317176" lon="10.6608483"><ele>36.0</ele><time>2026-04-18T12:30:11.988Z</time></trkpt><trkpt lat="43.3315726" lon="10.661008"><ele>37.333333333333336</ele><time>2026-04-18T12:30:12.988Z</time></trkpt><trkpt lat="43.3314235" lon="10.6611598"><ele>38.66666666666667</ele><time>2026-04-18T12:30:13.988Z</time></trkpt><trkpt lat="43.3312717" lon="10.6613034"><ele>40.0</ele><time>2026-04-18T12:30:14.988Z</time></trkpt><trkpt lat="43.3311153" lon="10.6614406"><ele>40.0</ele><time>2026-04-18T12:30:15.988Z</time></trkpt><trkpt lat="43.3309536" lon="10.6615645"><ele>40.0</ele><time>2026-04-18T12:30:16.988Z</time></trkpt><trkpt lat="43.330788" lon="10.6616824"><ele>40.0</ele><time>2026-04-18T12:30:17.988Z</time></trkpt><trkpt lat="43.3306177" lon="10.6617856"><ele>39.333333333333336</ele><time>2026-04-18T12:30:18.988Z</time></trkpt><trkpt lat="43.3304391" lon="10.6618767"><ele>38.666666666666664</ele><time>2026-04-18T12:30:19.988Z</time></trkpt><trkpt lat="43.3302615" lon="10.6619618"><ele>38.0</ele><time>2026-04-18T12:30:20.988Z</time></trkpt><trkpt lat="43.3300849" lon="10.6620451"><ele>38.0</ele><time>2026-04-18T12:30:21.989Z</time></trkpt><trkpt lat="43.3299143" lon="10.6621224"><ele>38.0</ele><time>2026-04-18T12:30:22.988Z</time></trkpt><trkpt lat="43.3297553" lon="10.6621896"><ele>38.0</ele><time>2026-04-18T12:30:23.988Z</time></trkpt><trkpt lat="43.3296003" lon="10.6622606"><ele>37.0</ele><time>2026-04-18T12:30:24.988Z</time></trkpt><trkpt lat="43.3294488" lon="10.6623373"><ele>36.0</ele><time>2026-04-18T12:30:25.988Z</time></trkpt><trkpt lat="43.3293025" lon="10.6624246"><ele>35.0</ele><time>2026-04-18T12:30:26.988Z</time></trkpt><trkpt lat="43.3291632" lon="10.6625293"><ele>35.0</ele><time>2026-04-18T12:30:27.988Z</time></trkpt><trkpt lat="43.3290363" lon="10.6626386"><ele>35.0</ele><time>2026-04-18T12:30:28.988Z</time></trkpt><trkpt lat="43.3289177" lon="10.6627705"><ele>35.0</ele><time>2026-04-18T12:30:29.988Z</time></trkpt><trkpt lat="43.3288075" lon="10.6629234"><ele>35.0</ele><time>2026-04-18T12:30:30.988Z</time></trkpt><trkpt lat="43.3287112" lon="10.6630845"><ele>35.0</ele><time>2026-04-18T12:30:31.988Z</time></trkpt><trkpt lat="43.3286269" lon="10.6632629"><ele>35.0</ele><time>2026-04-18T12:30:32.988Z</time></trkpt><trkpt lat="43.328555" lon="10.6634599"><ele>35.0</ele><time>2026-04-18T12:30:33.988Z</time></trkpt><trkpt lat="43.3285014" lon="10.6636665"><ele>35.0</ele><time>2026-04-18T12:30:34.988Z</time></trkpt><trkpt lat="43.3284734" lon="10.6638764"><ele>35.0</ele><time>2026-04-18T12:30:35.989Z</time></trkpt><trkpt lat="43.328455" lon="10.6640956"><ele>35.0</ele><time>2026-04-18T12:30:36.988Z</time></trkpt><trkpt lat="43.3284547" lon="10.664311"><ele>35.0</ele><time>2026-04-18T12:30:37.988Z</time></trkpt><trkpt lat="43.328465" lon="10.6645292"><ele>35.0</ele><time>2026-04-18T12:30:38.988Z</time></trkpt><trkpt lat="43.3284759" lon="10.6647535"><ele>36.0</ele><time>2026-04-18T12:30:39.988Z</time></trkpt><trkpt lat="43.3284916" lon="10.6649697"><ele>37.0</ele><time>2026-04-18T12:30:40.989Z</time></trkpt><trkpt lat="43.3285066" lon="10.6651929"><ele>38.0</ele><time>2026-04-18T12:30:41.988Z</time></trkpt><trkpt lat="43.3285157" lon="10.6654126"><ele>38.0</ele><time>2026-04-18T12:30:42.988Z</time></trkpt><trkpt lat="43.328531" lon="10.6656301"><ele>38.0</ele><time>2026-04-18T12:30:43.988Z</time></trkpt><trkpt lat="43.3285565" lon="10.6658468"><ele>38.0</ele><time>2026-04-18T12:30:44.988Z</time></trkpt><trkpt lat="43.3285846" lon="10.6660602"><ele>37.666666666666664</ele><time>2026-04-18T12:30:45.988Z</time></trkpt><trkpt lat="43.3286153" lon="10.6662768"><ele>37.333333333333336</ele><time>2026-04-18T12:30:46.988Z</time></trkpt><trkpt lat="43.3286508" lon="10.6664973"><ele>37.0</ele><time>2026-04-18T12:30:47.988Z</time></trkpt><trkpt lat="43.3286865" lon="10.6667167"><ele>37.0</ele><time>2026-04-18T12:30:48.988Z</time></trkpt><trkpt lat="43.3287201" lon="10.6669417"><ele>37.0</ele><time>2026-04-18T12:30:49.988Z</time></trkpt><trkpt lat="43.3287589" lon="10.6671893"><ele>37.0</ele><time>2026-04-18T12:30:50.988Z</time></trkpt><trkpt lat="43.328799" lon="10.6674525"><ele>37.0</ele><time>2026-04-18T12:30:51.988Z</time></trkpt><trkpt lat="43.3288443" lon="10.6677325"><ele>37.0</ele><time>2026-04-18T12:30:52.988Z</time></trkpt><trkpt lat="43.3288907" lon="10.6680242"><ele>37.0</ele><time>2026-04-18T12:30:53.989Z</time></trkpt><trkpt lat="43.3289322" lon="10.6682997"><ele>36.66666666666667</ele><time>2026-04-18T12:30:54.988Z</time></trkpt><trkpt lat="43.3289729" lon="10.6685527"><ele>36.333333333333336</ele><time>2026-04-18T12:30:55.988Z</time></trkpt><trkpt lat="43.3290115" lon="10.6687931"><ele>36.0</ele><time>2026-04-18T12:30:56.988Z</time></trkpt><trkpt lat="43.3290507" lon="10.6690239"><ele>35.75</ele><time>2026-04-18T12:30:57.988Z</time></trkpt><trkpt lat="43.3290805" lon="10.6692416"><ele>35.5</ele><time>2026-04-18T12:30:58.988Z</time></trkpt><trkpt lat="43.329113" lon="10.6694444"><ele>35.25</ele><time>2026-04-18T12:30:59.988Z</time></trkpt><trkpt lat="43.3291411" lon="10.6696283"><ele>35.0</ele><time>2026-04-18T12:31:00.988Z</time></trkpt><trkpt lat="43.329164" lon="10.6697903"><ele>35.0</ele><time>2026-04-18T12:31:01.988Z</time></trkpt><trkpt lat="43.3291763" lon="10.6699373"><ele>35.0</ele><time>2026-04-18T12:31:02.988Z</time></trkpt><trkpt lat="43.3291522" lon="10.6700682"><ele>35.0</ele><time>2026-04-18T12:31:03.988Z</time></trkpt><trkpt lat="43.3291103" lon="10.6701881"><ele>35.0</ele><time>2026-04-18T12:31:04.989Z</time></trkpt><trkpt lat="43.3290786" lon="10.6703015"><ele>35.0</ele><time>2026-04-18T12:31:05.988Z</time></trkpt><trkpt lat="43.3290755" lon="10.6704084"><ele>35.4</ele><time>2026-04-18T12:31:06.988Z</time></trkpt><trkpt lat="43.3291089" lon="10.6705215"><ele>35.8</ele><time>2026-04-18T12:31:07.988Z</time></trkpt><trkpt lat="43.3291739" lon="10.670633"><ele>36.2</ele><time>2026-04-18T12:31:08.988Z</time></trkpt><trkpt lat="43.329249" lon="10.6707547"><ele>36.6</ele><time>2026-04-18T12:31:09.989Z</time></trkpt><trkpt lat="43.3293011" lon="10.6708954"><ele>37.0</ele><time>2026-04-18T12:31:10.988Z</time></trkpt><trkpt lat="43.3293423" lon="10.6710746"><ele>37.333333333333336</ele><time>2026-04-18T12:31:11.988Z</time></trkpt><trkpt lat="43.3293775" lon="10.6712859"><ele>37.666666666666664</ele><time>2026-04-18T12:31:12.988Z</time></trkpt><trkpt lat="43.3294094" lon="10.6714917"><ele>38.0</ele><time>2026-04-18T12:31:13.989Z</time></trkpt><trkpt lat="43.3294453" lon="10.6717176"><ele>38.0</ele><time>2026-04-18T12:31:14.988Z</time></trkpt><trkpt lat="43.3294812" lon="10.6719609"><ele>38.0</ele><time>2026-04-18T12:31:15.988Z</time></trkpt><trkpt lat="43.3295145" lon="10.6722037"><ele>38.0</ele><time>2026-04-18T12:31:16.988Z</time></trkpt><trkpt lat="43.3295495" lon="10.6724465"><ele>38.0</ele><time>2026-04-18T12:31:17.988Z</time></trkpt><trkpt lat="43.329583" lon="10.6726842"><ele>38.0</ele><time>2026-04-18T12:31:18.988Z</time></trkpt><trkpt lat="43.3296125" lon="10.6729203"><ele>38.0</ele><time>2026-04-18T12:31:19.988Z</time></trkpt><trkpt lat="43.3296377" lon="10.6731553"><ele>38.0</ele><time>2026-04-18T12:31:20.989Z</time></trkpt><trkpt lat="43.3296659" lon="10.6733895"><ele>38.0</ele><time>2026-04-18T12:31:21.988Z</time></trkpt><trkpt lat="43.3296868" lon="10.6736213"><ele>38.0</ele><time>2026-04-18T12:31:22.989Z</time></trkpt><trkpt lat="43.3297101" lon="10.6738648"><ele>38.0</ele><time>2026-04-18T12:31:23.988Z</time></trkpt><trkpt lat="43.3297301" lon="10.6741101"><ele>38.0</ele><time>2026-04-18T12:31:24.988Z</time></trkpt><trkpt lat="43.3297484" lon="10.6743538"><ele>38.0</ele><time>2026-04-18T12:31:25.988Z</time></trkpt><trkpt lat="43.3297663" lon="10.6746003"><ele>38.0</ele><time>2026-04-18T12:31:26.988Z</time></trkpt><trkpt lat="43.329781" lon="10.6748477"><ele>38.0</ele><time>2026-04-18T12:31:27.988Z</time></trkpt><trkpt lat="43.3297973" lon="10.6750943"><ele>38.0</ele><time>2026-04-18T12:31:28.988Z</time></trkpt><trkpt lat="43.3298051" lon="10.6753425"><ele>38.0</ele><time>2026-04-18T12:31:29.988Z</time></trkpt><trkpt lat="43.329813" lon="10.67559"><ele>38.0</ele><time>2026-04-18T12:31:30.988Z</time></trkpt><trkpt lat="43.3298181" lon="10.6758373"><ele>38.0</ele><time>2026-04-18T12:31:31.988Z</time></trkpt><trkpt lat="43.3298214" lon="10.6760865"><ele>37.666666666666664</ele><time>2026-04-18T12:31:32.988Z</time></trkpt><trkpt lat="43.3298227" lon="10.6763387"><ele>37.333333333333336</ele><time>2026-04-18T12:31:33.988Z</time></trkpt><trkpt lat="43.3298226" lon="10.6765862"><ele>37.0</ele><time>2026-04-18T12:31:34.988Z</time></trkpt><trkpt lat="43.3298218" lon="10.6768396"><ele>38.333333333333336</ele><time>2026-04-18T12:31:35.988Z</time></trkpt><trkpt lat="43.3298163" lon="10.6770988"><ele>39.666666666666664</ele><time>2026-04-18T12:31:36.988Z</time></trkpt><trkpt lat="43.3298098" lon="10.6773829"><ele>41.0</ele><time>2026-04-18T12:31:37.988Z</time></trkpt><trkpt lat="43.3298002" lon="10.6776793"><ele>43.666666666666664</ele><time>2026-04-18T12:31:38.988Z</time></trkpt><trkpt lat="43.3297862" lon="10.6779777"><ele>46.33333333333333</ele><time>2026-04-18T12:31:39.988Z</time></trkpt><trkpt lat="43.3297679" lon="10.6782703"><ele>49.0</ele><time>2026-04-18T12:31:40.988Z</time></trkpt><trkpt lat="43.3297474" lon="10.6785628"><ele>45.33333333333333</ele><time>2026-04-18T12:31:41.988Z</time></trkpt><trkpt lat="43.3297239" lon="10.6788485"><ele>41.666666666666664</ele><time>2026-04-18T12:31:42.988Z</time></trkpt><trkpt lat="43.3297025" lon="10.6791328"><ele>38.0</ele><time>2026-04-18T12:31:43.988Z</time></trkpt><trkpt lat="43.3296762" lon="10.6794149"><ele>38.0</ele><time>2026-04-18T12:31:44.988Z</time></trkpt><trkpt lat="43.3296442" lon="10.679705"><ele>38.0</ele><time>2026-04-18T12:31:45.988Z</time></trkpt><trkpt lat="43.3296123" lon="10.6799851"><ele>38.0</ele><time>2026-04-18T12:31:46.988Z</time></trkpt><trkpt lat="43.3295757" lon="10.6802693"><ele>38.0</ele><time>2026-04-18T12:31:47.988Z</time></trkpt><trkpt lat="43.3295356" lon="10.6805507"><ele>38.0</ele><time>2026-04-18T12:31:48.988Z</time></trkpt><trkpt lat="43.3294953" lon="10.6808336"><ele>38.0</ele><time>2026-04-18T12:31:49.988Z</time></trkpt><trkpt lat="43.3294547" lon="10.6811157"><ele>38.0</ele><time>2026-04-18T12:31:50.988Z</time></trkpt><trkpt lat="43.3294088" lon="10.6813967"><ele>38.0</ele><time>2026-04-18T12:31:51.988Z</time></trkpt><trkpt lat="43.3293573" lon="10.6816797"><ele>38.0</ele><time>2026-04-18T12:31:52.988Z</time></trkpt><trkpt lat="43.3293101" lon="10.6819551"><ele>38.666666666666664</ele><time>2026-04-18T12:31:53.988Z</time></trkpt><trkpt lat="43.3292583" lon="10.6822356"><ele>39.333333333333336</ele><time>2026-04-18T12:31:54.988Z</time></trkpt><trkpt lat="43.3292033" lon="10.6825156"><ele>40.0</ele><time>2026-04-18T12:31:55.988Z</time></trkpt><trkpt lat="43.3291468" lon="10.6827882"><ele>40.66666666666667</ele><time>2026-04-18T12:31:56.988Z</time></trkpt><trkpt lat="43.3290835" lon="10.6830541"><ele>41.333333333333336</ele><time>2026-04-18T12:31:57.988Z</time></trkpt><trkpt lat="43.329023" lon="10.6833206"><ele>42.0</ele><time>2026-04-18T12:31:58.988Z</time></trkpt><trkpt lat="43.3289599" lon="10.683586"><ele>42.0</ele><time>2026-04-18T12:31:59.988Z</time></trkpt><trkpt lat="43.3288951" lon="10.6838526"><ele>42.0</ele><time>2026-04-18T12:32:00.988Z</time></trkpt><trkpt lat="43.3288238" lon="10.6841181"><ele>42.0</ele><time>2026-04-18T12:32:01.988Z</time></trkpt><trkpt lat="43.3287546" lon="10.6843745"><ele>42.666666666666664</ele><time>2026-04-18T12:32:02.988Z</time></trkpt><trkpt lat="43.3286857" lon="10.6846328"><ele>43.33333333333333</ele><time>2026-04-18T12:32:03.988Z</time></trkpt><trkpt lat="43.3286213" lon="10.684893"><ele>44.0</ele><time>2026-04-18T12:32:04.988Z</time></trkpt><trkpt lat="43.3285579" lon="10.6851597"><ele>44.33333333333333</ele><time>2026-04-18T12:32:05.988Z</time></trkpt><trkpt lat="43.3284986" lon="10.6854227"><ele>44.666666666666664</ele><time>2026-04-18T12:32:06.988Z</time></trkpt><trkpt lat="43.3284476" lon="10.6856881"><ele>45.0</ele><time>2026-04-18T12:32:07.988Z</time></trkpt><trkpt lat="43.3284042" lon="10.6859525"><ele>45.0</ele><time>2026-04-18T12:32:08.988Z</time></trkpt><trkpt lat="43.328374" lon="10.6862241"><ele>45.0</ele><time>2026-04-18T12:32:09.988Z</time></trkpt><trkpt lat="43.3283566" lon="10.6864953"><ele>45.0</ele><time>2026-04-18T12:32:10.989Z</time></trkpt><trkpt lat="43.3283472" lon="10.6867686"><ele>44.666666666666664</ele><time>2026-04-18T12:32:11.989Z</time></trkpt><trkpt lat="43.3283533" lon="10.6870443"><ele>44.33333333333333</ele><time>2026-04-18T12:32:12.988Z</time></trkpt><trkpt lat="43.3283699" lon="10.6873178"><ele>44.0</ele><time>2026-04-18T12:32:13.988Z</time></trkpt><trkpt lat="43.3284013" lon="10.6875783"><ele>43.666666666666664</ele><time>2026-04-18T12:32:14.988Z</time></trkpt><trkpt lat="43.3284443" lon="10.6878371"><ele>43.333333333333336</ele><time>2026-04-18T12:32:15.988Z</time></trkpt><trkpt lat="43.3284977" lon="10.6880968"><ele>43.0</ele><time>2026-04-18T12:32:16.989Z</time></trkpt><trkpt lat="43.3285617" lon="10.68835"><ele>42.333333333333336</ele><time>2026-04-18T12:32:17.988Z</time></trkpt><trkpt lat="43.3286342" lon="10.6886016"><ele>41.666666666666664</ele><time>2026-04-18T12:32:18.989Z</time></trkpt><trkpt lat="43.328719" lon="10.6888503"><ele>41.0</ele><time>2026-04-18T12:32:19.988Z</time></trkpt><trkpt lat="43.3288086" lon="10.6890928"><ele>41.33333333333333</ele><time>2026-04-18T12:32:20.988Z</time></trkpt><trkpt lat="43.3288984" lon="10.6893345"><ele>41.666666666666664</ele><time>2026-04-18T12:32:21.988Z</time></trkpt><trkpt lat="43.3289913" lon="10.6895743"><ele>42.0</ele><time>2026-04-18T12:32:22.988Z</time></trkpt><trkpt lat="43.3290841" lon="10.6898141"><ele>42.0</ele><time>2026-04-18T12:32:23.988Z</time></trkpt><trkpt lat="43.3291774" lon="10.6900478"><ele>42.0</ele><time>2026-04-18T12:32:24.988Z</time></trkpt><trkpt lat="43.3292664" lon="10.6902757"><ele>42.0</ele><time>2026-04-18T12:32:25.988Z</time></trkpt><trkpt lat="43.3293568" lon="10.690497"><ele>41.666666666666664</ele><time>2026-04-18T12:32:26.988Z</time></trkpt><trkpt lat="43.3294494" lon="10.6907175"><ele>41.33333333333333</ele><time>2026-04-18T12:32:27.988Z</time></trkpt><trkpt lat="43.3295371" lon="10.6909332"><ele>41.0</ele><time>2026-04-18T12:32:28.989Z</time></trkpt><trkpt lat="43.329622" lon="10.6911473"><ele>40.666666666666664</ele><time>2026-04-18T12:32:29.988Z</time></trkpt><trkpt lat="43.3296941" lon="10.6913581"><ele>40.333333333333336</ele><time>2026-04-18T12:32:30.988Z</time></trkpt><trkpt lat="43.3297607" lon="10.6915623"><ele>40.0</ele><time>2026-04-18T12:32:31.988Z</time></trkpt><trkpt lat="43.3298201" lon="10.6917635"><ele>42.0</ele><time>2026-04-18T12:32:32.988Z</time></trkpt><trkpt lat="43.3298733" lon="10.6919679"><ele>44.0</ele><time>2026-04-18T12:32:33.988Z</time></trkpt><trkpt lat="43.3299181" lon="10.6921755"><ele>46.0</ele><time>2026-04-18T12:32:34.988Z</time></trkpt><trkpt lat="43.3299645" lon="10.6923866"><ele>46.0</ele><time>2026-04-18T12:32:35.988Z</time></trkpt><trkpt lat="43.3300099" lon="10.6926076"><ele>46.0</ele><time>2026-04-18T12:32:36.989Z</time></trkpt><trkpt lat="43.3300523" lon="10.6928355"><ele>46.0</ele><time>2026-04-18T12:32:37.988Z</time></trkpt><trkpt lat="43.330093" lon="10.6930697"><ele>46.0</ele><time>2026-04-18T12:32:38.988Z</time></trkpt><trkpt lat="43.330138" lon="10.693309"><ele>46.0</ele><time>2026-04-18T12:32:39.988Z</time></trkpt><trkpt lat="43.33018" lon="10.693553"><ele>46.0</ele><time>2026-04-18T12:32:40.988Z</time></trkpt><trkpt lat="43.3302203" lon="10.6937936"><ele>46.0</ele><time>2026-04-18T12:32:41.989Z</time></trkpt><trkpt lat="43.3302577" lon="10.6940387"><ele>46.0</ele><time>2026-04-18T12:32:42.988Z</time></trkpt><trkpt lat="43.3302877" lon="10.6942851"><ele>46.0</ele><time>2026-04-18T12:32:43.988Z</time></trkpt><trkpt lat="43.3303036" lon="10.6945385"><ele>45.333333333333336</ele><time>2026-04-18T12:32:44.988Z</time></trkpt><trkpt lat="43.3303043" lon="10.6947947"><ele>44.666666666666664</ele><time>2026-04-18T12:32:45.988Z</time></trkpt><trkpt lat="43.3302933" lon="10.6950511"><ele>44.0</ele><time>2026-04-18T12:32:46.989Z</time></trkpt><trkpt lat="43.3302721" lon="10.6953072"><ele>44.0</ele><time>2026-04-18T12:32:47.988Z</time></trkpt><trkpt lat="43.3302487" lon="10.695566"><ele>44.0</ele><time>2026-04-18T12:32:48.988Z</time></trkpt><trkpt lat="43.3302235" lon="10.6958257"><ele>44.0</ele><time>2026-04-18T12:32:49.989Z</time></trkpt><trkpt lat="43.3301935" lon="10.696082"><ele>43.666666666666664</ele><time>2026-04-18T12:32:50.988Z</time></trkpt><trkpt lat="43.330161" lon="10.6963377"><ele>43.333333333333336</ele><time>2026-04-18T12:32:51.988Z</time></trkpt><trkpt lat="43.3301218" lon="10.6965909"><ele>43.0</ele><time>2026-04-18T12:32:52.988Z</time></trkpt><trkpt lat="43.3300786" lon="10.6968347"><ele>43.0</ele><time>2026-04-18T12:32:53.988Z</time></trkpt><trkpt lat="43.3300265" lon="10.6970784"><ele>43.0</ele><time>2026-04-18T12:32:54.988Z</time></trkpt><trkpt lat="43.3299613" lon="10.6973198"><ele>43.0</ele><time>2026-04-18T12:32:55.988Z</time></trkpt><trkpt lat="43.3298952" lon="10.6975513"><ele>43.333333333333336</ele><time>2026-04-18T12:32:56.988Z</time></trkpt><trkpt lat="43.3298185" lon="10.6977789"><ele>43.666666666666664</ele><time>2026-04-18T12:32:57.988Z</time></trkpt><trkpt lat="43.329735" lon="10.6980109"><ele>44.0</ele><time>2026-04-18T12:32:58.988Z</time></trkpt><trkpt lat="43.3296567" lon="10.6982283"><ele>44.0</ele><time>2026-04-18T12:32:59.988Z</time></trkpt><trkpt lat="43.3295755" lon="10.6984325"><ele>44.0</ele><time>2026-04-18T12:33:00.988Z</time></trkpt><trkpt lat="43.3295018" lon="10.6986399"><ele>44.0</ele><time>2026-04-18T12:33:01.988Z</time></trkpt><trkpt lat="43.3294251" lon="10.698847"><ele>44.666666666666664</ele><time>2026-04-18T12:33:02.989Z</time></trkpt><trkpt lat="43.3293529" lon="10.6990561"><ele>45.333333333333336</ele><time>2026-04-18T12:33:03.988Z</time></trkpt><trkpt lat="43.3292858" lon="10.6992693"><ele>46.0</ele><time>2026-04-18T12:33:04.988Z</time></trkpt><trkpt lat="43.3292286" lon="10.6994816"><ele>48.0</ele><time>2026-04-18T12:33:05.989Z</time></trkpt><trkpt lat="43.3291807" lon="10.6997033"><ele>50.0</ele><time>2026-04-18T12:33:06.988Z</time></trkpt><trkpt lat="43.3291418" lon="10.6999252"><ele>52.0</ele><time>2026-04-18T12:33:07.988Z</time></trkpt><trkpt lat="43.3291141" lon="10.7001496"><ele>52.0</ele><time>2026-04-18T12:33:08.988Z</time></trkpt><trkpt lat="43.3290929" lon="10.7003844"><ele>52.0</ele><time>2026-04-18T12:33:09.988Z</time></trkpt><trkpt lat="43.3290821" lon="10.7006238"><ele>52.0</ele><time>2026-04-18T12:33:10.988Z</time></trkpt><trkpt lat="43.3290839" lon="10.700861"><ele>51.0</ele><time>2026-04-18T12:33:11.988Z</time></trkpt><trkpt lat="43.3290984" lon="10.701099"><ele>50.0</ele><time>2026-04-18T12:33:12.988Z</time></trkpt><trkpt lat="43.3291236" lon="10.7013383"><ele>49.0</ele><time>2026-04-18T12:33:13.988Z</time></trkpt><trkpt lat="43.3291632" lon="10.7015886"><ele>49.0</ele><time>2026-04-18T12:33:14.988Z</time></trkpt><trkpt lat="43.3292112" lon="10.701836"><ele>49.0</ele><time>2026-04-18T12:33:15.988Z</time></trkpt><trkpt lat="43.3292675" lon="10.7020861"><ele>49.0</ele><time>2026-04-18T12:33:16.988Z</time></trkpt><trkpt lat="43.3293308" lon="10.7023405"><ele>48.0</ele><time>2026-04-18T12:33:17.988Z</time></trkpt><trkpt lat="43.329396" lon="10.702592"><ele>47.0</ele><time>2026-04-18T12:33:18.988Z</time></trkpt><trkpt lat="43.3294583" lon="10.7028443"><ele>46.0</ele><time>2026-04-18T12:33:19.988Z</time></trkpt><trkpt lat="43.3295239" lon="10.7030924"><ele>45.66666666666667</ele><time>2026-04-18T12:33:20.988Z</time></trkpt><trkpt lat="43.3295901" lon="10.7033362"><ele>45.333333333333336</ele><time>2026-04-18T12:33:21.988Z</time></trkpt><trkpt lat="43.3296524" lon="10.7035831"><ele>45.0</ele><time>2026-04-18T12:33:22.988Z</time></trkpt><trkpt lat="43.3297056" lon="10.703834"><ele>47.0</ele><time>2026-04-18T12:33:23.988Z</time></trkpt><trkpt lat="43.3297501" lon="10.7040886"><ele>49.0</ele><time>2026-04-18T12:33:24.988Z</time></trkpt><trkpt lat="43.3297798" lon="10.7043434"><ele>51.0</ele><time>2026-04-18T12:33:25.988Z</time></trkpt><trkpt lat="43.3297991" lon="10.7046047"><ele>51.0</ele><time>2026-04-18T12:33:26.988Z</time></trkpt><trkpt lat="43.3298087" lon="10.7048645"><ele>51.0</ele><time>2026-04-18T12:33:27.988Z</time></trkpt><trkpt lat="43.3298098" lon="10.7051297"><ele>51.0</ele><time>2026-04-18T12:33:28.988Z</time></trkpt><trkpt lat="43.3298116" lon="10.7053941"><ele>52.33333333333333</ele><time>2026-04-18T12:33:29.988Z</time></trkpt><trkpt lat="43.3298111" lon="10.7056587"><ele>53.666666666666664</ele><time>2026-04-18T12:33:30.989Z</time></trkpt><trkpt lat="43.3298122" lon="10.7059144"><ele>55.0</ele><time>2026-04-18T12:33:31.988Z</time></trkpt><trkpt lat="43.3298076" lon="10.7061665"><ele>55.0</ele><time>2026-04-18T12:33:32.989Z</time></trkpt><trkpt lat="43.3298097" lon="10.7064175"><ele>55.0</ele><time>2026-04-18T12:33:33.988Z</time></trkpt><trkpt lat="43.3298152" lon="10.7066676"><ele>55.0</ele><time>2026-04-18T12:33:34.988Z</time></trkpt><trkpt lat="43.3298273" lon="10.7069188"><ele>54.0</ele><time>2026-04-18T12:33:35.989Z</time></trkpt><trkpt lat="43.3298556" lon="10.7071714"><ele>53.0</ele><time>2026-04-18T12:33:36.988Z</time></trkpt><trkpt lat="43.3298953" lon="10.7074258"><ele>52.0</ele><time>2026-04-18T12:33:37.988Z</time></trkpt><trkpt lat="43.3299467" lon="10.7076778"><ele>51.0</ele><time>2026-04-18T12:33:38.988Z</time></trkpt><trkpt lat="43.3300034" lon="10.7079313"><ele>50.0</ele><time>2026-04-18T12:33:39.988Z</time></trkpt><trkpt lat="43.3300656" lon="10.7081859"><ele>49.0</ele><time>2026-04-18T12:33:40.988Z</time></trkpt><trkpt lat="43.3301311" lon="10.7084395"><ele>48.33333333333333</ele><time>2026-04-18T12:33:41.988Z</time></trkpt><trkpt lat="43.3301911" lon="10.7086948"><ele>47.666666666666664</ele><time>2026-04-18T12:33:42.988Z</time></trkpt><trkpt lat="43.3302463" lon="10.7089502"><ele>47.0</ele><time>2026-04-18T12:33:43.988Z</time></trkpt><trkpt lat="43.3303067" lon="10.7092018"><ele>46.666666666666664</ele><time>2026-04-18T12:33:44.988Z</time></trkpt><trkpt lat="43.3303739" lon="10.7094528"><ele>46.333333333333336</ele><time>2026-04-18T12:33:45.988Z</time></trkpt><trkpt lat="43.3304518" lon="10.7096893"><ele>46.0</ele><time>2026-04-18T12:33:46.988Z</time></trkpt><trkpt lat="43.3305358" lon="10.7099184"><ele>47.0</ele><time>2026-04-18T12:33:47.988Z</time></trkpt><trkpt lat="43.3306317" lon="10.7101348"><ele>48.0</ele><time>2026-04-18T12:33:48.988Z</time></trkpt><trkpt lat="43.3307427" lon="10.7103386"><ele>49.0</ele><time>2026-04-18T12:33:49.988Z</time></trkpt><trkpt lat="43.3308605" lon="10.710539"><ele>49.0</ele><time>2026-04-18T12:33:50.988Z</time></trkpt><trkpt lat="43.3309874" lon="10.7107362"><ele>49.0</ele><time>2026-04-18T12:33:51.988Z</time></trkpt><trkpt lat="43.3311144" lon="10.7109402"><ele>49.0</ele><time>2026-04-18T12:33:52.989Z</time></trkpt><trkpt lat="43.3312373" lon="10.7111469"><ele>48.33333333333333</ele><time>2026-04-18T12:33:53.988Z</time></trkpt><trkpt lat="43.3313592" lon="10.7113502"><ele>47.666666666666664</ele><time>2026-04-18T12:33:54.988Z</time></trkpt><trkpt lat="43.3314816" lon="10.7115523"><ele>47.0</ele><time>2026-04-18T12:33:55.988Z</time></trkpt><trkpt lat="43.3316046" lon="10.7117481"><ele>47.33333333333333</ele><time>2026-04-18T12:33:56.988Z</time></trkpt><trkpt lat="43.3317261" lon="10.7119432"><ele>47.666666666666664</ele><time>2026-04-18T12:33:57.988Z</time></trkpt><trkpt lat="43.3318512" lon="10.7121365"><ele>48.0</ele><time>2026-04-18T12:33:58.988Z</time></trkpt><trkpt lat="43.3319708" lon="10.7123353"><ele>48.0</ele><time>2026-04-18T12:33:59.988Z</time></trkpt><trkpt lat="43.3320839" lon="10.7125372"><ele>48.0</ele><time>2026-04-18T12:34:00.988Z</time></trkpt><trkpt lat="43.3321848" lon="10.7127479"><ele>48.0</ele><time>2026-04-18T12:34:01.988Z</time></trkpt><trkpt lat="43.3322753" lon="10.7129673"><ele>48.0</ele><time>2026-04-18T12:34:02.988Z</time></trkpt><trkpt lat="43.332351" lon="10.7131953"><ele>48.0</ele><time>2026-04-18T12:34:03.988Z</time></trkpt><trkpt lat="43.3324095" lon="10.7134382"><ele>48.0</ele><time>2026-04-18T12:34:04.988Z</time></trkpt><trkpt lat="43.3324528" lon="10.7136908"><ele>47.333333333333336</ele><time>2026-04-18T12:34:05.988Z</time></trkpt><trkpt lat="43.332487" lon="10.7139498"><ele>46.66666666666667</ele><time>2026-04-18T12:34:06.988Z</time></trkpt><trkpt lat="43.3325157" lon="10.7142142"><ele>46.0</ele><time>2026-04-18T12:34:07.988Z</time></trkpt><trkpt lat="43.3325408" lon="10.7144812"><ele>46.0</ele><time>2026-04-18T12:34:08.988Z</time></trkpt><trkpt lat="43.3325643" lon="10.7147521"><ele>46.0</ele><time>2026-04-18T12:34:09.988Z</time></trkpt><trkpt lat="43.3325846" lon="10.7150229"><ele>46.0</ele><time>2026-04-18T12:34:10.988Z</time></trkpt><trkpt lat="43.3326034" lon="10.715289"><ele>48.333333333333336</ele><time>2026-04-18T12:34:11.988Z</time></trkpt><trkpt lat="43.3326263" lon="10.7155501"><ele>50.66666666666667</ele><time>2026-04-18T12:34:12.988Z</time></trkpt><trkpt lat="43.3326431" lon="10.7158131"><ele>53.0</ele><time>2026-04-18T12:34:13.988Z</time></trkpt><trkpt lat="43.3326604" lon="10.7160751"><ele>54.0</ele><time>2026-04-18T12:34:14.988Z</time></trkpt><trkpt lat="43.3326786" lon="10.7163355"><ele>55.0</ele><time>2026-04-18T12:34:15.989Z</time></trkpt><trkpt lat="43.3326929" lon="10.7165933"><ele>56.0</ele><time>2026-04-18T12:34:16.989Z</time></trkpt><trkpt lat="43.3327093" lon="10.7168413"><ele>55.0</ele><time>2026-04-18T12:34:17.989Z</time></trkpt><trkpt lat="43.3327232" lon="10.7170857"><ele>54.0</ele><time>2026-04-18T12:34:18.988Z</time></trkpt><trkpt lat="43.3327379" lon="10.7173334"><ele>53.0</ele><time>2026-04-18T12:34:19.988Z</time></trkpt><trkpt lat="43.3327509" lon="10.7175788"><ele>52.66666666666667</ele><time>2026-04-18T12:34:20.988Z</time></trkpt><trkpt lat="43.3327607" lon="10.7178198"><ele>52.33333333333333</ele><time>2026-04-18T12:34:21.988Z</time></trkpt><trkpt lat="43.3327767" lon="10.7180531"><ele>52.0</ele><time>2026-04-18T12:34:22.989Z</time></trkpt><trkpt lat="43.3327923" lon="10.7182801"><ele>52.0</ele><time>2026-04-18T12:34:23.988Z</time></trkpt><trkpt lat="43.3328112" lon="10.7185071"><ele>52.0</ele><time>2026-04-18T12:34:24.988Z</time></trkpt><trkpt lat="43.3328312" lon="10.7187466"><ele>52.0</ele><time>2026-04-18T12:34:25.988Z</time></trkpt><trkpt lat="43.3328648" lon="10.7189925"><ele>50.33333333333333</ele><time>2026-04-18T12:34:26.988Z</time></trkpt><trkpt lat="43.3329071" lon="10.7192451"><ele>48.666666666666664</ele><time>2026-04-18T12:34:27.988Z</time></trkpt><trkpt lat="43.3329597" lon="10.719495"><ele>47.0</ele><time>2026-04-18T12:34:28.989Z</time></trkpt><trkpt lat="43.3330143" lon="10.7197454"><ele>47.666666666666664</ele><time>2026-04-18T12:34:29.988Z</time></trkpt><trkpt lat="43.3330711" lon="10.7200001"><ele>48.33333333333333</ele><time>2026-04-18T12:34:30.988Z</time></trkpt><trkpt lat="43.3331278" lon="10.7202532"><ele>49.0</ele><time>2026-04-18T12:34:31.988Z</time></trkpt><trkpt lat="43.3331836" lon="10.7205118"><ele>49.0</ele><time>2026-04-18T12:34:32.988Z</time></trkpt><trkpt lat="43.3332402" lon="10.7207715"><ele>49.0</ele><time>2026-04-18T12:34:33.988Z</time></trkpt><trkpt lat="43.3332978" lon="10.7210235"><ele>49.0</ele><time>2026-04-18T12:34:34.988Z</time></trkpt><trkpt lat="43.3333552" lon="10.721284"><ele>49.0</ele><time>2026-04-18T12:34:35.988Z</time></trkpt><trkpt lat="43.3334118" lon="10.7215404"><ele>49.0</ele><time>2026-04-18T12:34:36.988Z</time></trkpt><trkpt lat="43.3334695" lon="10.7217938"><ele>49.0</ele><time>2026-04-18T12:34:37.988Z</time></trkpt><trkpt lat="43.3335267" lon="10.7220514"><ele>49.0</ele><time>2026-04-18T12:34:38.988Z</time></trkpt><trkpt lat="43.3335834" lon="10.7223038"><ele>49.0</ele><time>2026-04-18T12:34:39.988Z</time></trkpt><trkpt lat="43.33364" lon="10.7225519"><ele>49.0</ele><time>2026-04-18T12:34:40.988Z</time></trkpt><trkpt lat="43.3336943" lon="10.7227984"><ele>49.33333333333333</ele><time>2026-04-18T12:34:41.988Z</time></trkpt><trkpt lat="43.3337465" lon="10.7230324"><ele>49.66666666666667</ele><time>2026-04-18T12:34:42.988Z</time></trkpt><trkpt lat="43.3337948" lon="10.7232612"><ele>50.0</ele><time>2026-04-18T12:34:43.989Z</time></trkpt><trkpt lat="43.3338417" lon="10.7234877"><ele>52.66666666666667</ele><time>2026-04-18T12:34:44.988Z</time></trkpt><trkpt lat="43.3338951" lon="10.7237098"><ele>55.33333333333333</ele><time>2026-04-18T12:34:45.988Z</time></trkpt><trkpt lat="43.3339563" lon="10.7239236"><ele>58.0</ele><time>2026-04-18T12:34:46.988Z</time></trkpt><trkpt lat="43.3340314" lon="10.724119"><ele>58.0</ele><time>2026-04-18T12:34:47.988Z</time></trkpt><trkpt lat="43.3341243" lon="10.7242975"><ele>58.0</ele><time>2026-04-18T12:34:48.988Z</time></trkpt><trkpt lat="43.3342261" lon="10.7244698"><ele>58.0</ele><time>2026-04-18T12:34:49.988Z</time></trkpt><trkpt lat="43.3343278" lon="10.7246433"><ele>56.33333333333333</ele><time>2026-04-18T12:34:50.988Z</time></trkpt><trkpt lat="43.3344222" lon="10.7248192"><ele>54.66666666666667</ele><time>2026-04-18T12:34:51.988Z</time></trkpt><trkpt lat="43.334512" lon="10.7250008"><ele>53.0</ele><time>2026-04-18T12:34:52.988Z</time></trkpt><trkpt lat="43.3345844" lon="10.7252061"><ele>52.0</ele><time>2026-04-18T12:34:53.989Z</time></trkpt><trkpt lat="43.3346349" lon="10.7254302"><ele>51.0</ele><time>2026-04-18T12:34:54.989Z</time></trkpt><trkpt lat="43.3346702" lon="10.7256678"><ele>50.0</ele><time>2026-04-18T12:34:55.988Z</time></trkpt><trkpt lat="43.3347097" lon="10.7259155"><ele>53.333333333333336</ele><time>2026-04-18T12:34:56.988Z</time></trkpt><trkpt lat="43.3347441" lon="10.7261777"><ele>56.66666666666667</ele><time>2026-04-18T12:34:57.988Z</time></trkpt><trkpt lat="43.3347781" lon="10.726437"><ele>60.0</ele><time>2026-04-18T12:34:58.988Z</time></trkpt><trkpt lat="43.3348171" lon="10.7267052"><ele>59.33333333333333</ele><time>2026-04-18T12:34:59.988Z</time></trkpt><trkpt lat="43.3348551" lon="10.7270001"><ele>58.666666666666664</ele><time>2026-04-18T12:35:00.988Z</time></trkpt><trkpt lat="43.3348931" lon="10.7272938"><ele>58.0</ele><time>2026-04-18T12:35:01.988Z</time></trkpt><trkpt lat="43.3349316" lon="10.7275807"><ele>57.666666666666664</ele><time>2026-04-18T12:35:02.988Z</time></trkpt><trkpt lat="43.3349668" lon="10.7278588"><ele>57.33333333333333</ele><time>2026-04-18T12:35:03.988Z</time></trkpt><trkpt lat="43.3350032" lon="10.7281296"><ele>57.0</ele><time>2026-04-18T12:35:04.988Z</time></trkpt><trkpt lat="43.3350364" lon="10.7283979"><ele>56.66666666666667</ele><time>2026-04-18T12:35:05.988Z</time></trkpt><trkpt lat="43.3350723" lon="10.728654"><ele>56.333333333333336</ele><time>2026-04-18T12:35:06.988Z</time></trkpt><trkpt lat="43.3351046" lon="10.7289001"><ele>56.0</ele><time>2026-04-18T12:35:07.988Z</time></trkpt><trkpt lat="43.3351399" lon="10.7291473"><ele>55.66666666666667</ele><time>2026-04-18T12:35:08.988Z</time></trkpt><trkpt lat="43.3351759" lon="10.7293954"><ele>55.33333333333333</ele><time>2026-04-18T12:35:09.988Z</time></trkpt><trkpt lat="43.3351962" lon="10.7296566"><ele>55.0</ele><time>2026-04-18T12:35:10.988Z</time></trkpt><trkpt lat="43.3351964" lon="10.7299251"><ele>55.0</ele><time>2026-04-18T12:35:11.988Z</time></trkpt><trkpt lat="43.3351788" lon="10.7302082"><ele>55.0</ele><time>2026-04-18T12:35:12.988Z</time></trkpt><trkpt lat="43.3351582" lon="10.7304966"><ele>55.0</ele><time>2026-04-18T12:35:13.988Z</time></trkpt><trkpt lat="43.3351348" lon="10.7307789"><ele>55.0</ele><time>2026-04-18T12:35:14.988Z</time></trkpt><trkpt lat="43.3351124" lon="10.7310522"><ele>55.0</ele><time>2026-04-18T12:35:15.988Z</time></trkpt><trkpt lat="43.3350919" lon="10.7313155"><ele>55.0</ele><time>2026-04-18T12:35:16.988Z</time></trkpt><trkpt lat="43.3350719" lon="10.7315673"><ele>55.0</ele><time>2026-04-18T12:35:17.988Z</time></trkpt><trkpt lat="43.33505" lon="10.7317989"><ele>55.0</ele><time>2026-04-18T12:35:18.988Z</time></trkpt><trkpt lat="43.335029" lon="10.7320036"><ele>55.0</ele><time>2026-04-18T12:35:19.988Z</time></trkpt><trkpt lat="43.3350218" lon="10.7322043"><ele>55.0</ele><time>2026-04-18T12:35:20.988Z</time></trkpt><trkpt lat="43.3350339" lon="10.7324084"><ele>55.0</ele><time>2026-04-18T12:35:21.988Z</time></trkpt><trkpt lat="43.3350703" lon="10.7326109"><ele>55.0</ele><time>2026-04-18T12:35:22.989Z</time></trkpt><trkpt lat="43.3351241" lon="10.7328191"><ele>53.33333333333333</ele><time>2026-04-18T12:35:23.988Z</time></trkpt><trkpt lat="43.3351885" lon="10.733035"><ele>51.66666666666667</ele><time>2026-04-18T12:35:24.988Z</time></trkpt><trkpt lat="43.3352654" lon="10.7332535"><ele>50.0</ele><time>2026-04-18T12:35:25.988Z</time></trkpt><trkpt lat="43.3353514" lon="10.7334727"><ele>49.0</ele><time>2026-04-18T12:35:26.988Z</time></trkpt><trkpt lat="43.3354404" lon="10.733689"><ele>48.0</ele><time>2026-04-18T12:35:27.988Z</time></trkpt><trkpt lat="43.3355382" lon="10.7339039"><ele>47.0</ele><time>2026-04-18T12:35:28.988Z</time></trkpt><trkpt lat="43.3356397" lon="10.7341228"><ele>49.0</ele><time>2026-04-18T12:35:29.988Z</time></trkpt><trkpt lat="43.3357426" lon="10.7343356"><ele>51.0</ele><time>2026-04-18T12:35:30.988Z</time></trkpt><trkpt lat="43.335847" lon="10.7345446"><ele>53.0</ele><time>2026-04-18T12:35:31.988Z</time></trkpt><trkpt lat="43.3359434" lon="10.7347465"><ele>53.0</ele><time>2026-04-18T12:35:32.988Z</time></trkpt><trkpt lat="43.3360424" lon="10.7349424"><ele>53.0</ele><time>2026-04-18T12:35:33.988Z</time></trkpt><trkpt lat="43.3361335" lon="10.7351276"><ele>53.0</ele><time>2026-04-18T12:35:34.988Z</time></trkpt><trkpt lat="43.336213" lon="10.7353073"><ele>51.333333333333336</ele><time>2026-04-18T12:35:35.988Z</time></trkpt><trkpt lat="43.3362781" lon="10.7354987"><ele>49.66666666666667</ele><time>2026-04-18T12:35:36.988Z</time></trkpt><trkpt lat="43.3363314" lon="10.735707"><ele>48.0</ele><time>2026-04-18T12:35:37.988Z</time></trkpt><trkpt lat="43.336366" lon="10.7359352"><ele>52.66666666666667</ele><time>2026-04-18T12:35:38.988Z</time></trkpt><trkpt lat="43.3363872" lon="10.7361762"><ele>57.333333333333336</ele><time>2026-04-18T12:35:39.988Z</time></trkpt><trkpt lat="43.3363996" lon="10.7364269"><ele>62.0</ele><time>2026-04-18T12:35:40.989Z</time></trkpt><trkpt lat="43.3364024" lon="10.7366837"><ele>61.66666666666667</ele><time>2026-04-18T12:35:41.988Z</time></trkpt><trkpt lat="43.3364039" lon="10.7369407"><ele>61.33333333333333</ele><time>2026-04-18T12:35:42.988Z</time></trkpt><trkpt lat="43.3364072" lon="10.7372001"><ele>61.0</ele><time>2026-04-18T12:35:43.988Z</time></trkpt><trkpt lat="43.3364127" lon="10.7374626"><ele>62.666666666666664</ele><time>2026-04-18T12:35:44.989Z</time></trkpt><trkpt lat="43.3364049" lon="10.7377274"><ele>64.33333333333333</ele><time>2026-04-18T12:35:45.988Z</time></trkpt><trkpt lat="43.3363858" lon="10.7379803"><ele>66.0</ele><time>2026-04-18T12:35:46.988Z</time></trkpt><trkpt lat="43.3363532" lon="10.7382389"><ele>61.0</ele><time>2026-04-18T12:35:47.988Z</time></trkpt><trkpt lat="43.3363039" lon="10.7384854"><ele>56.0</ele><time>2026-04-18T12:35:48.988Z</time></trkpt><trkpt lat="43.3362508" lon="10.7387218"><ele>51.0</ele><time>2026-04-18T12:35:49.989Z</time></trkpt><trkpt lat="43.3361998" lon="10.7389429"><ele>51.0</ele><time>2026-04-18T12:35:50.988Z</time></trkpt><trkpt lat="43.3361501" lon="10.7391618"><ele>51.0</ele><time>2026-04-18T12:35:51.988Z</time></trkpt><trkpt lat="43.3361046" lon="10.7393811"><ele>51.0</ele><time>2026-04-18T12:35:52.988Z</time></trkpt><trkpt lat="43.3360623" lon="10.739582"><ele>51.5</ele><time>2026-04-18T12:35:53.988Z</time></trkpt><trkpt lat="43.3360225" lon="10.7397785"><ele>52.0</ele><time>2026-04-18T12:35:54.988Z</time></trkpt><trkpt lat="43.335982" lon="10.7399786"><ele>52.5</ele><time>2026-04-18T12:35:55.988Z</time></trkpt><trkpt lat="43.3359449" lon="10.740178"><ele>53.0</ele><time>2026-04-18T12:35:56.989Z</time></trkpt><trkpt lat="43.3358996" lon="10.7403872"><ele>53.66666666666667</ele><time>2026-04-18T12:35:57.988Z</time></trkpt><trkpt lat="43.3358561" lon="10.7406089"><ele>54.33333333333333</ele><time>2026-04-18T12:35:58.988Z</time></trkpt><trkpt lat="43.3358117" lon="10.7408235"><ele>55.0</ele><time>2026-04-18T12:35:59.988Z</time></trkpt><trkpt lat="43.3357688" lon="10.7410405"><ele>56.5</ele><time>2026-04-18T12:36:00.988Z</time></trkpt><trkpt lat="43.3357278" lon="10.7412418"><ele>58.0</ele><time>2026-04-18T12:36:01.988Z</time></trkpt><trkpt lat="43.3356865" lon="10.7414412"><ele>59.5</ele><time>2026-04-18T12:36:02.988Z</time></trkpt><trkpt lat="43.3356461" lon="10.7416302"><ele>61.0</ele><time>2026-04-18T12:36:03.988Z</time></trkpt><trkpt lat="43.3356082" lon="10.7418188"><ele>61.0</ele><time>2026-04-18T12:36:04.988Z</time></trkpt><trkpt lat="43.3355701" lon="10.7420037"><ele>61.0</ele><time>2026-04-18T12:36:05.988Z</time></trkpt><trkpt lat="43.3355284" lon="10.742187"><ele>61.0</ele><time>2026-04-18T12:36:06.988Z</time></trkpt><trkpt lat="43.3354898" lon="10.7423624"><ele>61.0</ele><time>2026-04-18T12:36:07.988Z</time></trkpt><trkpt lat="43.3354498" lon="10.7425362"><ele>59.25</ele><time>2026-04-18T12:36:08.988Z</time></trkpt><trkpt lat="43.3354102" lon="10.7427"><ele>57.5</ele><time>2026-04-18T12:36:09.988Z</time></trkpt><trkpt lat="43.3353803" lon="10.7428595"><ele>55.75</ele><time>2026-04-18T12:36:10.988Z</time></trkpt><trkpt lat="43.3353647" lon="10.743023"><ele>54.0</ele><time>2026-04-18T12:36:11.988Z</time></trkpt><trkpt lat="43.3353684" lon="10.7431848"><ele>54.0</ele><time>2026-04-18T12:36:12.988Z</time></trkpt><trkpt lat="43.3353922" lon="10.7433559"><ele>54.0</ele><time>2026-04-18T12:36:13.988Z</time></trkpt><trkpt lat="43.3354398" lon="10.7435411"><ele>54.0</ele><time>2026-04-18T12:36:14.988Z</time></trkpt><trkpt lat="43.3354971" lon="10.7437387"><ele>54.0</ele><time>2026-04-18T12:36:15.988Z</time></trkpt><trkpt lat="43.3355563" lon="10.7439446"><ele>55.33333333333333</ele><time>2026-04-18T12:36:16.988Z</time></trkpt><trkpt lat="43.3356127" lon="10.7441467"><ele>56.666666666666664</ele><time>2026-04-18T12:36:17.988Z</time></trkpt><trkpt lat="43.3356757" lon="10.7443555"><ele>58.0</ele><time>2026-04-18T12:36:18.988Z</time></trkpt><trkpt lat="43.3357446" lon="10.7445778"><ele>58.0</ele><time>2026-04-18T12:36:19.989Z</time></trkpt><trkpt lat="43.335806" lon="10.7447907"><ele>58.0</ele><time>2026-04-18T12:36:20.989Z</time></trkpt><trkpt lat="43.3358651" lon="10.744997"><ele>58.0</ele><time>2026-04-18T12:36:21.989Z</time></trkpt><trkpt lat="43.335927" lon="10.7452098"><ele>57.0</ele><time>2026-04-18T12:36:22.988Z</time></trkpt><trkpt lat="43.3359885" lon="10.7454164"><ele>56.0</ele><time>2026-04-18T12:36:23.988Z</time></trkpt><trkpt lat="43.3360465" lon="10.7456214"><ele>55.0</ele><time>2026-04-18T12:36:24.988Z</time></trkpt><trkpt lat="43.3360988" lon="10.7458137"><ele>55.0</ele><time>2026-04-18T12:36:25.988Z</time></trkpt><trkpt lat="43.3361478" lon="10.7460082"><ele>55.0</ele><time>2026-04-18T12:36:26.988Z</time></trkpt><trkpt lat="43.3362001" lon="10.7462023"><ele>55.0</ele><time>2026-04-18T12:36:27.988Z</time></trkpt><trkpt lat="43.3362742" lon="10.7463946"><ele>54.666666666666664</ele><time>2026-04-18T12:36:28.988Z</time></trkpt><trkpt lat="43.3363645" lon="10.7465755"><ele>54.33333333333333</ele><time>2026-04-18T12:36:29.988Z</time></trkpt><trkpt lat="43.3364761" lon="10.7467497"><ele>54.0</ele><time>2026-04-18T12:36:30.988Z</time></trkpt><trkpt lat="43.3365989" lon="10.7469143"><ele>54.66666666666667</ele><time>2026-04-18T12:36:31.988Z</time></trkpt><trkpt lat="43.3367185" lon="10.7470671"><ele>55.333333333333336</ele><time>2026-04-18T12:36:32.988Z</time></trkpt><trkpt lat="43.3368344" lon="10.7472156"><ele>56.0</ele><time>2026-04-18T12:36:33.988Z</time></trkpt><trkpt lat="43.3369445" lon="10.7473613"><ele>56.0</ele><time>2026-04-18T12:36:34.989Z</time></trkpt><trkpt lat="43.3370592" lon="10.7474994"><ele>56.0</ele><time>2026-04-18T12:36:35.988Z</time></trkpt><trkpt lat="43.337175" lon="10.7476253"><ele>56.0</ele><time>2026-04-18T12:36:36.988Z</time></trkpt><trkpt lat="43.3373136" lon="10.7477157"><ele>55.0</ele><time>2026-04-18T12:36:37.988Z</time></trkpt><trkpt lat="43.337462" lon="10.7477922"><ele>54.0</ele><time>2026-04-18T12:36:38.989Z</time></trkpt><trkpt lat="43.3376269" lon="10.7478424"><ele>53.0</ele><time>2026-04-18T12:36:39.988Z</time></trkpt><trkpt lat="43.3378027" lon="10.7478664"><ele>53.0</ele><time>2026-04-18T12:36:40.988Z</time></trkpt><trkpt lat="43.3379886" lon="10.7478718"><ele>53.0</ele><time>2026-04-18T12:36:41.988Z</time></trkpt><trkpt lat="43.3381716" lon="10.7478655"><ele>53.0</ele><time>2026-04-18T12:36:42.988Z</time></trkpt><trkpt lat="43.3383527" lon="10.7478521"><ele>52.66666666666667</ele><time>2026-04-18T12:36:43.988Z</time></trkpt><trkpt lat="43.338521" lon="10.7478343"><ele>52.33333333333333</ele><time>2026-04-18T12:36:44.988Z</time></trkpt><trkpt lat="43.3386891" lon="10.747821"><ele>52.0</ele><time>2026-04-18T12:36:45.988Z</time></trkpt><trkpt lat="43.3388641" lon="10.747822"><ele>53.0</ele><time>2026-04-18T12:36:46.988Z</time></trkpt><trkpt lat="43.3390415" lon="10.7478514"><ele>54.0</ele><time>2026-04-18T12:36:47.988Z</time></trkpt><trkpt lat="43.3392317" lon="10.7479039"><ele>55.0</ele><time>2026-04-18T12:36:48.988Z</time></trkpt><trkpt lat="43.3394211" lon="10.7479775"><ele>55.0</ele><time>2026-04-18T12:36:49.988Z</time></trkpt><trkpt lat="43.3396077" lon="10.7480521"><ele>55.0</ele><time>2026-04-18T12:36:50.988Z</time></trkpt><trkpt lat="43.3397961" lon="10.7481325"><ele>55.0</ele><time>2026-04-18T12:36:51.988Z</time></trkpt><trkpt lat="43.3399834" lon="10.7482168"><ele>55.0</ele><time>2026-04-18T12:36:52.988Z</time></trkpt><trkpt lat="43.3401658" lon="10.7483042"><ele>55.0</ele><time>2026-04-18T12:36:53.988Z</time></trkpt><trkpt lat="43.3403459" lon="10.7483885"><ele>55.0</ele><time>2026-04-18T12:36:54.988Z</time></trkpt><trkpt lat="43.340524" lon="10.7484862"><ele>54.666666666666664</ele><time>2026-04-18T12:36:55.988Z</time></trkpt><trkpt lat="43.3406971" lon="10.7485951"><ele>54.33333333333333</ele><time>2026-04-18T12:36:56.988Z</time></trkpt><trkpt lat="43.3408681" lon="10.7487248"><ele>54.0</ele><time>2026-04-18T12:36:57.988Z</time></trkpt><trkpt lat="43.3410278" lon="10.7488529"><ele>54.0</ele><time>2026-04-18T12:36:58.988Z</time></trkpt><trkpt lat="43.3411808" lon="10.748981"><ele>54.0</ele><time>2026-04-18T12:36:59.988Z</time></trkpt><trkpt lat="43.3413261" lon="10.7491184"><ele>54.0</ele><time>2026-04-18T12:37:00.988Z</time></trkpt><trkpt lat="43.3414671" lon="10.7492655"><ele>54.33333333333333</ele><time>2026-04-18T12:37:01.989Z</time></trkpt><trkpt lat="43.341602" lon="10.7494366"><ele>54.666666666666664</ele><time>2026-04-18T12:37:02.988Z</time></trkpt><trkpt lat="43.3417349" lon="10.7496207"><ele>55.0</ele><time>2026-04-18T12:37:03.988Z</time></trkpt><trkpt lat="43.3418658" lon="10.7498048"><ele>55.0</ele><time>2026-04-18T12:37:04.988Z</time></trkpt><trkpt lat="43.3419943" lon="10.7499851"><ele>55.0</ele><time>2026-04-18T12:37:05.988Z</time></trkpt><trkpt lat="43.3421225" lon="10.7501729"><ele>55.0</ele><time>2026-04-18T12:37:06.988Z</time></trkpt><trkpt lat="43.3422514" lon="10.7503609"><ele>55.33333333333333</ele><time>2026-04-18T12:37:07.988Z</time></trkpt><trkpt lat="43.3423843" lon="10.7505495"><ele>55.66666666666667</ele><time>2026-04-18T12:37:08.988Z</time></trkpt><trkpt lat="43.3425176" lon="10.7507431"><ele>56.0</ele><time>2026-04-18T12:37:09.988Z</time></trkpt><trkpt lat="43.3426528" lon="10.7509323"><ele>55.66666666666667</ele><time>2026-04-18T12:37:10.988Z</time></trkpt><trkpt lat="43.3427907" lon="10.751125"><ele>55.33333333333333</ele><time>2026-04-18T12:37:11.988Z</time></trkpt><trkpt lat="43.3429235" lon="10.75132"><ele>55.0</ele><time>2026-04-18T12:37:12.988Z</time></trkpt><trkpt lat="43.3430591" lon="10.7515176"><ele>55.33333333333333</ele><time>2026-04-18T12:37:13.989Z</time></trkpt><trkpt lat="43.3431926" lon="10.7517119"><ele>55.66666666666667</ele><time>2026-04-18T12:37:14.988Z</time></trkpt><trkpt lat="43.3433267" lon="10.7519015"><ele>56.0</ele><time>2026-04-18T12:37:15.988Z</time></trkpt><trkpt lat="43.3434569" lon="10.7520918"><ele>56.0</ele><time>2026-04-18T12:37:16.988Z</time></trkpt><trkpt lat="43.3435883" lon="10.7522783"><ele>56.0</ele><time>2026-04-18T12:37:17.988Z</time></trkpt><trkpt lat="43.3437172" lon="10.7524626"><ele>56.0</ele><time>2026-04-18T12:37:18.988Z</time></trkpt><trkpt lat="43.3438403" lon="10.7526438"><ele>56.333333333333336</ele><time>2026-04-18T12:37:19.988Z</time></trkpt><trkpt lat="43.3439603" lon="10.7528225"><ele>56.66666666666667</ele><time>2026-04-18T12:37:20.988Z</time></trkpt><trkpt lat="43.3440836" lon="10.7530017"><ele>57.0</ele><time>2026-04-18T12:37:21.988Z</time></trkpt><trkpt lat="43.3442052" lon="10.7531794"><ele>57.0</ele><time>2026-04-18T12:37:22.988Z</time></trkpt><trkpt lat="43.3443215" lon="10.7533597"><ele>57.0</ele><time>2026-04-18T12:37:23.988Z</time></trkpt><trkpt lat="43.3444321" lon="10.753538"><ele>57.0</ele><time>2026-04-18T12:37:24.988Z</time></trkpt><trkpt lat="43.3445257" lon="10.7537201"><ele>57.0</ele><time>2026-04-18T12:37:25.988Z</time></trkpt><trkpt lat="43.3446044" lon="10.7539049"><ele>57.0</ele><time>2026-04-18T12:37:26.989Z</time></trkpt><trkpt lat="43.3446744" lon="10.7540898"><ele>57.0</ele><time>2026-04-18T12:37:27.988Z</time></trkpt><trkpt lat="43.3447336" lon="10.754282"><ele>56.75</ele><time>2026-04-18T12:37:28.988Z</time></trkpt><trkpt lat="43.3447856" lon="10.7544779"><ele>56.5</ele><time>2026-04-18T12:37:29.988Z</time></trkpt><trkpt lat="43.3448313" lon="10.7546666"><ele>56.25</ele><time>2026-04-18T12:37:30.988Z</time></trkpt><trkpt lat="43.3448794" lon="10.7548439"><ele>56.0</ele><time>2026-04-18T12:37:31.988Z</time></trkpt><trkpt lat="43.3449187" lon="10.7550025"><ele>56.0</ele><time>2026-04-18T12:37:32.988Z</time></trkpt><trkpt lat="43.3449478" lon="10.755155"><ele>56.0</ele><time>2026-04-18T12:37:33.988Z</time></trkpt><trkpt lat="43.3449688" lon="10.7553114"><ele>56.0</ele><time>2026-04-18T12:37:34.989Z</time></trkpt><trkpt lat="43.3449959" lon="10.7554685"><ele>56.0</ele><time>2026-04-18T12:37:35.988Z</time></trkpt><trkpt lat="43.3450409" lon="10.7556236"><ele>56.0</ele><time>2026-04-18T12:37:36.988Z</time></trkpt><trkpt lat="43.3451113" lon="10.7557891"><ele>56.0</ele><time>2026-04-18T12:37:37.989Z</time></trkpt><trkpt lat="43.3451933" lon="10.7559467"><ele>56.0</ele><time>2026-04-18T12:37:38.988Z</time></trkpt><trkpt lat="43.3452957" lon="10.7560907"><ele>56.0</ele><time>2026-04-18T12:37:39.988Z</time></trkpt><trkpt lat="43.3454149" lon="10.7562307"><ele>56.0</ele><time>2026-04-18T12:37:40.988Z</time></trkpt><trkpt lat="43.3455414" lon="10.7563886"><ele>56.0</ele><time>2026-04-18T12:37:41.988Z</time></trkpt><trkpt lat="43.3456816" lon="10.7565735"><ele>56.0</ele><time>2026-04-18T12:37:42.988Z</time></trkpt><trkpt lat="43.3458271" lon="10.7567614"><ele>56.333333333333336</ele><time>2026-04-18T12:37:43.988Z</time></trkpt><trkpt lat="43.3459676" lon="10.7569613"><ele>56.66666666666667</ele><time>2026-04-18T12:37:44.988Z</time></trkpt><trkpt lat="43.3460979" lon="10.7571783"><ele>57.0</ele><time>2026-04-18T12:37:45.989Z</time></trkpt><trkpt lat="43.3462227" lon="10.7574006"><ele>57.0</ele><time>2026-04-18T12:37:46.988Z</time></trkpt><trkpt lat="43.3463481" lon="10.757626"><ele>57.0</ele><time>2026-04-18T12:37:47.988Z</time></trkpt><trkpt lat="43.3464736" lon="10.7578563"><ele>57.0</ele><time>2026-04-18T12:37:48.988Z</time></trkpt><trkpt lat="43.3466036" lon="10.7580916"><ele>57.0</ele><time>2026-04-18T12:37:49.988Z</time></trkpt><trkpt lat="43.346737" lon="10.758327"><ele>57.0</ele><time>2026-04-18T12:37:50.988Z</time></trkpt><trkpt lat="43.3468635" lon="10.758555"><ele>57.0</ele><time>2026-04-18T12:37:51.988Z</time></trkpt><trkpt lat="43.3469877" lon="10.7587776"><ele>57.0</ele><time>2026-04-18T12:37:52.988Z</time></trkpt><trkpt lat="43.347103" lon="10.7590034"><ele>57.0</ele><time>2026-04-18T12:37:53.988Z</time></trkpt><trkpt lat="43.3472069" lon="10.7592245"><ele>57.0</ele><time>2026-04-18T12:37:54.988Z</time></trkpt><trkpt lat="43.3473006" lon="10.759454"><ele>56.66666666666667</ele><time>2026-04-18T12:37:55.988Z</time></trkpt><trkpt lat="43.3473794" lon="10.7596907"><ele>56.333333333333336</ele><time>2026-04-18T12:37:56.988Z</time></trkpt><trkpt lat="43.3474458" lon="10.7599332"><ele>56.0</ele><time>2026-04-18T12:37:57.989Z</time></trkpt><trkpt lat="43.3474951" lon="10.7601833"><ele>56.66666666666667</ele><time>2026-04-18T12:37:58.988Z</time></trkpt><trkpt lat="43.3475324" lon="10.7604513"><ele>57.33333333333333</ele><time>2026-04-18T12:37:59.988Z</time></trkpt><trkpt lat="43.3475656" lon="10.7607234"><ele>58.0</ele><time>2026-04-18T12:38:00.988Z</time></trkpt><trkpt lat="43.3476014" lon="10.760989"><ele>58.33333333333333</ele><time>2026-04-18T12:38:01.988Z</time></trkpt><trkpt lat="43.3476273" lon="10.7612572"><ele>58.66666666666667</ele><time>2026-04-18T12:38:02.988Z</time></trkpt><trkpt lat="43.3476533" lon="10.7615212"><ele>59.0</ele><time>2026-04-18T12:38:03.988Z</time></trkpt><trkpt lat="43.3476791" lon="10.7617745"><ele>58.66666666666667</ele><time>2026-04-18T12:38:04.988Z</time></trkpt><trkpt lat="43.347712" lon="10.7620207"><ele>58.33333333333333</ele><time>2026-04-18T12:38:05.988Z</time></trkpt><trkpt lat="43.3477579" lon="10.7622665"><ele>58.0</ele><time>2026-04-18T12:38:06.988Z</time></trkpt><trkpt lat="43.3478196" lon="10.7625187"><ele>58.33333333333333</ele><time>2026-04-18T12:38:07.988Z</time></trkpt><trkpt lat="43.3478884" lon="10.7627692"><ele>58.66666666666667</ele><time>2026-04-18T12:38:08.989Z</time></trkpt><trkpt lat="43.3479583" lon="10.7630188"><ele>59.0</ele><time>2026-04-18T12:38:09.988Z</time></trkpt><trkpt lat="43.3480371" lon="10.7632647"><ele>61.0</ele><time>2026-04-18T12:38:10.988Z</time></trkpt><trkpt lat="43.3481124" lon="10.7634986"><ele>63.0</ele><time>2026-04-18T12:38:11.988Z</time></trkpt><trkpt lat="43.3481851" lon="10.7637359"><ele>65.0</ele><time>2026-04-18T12:38:12.988Z</time></trkpt><trkpt lat="43.3482581" lon="10.7639726"><ele>65.0</ele><time>2026-04-18T12:38:13.988Z</time></trkpt><trkpt lat="43.3483335" lon="10.7642065"><ele>65.0</ele><time>2026-04-18T12:38:14.988Z</time></trkpt><trkpt lat="43.3484068" lon="10.7644376"><ele>65.0</ele><time>2026-04-18T12:38:15.988Z</time></trkpt><trkpt lat="43.3484856" lon="10.7646588"><ele>63.333333333333336</ele><time>2026-04-18T12:38:16.988Z</time></trkpt><trkpt lat="43.3485656" lon="10.7648634"><ele>61.66666666666667</ele><time>2026-04-18T12:38:17.988Z</time></trkpt><trkpt lat="43.3486633" lon="10.7650701"><ele>60.0</ele><time>2026-04-18T12:38:18.988Z</time></trkpt><trkpt lat="43.3487678" lon="10.7652722"><ele>60.33333333333333</ele><time>2026-04-18T12:38:19.988Z</time></trkpt><trkpt lat="43.348879" lon="10.7654671"><ele>60.666666666666664</ele><time>2026-04-18T12:38:20.988Z</time></trkpt><trkpt lat="43.3489884" lon="10.7656474"><ele>61.0</ele><time>2026-04-18T12:38:21.988Z</time></trkpt><trkpt lat="43.3490948" lon="10.765804"><ele>61.0</ele><time>2026-04-18T12:38:22.988Z</time></trkpt><trkpt lat="43.3491968" lon="10.7659471"><ele>61.0</ele><time>2026-04-18T12:38:23.988Z</time></trkpt><trkpt lat="43.3492838" lon="10.766079"><ele>61.0</ele><time>2026-04-18T12:38:24.988Z</time></trkpt><trkpt lat="43.3493659" lon="10.7662086"><ele>61.0</ele><time>2026-04-18T12:38:25.988Z</time></trkpt><trkpt lat="43.3494316" lon="10.7663458"><ele>59.75</ele><time>2026-04-18T12:38:26.988Z</time></trkpt><trkpt lat="43.3494747" lon="10.7664896"><ele>58.5</ele><time>2026-04-18T12:38:27.988Z</time></trkpt><trkpt lat="43.349498" lon="10.7666471"><ele>57.25</ele><time>2026-04-18T12:38:28.988Z</time></trkpt><trkpt lat="43.349495" lon="10.7668126"><ele>56.0</ele><time>2026-04-18T12:38:29.988Z</time></trkpt><trkpt lat="43.3494809" lon="10.7669823"><ele>55.75</ele><time>2026-04-18T12:38:30.988Z</time></trkpt><trkpt lat="43.3494727" lon="10.7671713"><ele>55.5</ele><time>2026-04-18T12:38:31.988Z</time></trkpt><trkpt lat="43.3494808" lon="10.7673757"><ele>55.25</ele><time>2026-04-18T12:38:32.988Z</time></trkpt><trkpt lat="43.3495011" lon="10.7675851"><ele>55.0</ele><time>2026-04-18T12:38:33.988Z</time></trkpt><trkpt lat="43.3495374" lon="10.7677985"><ele>55.0</ele><time>2026-04-18T12:38:34.988Z</time></trkpt><trkpt lat="43.3495766" lon="10.7680146"><ele>55.0</ele><time>2026-04-18T12:38:35.988Z</time></trkpt><trkpt lat="43.349623" lon="10.7682312"><ele>55.0</ele><time>2026-04-18T12:38:36.988Z</time></trkpt><trkpt lat="43.3496893" lon="10.7684393"><ele>55.33333333333333</ele><time>2026-04-18T12:38:37.988Z</time></trkpt><trkpt lat="43.3497789" lon="10.7686526"><ele>55.66666666666667</ele><time>2026-04-18T12:38:38.987Z</time></trkpt><trkpt lat="43.349871" lon="10.768855"><ele>56.0</ele><time>2026-04-18T12:38:39.989Z</time></trkpt><trkpt lat="43.3499681" lon="10.7690599"><ele>56.0</ele><time>2026-04-18T12:38:40.988Z</time></trkpt><trkpt lat="43.3500696" lon="10.7692655"><ele>56.0</ele><time>2026-04-18T12:38:41.988Z</time></trkpt><trkpt lat="43.3501816" lon="10.7694758"><ele>56.0</ele><time>2026-04-18T12:38:42.988Z</time></trkpt><trkpt lat="43.3502899" lon="10.7696884"><ele>56.0</ele><time>2026-04-18T12:38:43.988Z</time></trkpt><trkpt lat="43.350401" lon="10.7699057"><ele>56.0</ele><time>2026-04-18T12:38:44.988Z</time></trkpt><trkpt lat="43.3505144" lon="10.7701262"><ele>56.0</ele><time>2026-04-18T12:38:45.988Z</time></trkpt><trkpt lat="43.3506262" lon="10.7703486"><ele>56.333333333333336</ele><time>2026-04-18T12:38:46.988Z</time></trkpt><trkpt lat="43.3507419" lon="10.770572"><ele>56.66666666666667</ele><time>2026-04-18T12:38:47.988Z</time></trkpt><trkpt lat="43.3508591" lon="10.7707868"><ele>57.0</ele><time>2026-04-18T12:38:48.988Z</time></trkpt><trkpt lat="43.3509802" lon="10.7710002"><ele>56.0</ele><time>2026-04-18T12:38:49.988Z</time></trkpt><trkpt lat="43.3511064" lon="10.7712165"><ele>55.0</ele><time>2026-04-18T12:38:50.988Z</time></trkpt><trkpt lat="43.3512366" lon="10.7714372"><ele>54.0</ele><time>2026-04-18T12:38:51.989Z</time></trkpt><trkpt lat="43.3513612" lon="10.7716518"><ele>54.33333333333333</ele><time>2026-04-18T12:38:52.988Z</time></trkpt><trkpt lat="43.3514891" lon="10.7718701"><ele>54.666666666666664</ele><time>2026-04-18T12:38:53.989Z</time></trkpt><trkpt lat="43.3516163" lon="10.7720891"><ele>55.0</ele><time>2026-04-18T12:38:54.988Z</time></trkpt><trkpt lat="43.3517472" lon="10.7723115"><ele>55.0</ele><time>2026-04-18T12:38:55.988Z</time></trkpt><trkpt lat="43.3518701" lon="10.7725333"><ele>55.0</ele><time>2026-04-18T12:38:56.988Z</time></trkpt><trkpt lat="43.3519967" lon="10.772757"><ele>55.0</ele><time>2026-04-18T12:38:57.988Z</time></trkpt><trkpt lat="43.3521231" lon="10.7729762"><ele>55.33333333333333</ele><time>2026-04-18T12:38:58.989Z</time></trkpt><trkpt lat="43.3522471" lon="10.7731945"><ele>55.66666666666667</ele><time>2026-04-18T12:38:59.988Z</time></trkpt><trkpt lat="43.352374" lon="10.7734117"><ele>56.0</ele><time>2026-04-18T12:39:00.988Z</time></trkpt><trkpt lat="43.3524971" lon="10.7736299"><ele>56.0</ele><time>2026-04-18T12:39:01.988Z</time></trkpt><trkpt lat="43.3526217" lon="10.7738419"><ele>56.0</ele><time>2026-04-18T12:39:02.988Z</time></trkpt><trkpt lat="43.3527464" lon="10.7740564"><ele>56.0</ele><time>2026-04-18T12:39:03.989Z</time></trkpt><trkpt lat="43.3528644" lon="10.7742649"><ele>56.333333333333336</ele><time>2026-04-18T12:39:04.988Z</time></trkpt><trkpt lat="43.3529824" lon="10.7744697"><ele>56.66666666666667</ele><time>2026-04-18T12:39:05.988Z</time></trkpt><trkpt lat="43.3531027" lon="10.7746768"><ele>57.0</ele><time>2026-04-18T12:39:06.988Z</time></trkpt><trkpt lat="43.3532235" lon="10.7748857"><ele>57.0</ele><time>2026-04-18T12:39:07.988Z</time></trkpt><trkpt lat="43.3533429" lon="10.7750867"><ele>57.0</ele><time>2026-04-18T12:39:08.988Z</time></trkpt><trkpt lat="43.3534549" lon="10.7752774"><ele>57.0</ele><time>2026-04-18T12:39:09.988Z</time></trkpt><trkpt lat="43.3535663" lon="10.7754605"><ele>56.66666666666667</ele><time>2026-04-18T12:39:10.988Z</time></trkpt><trkpt lat="43.3536879" lon="10.7756256"><ele>56.333333333333336</ele><time>2026-04-18T12:39:11.988Z</time></trkpt><trkpt lat="43.3538225" lon="10.7757624"><ele>56.0</ele><time>2026-04-18T12:39:12.988Z</time></trkpt><trkpt lat="43.3539651" lon="10.7758796"><ele>56.333333333333336</ele><time>2026-04-18T12:39:13.988Z</time></trkpt><trkpt lat="43.3541132" lon="10.775984"><ele>56.66666666666667</ele><time>2026-04-18T12:39:14.988Z</time></trkpt><trkpt lat="43.3542604" lon="10.7760704"><ele>57.0</ele><time>2026-04-18T12:39:15.988Z</time></trkpt><trkpt lat="43.3544093" lon="10.7761574"><ele>57.0</ele><time>2026-04-18T12:39:16.988Z</time></trkpt><trkpt lat="43.35456" lon="10.7762505"><ele>57.0</ele><time>2026-04-18T12:39:17.988Z</time></trkpt><trkpt lat="43.3547124" lon="10.7763472"><ele>57.0</ele><time>2026-04-18T12:39:18.988Z</time></trkpt><trkpt lat="43.3548653" lon="10.7764426"><ele>57.66666666666667</ele><time>2026-04-18T12:39:19.989Z</time></trkpt><trkpt lat="43.3550175" lon="10.7765374"><ele>58.333333333333336</ele><time>2026-04-18T12:39:20.988Z</time></trkpt><trkpt lat="43.3551657" lon="10.776634"><ele>59.0</ele><time>2026-04-18T12:39:21.988Z</time></trkpt><trkpt lat="43.3553118" lon="10.7767368"><ele>58.333333333333336</ele><time>2026-04-18T12:39:22.988Z</time></trkpt><trkpt lat="43.3554481" lon="10.7768609"><ele>57.66666666666667</ele><time>2026-04-18T12:39:23.988Z</time></trkpt><trkpt lat="43.3555819" lon="10.7770008"><ele>57.0</ele><time>2026-04-18T12:39:24.988Z</time></trkpt><trkpt lat="43.3557064" lon="10.7771576"><ele>57.33333333333333</ele><time>2026-04-18T12:39:25.988Z</time></trkpt><trkpt lat="43.3558239" lon="10.777329"><ele>57.666666666666664</ele><time>2026-04-18T12:39:26.988Z</time></trkpt><trkpt lat="43.3559342" lon="10.7775164"><ele>58.0</ele><time>2026-04-18T12:39:27.988Z</time></trkpt><trkpt lat="43.3560323" lon="10.7777127"><ele>58.0</ele><time>2026-04-18T12:39:28.988Z</time></trkpt><trkpt lat="43.356121" lon="10.7779265"><ele>58.0</ele><time>2026-04-18T12:39:29.988Z</time></trkpt><trkpt lat="43.3561959" lon="10.7781446"><ele>58.0</ele><time>2026-04-18T12:39:30.988Z</time></trkpt><trkpt lat="43.3562583" lon="10.778373"><ele>57.666666666666664</ele><time>2026-04-18T12:39:31.988Z</time></trkpt><trkpt lat="43.356307" lon="10.7786138"><ele>57.33333333333333</ele><time>2026-04-18T12:39:32.988Z</time></trkpt><trkpt lat="43.356344" lon="10.7788587"><ele>57.0</ele><time>2026-04-18T12:39:33.988Z</time></trkpt><trkpt lat="43.356372" lon="10.7791095"><ele>58.0</ele><time>2026-04-18T12:39:34.989Z</time></trkpt><trkpt lat="43.3563913" lon="10.7793686"><ele>59.0</ele><time>2026-04-18T12:39:35.988Z</time></trkpt><trkpt lat="43.3564027" lon="10.7796337"><ele>60.0</ele><time>2026-04-18T12:39:36.988Z</time></trkpt><trkpt lat="43.3564095" lon="10.7799002"><ele>60.0</ele><time>2026-04-18T12:39:37.988Z</time></trkpt><trkpt lat="43.3564229" lon="10.7801662"><ele>60.0</ele><time>2026-04-18T12:39:38.988Z</time></trkpt><trkpt lat="43.3564281" lon="10.7804411"><ele>60.0</ele><time>2026-04-18T12:39:39.988Z</time></trkpt><trkpt lat="43.3564339" lon="10.7807281"><ele>60.0</ele><time>2026-04-18T12:39:40.988Z</time></trkpt><trkpt lat="43.3564363" lon="10.7810153"><ele>60.0</ele><time>2026-04-18T12:39:41.988Z</time></trkpt><trkpt lat="43.356442" lon="10.7812948"><ele>60.0</ele><time>2026-04-18T12:39:42.988Z</time></trkpt><trkpt lat="43.3564476" lon="10.7815674"><ele>59.33333333333333</ele><time>2026-04-18T12:39:43.988Z</time></trkpt><trkpt lat="43.3564557" lon="10.7818493"><ele>58.666666666666664</ele><time>2026-04-18T12:39:44.988Z</time></trkpt><trkpt lat="43.3564716" lon="10.782133"><ele>58.0</ele><time>2026-04-18T12:39:45.988Z</time></trkpt><trkpt lat="43.3564925" lon="10.7824229"><ele>58.33333333333333</ele><time>2026-04-18T12:39:46.988Z</time></trkpt><trkpt lat="43.3565196" lon="10.7827157"><ele>58.66666666666667</ele><time>2026-04-18T12:39:47.988Z</time></trkpt><trkpt lat="43.3565525" lon="10.7830144"><ele>59.0</ele><time>2026-04-18T12:39:48.989Z</time></trkpt><trkpt lat="43.3565948" lon="10.7833073"><ele>59.333333333333336</ele><time>2026-04-18T12:39:49.988Z</time></trkpt><trkpt lat="43.3566369" lon="10.7836059"><ele>59.66666666666667</ele><time>2026-04-18T12:39:50.988Z</time></trkpt><trkpt lat="43.3566793" lon="10.7839035"><ele>60.0</ele><time>2026-04-18T12:39:51.989Z</time></trkpt><trkpt lat="43.3567184" lon="10.7841988"><ele>60.0</ele><time>2026-04-18T12:39:52.988Z</time></trkpt><trkpt lat="43.3567668" lon="10.7844884"><ele>60.0</ele><time>2026-04-18T12:39:53.988Z</time></trkpt><trkpt lat="43.356808" lon="10.7847761"><ele>60.0</ele><time>2026-04-18T12:39:54.988Z</time></trkpt><trkpt lat="43.3568566" lon="10.7850579"><ele>60.33333333333333</ele><time>2026-04-18T12:39:55.988Z</time></trkpt><trkpt lat="43.3568985" lon="10.785345"><ele>60.666666666666664</ele><time>2026-04-18T12:39:56.988Z</time></trkpt><trkpt lat="43.3569458" lon="10.7856304"><ele>61.0</ele><time>2026-04-18T12:39:57.988Z</time></trkpt><trkpt lat="43.3569876" lon="10.7859168"><ele>60.666666666666664</ele><time>2026-04-18T12:39:58.988Z</time></trkpt><trkpt lat="43.3570275" lon="10.786204"><ele>60.33333333333333</ele><time>2026-04-18T12:39:59.988Z</time></trkpt><trkpt lat="43.3570694" lon="10.786496"><ele>60.0</ele><time>2026-04-18T12:40:00.988Z</time></trkpt><trkpt lat="43.357112" lon="10.7867797"><ele>59.66666666666667</ele><time>2026-04-18T12:40:01.988Z</time></trkpt><trkpt lat="43.3571507" lon="10.7870651"><ele>59.333333333333336</ele><time>2026-04-18T12:40:02.988Z</time></trkpt><trkpt lat="43.3571867" lon="10.787349"><ele>59.0</ele><time>2026-04-18T12:40:03.989Z</time></trkpt><trkpt lat="43.3572168" lon="10.7876414"><ele>61.333333333333336</ele><time>2026-04-18T12:40:04.988Z</time></trkpt><trkpt lat="43.357239" lon="10.7879386"><ele>63.66666666666667</ele><time>2026-04-18T12:40:05.989Z</time></trkpt><trkpt lat="43.3572535" lon="10.7882393"><ele>66.0</ele><time>2026-04-18T12:40:06.989Z</time></trkpt><trkpt lat="43.3572681" lon="10.7885411"><ele>67.0</ele><time>2026-04-18T12:40:07.988Z</time></trkpt><trkpt lat="43.3572719" lon="10.7888456"><ele>68.0</ele><time>2026-04-18T12:40:08.988Z</time></trkpt><trkpt lat="43.3572689" lon="10.7891524"><ele>69.0</ele><time>2026-04-18T12:40:09.988Z</time></trkpt><trkpt lat="43.3572616" lon="10.7894523"><ele>67.0</ele><time>2026-04-18T12:40:10.988Z</time></trkpt><trkpt lat="43.3572441" lon="10.7897455"><ele>65.0</ele><time>2026-04-18T12:40:11.988Z</time></trkpt><trkpt lat="43.3572226" lon="10.7900375"><ele>63.0</ele><time>2026-04-18T12:40:12.988Z</time></trkpt><trkpt lat="43.3571941" lon="10.7903289"><ele>62.0</ele><time>2026-04-18T12:40:13.988Z</time></trkpt><trkpt lat="43.3571604" lon="10.7906248"><ele>61.0</ele><time>2026-04-18T12:40:14.988Z</time></trkpt><trkpt lat="43.3571208" lon="10.7909162"><ele>60.0</ele><time>2026-04-18T12:40:15.988Z</time></trkpt><trkpt lat="43.3570769" lon="10.7912058"><ele>60.0</ele><time>2026-04-18T12:40:16.988Z</time></trkpt><trkpt lat="43.3570278" lon="10.7914922"><ele>60.0</ele><time>2026-04-18T12:40:17.988Z</time></trkpt><trkpt lat="43.3569726" lon="10.7917847"><ele>60.0</ele><time>2026-04-18T12:40:18.988Z</time></trkpt><trkpt lat="43.3569116" lon="10.7920743"><ele>60.0</ele><time>2026-04-18T12:40:19.988Z</time></trkpt><trkpt lat="43.356851" lon="10.7923643"><ele>60.0</ele><time>2026-04-18T12:40:20.988Z</time></trkpt><trkpt lat="43.3567871" lon="10.7926536"><ele>60.0</ele><time>2026-04-18T12:40:21.988Z</time></trkpt><trkpt lat="43.3567207" lon="10.7929444"><ele>60.0</ele><time>2026-04-18T12:40:22.988Z</time></trkpt><trkpt lat="43.356654" lon="10.7932294"><ele>60.0</ele><time>2026-04-18T12:40:23.988Z</time></trkpt><trkpt lat="43.3565878" lon="10.7935129"><ele>60.0</ele><time>2026-04-18T12:40:24.988Z</time></trkpt><trkpt lat="43.3565252" lon="10.793794"><ele>60.0</ele><time>2026-04-18T12:40:25.988Z</time></trkpt><trkpt lat="43.3564694" lon="10.7940786"><ele>60.0</ele><time>2026-04-18T12:40:26.988Z</time></trkpt><trkpt lat="43.356411" lon="10.7943645"><ele>60.0</ele><time>2026-04-18T12:40:27.988Z</time></trkpt><trkpt lat="43.3563653" lon="10.7946511"><ele>60.0</ele><time>2026-04-18T12:40:28.988Z</time></trkpt><trkpt lat="43.3563294" lon="10.7949442"><ele>60.0</ele><time>2026-04-18T12:40:29.988Z</time></trkpt><trkpt lat="43.3563037" lon="10.7952403"><ele>60.0</ele><time>2026-04-18T12:40:30.988Z</time></trkpt><trkpt lat="43.3562946" lon="10.7955328"><ele>60.66666666666667</ele><time>2026-04-18T12:40:31.989Z</time></trkpt><trkpt lat="43.3563014" lon="10.795825"><ele>61.333333333333336</ele><time>2026-04-18T12:40:32.988Z</time></trkpt><trkpt lat="43.3563213" lon="10.7961138"><ele>62.0</ele><time>2026-04-18T12:40:33.988Z</time></trkpt><trkpt lat="43.3563554" lon="10.7963974"><ele>64.66666666666667</ele><time>2026-04-18T12:40:34.989Z</time></trkpt><trkpt lat="43.3564051" lon="10.7966729"><ele>67.33333333333333</ele><time>2026-04-18T12:40:35.988Z</time></trkpt><trkpt lat="43.3564624" lon="10.7969433"><ele>70.0</ele><time>2026-04-18T12:40:36.988Z</time></trkpt><trkpt lat="43.3565311" lon="10.7972037"><ele>70.0</ele><time>2026-04-18T12:40:37.988Z</time></trkpt><trkpt lat="43.3566104" lon="10.7974594"><ele>70.0</ele><time>2026-04-18T12:40:38.988Z</time></trkpt><trkpt lat="43.3567024" lon="10.7977043"><ele>70.0</ele><time>2026-04-18T12:40:39.989Z</time></trkpt><trkpt lat="43.3568066" lon="10.7979427"><ele>68.33333333333333</ele><time>2026-04-18T12:40:40.989Z</time></trkpt><trkpt lat="43.3569217" lon="10.7981637"><ele>66.66666666666667</ele><time>2026-04-18T12:40:41.988Z</time></trkpt><trkpt lat="43.3570497" lon="10.7983752"><ele>65.0</ele><time>2026-04-18T12:40:42.988Z</time></trkpt><trkpt lat="43.3571834" lon="10.7985783"><ele>65.66666666666667</ele><time>2026-04-18T12:40:43.989Z</time></trkpt><trkpt lat="43.35732" lon="10.7987861"><ele>66.33333333333333</ele><time>2026-04-18T12:40:44.988Z</time></trkpt><trkpt lat="43.3574496" lon="10.7989898"><ele>67.0</ele><time>2026-04-18T12:40:45.988Z</time></trkpt><trkpt lat="43.3575709" lon="10.7992033"><ele>66.33333333333333</ele><time>2026-04-18T12:40:46.988Z</time></trkpt><trkpt lat="43.3576751" lon="10.7994322"><ele>65.66666666666667</ele><time>2026-04-18T12:40:47.988Z</time></trkpt><trkpt lat="43.3577621" lon="10.7996687"><ele>65.0</ele><time>2026-04-18T12:40:48.988Z</time></trkpt><trkpt lat="43.3578411" lon="10.7999122"><ele>65.0</ele><time>2026-04-18T12:40:49.988Z</time></trkpt><trkpt lat="43.35792" lon="10.8001587"><ele>65.0</ele><time>2026-04-18T12:40:50.988Z</time></trkpt><trkpt lat="43.3579989" lon="10.8003997"><ele>65.0</ele><time>2026-04-18T12:40:51.988Z</time></trkpt><trkpt lat="43.3580783" lon="10.8006337"><ele>65.66666666666667</ele><time>2026-04-18T12:40:52.989Z</time></trkpt><trkpt lat="43.3581616" lon="10.8008651"><ele>66.33333333333333</ele><time>2026-04-18T12:40:53.988Z</time></trkpt><trkpt lat="43.3582525" lon="10.8010916"><ele>67.0</ele><time>2026-04-18T12:40:54.988Z</time></trkpt><trkpt lat="43.3583569" lon="10.8013088"><ele>67.0</ele><time>2026-04-18T12:40:55.988Z</time></trkpt><trkpt lat="43.3584742" lon="10.8015149"><ele>67.0</ele><time>2026-04-18T12:40:56.988Z</time></trkpt><trkpt lat="43.3585949" lon="10.8017178"><ele>67.0</ele><time>2026-04-18T12:40:57.988Z</time></trkpt><trkpt lat="43.358722" lon="10.8019161"><ele>66.33333333333333</ele><time>2026-04-18T12:40:58.988Z</time></trkpt><trkpt lat="43.3588491" lon="10.8021065"><ele>65.66666666666667</ele><time>2026-04-18T12:40:59.988Z</time></trkpt><trkpt lat="43.3589691" lon="10.8022918"><ele>65.0</ele><time>2026-04-18T12:41:00.988Z</time></trkpt><trkpt lat="43.359086" lon="10.802479"><ele>65.33333333333334</ele><time>2026-04-18T12:41:01.988Z</time></trkpt><trkpt lat="43.3591906" lon="10.8026753"><ele>65.66666666666667</ele><time>2026-04-18T12:41:02.989Z</time></trkpt><trkpt lat="43.3592733" lon="10.802886"><ele>66.0</ele><time>2026-04-18T12:41:03.988Z</time></trkpt><trkpt lat="43.359335" lon="10.8031087"><ele>66.0</ele><time>2026-04-18T12:41:04.988Z</time></trkpt><trkpt lat="43.3593805" lon="10.803345"><ele>66.0</ele><time>2026-04-18T12:41:05.988Z</time></trkpt><trkpt lat="43.3594117" lon="10.8035889"><ele>66.0</ele><time>2026-04-18T12:41:06.988Z</time></trkpt><trkpt lat="43.3594273" lon="10.8038412"><ele>65.66666666666667</ele><time>2026-04-18T12:41:07.989Z</time></trkpt><trkpt lat="43.3594247" lon="10.8041022"><ele>65.33333333333334</ele><time>2026-04-18T12:41:08.989Z</time></trkpt><trkpt lat="43.3594044" lon="10.8043684"><ele>65.0</ele><time>2026-04-18T12:41:09.988Z</time></trkpt><trkpt lat="43.3593753" lon="10.8046341"><ele>65.66666666666667</ele><time>2026-04-18T12:41:10.988Z</time></trkpt><trkpt lat="43.3593454" lon="10.8048993"><ele>66.33333333333333</ele><time>2026-04-18T12:41:11.989Z</time></trkpt><trkpt lat="43.3593152" lon="10.8051554"><ele>67.0</ele><time>2026-04-18T12:41:12.988Z</time></trkpt><trkpt lat="43.3592858" lon="10.8054"><ele>67.66666666666666</ele><time>2026-04-18T12:41:13.988Z</time></trkpt><trkpt lat="43.3592558" lon="10.8056352"><ele>68.33333333333333</ele><time>2026-04-18T12:41:14.988Z</time></trkpt><trkpt lat="43.3592287" lon="10.8058512"><ele>69.0</ele><time>2026-04-18T12:41:15.989Z</time></trkpt><trkpt lat="43.3592006" lon="10.8060565"><ele>69.0</ele><time>2026-04-18T12:41:16.989Z</time></trkpt><trkpt lat="43.3591849" lon="10.8062344"><ele>69.0</ele><time>2026-04-18T12:41:17.988Z</time></trkpt><trkpt lat="43.359196" lon="10.8064095"><ele>69.0</ele><time>2026-04-18T12:41:18.988Z</time></trkpt><trkpt lat="43.3592321" lon="10.8065937"><ele>69.0</ele><time>2026-04-18T12:41:19.988Z</time></trkpt><trkpt lat="43.3592862" lon="10.806789"><ele>69.33333333333333</ele><time>2026-04-18T12:41:20.989Z</time></trkpt><trkpt lat="43.3593442" lon="10.8069862"><ele>69.66666666666666</ele><time>2026-04-18T12:41:21.988Z</time></trkpt><trkpt lat="43.3594061" lon="10.8071851"><ele>70.0</ele><time>2026-04-18T12:41:22.989Z</time></trkpt><trkpt lat="43.3594604" lon="10.8073699"><ele>70.0</ele><time>2026-04-18T12:41:23.988Z</time></trkpt><trkpt lat="43.3595168" lon="10.8075452"><ele>70.0</ele><time>2026-04-18T12:41:24.988Z</time></trkpt><trkpt lat="43.3595641" lon="10.8077132"><ele>70.0</ele><time>2026-04-18T12:41:25.988Z</time></trkpt><trkpt lat="43.3596131" lon="10.8078679"><ele>70.0</ele><time>2026-04-18T12:41:26.988Z</time></trkpt><trkpt lat="43.3596654" lon="10.808018"><ele>70.8</ele><time>2026-04-18T12:41:27.988Z</time></trkpt><trkpt lat="43.3597072" lon="10.808166"><ele>71.6</ele><time>2026-04-18T12:41:28.988Z</time></trkpt><trkpt lat="43.3597501" lon="10.8083036"><ele>72.4</ele><time>2026-04-18T12:41:29.989Z</time></trkpt><trkpt lat="43.3597928" lon="10.8084352"><ele>73.2</ele><time>2026-04-18T12:41:30.988Z</time></trkpt><trkpt lat="43.3598405" lon="10.8085681"><ele>74.0</ele><time>2026-04-18T12:41:31.988Z</time></trkpt><trkpt lat="43.3598782" lon="10.8086924"><ele>74.0</ele><time>2026-04-18T12:41:32.988Z</time></trkpt><trkpt lat="43.3599227" lon="10.8088253"><ele>74.0</ele><time>2026-04-18T12:41:33.988Z</time></trkpt><trkpt lat="43.3599684" lon="10.8089616"><ele>74.0</ele><time>2026-04-18T12:41:34.988Z</time></trkpt><trkpt lat="43.3600162" lon="10.8091055"><ele>74.0</ele><time>2026-04-18T12:41:35.988Z</time></trkpt><trkpt lat="43.3600641" lon="10.8092437"><ele>74.0</ele><time>2026-04-18T12:41:36.988Z</time></trkpt><trkpt lat="43.3601109" lon="10.8093923"><ele>73.5</ele><time>2026-04-18T12:41:37.988Z</time></trkpt><trkpt lat="43.360161" lon="10.8095447"><ele>73.0</ele><time>2026-04-18T12:41:38.989Z</time></trkpt><trkpt lat="43.3602081" lon="10.8096955"><ele>72.5</ele><time>2026-04-18T12:41:39.988Z</time></trkpt><trkpt lat="43.3602587" lon="10.8098555"><ele>72.0</ele><time>2026-04-18T12:41:40.989Z</time></trkpt><trkpt lat="43.3603115" lon="10.8100262"><ele>71.75</ele><time>2026-04-18T12:41:41.988Z</time></trkpt><trkpt lat="43.3603597" lon="10.8101967"><ele>71.5</ele><time>2026-04-18T12:41:42.988Z</time></trkpt><trkpt lat="43.3604161" lon="10.8103574"><ele>71.25</ele><time>2026-04-18T12:41:43.989Z</time></trkpt><trkpt lat="43.3604649" lon="10.810524"><ele>71.0</ele><time>2026-04-18T12:41:44.988Z</time></trkpt><trkpt lat="43.360517" lon="10.8106894"><ele>72.0</ele><time>2026-04-18T12:41:45.988Z</time></trkpt><trkpt lat="43.3605715" lon="10.8108499"><ele>73.0</ele><time>2026-04-18T12:41:46.988Z</time></trkpt><trkpt lat="43.3606275" lon="10.8110033"><ele>74.0</ele><time>2026-04-18T12:41:47.988Z</time></trkpt><trkpt lat="43.360688" lon="10.8111544"><ele>75.0</ele><time>2026-04-18T12:41:48.988Z</time></trkpt><trkpt lat="43.360759" lon="10.8113054"><ele>75.0</ele><time>2026-04-18T12:41:49.988Z</time></trkpt><trkpt lat="43.360833" lon="10.8114524"><ele>75.0</ele><time>2026-04-18T12:41:50.988Z</time></trkpt><trkpt lat="43.3609031" lon="10.8115876"><ele>75.0</ele><time>2026-04-18T12:41:51.988Z</time></trkpt><trkpt lat="43.3609781" lon="10.8117132"><ele>75.0</ele><time>2026-04-18T12:41:52.988Z</time></trkpt><trkpt lat="43.3610516" lon="10.8118362"><ele>75.2</ele><time>2026-04-18T12:41:53.988Z</time></trkpt><trkpt lat="43.3611178" lon="10.8119444"><ele>75.4</ele><time>2026-04-18T12:41:54.988Z</time></trkpt><trkpt lat="43.3611796" lon="10.8120437"><ele>75.6</ele><time>2026-04-18T12:41:55.988Z</time></trkpt><trkpt lat="43.3612449" lon="10.8121313"><ele>75.8</ele><time>2026-04-18T12:41:56.988Z</time></trkpt><trkpt lat="43.3613155" lon="10.8122102"><ele>76.0</ele><time>2026-04-18T12:41:57.988Z</time></trkpt><trkpt lat="43.3613964" lon="10.8122891"><ele>76.0</ele><time>2026-04-18T12:41:58.989Z</time></trkpt><trkpt lat="43.3614753" lon="10.8123556"><ele>76.0</ele><time>2026-04-18T12:41:59.988Z</time></trkpt><trkpt lat="43.3615641" lon="10.812425"><ele>76.0</ele><time>2026-04-18T12:42:00.988Z</time></trkpt><trkpt lat="43.3616479" lon="10.8124789"><ele>76.0</ele><time>2026-04-18T12:42:01.988Z</time></trkpt><trkpt lat="43.3617366" lon="10.8125253"><ele>76.0</ele><time>2026-04-18T12:42:02.988Z</time></trkpt><trkpt lat="43.3618267" lon="10.8125693"><ele>76.0</ele><time>2026-04-18T12:42:03.988Z</time></trkpt><trkpt lat="43.3619153" lon="10.8126028"><ele>76.0</ele><time>2026-04-18T12:42:04.988Z</time></trkpt><trkpt lat="43.362002" lon="10.8126275"><ele>76.0</ele><time>2026-04-18T12:42:05.989Z</time></trkpt><trkpt lat="43.3620846" lon="10.812648"><ele>76.0</ele><time>2026-04-18T12:42:06.988Z</time></trkpt><trkpt lat="43.3621653" lon="10.8126588"><ele>76.0</ele><time>2026-04-18T12:42:07.988Z</time></trkpt><trkpt lat="43.3622467" lon="10.8126654"><ele>76.0</ele><time>2026-04-18T12:42:08.988Z</time></trkpt><trkpt lat="43.3623303" lon="10.8126704"><ele>75.39999999999999</ele><time>2026-04-18T12:42:09.988Z</time></trkpt><trkpt lat="43.3624109" lon="10.8126693"><ele>74.8</ele><time>2026-04-18T12:42:10.988Z</time></trkpt><trkpt lat="43.3624968" lon="10.8126473"><ele>74.19999999999999</ele><time>2026-04-18T12:42:11.988Z</time></trkpt><trkpt lat="43.3625878" lon="10.8126528"><ele>73.6</ele><time>2026-04-18T12:42:12.988Z</time></trkpt><trkpt lat="43.3626889" lon="10.8126567"><ele>73.0</ele><time>2026-04-18T12:42:13.988Z</time></trkpt><trkpt lat="43.3627915" lon="10.8126563"><ele>73.0</ele><time>2026-04-18T12:42:14.988Z</time></trkpt><trkpt lat="43.3628882" lon="10.8126577"><ele>73.0</ele><time>2026-04-18T12:42:15.988Z</time></trkpt><trkpt lat="43.362989" lon="10.8126552"><ele>73.0</ele><time>2026-04-18T12:42:16.988Z</time></trkpt><trkpt lat="43.363095" lon="10.8126557"><ele>73.0</ele><time>2026-04-18T12:42:17.988Z</time></trkpt><trkpt lat="43.3631939" lon="10.812656"><ele>73.0</ele><time>2026-04-18T12:42:18.988Z</time></trkpt><trkpt lat="43.3632975" lon="10.812658"><ele>73.2</ele><time>2026-04-18T12:42:19.988Z</time></trkpt><trkpt lat="43.3633713" lon="10.812656"><ele>73.4</ele><time>2026-04-18T12:42:20.988Z</time></trkpt><trkpt lat="43.3634754" lon="10.8126585"><ele>73.60000000000001</ele><time>2026-04-18T12:42:22.988Z</time></trkpt><trkpt lat="43.3635533" lon="10.8126658"><ele>73.8</ele><time>2026-04-18T12:42:29.988Z</time></trkpt><trkpt lat="43.3636409" lon="10.8126805"><ele>74.0</ele><time>2026-04-18T12:42:31.988Z</time></trkpt><trkpt lat="43.3637728" lon="10.8127277"><ele>74.0</ele><time>2026-04-18T12:42:33.988Z</time></trkpt><trkpt lat="43.363839" lon="10.8127831"><ele>74.0</ele><time>2026-04-18T12:42:34.988Z</time></trkpt><trkpt lat="43.3639199" lon="10.8128509"><ele>74.0</ele><time>2026-04-18T12:42:35.988Z</time></trkpt><trkpt lat="43.3639982" lon="10.812926"><ele>74.0</ele><time>2026-04-18T12:42:36.989Z</time></trkpt><trkpt lat="43.3640805" lon="10.8130076"><ele>74.0</ele><time>2026-04-18T12:42:37.988Z</time></trkpt><trkpt lat="43.3641601" lon="10.8130788"><ele>74.4</ele><time>2026-04-18T12:42:38.988Z</time></trkpt><trkpt lat="43.3642445" lon="10.813145"><ele>74.80000000000001</ele><time>2026-04-18T12:42:39.988Z</time></trkpt><trkpt lat="43.3643332" lon="10.8132239"><ele>75.19999999999999</ele><time>2026-04-18T12:42:40.988Z</time></trkpt><trkpt lat="43.3644308" lon="10.8133166"><ele>75.6</ele><time>2026-04-18T12:42:41.988Z</time></trkpt><trkpt lat="43.3645197" lon="10.8134087"><ele>76.0</ele><time>2026-04-18T12:42:42.989Z</time></trkpt><trkpt lat="43.3646201" lon="10.8135134"><ele>76.75</ele><time>2026-04-18T12:42:43.988Z</time></trkpt><trkpt lat="43.3647318" lon="10.8136142"><ele>77.5</ele><time>2026-04-18T12:42:44.988Z</time></trkpt><trkpt lat="43.3648435" lon="10.8137245"><ele>78.25</ele><time>2026-04-18T12:42:45.988Z</time></trkpt><trkpt lat="43.3649658" lon="10.8138369"><ele>79.0</ele><time>2026-04-18T12:42:46.989Z</time></trkpt><trkpt lat="43.3651045" lon="10.8139732"><ele>79.0</ele><time>2026-04-18T12:42:47.988Z</time></trkpt><trkpt lat="43.3652402" lon="10.8141057"><ele>79.0</ele><time>2026-04-18T12:42:48.988Z</time></trkpt><trkpt lat="43.3653868" lon="10.8142431"><ele>79.0</ele><time>2026-04-18T12:42:49.988Z</time></trkpt><trkpt lat="43.3655299" lon="10.8143748"><ele>80.33333333333333</ele><time>2026-04-18T12:42:50.988Z</time></trkpt><trkpt lat="43.3656656" lon="10.8144978"><ele>81.66666666666667</ele><time>2026-04-18T12:42:51.988Z</time></trkpt><trkpt lat="43.3657995" lon="10.814615"><ele>83.0</ele><time>2026-04-18T12:42:52.988Z</time></trkpt><trkpt lat="43.3659384" lon="10.8147224"><ele>83.0</ele><time>2026-04-18T12:42:53.988Z</time></trkpt><trkpt lat="43.3660904" lon="10.8148121"><ele>83.0</ele><time>2026-04-18T12:42:54.988Z</time></trkpt><trkpt lat="43.3662422" lon="10.8148945"><ele>83.0</ele><time>2026-04-18T12:42:55.988Z</time></trkpt><trkpt lat="43.366384" lon="10.8149642"><ele>85.25</ele><time>2026-04-18T12:42:56.988Z</time></trkpt><trkpt lat="43.3665144" lon="10.81503"><ele>87.5</ele><time>2026-04-18T12:42:57.988Z</time></trkpt><trkpt lat="43.366631" lon="10.8150889"><ele>89.75</ele><time>2026-04-18T12:42:58.988Z</time></trkpt><trkpt lat="43.3667495" lon="10.8151303"><ele>92.0</ele><time>2026-04-18T12:42:59.988Z</time></trkpt><trkpt lat="43.3668745" lon="10.8151471"><ele>92.0</ele><time>2026-04-18T12:43:00.989Z</time></trkpt><trkpt lat="43.3670016" lon="10.815139"><ele>92.0</ele><time>2026-04-18T12:43:01.988Z</time></trkpt><trkpt lat="43.3671324" lon="10.8151072"><ele>92.0</ele><time>2026-04-18T12:43:02.988Z</time></trkpt><trkpt lat="43.3672579" lon="10.815054"><ele>92.0</ele><time>2026-04-18T12:43:03.988Z</time></trkpt><trkpt lat="43.3673894" lon="10.8149962"><ele>92.5</ele><time>2026-04-18T12:43:04.988Z</time></trkpt><trkpt lat="43.3675297" lon="10.8149321"><ele>93.0</ele><time>2026-04-18T12:43:05.988Z</time></trkpt><trkpt lat="43.3676661" lon="10.8148739"><ele>93.5</ele><time>2026-04-18T12:43:06.988Z</time></trkpt><trkpt lat="43.3678036" lon="10.8148274"><ele>94.0</ele><time>2026-04-18T12:43:07.988Z</time></trkpt><trkpt lat="43.367939" lon="10.8147955"><ele>94.5</ele><time>2026-04-18T12:43:08.988Z</time></trkpt><trkpt lat="43.3680707" lon="10.8147803"><ele>95.0</ele><time>2026-04-18T12:43:09.988Z</time></trkpt><trkpt lat="43.3681854" lon="10.8147894"><ele>95.5</ele><time>2026-04-18T12:43:10.988Z</time></trkpt><trkpt lat="43.3682897" lon="10.8148279"><ele>96.0</ele><time>2026-04-18T12:43:11.988Z</time></trkpt><trkpt lat="43.3683789" lon="10.8149084"><ele>96.0</ele><time>2026-04-18T12:43:12.988Z</time></trkpt><trkpt lat="43.36845" lon="10.815032"><ele>96.0</ele><time>2026-04-18T12:43:13.989Z</time></trkpt><trkpt lat="43.3684894" lon="10.8151751"><ele>96.0</ele><time>2026-04-18T12:43:14.988Z</time></trkpt><trkpt lat="43.3684989" lon="10.8153494"><ele>96.0</ele><time>2026-04-18T12:43:15.988Z</time></trkpt><trkpt lat="43.3684929" lon="10.8155385"><ele>97.25</ele><time>2026-04-18T12:43:16.988Z</time></trkpt><trkpt lat="43.3684838" lon="10.8157464"><ele>98.5</ele><time>2026-04-18T12:43:17.988Z</time></trkpt><trkpt lat="43.3684935" lon="10.8159386"><ele>99.75</ele><time>2026-04-18T12:43:18.988Z</time></trkpt><trkpt lat="43.3685208" lon="10.8161154"><ele>101.0</ele><time>2026-04-18T12:43:19.988Z</time></trkpt><trkpt lat="43.3685763" lon="10.8162659"><ele>101.75</ele><time>2026-04-18T12:43:20.988Z</time></trkpt><trkpt lat="43.3686574" lon="10.8163937"><ele>102.5</ele><time>2026-04-18T12:43:21.988Z</time></trkpt><trkpt lat="43.3687607" lon="10.8164841"><ele>103.25</ele><time>2026-04-18T12:43:22.988Z</time></trkpt><trkpt lat="43.368852" lon="10.8165745"><ele>104.0</ele><time>2026-04-18T12:43:23.988Z</time></trkpt><trkpt lat="43.3689249" lon="10.816707"><ele>106.33333333333333</ele><time>2026-04-18T12:43:24.988Z</time></trkpt><trkpt lat="43.3689869" lon="10.8168862"><ele>108.66666666666666</ele><time>2026-04-18T12:43:25.988Z</time></trkpt><trkpt lat="43.3690458" lon="10.8170893"><ele>111.0</ele><time>2026-04-18T12:43:26.988Z</time></trkpt><trkpt lat="43.3691112" lon="10.8172825"><ele>111.0</ele><time>2026-04-18T12:43:27.988Z</time></trkpt><trkpt lat="43.3691774" lon="10.8174992"><ele>111.0</ele><time>2026-04-18T12:43:28.988Z</time></trkpt><trkpt lat="43.3692402" lon="10.8177095"><ele>111.0</ele><time>2026-04-18T12:43:29.988Z</time></trkpt><trkpt lat="43.3692995" lon="10.8179137"><ele>113.66666666666666</ele><time>2026-04-18T12:43:30.988Z</time></trkpt><trkpt lat="43.3693608" lon="10.8181173"><ele>116.33333333333333</ele><time>2026-04-18T12:43:31.988Z</time></trkpt><trkpt lat="43.3694251" lon="10.818317"><ele>119.0</ele><time>2026-04-18T12:43:32.988Z</time></trkpt><trkpt lat="43.3694905" lon="10.8185138"><ele>117.66666666666666</ele><time>2026-04-18T12:43:33.988Z</time></trkpt><trkpt lat="43.369575" lon="10.8187107"><ele>116.33333333333334</ele><time>2026-04-18T12:43:34.988Z</time></trkpt><trkpt lat="43.3696725" lon="10.8188995"><ele>115.0</ele><time>2026-04-18T12:43:35.988Z</time></trkpt><trkpt lat="43.3697763" lon="10.8190896"><ele>115.0</ele><time>2026-04-18T12:43:36.988Z</time></trkpt><trkpt lat="43.3698807" lon="10.8192845"><ele>115.0</ele><time>2026-04-18T12:43:37.988Z</time></trkpt><trkpt lat="43.3699803" lon="10.8194745"><ele>115.0</ele><time>2026-04-18T12:43:38.988Z</time></trkpt><trkpt lat="43.3700796" lon="10.8196607"><ele>117.66666666666667</ele><time>2026-04-18T12:43:39.988Z</time></trkpt><trkpt lat="43.3701791" lon="10.8198363"><ele>120.33333333333334</ele><time>2026-04-18T12:43:40.988Z</time></trkpt><trkpt lat="43.3702853" lon="10.8200076"><ele>123.0</ele><time>2026-04-18T12:43:41.988Z</time></trkpt><trkpt lat="43.3704038" lon="10.8201591"><ele>123.0</ele><time>2026-04-18T12:43:42.988Z</time></trkpt><trkpt lat="43.3705458" lon="10.8202962"><ele>123.0</ele><time>2026-04-18T12:43:43.988Z</time></trkpt><trkpt lat="43.3706952" lon="10.8204356"><ele>123.0</ele><time>2026-04-18T12:43:44.988Z</time></trkpt><trkpt lat="43.3708396" lon="10.8205683"><ele>123.0</ele><time>2026-04-18T12:43:45.988Z</time></trkpt><trkpt lat="43.3709878" lon="10.8207032"><ele>123.0</ele><time>2026-04-18T12:43:46.988Z</time></trkpt><trkpt lat="43.3711381" lon="10.820839"><ele>123.0</ele><time>2026-04-18T12:43:47.988Z</time></trkpt><trkpt lat="43.3712901" lon="10.8209808"><ele>123.33333333333334</ele><time>2026-04-18T12:43:48.988Z</time></trkpt><trkpt lat="43.3714447" lon="10.8211096"><ele>123.66666666666667</ele><time>2026-04-18T12:43:49.988Z</time></trkpt><trkpt lat="43.3715862" lon="10.8212306"><ele>124.0</ele><time>2026-04-18T12:43:50.988Z</time></trkpt><trkpt lat="43.3717268" lon="10.8213525"><ele>124.0</ele><time>2026-04-18T12:43:51.988Z</time></trkpt><trkpt lat="43.3718552" lon="10.8214725"><ele>124.0</ele><time>2026-04-18T12:43:52.988Z</time></trkpt><trkpt lat="43.3719757" lon="10.8215795"><ele>124.0</ele><time>2026-04-18T12:43:53.988Z</time></trkpt><trkpt lat="43.3720946" lon="10.8216762"><ele>124.0</ele><time>2026-04-18T12:43:54.988Z</time></trkpt><trkpt lat="43.3722209" lon="10.8217428"><ele>124.0</ele><time>2026-04-18T12:43:55.988Z</time></trkpt><trkpt lat="43.3723587" lon="10.8217717"><ele>124.0</ele><time>2026-04-18T12:43:56.988Z</time></trkpt><trkpt lat="43.3724999" lon="10.8217661"><ele>124.0</ele><time>2026-04-18T12:43:57.988Z</time></trkpt><trkpt lat="43.3726348" lon="10.8217573"><ele>124.0</ele><time>2026-04-18T12:43:58.988Z</time></trkpt><trkpt lat="43.3727691" lon="10.8217772"><ele>124.5</ele><time>2026-04-18T12:43:59.988Z</time></trkpt><trkpt lat="43.3728971" lon="10.821844"><ele>125.0</ele><time>2026-04-18T12:44:00.988Z</time></trkpt><trkpt lat="43.3730206" lon="10.8219521"><ele>125.5</ele><time>2026-04-18T12:44:01.989Z</time></trkpt><trkpt lat="43.3731234" lon="10.8220908"><ele>126.0</ele><time>2026-04-18T12:44:02.988Z</time></trkpt><trkpt lat="43.3732215" lon="10.8222135"><ele>126.0</ele><time>2026-04-18T12:44:03.988Z</time></trkpt><trkpt lat="43.3733155" lon="10.8223269"><ele>126.0</ele><time>2026-04-18T12:44:04.988Z</time></trkpt><trkpt lat="43.3734195" lon="10.822421"><ele>126.0</ele><time>2026-04-18T12:44:05.989Z</time></trkpt><trkpt lat="43.3735419" lon="10.8224848"><ele>126.0</ele><time>2026-04-18T12:44:06.989Z</time></trkpt><trkpt lat="43.3736756" lon="10.822524"><ele>126.0</ele><time>2026-04-18T12:44:07.988Z</time></trkpt><trkpt lat="43.3738218" lon="10.8225401"><ele>126.0</ele><time>2026-04-18T12:44:08.988Z</time></trkpt><trkpt lat="43.3739679" lon="10.8225401"><ele>126.0</ele><time>2026-04-18T12:44:09.989Z</time></trkpt><trkpt lat="43.3741067" lon="10.8225152"><ele>126.0</ele><time>2026-04-18T12:44:10.988Z</time></trkpt><trkpt lat="43.3742465" lon="10.8224727"><ele>127.75</ele><time>2026-04-18T12:44:11.989Z</time></trkpt><trkpt lat="43.3743818" lon="10.8224149"><ele>129.5</ele><time>2026-04-18T12:44:12.988Z</time></trkpt><trkpt lat="43.3745123" lon="10.8223433"><ele>131.25</ele><time>2026-04-18T12:44:13.988Z</time></trkpt><trkpt lat="43.3746302" lon="10.822273"><ele>133.0</ele><time>2026-04-18T12:44:14.989Z</time></trkpt><trkpt lat="43.3747548" lon="10.8222115"><ele>133.0</ele><time>2026-04-18T12:44:15.988Z</time></trkpt><trkpt lat="43.3748836" lon="10.8221783"><ele>133.0</ele><time>2026-04-18T12:44:16.988Z</time></trkpt><trkpt lat="43.3750249" lon="10.8221783"><ele>133.0</ele><time>2026-04-18T12:44:17.988Z</time></trkpt><trkpt lat="43.3751752" lon="10.8222197"><ele>133.0</ele><time>2026-04-18T12:44:18.988Z</time></trkpt><trkpt lat="43.3753439" lon="10.8222619"><ele>131.66666666666669</ele><time>2026-04-18T12:44:19.988Z</time></trkpt><trkpt lat="43.3755204" lon="10.8223079"><ele>130.33333333333334</ele><time>2026-04-18T12:44:20.988Z</time></trkpt><trkpt lat="43.3757022" lon="10.8223469"><ele>129.0</ele><time>2026-04-18T12:44:21.988Z</time></trkpt><trkpt lat="43.3758862" lon="10.8223729"><ele>129.0</ele><time>2026-04-18T12:44:22.989Z</time></trkpt><trkpt lat="43.3760646" lon="10.8223925"><ele>129.0</ele><time>2026-04-18T12:44:23.988Z</time></trkpt><trkpt lat="43.3762435" lon="10.8224106"><ele>129.0</ele><time>2026-04-18T12:44:24.988Z</time></trkpt><trkpt lat="43.376427" lon="10.8224267"><ele>129.0</ele><time>2026-04-18T12:44:25.988Z</time></trkpt><trkpt lat="43.3766076" lon="10.8224389"><ele>129.0</ele><time>2026-04-18T12:44:26.988Z</time></trkpt><trkpt lat="43.3767821" lon="10.8224524"><ele>129.0</ele><time>2026-04-18T12:44:27.988Z</time></trkpt><trkpt lat="43.376948" lon="10.8224654"><ele>129.0</ele><time>2026-04-18T12:44:28.988Z</time></trkpt><trkpt lat="43.3771013" lon="10.822487"><ele>129.0</ele><time>2026-04-18T12:44:29.988Z</time></trkpt><trkpt lat="43.3772455" lon="10.8225282"><ele>129.0</ele><time>2026-04-18T12:44:30.988Z</time></trkpt><trkpt lat="43.3773835" lon="10.8226002"><ele>129.0</ele><time>2026-04-18T12:44:31.989Z</time></trkpt><trkpt lat="43.3775036" lon="10.8227133"><ele>129.5</ele><time>2026-04-18T12:44:32.988Z</time></trkpt><trkpt lat="43.377606" lon="10.8228621"><ele>130.0</ele><time>2026-04-18T12:44:33.988Z</time></trkpt><trkpt lat="43.3776929" lon="10.8230377"><ele>130.5</ele><time>2026-04-18T12:44:34.988Z</time></trkpt><trkpt lat="43.3777756" lon="10.8232032"><ele>131.0</ele><time>2026-04-18T12:44:35.988Z</time></trkpt><trkpt lat="43.3778633" lon="10.8233536"><ele>131.0</ele><time>2026-04-18T12:44:36.988Z</time></trkpt><trkpt lat="43.3779648" lon="10.8234749"><ele>131.0</ele><time>2026-04-18T12:44:37.988Z</time></trkpt><trkpt lat="43.3780837" lon="10.8235584"><ele>131.0</ele><time>2026-04-18T12:44:38.989Z</time></trkpt><trkpt lat="43.3782222" lon="10.8236116"><ele>131.0</ele><time>2026-04-18T12:44:39.989Z</time></trkpt><trkpt lat="43.3783701" lon="10.8236618"><ele>133.0</ele><time>2026-04-18T12:44:40.988Z</time></trkpt><trkpt lat="43.3785237" lon="10.8237119"><ele>135.0</ele><time>2026-04-18T12:44:41.988Z</time></trkpt><trkpt lat="43.378673" lon="10.8237691"><ele>137.0</ele><time>2026-04-18T12:44:42.988Z</time></trkpt><trkpt lat="43.378816" lon="10.8238555"><ele>139.33333333333331</ele><time>2026-04-18T12:44:43.988Z</time></trkpt><trkpt lat="43.3789588" lon="10.8239882"><ele>141.66666666666666</ele><time>2026-04-18T12:44:44.989Z</time></trkpt><trkpt lat="43.3790923" lon="10.8241468"><ele>144.0</ele><time>2026-04-18T12:44:45.988Z</time></trkpt><trkpt lat="43.3792247" lon="10.8243019"><ele>146.0</ele><time>2026-04-18T12:44:46.988Z</time></trkpt><trkpt lat="43.3793656" lon="10.8244328"><ele>148.0</ele><time>2026-04-18T12:44:47.988Z</time></trkpt><trkpt lat="43.3795183" lon="10.8245395"><ele>150.0</ele><time>2026-04-18T12:44:48.988Z</time></trkpt><trkpt lat="43.379674" lon="10.824634"><ele>150.75</ele><time>2026-04-18T12:44:49.988Z</time></trkpt><trkpt lat="43.3798187" lon="10.8247193"><ele>151.5</ele><time>2026-04-18T12:44:50.988Z</time></trkpt><trkpt lat="43.3799451" lon="10.8248116"><ele>152.25</ele><time>2026-04-18T12:44:51.988Z</time></trkpt><trkpt lat="43.3800588" lon="10.8249204"><ele>153.0</ele><time>2026-04-18T12:44:52.988Z</time></trkpt><trkpt lat="43.3801569" lon="10.8250519"><ele>155.33333333333334</ele><time>2026-04-18T12:44:53.988Z</time></trkpt><trkpt lat="43.3802313" lon="10.8252181"><ele>157.66666666666669</ele><time>2026-04-18T12:44:54.988Z</time></trkpt><trkpt lat="43.3802766" lon="10.825419"><ele>160.0</ele><time>2026-04-18T12:44:55.988Z</time></trkpt><trkpt lat="43.3802957" lon="10.8256399"><ele>160.0</ele><time>2026-04-18T12:44:56.988Z</time></trkpt><trkpt lat="43.3803003" lon="10.8258739"><ele>160.0</ele><time>2026-04-18T12:44:57.988Z</time></trkpt><trkpt lat="43.3803037" lon="10.8261016"><ele>160.0</ele><time>2026-04-18T12:44:58.988Z</time></trkpt><trkpt lat="43.380306" lon="10.8263066"><ele>159.75</ele><time>2026-04-18T12:44:59.988Z</time></trkpt><trkpt lat="43.3803181" lon="10.8264949"><ele>159.5</ele><time>2026-04-18T12:45:00.988Z</time></trkpt><trkpt lat="43.3803544" lon="10.8266709"><ele>159.25</ele><time>2026-04-18T12:45:01.989Z</time></trkpt><trkpt lat="43.3804187" lon="10.8268226"><ele>159.0</ele><time>2026-04-18T12:45:02.988Z</time></trkpt><trkpt lat="43.3805163" lon="10.8269501"><ele>160.25</ele><time>2026-04-18T12:45:03.988Z</time></trkpt><trkpt lat="43.3806332" lon="10.8270572"><ele>161.5</ele><time>2026-04-18T12:45:04.988Z</time></trkpt><trkpt lat="43.380746" lon="10.8271687"><ele>162.75</ele><time>2026-04-18T12:45:05.988Z</time></trkpt><trkpt lat="43.3808403" lon="10.8273125"><ele>164.0</ele><time>2026-04-18T12:45:06.988Z</time></trkpt><trkpt lat="43.3809086" lon="10.8274926"><ele>163.5</ele><time>2026-04-18T12:45:07.988Z</time></trkpt><trkpt lat="43.3809675" lon="10.8276805"><ele>163.0</ele><time>2026-04-18T12:45:08.988Z</time></trkpt><trkpt lat="43.3810173" lon="10.8278651"><ele>162.5</ele><time>2026-04-18T12:45:09.988Z</time></trkpt><trkpt lat="43.3810502" lon="10.8280544"><ele>162.0</ele><time>2026-04-18T12:45:10.988Z</time></trkpt><trkpt lat="43.3810487" lon="10.8282669"><ele>160.66666666666666</ele><time>2026-04-18T12:45:11.988Z</time></trkpt><trkpt lat="43.3810253" lon="10.8285017"><ele>159.33333333333331</ele><time>2026-04-18T12:45:12.988Z</time></trkpt><trkpt lat="43.3809943" lon="10.8287533"><ele>158.0</ele><time>2026-04-18T12:45:13.988Z</time></trkpt><trkpt lat="43.380966" lon="10.8290059"><ele>158.0</ele><time>2026-04-18T12:45:14.989Z</time></trkpt><trkpt lat="43.3809424" lon="10.8292644"><ele>158.0</ele><time>2026-04-18T12:45:15.988Z</time></trkpt><trkpt lat="43.3809152" lon="10.8295311"><ele>158.0</ele><time>2026-04-18T12:45:16.988Z</time></trkpt><trkpt lat="43.3808831" lon="10.8298135"><ele>158.66666666666666</ele><time>2026-04-18T12:45:17.988Z</time></trkpt><trkpt lat="43.3808514" lon="10.8300892"><ele>159.33333333333334</ele><time>2026-04-18T12:45:18.988Z</time></trkpt><trkpt lat="43.3808214" lon="10.8303486"><ele>160.0</ele><time>2026-04-18T12:45:19.988Z</time></trkpt><trkpt lat="43.3807873" lon="10.8305881"><ele>160.33333333333334</ele><time>2026-04-18T12:45:20.988Z</time></trkpt><trkpt lat="43.3807687" lon="10.8308208"><ele>160.66666666666666</ele><time>2026-04-18T12:45:21.988Z</time></trkpt><trkpt lat="43.3807706" lon="10.8310536"><ele>161.0</ele><time>2026-04-18T12:45:22.988Z</time></trkpt><trkpt lat="43.3807911" lon="10.8312859"><ele>162.33333333333331</ele><time>2026-04-18T12:45:23.988Z</time></trkpt><trkpt lat="43.3808308" lon="10.8315236"><ele>163.66666666666666</ele><time>2026-04-18T12:45:24.988Z</time></trkpt><trkpt lat="43.3808795" lon="10.8317669"><ele>165.0</ele><time>2026-04-18T12:45:25.988Z</time></trkpt><trkpt lat="43.3809341" lon="10.8320138"><ele>165.0</ele><time>2026-04-18T12:45:26.988Z</time></trkpt><trkpt lat="43.3810023" lon="10.8322522"><ele>165.0</ele><time>2026-04-18T12:45:27.988Z</time></trkpt><trkpt lat="43.3810838" lon="10.832485"><ele>165.0</ele><time>2026-04-18T12:45:28.988Z</time></trkpt><trkpt lat="43.3811771" lon="10.8327131"><ele>165.0</ele><time>2026-04-18T12:45:29.988Z</time></trkpt><trkpt lat="43.3812824" lon="10.8329396"><ele>165.0</ele><time>2026-04-18T12:45:30.988Z</time></trkpt><trkpt lat="43.3814021" lon="10.8331659"><ele>165.0</ele><time>2026-04-18T12:45:31.988Z</time></trkpt><trkpt lat="43.3815327" lon="10.8334004"><ele>168.33333333333334</ele><time>2026-04-18T12:45:32.988Z</time></trkpt><trkpt lat="43.3816643" lon="10.8336325"><ele>171.66666666666669</ele><time>2026-04-18T12:45:33.988Z</time></trkpt><trkpt lat="43.3817912" lon="10.8338602"><ele>175.0</ele><time>2026-04-18T12:45:34.988Z</time></trkpt><trkpt lat="43.3819197" lon="10.8340863"><ele>174.33333333333334</ele><time>2026-04-18T12:45:35.988Z</time></trkpt><trkpt lat="43.3820524" lon="10.8343136"><ele>173.66666666666666</ele><time>2026-04-18T12:45:36.988Z</time></trkpt><trkpt lat="43.3821955" lon="10.8345322"><ele>173.0</ele><time>2026-04-18T12:45:37.988Z</time></trkpt><trkpt lat="43.382338" lon="10.834743"><ele>174.0</ele><time>2026-04-18T12:45:38.988Z</time></trkpt><trkpt lat="43.3824897" lon="10.8349544"><ele>175.0</ele><time>2026-04-18T12:45:39.988Z</time></trkpt><trkpt lat="43.3826446" lon="10.8351645"><ele>176.0</ele><time>2026-04-18T12:45:40.988Z</time></trkpt><trkpt lat="43.3827883" lon="10.8353689"><ele>176.0</ele><time>2026-04-18T12:45:41.988Z</time></trkpt><trkpt lat="43.3829288" lon="10.8355588"><ele>176.0</ele><time>2026-04-18T12:45:42.988Z</time></trkpt><trkpt lat="43.3830594" lon="10.8357383"><ele>176.0</ele><time>2026-04-18T12:45:43.988Z</time></trkpt><trkpt lat="43.3831826" lon="10.8359051"><ele>176.66666666666666</ele><time>2026-04-18T12:45:44.988Z</time></trkpt><trkpt lat="43.3833108" lon="10.8360575"><ele>177.33333333333334</ele><time>2026-04-18T12:45:45.988Z</time></trkpt><trkpt lat="43.3834428" lon="10.8362104"><ele>178.0</ele><time>2026-04-18T12:45:46.988Z</time></trkpt><trkpt lat="43.3835742" lon="10.8363607"><ele>178.0</ele><time>2026-04-18T12:45:47.988Z</time></trkpt><trkpt lat="43.3837058" lon="10.8365066"><ele>178.0</ele><time>2026-04-18T12:45:48.988Z</time></trkpt><trkpt lat="43.3838431" lon="10.8366603"><ele>178.0</ele><time>2026-04-18T12:45:49.988Z</time></trkpt><trkpt lat="43.3839812" lon="10.8368178"><ele>178.66666666666669</ele><time>2026-04-18T12:45:50.988Z</time></trkpt><trkpt lat="43.3841143" lon="10.8369709"><ele>179.33333333333334</ele><time>2026-04-18T12:45:51.989Z</time></trkpt><trkpt lat="43.3842384" lon="10.8371156"><ele>180.0</ele><time>2026-04-18T12:45:52.988Z</time></trkpt><trkpt lat="43.3843552" lon="10.8372508"><ele>180.0</ele><time>2026-04-18T12:45:53.988Z</time></trkpt><trkpt lat="43.3844637" lon="10.8373756"><ele>180.0</ele><time>2026-04-18T12:45:54.988Z</time></trkpt><trkpt lat="43.3845701" lon="10.8374872"><ele>180.0</ele><time>2026-04-18T12:45:55.988Z</time></trkpt><trkpt lat="43.3846911" lon="10.837571"><ele>180.0</ele><time>2026-04-18T12:45:56.988Z</time></trkpt><trkpt lat="43.3848311" lon="10.8376194"><ele>183.33333333333334</ele><time>2026-04-18T12:45:57.988Z</time></trkpt><trkpt lat="43.3849807" lon="10.8376567"><ele>186.66666666666669</ele><time>2026-04-18T12:45:58.988Z</time></trkpt><trkpt lat="43.3851629" lon="10.8376478"><ele>190.0</ele><time>2026-04-18T12:45:59.988Z</time></trkpt><trkpt lat="43.3853273" lon="10.8376593"><ele>190.0</ele><time>2026-04-18T12:46:00.989Z</time></trkpt><trkpt lat="43.3855029" lon="10.8376885"><ele>190.0</ele><time>2026-04-18T12:46:01.988Z</time></trkpt><trkpt lat="43.3856775" lon="10.8377517"><ele>190.0</ele><time>2026-04-18T12:46:02.989Z</time></trkpt><trkpt lat="43.3858685" lon="10.8378321"><ele>192.66666666666669</ele><time>2026-04-18T12:46:03.988Z</time></trkpt><trkpt lat="43.3860504" lon="10.8379161"><ele>195.33333333333334</ele><time>2026-04-18T12:46:04.988Z</time></trkpt><trkpt lat="43.3862237" lon="10.8380052"><ele>198.0</ele><time>2026-04-18T12:46:05.988Z</time></trkpt><trkpt lat="43.3863858" lon="10.8381045"><ele>199.33333333333331</ele><time>2026-04-18T12:46:06.988Z</time></trkpt><trkpt lat="43.3865415" lon="10.8382001"><ele>200.66666666666666</ele><time>2026-04-18T12:46:07.988Z</time></trkpt><trkpt lat="43.3866801" lon="10.8382902"><ele>202.0</ele><time>2026-04-18T12:46:08.988Z</time></trkpt><trkpt lat="43.3868067" lon="10.8383771"><ele>204.5</ele><time>2026-04-18T12:46:09.988Z</time></trkpt><trkpt lat="43.3869171" lon="10.8384796"><ele>207.0</ele><time>2026-04-18T12:46:10.988Z</time></trkpt><trkpt lat="43.3870082" lon="10.838625"><ele>209.5</ele><time>2026-04-18T12:46:11.988Z</time></trkpt><trkpt lat="43.3870691" lon="10.8388008"><ele>212.0</ele><time>2026-04-18T12:46:12.989Z</time></trkpt><trkpt lat="43.387133" lon="10.8389798"><ele>214.0</ele><time>2026-04-18T12:46:13.988Z</time></trkpt><trkpt lat="43.3872196" lon="10.8391493"><ele>216.0</ele><time>2026-04-18T12:46:14.988Z</time></trkpt><trkpt lat="43.3873353" lon="10.8393114"><ele>218.0</ele><time>2026-04-18T12:46:15.988Z</time></trkpt><trkpt lat="43.38746" lon="10.8394668"><ele>218.0</ele><time>2026-04-18T12:46:16.988Z</time></trkpt><trkpt lat="43.387595" lon="10.8396131"><ele>218.0</ele><time>2026-04-18T12:46:17.988Z</time></trkpt><trkpt lat="43.3877298" lon="10.8397661"><ele>218.0</ele><time>2026-04-18T12:46:18.989Z</time></trkpt><trkpt lat="43.3878667" lon="10.83991"><ele>218.0</ele><time>2026-04-18T12:46:19.988Z</time></trkpt><trkpt lat="43.388002" lon="10.8400634"><ele>218.0</ele><time>2026-04-18T12:46:20.988Z</time></trkpt><trkpt lat="43.3881427" lon="10.8402288"><ele>218.0</ele><time>2026-04-18T12:46:21.988Z</time></trkpt><trkpt lat="43.3882819" lon="10.8404102"><ele>219.0</ele><time>2026-04-18T12:46:22.988Z</time></trkpt><trkpt lat="43.3884159" lon="10.84059"><ele>220.0</ele><time>2026-04-18T12:46:23.988Z</time></trkpt><trkpt lat="43.3885476" lon="10.8407721"><ele>221.0</ele><time>2026-04-18T12:46:24.988Z</time></trkpt><trkpt lat="43.3886737" lon="10.8409379"><ele>222.25</ele><time>2026-04-18T12:46:25.988Z</time></trkpt><trkpt lat="43.3887742" lon="10.841099"><ele>223.5</ele><time>2026-04-18T12:46:26.988Z</time></trkpt><trkpt lat="43.3888485" lon="10.8412573"><ele>224.75</ele><time>2026-04-18T12:46:27.988Z</time></trkpt><trkpt lat="43.3889019" lon="10.8414131"><ele>226.0</ele><time>2026-04-18T12:46:28.988Z</time></trkpt><trkpt lat="43.3889698" lon="10.8415539"><ele>226.0</ele><time>2026-04-18T12:46:29.988Z</time></trkpt><trkpt lat="43.3890613" lon="10.8416547"><ele>226.0</ele><time>2026-04-18T12:46:30.988Z</time></trkpt><trkpt lat="43.3891691" lon="10.8417345"><ele>226.0</ele><time>2026-04-18T12:46:31.988Z</time></trkpt><trkpt lat="43.3893013" lon="10.8417756"><ele>226.0</ele><time>2026-04-18T12:46:32.988Z</time></trkpt><trkpt lat="43.3894524" lon="10.8417877"><ele>226.0</ele><time>2026-04-18T12:46:33.988Z</time></trkpt><trkpt lat="43.3896201" lon="10.8417812"><ele>226.0</ele><time>2026-04-18T12:46:34.988Z</time></trkpt><trkpt lat="43.3897891" lon="10.841776"><ele>226.0</ele><time>2026-04-18T12:46:35.988Z</time></trkpt><trkpt lat="43.3899643" lon="10.8417708"><ele>226.66666666666666</ele><time>2026-04-18T12:46:36.988Z</time></trkpt><trkpt lat="43.3901293" lon="10.8417674"><ele>227.33333333333331</ele><time>2026-04-18T12:46:37.989Z</time></trkpt><trkpt lat="43.3902921" lon="10.8417587"><ele>228.0</ele><time>2026-04-18T12:46:38.988Z</time></trkpt><trkpt lat="43.3904411" lon="10.841752"><ele>228.0</ele><time>2026-04-18T12:46:39.988Z</time></trkpt><trkpt lat="43.3905867" lon="10.8417773"><ele>228.0</ele><time>2026-04-18T12:46:40.988Z</time></trkpt><trkpt lat="43.3907271" lon="10.8418436"><ele>228.0</ele><time>2026-04-18T12:46:41.988Z</time></trkpt><trkpt lat="43.390845" lon="10.8419451"><ele>228.0</ele><time>2026-04-18T12:46:42.988Z</time></trkpt><trkpt lat="43.3909654" lon="10.842062"><ele>230.60000000000002</ele><time>2026-04-18T12:46:43.989Z</time></trkpt><trkpt lat="43.3910689" lon="10.8421776"><ele>233.20000000000002</ele><time>2026-04-18T12:46:44.989Z</time></trkpt><trkpt lat="43.3911643" lon="10.8422884"><ele>235.8</ele><time>2026-04-18T12:46:45.988Z</time></trkpt><trkpt lat="43.3912305" lon="10.8423907"><ele>238.4</ele><time>2026-04-18T12:46:46.988Z</time></trkpt><trkpt lat="43.3912725" lon="10.8425"><ele>241.0</ele><time>2026-04-18T12:46:47.988Z</time></trkpt><trkpt lat="43.3912721" lon="10.8426167"><ele>241.0</ele><time>2026-04-18T12:46:48.988Z</time></trkpt><trkpt lat="43.391222" lon="10.8427103"><ele>241.00000000000003</ele><time>2026-04-18T12:46:49.988Z</time></trkpt><trkpt lat="43.3911483" lon="10.8427513"><ele>241.00000000000003</ele><time>2026-04-18T12:46:50.988Z</time></trkpt><trkpt lat="43.3910629" lon="10.8427347"><ele>241.0</ele><time>2026-04-18T12:46:51.988Z</time></trkpt><trkpt lat="43.3909649" lon="10.8426721"><ele>241.0</ele><time>2026-04-18T12:46:52.989Z</time></trkpt><trkpt lat="43.3908671" lon="10.8425855"><ele>241.0</ele><time>2026-04-18T12:46:53.988Z</time></trkpt><trkpt lat="43.3907689" lon="10.8425171"><ele>241.00000000000003</ele><time>2026-04-18T12:46:54.988Z</time></trkpt><trkpt lat="43.3906715" lon="10.8424778"><ele>241.00000000000003</ele><time>2026-04-18T12:46:55.989Z</time></trkpt><trkpt lat="43.3905688" lon="10.8424704"><ele>241.0</ele><time>2026-04-18T12:46:56.988Z</time></trkpt><trkpt lat="43.3904696" lon="10.8425043"><ele>241.0</ele><time>2026-04-18T12:46:57.988Z</time></trkpt><trkpt lat="43.3903848" lon="10.8425821"><ele>243.8</ele><time>2026-04-18T12:46:58.988Z</time></trkpt><trkpt lat="43.3903212" lon="10.8427031"><ele>246.60000000000002</ele><time>2026-04-18T12:46:59.988Z</time></trkpt><trkpt lat="43.3902784" lon="10.8428514"><ele>249.4</ele><time>2026-04-18T12:47:00.988Z</time></trkpt><trkpt lat="43.3902663" lon="10.8430079"><ele>252.2</ele><time>2026-04-18T12:47:01.988Z</time></trkpt><trkpt lat="43.3902847" lon="10.8431565"><ele>255.0</ele><time>2026-04-18T12:47:02.988Z</time></trkpt><trkpt lat="43.3903431" lon="10.8432941"><ele>255.0</ele><time>2026-04-18T12:47:03.988Z</time></trkpt><trkpt lat="43.390437" lon="10.8434184"><ele>255.0</ele><time>2026-04-18T12:47:04.988Z</time></trkpt><trkpt lat="43.3905547" lon="10.8435268"><ele>255.0</ele><time>2026-04-18T12:47:05.988Z</time></trkpt><trkpt lat="43.3906715" lon="10.8436199"><ele>255.0</ele><time>2026-04-18T12:47:06.989Z</time></trkpt><trkpt lat="43.3907776" lon="10.8437119"><ele>256.0</ele><time>2026-04-18T12:47:07.988Z</time></trkpt><trkpt lat="43.3908666" lon="10.8438031"><ele>257.0</ele><time>2026-04-18T12:47:08.988Z</time></trkpt><trkpt lat="43.3909231" lon="10.8439101"><ele>258.0</ele><time>2026-04-18T12:47:09.988Z</time></trkpt><trkpt lat="43.3909334" lon="10.8440347"><ele>259.0</ele><time>2026-04-18T12:47:10.988Z</time></trkpt><trkpt lat="43.3909067" lon="10.8441623"><ele>260.0</ele><time>2026-04-18T12:47:11.987Z</time></trkpt><trkpt lat="43.3908424" lon="10.8442604"><ele>261.25</ele><time>2026-04-18T12:47:12.988Z</time></trkpt><trkpt lat="43.3907531" lon="10.8443055"><ele>262.5</ele><time>2026-04-18T12:47:13.988Z</time></trkpt><trkpt lat="43.3906272" lon="10.844316"><ele>263.75</ele><time>2026-04-18T12:47:14.988Z</time></trkpt><trkpt lat="43.3904856" lon="10.8442857"><ele>265.0</ele><time>2026-04-18T12:47:15.988Z</time></trkpt><trkpt lat="43.390348" lon="10.8442332"><ele>265.0</ele><time>2026-04-18T12:47:16.988Z</time></trkpt><trkpt lat="43.3902059" lon="10.8441873"><ele>265.0</ele><time>2026-04-18T12:47:17.988Z</time></trkpt><trkpt lat="43.3900676" lon="10.8441586"><ele>265.0</ele><time>2026-04-18T12:47:18.988Z</time></trkpt><trkpt lat="43.3899147" lon="10.844153"><ele>265.0</ele><time>2026-04-18T12:47:19.988Z</time></trkpt><trkpt lat="43.389747" lon="10.844182"><ele>265.0</ele><time>2026-04-18T12:47:20.988Z</time></trkpt><trkpt lat="43.3895629" lon="10.84423"><ele>265.0</ele><time>2026-04-18T12:47:21.988Z</time></trkpt><trkpt lat="43.3893944" lon="10.8442812"><ele>265.0</ele><time>2026-04-18T12:47:22.989Z</time></trkpt><trkpt lat="43.38924" lon="10.844322"><ele>264.5</ele><time>2026-04-18T12:47:23.988Z</time></trkpt><trkpt lat="43.3891076" lon="10.8443631"><ele>264.0</ele><time>2026-04-18T12:47:24.988Z</time></trkpt><trkpt lat="43.3889901" lon="10.8444282"><ele>263.5</ele><time>2026-04-18T12:47:25.988Z</time></trkpt><trkpt lat="43.3888801" lon="10.8445174"><ele>263.0</ele><time>2026-04-18T12:47:26.988Z</time></trkpt><trkpt lat="43.388794" lon="10.8446425"><ele>263.0</ele><time>2026-04-18T12:47:27.988Z</time></trkpt><trkpt lat="43.3887294" lon="10.844799"><ele>263.0</ele><time>2026-04-18T12:47:28.988Z</time></trkpt><trkpt lat="43.3886849" lon="10.8449842"><ele>263.0</ele><time>2026-04-18T12:47:29.988Z</time></trkpt><trkpt lat="43.3886592" lon="10.8451765"><ele>263.0</ele><time>2026-04-18T12:47:30.988Z</time></trkpt><trkpt lat="43.3886475" lon="10.8453546"><ele>263.25</ele><time>2026-04-18T12:47:31.988Z</time></trkpt><trkpt lat="43.3886498" lon="10.8455341"><ele>263.5</ele><time>2026-04-18T12:47:32.988Z</time></trkpt><trkpt lat="43.3886728" lon="10.8457041"><ele>263.75</ele><time>2026-04-18T12:47:33.988Z</time></trkpt><trkpt lat="43.3887274" lon="10.8458613"><ele>264.0</ele><time>2026-04-18T12:47:34.988Z</time></trkpt><trkpt lat="43.3888061" lon="10.8459947"><ele>268.3333333333333</ele><time>2026-04-18T12:47:35.988Z</time></trkpt><trkpt lat="43.3889206" lon="10.8461025"><ele>272.66666666666663</ele><time>2026-04-18T12:47:36.988Z</time></trkpt><trkpt lat="43.3890642" lon="10.8461968"><ele>277.0</ele><time>2026-04-18T12:47:37.989Z</time></trkpt><trkpt lat="43.3892076" lon="10.84628"><ele>277.0</ele><time>2026-04-18T12:47:38.989Z</time></trkpt><trkpt lat="43.3893422" lon="10.8463447"><ele>277.0</ele><time>2026-04-18T12:47:39.988Z</time></trkpt><trkpt lat="43.3894735" lon="10.8463648"><ele>277.0</ele><time>2026-04-18T12:47:40.988Z</time></trkpt><trkpt lat="43.3896071" lon="10.8463304"><ele>277.0</ele><time>2026-04-18T12:47:41.988Z</time></trkpt><trkpt lat="43.3897398" lon="10.8462542"><ele>280.25</ele><time>2026-04-18T12:47:42.988Z</time></trkpt><trkpt lat="43.389867" lon="10.8461602"><ele>283.5</ele><time>2026-04-18T12:47:43.988Z</time></trkpt><trkpt lat="43.3899929" lon="10.8460726"><ele>286.75</ele><time>2026-04-18T12:47:44.988Z</time></trkpt><trkpt lat="43.3901275" lon="10.8460139"><ele>290.0</ele><time>2026-04-18T12:47:45.988Z</time></trkpt><trkpt lat="43.3902657" lon="10.8459972"><ele>290.0</ele><time>2026-04-18T12:47:46.988Z</time></trkpt><trkpt lat="43.3903923" lon="10.8460177"><ele>290.0</ele><time>2026-04-18T12:47:47.988Z</time></trkpt><trkpt lat="43.3905053" lon="10.8460811"><ele>290.0</ele><time>2026-04-18T12:47:48.988Z</time></trkpt><trkpt lat="43.3906187" lon="10.8461836"><ele>290.0</ele><time>2026-04-18T12:47:49.988Z</time></trkpt><trkpt lat="43.3907185" lon="10.8463471"><ele>290.33333333333337</ele><time>2026-04-18T12:47:50.988Z</time></trkpt><trkpt lat="43.3908096" lon="10.8465289"><ele>290.6666666666667</ele><time>2026-04-18T12:47:51.988Z</time></trkpt><trkpt lat="43.3909025" lon="10.8467363"><ele>291.0</ele><time>2026-04-18T12:47:52.988Z</time></trkpt><trkpt lat="43.3909922" lon="10.8469393"><ele>291.6666666666667</ele><time>2026-04-18T12:47:53.988Z</time></trkpt><trkpt lat="43.3910737" lon="10.847132"><ele>292.33333333333337</ele><time>2026-04-18T12:47:54.988Z</time></trkpt><trkpt lat="43.3911533" lon="10.8473162"><ele>293.0</ele><time>2026-04-18T12:47:55.988Z</time></trkpt><trkpt lat="43.3912279" lon="10.8475071"><ele>292.33333333333337</ele><time>2026-04-18T12:47:56.988Z</time></trkpt><trkpt lat="43.3913112" lon="10.8476863"><ele>291.6666666666667</ele><time>2026-04-18T12:47:57.988Z</time></trkpt><trkpt lat="43.3914295" lon="10.8478716"><ele>291.0</ele><time>2026-04-18T12:47:58.989Z</time></trkpt><trkpt lat="43.3915676" lon="10.8480435"><ele>291.0</ele><time>2026-04-18T12:47:59.988Z</time></trkpt><trkpt lat="43.3917104" lon="10.8482102"><ele>291.0</ele><time>2026-04-18T12:48:00.988Z</time></trkpt><trkpt lat="43.3918579" lon="10.8483665"><ele>291.0</ele><time>2026-04-18T12:48:01.988Z</time></trkpt><trkpt lat="43.392003" lon="10.8485165"><ele>293.6666666666667</ele><time>2026-04-18T12:48:02.989Z</time></trkpt><trkpt lat="43.392149" lon="10.8486621"><ele>296.33333333333337</ele><time>2026-04-18T12:48:03.989Z</time></trkpt><trkpt lat="43.3922922" lon="10.8488011"><ele>299.0</ele><time>2026-04-18T12:48:04.988Z</time></trkpt><trkpt lat="43.3924396" lon="10.8489185"><ele>299.0</ele><time>2026-04-18T12:48:05.988Z</time></trkpt><trkpt lat="43.3925993" lon="10.8490083"><ele>299.0</ele><time>2026-04-18T12:48:06.988Z</time></trkpt><trkpt lat="43.3927668" lon="10.8490724"><ele>299.0</ele><time>2026-04-18T12:48:07.988Z</time></trkpt><trkpt lat="43.392942" lon="10.8491086"><ele>302.6666666666667</ele><time>2026-04-18T12:48:08.988Z</time></trkpt><trkpt lat="43.3931192" lon="10.849112"><ele>306.3333333333333</ele><time>2026-04-18T12:48:09.988Z</time></trkpt><trkpt lat="43.3932912" lon="10.849095"><ele>310.0</ele><time>2026-04-18T12:48:10.989Z</time></trkpt><trkpt lat="43.3934587" lon="10.8490719"><ele>310.0</ele><time>2026-04-18T12:48:11.988Z</time></trkpt><trkpt lat="43.393616" lon="10.8490559"><ele>310.0</ele><time>2026-04-18T12:48:12.988Z</time></trkpt><trkpt lat="43.393764" lon="10.8490577"><ele>310.0</ele><time>2026-04-18T12:48:13.988Z</time></trkpt><trkpt lat="43.3939165" lon="10.8490844"><ele>311.0</ele><time>2026-04-18T12:48:14.989Z</time></trkpt><trkpt lat="43.3940526" lon="10.8491274"><ele>312.0</ele><time>2026-04-18T12:48:15.988Z</time></trkpt><trkpt lat="43.3941781" lon="10.8491591"><ele>313.0</ele><time>2026-04-18T12:48:16.989Z</time></trkpt><trkpt lat="43.394293" lon="10.8491685"><ele>314.0</ele><time>2026-04-18T12:48:17.988Z</time></trkpt><trkpt lat="43.3944051" lon="10.8491354"><ele>314.0</ele><time>2026-04-18T12:48:18.988Z</time></trkpt><trkpt lat="43.3945079" lon="10.8490558"><ele>314.0</ele><time>2026-04-18T12:48:19.988Z</time></trkpt><trkpt lat="43.3945829" lon="10.8489384"><ele>314.0</ele><time>2026-04-18T12:48:20.988Z</time></trkpt><trkpt lat="43.3946482" lon="10.8487692"><ele>314.0</ele><time>2026-04-18T12:48:21.988Z</time></trkpt><trkpt lat="43.3947012" lon="10.848599"><ele>315.25</ele><time>2026-04-18T12:48:22.988Z</time></trkpt><trkpt lat="43.3947487" lon="10.8484383"><ele>316.5</ele><time>2026-04-18T12:48:23.988Z</time></trkpt><trkpt lat="43.3948131" lon="10.8482956"><ele>317.75</ele><time>2026-04-18T12:48:24.988Z</time></trkpt><trkpt lat="43.3948852" lon="10.8481731"><ele>319.0</ele><time>2026-04-18T12:48:25.988Z</time></trkpt><trkpt lat="43.3949793" lon="10.8480917"><ele>319.0</ele><time>2026-04-18T12:48:26.988Z</time></trkpt><trkpt lat="43.3950788" lon="10.8480491"><ele>319.0</ele><time>2026-04-18T12:48:27.988Z</time></trkpt><trkpt lat="43.395173" lon="10.8480574"><ele>319.0</ele><time>2026-04-18T12:48:28.988Z</time></trkpt><trkpt lat="43.3952464" lon="10.8481233"><ele>319.0</ele><time>2026-04-18T12:48:29.988Z</time></trkpt><trkpt lat="43.3952849" lon="10.8482332"><ele>319.0</ele><time>2026-04-18T12:48:30.988Z</time></trkpt><trkpt lat="43.3952825" lon="10.8483723"><ele>320.5</ele><time>2026-04-18T12:48:31.988Z</time></trkpt><trkpt lat="43.395243" lon="10.8485487"><ele>322.0</ele><time>2026-04-18T12:48:32.988Z</time></trkpt><trkpt lat="43.3951903" lon="10.8487439"><ele>323.5</ele><time>2026-04-18T12:48:33.988Z</time></trkpt><trkpt lat="43.3951422" lon="10.8489447"><ele>325.0</ele><time>2026-04-18T12:48:34.988Z</time></trkpt><trkpt lat="43.3950881" lon="10.8491679"><ele>328.0</ele><time>2026-04-18T12:48:35.989Z</time></trkpt><trkpt lat="43.3950303" lon="10.8493819"><ele>331.0</ele><time>2026-04-18T12:48:36.988Z</time></trkpt><trkpt lat="43.3949593" lon="10.8495857"><ele>334.0</ele><time>2026-04-18T12:48:37.988Z</time></trkpt><trkpt lat="43.3948914" lon="10.8497676"><ele>334.0</ele><time>2026-04-18T12:48:38.988Z</time></trkpt><trkpt lat="43.394829" lon="10.8499343"><ele>334.0</ele><time>2026-04-18T12:48:39.988Z</time></trkpt><trkpt lat="43.3947755" lon="10.8500862"><ele>334.0</ele><time>2026-04-18T12:48:40.988Z</time></trkpt><trkpt lat="43.3947367" lon="10.85022"><ele>334.0</ele><time>2026-04-18T12:48:41.988Z</time></trkpt><trkpt lat="43.3947178" lon="10.8503384"><ele>333.8333333333333</ele><time>2026-04-18T12:48:42.988Z</time></trkpt><trkpt lat="43.3947309" lon="10.8504441"><ele>333.66666666666663</ele><time>2026-04-18T12:48:43.988Z</time></trkpt><trkpt lat="43.39478" lon="10.8505201"><ele>333.5</ele><time>2026-04-18T12:48:44.988Z</time></trkpt><trkpt lat="43.3948488" lon="10.8505389"><ele>333.3333333333333</ele><time>2026-04-18T12:48:45.988Z</time></trkpt><trkpt lat="43.3949129" lon="10.8504931"><ele>333.1666666666667</ele><time>2026-04-18T12:48:46.988Z</time></trkpt><trkpt lat="43.3949626" lon="10.8503797"><ele>333.0</ele><time>2026-04-18T12:48:47.988Z</time></trkpt><trkpt lat="43.3949983" lon="10.8502434"><ele>333.25</ele><time>2026-04-18T12:48:48.988Z</time></trkpt><trkpt lat="43.3950393" lon="10.8500909"><ele>333.5</ele><time>2026-04-18T12:48:49.988Z</time></trkpt><trkpt lat="43.3951176" lon="10.849941"><ele>333.75</ele><time>2026-04-18T12:48:50.988Z</time></trkpt><trkpt lat="43.3952244" lon="10.849811"><ele>334.0</ele><time>2026-04-18T12:48:51.989Z</time></trkpt><trkpt lat="43.3953507" lon="10.8496682"><ele>334.0</ele><time>2026-04-18T12:48:52.988Z</time></trkpt><trkpt lat="43.395481" lon="10.8495381"><ele>334.0</ele><time>2026-04-18T12:48:53.988Z</time></trkpt><trkpt lat="43.3956217" lon="10.8494185"><ele>334.0</ele><time>2026-04-18T12:48:54.988Z</time></trkpt><trkpt lat="43.3957742" lon="10.8493263"><ele>335.3333333333333</ele><time>2026-04-18T12:48:55.989Z</time></trkpt><trkpt lat="43.3959252" lon="10.8492588"><ele>336.6666666666667</ele><time>2026-04-18T12:48:56.988Z</time></trkpt><trkpt lat="43.3960762" lon="10.8491989"><ele>338.0</ele><time>2026-04-18T12:48:57.988Z</time></trkpt><trkpt lat="43.3962237" lon="10.8491139"><ele>342.0</ele><time>2026-04-18T12:48:58.988Z</time></trkpt><trkpt lat="43.3963637" lon="10.8490185"><ele>346.0</ele><time>2026-04-18T12:48:59.988Z</time></trkpt><trkpt lat="43.3964874" lon="10.8488995"><ele>350.0</ele><time>2026-04-18T12:49:00.988Z</time></trkpt><trkpt lat="43.3965966" lon="10.8487517"><ele>350.0</ele><time>2026-04-18T12:49:01.988Z</time></trkpt><trkpt lat="43.3966958" lon="10.8486105"><ele>350.0</ele><time>2026-04-18T12:49:02.988Z</time></trkpt><trkpt lat="43.396804" lon="10.8484831"><ele>350.0</ele><time>2026-04-18T12:49:03.988Z</time></trkpt><trkpt lat="43.3968876" lon="10.8483915"><ele>350.0</ele><time>2026-04-18T12:49:04.989Z</time></trkpt><trkpt lat="43.3969767" lon="10.848317"><ele>348.8</ele><time>2026-04-18T12:49:05.988Z</time></trkpt><trkpt lat="43.3970677" lon="10.8482954"><ele>347.6</ele><time>2026-04-18T12:49:06.988Z</time></trkpt><trkpt lat="43.3971527" lon="10.8483247"><ele>346.4</ele><time>2026-04-18T12:49:07.988Z</time></trkpt><trkpt lat="43.3972125" lon="10.8484103"><ele>345.2</ele><time>2026-04-18T12:49:08.988Z</time></trkpt><trkpt lat="43.3972713" lon="10.8485143"><ele>344.0</ele><time>2026-04-18T12:49:09.988Z</time></trkpt><trkpt lat="43.3971918" lon="10.8486701"><ele>346.0</ele><time>2026-04-18T12:49:10.988Z</time></trkpt><trkpt lat="43.3971317" lon="10.8488268"><ele>348.0</ele><time>2026-04-18T12:49:11.988Z</time></trkpt><trkpt lat="43.3970507" lon="10.849004"><ele>350.0</ele><time>2026-04-18T12:49:12.988Z</time></trkpt><trkpt lat="43.3969571" lon="10.8492295"><ele>353.33333333333337</ele><time>2026-04-18T12:49:13.988Z</time></trkpt><trkpt lat="43.3968618" lon="10.8494519"><ele>356.6666666666667</ele><time>2026-04-18T12:49:14.988Z</time></trkpt><trkpt lat="43.3967715" lon="10.8496755"><ele>360.0</ele><time>2026-04-18T12:49:15.988Z</time></trkpt><trkpt lat="43.3966899" lon="10.8498987"><ele>362.6666666666667</ele><time>2026-04-18T12:49:16.988Z</time></trkpt><trkpt lat="43.3966179" lon="10.8501434"><ele>365.33333333333337</ele><time>2026-04-18T12:49:17.988Z</time></trkpt><trkpt lat="43.3965572" lon="10.8504008"><ele>368.0</ele><time>2026-04-18T12:49:18.988Z</time></trkpt><trkpt lat="43.3965004" lon="10.8506603"><ele>368.0</ele><time>2026-04-18T12:49:19.988Z</time></trkpt><trkpt lat="43.396449" lon="10.8509218"><ele>368.0</ele><time>2026-04-18T12:49:20.988Z</time></trkpt><trkpt lat="43.3964028" lon="10.8511807"><ele>368.0</ele><time>2026-04-18T12:49:21.988Z</time></trkpt><trkpt lat="43.3963625" lon="10.8514338"><ele>366.6666666666667</ele><time>2026-04-18T12:49:22.988Z</time></trkpt><trkpt lat="43.3963378" lon="10.8516827"><ele>365.3333333333333</ele><time>2026-04-18T12:49:23.988Z</time></trkpt><trkpt lat="43.3963259" lon="10.8519102"><ele>364.0</ele><time>2026-04-18T12:49:24.988Z</time></trkpt><trkpt lat="43.3963031" lon="10.8521251"><ele>364.0</ele><time>2026-04-18T12:49:25.988Z</time></trkpt><trkpt lat="43.3962634" lon="10.8523354"><ele>364.0</ele><time>2026-04-18T12:49:26.988Z</time></trkpt><trkpt lat="43.396204" lon="10.852523"><ele>364.0</ele><time>2026-04-18T12:49:27.988Z</time></trkpt><trkpt lat="43.396123" lon="10.8526833"><ele>364.0</ele><time>2026-04-18T12:49:28.988Z</time></trkpt><trkpt lat="43.39601" lon="10.8528144"><ele>365.6</ele><time>2026-04-18T12:49:29.988Z</time></trkpt><trkpt lat="43.3958883" lon="10.8529201"><ele>367.2</ele><time>2026-04-18T12:49:30.988Z</time></trkpt><trkpt lat="43.3958013" lon="10.8530166"><ele>368.8</ele><time>2026-04-18T12:49:31.988Z</time></trkpt><trkpt lat="43.3957322" lon="10.853116"><ele>370.40000000000003</ele><time>2026-04-18T12:49:32.988Z</time></trkpt><trkpt lat="43.3956875" lon="10.8532287"><ele>372.0</ele><time>2026-04-18T12:49:33.989Z</time></trkpt><trkpt lat="43.3956782" lon="10.8533457"><ele>372.0</ele><time>2026-04-18T12:49:34.988Z</time></trkpt><trkpt lat="43.3957033" lon="10.8534439"><ele>372.0</ele><time>2026-04-18T12:49:35.989Z</time></trkpt><trkpt lat="43.395761" lon="10.8535003"><ele>372.0</ele><time>2026-04-18T12:49:36.988Z</time></trkpt><trkpt lat="43.3958363" lon="10.8534991"><ele>372.0</ele><time>2026-04-18T12:49:37.988Z</time></trkpt><trkpt lat="43.3959341" lon="10.8534411"><ele>372.0</ele><time>2026-04-18T12:49:38.988Z</time></trkpt><trkpt lat="43.3960582" lon="10.8533468"><ele>372.0</ele><time>2026-04-18T12:49:39.988Z</time></trkpt><trkpt lat="43.3961961" lon="10.853239"><ele>372.0</ele><time>2026-04-18T12:49:40.988Z</time></trkpt><trkpt lat="43.396357" lon="10.8531104"><ele>372.0</ele><time>2026-04-18T12:49:41.988Z</time></trkpt><trkpt lat="43.3965134" lon="10.8529873"><ele>375.3333333333333</ele><time>2026-04-18T12:49:42.988Z</time></trkpt><trkpt lat="43.3966585" lon="10.8528701"><ele>378.66666666666663</ele><time>2026-04-18T12:49:43.988Z</time></trkpt><trkpt lat="43.3968008" lon="10.8527369"><ele>382.0</ele><time>2026-04-18T12:49:44.988Z</time></trkpt><trkpt lat="43.3969318" lon="10.8525753"><ele>382.0</ele><time>2026-04-18T12:49:45.988Z</time></trkpt><trkpt lat="43.397052" lon="10.8523996"><ele>382.0</ele><time>2026-04-18T12:49:46.988Z</time></trkpt><trkpt lat="43.3971558" lon="10.8522273"><ele>382.0</ele><time>2026-04-18T12:49:47.988Z</time></trkpt><trkpt lat="43.3972502" lon="10.8520692"><ele>383.5</ele><time>2026-04-18T12:49:48.988Z</time></trkpt><trkpt lat="43.3973414" lon="10.8519173"><ele>385.0</ele><time>2026-04-18T12:49:49.988Z</time></trkpt><trkpt lat="43.3974336" lon="10.8517786"><ele>386.5</ele><time>2026-04-18T12:49:50.988Z</time></trkpt><trkpt lat="43.3975375" lon="10.8516523"><ele>388.0</ele><time>2026-04-18T12:49:51.988Z</time></trkpt><trkpt lat="43.3976523" lon="10.8515438"><ele>388.0</ele><time>2026-04-18T12:49:52.988Z</time></trkpt><trkpt lat="43.3977751" lon="10.8514512"><ele>388.0</ele><time>2026-04-18T12:49:53.988Z</time></trkpt><trkpt lat="43.3978983" lon="10.8513667"><ele>388.0</ele><time>2026-04-18T12:49:54.988Z</time></trkpt><trkpt lat="43.3980022" lon="10.8512862"><ele>388.0</ele><time>2026-04-18T12:49:55.988Z</time></trkpt><trkpt lat="43.3980956" lon="10.8512235"><ele>390.0</ele><time>2026-04-18T12:49:56.988Z</time></trkpt><trkpt lat="43.3981887" lon="10.851186"><ele>392.0</ele><time>2026-04-18T12:49:57.988Z</time></trkpt><trkpt lat="43.3982854" lon="10.8511897"><ele>394.0</ele><time>2026-04-18T12:49:58.988Z</time></trkpt><trkpt lat="43.3983758" lon="10.8512552"><ele>396.0</ele><time>2026-04-18T12:49:59.988Z</time></trkpt><trkpt lat="43.3984518" lon="10.8513625"><ele>398.0</ele><time>2026-04-18T12:50:00.988Z</time></trkpt><trkpt lat="43.3985095" lon="10.8515198"><ele>398.0</ele><time>2026-04-18T12:50:01.988Z</time></trkpt><trkpt lat="43.3985563" lon="10.8517005"><ele>398.0</ele><time>2026-04-18T12:50:02.988Z</time></trkpt><trkpt lat="43.3986041" lon="10.8518832"><ele>398.0</ele><time>2026-04-18T12:50:03.988Z</time></trkpt><trkpt lat="43.3986441" lon="10.8520586"><ele>398.0</ele><time>2026-04-18T12:50:04.988Z</time></trkpt><trkpt lat="43.3986884" lon="10.8522268"><ele>399.25</ele><time>2026-04-18T12:50:05.989Z</time></trkpt><trkpt lat="43.3987498" lon="10.8523729"><ele>400.5</ele><time>2026-04-18T12:50:06.988Z</time></trkpt><trkpt lat="43.3988291" lon="10.8525046"><ele>401.75</ele><time>2026-04-18T12:50:07.988Z</time></trkpt><trkpt lat="43.3989274" lon="10.8526276"><ele>403.0</ele><time>2026-04-18T12:50:08.989Z</time></trkpt><trkpt lat="43.3990279" lon="10.8527483"><ele>404.75</ele><time>2026-04-18T12:50:09.988Z</time></trkpt><trkpt lat="43.3991233" lon="10.8528723"><ele>406.5</ele><time>2026-04-18T12:50:10.988Z</time></trkpt><trkpt lat="43.3992133" lon="10.8529863"><ele>408.25</ele><time>2026-04-18T12:50:11.988Z</time></trkpt><trkpt lat="43.3993062" lon="10.8530766"><ele>410.0</ele><time>2026-04-18T12:50:12.988Z</time></trkpt><trkpt lat="43.3994058" lon="10.8531253"><ele>410.0</ele><time>2026-04-18T12:50:13.988Z</time></trkpt><trkpt lat="43.3995129" lon="10.8531274"><ele>410.0</ele><time>2026-04-18T12:50:14.988Z</time></trkpt><trkpt lat="43.399609" lon="10.8530892"><ele>410.0</ele><time>2026-04-18T12:50:15.988Z</time></trkpt><trkpt lat="43.3996908" lon="10.8529985"><ele>410.0</ele><time>2026-04-18T12:50:16.988Z</time></trkpt><trkpt lat="43.3997659" lon="10.8528694"><ele>410.0</ele><time>2026-04-18T12:50:17.988Z</time></trkpt><trkpt lat="43.39984" lon="10.8527276"><ele>410.25</ele><time>2026-04-18T12:50:18.988Z</time></trkpt><trkpt lat="43.3999203" lon="10.8526004"><ele>410.5</ele><time>2026-04-18T12:50:19.988Z</time></trkpt><trkpt lat="43.4000103" lon="10.852488"><ele>410.75</ele><time>2026-04-18T12:50:20.988Z</time></trkpt><trkpt lat="43.4001057" lon="10.8523894"><ele>411.0</ele><time>2026-04-18T12:50:21.988Z</time></trkpt><trkpt lat="43.400213" lon="10.8522997"><ele>411.0</ele><time>2026-04-18T12:50:22.988Z</time></trkpt><trkpt lat="43.4003187" lon="10.8522007"><ele>411.0</ele><time>2026-04-18T12:50:23.989Z</time></trkpt><trkpt lat="43.4004263" lon="10.8521047"><ele>411.0</ele><time>2026-04-18T12:50:24.988Z</time></trkpt><trkpt lat="43.4005333" lon="10.8520039"><ele>411.0</ele><time>2026-04-18T12:50:25.988Z</time></trkpt><trkpt lat="43.4006461" lon="10.8519132"><ele>411.5</ele><time>2026-04-18T12:50:26.988Z</time></trkpt><trkpt lat="43.4007472" lon="10.8518226"><ele>412.0</ele><time>2026-04-18T12:50:27.988Z</time></trkpt><trkpt lat="43.4008405" lon="10.8517392"><ele>412.5</ele><time>2026-04-18T12:50:28.988Z</time></trkpt><trkpt lat="43.4009543" lon="10.8516693"><ele>413.0</ele><time>2026-04-18T12:50:29.988Z</time></trkpt><trkpt lat="43.4010732" lon="10.8516073"><ele>413.0</ele><time>2026-04-18T12:50:30.988Z</time></trkpt><trkpt lat="43.4012076" lon="10.8515648"><ele>413.0</ele><time>2026-04-18T12:50:31.988Z</time></trkpt><trkpt lat="43.4013388" lon="10.8515196"><ele>413.0</ele><time>2026-04-18T12:50:32.988Z</time></trkpt><trkpt lat="43.4014729" lon="10.8514689"><ele>413.0</ele><time>2026-04-18T12:50:33.988Z</time></trkpt><trkpt lat="43.4016024" lon="10.8514156"><ele>415.59999999999997</ele><time>2026-04-18T12:50:34.988Z</time></trkpt><trkpt lat="43.4017213" lon="10.8513628"><ele>418.2</ele><time>2026-04-18T12:50:35.988Z</time></trkpt><trkpt lat="43.4018295" lon="10.8513274"><ele>420.8</ele><time>2026-04-18T12:50:36.988Z</time></trkpt><trkpt lat="43.4019383" lon="10.851311"><ele>423.4</ele><time>2026-04-18T12:50:37.988Z</time></trkpt><trkpt lat="43.4020107" lon="10.8513386"><ele>426.0</ele><time>2026-04-18T12:50:38.988Z</time></trkpt><trkpt lat="43.4020381" lon="10.8514775"><ele>426.0</ele><time>2026-04-18T12:50:40.988Z</time></trkpt><trkpt lat="43.401998" lon="10.8515563"><ele>426.0</ele><time>2026-04-18T12:50:41.988Z</time></trkpt><trkpt lat="43.4019279" lon="10.8516393"><ele>426.0</ele><time>2026-04-18T12:50:42.988Z</time></trkpt><trkpt lat="43.4018091" lon="10.8517037"><ele>426.0</ele><time>2026-04-18T12:50:43.988Z</time></trkpt><trkpt lat="43.4016752" lon="10.8517667"><ele>426.0</ele><time>2026-04-18T12:50:44.988Z</time></trkpt><trkpt lat="43.4015414" lon="10.8518567"><ele>425.0</ele><time>2026-04-18T12:50:45.988Z</time></trkpt><trkpt lat="43.4014097" lon="10.85198"><ele>424.0</ele><time>2026-04-18T12:50:46.989Z</time></trkpt><trkpt lat="43.4012822" lon="10.8521145"><ele>423.0</ele><time>2026-04-18T12:50:47.988Z</time></trkpt><trkpt lat="43.4011835" lon="10.8522503"><ele>423.0</ele><time>2026-04-18T12:50:48.989Z</time></trkpt><trkpt lat="43.4010941" lon="10.8523858"><ele>423.0</ele><time>2026-04-18T12:50:49.988Z</time></trkpt><trkpt lat="43.4010403" lon="10.8525382"><ele>423.0</ele><time>2026-04-18T12:50:50.989Z</time></trkpt><trkpt lat="43.4010137" lon="10.8527126"><ele>423.0</ele><time>2026-04-18T12:50:51.988Z</time></trkpt><trkpt lat="43.400998" lon="10.852904"><ele>425.0</ele><time>2026-04-18T12:50:52.988Z</time></trkpt><trkpt lat="43.400963" lon="10.8531032"><ele>427.0</ele><time>2026-04-18T12:50:53.989Z</time></trkpt><trkpt lat="43.4009144" lon="10.8532946"><ele>429.0</ele><time>2026-04-18T12:50:54.988Z</time></trkpt><trkpt lat="43.4008575" lon="10.8534739"><ele>431.0</ele><time>2026-04-18T12:50:55.988Z</time></trkpt><trkpt lat="43.4007962" lon="10.8536269"><ele>433.0</ele><time>2026-04-18T12:50:56.988Z</time></trkpt><trkpt lat="43.4007454" lon="10.8537802"><ele>435.0</ele><time>2026-04-18T12:50:57.988Z</time></trkpt><trkpt lat="43.4007113" lon="10.8539424"><ele>437.0</ele><time>2026-04-18T12:50:58.988Z</time></trkpt><trkpt lat="43.4006893" lon="10.854121"><ele>439.0</ele><time>2026-04-18T12:50:59.988Z</time></trkpt><trkpt lat="43.4006748" lon="10.8542861"><ele>439.25</ele><time>2026-04-18T12:51:00.988Z</time></trkpt><trkpt lat="43.4006433" lon="10.8544453"><ele>439.5</ele><time>2026-04-18T12:51:01.988Z</time></trkpt><trkpt lat="43.4005722" lon="10.8546001"><ele>439.75</ele><time>2026-04-18T12:51:02.988Z</time></trkpt><trkpt lat="43.4004857" lon="10.8547371"><ele>440.0</ele><time>2026-04-18T12:51:03.988Z</time></trkpt><trkpt lat="43.4003771" lon="10.8548628"><ele>440.0</ele><time>2026-04-18T12:51:04.988Z</time></trkpt><trkpt lat="43.4002591" lon="10.8549643"><ele>440.0</ele><time>2026-04-18T12:51:05.988Z</time></trkpt><trkpt lat="43.4001311" lon="10.8550614"><ele>440.0</ele><time>2026-04-18T12:51:06.988Z</time></trkpt><trkpt lat="43.4000016" lon="10.855161"><ele>440.0</ele><time>2026-04-18T12:51:07.988Z</time></trkpt><trkpt lat="43.3998645" lon="10.8552595"><ele>443.0</ele><time>2026-04-18T12:51:08.988Z</time></trkpt><trkpt lat="43.3997344" lon="10.8553545"><ele>446.0</ele><time>2026-04-18T12:51:09.988Z</time></trkpt><trkpt lat="43.3995984" lon="10.8554242"><ele>449.0</ele><time>2026-04-18T12:51:10.989Z</time></trkpt><trkpt lat="43.3994532" lon="10.8554736"><ele>452.0</ele><time>2026-04-18T12:51:11.988Z</time></trkpt><trkpt lat="43.3993094" lon="10.8554997"><ele>452.0</ele><time>2026-04-18T12:51:12.988Z</time></trkpt><trkpt lat="43.3991826" lon="10.8555177"><ele>452.00000000000006</ele><time>2026-04-18T12:51:13.988Z</time></trkpt><trkpt lat="43.3990723" lon="10.8555367"><ele>452.00000000000006</ele><time>2026-04-18T12:51:14.988Z</time></trkpt><trkpt lat="43.3989752" lon="10.8555801"><ele>452.0</ele><time>2026-04-18T12:51:15.988Z</time></trkpt><trkpt lat="43.3988991" lon="10.8556704"><ele>452.0</ele><time>2026-04-18T12:51:16.988Z</time></trkpt><trkpt lat="43.3988564" lon="10.8557889"><ele>452.0</ele><time>2026-04-18T12:51:17.988Z</time></trkpt><trkpt lat="43.398836" lon="10.8559308"><ele>452.0</ele><time>2026-04-18T12:51:18.988Z</time></trkpt><trkpt lat="43.3988214" lon="10.8561063"><ele>452.0</ele><time>2026-04-18T12:51:19.988Z</time></trkpt><trkpt lat="43.3987975" lon="10.8562791"><ele>452.0</ele><time>2026-04-18T12:51:20.988Z</time></trkpt><trkpt lat="43.3987866" lon="10.8564555"><ele>452.5</ele><time>2026-04-18T12:51:21.988Z</time></trkpt><trkpt lat="43.3987805" lon="10.856639"><ele>453.0</ele><time>2026-04-18T12:51:22.988Z</time></trkpt><trkpt lat="43.398789" lon="10.8568221"><ele>453.5</ele><time>2026-04-18T12:51:23.988Z</time></trkpt><trkpt lat="43.3988005" lon="10.8570024"><ele>454.0</ele><time>2026-04-18T12:51:24.988Z</time></trkpt><trkpt lat="43.3987844" lon="10.8571859"><ele>454.0</ele><time>2026-04-18T12:51:25.988Z</time></trkpt><trkpt lat="43.3987426" lon="10.8573759"><ele>454.0</ele><time>2026-04-18T12:51:26.988Z</time></trkpt><trkpt lat="43.3986925" lon="10.8575568"><ele>454.0</ele><time>2026-04-18T12:51:27.988Z</time></trkpt><trkpt lat="43.398634" lon="10.857722"><ele>454.0</ele><time>2026-04-18T12:51:28.988Z</time></trkpt><trkpt lat="43.3985783" lon="10.8578661"><ele>454.5</ele><time>2026-04-18T12:51:29.988Z</time></trkpt><trkpt lat="43.3985371" lon="10.8580051"><ele>455.0</ele><time>2026-04-18T12:51:30.988Z</time></trkpt><trkpt lat="43.3985245" lon="10.8581555"><ele>455.5</ele><time>2026-04-18T12:51:31.988Z</time></trkpt><trkpt lat="43.3985422" lon="10.8583305"><ele>456.0</ele><time>2026-04-18T12:51:32.988Z</time></trkpt><trkpt lat="43.3985653" lon="10.8585175"><ele>456.25</ele><time>2026-04-18T12:51:33.988Z</time></trkpt><trkpt lat="43.3985845" lon="10.8587014"><ele>456.5</ele><time>2026-04-18T12:51:34.988Z</time></trkpt><trkpt lat="43.3985979" lon="10.8588762"><ele>456.75</ele><time>2026-04-18T12:51:35.989Z</time></trkpt><trkpt lat="43.3986001" lon="10.859037"><ele>457.0</ele><time>2026-04-18T12:51:36.988Z</time></trkpt><trkpt lat="43.398599" lon="10.8591741"><ele>457.0</ele><time>2026-04-18T12:51:37.988Z</time></trkpt><trkpt lat="43.3986138" lon="10.8592804"><ele>457.00000000000006</ele><time>2026-04-18T12:51:38.988Z</time></trkpt><trkpt lat="43.3986527" lon="10.8593584"><ele>457.00000000000006</ele><time>2026-04-18T12:51:39.989Z</time></trkpt><trkpt lat="43.3987123" lon="10.8593881"><ele>457.0</ele><time>2026-04-18T12:51:40.988Z</time></trkpt><trkpt lat="43.3988261" lon="10.8593064"><ele>457.0</ele><time>2026-04-18T12:51:42.988Z</time></trkpt><trkpt lat="43.3988736" lon="10.8591426"><ele>462.75</ele><time>2026-04-18T12:51:43.988Z</time></trkpt><trkpt lat="43.3989366" lon="10.8590009"><ele>468.5</ele><time>2026-04-18T12:51:44.988Z</time></trkpt><trkpt lat="43.3990024" lon="10.858864"><ele>474.25</ele><time>2026-04-18T12:51:45.988Z</time></trkpt><trkpt lat="43.3990828" lon="10.8587311"><ele>480.0</ele><time>2026-04-18T12:51:46.988Z</time></trkpt><trkpt lat="43.3991728" lon="10.8586193"><ele>480.0</ele><time>2026-04-18T12:51:47.988Z</time></trkpt><trkpt lat="43.3992788" lon="10.8585227"><ele>480.0</ele><time>2026-04-18T12:51:48.988Z</time></trkpt><trkpt lat="43.3993902" lon="10.858441"><ele>480.0</ele><time>2026-04-18T12:51:49.988Z</time></trkpt><trkpt lat="43.3995197" lon="10.8583812"><ele>480.0</ele><time>2026-04-18T12:51:50.988Z</time></trkpt><trkpt lat="43.3996532" lon="10.8583397"><ele>481.5</ele><time>2026-04-18T12:51:51.988Z</time></trkpt><trkpt lat="43.3997747" lon="10.8582899"><ele>483.0</ele><time>2026-04-18T12:51:52.988Z</time></trkpt><trkpt lat="43.3998894" lon="10.8582443"><ele>484.5</ele><time>2026-04-18T12:51:53.988Z</time></trkpt><trkpt lat="43.400008" lon="10.8582007"><ele>486.0</ele><time>2026-04-18T12:51:54.988Z</time></trkpt><trkpt lat="43.4001197" lon="10.8581577"><ele>486.0</ele><time>2026-04-18T12:51:55.988Z</time></trkpt><trkpt lat="43.4002136" lon="10.8581011"><ele>486.0</ele><time>2026-04-18T12:51:56.989Z</time></trkpt><trkpt lat="43.400308" lon="10.8580624"><ele>486.0</ele><time>2026-04-18T12:51:57.988Z</time></trkpt><trkpt lat="43.40041" lon="10.8581014"><ele>486.0</ele><time>2026-04-18T12:51:59.988Z</time></trkpt><trkpt lat="43.4004216" lon="10.8582409"><ele>486.0</ele><time>2026-04-18T12:52:01.988Z</time></trkpt><trkpt lat="43.4003805" lon="10.8583428"><ele>489.25</ele><time>2026-04-18T12:52:02.988Z</time></trkpt><trkpt lat="43.4002607" lon="10.8584679"><ele>492.5</ele><time>2026-04-18T12:52:03.988Z</time></trkpt><trkpt lat="43.4001848" lon="10.8585804"><ele>495.75</ele><time>2026-04-18T12:52:04.988Z</time></trkpt><trkpt lat="43.4000854" lon="10.8587207"><ele>499.0</ele><time>2026-04-18T12:52:05.988Z</time></trkpt><trkpt lat="43.3999867" lon="10.8588686"><ele>499.0</ele><time>2026-04-18T12:52:06.988Z</time></trkpt><trkpt lat="43.399886" lon="10.8589975"><ele>499.0</ele><time>2026-04-18T12:52:07.988Z</time></trkpt><trkpt lat="43.3997904" lon="10.8591183"><ele>499.0</ele><time>2026-04-18T12:52:08.988Z</time></trkpt><trkpt lat="43.3997011" lon="10.8592434"><ele>499.0</ele><time>2026-04-18T12:52:09.988Z</time></trkpt><trkpt lat="43.3996214" lon="10.8593636"><ele>495.75</ele><time>2026-04-18T12:52:10.988Z</time></trkpt><trkpt lat="43.3995715" lon="10.8594887"><ele>492.5</ele><time>2026-04-18T12:52:11.988Z</time></trkpt><trkpt lat="43.3995455" lon="10.8596396"><ele>489.25</ele><time>2026-04-18T12:52:12.988Z</time></trkpt><trkpt lat="43.3995315" lon="10.8598172"><ele>486.0</ele><time>2026-04-18T12:52:13.988Z</time></trkpt><trkpt lat="43.3995194" lon="10.8599954"><ele>487.0</ele><time>2026-04-18T12:52:14.988Z</time></trkpt><trkpt lat="43.3995065" lon="10.8601662"><ele>488.0</ele><time>2026-04-18T12:52:15.988Z</time></trkpt><trkpt lat="43.3994926" lon="10.8603407"><ele>489.0</ele><time>2026-04-18T12:52:16.988Z</time></trkpt><trkpt lat="43.3994821" lon="10.8605086"><ele>490.0</ele><time>2026-04-18T12:52:17.989Z</time></trkpt><trkpt lat="43.3994715" lon="10.8606822"><ele>490.0</ele><time>2026-04-18T12:52:18.988Z</time></trkpt><trkpt lat="43.3994558" lon="10.8608538"><ele>490.0</ele><time>2026-04-18T12:52:19.988Z</time></trkpt><trkpt lat="43.3994448" lon="10.8610262"><ele>490.0</ele><time>2026-04-18T12:52:20.988Z</time></trkpt><trkpt lat="43.3994319" lon="10.8612039"><ele>490.0</ele><time>2026-04-18T12:52:21.989Z</time></trkpt><trkpt lat="43.39942" lon="10.8613859"><ele>491.6666666666667</ele><time>2026-04-18T12:52:22.988Z</time></trkpt><trkpt lat="43.3994028" lon="10.8616113"><ele>493.33333333333337</ele><time>2026-04-18T12:52:23.988Z</time></trkpt><trkpt lat="43.3993886" lon="10.8618363"><ele>495.0</ele><time>2026-04-18T12:52:24.988Z</time></trkpt><trkpt lat="43.3993741" lon="10.8620719"><ele>497.66666666666663</ele><time>2026-04-18T12:52:25.988Z</time></trkpt><trkpt lat="43.3993554" lon="10.8623023"><ele>500.3333333333333</ele><time>2026-04-18T12:52:26.988Z</time></trkpt><trkpt lat="43.3993388" lon="10.8625315"><ele>503.0</ele><time>2026-04-18T12:52:27.988Z</time></trkpt><trkpt lat="43.3993209" lon="10.8627622"><ele>504.75</ele><time>2026-04-18T12:52:28.989Z</time></trkpt><trkpt lat="43.3993045" lon="10.8629723"><ele>506.5</ele><time>2026-04-18T12:52:29.988Z</time></trkpt><trkpt lat="43.3992914" lon="10.8631702"><ele>508.25</ele><time>2026-04-18T12:52:30.988Z</time></trkpt><trkpt lat="43.3992785" lon="10.8633646"><ele>510.0</ele><time>2026-04-18T12:52:31.988Z</time></trkpt><trkpt lat="43.3992666" lon="10.8635565"><ele>511.25</ele><time>2026-04-18T12:52:32.988Z</time></trkpt><trkpt lat="43.3992525" lon="10.8637487"><ele>512.5</ele><time>2026-04-18T12:52:33.988Z</time></trkpt><trkpt lat="43.3992403" lon="10.8639401"><ele>513.75</ele><time>2026-04-18T12:52:34.988Z</time></trkpt><trkpt lat="43.3992289" lon="10.8641185"><ele>515.0</ele><time>2026-04-18T12:52:35.988Z</time></trkpt><trkpt lat="43.3992153" lon="10.8642785"><ele>515.5</ele><time>2026-04-18T12:52:36.989Z</time></trkpt><trkpt lat="43.3992017" lon="10.8644386"><ele>516.0</ele><time>2026-04-18T12:52:37.988Z</time></trkpt><trkpt lat="43.3991922" lon="10.8646054"><ele>516.5</ele><time>2026-04-18T12:52:38.988Z</time></trkpt><trkpt lat="43.3991797" lon="10.8647678"><ele>517.0</ele><time>2026-04-18T12:52:39.988Z</time></trkpt><trkpt lat="43.3991637" lon="10.864919"><ele>517.0</ele><time>2026-04-18T12:52:40.988Z</time></trkpt><trkpt lat="43.3991516" lon="10.8650657"><ele>517.0</ele><time>2026-04-18T12:52:41.988Z</time></trkpt><trkpt lat="43.3991453" lon="10.8652076"><ele>517.0</ele><time>2026-04-18T12:52:42.988Z</time></trkpt><trkpt lat="43.3991499" lon="10.8653448"><ele>517.0</ele><time>2026-04-18T12:52:43.989Z</time></trkpt><trkpt lat="43.3991563" lon="10.8654632"><ele>517.0</ele><time>2026-04-18T12:52:44.988Z</time></trkpt><trkpt lat="43.3991726" lon="10.8655704"><ele>517.1666666666667</ele><time>2026-04-18T12:52:45.988Z</time></trkpt><trkpt lat="43.3991966" lon="10.8656733"><ele>517.3333333333334</ele><time>2026-04-18T12:52:46.988Z</time></trkpt><trkpt lat="43.3992152" lon="10.8657791"><ele>517.5</ele><time>2026-04-18T12:52:47.988Z</time></trkpt><trkpt lat="43.3992211" lon="10.8658901"><ele>517.6666666666666</ele><time>2026-04-18T12:52:48.988Z</time></trkpt><trkpt lat="43.3992217" lon="10.8659997"><ele>517.8333333333333</ele><time>2026-04-18T12:52:49.988Z</time></trkpt><trkpt lat="43.3992174" lon="10.8661065"><ele>518.0</ele><time>2026-04-18T12:52:50.988Z</time></trkpt><trkpt lat="43.3992072" lon="10.8662135"><ele>517.4285714285714</ele><time>2026-04-18T12:52:51.988Z</time></trkpt><trkpt lat="43.3991957" lon="10.8663085"><ele>516.8571428571429</ele><time>2026-04-18T12:52:52.989Z</time></trkpt><trkpt lat="43.399186" lon="10.8664212"><ele>516.2857142857142</ele><time>2026-04-18T12:52:54.988Z</time></trkpt><trkpt lat="43.3992007" lon="10.8665148"><ele>515.7142857142858</ele><time>2026-04-18T12:53:07.989Z</time></trkpt><trkpt lat="43.3992075" lon="10.8666096"><ele>515.1428571428571</ele><time>2026-04-18T12:53:08.988Z</time></trkpt><trkpt lat="43.3992126" lon="10.8667105"><ele>514.5714285714286</ele><time>2026-04-18T12:53:09.988Z</time></trkpt><trkpt lat="43.3992164" lon="10.8668252"><ele>514.0</ele><time>2026-04-18T12:53:10.988Z</time></trkpt><trkpt lat="43.3992172" lon="10.8669416"><ele>512.6</ele><time>2026-04-18T12:53:11.988Z</time></trkpt><trkpt lat="43.3992171" lon="10.8670768"><ele>511.2</ele><time>2026-04-18T12:53:12.988Z</time></trkpt><trkpt lat="43.3992169" lon="10.8672217"><ele>509.80000000000007</ele><time>2026-04-18T12:53:13.988Z</time></trkpt><trkpt lat="43.399216" lon="10.8673669"><ele>508.40000000000003</ele><time>2026-04-18T12:53:14.988Z</time></trkpt><trkpt lat="43.3992264" lon="10.867524"><ele>507.0</ele><time>2026-04-18T12:53:15.988Z</time></trkpt><trkpt lat="43.3992397" lon="10.8676785"><ele>505.8</ele><time>2026-04-18T12:53:16.988Z</time></trkpt><trkpt lat="43.3992575" lon="10.8678257"><ele>504.6</ele><time>2026-04-18T12:53:17.988Z</time></trkpt><trkpt lat="43.3992835" lon="10.8679707"><ele>503.40000000000003</ele><time>2026-04-18T12:53:18.988Z</time></trkpt><trkpt lat="43.3993106" lon="10.8681156"><ele>502.20000000000005</ele><time>2026-04-18T12:53:19.988Z</time></trkpt><trkpt lat="43.3993375" lon="10.8682582"><ele>501.0</ele><time>2026-04-18T12:53:20.988Z</time></trkpt><trkpt lat="43.3993688" lon="10.8683947"><ele>501.0</ele><time>2026-04-18T12:53:21.988Z</time></trkpt><trkpt lat="43.3993966" lon="10.8685286"><ele>501.0</ele><time>2026-04-18T12:53:22.988Z</time></trkpt><trkpt lat="43.399427" lon="10.8686579"><ele>501.0</ele><time>2026-04-18T12:53:23.988Z</time></trkpt><trkpt lat="43.3994528" lon="10.8687862"><ele>501.0</ele><time>2026-04-18T12:53:24.988Z</time></trkpt><trkpt lat="43.399474" lon="10.8689149"><ele>501.0</ele><time>2026-04-18T12:53:25.988Z</time></trkpt><trkpt lat="43.3995031" lon="10.8690423"><ele>501.0</ele><time>2026-04-18T12:53:26.988Z</time></trkpt><trkpt lat="43.3995267" lon="10.8691677"><ele>501.0</ele><time>2026-04-18T12:53:27.988Z</time></trkpt><trkpt lat="43.3995572" lon="10.8692891"><ele>501.0</ele><time>2026-04-18T12:53:28.988Z</time></trkpt><trkpt lat="43.3995752" lon="10.8694124"><ele>501.0</ele><time>2026-04-18T12:53:29.988Z</time></trkpt><trkpt lat="43.3995871" lon="10.8695325"><ele>501.0</ele><time>2026-04-18T12:53:30.989Z</time></trkpt><trkpt lat="43.3995985" lon="10.8696574"><ele>500.8333333333333</ele><time>2026-04-18T12:53:31.988Z</time></trkpt><trkpt lat="43.3996177" lon="10.8697822"><ele>500.66666666666663</ele><time>2026-04-18T12:53:32.988Z</time></trkpt><trkpt lat="43.3996269" lon="10.869905"><ele>500.5</ele><time>2026-04-18T12:53:33.988Z</time></trkpt><trkpt lat="43.3996386" lon="10.8700261"><ele>500.3333333333333</ele><time>2026-04-18T12:53:34.988Z</time></trkpt><trkpt lat="43.3996518" lon="10.8701388"><ele>500.16666666666663</ele><time>2026-04-18T12:53:35.988Z</time></trkpt><trkpt lat="43.3996616" lon="10.8702508"><ele>500.0</ele><time>2026-04-18T12:53:36.988Z</time></trkpt><trkpt lat="43.3996687" lon="10.870363"><ele>499.99999999999994</ele><time>2026-04-18T12:53:37.988Z</time></trkpt><trkpt lat="43.3996787" lon="10.8704846"><ele>500.0</ele><time>2026-04-18T12:53:38.988Z</time></trkpt><trkpt lat="43.3996872" lon="10.8706073"><ele>500.0</ele><time>2026-04-18T12:53:39.988Z</time></trkpt><trkpt lat="43.3996907" lon="10.8707263"><ele>500.0</ele><time>2026-04-18T12:53:40.988Z</time></trkpt><trkpt lat="43.3996822" lon="10.8708359"><ele>499.99999999999994</ele><time>2026-04-18T12:53:41.988Z</time></trkpt><trkpt lat="43.3996718" lon="10.870948"><ele>500.0</ele><time>2026-04-18T12:53:42.988Z</time></trkpt><trkpt lat="43.3996541" lon="10.8710632"><ele>498.66666666666663</ele><time>2026-04-18T12:53:43.988Z</time></trkpt><trkpt lat="43.3996213" lon="10.8711842"><ele>497.3333333333333</ele><time>2026-04-18T12:53:44.989Z</time></trkpt><trkpt lat="43.3995874" lon="10.8712946"><ele>496.0</ele><time>2026-04-18T12:53:45.988Z</time></trkpt><trkpt lat="43.3995552" lon="10.8714015"><ele>494.66666666666663</ele><time>2026-04-18T12:53:46.988Z</time></trkpt><trkpt lat="43.3995227" lon="10.8715058"><ele>493.3333333333333</ele><time>2026-04-18T12:53:47.988Z</time></trkpt><trkpt lat="43.399485" lon="10.8716023"><ele>492.0</ele><time>2026-04-18T12:53:48.988Z</time></trkpt><trkpt lat="43.3994382" lon="10.8716972"><ele>491.6666666666667</ele><time>2026-04-18T12:53:49.988Z</time></trkpt><trkpt lat="43.3993791" lon="10.8717946"><ele>491.33333333333337</ele><time>2026-04-18T12:53:50.988Z</time></trkpt><trkpt lat="43.3993426" lon="10.8718812"><ele>491.0</ele><time>2026-04-18T12:53:51.988Z</time></trkpt><trkpt lat="43.3992938" lon="10.8719688"><ele>490.6666666666667</ele><time>2026-04-18T12:53:52.988Z</time></trkpt><trkpt lat="43.3992466" lon="10.8720446"><ele>490.33333333333337</ele><time>2026-04-18T12:53:53.988Z</time></trkpt><trkpt lat="43.3991804" lon="10.8721302"><ele>490.0</ele><time>2026-04-18T12:53:54.988Z</time></trkpt><trkpt lat="43.3991156" lon="10.8722128"><ele>490.0</ele><time>2026-04-18T12:53:55.988Z</time></trkpt><trkpt lat="43.3990512" lon="10.8722993"><ele>490.0</ele><time>2026-04-18T12:53:56.988Z</time></trkpt><trkpt lat="43.3989866" lon="10.8723962"><ele>490.0</ele><time>2026-04-18T12:53:57.988Z</time></trkpt><trkpt lat="43.3989227" lon="10.872512"><ele>490.0</ele><time>2026-04-18T12:53:58.988Z</time></trkpt><trkpt lat="43.3988578" lon="10.8726375"><ele>490.0</ele><time>2026-04-18T12:53:59.988Z</time></trkpt><trkpt lat="43.3987996" lon="10.8727591"><ele>487.6</ele><time>2026-04-18T12:54:00.989Z</time></trkpt><trkpt lat="43.3987431" lon="10.8728773"><ele>485.2</ele><time>2026-04-18T12:54:01.988Z</time></trkpt><trkpt lat="43.3986813" lon="10.8729963"><ele>482.79999999999995</ele><time>2026-04-18T12:54:02.988Z</time></trkpt><trkpt lat="43.3986263" lon="10.8731198"><ele>480.4</ele><time>2026-04-18T12:54:03.988Z</time></trkpt><trkpt lat="43.3985752" lon="10.8732373"><ele>478.0</ele><time>2026-04-18T12:54:04.988Z</time></trkpt><trkpt lat="43.3985192" lon="10.8733611"><ele>478.59999999999997</ele><time>2026-04-18T12:54:05.988Z</time></trkpt><trkpt lat="43.3984608" lon="10.8734821"><ele>479.19999999999993</ele><time>2026-04-18T12:54:06.988Z</time></trkpt><trkpt lat="43.3984043" lon="10.8735974"><ele>479.8</ele><time>2026-04-18T12:54:07.988Z</time></trkpt><trkpt lat="43.3983479" lon="10.8737063"><ele>480.4</ele><time>2026-04-18T12:54:08.988Z</time></trkpt><trkpt lat="43.3982764" lon="10.8738062"><ele>481.0</ele><time>2026-04-18T12:54:09.988Z</time></trkpt><trkpt lat="43.3982063" lon="10.8739056"><ele>481.0</ele><time>2026-04-18T12:54:10.989Z</time></trkpt><trkpt lat="43.398139" lon="10.8739998"><ele>481.0</ele><time>2026-04-18T12:54:11.988Z</time></trkpt><trkpt lat="43.398074" lon="10.8740952"><ele>481.0</ele><time>2026-04-18T12:54:12.988Z</time></trkpt><trkpt lat="43.398005" lon="10.8741841"><ele>481.0</ele><time>2026-04-18T12:54:13.988Z</time></trkpt><trkpt lat="43.397937" lon="10.8742627"><ele>481.0</ele><time>2026-04-18T12:54:14.988Z</time></trkpt><trkpt lat="43.3978743" lon="10.8743508"><ele>477.6</ele><time>2026-04-18T12:54:15.988Z</time></trkpt><trkpt lat="43.3978135" lon="10.8744454"><ele>474.20000000000005</ele><time>2026-04-18T12:54:16.988Z</time></trkpt><trkpt lat="43.3977499" lon="10.8745451"><ele>470.79999999999995</ele><time>2026-04-18T12:54:17.988Z</time></trkpt><trkpt lat="43.3977" lon="10.8746482"><ele>467.4</ele><time>2026-04-18T12:54:18.988Z</time></trkpt><trkpt lat="43.3976556" lon="10.8747623"><ele>464.0</ele><time>2026-04-18T12:54:19.988Z</time></trkpt><trkpt lat="43.3976155" lon="10.8748827"><ele>464.0</ele><time>2026-04-18T12:54:20.988Z</time></trkpt><trkpt lat="43.3975816" lon="10.8750111"><ele>464.0</ele><time>2026-04-18T12:54:21.988Z</time></trkpt><trkpt lat="43.3975498" lon="10.8751411"><ele>464.0</ele><time>2026-04-18T12:54:22.988Z</time></trkpt><trkpt lat="43.3975146" lon="10.8752663"><ele>464.0</ele><time>2026-04-18T12:54:23.988Z</time></trkpt><trkpt lat="43.3974702" lon="10.875392"><ele>464.0</ele><time>2026-04-18T12:54:24.988Z</time></trkpt><trkpt lat="43.3974306" lon="10.8755108"><ele>464.6</ele><time>2026-04-18T12:54:25.988Z</time></trkpt><trkpt lat="43.3973843" lon="10.8756288"><ele>465.2</ele><time>2026-04-18T12:54:26.988Z</time></trkpt><trkpt lat="43.3973405" lon="10.8757443"><ele>465.80000000000007</ele><time>2026-04-18T12:54:27.988Z</time></trkpt><trkpt lat="43.3972922" lon="10.875869"><ele>466.40000000000003</ele><time>2026-04-18T12:54:28.988Z</time></trkpt><trkpt lat="43.3972455" lon="10.8759948"><ele>467.0</ele><time>2026-04-18T12:54:29.988Z</time></trkpt><trkpt lat="43.397197" lon="10.8761209"><ele>461.25</ele><time>2026-04-18T12:54:30.988Z</time></trkpt><trkpt lat="43.3971614" lon="10.876252"><ele>455.5</ele><time>2026-04-18T12:54:31.988Z</time></trkpt><trkpt lat="43.3971265" lon="10.8763969"><ele>449.75</ele><time>2026-04-18T12:54:32.988Z</time></trkpt><trkpt lat="43.397106" lon="10.8765544"><ele>444.0</ele><time>2026-04-18T12:54:33.988Z</time></trkpt><trkpt lat="43.3970905" lon="10.8767217"><ele>442.75</ele><time>2026-04-18T12:54:34.988Z</time></trkpt><trkpt lat="43.3970744" lon="10.8768866"><ele>441.5</ele><time>2026-04-18T12:54:35.988Z</time></trkpt><trkpt lat="43.397056" lon="10.8770562"><ele>440.25</ele><time>2026-04-18T12:54:36.988Z</time></trkpt><trkpt lat="43.3970317" lon="10.8772357"><ele>439.0</ele><time>2026-04-18T12:54:37.988Z</time></trkpt><trkpt lat="43.3970102" lon="10.8774176"><ele>439.0</ele><time>2026-04-18T12:54:38.988Z</time></trkpt><trkpt lat="43.3969829" lon="10.8776054"><ele>439.0</ele><time>2026-04-18T12:54:39.988Z</time></trkpt><trkpt lat="43.3969519" lon="10.8777894"><ele>439.0</ele><time>2026-04-18T12:54:40.988Z</time></trkpt><trkpt lat="43.396918" lon="10.8779647"><ele>439.0</ele><time>2026-04-18T12:54:41.988Z</time></trkpt><trkpt lat="43.396879" lon="10.8781276"><ele>439.0</ele><time>2026-04-18T12:54:42.988Z</time></trkpt><trkpt lat="43.3968295" lon="10.8782799"><ele>439.0</ele><time>2026-04-18T12:54:43.988Z</time></trkpt><trkpt lat="43.3967605" lon="10.8784074"><ele>439.0</ele><time>2026-04-18T12:54:44.988Z</time></trkpt><trkpt lat="43.3967036" lon="10.8785479"><ele>439.0</ele><time>2026-04-18T12:54:45.988Z</time></trkpt><trkpt lat="43.3966716" lon="10.8787046"><ele>439.25</ele><time>2026-04-18T12:54:46.988Z</time></trkpt><trkpt lat="43.3966441" lon="10.8788706"><ele>439.5</ele><time>2026-04-18T12:54:47.988Z</time></trkpt><trkpt lat="43.3966277" lon="10.8790525"><ele>439.75</ele><time>2026-04-18T12:54:48.988Z</time></trkpt><trkpt lat="43.3966311" lon="10.8792448"><ele>440.0</ele><time>2026-04-18T12:54:49.988Z</time></trkpt><trkpt lat="43.3966502" lon="10.879436"><ele>438.25</ele><time>2026-04-18T12:54:50.988Z</time></trkpt><trkpt lat="43.3966748" lon="10.8796264"><ele>436.5</ele><time>2026-04-18T12:54:51.988Z</time></trkpt><trkpt lat="43.3967102" lon="10.8798161"><ele>434.75</ele><time>2026-04-18T12:54:52.988Z</time></trkpt><trkpt lat="43.3967366" lon="10.8800029"><ele>433.0</ele><time>2026-04-18T12:54:53.988Z</time></trkpt><trkpt lat="43.3967553" lon="10.8801862"><ele>430.75</ele><time>2026-04-18T12:54:54.988Z</time></trkpt><trkpt lat="43.3967699" lon="10.8803708"><ele>428.5</ele><time>2026-04-18T12:54:55.988Z</time></trkpt><trkpt lat="43.3967868" lon="10.8805534"><ele>426.25</ele><time>2026-04-18T12:54:56.988Z</time></trkpt><trkpt lat="43.3968129" lon="10.8807349"><ele>424.0</ele><time>2026-04-18T12:54:57.988Z</time></trkpt><trkpt lat="43.3968415" lon="10.8809158"><ele>421.5</ele><time>2026-04-18T12:54:58.988Z</time></trkpt><trkpt lat="43.396871" lon="10.8810975"><ele>419.0</ele><time>2026-04-18T12:54:59.988Z</time></trkpt><trkpt lat="43.3969078" lon="10.8812777"><ele>416.5</ele><time>2026-04-18T12:55:00.988Z</time></trkpt><trkpt lat="43.3969479" lon="10.8814599"><ele>414.0</ele><time>2026-04-18T12:55:01.988Z</time></trkpt><trkpt lat="43.3969847" lon="10.881642"><ele>411.0</ele><time>2026-04-18T12:55:02.989Z</time></trkpt><trkpt lat="43.3970226" lon="10.8818222"><ele>408.0</ele><time>2026-04-18T12:55:03.988Z</time></trkpt><trkpt lat="43.3970577" lon="10.8820061"><ele>405.0</ele><time>2026-04-18T12:55:04.988Z</time></trkpt><trkpt lat="43.3970873" lon="10.8821902"><ele>402.0</ele><time>2026-04-18T12:55:05.988Z</time></trkpt><trkpt lat="43.3971021" lon="10.8823761"><ele>402.0</ele><time>2026-04-18T12:55:06.988Z</time></trkpt><trkpt lat="43.3971044" lon="10.8825651"><ele>402.0</ele><time>2026-04-18T12:55:07.988Z</time></trkpt><trkpt lat="43.3971065" lon="10.8827545"><ele>402.0</ele><time>2026-04-18T12:55:08.988Z</time></trkpt><trkpt lat="43.3971099" lon="10.8829456"><ele>402.0</ele><time>2026-04-18T12:55:09.988Z</time></trkpt><trkpt lat="43.3971264" lon="10.8831362"><ele>400.5</ele><time>2026-04-18T12:55:10.988Z</time></trkpt><trkpt lat="43.3971551" lon="10.8833193"><ele>399.0</ele><time>2026-04-18T12:55:11.988Z</time></trkpt><trkpt lat="43.3971803" lon="10.8835012"><ele>397.5</ele><time>2026-04-18T12:55:12.989Z</time></trkpt><trkpt lat="43.3972053" lon="10.8836679"><ele>396.0</ele><time>2026-04-18T12:55:13.989Z</time></trkpt><trkpt lat="43.3972224" lon="10.8838218"><ele>396.6</ele><time>2026-04-18T12:55:14.988Z</time></trkpt><trkpt lat="43.3972286" lon="10.8839721"><ele>397.20000000000005</ele><time>2026-04-18T12:55:15.988Z</time></trkpt><trkpt lat="43.3972053" lon="10.8841196"><ele>397.79999999999995</ele><time>2026-04-18T12:55:16.988Z</time></trkpt><trkpt lat="43.3971612" lon="10.8842577"><ele>398.4</ele><time>2026-04-18T12:55:17.988Z</time></trkpt><trkpt lat="43.3970943" lon="10.8843912"><ele>399.0</ele><time>2026-04-18T12:55:18.988Z</time></trkpt><trkpt lat="43.3970172" lon="10.8845247"><ele>400.75</ele><time>2026-04-18T12:55:19.988Z</time></trkpt><trkpt lat="43.3969419" lon="10.8846595"><ele>402.5</ele><time>2026-04-18T12:55:20.988Z</time></trkpt><trkpt lat="43.3968641" lon="10.8847943"><ele>404.25</ele><time>2026-04-18T12:55:21.988Z</time></trkpt><trkpt lat="43.3967848" lon="10.8849294"><ele>406.0</ele><time>2026-04-18T12:55:22.988Z</time></trkpt><trkpt lat="43.3967024" lon="10.8850659"><ele>406.75</ele><time>2026-04-18T12:55:23.988Z</time></trkpt><trkpt lat="43.3966236" lon="10.885196"><ele>407.5</ele><time>2026-04-18T12:55:24.988Z</time></trkpt><trkpt lat="43.396546" lon="10.8853201"><ele>408.25</ele><time>2026-04-18T12:55:25.988Z</time></trkpt><trkpt lat="43.396466" lon="10.885445"><ele>409.0</ele><time>2026-04-18T12:55:26.988Z</time></trkpt><trkpt lat="43.3963834" lon="10.8855706"><ele>406.75</ele><time>2026-04-18T12:55:27.988Z</time></trkpt><trkpt lat="43.3963049" lon="10.8856961"><ele>404.5</ele><time>2026-04-18T12:55:28.989Z</time></trkpt><trkpt lat="43.3962264" lon="10.885814"><ele>402.25</ele><time>2026-04-18T12:55:29.988Z</time></trkpt><trkpt lat="43.3961517" lon="10.8859342"><ele>400.0</ele><time>2026-04-18T12:55:30.989Z</time></trkpt><trkpt lat="43.3960819" lon="10.8860613"><ele>400.0</ele><time>2026-04-18T12:55:31.989Z</time></trkpt><trkpt lat="43.3960147" lon="10.8861896"><ele>400.0</ele><time>2026-04-18T12:55:32.989Z</time></trkpt><trkpt lat="43.3959662" lon="10.8863317"><ele>400.0</ele><time>2026-04-18T12:55:33.988Z</time></trkpt><trkpt lat="43.3959336" lon="10.8864855"><ele>400.0</ele><time>2026-04-18T12:55:34.988Z</time></trkpt><trkpt lat="43.3959157" lon="10.886645"><ele>399.25</ele><time>2026-04-18T12:55:35.989Z</time></trkpt><trkpt lat="43.3959166" lon="10.8868025"><ele>398.5</ele><time>2026-04-18T12:55:36.988Z</time></trkpt><trkpt lat="43.3959377" lon="10.8869619"><ele>397.75</ele><time>2026-04-18T12:55:37.988Z</time></trkpt><trkpt lat="43.3959713" lon="10.8871198"><ele>397.0</ele><time>2026-04-18T12:55:38.988Z</time></trkpt><trkpt lat="43.3960086" lon="10.8872745"><ele>397.0</ele><time>2026-04-18T12:55:39.988Z</time></trkpt><trkpt lat="43.3960339" lon="10.8874171"><ele>397.0</ele><time>2026-04-18T12:55:40.988Z</time></trkpt><trkpt lat="43.396042" lon="10.8875566"><ele>397.0</ele><time>2026-04-18T12:55:41.988Z</time></trkpt><trkpt lat="43.3960174" lon="10.8876948"><ele>397.0</ele><time>2026-04-18T12:55:42.988Z</time></trkpt><trkpt lat="43.395959" lon="10.8878187"><ele>397.0</ele><time>2026-04-18T12:55:43.988Z</time></trkpt><trkpt lat="43.3958741" lon="10.8879075"><ele>395.8</ele><time>2026-04-18T12:55:44.988Z</time></trkpt><trkpt lat="43.3957846" lon="10.8879655"><ele>394.6</ele><time>2026-04-18T12:55:45.988Z</time></trkpt><trkpt lat="43.3956959" lon="10.8880418"><ele>393.40000000000003</ele><time>2026-04-18T12:55:46.988Z</time></trkpt><trkpt lat="43.3956285" lon="10.8881504"><ele>392.20000000000005</ele><time>2026-04-18T12:55:47.988Z</time></trkpt><trkpt lat="43.3955698" lon="10.8882748"><ele>391.0</ele><time>2026-04-18T12:55:48.988Z</time></trkpt><trkpt lat="43.3955131" lon="10.8884015"><ele>389.6</ele><time>2026-04-18T12:55:49.988Z</time></trkpt><trkpt lat="43.3954585" lon="10.8885315"><ele>388.20000000000005</ele><time>2026-04-18T12:55:50.988Z</time></trkpt><trkpt lat="43.3954076" lon="10.888667"><ele>386.79999999999995</ele><time>2026-04-18T12:55:51.988Z</time></trkpt><trkpt lat="43.3953538" lon="10.8887949"><ele>385.4</ele><time>2026-04-18T12:55:52.988Z</time></trkpt><trkpt lat="43.3952985" lon="10.8889228"><ele>384.0</ele><time>2026-04-18T12:55:53.988Z</time></trkpt><trkpt lat="43.3952479" lon="10.8890425"><ele>384.0</ele><time>2026-04-18T12:55:54.988Z</time></trkpt><trkpt lat="43.3952004" lon="10.889149"><ele>384.0</ele><time>2026-04-18T12:55:55.988Z</time></trkpt><trkpt lat="43.3951457" lon="10.8892353"><ele>384.0</ele><time>2026-04-18T12:55:56.988Z</time></trkpt><trkpt lat="43.3950836" lon="10.8892956"><ele>384.0</ele><time>2026-04-18T12:55:57.988Z</time></trkpt><trkpt lat="43.3950117" lon="10.8893174"><ele>384.0</ele><time>2026-04-18T12:55:58.988Z</time></trkpt><trkpt lat="43.394938" lon="10.8892925"><ele>384.0</ele><time>2026-04-18T12:55:59.988Z</time></trkpt><trkpt lat="43.3948895" lon="10.8892126"><ele>384.0</ele><time>2026-04-18T12:56:00.988Z</time></trkpt><trkpt lat="43.3948607" lon="10.8890958"><ele>384.0</ele><time>2026-04-18T12:56:01.988Z</time></trkpt><trkpt lat="43.3948558" lon="10.8889522"><ele>384.0</ele><time>2026-04-18T12:56:02.988Z</time></trkpt><trkpt lat="43.3948645" lon="10.8888076"><ele>384.0</ele><time>2026-04-18T12:56:03.988Z</time></trkpt><trkpt lat="43.3948884" lon="10.8886655"><ele>384.0</ele><time>2026-04-18T12:56:04.988Z</time></trkpt><trkpt lat="43.3949089" lon="10.8885253"><ele>383.5</ele><time>2026-04-18T12:56:05.989Z</time></trkpt><trkpt lat="43.3949077" lon="10.8883837"><ele>383.0</ele><time>2026-04-18T12:56:06.988Z</time></trkpt><trkpt lat="43.3948932" lon="10.8882566"><ele>382.5</ele><time>2026-04-18T12:56:07.988Z</time></trkpt><trkpt lat="43.3948544" lon="10.8881546"><ele>382.0</ele><time>2026-04-18T12:56:08.989Z</time></trkpt><trkpt lat="43.3947886" lon="10.8880841"><ele>381.5</ele><time>2026-04-18T12:56:09.988Z</time></trkpt><trkpt lat="43.3947139" lon="10.8880656"><ele>381.0</ele><time>2026-04-18T12:56:10.988Z</time></trkpt><trkpt lat="43.3946346" lon="10.888106"><ele>380.0</ele><time>2026-04-18T12:56:11.988Z</time></trkpt><trkpt lat="43.3945749" lon="10.8881965"><ele>379.0</ele><time>2026-04-18T12:56:12.988Z</time></trkpt><trkpt lat="43.3945303" lon="10.8883141"><ele>378.0</ele><time>2026-04-18T12:56:13.988Z</time></trkpt><trkpt lat="43.3944896" lon="10.888442"><ele>377.0</ele><time>2026-04-18T12:56:14.988Z</time></trkpt><trkpt lat="43.3944413" lon="10.8885751"><ele>376.0</ele><time>2026-04-18T12:56:15.988Z</time></trkpt><trkpt lat="43.3943744" lon="10.8886854"><ele>376.0</ele><time>2026-04-18T12:56:16.988Z</time></trkpt><trkpt lat="43.394278" lon="10.8887898"><ele>376.0</ele><time>2026-04-18T12:56:17.989Z</time></trkpt><trkpt lat="43.3941763" lon="10.8888816"><ele>376.0</ele><time>2026-04-18T12:56:18.988Z</time></trkpt><trkpt lat="43.3940727" lon="10.8889606"><ele>376.0</ele><time>2026-04-18T12:56:19.988Z</time></trkpt><trkpt lat="43.3939721" lon="10.8890381"><ele>376.0</ele><time>2026-04-18T12:56:20.988Z</time></trkpt><trkpt lat="43.3938668" lon="10.8891156"><ele>376.0</ele><time>2026-04-18T12:56:21.988Z</time></trkpt><trkpt lat="43.3937661" lon="10.8891938"><ele>376.0</ele><time>2026-04-18T12:56:22.988Z</time></trkpt><trkpt lat="43.3936744" lon="10.8892801"><ele>376.0</ele><time>2026-04-18T12:56:23.988Z</time></trkpt><trkpt lat="43.3935883" lon="10.8893914"><ele>373.25</ele><time>2026-04-18T12:56:24.988Z</time></trkpt><trkpt lat="43.3935185" lon="10.8895216"><ele>370.5</ele><time>2026-04-18T12:56:25.988Z</time></trkpt><trkpt lat="43.3934542" lon="10.8896655"><ele>367.75</ele><time>2026-04-18T12:56:26.988Z</time></trkpt><trkpt lat="43.3933915" lon="10.8898064"><ele>365.0</ele><time>2026-04-18T12:56:27.988Z</time></trkpt><trkpt lat="43.3933316" lon="10.8899496"><ele>365.0</ele><time>2026-04-18T12:56:28.988Z</time></trkpt><trkpt lat="43.3932692" lon="10.8900855"><ele>365.0</ele><time>2026-04-18T12:56:29.988Z</time></trkpt><trkpt lat="43.3932135" lon="10.890213"><ele>365.0</ele><time>2026-04-18T12:56:30.988Z</time></trkpt><trkpt lat="43.3931528" lon="10.8903452"><ele>365.0</ele><time>2026-04-18T12:56:31.988Z</time></trkpt><trkpt lat="43.393099" lon="10.8904675"><ele>365.0</ele><time>2026-04-18T12:56:32.988Z</time></trkpt><trkpt lat="43.3930624" lon="10.8905882"><ele>365.4</ele><time>2026-04-18T12:56:33.988Z</time></trkpt><trkpt lat="43.3930428" lon="10.8907114"><ele>365.8</ele><time>2026-04-18T12:56:34.988Z</time></trkpt><trkpt lat="43.3930466" lon="10.8908436"><ele>366.20000000000005</ele><time>2026-04-18T12:56:35.988Z</time></trkpt><trkpt lat="43.3930826" lon="10.8909817"><ele>366.6</ele><time>2026-04-18T12:56:36.989Z</time></trkpt><trkpt lat="43.3931347" lon="10.8911236"><ele>367.0</ele><time>2026-04-18T12:56:37.988Z</time></trkpt><trkpt lat="43.3931902" lon="10.8912628"><ele>364.20000000000005</ele><time>2026-04-18T12:56:38.988Z</time></trkpt><trkpt lat="43.3932454" lon="10.8913968"><ele>361.4</ele><time>2026-04-18T12:56:39.988Z</time></trkpt><trkpt lat="43.3933033" lon="10.8915254"><ele>358.6</ele><time>2026-04-18T12:56:40.988Z</time></trkpt><trkpt lat="43.3933687" lon="10.8916523"><ele>355.79999999999995</ele><time>2026-04-18T12:56:41.988Z</time></trkpt><trkpt lat="43.3934403" lon="10.8917706"><ele>353.0</ele><time>2026-04-18T12:56:42.988Z</time></trkpt><trkpt lat="43.3935185" lon="10.8918848"><ele>352.59999999999997</ele><time>2026-04-18T12:56:43.989Z</time></trkpt><trkpt lat="43.3935984" lon="10.8919939"><ele>352.2</ele><time>2026-04-18T12:56:44.988Z</time></trkpt><trkpt lat="43.3936744" lon="10.8921"><ele>351.8</ele><time>2026-04-18T12:56:45.988Z</time></trkpt><trkpt lat="43.3937373" lon="10.8921909"><ele>351.4</ele><time>2026-04-18T12:56:46.988Z</time></trkpt><trkpt lat="43.3937991" lon="10.8922694"><ele>351.0</ele><time>2026-04-18T12:56:47.988Z</time></trkpt><trkpt lat="43.3938563" lon="10.8923692"><ele>351.0</ele><time>2026-04-18T12:56:48.988Z</time></trkpt><trkpt lat="43.3939012" lon="10.8924918"><ele>351.0</ele><time>2026-04-18T12:56:49.988Z</time></trkpt><trkpt lat="43.3939211" lon="10.8926349"><ele>351.0</ele><time>2026-04-18T12:56:50.988Z</time></trkpt><trkpt lat="43.3939077" lon="10.8927942"><ele>351.0</ele><time>2026-04-18T12:56:51.988Z</time></trkpt><trkpt lat="43.3938656" lon="10.8929414"><ele>351.0</ele><time>2026-04-18T12:56:52.988Z</time></trkpt><trkpt lat="43.3938001" lon="10.8930879"><ele>350.25</ele><time>2026-04-18T12:56:53.988Z</time></trkpt><trkpt lat="43.3937285" lon="10.8932348"><ele>349.5</ele><time>2026-04-18T12:56:54.988Z</time></trkpt><trkpt lat="43.3936576" lon="10.8933827"><ele>348.75</ele><time>2026-04-18T12:56:55.988Z</time></trkpt><trkpt lat="43.3935793" lon="10.8935179"><ele>348.0</ele><time>2026-04-18T12:56:56.988Z</time></trkpt><trkpt lat="43.3934754" lon="10.8936406"><ele>348.0</ele><time>2026-04-18T12:56:57.988Z</time></trkpt><trkpt lat="43.3933586" lon="10.8937429"><ele>348.0</ele><time>2026-04-18T12:56:58.988Z</time></trkpt><trkpt lat="43.3932369" lon="10.8938308"><ele>348.0</ele><time>2026-04-18T12:56:59.988Z</time></trkpt><trkpt lat="43.3931176" lon="10.89392"><ele>348.0</ele><time>2026-04-18T12:57:00.988Z</time></trkpt><trkpt lat="43.3929998" lon="10.8940118"><ele>345.25</ele><time>2026-04-18T12:57:01.988Z</time></trkpt><trkpt lat="43.3928864" lon="10.8941269"><ele>342.5</ele><time>2026-04-18T12:57:02.988Z</time></trkpt><trkpt lat="43.3927808" lon="10.8942518"><ele>339.75</ele><time>2026-04-18T12:57:03.988Z</time></trkpt><trkpt lat="43.3926787" lon="10.8943654"><ele>337.0</ele><time>2026-04-18T12:57:04.988Z</time></trkpt><trkpt lat="43.3925959" lon="10.8944738"><ele>337.0</ele><time>2026-04-18T12:57:05.988Z</time></trkpt><trkpt lat="43.3925353" lon="10.8945918"><ele>337.0</ele><time>2026-04-18T12:57:06.988Z</time></trkpt><trkpt lat="43.3924968" lon="10.8947384"><ele>337.0</ele><time>2026-04-18T12:57:07.988Z</time></trkpt><trkpt lat="43.3924745" lon="10.8949059"><ele>337.0</ele><time>2026-04-18T12:57:08.988Z</time></trkpt><trkpt lat="43.3924625" lon="10.8950763"><ele>336.0</ele><time>2026-04-18T12:57:09.988Z</time></trkpt><trkpt lat="43.3924463" lon="10.8952489"><ele>335.0</ele><time>2026-04-18T12:57:10.988Z</time></trkpt><trkpt lat="43.3924249" lon="10.8954156"><ele>334.0</ele><time>2026-04-18T12:57:11.988Z</time></trkpt><trkpt lat="43.3924005" lon="10.8955837"><ele>333.0</ele><time>2026-04-18T12:57:12.988Z</time></trkpt><trkpt lat="43.3923687" lon="10.8957506"><ele>332.0</ele><time>2026-04-18T12:57:13.989Z</time></trkpt><trkpt lat="43.3923285" lon="10.8959244"><ele>331.0</ele><time>2026-04-18T12:57:14.988Z</time></trkpt><trkpt lat="43.3922799" lon="10.8961013"><ele>330.0</ele><time>2026-04-18T12:57:15.988Z</time></trkpt><trkpt lat="43.3922254" lon="10.8962722"><ele>329.0</ele><time>2026-04-18T12:57:16.988Z</time></trkpt><trkpt lat="43.3921687" lon="10.8964392"><ele>328.5</ele><time>2026-04-18T12:57:17.988Z</time></trkpt><trkpt lat="43.3921057" lon="10.8965934"><ele>328.0</ele><time>2026-04-18T12:57:18.988Z</time></trkpt><trkpt lat="43.3920286" lon="10.8967445"><ele>327.5</ele><time>2026-04-18T12:57:19.988Z</time></trkpt><trkpt lat="43.3919483" lon="10.8968908"><ele>327.0</ele><time>2026-04-18T12:57:20.988Z</time></trkpt><trkpt lat="43.3918634" lon="10.8970313"><ele>327.0</ele><time>2026-04-18T12:57:21.988Z</time></trkpt><trkpt lat="43.391775" lon="10.897176"><ele>327.0</ele><time>2026-04-18T12:57:22.988Z</time></trkpt><trkpt lat="43.3916847" lon="10.8973156"><ele>327.0</ele><time>2026-04-18T12:57:23.988Z</time></trkpt><trkpt lat="43.3915901" lon="10.8974509"><ele>327.0</ele><time>2026-04-18T12:57:24.988Z</time></trkpt><trkpt lat="43.3914961" lon="10.8975863"><ele>327.0</ele><time>2026-04-18T12:57:25.988Z</time></trkpt><trkpt lat="43.3913923" lon="10.8977237"><ele>327.0</ele><time>2026-04-18T12:57:26.988Z</time></trkpt><trkpt lat="43.391283" lon="10.8978635"><ele>327.0</ele><time>2026-04-18T12:57:27.988Z</time></trkpt><trkpt lat="43.3911755" lon="10.898006"><ele>327.0</ele><time>2026-04-18T12:57:28.988Z</time></trkpt><trkpt lat="43.3910615" lon="10.8981499"><ele>328.3333333333333</ele><time>2026-04-18T12:57:29.988Z</time></trkpt><trkpt lat="43.3909331" lon="10.8982911"><ele>329.66666666666663</ele><time>2026-04-18T12:57:30.988Z</time></trkpt><trkpt lat="43.3908036" lon="10.8984173"><ele>331.0</ele><time>2026-04-18T12:57:31.988Z</time></trkpt><trkpt lat="43.3906784" lon="10.8985428"><ele>332.66666666666663</ele><time>2026-04-18T12:57:32.989Z</time></trkpt><trkpt lat="43.3905606" lon="10.89868"><ele>334.3333333333333</ele><time>2026-04-18T12:57:33.988Z</time></trkpt><trkpt lat="43.3904516" lon="10.8988199"><ele>336.0</ele><time>2026-04-18T12:57:34.988Z</time></trkpt><trkpt lat="43.390351" lon="10.8989707"><ele>336.75</ele><time>2026-04-18T12:57:35.988Z</time></trkpt><trkpt lat="43.3902607" lon="10.8991237"><ele>337.5</ele><time>2026-04-18T12:57:36.988Z</time></trkpt><trkpt lat="43.3901717" lon="10.899274"><ele>338.25</ele><time>2026-04-18T12:57:37.988Z</time></trkpt><trkpt lat="43.3900845" lon="10.8994203"><ele>339.0</ele><time>2026-04-18T12:57:38.988Z</time></trkpt><trkpt lat="43.389994" lon="10.8995713"><ele>339.0</ele><time>2026-04-18T12:57:39.988Z</time></trkpt><trkpt lat="43.3898947" lon="10.8997173"><ele>339.0</ele><time>2026-04-18T12:57:40.988Z</time></trkpt><trkpt lat="43.3897977" lon="10.8998611"><ele>339.0</ele><time>2026-04-18T12:57:41.988Z</time></trkpt><trkpt lat="43.3897005" lon="10.8999972"><ele>339.0</ele><time>2026-04-18T12:57:42.988Z</time></trkpt><trkpt lat="43.389601" lon="10.9001345"><ele>340.0</ele><time>2026-04-18T12:57:43.988Z</time></trkpt><trkpt lat="43.3895055" lon="10.900262"><ele>341.0</ele><time>2026-04-18T12:57:44.988Z</time></trkpt><trkpt lat="43.3894119" lon="10.9003916"><ele>342.0</ele><time>2026-04-18T12:57:45.988Z</time></trkpt><trkpt lat="43.3893133" lon="10.9005315"><ele>343.0</ele><time>2026-04-18T12:57:46.988Z</time></trkpt><trkpt lat="43.3892106" lon="10.9006713"><ele>343.0</ele><time>2026-04-18T12:57:47.988Z</time></trkpt><trkpt lat="43.3891094" lon="10.9008048"><ele>343.0</ele><time>2026-04-18T12:57:48.988Z</time></trkpt><trkpt lat="43.3890021" lon="10.9009435"><ele>343.0</ele><time>2026-04-18T12:57:49.988Z</time></trkpt><trkpt lat="43.3888997" lon="10.9010854"><ele>343.0</ele><time>2026-04-18T12:57:50.988Z</time></trkpt><trkpt lat="43.3888035" lon="10.9012275"><ele>344.5</ele><time>2026-04-18T12:57:51.988Z</time></trkpt><trkpt lat="43.3887099" lon="10.9013737"><ele>346.0</ele><time>2026-04-18T12:57:52.988Z</time></trkpt><trkpt lat="43.3886153" lon="10.9015168"><ele>347.5</ele><time>2026-04-18T12:57:53.988Z</time></trkpt><trkpt lat="43.3885218" lon="10.9016627"><ele>349.0</ele><time>2026-04-18T12:57:54.988Z</time></trkpt><trkpt lat="43.3884234" lon="10.9018117"><ele>349.0</ele><time>2026-04-18T12:57:55.988Z</time></trkpt><trkpt lat="43.3883159" lon="10.9019486"><ele>349.0</ele><time>2026-04-18T12:57:56.988Z</time></trkpt><trkpt lat="43.3881957" lon="10.9020845"><ele>349.0</ele><time>2026-04-18T12:57:57.988Z</time></trkpt><trkpt lat="43.3880805" lon="10.902211"><ele>349.0</ele><time>2026-04-18T12:57:58.988Z</time></trkpt><trkpt lat="43.3879677" lon="10.902326"><ele>350.75</ele><time>2026-04-18T12:57:59.988Z</time></trkpt><trkpt lat="43.3878613" lon="10.9024339"><ele>352.5</ele><time>2026-04-18T12:58:00.988Z</time></trkpt><trkpt lat="43.3877588" lon="10.9025414"><ele>354.25</ele><time>2026-04-18T12:58:01.989Z</time></trkpt><trkpt lat="43.3876585" lon="10.9026409"><ele>356.0</ele><time>2026-04-18T12:58:02.988Z</time></trkpt><trkpt lat="43.3875483" lon="10.9027292"><ele>356.0</ele><time>2026-04-18T12:58:03.988Z</time></trkpt><trkpt lat="43.387428" lon="10.9028084"><ele>356.0</ele><time>2026-04-18T12:58:04.988Z</time></trkpt><trkpt lat="43.3872987" lon="10.9028689"><ele>356.0</ele><time>2026-04-18T12:58:05.988Z</time></trkpt><trkpt lat="43.3871727" lon="10.9029241"><ele>356.0</ele><time>2026-04-18T12:58:06.988Z</time></trkpt><trkpt lat="43.3870547" lon="10.9029742"><ele>357.8</ele><time>2026-04-18T12:58:07.989Z</time></trkpt><trkpt lat="43.3869419" lon="10.9030147"><ele>359.6</ele><time>2026-04-18T12:58:08.988Z</time></trkpt><trkpt lat="43.3868361" lon="10.9030306"><ele>361.4</ele><time>2026-04-18T12:58:09.988Z</time></trkpt><trkpt lat="43.3867381" lon="10.9030262"><ele>363.2</ele><time>2026-04-18T12:58:10.988Z</time></trkpt><trkpt lat="43.3866441" lon="10.9030295"><ele>365.0</ele><time>2026-04-18T12:58:11.988Z</time></trkpt><trkpt lat="43.3865508" lon="10.9030711"><ele>365.0</ele><time>2026-04-18T12:58:12.988Z</time></trkpt><trkpt lat="43.3864747" lon="10.9031533"><ele>365.0</ele><time>2026-04-18T12:58:13.988Z</time></trkpt><trkpt lat="43.3864286" lon="10.9032655"><ele>365.0</ele><time>2026-04-18T12:58:14.988Z</time></trkpt><trkpt lat="43.3864153" lon="10.9034025"><ele>365.0</ele><time>2026-04-18T12:58:15.988Z</time></trkpt><trkpt lat="43.3864251" lon="10.903555"><ele>365.0</ele><time>2026-04-18T12:58:16.988Z</time></trkpt><trkpt lat="43.3864433" lon="10.9037383"><ele>365.5</ele><time>2026-04-18T12:58:17.988Z</time></trkpt><trkpt lat="43.3864586" lon="10.9039266"><ele>366.0</ele><time>2026-04-18T12:58:18.988Z</time></trkpt><trkpt lat="43.3864713" lon="10.9041067"><ele>366.5</ele><time>2026-04-18T12:58:19.988Z</time></trkpt><trkpt lat="43.3864781" lon="10.9042714"><ele>367.0</ele><time>2026-04-18T12:58:20.988Z</time></trkpt><trkpt lat="43.3864622" lon="10.9044297"><ele>367.8</ele><time>2026-04-18T12:58:21.988Z</time></trkpt><trkpt lat="43.3864206" lon="10.9045672"><ele>368.6</ele><time>2026-04-18T12:58:22.988Z</time></trkpt><trkpt lat="43.3863474" lon="10.9046905"><ele>369.40000000000003</ele><time>2026-04-18T12:58:23.988Z</time></trkpt><trkpt lat="43.3862624" lon="10.9047926"><ele>370.20000000000005</ele><time>2026-04-18T12:58:24.988Z</time></trkpt><trkpt lat="43.3861889" lon="10.9049065"><ele>371.0</ele><time>2026-04-18T12:58:25.988Z</time></trkpt><trkpt lat="43.3861424" lon="10.9050503"><ele>374.25</ele><time>2026-04-18T12:58:26.988Z</time></trkpt><trkpt lat="43.3861228" lon="10.9052144"><ele>377.5</ele><time>2026-04-18T12:58:27.988Z</time></trkpt><trkpt lat="43.3861322" lon="10.9053957"><ele>380.75</ele><time>2026-04-18T12:58:28.988Z</time></trkpt><trkpt lat="43.3861542" lon="10.9055824"><ele>384.0</ele><time>2026-04-18T12:58:29.988Z</time></trkpt><trkpt lat="43.3861756" lon="10.9057615"><ele>385.2</ele><time>2026-04-18T12:58:30.988Z</time></trkpt><trkpt lat="43.3861873" lon="10.9059328"><ele>386.4</ele><time>2026-04-18T12:58:31.988Z</time></trkpt><trkpt lat="43.3861885" lon="10.9060942"><ele>387.6</ele><time>2026-04-18T12:58:32.988Z</time></trkpt><trkpt lat="43.3861838" lon="10.9062425"><ele>388.8</ele><time>2026-04-18T12:58:33.988Z</time></trkpt><trkpt lat="43.3861719" lon="10.9063675"><ele>390.0</ele><time>2026-04-18T12:58:34.988Z</time></trkpt><trkpt lat="43.3861462" lon="10.9064582"><ele>390.0</ele><time>2026-04-18T12:58:35.988Z</time></trkpt><trkpt lat="43.3860996" lon="10.9065301"><ele>390.0</ele><time>2026-04-18T12:58:36.988Z</time></trkpt><trkpt lat="43.3860415" lon="10.9065665"><ele>390.0</ele><time>2026-04-18T12:58:37.988Z</time></trkpt><trkpt lat="43.3859727" lon="10.9065917"><ele>390.0</ele><time>2026-04-18T12:58:38.988Z</time></trkpt><trkpt lat="43.3859034" lon="10.9066073"><ele>390.0</ele><time>2026-04-18T12:58:39.989Z</time></trkpt><trkpt lat="43.3857949" lon="10.9065971"><ele>390.0</ele><time>2026-04-18T12:58:41.988Z</time></trkpt><trkpt lat="43.3857398" lon="10.9065506"><ele>390.0</ele><time>2026-04-18T12:58:44.988Z</time></trkpt><trkpt lat="43.3856754" lon="10.9065191"><ele>390.0</ele><time>2026-04-18T13:05:47.988Z</time></trkpt><trkpt lat="43.3856688" lon="10.9066119"><ele>390.0</ele><time>2026-04-18T13:05:50.988Z</time></trkpt><trkpt lat="43.385743" lon="10.9066611"><ele>390.0</ele><time>2026-04-18T13:05:53.988Z</time></trkpt><trkpt lat="43.3857152" lon="10.9065719"><ele>390.0</ele><time>2026-04-18T13:05:58.988Z</time></trkpt><trkpt lat="43.3856155" lon="10.9064975"><ele>390.0</ele><time>2026-04-18T13:06:00.988Z</time></trkpt><trkpt lat="43.3855335" lon="10.9063573"><ele>391.1666666666667</ele><time>2026-04-18T13:06:02.988Z</time></trkpt><trkpt lat="43.3854898" lon="10.9062743"><ele>392.33333333333337</ele><time>2026-04-18T13:06:03.988Z</time></trkpt><trkpt lat="43.3854478" lon="10.9061781"><ele>393.5</ele><time>2026-04-18T13:06:04.988Z</time></trkpt><trkpt lat="43.3854079" lon="10.906083"><ele>394.6666666666667</ele><time>2026-04-18T13:06:05.988Z</time></trkpt><trkpt lat="43.3853635" lon="10.9059962"><ele>395.83333333333337</ele><time>2026-04-18T13:06:06.988Z</time></trkpt><trkpt lat="43.3853137" lon="10.9059197"><ele>397.0</ele><time>2026-04-18T13:06:07.988Z</time></trkpt><trkpt lat="43.3852591" lon="10.9058458"><ele>397.0</ele><time>2026-04-18T13:06:08.988Z</time></trkpt><trkpt lat="43.3851843" lon="10.9057782"><ele>397.0</ele><time>2026-04-18T13:06:09.988Z</time></trkpt><trkpt lat="43.3850869" lon="10.9057092"><ele>397.0</ele><time>2026-04-18T13:06:10.988Z</time></trkpt><trkpt lat="43.384998" lon="10.9056449"><ele>397.0</ele><time>2026-04-18T13:06:11.988Z</time></trkpt><trkpt lat="43.3849139" lon="10.9055782"><ele>397.0</ele><time>2026-04-18T13:06:12.989Z</time></trkpt><trkpt lat="43.384842" lon="10.9055048"><ele>397.0</ele><time>2026-04-18T13:06:13.988Z</time></trkpt><trkpt lat="43.3847715" lon="10.9054012"><ele>397.0</ele><time>2026-04-18T13:06:14.988Z</time></trkpt><trkpt lat="43.3847126" lon="10.9052984"><ele>397.0</ele><time>2026-04-18T13:06:15.988Z</time></trkpt><trkpt lat="43.3846528" lon="10.905193"><ele>397.0</ele><time>2026-04-18T13:06:16.988Z</time></trkpt><trkpt lat="43.3846019" lon="10.9050903"><ele>397.0</ele><time>2026-04-18T13:06:17.988Z</time></trkpt><trkpt lat="43.384546" lon="10.9050148"><ele>397.83333333333337</ele><time>2026-04-18T13:06:18.988Z</time></trkpt><trkpt lat="43.3844789" lon="10.904954"><ele>398.6666666666667</ele><time>2026-04-18T13:06:19.988Z</time></trkpt><trkpt lat="43.3844057" lon="10.904928"><ele>399.5</ele><time>2026-04-18T13:06:20.988Z</time></trkpt><trkpt lat="43.3843139" lon="10.9049181"><ele>400.33333333333337</ele><time>2026-04-18T13:06:21.988Z</time></trkpt><trkpt lat="43.3842284" lon="10.9049253"><ele>401.1666666666667</ele><time>2026-04-18T13:06:22.988Z</time></trkpt><trkpt lat="43.3841399" lon="10.9049677"><ele>402.0</ele><time>2026-04-18T13:06:23.988Z</time></trkpt><trkpt lat="43.3840393" lon="10.9050303"><ele>404.25</ele><time>2026-04-18T13:06:24.988Z</time></trkpt><trkpt lat="43.3839429" lon="10.9051057"><ele>406.5</ele><time>2026-04-18T13:06:25.988Z</time></trkpt><trkpt lat="43.3838404" lon="10.9051809"><ele>408.75</ele><time>2026-04-18T13:06:26.988Z</time></trkpt><trkpt lat="43.3837354" lon="10.905243"><ele>411.0</ele><time>2026-04-18T13:06:27.988Z</time></trkpt><trkpt lat="43.3836266" lon="10.9053097"><ele>413.75</ele><time>2026-04-18T13:06:28.988Z</time></trkpt><trkpt lat="43.3835262" lon="10.9053754"><ele>416.5</ele><time>2026-04-18T13:06:29.988Z</time></trkpt><trkpt lat="43.3834112" lon="10.9054315"><ele>419.25</ele><time>2026-04-18T13:06:30.988Z</time></trkpt><trkpt lat="43.383295" lon="10.9054746"><ele>422.0</ele><time>2026-04-18T13:06:31.988Z</time></trkpt><trkpt lat="43.3831843" lon="10.905518"><ele>422.0</ele><time>2026-04-18T13:06:32.988Z</time></trkpt><trkpt lat="43.3830871" lon="10.9055693"><ele>422.0</ele><time>2026-04-18T13:06:33.988Z</time></trkpt><trkpt lat="43.382984" lon="10.9056124"><ele>422.0</ele><time>2026-04-18T13:06:34.988Z</time></trkpt><trkpt lat="43.3828797" lon="10.9056564"><ele>422.0</ele><time>2026-04-18T13:06:35.988Z</time></trkpt><trkpt lat="43.3827767" lon="10.9056796"><ele>422.0</ele><time>2026-04-18T13:06:36.988Z</time></trkpt><trkpt lat="43.3826846" lon="10.9056974"><ele>421.6</ele><time>2026-04-18T13:06:37.988Z</time></trkpt><trkpt lat="43.3825957" lon="10.9057137"><ele>421.20000000000005</ele><time>2026-04-18T13:06:38.988Z</time></trkpt><trkpt lat="43.3825013" lon="10.9057537"><ele>420.8</ele><time>2026-04-18T13:06:39.988Z</time></trkpt><trkpt lat="43.3824078" lon="10.905797"><ele>420.4</ele><time>2026-04-18T13:06:40.988Z</time></trkpt><trkpt lat="43.3823301" lon="10.9058651"><ele>420.0</ele><time>2026-04-18T13:06:41.988Z</time></trkpt><trkpt lat="43.3822649" lon="10.9059381"><ele>422.0</ele><time>2026-04-18T13:06:42.988Z</time></trkpt><trkpt lat="43.3821934" lon="10.9060124"><ele>424.0</ele><time>2026-04-18T13:06:43.988Z</time></trkpt><trkpt lat="43.3821443" lon="10.9061063"><ele>426.0</ele><time>2026-04-18T13:06:44.988Z</time></trkpt><trkpt lat="43.3821042" lon="10.9062119"><ele>428.0</ele><time>2026-04-18T13:06:45.988Z</time></trkpt><trkpt lat="43.3820888" lon="10.9063413"><ele>430.0</ele><time>2026-04-18T13:06:46.988Z</time></trkpt><trkpt lat="43.3820789" lon="10.9064832"><ele>426.5</ele><time>2026-04-18T13:06:47.989Z</time></trkpt><trkpt lat="43.3820746" lon="10.9066334"><ele>423.0</ele><time>2026-04-18T13:06:48.988Z</time></trkpt><trkpt lat="43.3820659" lon="10.9067958"><ele>419.5</ele><time>2026-04-18T13:06:49.988Z</time></trkpt><trkpt lat="43.3820479" lon="10.9069515"><ele>416.0</ele><time>2026-04-18T13:06:50.988Z</time></trkpt><trkpt lat="43.382015" lon="10.9070926"><ele>416.0</ele><time>2026-04-18T13:06:51.988Z</time></trkpt><trkpt lat="43.3819714" lon="10.9072353"><ele>416.0</ele><time>2026-04-18T13:06:52.988Z</time></trkpt><trkpt lat="43.381921" lon="10.9073637"><ele>416.0</ele><time>2026-04-18T13:06:53.988Z</time></trkpt><trkpt lat="43.3818621" lon="10.9074845"><ele>416.0</ele><time>2026-04-18T13:06:54.988Z</time></trkpt><trkpt lat="43.3818077" lon="10.9075957"><ele>416.0</ele><time>2026-04-18T13:06:55.988Z</time></trkpt><trkpt lat="43.3817419" lon="10.9077123"><ele>414.6</ele><time>2026-04-18T13:06:56.988Z</time></trkpt><trkpt lat="43.3816589" lon="10.9078136"><ele>413.20000000000005</ele><time>2026-04-18T13:06:57.988Z</time></trkpt><trkpt lat="43.3815747" lon="10.9079043"><ele>411.79999999999995</ele><time>2026-04-18T13:06:58.988Z</time></trkpt><trkpt lat="43.3814758" lon="10.9079785"><ele>410.4</ele><time>2026-04-18T13:06:59.988Z</time></trkpt><trkpt lat="43.3813717" lon="10.9080358"><ele>409.0</ele><time>2026-04-18T13:07:00.988Z</time></trkpt><trkpt lat="43.3812709" lon="10.9080742"><ele>409.0</ele><time>2026-04-18T13:07:01.988Z</time></trkpt><trkpt lat="43.3811753" lon="10.9081309"><ele>409.0</ele><time>2026-04-18T13:07:02.988Z</time></trkpt><trkpt lat="43.3810914" lon="10.9082134"><ele>409.0</ele><time>2026-04-18T13:07:03.989Z</time></trkpt><trkpt lat="43.3810112" lon="10.9083023"><ele>409.0</ele><time>2026-04-18T13:07:04.989Z</time></trkpt><trkpt lat="43.3809446" lon="10.9083928"><ele>409.0</ele><time>2026-04-18T13:07:05.989Z</time></trkpt><trkpt lat="43.3809177" lon="10.9085023"><ele>409.0</ele><time>2026-04-18T13:07:06.988Z</time></trkpt><trkpt lat="43.3808929" lon="10.9086293"><ele>409.0</ele><time>2026-04-18T13:07:07.988Z</time></trkpt><trkpt lat="43.3808892" lon="10.9087695"><ele>409.0</ele><time>2026-04-18T13:07:08.988Z</time></trkpt><trkpt lat="43.3808844" lon="10.9089093"><ele>409.0</ele><time>2026-04-18T13:07:09.988Z</time></trkpt><trkpt lat="43.3808529" lon="10.9090542"><ele>409.0</ele><time>2026-04-18T13:07:10.988Z</time></trkpt><trkpt lat="43.380805" lon="10.9091861"><ele>407.6</ele><time>2026-04-18T13:07:11.988Z</time></trkpt><trkpt lat="43.3807498" lon="10.9093146"><ele>406.2</ele><time>2026-04-18T13:07:12.988Z</time></trkpt><trkpt lat="43.3806932" lon="10.9094306"><ele>404.8</ele><time>2026-04-18T13:07:13.988Z</time></trkpt><trkpt lat="43.3806563" lon="10.9095422"><ele>403.40000000000003</ele><time>2026-04-18T13:07:14.988Z</time></trkpt><trkpt lat="43.3806443" lon="10.9096472"><ele>402.0</ele><time>2026-04-18T13:07:15.988Z</time></trkpt><trkpt lat="43.3806488" lon="10.909748"><ele>402.0</ele><time>2026-04-18T13:07:16.988Z</time></trkpt><trkpt lat="43.3806829" lon="10.9098382"><ele>402.0</ele><time>2026-04-18T13:07:17.988Z</time></trkpt><trkpt lat="43.3807284" lon="10.9099196"><ele>402.0</ele><time>2026-04-18T13:07:18.988Z</time></trkpt><trkpt lat="43.380765" lon="10.9099956"><ele>402.0</ele><time>2026-04-18T13:07:19.988Z</time></trkpt><trkpt lat="43.3807702" lon="10.9101549"><ele>402.0</ele><time>2026-04-18T13:07:21.988Z</time></trkpt><trkpt lat="43.3807316" lon="10.9102332"><ele>402.0</ele><time>2026-04-18T13:07:22.988Z</time></trkpt><trkpt lat="43.3806697" lon="10.9102913"><ele>399.0</ele><time>2026-04-18T13:07:23.988Z</time></trkpt><trkpt lat="43.3805988" lon="10.9103172"><ele>396.0</ele><time>2026-04-18T13:07:24.988Z</time></trkpt><trkpt lat="43.3805368" lon="10.9103334"><ele>393.0</ele><time>2026-04-18T13:07:25.988Z</time></trkpt><trkpt lat="43.3804292" lon="10.9102863"><ele>390.0</ele><time>2026-04-18T13:07:27.988Z</time></trkpt><trkpt lat="43.3803766" lon="10.9101443"><ele>387.0</ele><time>2026-04-18T13:07:29.989Z</time></trkpt><trkpt lat="43.380333" lon="10.9100374"><ele>385.8</ele><time>2026-04-18T13:07:31.988Z</time></trkpt><trkpt lat="43.3802541" lon="10.9100167"><ele>384.6</ele><time>2026-04-18T13:07:33.988Z</time></trkpt><trkpt lat="43.380191" lon="10.9100862"><ele>383.40000000000003</ele><time>2026-04-18T13:07:35.988Z</time></trkpt><trkpt lat="43.3801785" lon="10.9102218"><ele>382.20000000000005</ele><time>2026-04-18T13:07:37.988Z</time></trkpt><trkpt lat="43.3801809" lon="10.9103113"><ele>381.0</ele><time>2026-04-18T13:07:38.988Z</time></trkpt><trkpt lat="43.3801849" lon="10.910491"><ele>380.1666666666667</ele><time>2026-04-18T13:07:40.988Z</time></trkpt><trkpt lat="43.380174" lon="10.9106512"><ele>379.3333333333333</ele><time>2026-04-18T13:07:42.988Z</time></trkpt><trkpt lat="43.3801306" lon="10.9107145"><ele>378.5</ele><time>2026-04-18T13:07:43.988Z</time></trkpt><trkpt lat="43.380068" lon="10.9107519"><ele>377.66666666666663</ele><time>2026-04-18T13:07:44.988Z</time></trkpt><trkpt lat="43.3799945" lon="10.9107703"><ele>376.8333333333333</ele><time>2026-04-18T13:07:45.988Z</time></trkpt><trkpt lat="43.3799214" lon="10.9107619"><ele>376.0</ele><time>2026-04-18T13:07:46.988Z</time></trkpt><trkpt lat="43.3798477" lon="10.9107284"><ele>376.0</ele><time>2026-04-18T13:07:47.988Z</time></trkpt><trkpt lat="43.3797942" lon="10.9106609"><ele>376.0</ele><time>2026-04-18T13:07:48.988Z</time></trkpt><trkpt lat="43.3797606" lon="10.9105705"><ele>376.0</ele><time>2026-04-18T13:07:49.988Z</time></trkpt><trkpt lat="43.379757" lon="10.9104716"><ele>376.0</ele><time>2026-04-18T13:07:50.988Z</time></trkpt><trkpt lat="43.3797558" lon="10.9103683"><ele>376.0</ele><time>2026-04-18T13:07:51.988Z</time></trkpt><trkpt lat="43.3797535" lon="10.9102704"><ele>376.0</ele><time>2026-04-18T13:07:52.988Z</time></trkpt><trkpt lat="43.3797382" lon="10.9101846"><ele>376.0</ele><time>2026-04-18T13:07:53.988Z</time></trkpt><trkpt lat="43.3797013" lon="10.9101108"><ele>373.85714285714283</ele><time>2026-04-18T13:07:54.988Z</time></trkpt><trkpt lat="43.3796406" lon="10.9100642"><ele>371.71428571428567</ele><time>2026-04-18T13:07:55.988Z</time></trkpt><trkpt lat="43.379563" lon="10.9100575"><ele>369.57142857142856</ele><time>2026-04-18T13:07:56.988Z</time></trkpt><trkpt lat="43.3794855" lon="10.9100658"><ele>367.42857142857144</ele><time>2026-04-18T13:07:57.988Z</time></trkpt><trkpt lat="43.3794164" lon="10.9101084"><ele>365.2857142857143</ele><time>2026-04-18T13:07:58.988Z</time></trkpt><trkpt lat="43.3793554" lon="10.9101705"><ele>363.14285714285717</ele><time>2026-04-18T13:07:59.988Z</time></trkpt><trkpt lat="43.3793129" lon="10.9102461"><ele>361.0</ele><time>2026-04-18T13:08:00.988Z</time></trkpt><trkpt lat="43.3792736" lon="10.9103489"><ele>361.0</ele><time>2026-04-18T13:08:01.988Z</time></trkpt><trkpt lat="43.3792543" lon="10.9104556"><ele>361.0</ele><time>2026-04-18T13:08:02.988Z</time></trkpt><trkpt lat="43.3792453" lon="10.9105664"><ele>361.0</ele><time>2026-04-18T13:08:03.988Z</time></trkpt><trkpt lat="43.379246" lon="10.9106775"><ele>361.0</ele><time>2026-04-18T13:08:04.988Z</time></trkpt><trkpt lat="43.3792449" lon="10.9107865"><ele>361.0</ele><time>2026-04-18T13:08:05.988Z</time></trkpt><trkpt lat="43.3792672" lon="10.9108872"><ele>361.0</ele><time>2026-04-18T13:08:06.988Z</time></trkpt><trkpt lat="43.3792953" lon="10.9109859"><ele>360.16666666666663</ele><time>2026-04-18T13:08:07.988Z</time></trkpt><trkpt lat="43.3793282" lon="10.9110822"><ele>359.3333333333333</ele><time>2026-04-18T13:08:08.988Z</time></trkpt><trkpt lat="43.3793602" lon="10.9111704"><ele>358.5</ele><time>2026-04-18T13:08:09.988Z</time></trkpt><trkpt lat="43.3793958" lon="10.9112656"><ele>357.6666666666667</ele><time>2026-04-18T13:08:10.988Z</time></trkpt><trkpt lat="43.3794204" lon="10.9113527"><ele>356.83333333333337</ele><time>2026-04-18T13:08:11.988Z</time></trkpt><trkpt lat="43.3794334" lon="10.9114384"><ele>356.0</ele><time>2026-04-18T13:08:12.988Z</time></trkpt><trkpt lat="43.37942" lon="10.9116098"><ele>356.0</ele><time>2026-04-18T13:08:14.988Z</time></trkpt><trkpt lat="43.3793923" lon="10.9116945"><ele>356.0</ele><time>2026-04-18T13:08:15.988Z</time></trkpt><trkpt lat="43.3793302" lon="10.9117646"><ele>356.0</ele><time>2026-04-18T13:08:16.988Z</time></trkpt><trkpt lat="43.3792567" lon="10.9118171"><ele>356.0</ele><time>2026-04-18T13:08:17.989Z</time></trkpt><trkpt lat="43.3791752" lon="10.9118515"><ele>356.0</ele><time>2026-04-18T13:08:18.988Z</time></trkpt><trkpt lat="43.379089" lon="10.9118811"><ele>356.0</ele><time>2026-04-18T13:08:19.988Z</time></trkpt><trkpt lat="43.3790001" lon="10.9119082"><ele>354.5</ele><time>2026-04-18T13:08:20.988Z</time></trkpt><trkpt lat="43.3789125" lon="10.9119353"><ele>353.0</ele><time>2026-04-18T13:08:21.988Z</time></trkpt><trkpt lat="43.3788278" lon="10.9119643"><ele>351.5</ele><time>2026-04-18T13:08:22.988Z</time></trkpt><trkpt lat="43.3787346" lon="10.9119924"><ele>350.0</ele><time>2026-04-18T13:08:23.989Z</time></trkpt><trkpt lat="43.3786544" lon="10.9120182"><ele>348.5</ele><time>2026-04-18T13:08:24.988Z</time></trkpt><trkpt lat="43.3785717" lon="10.9120662"><ele>347.0</ele><time>2026-04-18T13:08:25.988Z</time></trkpt><trkpt lat="43.3784913" lon="10.9121298"><ele>346.0</ele><time>2026-04-18T13:08:26.988Z</time></trkpt><trkpt lat="43.3784148" lon="10.9122082"><ele>345.0</ele><time>2026-04-18T13:08:27.988Z</time></trkpt><trkpt lat="43.3783366" lon="10.9123038"><ele>344.0</ele><time>2026-04-18T13:08:28.988Z</time></trkpt><trkpt lat="43.3782514" lon="10.9124014"><ele>343.0</ele><time>2026-04-18T13:08:29.988Z</time></trkpt><trkpt lat="43.3781632" lon="10.9125046"><ele>342.0</ele><time>2026-04-18T13:08:30.988Z</time></trkpt><trkpt lat="43.3780751" lon="10.9126086"><ele>338.75</ele><time>2026-04-18T13:08:31.988Z</time></trkpt><trkpt lat="43.3779894" lon="10.9127065"><ele>335.5</ele><time>2026-04-18T13:08:32.988Z</time></trkpt><trkpt lat="43.377881" lon="10.912786"><ele>332.25</ele><time>2026-04-18T13:08:33.988Z</time></trkpt><trkpt lat="43.3777717" lon="10.9128407"><ele>329.0</ele><time>2026-04-18T13:08:34.988Z</time></trkpt><trkpt lat="43.3776594" lon="10.9128711"><ele>329.0</ele><time>2026-04-18T13:08:35.988Z</time></trkpt><trkpt lat="43.377553" lon="10.9128868"><ele>329.0</ele><time>2026-04-18T13:08:36.988Z</time></trkpt><trkpt lat="43.3774448" lon="10.9128954"><ele>329.0</ele><time>2026-04-18T13:08:37.989Z</time></trkpt><trkpt lat="43.3773481" lon="10.9128903"><ele>329.0</ele><time>2026-04-18T13:08:38.988Z</time></trkpt><trkpt lat="43.3772499" lon="10.9128689"><ele>329.0</ele><time>2026-04-18T13:08:39.988Z</time></trkpt><trkpt lat="43.3771566" lon="10.9128276"><ele>329.0</ele><time>2026-04-18T13:08:40.988Z</time></trkpt><trkpt lat="43.3770707" lon="10.9127728"><ele>329.0</ele><time>2026-04-18T13:08:41.988Z</time></trkpt><trkpt lat="43.3769947" lon="10.9126946"><ele>329.0</ele><time>2026-04-18T13:08:42.988Z</time></trkpt><trkpt lat="43.3769156" lon="10.9126095"><ele>329.0</ele><time>2026-04-18T13:08:43.988Z</time></trkpt><trkpt lat="43.3768391" lon="10.9125313"><ele>329.0</ele><time>2026-04-18T13:08:44.989Z</time></trkpt><trkpt lat="43.3767641" lon="10.9124615"><ele>329.6</ele><time>2026-04-18T13:08:45.988Z</time></trkpt><trkpt lat="43.3766697" lon="10.9124045"><ele>330.2</ele><time>2026-04-18T13:08:46.988Z</time></trkpt><trkpt lat="43.3765747" lon="10.91235"><ele>330.8</ele><time>2026-04-18T13:08:47.988Z</time></trkpt><trkpt lat="43.3764913" lon="10.9122987"><ele>331.40000000000003</ele><time>2026-04-18T13:08:48.988Z</time></trkpt><trkpt lat="43.3763892" lon="10.9122495"><ele>332.0</ele><time>2026-04-18T13:08:49.988Z</time></trkpt><trkpt lat="43.3763046" lon="10.9121847"><ele>332.8</ele><time>2026-04-18T13:08:50.988Z</time></trkpt><trkpt lat="43.3762182" lon="10.9121164"><ele>333.6</ele><time>2026-04-18T13:08:51.988Z</time></trkpt><trkpt lat="43.3761355" lon="10.9120446"><ele>334.40000000000003</ele><time>2026-04-18T13:08:52.988Z</time></trkpt><trkpt lat="43.3760646" lon="10.9119647"><ele>335.20000000000005</ele><time>2026-04-18T13:08:53.988Z</time></trkpt><trkpt lat="43.3759823" lon="10.9118872"><ele>336.0</ele><time>2026-04-18T13:08:54.988Z</time></trkpt><trkpt lat="43.3759132" lon="10.9117938"><ele>334.0</ele><time>2026-04-18T13:08:55.988Z</time></trkpt><trkpt lat="43.375853" lon="10.9117021"><ele>332.0</ele><time>2026-04-18T13:08:56.988Z</time></trkpt><trkpt lat="43.3757778" lon="10.9116271"><ele>330.0</ele><time>2026-04-18T13:08:57.988Z</time></trkpt><trkpt lat="43.3757108" lon="10.9115382"><ele>328.0</ele><time>2026-04-18T13:08:58.988Z</time></trkpt><trkpt lat="43.3756365" lon="10.9114469"><ele>326.0</ele><time>2026-04-18T13:08:59.988Z</time></trkpt><trkpt lat="43.3755721" lon="10.9113493"><ele>327.0</ele><time>2026-04-18T13:09:00.988Z</time></trkpt><trkpt lat="43.3755084" lon="10.9112483"><ele>328.0</ele><time>2026-04-18T13:09:01.989Z</time></trkpt><trkpt lat="43.3754457" lon="10.9111475"><ele>329.0</ele><time>2026-04-18T13:09:02.989Z</time></trkpt><trkpt lat="43.3753798" lon="10.9110531"><ele>330.0</ele><time>2026-04-18T13:09:03.988Z</time></trkpt><trkpt lat="43.3753041" lon="10.9109792"><ele>331.0</ele><time>2026-04-18T13:09:04.988Z</time></trkpt><trkpt lat="43.3752185" lon="10.9109063"><ele>328.2</ele><time>2026-04-18T13:09:05.988Z</time></trkpt><trkpt lat="43.375143" lon="10.910824"><ele>325.40000000000003</ele><time>2026-04-18T13:09:06.988Z</time></trkpt><trkpt lat="43.3750721" lon="10.9107116"><ele>322.6</ele><time>2026-04-18T13:09:07.988Z</time></trkpt><trkpt lat="43.3750151" lon="10.9105989"><ele>319.8</ele><time>2026-04-18T13:09:08.988Z</time></trkpt><trkpt lat="43.3749647" lon="10.910485"><ele>317.0</ele><time>2026-04-18T13:09:09.988Z</time></trkpt><trkpt lat="43.3749197" lon="10.9103598"><ele>317.0</ele><time>2026-04-18T13:09:10.988Z</time></trkpt><trkpt lat="43.3748777" lon="10.9102357"><ele>317.0</ele><time>2026-04-18T13:09:11.988Z</time></trkpt><trkpt lat="43.3748317" lon="10.9101077"><ele>317.0</ele><time>2026-04-18T13:09:12.988Z</time></trkpt><trkpt lat="43.3747869" lon="10.9099802"><ele>317.0</ele><time>2026-04-18T13:09:13.988Z</time></trkpt><trkpt lat="43.3747315" lon="10.9098568"><ele>317.0</ele><time>2026-04-18T13:09:14.988Z</time></trkpt><trkpt lat="43.3746775" lon="10.9097335"><ele>314.2</ele><time>2026-04-18T13:09:15.989Z</time></trkpt><trkpt lat="43.3746132" lon="10.9096281"><ele>311.4</ele><time>2026-04-18T13:09:16.988Z</time></trkpt><trkpt lat="43.3745416" lon="10.9095312"><ele>308.6</ele><time>2026-04-18T13:09:17.989Z</time></trkpt><trkpt lat="43.3744719" lon="10.9094207"><ele>305.8</ele><time>2026-04-18T13:09:18.988Z</time></trkpt><trkpt lat="43.3743936" lon="10.90932"><ele>303.0</ele><time>2026-04-18T13:09:19.989Z</time></trkpt><trkpt lat="43.3743118" lon="10.9092162"><ele>303.0</ele><time>2026-04-18T13:09:20.988Z</time></trkpt><trkpt lat="43.3742326" lon="10.9091195"><ele>303.0</ele><time>2026-04-18T13:09:21.988Z</time></trkpt><trkpt lat="43.3741549" lon="10.9090103"><ele>303.0</ele><time>2026-04-18T13:09:22.988Z</time></trkpt><trkpt lat="43.3740756" lon="10.9089058"><ele>303.0</ele><time>2026-04-18T13:09:23.989Z</time></trkpt><trkpt lat="43.3739937" lon="10.9088028"><ele>303.0</ele><time>2026-04-18T13:09:24.988Z</time></trkpt><trkpt lat="43.3738992" lon="10.9087007"><ele>303.25</ele><time>2026-04-18T13:09:25.988Z</time></trkpt><trkpt lat="43.3737951" lon="10.9086192"><ele>303.5</ele><time>2026-04-18T13:09:26.988Z</time></trkpt><trkpt lat="43.3736761" lon="10.9085372"><ele>303.75</ele><time>2026-04-18T13:09:27.989Z</time></trkpt><trkpt lat="43.3735372" lon="10.9084452"><ele>304.0</ele><time>2026-04-18T13:09:28.988Z</time></trkpt><trkpt lat="43.3734003" lon="10.9083613"><ele>304.0</ele><time>2026-04-18T13:09:29.988Z</time></trkpt><trkpt lat="43.3732629" lon="10.9082674"><ele>304.0</ele><time>2026-04-18T13:09:30.988Z</time></trkpt><trkpt lat="43.3731418" lon="10.9081823"><ele>304.0</ele><time>2026-04-18T13:09:31.988Z</time></trkpt><trkpt lat="43.3730169" lon="10.9081015"><ele>304.0</ele><time>2026-04-18T13:09:32.988Z</time></trkpt><trkpt lat="43.3728954" lon="10.9080339"><ele>304.0</ele><time>2026-04-18T13:09:33.988Z</time></trkpt><trkpt lat="43.3727793" lon="10.9079729"><ele>304.0</ele><time>2026-04-18T13:09:34.988Z</time></trkpt><trkpt lat="43.372667" lon="10.9079119"><ele>304.0</ele><time>2026-04-18T13:09:35.989Z</time></trkpt><trkpt lat="43.3725569" lon="10.9078435"><ele>304.0</ele><time>2026-04-18T13:09:36.988Z</time></trkpt><trkpt lat="43.3724485" lon="10.9077864"><ele>304.0</ele><time>2026-04-18T13:09:37.988Z</time></trkpt><trkpt lat="43.3723392" lon="10.9077347"><ele>304.0</ele><time>2026-04-18T13:09:38.988Z</time></trkpt><trkpt lat="43.3722389" lon="10.9076912"><ele>304.0</ele><time>2026-04-18T13:09:39.989Z</time></trkpt><trkpt lat="43.3721336" lon="10.9076469"><ele>304.0</ele><time>2026-04-18T13:09:40.988Z</time></trkpt><trkpt lat="43.3720429" lon="10.9076022"><ele>304.0</ele><time>2026-04-18T13:09:41.988Z</time></trkpt><trkpt lat="43.371956" lon="10.9075617"><ele>304.4</ele><time>2026-04-18T13:09:42.988Z</time></trkpt><trkpt lat="43.3718641" lon="10.9075174"><ele>304.79999999999995</ele><time>2026-04-18T13:09:43.988Z</time></trkpt><trkpt lat="43.3717662" lon="10.9074743"><ele>305.20000000000005</ele><time>2026-04-18T13:09:44.988Z</time></trkpt><trkpt lat="43.3716606" lon="10.9074319"><ele>305.6</ele><time>2026-04-18T13:09:45.988Z</time></trkpt><trkpt lat="43.3715711" lon="10.90738"><ele>306.0</ele><time>2026-04-18T13:09:46.988Z</time></trkpt><trkpt lat="43.371476" lon="10.9073339"><ele>306.0</ele><time>2026-04-18T13:09:47.988Z</time></trkpt><trkpt lat="43.3713909" lon="10.9072963"><ele>306.0</ele><time>2026-04-18T13:09:48.988Z</time></trkpt><trkpt lat="43.3713096" lon="10.9072535"><ele>306.0</ele><time>2026-04-18T13:09:49.988Z</time></trkpt><trkpt lat="43.3712228" lon="10.9072183"><ele>306.0</ele><time>2026-04-18T13:09:50.988Z</time></trkpt><trkpt lat="43.3711218" lon="10.9071843"><ele>306.0</ele><time>2026-04-18T13:09:51.988Z</time></trkpt><trkpt lat="43.3710365" lon="10.9071524"><ele>305.5</ele><time>2026-04-18T13:09:52.988Z</time></trkpt><trkpt lat="43.3709587" lon="10.9071213"><ele>305.0</ele><time>2026-04-18T13:09:53.988Z</time></trkpt><trkpt lat="43.3708787" lon="10.9070798"><ele>304.5</ele><time>2026-04-18T13:09:54.988Z</time></trkpt><trkpt lat="43.370805" lon="10.9070363"><ele>304.0</ele><time>2026-04-18T13:09:55.988Z</time></trkpt><trkpt lat="43.3707229" lon="10.9069817"><ele>303.5</ele><time>2026-04-18T13:09:56.988Z</time></trkpt><trkpt lat="43.3706405" lon="10.9069263"><ele>303.0</ele><time>2026-04-18T13:09:57.988Z</time></trkpt><trkpt lat="43.3705541" lon="10.9068551"><ele>302.0</ele><time>2026-04-18T13:09:58.988Z</time></trkpt><trkpt lat="43.3704675" lon="10.9067727"><ele>301.0</ele><time>2026-04-18T13:09:59.989Z</time></trkpt><trkpt lat="43.3703921" lon="10.9066902"><ele>300.0</ele><time>2026-04-18T13:10:00.988Z</time></trkpt><trkpt lat="43.3703151" lon="10.906613"><ele>299.0</ele><time>2026-04-18T13:10:01.988Z</time></trkpt><trkpt lat="43.3702358" lon="10.9065262"><ele>298.0</ele><time>2026-04-18T13:10:02.988Z</time></trkpt><trkpt lat="43.3701457" lon="10.9064363"><ele>299.8</ele><time>2026-04-18T13:10:03.988Z</time></trkpt><trkpt lat="43.3700746" lon="10.9063597"><ele>301.6</ele><time>2026-04-18T13:10:04.988Z</time></trkpt><trkpt lat="43.3700171" lon="10.9062751"><ele>303.4</ele><time>2026-04-18T13:10:05.988Z</time></trkpt><trkpt lat="43.3699543" lon="10.9061723"><ele>305.2</ele><time>2026-04-18T13:10:06.988Z</time></trkpt><trkpt lat="43.3698814" lon="10.9060446"><ele>307.0</ele><time>2026-04-18T13:10:07.988Z</time></trkpt><trkpt lat="43.3698328" lon="10.9058849"><ele>307.0</ele><time>2026-04-18T13:10:08.988Z</time></trkpt><trkpt lat="43.3698146" lon="10.905742"><ele>307.0</ele><time>2026-04-18T13:10:09.988Z</time></trkpt><trkpt lat="43.3697838" lon="10.9055968"><ele>307.0</ele><time>2026-04-18T13:10:10.988Z</time></trkpt><trkpt lat="43.3697516" lon="10.9054635"><ele>307.0</ele><time>2026-04-18T13:10:11.988Z</time></trkpt><trkpt lat="43.369722" lon="10.9053293"><ele>307.0</ele><time>2026-04-18T13:10:12.988Z</time></trkpt><trkpt lat="43.3697012" lon="10.9051994"><ele>311.8</ele><time>2026-04-18T13:10:13.989Z</time></trkpt><trkpt lat="43.3696792" lon="10.905076"><ele>316.6</ele><time>2026-04-18T13:10:14.988Z</time></trkpt><trkpt lat="43.3696363" lon="10.9049514"><ele>321.40000000000003</ele><time>2026-04-18T13:10:15.988Z</time></trkpt><trkpt lat="43.3695824" lon="10.9048407"><ele>326.2</ele><time>2026-04-18T13:10:16.988Z</time></trkpt><trkpt lat="43.3695238" lon="10.9047515"><ele>331.0</ele><time>2026-04-18T13:10:17.988Z</time></trkpt><trkpt lat="43.3694664" lon="10.9046643"><ele>331.0</ele><time>2026-04-18T13:10:18.988Z</time></trkpt><trkpt lat="43.3694134" lon="10.9045806"><ele>331.0</ele><time>2026-04-18T13:10:19.988Z</time></trkpt><trkpt lat="43.3693564" lon="10.9045189"><ele>331.0</ele><time>2026-04-18T13:10:20.988Z</time></trkpt><trkpt lat="43.3692979" lon="10.90446"><ele>331.0</ele><time>2026-04-18T13:10:21.988Z</time></trkpt><trkpt lat="43.3692351" lon="10.9043929"><ele>331.0</ele><time>2026-04-18T13:10:22.988Z</time></trkpt><trkpt lat="43.3691808" lon="10.904337"><ele>331.0</ele><time>2026-04-18T13:10:23.988Z</time></trkpt><trkpt lat="43.3691195" lon="10.9042843"><ele>331.0</ele><time>2026-04-18T13:10:24.988Z</time></trkpt><trkpt lat="43.3690525" lon="10.9042341"><ele>333.20000000000005</ele><time>2026-04-18T13:10:25.988Z</time></trkpt><trkpt lat="43.368973" lon="10.9041727"><ele>335.40000000000003</ele><time>2026-04-18T13:10:26.988Z</time></trkpt><trkpt lat="43.3689004" lon="10.9041279"><ele>337.6</ele><time>2026-04-18T13:10:27.988Z</time></trkpt><trkpt lat="43.3688271" lon="10.9040751"><ele>339.8</ele><time>2026-04-18T13:10:28.988Z</time></trkpt><trkpt lat="43.3687026" lon="10.9040011"><ele>342.0</ele><time>2026-04-18T13:10:30.988Z</time></trkpt><trkpt lat="43.368633" lon="10.9039788"><ele>342.0</ele><time>2026-04-18T13:10:31.988Z</time></trkpt><trkpt lat="43.3685578" lon="10.903954"><ele>342.0</ele><time>2026-04-18T13:10:32.988Z</time></trkpt><trkpt lat="43.3684951" lon="10.90394"><ele>342.0</ele><time>2026-04-18T13:10:33.988Z</time></trkpt><trkpt lat="43.3683853" lon="10.9039186"><ele>342.0</ele><time>2026-04-18T13:10:35.989Z</time></trkpt><trkpt lat="43.3683204" lon="10.9039172"><ele>342.0</ele><time>2026-04-18T13:10:36.988Z</time></trkpt><trkpt lat="43.3681893" lon="10.9038783"><ele>342.0</ele><time>2026-04-18T13:10:38.988Z</time></trkpt><trkpt lat="43.368111" lon="10.9038765"><ele>342.0</ele><time>2026-04-18T13:10:39.988Z</time></trkpt><trkpt lat="43.3679927" lon="10.9038725"><ele>342.0</ele><time>2026-04-18T13:10:41.988Z</time></trkpt><trkpt lat="43.3679" lon="10.9038773"><ele>342.0</ele><time>2026-04-18T13:10:43.988Z</time></trkpt><trkpt lat="43.3678036" lon="10.9039388"><ele>342.0</ele><time>2026-04-18T13:10:45.988Z</time></trkpt><trkpt lat="43.3677111" lon="10.9040122"><ele>341.8333333333333</ele><time>2026-04-18T13:10:47.988Z</time></trkpt><trkpt lat="43.3676353" lon="10.9040708"><ele>341.6666666666667</ele><time>2026-04-18T13:10:49.988Z</time></trkpt><trkpt lat="43.367577" lon="10.9041138"><ele>341.5</ele><time>2026-04-18T13:10:52.988Z</time></trkpt><trkpt lat="43.3675068" lon="10.9041615"><ele>341.33333333333337</ele><time>2026-04-18T13:10:54.988Z</time></trkpt><trkpt lat="43.3674577" lon="10.904236"><ele>341.1666666666667</ele><time>2026-04-18T13:10:56.988Z</time></trkpt><trkpt lat="43.3674265" lon="10.9043343"><ele>341.0</ele><time>2026-04-18T13:10:58.988Z</time></trkpt><trkpt lat="43.3674339" lon="10.9044366"><ele>341.0</ele><time>2026-04-18T13:11:00.988Z</time></trkpt><trkpt lat="43.3674595" lon="10.9045408"><ele>341.0</ele><time>2026-04-18T13:11:03.988Z</time></trkpt><trkpt lat="43.3674903" lon="10.9046633"><ele>341.0</ele><time>2026-04-18T13:11:06.988Z</time></trkpt><trkpt lat="43.3675302" lon="10.9047675"><ele>341.0</ele><time>2026-04-18T13:11:08.989Z</time></trkpt><trkpt lat="43.3676006" lon="10.9048351"><ele>341.0</ele><time>2026-04-18T13:11:10.988Z</time></trkpt><trkpt lat="43.3676788" lon="10.9048904"><ele>341.0</ele><time>2026-04-18T13:11:12.988Z</time></trkpt><trkpt lat="43.3677655" lon="10.9049451"><ele>341.0</ele><time>2026-04-18T13:11:14.989Z</time></trkpt><trkpt lat="43.3678313" lon="10.9050034"><ele>341.0</ele><time>2026-04-18T13:11:16.988Z</time></trkpt><trkpt lat="43.3678903" lon="10.9050393"><ele>341.0</ele><time>2026-04-18T13:11:18.988Z</time></trkpt><trkpt lat="43.3679649" lon="10.9050184"><ele>341.0</ele><time>2026-04-18T13:11:21.988Z</time></trkpt><trkpt lat="43.3679977" lon="10.9049316"><ele>341.0</ele><time>2026-04-18T13:11:25.988Z</time></trkpt><trkpt lat="43.3680217" lon="10.9048403"><ele>341.0</ele><time>2026-04-18T13:11:30.988Z</time></trkpt><trkpt lat="43.368061" lon="10.9047351"><ele>341.0</ele><time>2026-04-18T13:11:35.988Z</time></trkpt><trkpt lat="43.3681279" lon="10.9046533"><ele>341.5</ele><time>2026-04-18T13:11:37.988Z</time></trkpt><trkpt lat="43.3681789" lon="10.9045625"><ele>342.0</ele><time>2026-04-18T13:11:39.989Z</time></trkpt><trkpt lat="43.3681651" lon="10.9044627"><ele>342.5</ele><time>2026-04-18T13:11:42.988Z</time></trkpt><trkpt lat="43.3681056" lon="10.9043897"><ele>343.0</ele><time>2026-04-18T13:11:44.988Z</time></trkpt><trkpt lat="43.3680316" lon="10.9043091"><ele>343.5</ele><time>2026-04-18T13:11:46.988Z</time></trkpt><trkpt lat="43.367957" lon="10.9042405"><ele>344.0</ele><time>2026-04-18T13:11:48.988Z</time></trkpt><trkpt lat="43.3678848" lon="10.9041838"><ele>344.0</ele><time>2026-04-18T13:11:50.989Z</time></trkpt><trkpt lat="43.3678017" lon="10.9041657"><ele>344.0</ele><time>2026-04-18T13:11:52.988Z</time></trkpt><trkpt lat="43.367713" lon="10.9041935"><ele>344.0</ele><time>2026-04-18T13:11:54.988Z</time></trkpt><trkpt lat="43.3676391" lon="10.9042338"><ele>344.0</ele><time>2026-04-18T13:11:56.988Z</time></trkpt><trkpt lat="43.3675475" lon="10.9041982"><ele>344.0</ele><time>2026-04-18T13:11:59.988Z</time></trkpt><trkpt lat="43.3675662" lon="10.9041122"><ele>344.0</ele><time>2026-04-18T13:12:02.988Z</time></trkpt><trkpt lat="43.3676263" lon="10.9040696"><ele>344.0</ele><time>2026-04-18T13:12:04.988Z</time></trkpt><trkpt lat="43.3677201" lon="10.9039845"><ele>344.0</ele><time>2026-04-18T13:12:06.988Z</time></trkpt><trkpt lat="43.3677758" lon="10.9039391"><ele>344.0</ele><time>2026-04-18T13:12:07.988Z</time></trkpt><trkpt lat="43.3678909" lon="10.9038697"><ele>344.0</ele><time>2026-04-18T13:12:09.988Z</time></trkpt><trkpt lat="43.3679644" lon="10.9038545"><ele>344.0</ele><time>2026-04-18T13:12:10.988Z</time></trkpt><trkpt lat="43.3680284" lon="10.9038445"><ele>344.0</ele><time>2026-04-18T13:12:11.988Z</time></trkpt><trkpt lat="43.3681092" lon="10.9038516"><ele>343.6</ele><time>2026-04-18T13:12:12.988Z</time></trkpt><trkpt lat="43.3682501" lon="10.9038629"><ele>343.2</ele><time>2026-04-18T13:12:14.988Z</time></trkpt><trkpt lat="43.3683283" lon="10.9038757"><ele>342.8</ele><time>2026-04-18T13:12:15.988Z</time></trkpt><trkpt lat="43.3684072" lon="10.9038909"><ele>342.40000000000003</ele><time>2026-04-18T13:12:16.988Z</time></trkpt><trkpt lat="43.3684926" lon="10.9039045"><ele>342.0</ele><time>2026-04-18T13:12:17.989Z</time></trkpt><trkpt lat="43.3685724" lon="10.9039238"><ele>342.0</ele><time>2026-04-18T13:12:18.988Z</time></trkpt><trkpt lat="43.3686585" lon="10.9039647"><ele>342.0</ele><time>2026-04-18T13:12:19.988Z</time></trkpt><trkpt lat="43.3687383" lon="10.9040135"><ele>342.0</ele><time>2026-04-18T13:12:20.988Z</time></trkpt><trkpt lat="43.3688458" lon="10.9040812"><ele>342.0</ele><time>2026-04-18T13:12:21.988Z</time></trkpt><trkpt lat="43.368935" lon="10.9041374"><ele>342.0</ele><time>2026-04-18T13:12:22.988Z</time></trkpt><trkpt lat="43.3690365" lon="10.904202"><ele>339.25</ele><time>2026-04-18T13:12:23.988Z</time></trkpt><trkpt lat="43.3691372" lon="10.9042895"><ele>336.5</ele><time>2026-04-18T13:12:24.988Z</time></trkpt><trkpt lat="43.3692421" lon="10.9043713"><ele>333.75</ele><time>2026-04-18T13:12:25.988Z</time></trkpt><trkpt lat="43.3693356" lon="10.9044588"><ele>331.0</ele><time>2026-04-18T13:12:26.989Z</time></trkpt><trkpt lat="43.3694304" lon="10.9045428"><ele>331.0</ele><time>2026-04-18T13:12:27.988Z</time></trkpt><trkpt lat="43.3695053" lon="10.9046379"><ele>331.0</ele><time>2026-04-18T13:12:28.988Z</time></trkpt><trkpt lat="43.3695711" lon="10.9047507"><ele>331.0</ele><time>2026-04-18T13:12:29.988Z</time></trkpt><trkpt lat="43.3696126" lon="10.9048615"><ele>331.0</ele><time>2026-04-18T13:12:30.988Z</time></trkpt><trkpt lat="43.3696601" lon="10.9049836"><ele>331.0</ele><time>2026-04-18T13:12:31.988Z</time></trkpt><trkpt lat="43.3697051" lon="10.9051176"><ele>326.2</ele><time>2026-04-18T13:12:32.988Z</time></trkpt><trkpt lat="43.3697409" lon="10.9052561"><ele>321.40000000000003</ele><time>2026-04-18T13:12:33.988Z</time></trkpt><trkpt lat="43.369767" lon="10.9054016"><ele>316.6</ele><time>2026-04-18T13:12:34.988Z</time></trkpt><trkpt lat="43.3697996" lon="10.9055427"><ele>311.8</ele><time>2026-04-18T13:12:35.988Z</time></trkpt><trkpt lat="43.3698273" lon="10.9056909"><ele>307.0</ele><time>2026-04-18T13:12:36.988Z</time></trkpt><trkpt lat="43.3698548" lon="10.9058257"><ele>307.4</ele><time>2026-04-18T13:12:37.988Z</time></trkpt><trkpt lat="43.36988" lon="10.9059597"><ele>307.79999999999995</ele><time>2026-04-18T13:12:38.988Z</time></trkpt><trkpt lat="43.3699109" lon="10.9060917"><ele>308.2</ele><time>2026-04-18T13:12:39.988Z</time></trkpt><trkpt lat="43.3699587" lon="10.906207"><ele>308.59999999999997</ele><time>2026-04-18T13:12:40.989Z</time></trkpt><trkpt lat="43.3700178" lon="10.9063167"><ele>309.0</ele><time>2026-04-18T13:12:41.988Z</time></trkpt><trkpt lat="43.3700761" lon="10.9064095"><ele>309.0</ele><time>2026-04-18T13:12:42.988Z</time></trkpt><trkpt lat="43.3701838" lon="10.9065215"><ele>309.0</ele><time>2026-04-18T13:12:43.988Z</time></trkpt><trkpt lat="43.3702781" lon="10.9066169"><ele>309.0</ele><time>2026-04-18T13:12:44.988Z</time></trkpt><trkpt lat="43.3703657" lon="10.9067142"><ele>309.0</ele><time>2026-04-18T13:12:45.988Z</time></trkpt><trkpt lat="43.37046" lon="10.9068033"><ele>307.8</ele><time>2026-04-18T13:12:46.988Z</time></trkpt><trkpt lat="43.3705538" lon="10.9068876"><ele>306.59999999999997</ele><time>2026-04-18T13:12:47.988Z</time></trkpt><trkpt lat="43.3706507" lon="10.906963"><ele>305.4</ele><time>2026-04-18T13:12:48.988Z</time></trkpt><trkpt lat="43.3707502" lon="10.9070265"><ele>304.2</ele><time>2026-04-18T13:12:49.988Z</time></trkpt><trkpt lat="43.3708491" lon="10.9070886"><ele>303.0</ele><time>2026-04-18T13:12:50.988Z</time></trkpt><trkpt lat="43.3709528" lon="10.9071335"><ele>303.0</ele><time>2026-04-18T13:12:51.988Z</time></trkpt><trkpt lat="43.3710564" lon="10.9071921"><ele>303.0</ele><time>2026-04-18T13:12:52.988Z</time></trkpt><trkpt lat="43.3711955" lon="10.9072501"><ele>303.0</ele><time>2026-04-18T13:12:53.988Z</time></trkpt><trkpt lat="43.3713349" lon="10.9073119"><ele>303.0</ele><time>2026-04-18T13:12:54.988Z</time></trkpt><trkpt lat="43.3714847" lon="10.9073831"><ele>303.25</ele><time>2026-04-18T13:12:55.988Z</time></trkpt><trkpt lat="43.3716265" lon="10.9074547"><ele>303.5</ele><time>2026-04-18T13:12:56.988Z</time></trkpt><trkpt lat="43.3717718" lon="10.9075212"><ele>303.75</ele><time>2026-04-18T13:12:57.988Z</time></trkpt><trkpt lat="43.3719061" lon="10.9075908"><ele>304.0</ele><time>2026-04-18T13:12:58.988Z</time></trkpt><trkpt lat="43.372037" lon="10.9076535"><ele>304.0</ele><time>2026-04-18T13:12:59.988Z</time></trkpt><trkpt lat="43.3721672" lon="10.9077196"><ele>304.0</ele><time>2026-04-18T13:13:00.988Z</time></trkpt><trkpt lat="43.3723025" lon="10.9077911"><ele>304.0</ele><time>2026-04-18T13:13:01.988Z</time></trkpt><trkpt lat="43.3724407" lon="10.9078573"><ele>304.0</ele><time>2026-04-18T13:13:02.988Z</time></trkpt><trkpt lat="43.3725736" lon="10.9079218"><ele>304.0</ele><time>2026-04-18T13:13:03.988Z</time></trkpt><trkpt lat="43.3727103" lon="10.9079928"><ele>304.0</ele><time>2026-04-18T13:13:04.988Z</time></trkpt><trkpt lat="43.372852" lon="10.9080704"><ele>304.0</ele><time>2026-04-18T13:13:05.988Z</time></trkpt><trkpt lat="43.3729886" lon="10.9081578"><ele>304.0</ele><time>2026-04-18T13:13:06.988Z</time></trkpt><trkpt lat="43.3731198" lon="10.9082414"><ele>304.0</ele><time>2026-04-18T13:13:07.988Z</time></trkpt><trkpt lat="43.3732402" lon="10.9083163"><ele>304.0</ele><time>2026-04-18T13:13:08.988Z</time></trkpt><trkpt lat="43.3733601" lon="10.9083856"><ele>304.0</ele><time>2026-04-18T13:13:09.988Z</time></trkpt><trkpt lat="43.3734823" lon="10.9084575"><ele>304.0</ele><time>2026-04-18T13:13:10.988Z</time></trkpt><trkpt lat="43.3736003" lon="10.9085285"><ele>303.75</ele><time>2026-04-18T13:13:11.988Z</time></trkpt><trkpt lat="43.3737196" lon="10.9086075"><ele>303.5</ele><time>2026-04-18T13:13:12.988Z</time></trkpt><trkpt lat="43.3738335" lon="10.9087065"><ele>303.25</ele><time>2026-04-18T13:13:13.988Z</time></trkpt><trkpt lat="43.373943" lon="10.9088245"><ele>303.0</ele><time>2026-04-18T13:13:14.988Z</time></trkpt><trkpt lat="43.3740523" lon="10.9089617"><ele>303.0</ele><time>2026-04-18T13:13:15.988Z</time></trkpt><trkpt lat="43.3741588" lon="10.9090974"><ele>303.0</ele><time>2026-04-18T13:13:16.988Z</time></trkpt><trkpt lat="43.3742638" lon="10.9092308"><ele>303.0</ele><time>2026-04-18T13:13:17.988Z</time></trkpt><trkpt lat="43.3743724" lon="10.9093489"><ele>303.0</ele><time>2026-04-18T13:13:18.988Z</time></trkpt><trkpt lat="43.3744733" lon="10.9094674"><ele>303.25</ele><time>2026-04-18T13:13:19.988Z</time></trkpt><trkpt lat="43.3745744" lon="10.9095996"><ele>303.5</ele><time>2026-04-18T13:13:20.988Z</time></trkpt><trkpt lat="43.3746603" lon="10.9097567"><ele>303.75</ele><time>2026-04-18T13:13:21.988Z</time></trkpt><trkpt lat="43.3747436" lon="10.9099486"><ele>304.0</ele><time>2026-04-18T13:13:22.988Z</time></trkpt><trkpt lat="43.3748106" lon="10.9101399"><ele>307.25</ele><time>2026-04-18T13:13:23.988Z</time></trkpt><trkpt lat="43.3748646" lon="10.9103207"><ele>310.5</ele><time>2026-04-18T13:13:24.988Z</time></trkpt><trkpt lat="43.3749242" lon="10.9104867"><ele>313.75</ele><time>2026-04-18T13:13:25.988Z</time></trkpt><trkpt lat="43.3749871" lon="10.9106384"><ele>317.0</ele><time>2026-04-18T13:13:26.988Z</time></trkpt><trkpt lat="43.3750616" lon="10.9107912"><ele>317.0</ele><time>2026-04-18T13:13:27.988Z</time></trkpt><trkpt lat="43.3751759" lon="10.9109001"><ele>317.0</ele><time>2026-04-18T13:13:28.988Z</time></trkpt><trkpt lat="43.3752934" lon="10.9110234"><ele>317.0</ele><time>2026-04-18T13:13:29.988Z</time></trkpt><trkpt lat="43.3754" lon="10.9111655"><ele>317.0</ele><time>2026-04-18T13:13:30.988Z</time></trkpt><trkpt lat="43.3755131" lon="10.9113105"><ele>319.25</ele><time>2026-04-18T13:13:31.988Z</time></trkpt><trkpt lat="43.3756085" lon="10.9114547"><ele>321.5</ele><time>2026-04-18T13:13:32.988Z</time></trkpt><trkpt lat="43.3757133" lon="10.9115992"><ele>323.75</ele><time>2026-04-18T13:13:33.988Z</time></trkpt><trkpt lat="43.3758118" lon="10.91175"><ele>326.0</ele><time>2026-04-18T13:13:34.988Z</time></trkpt><trkpt lat="43.3759278" lon="10.9118902"><ele>327.5</ele><time>2026-04-18T13:13:35.988Z</time></trkpt><trkpt lat="43.376033" lon="10.9120206"><ele>329.0</ele><time>2026-04-18T13:13:36.988Z</time></trkpt><trkpt lat="43.37614" lon="10.912128"><ele>330.5</ele><time>2026-04-18T13:13:37.988Z</time></trkpt><trkpt lat="43.3762577" lon="10.9122182"><ele>332.0</ele><time>2026-04-18T13:13:38.989Z</time></trkpt><trkpt lat="43.3763778" lon="10.9123047"><ele>332.0</ele><time>2026-04-18T13:13:39.988Z</time></trkpt><trkpt lat="43.3764974" lon="10.9123753"><ele>332.0</ele><time>2026-04-18T13:13:40.988Z</time></trkpt><trkpt lat="43.376615" lon="10.9124326"><ele>332.0</ele><time>2026-04-18T13:13:41.988Z</time></trkpt><trkpt lat="43.3767309" lon="10.9125019"><ele>332.0</ele><time>2026-04-18T13:13:42.989Z</time></trkpt><trkpt lat="43.3768305" lon="10.9125914"><ele>331.40000000000003</ele><time>2026-04-18T13:13:43.988Z</time></trkpt><trkpt lat="43.3769114" lon="10.9126817"><ele>330.8</ele><time>2026-04-18T13:13:44.988Z</time></trkpt><trkpt lat="43.3770025" lon="10.9127682"><ele>330.2</ele><time>2026-04-18T13:13:45.988Z</time></trkpt><trkpt lat="43.3770967" lon="10.9128429"><ele>329.6</ele><time>2026-04-18T13:13:46.988Z</time></trkpt><trkpt lat="43.3772053" lon="10.9128952"><ele>329.0</ele><time>2026-04-18T13:13:47.988Z</time></trkpt><trkpt lat="43.3773258" lon="10.9129218"><ele>329.0</ele><time>2026-04-18T13:13:48.988Z</time></trkpt><trkpt lat="43.3774434" lon="10.9129307"><ele>329.0</ele><time>2026-04-18T13:13:49.988Z</time></trkpt><trkpt lat="43.3775634" lon="10.912933"><ele>329.0</ele><time>2026-04-18T13:13:50.989Z</time></trkpt><trkpt lat="43.3776726" lon="10.9129223"><ele>329.0</ele><time>2026-04-18T13:13:51.988Z</time></trkpt><trkpt lat="43.3777865" lon="10.9128784"><ele>329.0</ele><time>2026-04-18T13:13:52.988Z</time></trkpt><trkpt lat="43.377894" lon="10.91281"><ele>329.0</ele><time>2026-04-18T13:13:53.988Z</time></trkpt><trkpt lat="43.3780141" lon="10.9126827"><ele>329.0</ele><time>2026-04-18T13:13:54.988Z</time></trkpt><trkpt lat="43.3781272" lon="10.9125579"><ele>329.0</ele><time>2026-04-18T13:13:55.988Z</time></trkpt><trkpt lat="43.3782352" lon="10.9124223"><ele>332.25</ele><time>2026-04-18T13:13:56.988Z</time></trkpt><trkpt lat="43.3783224" lon="10.9123118"><ele>335.5</ele><time>2026-04-18T13:13:57.988Z</time></trkpt><trkpt lat="43.378411" lon="10.9122212"><ele>338.75</ele><time>2026-04-18T13:13:58.988Z</time></trkpt><trkpt lat="43.3785036" lon="10.912135"><ele>342.0</ele><time>2026-04-18T13:13:59.988Z</time></trkpt><trkpt lat="43.3786194" lon="10.9120617"><ele>342.0</ele><time>2026-04-18T13:14:00.988Z</time></trkpt><trkpt lat="43.3787381" lon="10.9120041"><ele>342.0</ele><time>2026-04-18T13:14:01.988Z</time></trkpt><trkpt lat="43.378856" lon="10.9119515"><ele>342.0</ele><time>2026-04-18T13:14:02.988Z</time></trkpt><trkpt lat="43.378978" lon="10.9119159"><ele>342.0</ele><time>2026-04-18T13:14:03.988Z</time></trkpt><trkpt lat="43.3790716" lon="10.9118879"><ele>343.0</ele><time>2026-04-18T13:14:04.988Z</time></trkpt><trkpt lat="43.3791705" lon="10.9118498"><ele>344.0</ele><time>2026-04-18T13:14:05.988Z</time></trkpt><trkpt lat="43.379269" lon="10.9118005"><ele>345.0</ele><time>2026-04-18T13:14:06.988Z</time></trkpt><trkpt lat="43.3793407" lon="10.9117209"><ele>346.0</ele><time>2026-04-18T13:14:07.988Z</time></trkpt><trkpt lat="43.3793967" lon="10.9116167"><ele>347.0</ele><time>2026-04-18T13:14:08.989Z</time></trkpt><trkpt lat="43.3794251" lon="10.9114984"><ele>348.8</ele><time>2026-04-18T13:14:09.988Z</time></trkpt><trkpt lat="43.3794196" lon="10.9113821"><ele>350.6</ele><time>2026-04-18T13:14:10.988Z</time></trkpt><trkpt lat="43.379389" lon="10.9112481"><ele>352.40000000000003</ele><time>2026-04-18T13:14:11.988Z</time></trkpt><trkpt lat="43.3793435" lon="10.9111101"><ele>354.20000000000005</ele><time>2026-04-18T13:14:12.988Z</time></trkpt><trkpt lat="43.3793019" lon="10.9109905"><ele>356.0</ele><time>2026-04-18T13:14:13.988Z</time></trkpt><trkpt lat="43.3792686" lon="10.9108644"><ele>357.0</ele><time>2026-04-18T13:14:14.988Z</time></trkpt><trkpt lat="43.3792539" lon="10.9107281"><ele>358.0</ele><time>2026-04-18T13:14:15.988Z</time></trkpt><trkpt lat="43.3792507" lon="10.9106007"><ele>359.0</ele><time>2026-04-18T13:14:16.989Z</time></trkpt><trkpt lat="43.3792577" lon="10.9104784"><ele>360.0</ele><time>2026-04-18T13:14:17.988Z</time></trkpt><trkpt lat="43.3792847" lon="10.9103547"><ele>361.0</ele><time>2026-04-18T13:14:18.988Z</time></trkpt><trkpt lat="43.37932" lon="10.9102523"><ele>361.0</ele><time>2026-04-18T13:14:19.988Z</time></trkpt><trkpt lat="43.3793686" lon="10.9101631"><ele>361.0</ele><time>2026-04-18T13:14:20.988Z</time></trkpt><trkpt lat="43.3794332" lon="10.9100931"><ele>361.0</ele><time>2026-04-18T13:14:21.988Z</time></trkpt><trkpt lat="43.3795104" lon="10.9100654"><ele>361.0</ele><time>2026-04-18T13:14:22.988Z</time></trkpt><trkpt lat="43.3795967" lon="10.9100535"><ele>361.0</ele><time>2026-04-18T13:14:23.988Z</time></trkpt><trkpt lat="43.3796741" lon="10.910082"><ele>361.0</ele><time>2026-04-18T13:14:24.988Z</time></trkpt><trkpt lat="43.3797184" lon="10.9101856"><ele>363.5</ele><time>2026-04-18T13:14:25.988Z</time></trkpt><trkpt lat="43.3797385" lon="10.9102796"><ele>366.0</ele><time>2026-04-18T13:14:26.988Z</time></trkpt><trkpt lat="43.3797381" lon="10.9103963"><ele>368.5</ele><time>2026-04-18T13:14:27.988Z</time></trkpt><trkpt lat="43.3797373" lon="10.9105084"><ele>371.0</ele><time>2026-04-18T13:14:28.988Z</time></trkpt><trkpt lat="43.3797533" lon="10.9106053"><ele>373.5</ele><time>2026-04-18T13:14:29.988Z</time></trkpt><trkpt lat="43.3797935" lon="10.910696"><ele>376.0</ele><time>2026-04-18T13:14:30.988Z</time></trkpt><trkpt lat="43.3798567" lon="10.9107557"><ele>376.0</ele><time>2026-04-18T13:14:31.988Z</time></trkpt><trkpt lat="43.3799373" lon="10.9107824"><ele>376.0</ele><time>2026-04-18T13:14:32.988Z</time></trkpt><trkpt lat="43.3800157" lon="10.910795"><ele>376.0</ele><time>2026-04-18T13:14:33.988Z</time></trkpt><trkpt lat="43.3800859" lon="10.9107701"><ele>376.0</ele><time>2026-04-18T13:14:34.989Z</time></trkpt><trkpt lat="43.3801458" lon="10.9107116"><ele>376.0</ele><time>2026-04-18T13:14:35.989Z</time></trkpt><trkpt lat="43.3801759" lon="10.910622"><ele>376.0</ele><time>2026-04-18T13:14:36.988Z</time></trkpt><trkpt lat="43.3801979" lon="10.910514"><ele>376.0</ele><time>2026-04-18T13:14:37.988Z</time></trkpt><trkpt lat="43.3801801" lon="10.9103743"><ele>376.0</ele><time>2026-04-18T13:14:38.988Z</time></trkpt><trkpt lat="43.3801827" lon="10.9102663"><ele>376.0</ele><time>2026-04-18T13:14:39.989Z</time></trkpt><trkpt lat="43.3801818" lon="10.9101648"><ele>376.0</ele><time>2026-04-18T13:14:40.988Z</time></trkpt><trkpt lat="43.3802613" lon="10.9100481"><ele>376.0</ele><time>2026-04-18T13:14:42.988Z</time></trkpt><trkpt lat="43.3803446" lon="10.9101102"><ele>376.0</ele><time>2026-04-18T13:14:44.988Z</time></trkpt><trkpt lat="43.3803955" lon="10.9102584"><ele>376.0</ele><time>2026-04-18T13:14:46.988Z</time></trkpt><trkpt lat="43.3804969" lon="10.9103424"><ele>376.0</ele><time>2026-04-18T13:14:48.988Z</time></trkpt><trkpt lat="43.3805767" lon="10.9103425"><ele>376.0</ele><time>2026-04-18T13:14:49.988Z</time></trkpt><trkpt lat="43.3806522" lon="10.910325"><ele>376.0</ele><time>2026-04-18T13:14:50.989Z</time></trkpt><trkpt lat="43.380722" lon="10.9102782"><ele>377.57142857142856</ele><time>2026-04-18T13:14:51.988Z</time></trkpt><trkpt lat="43.3807749" lon="10.9102091"><ele>379.1428571428571</ele><time>2026-04-18T13:14:52.988Z</time></trkpt><trkpt lat="43.3807982" lon="10.9101247"><ele>380.7142857142857</ele><time>2026-04-18T13:14:53.988Z</time></trkpt><trkpt lat="43.3807851" lon="10.9100332"><ele>382.2857142857143</ele><time>2026-04-18T13:14:54.988Z</time></trkpt><trkpt lat="43.3807467" lon="10.9099326"><ele>383.8571428571429</ele><time>2026-04-18T13:14:55.988Z</time></trkpt><trkpt lat="43.3807034" lon="10.9098476"><ele>385.42857142857144</ele><time>2026-04-18T13:14:56.988Z</time></trkpt><trkpt lat="43.3806713" lon="10.9097396"><ele>387.0</ele><time>2026-04-18T13:14:57.988Z</time></trkpt><trkpt lat="43.3806655" lon="10.9096255"><ele>390.0</ele><time>2026-04-18T13:14:58.988Z</time></trkpt><trkpt lat="43.3806902" lon="10.9095114"><ele>393.0</ele><time>2026-04-18T13:14:59.988Z</time></trkpt><trkpt lat="43.380734" lon="10.9093975"><ele>396.0</ele><time>2026-04-18T13:15:00.988Z</time></trkpt><trkpt lat="43.3807816" lon="10.9092846"><ele>399.0</ele><time>2026-04-18T13:15:01.988Z</time></trkpt><trkpt lat="43.3808332" lon="10.9091675"><ele>402.0</ele><time>2026-04-18T13:15:02.988Z</time></trkpt><trkpt lat="43.380871" lon="10.9090448"><ele>403.40000000000003</ele><time>2026-04-18T13:15:03.988Z</time></trkpt><trkpt lat="43.3808953" lon="10.9089105"><ele>404.8</ele><time>2026-04-18T13:15:04.988Z</time></trkpt><trkpt lat="43.3809017" lon="10.9087789"><ele>406.2</ele><time>2026-04-18T13:15:05.988Z</time></trkpt><trkpt lat="43.3809053" lon="10.9086526"><ele>407.6</ele><time>2026-04-18T13:15:06.988Z</time></trkpt><trkpt lat="43.3809268" lon="10.9085302"><ele>409.0</ele><time>2026-04-18T13:15:07.988Z</time></trkpt><trkpt lat="43.3809717" lon="10.9083989"><ele>409.0</ele><time>2026-04-18T13:15:08.988Z</time></trkpt><trkpt lat="43.3810244" lon="10.908282"><ele>409.0</ele><time>2026-04-18T13:15:09.988Z</time></trkpt><trkpt lat="43.3810997" lon="10.9082062"><ele>409.0</ele><time>2026-04-18T13:15:10.988Z</time></trkpt><trkpt lat="43.3811817" lon="10.9081294"><ele>409.0</ele><time>2026-04-18T13:15:11.989Z</time></trkpt><trkpt lat="43.3812812" lon="10.9080847"><ele>409.0</ele><time>2026-04-18T13:15:12.988Z</time></trkpt><trkpt lat="43.3813826" lon="10.9080315"><ele>412.79999999999995</ele><time>2026-04-18T13:15:13.989Z</time></trkpt><trkpt lat="43.3814772" lon="10.9079679"><ele>416.59999999999997</ele><time>2026-04-18T13:15:14.989Z</time></trkpt><trkpt lat="43.381572" lon="10.9079072"><ele>420.4</ele><time>2026-04-18T13:15:15.989Z</time></trkpt><trkpt lat="43.3816599" lon="10.9078272"><ele>424.2</ele><time>2026-04-18T13:15:16.989Z</time></trkpt><trkpt lat="43.3817472" lon="10.9077237"><ele>428.0</ele><time>2026-04-18T13:15:17.988Z</time></trkpt><trkpt lat="43.381819" lon="10.9075992"><ele>425.0</ele><time>2026-04-18T13:15:18.988Z</time></trkpt><trkpt lat="43.3818822" lon="10.907476"><ele>422.0</ele><time>2026-04-18T13:15:19.988Z</time></trkpt><trkpt lat="43.3819511" lon="10.9073467"><ele>419.0</ele><time>2026-04-18T13:15:20.988Z</time></trkpt><trkpt lat="43.3820075" lon="10.9072011"><ele>416.0</ele><time>2026-04-18T13:15:21.988Z</time></trkpt><trkpt lat="43.3820473" lon="10.9070483"><ele>416.0</ele><time>2026-04-18T13:15:22.988Z</time></trkpt><trkpt lat="43.382072" lon="10.9068899"><ele>416.0</ele><time>2026-04-18T13:15:23.988Z</time></trkpt><trkpt lat="43.3820923" lon="10.9067372"><ele>416.0</ele><time>2026-04-18T13:15:24.988Z</time></trkpt><trkpt lat="43.3821" lon="10.9065815"><ele>416.0</ele><time>2026-04-18T13:15:25.988Z</time></trkpt><trkpt lat="43.3820959" lon="10.9064343"><ele>416.8</ele><time>2026-04-18T13:15:26.988Z</time></trkpt><trkpt lat="43.3820979" lon="10.9062995"><ele>417.6</ele><time>2026-04-18T13:15:27.988Z</time></trkpt><trkpt lat="43.38212" lon="10.906175"><ele>418.4</ele><time>2026-04-18T13:15:28.988Z</time></trkpt><trkpt lat="43.3821732" lon="10.9060591"><ele>419.2</ele><time>2026-04-18T13:15:29.988Z</time></trkpt><trkpt lat="43.3822411" lon="10.9059575"><ele>420.0</ele><time>2026-04-18T13:15:30.988Z</time></trkpt><trkpt lat="43.3823157" lon="10.9058644"><ele>420.0</ele><time>2026-04-18T13:15:31.988Z</time></trkpt><trkpt lat="43.3824055" lon="10.9057986"><ele>420.0</ele><time>2026-04-18T13:15:32.988Z</time></trkpt><trkpt lat="43.3824986" lon="10.9057352"><ele>420.0</ele><time>2026-04-18T13:15:33.988Z</time></trkpt><trkpt lat="43.3826253" lon="10.9057095"><ele>420.0</ele><time>2026-04-18T13:15:34.988Z</time></trkpt><trkpt lat="43.3827405" lon="10.9056846"><ele>420.0</ele><time>2026-04-18T13:15:35.988Z</time></trkpt><trkpt lat="43.3828471" lon="10.9056613"><ele>420.0</ele><time>2026-04-18T13:15:36.988Z</time></trkpt><trkpt lat="43.3829593" lon="10.9056356"><ele>420.0</ele><time>2026-04-18T13:15:37.988Z</time></trkpt><trkpt lat="43.3830568" lon="10.9055888"><ele>420.0</ele><time>2026-04-18T13:15:38.988Z</time></trkpt><trkpt lat="43.3831568" lon="10.9055455"><ele>420.0</ele><time>2026-04-18T13:15:39.988Z</time></trkpt><trkpt lat="43.383254" lon="10.9055034"><ele>420.4</ele><time>2026-04-18T13:15:40.988Z</time></trkpt><trkpt lat="43.3833569" lon="10.9054661"><ele>420.8</ele><time>2026-04-18T13:15:41.988Z</time></trkpt><trkpt lat="43.3834609" lon="10.9054186"><ele>421.20000000000005</ele><time>2026-04-18T13:15:42.988Z</time></trkpt><trkpt lat="43.3835635" lon="10.9053784"><ele>421.6</ele><time>2026-04-18T13:15:43.988Z</time></trkpt><trkpt lat="43.3836608" lon="10.9053209"><ele>422.0</ele><time>2026-04-18T13:15:44.988Z</time></trkpt><trkpt lat="43.3837629" lon="10.905266"><ele>419.8</ele><time>2026-04-18T13:15:45.988Z</time></trkpt><trkpt lat="43.3838562" lon="10.9052034"><ele>417.6</ele><time>2026-04-18T13:15:46.988Z</time></trkpt><trkpt lat="43.3839529" lon="10.905133"><ele>415.40000000000003</ele><time>2026-04-18T13:15:47.988Z</time></trkpt><trkpt lat="43.3840381" lon="10.9050614"><ele>413.20000000000005</ele><time>2026-04-18T13:15:48.988Z</time></trkpt><trkpt lat="43.3841219" lon="10.9050071"><ele>411.0</ele><time>2026-04-18T13:15:49.988Z</time></trkpt><trkpt lat="43.3842009" lon="10.9049597"><ele>411.0</ele><time>2026-04-18T13:15:50.988Z</time></trkpt><trkpt lat="43.3842828" lon="10.9049453"><ele>411.0</ele><time>2026-04-18T13:15:51.989Z</time></trkpt><trkpt lat="43.3843638" lon="10.9049412"><ele>411.0</ele><time>2026-04-18T13:15:52.988Z</time></trkpt><trkpt lat="43.3844492" lon="10.904966"><ele>411.0</ele><time>2026-04-18T13:15:53.988Z</time></trkpt><trkpt lat="43.3845185" lon="10.9050267"><ele>411.0</ele><time>2026-04-18T13:15:54.989Z</time></trkpt><trkpt lat="43.3845863" lon="10.9051074"><ele>411.0</ele><time>2026-04-18T13:15:55.988Z</time></trkpt><trkpt lat="43.3846429" lon="10.905214"><ele>408.20000000000005</ele><time>2026-04-18T13:15:56.988Z</time></trkpt><trkpt lat="43.3847057" lon="10.9053395"><ele>405.40000000000003</ele><time>2026-04-18T13:15:57.988Z</time></trkpt><trkpt lat="43.3847735" lon="10.9054579"><ele>402.6</ele><time>2026-04-18T13:15:58.988Z</time></trkpt><trkpt lat="43.3848545" lon="10.9055577"><ele>399.8</ele><time>2026-04-18T13:15:59.988Z</time></trkpt><trkpt lat="43.3849544" lon="10.9056429"><ele>397.0</ele><time>2026-04-18T13:16:00.988Z</time></trkpt><trkpt lat="43.3850556" lon="10.9057156"><ele>397.0</ele><time>2026-04-18T13:16:01.989Z</time></trkpt><trkpt lat="43.3851547" lon="10.9057923"><ele>397.0</ele><time>2026-04-18T13:16:02.988Z</time></trkpt><trkpt lat="43.3852411" lon="10.9058822"><ele>397.0</ele><time>2026-04-18T13:16:03.988Z</time></trkpt><trkpt lat="43.3853256" lon="10.9059785"><ele>397.0</ele><time>2026-04-18T13:16:04.988Z</time></trkpt><trkpt lat="43.3853925" lon="10.9060928"><ele>397.0</ele><time>2026-04-18T13:16:05.988Z</time></trkpt><trkpt lat="43.385451" lon="10.9062119"><ele>398.20000000000005</ele><time>2026-04-18T13:16:06.988Z</time></trkpt><trkpt lat="43.3855086" lon="10.9063322"><ele>399.4</ele><time>2026-04-18T13:16:07.988Z</time></trkpt><trkpt lat="43.3855595" lon="10.906445"><ele>400.6</ele><time>2026-04-18T13:16:08.988Z</time></trkpt><trkpt lat="43.3856257" lon="10.9065376"><ele>401.79999999999995</ele><time>2026-04-18T13:16:09.988Z</time></trkpt><trkpt lat="43.3856957" lon="10.9066137"><ele>403.0</ele><time>2026-04-18T13:16:10.988Z</time></trkpt><trkpt lat="43.385767" lon="10.9066759"><ele>401.2</ele><time>2026-04-18T13:16:11.988Z</time></trkpt><trkpt lat="43.385841" lon="10.9067242"><ele>399.4</ele><time>2026-04-18T13:16:12.988Z</time></trkpt><trkpt lat="43.3859419" lon="10.9067663"><ele>397.59999999999997</ele><time>2026-04-18T13:16:14.989Z</time></trkpt><trkpt lat="43.3860092" lon="10.9067773"><ele>395.79999999999995</ele><time>2026-04-18T13:16:16.988Z</time></trkpt><trkpt lat="43.3860884" lon="10.9067363"><ele>394.0</ele><time>2026-04-18T13:16:19.988Z</time></trkpt><trkpt lat="43.3861649" lon="10.9065868"><ele>393.33333333333337</ele><time>2026-04-18T13:16:21.988Z</time></trkpt><trkpt lat="43.3861886" lon="10.9064926"><ele>392.6666666666667</ele><time>2026-04-18T13:16:22.988Z</time></trkpt><trkpt lat="43.3862062" lon="10.9063793"><ele>392.0</ele><time>2026-04-18T13:16:23.988Z</time></trkpt><trkpt lat="43.3862191" lon="10.9062554"><ele>391.33333333333337</ele><time>2026-04-18T13:16:24.988Z</time></trkpt><trkpt lat="43.3862251" lon="10.90613"><ele>390.6666666666667</ele><time>2026-04-18T13:16:25.988Z</time></trkpt><trkpt lat="43.3862223" lon="10.9059945"><ele>390.0</ele><time>2026-04-18T13:16:26.988Z</time></trkpt><trkpt lat="43.3862123" lon="10.9058556"><ele>388.8</ele><time>2026-04-18T13:16:27.988Z</time></trkpt><trkpt lat="43.3861908" lon="10.9057143"><ele>387.6</ele><time>2026-04-18T13:16:28.988Z</time></trkpt><trkpt lat="43.3861665" lon="10.9055737"><ele>386.4</ele><time>2026-04-18T13:16:29.988Z</time></trkpt><trkpt lat="43.3861462" lon="10.9054333"><ele>385.2</ele><time>2026-04-18T13:16:30.988Z</time></trkpt><trkpt lat="43.3861297" lon="10.905296"><ele>384.0</ele><time>2026-04-18T13:16:31.988Z</time></trkpt><trkpt lat="43.386132" lon="10.9051566"><ele>382.79999999999995</ele><time>2026-04-18T13:16:32.988Z</time></trkpt><trkpt lat="43.3861616" lon="10.9050247"><ele>381.59999999999997</ele><time>2026-04-18T13:16:33.988Z</time></trkpt><trkpt lat="43.3862231" lon="10.9049055"><ele>380.4</ele><time>2026-04-18T13:16:34.988Z</time></trkpt><trkpt lat="43.3863045" lon="10.9048142"><ele>379.2</ele><time>2026-04-18T13:16:35.989Z</time></trkpt><trkpt lat="43.3863749" lon="10.9047179"><ele>378.0</ele><time>2026-04-18T13:16:36.988Z</time></trkpt><trkpt lat="43.3864246" lon="10.9045938"><ele>376.25</ele><time>2026-04-18T13:16:37.988Z</time></trkpt><trkpt lat="43.3864539" lon="10.9044346"><ele>374.5</ele><time>2026-04-18T13:16:38.988Z</time></trkpt><trkpt lat="43.3864613" lon="10.904259"><ele>372.75</ele><time>2026-04-18T13:16:39.988Z</time></trkpt><trkpt lat="43.3864575" lon="10.9040789"><ele>371.0</ele><time>2026-04-18T13:16:40.988Z</time></trkpt><trkpt lat="43.3864449" lon="10.9038986"><ele>370.20000000000005</ele><time>2026-04-18T13:16:41.988Z</time></trkpt><trkpt lat="43.3864274" lon="10.9037265"><ele>369.40000000000003</ele><time>2026-04-18T13:16:42.988Z</time></trkpt><trkpt lat="43.3864148" lon="10.9035707"><ele>368.6</ele><time>2026-04-18T13:16:43.989Z</time></trkpt><trkpt lat="43.3864103" lon="10.9034365"><ele>367.8</ele><time>2026-04-18T13:16:44.988Z</time></trkpt><trkpt lat="43.386425" lon="10.9033098"><ele>367.0</ele><time>2026-04-18T13:16:45.988Z</time></trkpt><trkpt lat="43.3864706" lon="10.9032069"><ele>366.6</ele><time>2026-04-18T13:16:46.988Z</time></trkpt><trkpt lat="43.3865403" lon="10.9031108"><ele>366.20000000000005</ele><time>2026-04-18T13:16:47.988Z</time></trkpt><trkpt lat="43.3866306" lon="10.903075"><ele>365.8</ele><time>2026-04-18T13:16:48.988Z</time></trkpt><trkpt lat="43.3867282" lon="10.9030622"><ele>365.4</ele><time>2026-04-18T13:16:49.988Z</time></trkpt><trkpt lat="43.3868208" lon="10.9030653"><ele>365.0</ele><time>2026-04-18T13:16:50.988Z</time></trkpt><trkpt lat="43.3868969" lon="10.9030551"><ele>365.0</ele><time>2026-04-18T13:16:51.988Z</time></trkpt><trkpt lat="43.3869619" lon="10.9030388"><ele>365.0</ele><time>2026-04-18T13:16:52.988Z</time></trkpt><trkpt lat="43.3870596" lon="10.9030014"><ele>365.0</ele><time>2026-04-18T13:16:54.988Z</time></trkpt><trkpt lat="43.3871391" lon="10.9029486"><ele>365.0</ele><time>2026-04-18T13:16:56.988Z</time></trkpt><trkpt lat="43.3872021" lon="10.9029135"><ele>365.0</ele><time>2026-04-18T13:16:57.988Z</time></trkpt><trkpt lat="43.3872973" lon="10.9028888"><ele>365.0</ele><time>2026-04-18T13:16:58.988Z</time></trkpt><trkpt lat="43.387386" lon="10.9028614"><ele>363.4</ele><time>2026-04-18T13:16:59.988Z</time></trkpt><trkpt lat="43.3874759" lon="10.9028198"><ele>361.8</ele><time>2026-04-18T13:17:00.988Z</time></trkpt><trkpt lat="43.3875636" lon="10.9027602"><ele>360.20000000000005</ele><time>2026-04-18T13:17:01.988Z</time></trkpt><trkpt lat="43.3876551" lon="10.9026766"><ele>358.6</ele><time>2026-04-18T13:17:02.988Z</time></trkpt><trkpt lat="43.3877597" lon="10.9025778"><ele>357.0</ele><time>2026-04-18T13:17:03.988Z</time></trkpt><trkpt lat="43.3878693" lon="10.9024626"><ele>357.0</ele><time>2026-04-18T13:17:04.988Z</time></trkpt><trkpt lat="43.3879839" lon="10.9023487"><ele>357.0</ele><time>2026-04-18T13:17:05.988Z</time></trkpt><trkpt lat="43.3881002" lon="10.9022294"><ele>357.0</ele><time>2026-04-18T13:17:06.988Z</time></trkpt><trkpt lat="43.3882157" lon="10.9021084"><ele>357.0</ele><time>2026-04-18T13:17:07.988Z</time></trkpt><trkpt lat="43.3883248" lon="10.901978"><ele>354.3333333333333</ele><time>2026-04-18T13:17:08.988Z</time></trkpt><trkpt lat="43.3884322" lon="10.9018324"><ele>351.66666666666663</ele><time>2026-04-18T13:17:09.988Z</time></trkpt><trkpt lat="43.3885335" lon="10.9016717"><ele>349.0</ele><time>2026-04-18T13:17:10.988Z</time></trkpt><trkpt lat="43.3886355" lon="10.9015128"><ele>349.0</ele><time>2026-04-18T13:17:11.988Z</time></trkpt><trkpt lat="43.3887404" lon="10.9013533"><ele>349.0</ele><time>2026-04-18T13:17:12.988Z</time></trkpt><trkpt lat="43.3888533" lon="10.9012001"><ele>349.0</ele><time>2026-04-18T13:17:13.989Z</time></trkpt><trkpt lat="43.3889653" lon="10.9010503"><ele>347.0</ele><time>2026-04-18T13:17:14.988Z</time></trkpt><trkpt lat="43.389078" lon="10.9008935"><ele>345.0</ele><time>2026-04-18T13:17:15.988Z</time></trkpt><trkpt lat="43.389186" lon="10.9007379"><ele>343.0</ele><time>2026-04-18T13:17:16.988Z</time></trkpt><trkpt lat="43.3892968" lon="10.9005806"><ele>343.0</ele><time>2026-04-18T13:17:17.988Z</time></trkpt><trkpt lat="43.3894089" lon="10.9004346"><ele>343.0</ele><time>2026-04-18T13:17:18.989Z</time></trkpt><trkpt lat="43.3895147" lon="10.9002893"><ele>343.0</ele><time>2026-04-18T13:17:19.988Z</time></trkpt><trkpt lat="43.3896144" lon="10.9001517"><ele>343.0</ele><time>2026-04-18T13:17:20.988Z</time></trkpt><trkpt lat="43.3897104" lon="10.9000163"><ele>342.0</ele><time>2026-04-18T13:17:21.988Z</time></trkpt><trkpt lat="43.3898041" lon="10.899889"><ele>341.0</ele><time>2026-04-18T13:17:22.988Z</time></trkpt><trkpt lat="43.3898997" lon="10.8997466"><ele>340.0</ele><time>2026-04-18T13:17:23.988Z</time></trkpt><trkpt lat="43.389994" lon="10.8996009"><ele>339.0</ele><time>2026-04-18T13:17:24.988Z</time></trkpt><trkpt lat="43.3900874" lon="10.899452"><ele>339.0</ele><time>2026-04-18T13:17:25.989Z</time></trkpt><trkpt lat="43.3901823" lon="10.8992972"><ele>339.0</ele><time>2026-04-18T13:17:26.988Z</time></trkpt><trkpt lat="43.3902781" lon="10.8991384"><ele>339.0</ele><time>2026-04-18T13:17:27.988Z</time></trkpt><trkpt lat="43.3903777" lon="10.898981"><ele>339.0</ele><time>2026-04-18T13:17:28.988Z</time></trkpt><trkpt lat="43.3904851" lon="10.8988372"><ele>338.0</ele><time>2026-04-18T13:17:29.988Z</time></trkpt><trkpt lat="43.3905989" lon="10.8986943"><ele>337.0</ele><time>2026-04-18T13:17:30.988Z</time></trkpt><trkpt lat="43.3907254" lon="10.8985538"><ele>336.0</ele><time>2026-04-18T13:17:31.988Z</time></trkpt><trkpt lat="43.3908587" lon="10.8984114"><ele>334.3333333333333</ele><time>2026-04-18T13:17:32.988Z</time></trkpt><trkpt lat="43.390992" lon="10.8982618"><ele>332.66666666666663</ele><time>2026-04-18T13:17:33.988Z</time></trkpt><trkpt lat="43.3911186" lon="10.8981117"><ele>331.0</ele><time>2026-04-18T13:17:34.988Z</time></trkpt><trkpt lat="43.3912445" lon="10.8979519"><ele>329.66666666666663</ele><time>2026-04-18T13:17:35.988Z</time></trkpt><trkpt lat="43.3913717" lon="10.8977864"><ele>328.3333333333333</ele><time>2026-04-18T13:17:36.988Z</time></trkpt><trkpt lat="43.3914963" lon="10.8976158"><ele>327.0</ele><time>2026-04-18T13:17:37.988Z</time></trkpt><trkpt lat="43.3916227" lon="10.8974501"><ele>327.0</ele><time>2026-04-18T13:17:38.988Z</time></trkpt><trkpt lat="43.3917472" lon="10.8972867"><ele>327.0</ele><time>2026-04-18T13:17:39.988Z</time></trkpt><trkpt lat="43.3918644" lon="10.8971173"><ele>327.0</ele><time>2026-04-18T13:17:40.988Z</time></trkpt><trkpt lat="43.3919672" lon="10.8969518"><ele>327.0</ele><time>2026-04-18T13:17:41.988Z</time></trkpt><trkpt lat="43.3920562" lon="10.8967863"><ele>327.0</ele><time>2026-04-18T13:17:42.988Z</time></trkpt><trkpt lat="43.3921392" lon="10.8966091"><ele>327.0</ele><time>2026-04-18T13:17:43.988Z</time></trkpt><trkpt lat="43.3922127" lon="10.8964436"><ele>327.0</ele><time>2026-04-18T13:17:44.988Z</time></trkpt><trkpt lat="43.3922729" lon="10.8962845"><ele>327.3333333333333</ele><time>2026-04-18T13:17:45.988Z</time></trkpt><trkpt lat="43.3923235" lon="10.896141"><ele>327.6666666666667</ele><time>2026-04-18T13:17:46.988Z</time></trkpt><trkpt lat="43.392374" lon="10.8960289"><ele>328.0</ele><time>2026-04-18T13:17:47.988Z</time></trkpt><trkpt lat="43.3924213" lon="10.8959424"><ele>328.33333333333337</ele><time>2026-04-18T13:17:48.988Z</time></trkpt><trkpt lat="43.392483" lon="10.8958895"><ele>328.6666666666667</ele><time>2026-04-18T13:17:49.988Z</time></trkpt><trkpt lat="43.3925633" lon="10.8958803"><ele>329.0</ele><time>2026-04-18T13:17:50.988Z</time></trkpt><trkpt lat="43.3926542" lon="10.895899"><ele>329.0</ele><time>2026-04-18T13:17:51.988Z</time></trkpt><trkpt lat="43.3927638" lon="10.8959214"><ele>329.0</ele><time>2026-04-18T13:17:52.988Z</time></trkpt><trkpt lat="43.3928809" lon="10.8959259"><ele>329.0</ele><time>2026-04-18T13:17:53.988Z</time></trkpt><trkpt lat="43.3929947" lon="10.8959225"><ele>329.0</ele><time>2026-04-18T13:17:54.989Z</time></trkpt><trkpt lat="43.3931096" lon="10.8959191"><ele>330.0</ele><time>2026-04-18T13:17:55.988Z</time></trkpt><trkpt lat="43.393224" lon="10.8959014"><ele>331.0</ele><time>2026-04-18T13:17:56.989Z</time></trkpt><trkpt lat="43.393343" lon="10.8958754"><ele>332.0</ele><time>2026-04-18T13:17:57.989Z</time></trkpt><trkpt lat="43.3934736" lon="10.895834"><ele>333.0</ele><time>2026-04-18T13:17:58.988Z</time></trkpt><trkpt lat="43.3935973" lon="10.8957856"><ele>333.0</ele><time>2026-04-18T13:17:59.988Z</time></trkpt><trkpt lat="43.3937332" lon="10.8957173"><ele>333.0</ele><time>2026-04-18T13:18:00.988Z</time></trkpt><trkpt lat="43.3938707" lon="10.8956397"><ele>333.0</ele><time>2026-04-18T13:18:01.988Z</time></trkpt><trkpt lat="43.3939988" lon="10.8955615"><ele>333.0</ele><time>2026-04-18T13:18:02.988Z</time></trkpt><trkpt lat="43.3941214" lon="10.895478"><ele>332.0</ele><time>2026-04-18T13:18:03.988Z</time></trkpt><trkpt lat="43.3942387" lon="10.8953834"><ele>331.0</ele><time>2026-04-18T13:18:04.988Z</time></trkpt><trkpt lat="43.3943579" lon="10.8952818"><ele>330.0</ele><time>2026-04-18T13:18:05.988Z</time></trkpt><trkpt lat="43.3944757" lon="10.8951635"><ele>329.0</ele><time>2026-04-18T13:18:06.988Z</time></trkpt><trkpt lat="43.3945874" lon="10.8950284"><ele>324.6666666666667</ele><time>2026-04-18T13:18:07.988Z</time></trkpt><trkpt lat="43.3947062" lon="10.8948964"><ele>320.3333333333333</ele><time>2026-04-18T13:18:08.988Z</time></trkpt><trkpt lat="43.39483" lon="10.8947645"><ele>316.0</ele><time>2026-04-18T13:18:09.988Z</time></trkpt><trkpt lat="43.3949528" lon="10.8946446"><ele>316.0</ele><time>2026-04-18T13:18:10.988Z</time></trkpt><trkpt lat="43.3950836" lon="10.8945306"><ele>316.0</ele><time>2026-04-18T13:18:11.988Z</time></trkpt><trkpt lat="43.3952276" lon="10.8944262"><ele>316.0</ele><time>2026-04-18T13:18:12.988Z</time></trkpt><trkpt lat="43.3953766" lon="10.8943269"><ele>314.3333333333333</ele><time>2026-04-18T13:18:13.988Z</time></trkpt><trkpt lat="43.3955305" lon="10.8942323"><ele>312.6666666666667</ele><time>2026-04-18T13:18:14.988Z</time></trkpt><trkpt lat="43.3956769" lon="10.894138"><ele>311.0</ele><time>2026-04-18T13:18:15.989Z</time></trkpt><trkpt lat="43.3958211" lon="10.8940538"><ele>311.0</ele><time>2026-04-18T13:18:16.988Z</time></trkpt><trkpt lat="43.3959635" lon="10.8939634"><ele>311.0</ele><time>2026-04-18T13:18:17.988Z</time></trkpt><trkpt lat="43.396111" lon="10.8938742"><ele>311.0</ele><time>2026-04-18T13:18:18.988Z</time></trkpt><trkpt lat="43.3962541" lon="10.893785"><ele>306.33333333333337</ele><time>2026-04-18T13:18:19.988Z</time></trkpt><trkpt lat="43.3963903" lon="10.8936934"><ele>301.6666666666667</ele><time>2026-04-18T13:18:20.989Z</time></trkpt><trkpt lat="43.3965271" lon="10.8936046"><ele>297.0</ele><time>2026-04-18T13:18:21.989Z</time></trkpt><trkpt lat="43.3966642" lon="10.8935226"><ele>297.0</ele><time>2026-04-18T13:18:22.988Z</time></trkpt><trkpt lat="43.3967969" lon="10.8934515"><ele>297.0</ele><time>2026-04-18T13:18:23.989Z</time></trkpt><trkpt lat="43.3969311" lon="10.8933949"><ele>297.0</ele><time>2026-04-18T13:18:24.988Z</time></trkpt><trkpt lat="43.3970679" lon="10.8933576"><ele>297.0</ele><time>2026-04-18T13:18:25.988Z</time></trkpt><trkpt lat="43.3972133" lon="10.8933391"><ele>298.5</ele><time>2026-04-18T13:18:26.988Z</time></trkpt><trkpt lat="43.3973614" lon="10.893337"><ele>300.0</ele><time>2026-04-18T13:18:27.988Z</time></trkpt><trkpt lat="43.3975062" lon="10.8933446"><ele>301.5</ele><time>2026-04-18T13:18:28.988Z</time></trkpt><trkpt lat="43.3976438" lon="10.8933528"><ele>303.0</ele><time>2026-04-18T13:18:29.988Z</time></trkpt><trkpt lat="43.3977824" lon="10.8933555"><ele>303.0</ele><time>2026-04-18T13:18:30.988Z</time></trkpt><trkpt lat="43.3979198" lon="10.8933497"><ele>303.0</ele><time>2026-04-18T13:18:31.988Z</time></trkpt><trkpt lat="43.3980597" lon="10.8933184"><ele>303.0</ele><time>2026-04-18T13:18:32.988Z</time></trkpt><trkpt lat="43.3982018" lon="10.8932736"><ele>303.0</ele><time>2026-04-18T13:18:33.988Z</time></trkpt><trkpt lat="43.3983336" lon="10.8932189"><ele>300.75</ele><time>2026-04-18T13:18:34.988Z</time></trkpt><trkpt lat="43.3984639" lon="10.8931666"><ele>298.5</ele><time>2026-04-18T13:18:35.988Z</time></trkpt><trkpt lat="43.398593" lon="10.8931113"><ele>296.25</ele><time>2026-04-18T13:18:36.988Z</time></trkpt><trkpt lat="43.3987271" lon="10.8930747"><ele>294.0</ele><time>2026-04-18T13:18:37.988Z</time></trkpt><trkpt lat="43.398864" lon="10.8930541"><ele>290.5</ele><time>2026-04-18T13:18:38.988Z</time></trkpt><trkpt lat="43.3989926" lon="10.8930364"><ele>287.0</ele><time>2026-04-18T13:18:39.988Z</time></trkpt><trkpt lat="43.3991132" lon="10.8930226"><ele>283.5</ele><time>2026-04-18T13:18:40.988Z</time></trkpt><trkpt lat="43.3992181" lon="10.8930198"><ele>280.0</ele><time>2026-04-18T13:18:41.988Z</time></trkpt><trkpt lat="43.3993226" lon="10.8930345"><ele>280.0</ele><time>2026-04-18T13:18:42.988Z</time></trkpt><trkpt lat="43.3994126" lon="10.8930264"><ele>280.0</ele><time>2026-04-18T13:18:43.988Z</time></trkpt><trkpt lat="43.3995033" lon="10.8929634"><ele>280.0</ele><time>2026-04-18T13:18:44.989Z</time></trkpt><trkpt lat="43.3995868" lon="10.8928611"><ele>280.0</ele><time>2026-04-18T13:18:45.988Z</time></trkpt><trkpt lat="43.3996749" lon="10.8927558"><ele>280.0</ele><time>2026-04-18T13:18:46.988Z</time></trkpt><trkpt lat="43.3997833" lon="10.8926537"><ele>280.5</ele><time>2026-04-18T13:18:47.988Z</time></trkpt><trkpt lat="43.3998959" lon="10.8925431"><ele>281.0</ele><time>2026-04-18T13:18:48.989Z</time></trkpt><trkpt lat="43.3999908" lon="10.8924038"><ele>281.5</ele><time>2026-04-18T13:18:49.988Z</time></trkpt><trkpt lat="43.4000975" lon="10.8922717"><ele>282.0</ele><time>2026-04-18T13:18:50.988Z</time></trkpt><trkpt lat="43.4002046" lon="10.8921507"><ele>282.0</ele><time>2026-04-18T13:18:51.988Z</time></trkpt><trkpt lat="43.400328" lon="10.8920417"><ele>282.0</ele><time>2026-04-18T13:18:52.988Z</time></trkpt><trkpt lat="43.4004517" lon="10.8919539"><ele>282.0</ele><time>2026-04-18T13:18:53.989Z</time></trkpt><trkpt lat="43.4005819" lon="10.8918955"><ele>282.0</ele><time>2026-04-18T13:18:54.988Z</time></trkpt><trkpt lat="43.4007151" lon="10.8918579"><ele>277.5</ele><time>2026-04-18T13:18:55.988Z</time></trkpt><trkpt lat="43.4008495" lon="10.8918507"><ele>273.0</ele><time>2026-04-18T13:18:56.988Z</time></trkpt><trkpt lat="43.4009904" lon="10.8918777"><ele>268.5</ele><time>2026-04-18T13:18:57.988Z</time></trkpt><trkpt lat="43.4011298" lon="10.8919457"><ele>264.0</ele><time>2026-04-18T13:18:58.988Z</time></trkpt><trkpt lat="43.4012654" lon="10.8920301"><ele>263.75</ele><time>2026-04-18T13:18:59.988Z</time></trkpt><trkpt lat="43.4013939" lon="10.8921172"><ele>263.5</ele><time>2026-04-18T13:19:00.988Z</time></trkpt><trkpt lat="43.4015246" lon="10.8921968"><ele>263.25</ele><time>2026-04-18T13:19:01.988Z</time></trkpt><trkpt lat="43.4016575" lon="10.8922662"><ele>263.0</ele><time>2026-04-18T13:19:02.988Z</time></trkpt><trkpt lat="43.4017876" lon="10.8923265"><ele>263.0</ele><time>2026-04-18T13:19:03.988Z</time></trkpt><trkpt lat="43.401919" lon="10.8923929"><ele>263.0</ele><time>2026-04-18T13:19:04.988Z</time></trkpt><trkpt lat="43.4020406" lon="10.8924823"><ele>263.0</ele><time>2026-04-18T13:19:05.988Z</time></trkpt><trkpt lat="43.4021523" lon="10.8925761"><ele>263.0</ele><time>2026-04-18T13:19:06.988Z</time></trkpt><trkpt lat="43.402251" lon="10.8926625"><ele>260.6</ele><time>2026-04-18T13:19:07.988Z</time></trkpt><trkpt lat="43.4023466" lon="10.8927254"><ele>258.20000000000005</ele><time>2026-04-18T13:19:08.988Z</time></trkpt><trkpt lat="43.4024401" lon="10.8927592"><ele>255.8</ele><time>2026-04-18T13:19:09.988Z</time></trkpt><trkpt lat="43.4025289" lon="10.8927516"><ele>253.4</ele><time>2026-04-18T13:19:10.988Z</time></trkpt><trkpt lat="43.4026093" lon="10.8927027"><ele>251.0</ele><time>2026-04-18T13:19:11.988Z</time></trkpt><trkpt lat="43.4026744" lon="10.8926082"><ele>253.60000000000002</ele><time>2026-04-18T13:19:12.989Z</time></trkpt><trkpt lat="43.4027302" lon="10.892479"><ele>256.20000000000005</ele><time>2026-04-18T13:19:13.988Z</time></trkpt><trkpt lat="43.4027722" lon="10.8923477"><ele>258.79999999999995</ele><time>2026-04-18T13:19:14.989Z</time></trkpt><trkpt lat="43.4028131" lon="10.8922138"><ele>261.4</ele><time>2026-04-18T13:19:15.988Z</time></trkpt><trkpt lat="43.4028599" lon="10.8920894"><ele>264.0</ele><time>2026-04-18T13:19:16.988Z</time></trkpt><trkpt lat="43.4029176" lon="10.891977"><ele>264.0</ele><time>2026-04-18T13:19:17.988Z</time></trkpt><trkpt lat="43.4029974" lon="10.8918933"><ele>264.0</ele><time>2026-04-18T13:19:18.988Z</time></trkpt><trkpt lat="43.4030865" lon="10.8918474"><ele>264.0</ele><time>2026-04-18T13:19:19.988Z</time></trkpt><trkpt lat="43.4031869" lon="10.8918394"><ele>264.0</ele><time>2026-04-18T13:19:20.989Z</time></trkpt><trkpt lat="43.4033038" lon="10.8918662"><ele>264.0</ele><time>2026-04-18T13:19:21.988Z</time></trkpt><trkpt lat="43.403428" lon="10.8919233"><ele>261.0</ele><time>2026-04-18T13:19:22.988Z</time></trkpt><trkpt lat="43.4035482" lon="10.8919915"><ele>258.0</ele><time>2026-04-18T13:19:23.988Z</time></trkpt><trkpt lat="43.4036855" lon="10.8920568"><ele>255.0</ele><time>2026-04-18T13:19:24.988Z</time></trkpt><trkpt lat="43.40382" lon="10.892127"><ele>252.0</ele><time>2026-04-18T13:19:25.988Z</time></trkpt><trkpt lat="43.4039546" lon="10.8922014"><ele>250.0</ele><time>2026-04-18T13:19:26.988Z</time></trkpt><trkpt lat="43.4040877" lon="10.892272"><ele>248.0</ele><time>2026-04-18T13:19:27.988Z</time></trkpt><trkpt lat="43.4042256" lon="10.8923404"><ele>246.0</ele><time>2026-04-18T13:19:28.988Z</time></trkpt><trkpt lat="43.4043698" lon="10.8923871"><ele>244.0</ele><time>2026-04-18T13:19:29.988Z</time></trkpt><trkpt lat="43.4045195" lon="10.8924234"><ele>243.75</ele><time>2026-04-18T13:19:30.988Z</time></trkpt><trkpt lat="43.4046693" lon="10.8924463"><ele>243.5</ele><time>2026-04-18T13:19:31.988Z</time></trkpt><trkpt lat="43.4048113" lon="10.892464"><ele>243.25</ele><time>2026-04-18T13:19:32.988Z</time></trkpt><trkpt lat="43.40495" lon="10.8924869"><ele>243.0</ele><time>2026-04-18T13:19:33.989Z</time></trkpt><trkpt lat="43.4050805" lon="10.8925047"><ele>243.0</ele><time>2026-04-18T13:19:34.988Z</time></trkpt><trkpt lat="43.4052123" lon="10.8925115"><ele>243.0</ele><time>2026-04-18T13:19:35.988Z</time></trkpt><trkpt lat="43.4053408" lon="10.8924963"><ele>243.0</ele><time>2026-04-18T13:19:36.988Z</time></trkpt><trkpt lat="43.4054661" lon="10.8924617"><ele>243.0</ele><time>2026-04-18T13:19:37.988Z</time></trkpt><trkpt lat="43.4055976" lon="10.8924042"><ele>239.25</ele><time>2026-04-18T13:19:38.988Z</time></trkpt><trkpt lat="43.4057334" lon="10.8923325"><ele>235.5</ele><time>2026-04-18T13:19:39.988Z</time></trkpt><trkpt lat="43.4058627" lon="10.8922615"><ele>231.75</ele><time>2026-04-18T13:19:40.989Z</time></trkpt><trkpt lat="43.4059898" lon="10.8921765"><ele>228.0</ele><time>2026-04-18T13:19:41.988Z</time></trkpt><trkpt lat="43.4061085" lon="10.8920774"><ele>228.0</ele><time>2026-04-18T13:19:42.988Z</time></trkpt><trkpt lat="43.4062197" lon="10.8919634"><ele>228.0</ele><time>2026-04-18T13:19:43.988Z</time></trkpt><trkpt lat="43.4063219" lon="10.8918334"><ele>228.0</ele><time>2026-04-18T13:19:44.988Z</time></trkpt><trkpt lat="43.4064168" lon="10.8916991"><ele>228.0</ele><time>2026-04-18T13:19:45.988Z</time></trkpt><trkpt lat="43.4064996" lon="10.8915736"><ele>226.25</ele><time>2026-04-18T13:19:46.988Z</time></trkpt><trkpt lat="43.4065828" lon="10.8914535"><ele>224.5</ele><time>2026-04-18T13:19:47.988Z</time></trkpt><trkpt lat="43.4066584" lon="10.891325"><ele>222.75</ele><time>2026-04-18T13:19:48.988Z</time></trkpt><trkpt lat="43.4067199" lon="10.8911755"><ele>221.0</ele><time>2026-04-18T13:19:49.989Z</time></trkpt><trkpt lat="43.4067702" lon="10.8910136"><ele>223.25</ele><time>2026-04-18T13:19:50.988Z</time></trkpt><trkpt lat="43.4068117" lon="10.8908464"><ele>225.5</ele><time>2026-04-18T13:19:51.988Z</time></trkpt><trkpt lat="43.4068471" lon="10.890676"><ele>227.75</ele><time>2026-04-18T13:19:52.988Z</time></trkpt><trkpt lat="43.4068943" lon="10.8905089"><ele>230.0</ele><time>2026-04-18T13:19:53.988Z</time></trkpt><trkpt lat="43.4069611" lon="10.8903587"><ele>230.0</ele><time>2026-04-18T13:19:54.988Z</time></trkpt><trkpt lat="43.4070447" lon="10.8902231"><ele>230.0</ele><time>2026-04-18T13:19:55.988Z</time></trkpt><trkpt lat="43.4071444" lon="10.8901078"><ele>230.0</ele><time>2026-04-18T13:19:56.988Z</time></trkpt><trkpt lat="43.4072589" lon="10.8900068"><ele>230.0</ele><time>2026-04-18T13:19:57.988Z</time></trkpt><trkpt lat="43.4073834" lon="10.8899234"><ele>226.25</ele><time>2026-04-18T13:19:58.988Z</time></trkpt><trkpt lat="43.4075092" lon="10.8898343"><ele>222.5</ele><time>2026-04-18T13:19:59.988Z</time></trkpt><trkpt lat="43.4076249" lon="10.8897424"><ele>218.75</ele><time>2026-04-18T13:20:00.988Z</time></trkpt><trkpt lat="43.4077085" lon="10.8896297"><ele>215.0</ele><time>2026-04-18T13:20:01.988Z</time></trkpt><trkpt lat="43.4077744" lon="10.8895204"><ele>215.0</ele><time>2026-04-18T13:20:02.988Z</time></trkpt><trkpt lat="43.4078399" lon="10.8893999"><ele>215.0</ele><time>2026-04-18T13:20:03.988Z</time></trkpt><trkpt lat="43.4079164" lon="10.8892722"><ele>215.0</ele><time>2026-04-18T13:20:04.988Z</time></trkpt><trkpt lat="43.4080097" lon="10.8891719"><ele>215.0</ele><time>2026-04-18T13:20:05.988Z</time></trkpt><trkpt lat="43.4081159" lon="10.889094"><ele>212.5</ele><time>2026-04-18T13:20:06.988Z</time></trkpt><trkpt lat="43.4082328" lon="10.8890454"><ele>210.0</ele><time>2026-04-18T13:20:07.988Z</time></trkpt><trkpt lat="43.4083503" lon="10.8889942"><ele>207.5</ele><time>2026-04-18T13:20:08.988Z</time></trkpt><trkpt lat="43.4084691" lon="10.8889318"><ele>205.0</ele><time>2026-04-18T13:20:09.988Z</time></trkpt><trkpt lat="43.4085814" lon="10.8888491"><ele>205.0</ele><time>2026-04-18T13:20:10.989Z</time></trkpt><trkpt lat="43.40869" lon="10.8887489"><ele>205.0</ele><time>2026-04-18T13:20:11.988Z</time></trkpt><trkpt lat="43.4088023" lon="10.8886386"><ele>205.0</ele><time>2026-04-18T13:20:12.988Z</time></trkpt><trkpt lat="43.4089154" lon="10.8885243"><ele>205.0</ele><time>2026-04-18T13:20:13.988Z</time></trkpt><trkpt lat="43.4090274" lon="10.8884151"><ele>203.25</ele><time>2026-04-18T13:20:14.988Z</time></trkpt><trkpt lat="43.4091332" lon="10.8882952"><ele>201.5</ele><time>2026-04-18T13:20:15.989Z</time></trkpt><trkpt lat="43.4092237" lon="10.8881623"><ele>199.75</ele><time>2026-04-18T13:20:16.988Z</time></trkpt><trkpt lat="43.409307" lon="10.8880008"><ele>198.0</ele><time>2026-04-18T13:20:17.988Z</time></trkpt><trkpt lat="43.4093783" lon="10.8878302"><ele>198.0</ele><time>2026-04-18T13:20:18.988Z</time></trkpt><trkpt lat="43.40945" lon="10.8876573"><ele>198.0</ele><time>2026-04-18T13:20:19.988Z</time></trkpt><trkpt lat="43.4095156" lon="10.8874801"><ele>198.0</ele><time>2026-04-18T13:20:20.988Z</time></trkpt><trkpt lat="43.4095826" lon="10.8873098"><ele>198.0</ele><time>2026-04-18T13:20:21.988Z</time></trkpt><trkpt lat="43.4096465" lon="10.8871464"><ele>195.5</ele><time>2026-04-18T13:20:22.988Z</time></trkpt><trkpt lat="43.409706" lon="10.8869816"><ele>193.0</ele><time>2026-04-18T13:20:23.988Z</time></trkpt><trkpt lat="43.4097644" lon="10.8868179"><ele>190.5</ele><time>2026-04-18T13:20:24.988Z</time></trkpt><trkpt lat="43.4098346" lon="10.8866613"><ele>188.0</ele><time>2026-04-18T13:20:25.988Z</time></trkpt><trkpt lat="43.4099177" lon="10.8865225"><ele>188.0</ele><time>2026-04-18T13:20:26.988Z</time></trkpt><trkpt lat="43.4100122" lon="10.8864027"><ele>188.0</ele><time>2026-04-18T13:20:27.988Z</time></trkpt><trkpt lat="43.4101241" lon="10.886312"><ele>188.0</ele><time>2026-04-18T13:20:28.988Z</time></trkpt><trkpt lat="43.410233" lon="10.8862161"><ele>188.0</ele><time>2026-04-18T13:20:29.988Z</time></trkpt><trkpt lat="43.4103269" lon="10.8860773"><ele>188.0</ele><time>2026-04-18T13:20:30.988Z</time></trkpt><trkpt lat="43.4104033" lon="10.8859322"><ele>188.0</ele><time>2026-04-18T13:20:31.988Z</time></trkpt><trkpt lat="43.4104816" lon="10.8857946"><ele>188.0</ele><time>2026-04-18T13:20:32.988Z</time></trkpt><trkpt lat="43.4105755" lon="10.8856669"><ele>188.0</ele><time>2026-04-18T13:20:33.988Z</time></trkpt><trkpt lat="43.4106952" lon="10.8855604"><ele>186.25</ele><time>2026-04-18T13:20:34.988Z</time></trkpt><trkpt lat="43.4108225" lon="10.8854815"><ele>184.5</ele><time>2026-04-18T13:20:35.988Z</time></trkpt><trkpt lat="43.4109527" lon="10.8854221"><ele>182.75</ele><time>2026-04-18T13:20:36.988Z</time></trkpt><trkpt lat="43.4110745" lon="10.8853504"><ele>181.0</ele><time>2026-04-18T13:20:37.988Z</time></trkpt><trkpt lat="43.4111937" lon="10.8852575"><ele>181.0</ele><time>2026-04-18T13:20:38.988Z</time></trkpt><trkpt lat="43.4113136" lon="10.885134"><ele>181.0</ele><time>2026-04-18T13:20:39.989Z</time></trkpt><trkpt lat="43.4114199" lon="10.8849971"><ele>181.0</ele><time>2026-04-18T13:20:40.989Z</time></trkpt><trkpt lat="43.4115152" lon="10.8848531"><ele>181.0</ele><time>2026-04-18T13:20:41.988Z</time></trkpt><trkpt lat="43.4116163" lon="10.8847027"><ele>180.75</ele><time>2026-04-18T13:20:42.988Z</time></trkpt><trkpt lat="43.4117136" lon="10.8845618"><ele>180.5</ele><time>2026-04-18T13:20:43.988Z</time></trkpt><trkpt lat="43.4118004" lon="10.8844147"><ele>180.25</ele><time>2026-04-18T13:20:44.988Z</time></trkpt><trkpt lat="43.4118791" lon="10.8842488"><ele>180.0</ele><time>2026-04-18T13:20:45.988Z</time></trkpt><trkpt lat="43.4119479" lon="10.8840704"><ele>180.0</ele><time>2026-04-18T13:20:46.989Z</time></trkpt><trkpt lat="43.4120119" lon="10.8838664"><ele>180.0</ele><time>2026-04-18T13:20:47.988Z</time></trkpt><trkpt lat="43.4120674" lon="10.8836504"><ele>180.0</ele><time>2026-04-18T13:20:48.988Z</time></trkpt><trkpt lat="43.4121137" lon="10.8834466"><ele>178.75</ele><time>2026-04-18T13:20:49.988Z</time></trkpt><trkpt lat="43.4121575" lon="10.8832541"><ele>177.5</ele><time>2026-04-18T13:20:50.988Z</time></trkpt><trkpt lat="43.4122007" lon="10.8830733"><ele>176.25</ele><time>2026-04-18T13:20:51.988Z</time></trkpt><trkpt lat="43.4122481" lon="10.8829041"><ele>175.0</ele><time>2026-04-18T13:20:52.988Z</time></trkpt><trkpt lat="43.4123136" lon="10.8827482"><ele>175.0</ele><time>2026-04-18T13:20:53.988Z</time></trkpt><trkpt lat="43.4123858" lon="10.8826006"><ele>175.0</ele><time>2026-04-18T13:20:54.988Z</time></trkpt><trkpt lat="43.4124848" lon="10.8824812"><ele>175.0</ele><time>2026-04-18T13:20:55.988Z</time></trkpt><trkpt lat="43.4125945" lon="10.882378"><ele>175.0</ele><time>2026-04-18T13:20:56.988Z</time></trkpt><trkpt lat="43.4127186" lon="10.8822902"><ele>175.5</ele><time>2026-04-18T13:20:57.988Z</time></trkpt><trkpt lat="43.4128515" lon="10.8822281"><ele>176.0</ele><time>2026-04-18T13:20:58.988Z</time></trkpt><trkpt lat="43.4129945" lon="10.8821795"><ele>176.5</ele><time>2026-04-18T13:20:59.988Z</time></trkpt><trkpt lat="43.4131443" lon="10.882158"><ele>177.0</ele><time>2026-04-18T13:21:00.988Z</time></trkpt><trkpt lat="43.4132903" lon="10.8821672"><ele>177.0</ele><time>2026-04-18T13:21:01.989Z</time></trkpt><trkpt lat="43.4134343" lon="10.8821742"><ele>177.0</ele><time>2026-04-18T13:21:02.988Z</time></trkpt><trkpt lat="43.4135856" lon="10.8821648"><ele>177.0</ele><time>2026-04-18T13:21:03.988Z</time></trkpt><trkpt lat="43.4137402" lon="10.882143"><ele>175.33333333333334</ele><time>2026-04-18T13:21:04.988Z</time></trkpt><trkpt lat="43.4139033" lon="10.8821068"><ele>173.66666666666669</ele><time>2026-04-18T13:21:05.988Z</time></trkpt><trkpt lat="43.4140704" lon="10.8820572"><ele>172.0</ele><time>2026-04-18T13:21:06.988Z</time></trkpt><trkpt lat="43.4142393" lon="10.8819988"><ele>172.0</ele><time>2026-04-18T13:21:07.988Z</time></trkpt><trkpt lat="43.4144108" lon="10.8819455"><ele>172.0</ele><time>2026-04-18T13:21:08.987Z</time></trkpt><trkpt lat="43.4145746" lon="10.8818916"><ele>172.0</ele><time>2026-04-18T13:21:09.988Z</time></trkpt><trkpt lat="43.4147419" lon="10.8818347"><ele>172.33333333333334</ele><time>2026-04-18T13:21:10.988Z</time></trkpt><trkpt lat="43.4149029" lon="10.881779"><ele>172.66666666666666</ele><time>2026-04-18T13:21:11.988Z</time></trkpt><trkpt lat="43.4150646" lon="10.8817276"><ele>173.0</ele><time>2026-04-18T13:21:12.988Z</time></trkpt><trkpt lat="43.4152249" lon="10.8816764"><ele>173.0</ele><time>2026-04-18T13:21:13.989Z</time></trkpt><trkpt lat="43.4153841" lon="10.8816269"><ele>173.0</ele><time>2026-04-18T13:21:14.988Z</time></trkpt><trkpt lat="43.4155467" lon="10.8815675"><ele>173.0</ele><time>2026-04-18T13:21:15.988Z</time></trkpt><trkpt lat="43.4157133" lon="10.8815151"><ele>171.66666666666666</ele><time>2026-04-18T13:21:16.988Z</time></trkpt><trkpt lat="43.4158757" lon="10.8814626"><ele>170.33333333333334</ele><time>2026-04-18T13:21:17.988Z</time></trkpt><trkpt lat="43.4160475" lon="10.8814016"><ele>169.0</ele><time>2026-04-18T13:21:18.988Z</time></trkpt><trkpt lat="43.4162132" lon="10.8813485"><ele>168.0</ele><time>2026-04-18T13:21:19.988Z</time></trkpt><trkpt lat="43.4163804" lon="10.8812922"><ele>167.0</ele><time>2026-04-18T13:21:20.988Z</time></trkpt><trkpt lat="43.4165484" lon="10.8812382"><ele>166.0</ele><time>2026-04-18T13:21:21.988Z</time></trkpt><trkpt lat="43.4167183" lon="10.8811857"><ele>166.0</ele><time>2026-04-18T13:21:22.988Z</time></trkpt><trkpt lat="43.4168872" lon="10.8811281"><ele>166.0</ele><time>2026-04-18T13:21:23.988Z</time></trkpt><trkpt lat="43.4170501" lon="10.8810541"><ele>166.0</ele><time>2026-04-18T13:21:24.988Z</time></trkpt><trkpt lat="43.417214" lon="10.8809619"><ele>166.0</ele><time>2026-04-18T13:21:25.988Z</time></trkpt><trkpt lat="43.4173756" lon="10.8808563"><ele>166.0</ele><time>2026-04-18T13:21:26.988Z</time></trkpt><trkpt lat="43.41754" lon="10.8807507"><ele>166.0</ele><time>2026-04-18T13:21:27.988Z</time></trkpt><trkpt lat="43.4177039" lon="10.8806411"><ele>166.0</ele><time>2026-04-18T13:21:28.988Z</time></trkpt><trkpt lat="43.4178664" lon="10.8805211"><ele>166.0</ele><time>2026-04-18T13:21:29.988Z</time></trkpt><trkpt lat="43.4180307" lon="10.8804063"><ele>166.0</ele><time>2026-04-18T13:21:30.988Z</time></trkpt><trkpt lat="43.4181906" lon="10.8802961"><ele>165.66666666666669</ele><time>2026-04-18T13:21:31.988Z</time></trkpt><trkpt lat="43.4183477" lon="10.8801843"><ele>165.33333333333334</ele><time>2026-04-18T13:21:32.988Z</time></trkpt><trkpt lat="43.4185078" lon="10.8800748"><ele>165.0</ele><time>2026-04-18T13:21:33.988Z</time></trkpt><trkpt lat="43.4186657" lon="10.8799673"><ele>165.0</ele><time>2026-04-18T13:21:34.988Z</time></trkpt><trkpt lat="43.4188232" lon="10.8798631"><ele>165.0</ele><time>2026-04-18T13:21:35.988Z</time></trkpt><trkpt lat="43.4189774" lon="10.8797552"><ele>165.0</ele><time>2026-04-18T13:21:36.988Z</time></trkpt><trkpt lat="43.4191303" lon="10.8796493"><ele>165.0</ele><time>2026-04-18T13:21:37.988Z</time></trkpt><trkpt lat="43.4192829" lon="10.8795434"><ele>165.0</ele><time>2026-04-18T13:21:38.988Z</time></trkpt><trkpt lat="43.4194359" lon="10.879438"><ele>165.0</ele><time>2026-04-18T13:21:39.988Z</time></trkpt><trkpt lat="43.4195849" lon="10.8793299"><ele>164.33333333333334</ele><time>2026-04-18T13:21:40.988Z</time></trkpt><trkpt lat="43.419733" lon="10.8792232"><ele>163.66666666666669</ele><time>2026-04-18T13:21:41.989Z</time></trkpt><trkpt lat="43.4198813" lon="10.8791202"><ele>163.0</ele><time>2026-04-18T13:21:42.988Z</time></trkpt><trkpt lat="43.4200285" lon="10.8790193"><ele>163.0</ele><time>2026-04-18T13:21:43.988Z</time></trkpt><trkpt lat="43.4201739" lon="10.8789231"><ele>163.0</ele><time>2026-04-18T13:21:44.988Z</time></trkpt><trkpt lat="43.4203196" lon="10.8788206"><ele>163.0</ele><time>2026-04-18T13:21:45.988Z</time></trkpt><trkpt lat="43.4204666" lon="10.8787191"><ele>162.33333333333334</ele><time>2026-04-18T13:21:46.988Z</time></trkpt><trkpt lat="43.4206173" lon="10.8786182"><ele>161.66666666666666</ele><time>2026-04-18T13:21:47.989Z</time></trkpt><trkpt lat="43.4207693" lon="10.878514"><ele>161.0</ele><time>2026-04-18T13:21:48.988Z</time></trkpt><trkpt lat="43.4209197" lon="10.8784061"><ele>161.0</ele><time>2026-04-18T13:21:49.988Z</time></trkpt><trkpt lat="43.4210746" lon="10.8783004"><ele>161.0</ele><time>2026-04-18T13:21:50.988Z</time></trkpt><trkpt lat="43.4212291" lon="10.8781941"><ele>161.0</ele><time>2026-04-18T13:21:51.989Z</time></trkpt><trkpt lat="43.4213826" lon="10.8780863"><ele>160.66666666666666</ele><time>2026-04-18T13:21:52.989Z</time></trkpt><trkpt lat="43.421537" lon="10.8779825"><ele>160.33333333333334</ele><time>2026-04-18T13:21:53.988Z</time></trkpt><trkpt lat="43.4216895" lon="10.877875"><ele>160.0</ele><time>2026-04-18T13:21:54.989Z</time></trkpt><trkpt lat="43.4218438" lon="10.8777692"><ele>160.0</ele><time>2026-04-18T13:21:55.989Z</time></trkpt><trkpt lat="43.4219947" lon="10.8776637"><ele>160.0</ele><time>2026-04-18T13:21:56.988Z</time></trkpt><trkpt lat="43.4221439" lon="10.8775592"><ele>160.0</ele><time>2026-04-18T13:21:57.988Z</time></trkpt><trkpt lat="43.4222964" lon="10.877466"><ele>159.66666666666669</ele><time>2026-04-18T13:21:58.988Z</time></trkpt><trkpt lat="43.4224559" lon="10.8773902"><ele>159.33333333333334</ele><time>2026-04-18T13:21:59.988Z</time></trkpt><trkpt lat="43.4226154" lon="10.8773359"><ele>159.0</ele><time>2026-04-18T13:22:00.988Z</time></trkpt><trkpt lat="43.4227785" lon="10.8772887"><ele>159.0</ele><time>2026-04-18T13:22:01.988Z</time></trkpt><trkpt lat="43.4229378" lon="10.8772437"><ele>159.0</ele><time>2026-04-18T13:22:02.989Z</time></trkpt><trkpt lat="43.4231028" lon="10.8771997"><ele>159.0</ele><time>2026-04-18T13:22:03.989Z</time></trkpt><trkpt lat="43.4232655" lon="10.8771597"><ele>158.66666666666666</ele><time>2026-04-18T13:22:04.988Z</time></trkpt><trkpt lat="43.4234247" lon="10.8771264"><ele>158.33333333333331</ele><time>2026-04-18T13:22:05.988Z</time></trkpt><trkpt lat="43.4235846" lon="10.8770836"><ele>158.0</ele><time>2026-04-18T13:22:06.988Z</time></trkpt><trkpt lat="43.4237482" lon="10.8770374"><ele>158.0</ele><time>2026-04-18T13:22:07.988Z</time></trkpt><trkpt lat="43.4239094" lon="10.8769882"><ele>158.0</ele><time>2026-04-18T13:22:08.988Z</time></trkpt><trkpt lat="43.4240717" lon="10.8769501"><ele>158.0</ele><time>2026-04-18T13:22:09.988Z</time></trkpt><trkpt lat="43.4242266" lon="10.8769052"><ele>158.0</ele><time>2026-04-18T13:22:10.988Z</time></trkpt><trkpt lat="43.424363" lon="10.8768743"><ele>158.0</ele><time>2026-04-18T13:22:11.988Z</time></trkpt><trkpt lat="43.424486" lon="10.8768475"><ele>158.0</ele><time>2026-04-18T13:22:12.988Z</time></trkpt><trkpt lat="43.4246042" lon="10.8768142"><ele>158.0</ele><time>2026-04-18T13:22:13.988Z</time></trkpt><trkpt lat="43.4247107" lon="10.8767655"><ele>158.0</ele><time>2026-04-18T13:22:14.988Z</time></trkpt><trkpt lat="43.424809" lon="10.8767027"><ele>158.0</ele><time>2026-04-18T13:22:15.988Z</time></trkpt><trkpt lat="43.4249017" lon="10.8766271"><ele>158.0</ele><time>2026-04-18T13:22:16.988Z</time></trkpt><trkpt lat="43.4249759" lon="10.8765376"><ele>158.0</ele><time>2026-04-18T13:22:17.988Z</time></trkpt><trkpt lat="43.4250335" lon="10.8764473"><ele>158.0</ele><time>2026-04-18T13:22:18.988Z</time></trkpt><trkpt lat="43.4250921" lon="10.8763457"><ele>158.0</ele><time>2026-04-18T13:22:19.988Z</time></trkpt><trkpt lat="43.4251467" lon="10.8762239"><ele>158.0</ele><time>2026-04-18T13:22:20.988Z</time></trkpt><trkpt lat="43.4251984" lon="10.8760853"><ele>158.0</ele><time>2026-04-18T13:22:21.988Z</time></trkpt><trkpt lat="43.4252469" lon="10.875935"><ele>158.0</ele><time>2026-04-18T13:22:22.988Z</time></trkpt><trkpt lat="43.425296" lon="10.875768"><ele>157.75</ele><time>2026-04-18T13:22:23.988Z</time></trkpt><trkpt lat="43.4253477" lon="10.8755992"><ele>157.5</ele><time>2026-04-18T13:22:24.989Z</time></trkpt><trkpt lat="43.4254029" lon="10.8754288"><ele>157.25</ele><time>2026-04-18T13:22:25.988Z</time></trkpt><trkpt lat="43.425467" lon="10.8752525"><ele>157.0</ele><time>2026-04-18T13:22:26.988Z</time></trkpt><trkpt lat="43.4255282" lon="10.8750764"><ele>155.33333333333334</ele><time>2026-04-18T13:22:27.988Z</time></trkpt><trkpt lat="43.4255942" lon="10.8749"><ele>153.66666666666666</ele><time>2026-04-18T13:22:28.989Z</time></trkpt><trkpt lat="43.4256675" lon="10.8747134"><ele>152.0</ele><time>2026-04-18T13:22:29.988Z</time></trkpt><trkpt lat="43.4257508" lon="10.8745184"><ele>152.0</ele><time>2026-04-18T13:22:30.988Z</time></trkpt><trkpt lat="43.4258366" lon="10.8743298"><ele>152.0</ele><time>2026-04-18T13:22:31.988Z</time></trkpt><trkpt lat="43.4259228" lon="10.8741432"><ele>152.0</ele><time>2026-04-18T13:22:32.988Z</time></trkpt><trkpt lat="43.4260186" lon="10.8739488"><ele>151.33333333333331</ele><time>2026-04-18T13:22:33.988Z</time></trkpt><trkpt lat="43.4261152" lon="10.8737461"><ele>150.66666666666666</ele><time>2026-04-18T13:22:34.989Z</time></trkpt><trkpt lat="43.4262148" lon="10.8735387"><ele>150.0</ele><time>2026-04-18T13:22:35.988Z</time></trkpt><trkpt lat="43.4263089" lon="10.8733446"><ele>149.0</ele><time>2026-04-18T13:22:36.988Z</time></trkpt><trkpt lat="43.4264017" lon="10.8731544"><ele>148.0</ele><time>2026-04-18T13:22:37.988Z</time></trkpt><trkpt lat="43.4264967" lon="10.8729655"><ele>147.0</ele><time>2026-04-18T13:22:38.988Z</time></trkpt><trkpt lat="43.4265939" lon="10.8727695"><ele>149.33333333333334</ele><time>2026-04-18T13:22:39.988Z</time></trkpt><trkpt lat="43.4266872" lon="10.8725817"><ele>151.66666666666669</ele><time>2026-04-18T13:22:40.988Z</time></trkpt><trkpt lat="43.42678" lon="10.8724062"><ele>154.0</ele><time>2026-04-18T13:22:41.988Z</time></trkpt><trkpt lat="43.4268658" lon="10.8722298"><ele>154.0</ele><time>2026-04-18T13:22:42.988Z</time></trkpt><trkpt lat="43.4269524" lon="10.8720419"><ele>154.0</ele><time>2026-04-18T13:22:43.988Z</time></trkpt><trkpt lat="43.4270241" lon="10.8718373"><ele>154.0</ele><time>2026-04-18T13:22:44.988Z</time></trkpt><trkpt lat="43.4270765" lon="10.8716078"><ele>155.66666666666669</ele><time>2026-04-18T13:22:45.988Z</time></trkpt><trkpt lat="43.4271169" lon="10.8713653"><ele>157.33333333333334</ele><time>2026-04-18T13:22:46.988Z</time></trkpt><trkpt lat="43.4271513" lon="10.8711219"><ele>159.0</ele><time>2026-04-18T13:22:47.988Z</time></trkpt><trkpt lat="43.4271848" lon="10.8708804"><ele>155.33333333333334</ele><time>2026-04-18T13:22:48.988Z</time></trkpt><trkpt lat="43.4272162" lon="10.8706456"><ele>151.66666666666669</ele><time>2026-04-18T13:22:49.988Z</time></trkpt><trkpt lat="43.4272459" lon="10.8704225"><ele>148.0</ele><time>2026-04-18T13:22:50.988Z</time></trkpt><trkpt lat="43.4272773" lon="10.8702043"><ele>148.33333333333334</ele><time>2026-04-18T13:22:51.988Z</time></trkpt><trkpt lat="43.4273177" lon="10.8700035"><ele>148.66666666666666</ele><time>2026-04-18T13:22:52.988Z</time></trkpt><trkpt lat="43.4273778" lon="10.8698105"><ele>149.0</ele><time>2026-04-18T13:22:53.988Z</time></trkpt><trkpt lat="43.4274605" lon="10.8696204"><ele>149.0</ele><time>2026-04-18T13:22:54.988Z</time></trkpt><trkpt lat="43.4275512" lon="10.8694335"><ele>149.0</ele><time>2026-04-18T13:22:55.988Z</time></trkpt><trkpt lat="43.42765" lon="10.8692452"><ele>149.0</ele><time>2026-04-18T13:22:56.988Z</time></trkpt><trkpt lat="43.4277558" lon="10.869053"><ele>149.33333333333331</ele><time>2026-04-18T13:22:57.988Z</time></trkpt><trkpt lat="43.4278615" lon="10.8688621"><ele>149.66666666666666</ele><time>2026-04-18T13:22:58.989Z</time></trkpt><trkpt lat="43.4279658" lon="10.8686733"><ele>150.0</ele><time>2026-04-18T13:22:59.988Z</time></trkpt><trkpt lat="43.4280742" lon="10.8684845"><ele>150.0</ele><time>2026-04-18T13:23:00.987Z</time></trkpt><trkpt lat="43.4281839" lon="10.868298"><ele>150.0</ele><time>2026-04-18T13:23:01.988Z</time></trkpt><trkpt lat="43.4282937" lon="10.8681169"><ele>150.0</ele><time>2026-04-18T13:23:02.988Z</time></trkpt><trkpt lat="43.4284088" lon="10.8679382"><ele>150.0</ele><time>2026-04-18T13:23:03.988Z</time></trkpt><trkpt lat="43.4285389" lon="10.8677673"><ele>150.0</ele><time>2026-04-18T13:23:04.988Z</time></trkpt><trkpt lat="43.428669" lon="10.8675982"><ele>150.0</ele><time>2026-04-18T13:23:05.988Z</time></trkpt><trkpt lat="43.4288021" lon="10.86745"><ele>149.33333333333334</ele><time>2026-04-18T13:23:06.988Z</time></trkpt><trkpt lat="43.4289323" lon="10.8673005"><ele>148.66666666666669</ele><time>2026-04-18T13:23:07.988Z</time></trkpt><trkpt lat="43.4290559" lon="10.8671473"><ele>148.0</ele><time>2026-04-18T13:23:08.988Z</time></trkpt><trkpt lat="43.4291727" lon="10.8669963"><ele>148.0</ele><time>2026-04-18T13:23:09.988Z</time></trkpt><trkpt lat="43.4292902" lon="10.8668366"><ele>148.0</ele><time>2026-04-18T13:23:10.988Z</time></trkpt><trkpt lat="43.4294061" lon="10.8666781"><ele>148.0</ele><time>2026-04-18T13:23:11.988Z</time></trkpt><trkpt lat="43.4295261" lon="10.8665225"><ele>146.66666666666669</ele><time>2026-04-18T13:23:12.988Z</time></trkpt><trkpt lat="43.42964" lon="10.8663617"><ele>145.33333333333334</ele><time>2026-04-18T13:23:13.988Z</time></trkpt><trkpt lat="43.4297524" lon="10.8662017"><ele>144.0</ele><time>2026-04-18T13:23:14.988Z</time></trkpt><trkpt lat="43.4298699" lon="10.8660361"><ele>144.0</ele><time>2026-04-18T13:23:15.988Z</time></trkpt><trkpt lat="43.4299833" lon="10.865873"><ele>144.0</ele><time>2026-04-18T13:23:16.988Z</time></trkpt><trkpt lat="43.4300971" lon="10.8657103"><ele>144.0</ele><time>2026-04-18T13:23:17.988Z</time></trkpt><trkpt lat="43.4302109" lon="10.8655429"><ele>144.0</ele><time>2026-04-18T13:23:18.988Z</time></trkpt><trkpt lat="43.4303242" lon="10.8653762"><ele>144.0</ele><time>2026-04-18T13:23:19.988Z</time></trkpt><trkpt lat="43.4304397" lon="10.865212"><ele>144.0</ele><time>2026-04-18T13:23:20.988Z</time></trkpt><trkpt lat="43.4305565" lon="10.8650461"><ele>143.33333333333334</ele><time>2026-04-18T13:23:21.988Z</time></trkpt><trkpt lat="43.4306759" lon="10.864877"><ele>142.66666666666669</ele><time>2026-04-18T13:23:22.989Z</time></trkpt><trkpt lat="43.4307949" lon="10.8647058"><ele>142.0</ele><time>2026-04-18T13:23:23.988Z</time></trkpt><trkpt lat="43.4309132" lon="10.8645324"><ele>142.0</ele><time>2026-04-18T13:23:24.988Z</time></trkpt><trkpt lat="43.4310312" lon="10.8643644"><ele>142.0</ele><time>2026-04-18T13:23:25.988Z</time></trkpt><trkpt lat="43.4311535" lon="10.8641955"><ele>142.0</ele><time>2026-04-18T13:23:26.988Z</time></trkpt><trkpt lat="43.4312712" lon="10.8640211"><ele>141.33333333333334</ele><time>2026-04-18T13:23:27.988Z</time></trkpt><trkpt lat="43.4313804" lon="10.8638567"><ele>140.66666666666666</ele><time>2026-04-18T13:23:28.988Z</time></trkpt><trkpt lat="43.4314863" lon="10.8637034"><ele>140.0</ele><time>2026-04-18T13:23:29.988Z</time></trkpt><trkpt lat="43.4315875" lon="10.8635512"><ele>140.0</ele><time>2026-04-18T13:23:30.988Z</time></trkpt><trkpt lat="43.4316857" lon="10.8634108"><ele>140.0</ele><time>2026-04-18T13:23:31.988Z</time></trkpt><trkpt lat="43.4317931" lon="10.8632823"><ele>140.0</ele><time>2026-04-18T13:23:32.988Z</time></trkpt><trkpt lat="43.4319133" lon="10.8631778"><ele>140.0</ele><time>2026-04-18T13:23:33.988Z</time></trkpt><trkpt lat="43.4320537" lon="10.8630956"><ele>139.0</ele><time>2026-04-18T13:23:34.988Z</time></trkpt><trkpt lat="43.4321973" lon="10.8630457"><ele>138.0</ele><time>2026-04-18T13:23:35.988Z</time></trkpt><trkpt lat="43.432357" lon="10.8630079"><ele>137.0</ele><time>2026-04-18T13:23:36.988Z</time></trkpt><trkpt lat="43.4325414" lon="10.8629763"><ele>137.0</ele><time>2026-04-18T13:23:37.988Z</time></trkpt><trkpt lat="43.4327238" lon="10.8629579"><ele>137.0</ele><time>2026-04-18T13:23:38.988Z</time></trkpt><trkpt lat="43.4329183" lon="10.8629355"><ele>137.0</ele><time>2026-04-18T13:23:39.988Z</time></trkpt><trkpt lat="43.4331317" lon="10.862917"><ele>137.33333333333331</ele><time>2026-04-18T13:23:40.988Z</time></trkpt><trkpt lat="43.4333511" lon="10.8628999"><ele>137.66666666666666</ele><time>2026-04-18T13:23:41.988Z</time></trkpt><trkpt lat="43.4335621" lon="10.862883"><ele>138.0</ele><time>2026-04-18T13:23:42.988Z</time></trkpt><trkpt lat="43.4337657" lon="10.8628668"><ele>138.33333333333334</ele><time>2026-04-18T13:23:43.988Z</time></trkpt><trkpt lat="43.4339604" lon="10.8628524"><ele>138.66666666666669</ele><time>2026-04-18T13:23:44.989Z</time></trkpt><trkpt lat="43.4341479" lon="10.8628339"><ele>139.0</ele><time>2026-04-18T13:23:45.988Z</time></trkpt><trkpt lat="43.4343248" lon="10.8628214"><ele>139.0</ele><time>2026-04-18T13:23:46.989Z</time></trkpt><trkpt lat="43.4345053" lon="10.8628024"><ele>139.0</ele><time>2026-04-18T13:23:47.988Z</time></trkpt><trkpt lat="43.4346793" lon="10.8627844"><ele>139.0</ele><time>2026-04-18T13:23:48.988Z</time></trkpt><trkpt lat="43.4348479" lon="10.8627743"><ele>140.0</ele><time>2026-04-18T13:23:49.988Z</time></trkpt><trkpt lat="43.43502" lon="10.8627568"><ele>141.0</ele><time>2026-04-18T13:23:50.988Z</time></trkpt><trkpt lat="43.4351841" lon="10.8627183"><ele>142.0</ele><time>2026-04-18T13:23:51.988Z</time></trkpt><trkpt lat="43.4353455" lon="10.8626518"><ele>142.66666666666669</ele><time>2026-04-18T13:23:52.988Z</time></trkpt><trkpt lat="43.4354952" lon="10.8625574"><ele>143.33333333333334</ele><time>2026-04-18T13:23:53.988Z</time></trkpt><trkpt lat="43.435642" lon="10.862421"><ele>144.0</ele><time>2026-04-18T13:23:54.988Z</time></trkpt><trkpt lat="43.4357926" lon="10.8622552"><ele>144.0</ele><time>2026-04-18T13:23:55.988Z</time></trkpt><trkpt lat="43.4359495" lon="10.8620769"><ele>144.0</ele><time>2026-04-18T13:23:56.988Z</time></trkpt><trkpt lat="43.4361107" lon="10.8618891"><ele>144.0</ele><time>2026-04-18T13:23:57.988Z</time></trkpt><trkpt lat="43.4362694" lon="10.8616992"><ele>144.0</ele><time>2026-04-18T13:23:58.989Z</time></trkpt><trkpt lat="43.436431" lon="10.8615061"><ele>144.0</ele><time>2026-04-18T13:23:59.988Z</time></trkpt><trkpt lat="43.4365975" lon="10.8613098"><ele>144.0</ele><time>2026-04-18T13:24:00.988Z</time></trkpt><trkpt lat="43.4367623" lon="10.8611179"><ele>143.33333333333334</ele><time>2026-04-18T13:24:01.988Z</time></trkpt><trkpt lat="43.4369301" lon="10.8609251"><ele>142.66666666666669</ele><time>2026-04-18T13:24:02.988Z</time></trkpt><trkpt lat="43.4370972" lon="10.8607352"><ele>142.0</ele><time>2026-04-18T13:24:03.988Z</time></trkpt><trkpt lat="43.437256" lon="10.8605526"><ele>142.0</ele><time>2026-04-18T13:24:04.988Z</time></trkpt><trkpt lat="43.4374065" lon="10.8603808"><ele>142.0</ele><time>2026-04-18T13:24:05.988Z</time></trkpt><trkpt lat="43.4375486" lon="10.8602188"><ele>142.0</ele><time>2026-04-18T13:24:06.988Z</time></trkpt><trkpt lat="43.437685" lon="10.8600564"><ele>141.33333333333334</ele><time>2026-04-18T13:24:07.988Z</time></trkpt><trkpt lat="43.4378123" lon="10.8599091"><ele>140.66666666666666</ele><time>2026-04-18T13:24:08.988Z</time></trkpt><trkpt lat="43.4379343" lon="10.8597696"><ele>140.0</ele><time>2026-04-18T13:24:09.989Z</time></trkpt><trkpt lat="43.4380537" lon="10.8596423"><ele>143.66666666666666</ele><time>2026-04-18T13:24:10.988Z</time></trkpt><trkpt lat="43.4381821" lon="10.8595219"><ele>147.33333333333334</ele><time>2026-04-18T13:24:11.988Z</time></trkpt><trkpt lat="43.4383237" lon="10.8594123"><ele>151.0</ele><time>2026-04-18T13:24:12.988Z</time></trkpt><trkpt lat="43.4384717" lon="10.859298"><ele>147.66666666666669</ele><time>2026-04-18T13:24:13.988Z</time></trkpt><trkpt lat="43.4386238" lon="10.8591822"><ele>144.33333333333334</ele><time>2026-04-18T13:24:14.988Z</time></trkpt><trkpt lat="43.4387821" lon="10.8590547"><ele>141.0</ele><time>2026-04-18T13:24:15.988Z</time></trkpt><trkpt lat="43.4389451" lon="10.8589246"><ele>140.66666666666666</ele><time>2026-04-18T13:24:16.988Z</time></trkpt><trkpt lat="43.4391089" lon="10.8587941"><ele>140.33333333333331</ele><time>2026-04-18T13:24:17.988Z</time></trkpt><trkpt lat="43.4392702" lon="10.8586668"><ele>140.0</ele><time>2026-04-18T13:24:18.989Z</time></trkpt><trkpt lat="43.4394253" lon="10.8585447"><ele>138.66666666666666</ele><time>2026-04-18T13:24:19.988Z</time></trkpt><trkpt lat="43.4395754" lon="10.8584304"><ele>137.33333333333334</ele><time>2026-04-18T13:24:20.988Z</time></trkpt><trkpt lat="43.4397204" lon="10.8583199"><ele>136.0</ele><time>2026-04-18T13:24:21.988Z</time></trkpt><trkpt lat="43.4398653" lon="10.8582061"><ele>136.0</ele><time>2026-04-18T13:24:22.989Z</time></trkpt><trkpt lat="43.4400091" lon="10.8580874"><ele>136.0</ele><time>2026-04-18T13:24:23.988Z</time></trkpt><trkpt lat="43.4401558" lon="10.8579736"><ele>136.0</ele><time>2026-04-18T13:24:24.988Z</time></trkpt><trkpt lat="43.4403099" lon="10.8578614"><ele>136.0</ele><time>2026-04-18T13:24:25.988Z</time></trkpt><trkpt lat="43.4404616" lon="10.8577509"><ele>136.0</ele><time>2026-04-18T13:24:26.988Z</time></trkpt><trkpt lat="43.44061" lon="10.8576313"><ele>136.0</ele><time>2026-04-18T13:24:27.988Z</time></trkpt><trkpt lat="43.440752" lon="10.8574955"><ele>133.66666666666669</ele><time>2026-04-18T13:24:28.988Z</time></trkpt><trkpt lat="43.4408844" lon="10.8573315"><ele>131.33333333333334</ele><time>2026-04-18T13:24:29.988Z</time></trkpt><trkpt lat="43.4410049" lon="10.8571453"><ele>129.0</ele><time>2026-04-18T13:24:30.988Z</time></trkpt><trkpt lat="43.4411144" lon="10.8569366"><ele>127.66666666666666</ele><time>2026-04-18T13:24:31.988Z</time></trkpt><trkpt lat="43.4412247" lon="10.8567246"><ele>126.33333333333333</ele><time>2026-04-18T13:24:32.988Z</time></trkpt><trkpt lat="43.4413323" lon="10.8565109"><ele>125.0</ele><time>2026-04-18T13:24:33.988Z</time></trkpt><trkpt lat="43.4414397" lon="10.8562976"><ele>125.0</ele><time>2026-04-18T13:24:34.988Z</time></trkpt><trkpt lat="43.4415483" lon="10.8560892"><ele>125.0</ele><time>2026-04-18T13:24:35.988Z</time></trkpt><trkpt lat="43.4416527" lon="10.8558859"><ele>125.0</ele><time>2026-04-18T13:24:36.988Z</time></trkpt><trkpt lat="43.4417439" lon="10.8556912"><ele>124.0</ele><time>2026-04-18T13:24:37.988Z</time></trkpt><trkpt lat="43.4418367" lon="10.8555095"><ele>123.0</ele><time>2026-04-18T13:24:38.988Z</time></trkpt><trkpt lat="43.4419421" lon="10.8553462"><ele>122.0</ele><time>2026-04-18T13:24:39.988Z</time></trkpt><trkpt lat="43.4420572" lon="10.8552015"><ele>121.33333333333333</ele><time>2026-04-18T13:24:40.988Z</time></trkpt><trkpt lat="43.442183" lon="10.8550769"><ele>120.66666666666666</ele><time>2026-04-18T13:24:41.988Z</time></trkpt><trkpt lat="43.4423271" lon="10.8549809"><ele>120.0</ele><time>2026-04-18T13:24:42.988Z</time></trkpt><trkpt lat="43.4424844" lon="10.8549106"><ele>120.0</ele><time>2026-04-18T13:24:43.988Z</time></trkpt><trkpt lat="43.4426494" lon="10.854865"><ele>120.0</ele><time>2026-04-18T13:24:44.988Z</time></trkpt><trkpt lat="43.4428209" lon="10.8548278"><ele>120.0</ele><time>2026-04-18T13:24:45.989Z</time></trkpt><trkpt lat="43.4429959" lon="10.8547929"><ele>121.0</ele><time>2026-04-18T13:24:46.988Z</time></trkpt><trkpt lat="43.4431738" lon="10.8547578"><ele>122.0</ele><time>2026-04-18T13:24:47.988Z</time></trkpt><trkpt lat="43.4433451" lon="10.8547187"><ele>123.0</ele><time>2026-04-18T13:24:48.988Z</time></trkpt><trkpt lat="43.4435199" lon="10.8546777"><ele>123.0</ele><time>2026-04-18T13:24:49.988Z</time></trkpt><trkpt lat="43.4436906" lon="10.854642"><ele>123.0</ele><time>2026-04-18T13:24:50.988Z</time></trkpt><trkpt lat="43.44386" lon="10.8546143"><ele>123.0</ele><time>2026-04-18T13:24:51.988Z</time></trkpt><trkpt lat="43.4440301" lon="10.8545861"><ele>122.0</ele><time>2026-04-18T13:24:52.988Z</time></trkpt><trkpt lat="43.4442014" lon="10.8545534"><ele>121.0</ele><time>2026-04-18T13:24:53.988Z</time></trkpt><trkpt lat="43.4443711" lon="10.8545228"><ele>120.0</ele><time>2026-04-18T13:24:54.988Z</time></trkpt><trkpt lat="43.4445365" lon="10.854491"><ele>119.66666666666666</ele><time>2026-04-18T13:24:55.988Z</time></trkpt><trkpt lat="43.4447004" lon="10.85446"><ele>119.33333333333333</ele><time>2026-04-18T13:24:56.988Z</time></trkpt><trkpt lat="43.4448704" lon="10.8544307"><ele>119.0</ele><time>2026-04-18T13:24:57.988Z</time></trkpt><trkpt lat="43.4450444" lon="10.8543971"><ele>119.0</ele><time>2026-04-18T13:24:58.988Z</time></trkpt><trkpt lat="43.4452172" lon="10.8543641"><ele>119.0</ele><time>2026-04-18T13:24:59.988Z</time></trkpt><trkpt lat="43.4453902" lon="10.8543334"><ele>119.0</ele><time>2026-04-18T13:25:00.988Z</time></trkpt><trkpt lat="43.4455645" lon="10.8543052"><ele>118.0</ele><time>2026-04-18T13:25:01.988Z</time></trkpt><trkpt lat="43.4457353" lon="10.8542732"><ele>117.0</ele><time>2026-04-18T13:25:02.988Z</time></trkpt><trkpt lat="43.445902" lon="10.8542304"><ele>116.0</ele><time>2026-04-18T13:25:03.988Z</time></trkpt><trkpt lat="43.4460621" lon="10.8541757"><ele>116.0</ele><time>2026-04-18T13:25:04.988Z</time></trkpt><trkpt lat="43.446226" lon="10.8541005"><ele>116.0</ele><time>2026-04-18T13:25:05.989Z</time></trkpt><trkpt lat="43.4463829" lon="10.8540083"><ele>116.0</ele><time>2026-04-18T13:25:06.988Z</time></trkpt><trkpt lat="43.4465416" lon="10.8539033"><ele>115.33333333333333</ele><time>2026-04-18T13:25:07.988Z</time></trkpt><trkpt lat="43.4467022" lon="10.8537997"><ele>114.66666666666666</ele><time>2026-04-18T13:25:08.988Z</time></trkpt><trkpt lat="43.4468684" lon="10.8536869"><ele>114.0</ele><time>2026-04-18T13:25:09.988Z</time></trkpt><trkpt lat="43.4470352" lon="10.8535746"><ele>114.33333333333334</ele><time>2026-04-18T13:25:10.988Z</time></trkpt><trkpt lat="43.4471996" lon="10.8534569"><ele>114.66666666666667</ele><time>2026-04-18T13:25:11.988Z</time></trkpt><trkpt lat="43.4473613" lon="10.85334"><ele>115.0</ele><time>2026-04-18T13:25:12.988Z</time></trkpt><trkpt lat="43.447521" lon="10.8532217"><ele>115.0</ele><time>2026-04-18T13:25:13.988Z</time></trkpt><trkpt lat="43.4476857" lon="10.8531115"><ele>115.0</ele><time>2026-04-18T13:25:14.988Z</time></trkpt><trkpt lat="43.4478487" lon="10.8529974"><ele>115.0</ele><time>2026-04-18T13:25:15.988Z</time></trkpt><trkpt lat="43.4480136" lon="10.8528853"><ele>115.33333333333334</ele><time>2026-04-18T13:25:16.988Z</time></trkpt><trkpt lat="43.4481779" lon="10.8527805"><ele>115.66666666666666</ele><time>2026-04-18T13:25:17.988Z</time></trkpt><trkpt lat="43.4483419" lon="10.8526725"><ele>116.0</ele><time>2026-04-18T13:25:18.988Z</time></trkpt><trkpt lat="43.4485011" lon="10.8525622"><ele>116.0</ele><time>2026-04-18T13:25:19.988Z</time></trkpt><trkpt lat="43.44866" lon="10.8524476"><ele>116.0</ele><time>2026-04-18T13:25:20.986Z</time></trkpt><trkpt lat="43.4488104" lon="10.8523315"><ele>116.0</ele><time>2026-04-18T13:25:21.988Z</time></trkpt><trkpt lat="43.4489556" lon="10.852223"><ele>115.33333333333333</ele><time>2026-04-18T13:25:22.989Z</time></trkpt><trkpt lat="43.4490999" lon="10.8521166"><ele>114.66666666666666</ele><time>2026-04-18T13:25:23.988Z</time></trkpt><trkpt lat="43.4492393" lon="10.8520137"><ele>114.0</ele><time>2026-04-18T13:25:24.988Z</time></trkpt><trkpt lat="43.4493844" lon="10.8519171"><ele>114.0</ele><time>2026-04-18T13:25:25.989Z</time></trkpt><trkpt lat="43.4495337" lon="10.8518321"><ele>114.0</ele><time>2026-04-18T13:25:26.988Z</time></trkpt><trkpt lat="43.4496931" lon="10.8517592"><ele>114.0</ele><time>2026-04-18T13:25:27.988Z</time></trkpt><trkpt lat="43.4498517" lon="10.8516862"><ele>114.0</ele><time>2026-04-18T13:25:28.988Z</time></trkpt><trkpt lat="43.4500132" lon="10.851623"><ele>114.0</ele><time>2026-04-18T13:25:29.988Z</time></trkpt><trkpt lat="43.4501805" lon="10.8515578"><ele>114.0</ele><time>2026-04-18T13:25:30.988Z</time></trkpt><trkpt lat="43.4503595" lon="10.8515028"><ele>114.66666666666666</ele><time>2026-04-18T13:25:31.989Z</time></trkpt><trkpt lat="43.4505406" lon="10.8514728"><ele>115.33333333333333</ele><time>2026-04-18T13:25:32.988Z</time></trkpt><trkpt lat="43.4507211" lon="10.8514502"><ele>116.0</ele><time>2026-04-18T13:25:33.988Z</time></trkpt><trkpt lat="43.4509053" lon="10.8514276"><ele>116.0</ele><time>2026-04-18T13:25:34.988Z</time></trkpt><trkpt lat="43.4510807" lon="10.8514084"><ele>116.0</ele><time>2026-04-18T13:25:35.988Z</time></trkpt><trkpt lat="43.4512444" lon="10.851396"><ele>116.0</ele><time>2026-04-18T13:25:36.988Z</time></trkpt><trkpt lat="43.4514009" lon="10.8513709"><ele>116.5</ele><time>2026-04-18T13:25:37.988Z</time></trkpt><trkpt lat="43.451548" lon="10.8513534"><ele>117.0</ele><time>2026-04-18T13:25:38.988Z</time></trkpt><trkpt lat="43.4516919" lon="10.851319"><ele>117.5</ele><time>2026-04-18T13:25:39.988Z</time></trkpt><trkpt lat="43.4518274" lon="10.8512545"><ele>118.0</ele><time>2026-04-18T13:25:40.988Z</time></trkpt><trkpt lat="43.4519443" lon="10.8511607"><ele>118.0</ele><time>2026-04-18T13:25:41.988Z</time></trkpt><trkpt lat="43.4520484" lon="10.8510376"><ele>118.0</ele><time>2026-04-18T13:25:42.988Z</time></trkpt><trkpt lat="43.4521328" lon="10.8509"><ele>118.0</ele><time>2026-04-18T13:25:43.988Z</time></trkpt><trkpt lat="43.4521958" lon="10.8507415"><ele>118.0</ele><time>2026-04-18T13:25:44.988Z</time></trkpt><trkpt lat="43.4522391" lon="10.8505675"><ele>118.33333333333334</ele><time>2026-04-18T13:25:45.988Z</time></trkpt><trkpt lat="43.4522542" lon="10.8503624"><ele>118.66666666666666</ele><time>2026-04-18T13:25:46.988Z</time></trkpt><trkpt lat="43.4522547" lon="10.850122"><ele>119.0</ele><time>2026-04-18T13:25:47.988Z</time></trkpt><trkpt lat="43.4522443" lon="10.8498626"><ele>119.0</ele><time>2026-04-18T13:25:48.988Z</time></trkpt><trkpt lat="43.452236" lon="10.8495833"><ele>119.0</ele><time>2026-04-18T13:25:49.988Z</time></trkpt><trkpt lat="43.4522228" lon="10.8492867"><ele>119.0</ele><time>2026-04-18T13:25:50.988Z</time></trkpt><trkpt lat="43.452207" lon="10.8490182"><ele>119.0</ele><time>2026-04-18T13:25:51.988Z</time></trkpt><trkpt lat="43.4521945" lon="10.8487599"><ele>119.0</ele><time>2026-04-18T13:25:52.988Z</time></trkpt><trkpt lat="43.4521793" lon="10.8485012"><ele>119.0</ele><time>2026-04-18T13:25:53.988Z</time></trkpt><trkpt lat="43.4521686" lon="10.8482374"><ele>118.66666666666666</ele><time>2026-04-18T13:25:54.988Z</time></trkpt><trkpt lat="43.4521513" lon="10.8479841"><ele>118.33333333333334</ele><time>2026-04-18T13:25:55.988Z</time></trkpt><trkpt lat="43.452137" lon="10.8477219"><ele>118.0</ele><time>2026-04-18T13:25:56.988Z</time></trkpt><trkpt lat="43.4521237" lon="10.8474697"><ele>116.33333333333334</ele><time>2026-04-18T13:25:57.988Z</time></trkpt><trkpt lat="43.4521104" lon="10.8472305"><ele>114.66666666666666</ele><time>2026-04-18T13:25:58.988Z</time></trkpt><trkpt lat="43.4521075" lon="10.8469932"><ele>113.0</ele><time>2026-04-18T13:25:59.988Z</time></trkpt><trkpt lat="43.4521069" lon="10.8467575"><ele>112.33333333333333</ele><time>2026-04-18T13:26:00.988Z</time></trkpt><trkpt lat="43.4521174" lon="10.846523"><ele>111.66666666666666</ele><time>2026-04-18T13:26:01.988Z</time></trkpt><trkpt lat="43.45214" lon="10.8462829"><ele>111.0</ele><time>2026-04-18T13:26:02.988Z</time></trkpt><trkpt lat="43.4521785" lon="10.8460334"><ele>112.0</ele><time>2026-04-18T13:26:03.988Z</time></trkpt><trkpt lat="43.4522299" lon="10.8457688"><ele>113.0</ele><time>2026-04-18T13:26:04.988Z</time></trkpt><trkpt lat="43.4523006" lon="10.8454961"><ele>114.0</ele><time>2026-04-18T13:26:05.988Z</time></trkpt><trkpt lat="43.4523845" lon="10.8452198"><ele>112.66666666666666</ele><time>2026-04-18T13:26:06.989Z</time></trkpt><trkpt lat="43.4524791" lon="10.8449359"><ele>111.33333333333333</ele><time>2026-04-18T13:26:07.988Z</time></trkpt><trkpt lat="43.4525745" lon="10.8446625"><ele>110.0</ele><time>2026-04-18T13:26:08.988Z</time></trkpt><trkpt lat="43.4526732" lon="10.8443838"><ele>109.66666666666666</ele><time>2026-04-18T13:26:09.988Z</time></trkpt><trkpt lat="43.4527707" lon="10.8441039"><ele>109.33333333333334</ele><time>2026-04-18T13:26:10.988Z</time></trkpt><trkpt lat="43.4528626" lon="10.843834"><ele>109.0</ele><time>2026-04-18T13:26:11.988Z</time></trkpt><trkpt lat="43.452959" lon="10.8435649"><ele>108.33333333333334</ele><time>2026-04-18T13:26:12.988Z</time></trkpt><trkpt lat="43.4530545" lon="10.8432954"><ele>107.66666666666666</ele><time>2026-04-18T13:26:13.988Z</time></trkpt><trkpt lat="43.4531463" lon="10.8430272"><ele>107.0</ele><time>2026-04-18T13:26:14.988Z</time></trkpt><trkpt lat="43.4532415" lon="10.8427623"><ele>107.33333333333333</ele><time>2026-04-18T13:26:15.988Z</time></trkpt><trkpt lat="43.4533395" lon="10.8424946"><ele>107.66666666666666</ele><time>2026-04-18T13:26:16.989Z</time></trkpt><trkpt lat="43.4534303" lon="10.8422342"><ele>108.0</ele><time>2026-04-18T13:26:17.988Z</time></trkpt><trkpt lat="43.4535207" lon="10.8419728"><ele>107.66666666666666</ele><time>2026-04-18T13:26:18.988Z</time></trkpt><trkpt lat="43.4536141" lon="10.8417099"><ele>107.33333333333333</ele><time>2026-04-18T13:26:19.988Z</time></trkpt><trkpt lat="43.4537103" lon="10.8414421"><ele>107.0</ele><time>2026-04-18T13:26:20.988Z</time></trkpt><trkpt lat="43.4538048" lon="10.8411804"><ele>112.33333333333333</ele><time>2026-04-18T13:26:21.988Z</time></trkpt><trkpt lat="43.4538995" lon="10.8409072"><ele>117.66666666666666</ele><time>2026-04-18T13:26:22.988Z</time></trkpt><trkpt lat="43.4539901" lon="10.8406422"><ele>123.0</ele><time>2026-04-18T13:26:23.988Z</time></trkpt><trkpt lat="43.4540729" lon="10.8403911"><ele>123.0</ele><time>2026-04-18T13:26:24.988Z</time></trkpt><trkpt lat="43.4541576" lon="10.8401544"><ele>123.0</ele><time>2026-04-18T13:26:25.988Z</time></trkpt><trkpt lat="43.4542421" lon="10.8399275"><ele>123.0</ele><time>2026-04-18T13:26:26.988Z</time></trkpt><trkpt lat="43.4543368" lon="10.839706"><ele>121.0</ele><time>2026-04-18T13:26:27.988Z</time></trkpt><trkpt lat="43.4544426" lon="10.8394917"><ele>119.0</ele><time>2026-04-18T13:26:28.989Z</time></trkpt><trkpt lat="43.4545597" lon="10.8392839"><ele>117.0</ele><time>2026-04-18T13:26:29.988Z</time></trkpt><trkpt lat="43.4546886" lon="10.839084"><ele>115.33333333333334</ele><time>2026-04-18T13:26:30.988Z</time></trkpt><trkpt lat="43.4548196" lon="10.8388817"><ele>113.66666666666667</ele><time>2026-04-18T13:26:31.989Z</time></trkpt><trkpt lat="43.4549599" lon="10.8386793"><ele>112.0</ele><time>2026-04-18T13:26:32.988Z</time></trkpt><trkpt lat="43.4550977" lon="10.8384777"><ele>110.66666666666667</ele><time>2026-04-18T13:26:33.988Z</time></trkpt><trkpt lat="43.455243" lon="10.8382776"><ele>109.33333333333334</ele><time>2026-04-18T13:26:34.988Z</time></trkpt><trkpt lat="43.4553823" lon="10.838075"><ele>108.0</ele><time>2026-04-18T13:26:35.988Z</time></trkpt><trkpt lat="43.4555105" lon="10.8378869"><ele>108.33333333333334</ele><time>2026-04-18T13:26:36.988Z</time></trkpt><trkpt lat="43.4556378" lon="10.8377032"><ele>108.66666666666667</ele><time>2026-04-18T13:26:37.988Z</time></trkpt><trkpt lat="43.4557601" lon="10.8375204"><ele>109.0</ele><time>2026-04-18T13:26:38.988Z</time></trkpt><trkpt lat="43.4558838" lon="10.8373438"><ele>109.0</ele><time>2026-04-18T13:26:39.988Z</time></trkpt><trkpt lat="43.4560057" lon="10.8371791"><ele>109.0</ele><time>2026-04-18T13:26:40.988Z</time></trkpt><trkpt lat="43.4561269" lon="10.8370141"><ele>109.0</ele><time>2026-04-18T13:26:41.988Z</time></trkpt><trkpt lat="43.4562405" lon="10.8368395"><ele>108.33333333333334</ele><time>2026-04-18T13:26:42.989Z</time></trkpt><trkpt lat="43.4563478" lon="10.8366465"><ele>107.66666666666666</ele><time>2026-04-18T13:26:43.988Z</time></trkpt><trkpt lat="43.4564507" lon="10.8364284"><ele>107.0</ele><time>2026-04-18T13:26:44.988Z</time></trkpt><trkpt lat="43.4565413" lon="10.8361892"><ele>106.0</ele><time>2026-04-18T13:26:45.988Z</time></trkpt><trkpt lat="43.4566274" lon="10.8359217"><ele>105.0</ele><time>2026-04-18T13:26:46.988Z</time></trkpt><trkpt lat="43.4567104" lon="10.8356318"><ele>104.0</ele><time>2026-04-18T13:26:47.988Z</time></trkpt><trkpt lat="43.4567903" lon="10.835342"><ele>103.66666666666666</ele><time>2026-04-18T13:26:48.988Z</time></trkpt><trkpt lat="43.4568633" lon="10.835061"><ele>103.33333333333334</ele><time>2026-04-18T13:26:49.988Z</time></trkpt><trkpt lat="43.4569408" lon="10.8347951"><ele>103.0</ele><time>2026-04-18T13:26:50.988Z</time></trkpt><trkpt lat="43.4570147" lon="10.8345348"><ele>103.33333333333334</ele><time>2026-04-18T13:26:51.988Z</time></trkpt><trkpt lat="43.4570764" lon="10.8342799"><ele>103.66666666666666</ele><time>2026-04-18T13:26:52.988Z</time></trkpt><trkpt lat="43.4571237" lon="10.8340224"><ele>104.0</ele><time>2026-04-18T13:26:53.988Z</time></trkpt><trkpt lat="43.4571465" lon="10.8337526"><ele>104.0</ele><time>2026-04-18T13:26:54.988Z</time></trkpt><trkpt lat="43.4571493" lon="10.833477"><ele>104.0</ele><time>2026-04-18T13:26:55.988Z</time></trkpt><trkpt lat="43.4571402" lon="10.8332016"><ele>104.0</ele><time>2026-04-18T13:26:56.988Z</time></trkpt><trkpt lat="43.4571276" lon="10.8329305"><ele>104.0</ele><time>2026-04-18T13:26:57.988Z</time></trkpt><trkpt lat="43.4571169" lon="10.832672"><ele>104.0</ele><time>2026-04-18T13:26:58.988Z</time></trkpt><trkpt lat="43.4571026" lon="10.8324185"><ele>104.0</ele><time>2026-04-18T13:26:59.989Z</time></trkpt><trkpt lat="43.4570935" lon="10.832174"><ele>103.33333333333333</ele><time>2026-04-18T13:27:00.988Z</time></trkpt><trkpt lat="43.457088" lon="10.8319443"><ele>102.66666666666666</ele><time>2026-04-18T13:27:01.988Z</time></trkpt><trkpt lat="43.4570811" lon="10.8317225"><ele>102.0</ele><time>2026-04-18T13:27:02.988Z</time></trkpt><trkpt lat="43.4570752" lon="10.8315034"><ele>102.0</ele><time>2026-04-18T13:27:03.988Z</time></trkpt><trkpt lat="43.4570673" lon="10.8312845"><ele>102.0</ele><time>2026-04-18T13:27:04.988Z</time></trkpt><trkpt lat="43.4570594" lon="10.8310759"><ele>102.0</ele><time>2026-04-18T13:27:05.988Z</time></trkpt><trkpt lat="43.4570524" lon="10.8308839"><ele>101.75</ele><time>2026-04-18T13:27:06.988Z</time></trkpt><trkpt lat="43.4570433" lon="10.8306976"><ele>101.5</ele><time>2026-04-18T13:27:07.988Z</time></trkpt><trkpt lat="43.45704" lon="10.8305233"><ele>101.25</ele><time>2026-04-18T13:27:08.988Z</time></trkpt><trkpt lat="43.4570363" lon="10.8303644"><ele>101.0</ele><time>2026-04-18T13:27:09.988Z</time></trkpt><trkpt lat="43.4570228" lon="10.8302146"><ele>100.99999999999999</ele><time>2026-04-18T13:27:10.988Z</time></trkpt><trkpt lat="43.4570108" lon="10.8300742"><ele>101.0</ele><time>2026-04-18T13:27:11.988Z</time></trkpt><trkpt lat="43.4570144" lon="10.8299534"><ele>101.0</ele><time>2026-04-18T13:27:12.988Z</time></trkpt><trkpt lat="43.4570447" lon="10.8298534"><ele>101.0</ele><time>2026-04-18T13:27:13.988Z</time></trkpt><trkpt lat="43.457099" lon="10.8297975"><ele>100.99999999999999</ele><time>2026-04-18T13:27:14.988Z</time></trkpt><trkpt lat="43.4571761" lon="10.82978"><ele>101.0</ele><time>2026-04-18T13:27:15.988Z</time></trkpt><trkpt lat="43.4572713" lon="10.8297939"><ele>101.0</ele><time>2026-04-18T13:27:16.988Z</time></trkpt><trkpt lat="43.4574005" lon="10.8298208"><ele>101.0</ele><time>2026-04-18T13:27:17.988Z</time></trkpt><trkpt lat="43.4575434" lon="10.82987"><ele>101.0</ele><time>2026-04-18T13:27:18.989Z</time></trkpt><trkpt lat="43.4576918" lon="10.8299366"><ele>101.0</ele><time>2026-04-18T13:27:19.988Z</time></trkpt><trkpt lat="43.457867" lon="10.8300103"><ele>101.0</ele><time>2026-04-18T13:27:20.988Z</time></trkpt><trkpt lat="43.4580635" lon="10.8301008"><ele>101.0</ele><time>2026-04-18T13:27:21.988Z</time></trkpt><trkpt lat="43.4582573" lon="10.8301903"><ele>101.0</ele><time>2026-04-18T13:27:22.988Z</time></trkpt><trkpt lat="43.4584415" lon="10.8302719"><ele>101.0</ele><time>2026-04-18T13:27:23.988Z</time></trkpt><trkpt lat="43.4586178" lon="10.8303523"><ele>101.0</ele><time>2026-04-18T13:27:24.988Z</time></trkpt><trkpt lat="43.4587918" lon="10.830424"><ele>101.0</ele><time>2026-04-18T13:27:25.988Z</time></trkpt><trkpt lat="43.4589617" lon="10.8304927"><ele>104.33333333333333</ele><time>2026-04-18T13:27:26.988Z</time></trkpt><trkpt lat="43.4591342" lon="10.8305601"><ele>107.66666666666666</ele><time>2026-04-18T13:27:27.988Z</time></trkpt><trkpt lat="43.459308" lon="10.830637"><ele>111.0</ele><time>2026-04-18T13:27:28.988Z</time></trkpt><trkpt lat="43.4594855" lon="10.8307104"><ele>113.66666666666666</ele><time>2026-04-18T13:27:29.988Z</time></trkpt><trkpt lat="43.4596575" lon="10.830788"><ele>116.33333333333333</ele><time>2026-04-18T13:27:30.988Z</time></trkpt><trkpt lat="43.4598302" lon="10.8308612"><ele>119.0</ele><time>2026-04-18T13:27:31.988Z</time></trkpt><trkpt lat="43.4599993" lon="10.830933"><ele>123.0</ele><time>2026-04-18T13:27:32.988Z</time></trkpt><trkpt lat="43.460171" lon="10.831011"><ele>127.0</ele><time>2026-04-18T13:27:33.988Z</time></trkpt><trkpt lat="43.4603409" lon="10.8310899"><ele>131.0</ele><time>2026-04-18T13:27:34.988Z</time></trkpt><trkpt lat="43.4605139" lon="10.8311654"><ele>131.33333333333331</ele><time>2026-04-18T13:27:35.989Z</time></trkpt><trkpt lat="43.4606888" lon="10.8312385"><ele>131.66666666666666</ele><time>2026-04-18T13:27:36.988Z</time></trkpt><trkpt lat="43.4608666" lon="10.8313207"><ele>132.0</ele><time>2026-04-18T13:27:37.988Z</time></trkpt><trkpt lat="43.4610488" lon="10.8314034"><ele>132.0</ele><time>2026-04-18T13:27:38.988Z</time></trkpt><trkpt lat="43.4612271" lon="10.8314869"><ele>132.0</ele><time>2026-04-18T13:27:39.989Z</time></trkpt><trkpt lat="43.4614101" lon="10.831564"><ele>132.0</ele><time>2026-04-18T13:27:40.988Z</time></trkpt><trkpt lat="43.4615849" lon="10.831647"><ele>132.0</ele><time>2026-04-18T13:27:41.988Z</time></trkpt><trkpt lat="43.4617647" lon="10.8317229"><ele>132.0</ele><time>2026-04-18T13:27:42.989Z</time></trkpt><trkpt lat="43.4619445" lon="10.8317997"><ele>132.0</ele><time>2026-04-18T13:27:43.988Z</time></trkpt><trkpt lat="43.4621244" lon="10.8318795"><ele>132.66666666666666</ele><time>2026-04-18T13:27:44.988Z</time></trkpt><trkpt lat="43.462298" lon="10.8319525"><ele>133.33333333333331</ele><time>2026-04-18T13:27:45.988Z</time></trkpt><trkpt lat="43.4624797" lon="10.8320307"><ele>134.0</ele><time>2026-04-18T13:27:46.988Z</time></trkpt><trkpt lat="43.4626646" lon="10.8320985"><ele>134.0</ele><time>2026-04-18T13:27:47.988Z</time></trkpt><trkpt lat="43.4628592" lon="10.8321562"><ele>134.0</ele><time>2026-04-18T13:27:48.988Z</time></trkpt><trkpt lat="43.4630606" lon="10.8322067"><ele>134.0</ele><time>2026-04-18T13:27:49.988Z</time></trkpt><trkpt lat="43.4632573" lon="10.8322587"><ele>138.66666666666666</ele><time>2026-04-18T13:27:50.988Z</time></trkpt><trkpt lat="43.463445" lon="10.8323041"><ele>143.33333333333334</ele><time>2026-04-18T13:27:51.989Z</time></trkpt><trkpt lat="43.4636251" lon="10.8323441"><ele>148.0</ele><time>2026-04-18T13:27:52.988Z</time></trkpt><trkpt lat="43.4637951" lon="10.8323844"><ele>151.0</ele><time>2026-04-18T13:27:53.988Z</time></trkpt><trkpt lat="43.4639589" lon="10.832437"><ele>154.0</ele><time>2026-04-18T13:27:54.988Z</time></trkpt><trkpt lat="43.4641218" lon="10.8325141"><ele>157.0</ele><time>2026-04-18T13:27:55.988Z</time></trkpt><trkpt lat="43.4642763" lon="10.8326103"><ele>158.0</ele><time>2026-04-18T13:27:56.988Z</time></trkpt><trkpt lat="43.4644292" lon="10.8327184"><ele>159.0</ele><time>2026-04-18T13:27:57.988Z</time></trkpt><trkpt lat="43.4645638" lon="10.8328626"><ele>160.0</ele><time>2026-04-18T13:27:58.988Z</time></trkpt><trkpt lat="43.4646928" lon="10.8330262"><ele>160.0</ele><time>2026-04-18T13:27:59.988Z</time></trkpt><trkpt lat="43.464808" lon="10.8332168"><ele>160.0</ele><time>2026-04-18T13:28:00.988Z</time></trkpt><trkpt lat="43.4649151" lon="10.833428"><ele>160.0</ele><time>2026-04-18T13:28:01.988Z</time></trkpt><trkpt lat="43.4650189" lon="10.8336364"><ele>161.0</ele><time>2026-04-18T13:28:02.988Z</time></trkpt><trkpt lat="43.4651185" lon="10.8338438"><ele>162.0</ele><time>2026-04-18T13:28:03.988Z</time></trkpt><trkpt lat="43.46522" lon="10.8340584"><ele>163.0</ele><time>2026-04-18T13:28:04.988Z</time></trkpt><trkpt lat="43.4653247" lon="10.8342726"><ele>163.33333333333334</ele><time>2026-04-18T13:28:05.988Z</time></trkpt><trkpt lat="43.4654298" lon="10.8344875"><ele>163.66666666666666</ele><time>2026-04-18T13:28:06.989Z</time></trkpt><trkpt lat="43.4655347" lon="10.8346981"><ele>164.0</ele><time>2026-04-18T13:28:07.988Z</time></trkpt><trkpt lat="43.4656352" lon="10.8349078"><ele>165.0</ele><time>2026-04-18T13:28:08.988Z</time></trkpt><trkpt lat="43.4657316" lon="10.8351134"><ele>166.0</ele><time>2026-04-18T13:28:09.988Z</time></trkpt><trkpt lat="43.4658283" lon="10.8353243"><ele>167.0</ele><time>2026-04-18T13:28:10.988Z</time></trkpt><trkpt lat="43.465931" lon="10.835526"><ele>169.66666666666666</ele><time>2026-04-18T13:28:11.988Z</time></trkpt><trkpt lat="43.4660346" lon="10.8357215"><ele>172.33333333333334</ele><time>2026-04-18T13:28:12.988Z</time></trkpt><trkpt lat="43.4661411" lon="10.835908"><ele>175.0</ele><time>2026-04-18T13:28:13.988Z</time></trkpt><trkpt lat="43.4662615" lon="10.8360777"><ele>176.0</ele><time>2026-04-18T13:28:14.988Z</time></trkpt><trkpt lat="43.4663904" lon="10.8362316"><ele>177.0</ele><time>2026-04-18T13:28:15.988Z</time></trkpt><trkpt lat="43.4665243" lon="10.8363721"><ele>178.0</ele><time>2026-04-18T13:28:16.988Z</time></trkpt><trkpt lat="43.4666661" lon="10.8364944"><ele>178.0</ele><time>2026-04-18T13:28:17.988Z</time></trkpt><trkpt lat="43.4668114" lon="10.8366024"><ele>178.0</ele><time>2026-04-18T13:28:18.988Z</time></trkpt><trkpt lat="43.4669689" lon="10.8366953"><ele>178.0</ele><time>2026-04-18T13:28:19.989Z</time></trkpt><trkpt lat="43.4671342" lon="10.8367743"><ele>181.33333333333334</ele><time>2026-04-18T13:28:20.988Z</time></trkpt><trkpt lat="43.467293" lon="10.8368349"><ele>184.66666666666666</ele><time>2026-04-18T13:28:21.988Z</time></trkpt><trkpt lat="43.4674447" lon="10.8368915"><ele>188.0</ele><time>2026-04-18T13:28:22.988Z</time></trkpt><trkpt lat="43.4675941" lon="10.836961"><ele>188.0</ele><time>2026-04-18T13:28:23.988Z</time></trkpt><trkpt lat="43.467744" lon="10.8370552"><ele>188.0</ele><time>2026-04-18T13:28:24.988Z</time></trkpt><trkpt lat="43.467889" lon="10.8371537"><ele>188.0</ele><time>2026-04-18T13:28:25.988Z</time></trkpt><trkpt lat="43.4680157" lon="10.8372745"><ele>190.0</ele><time>2026-04-18T13:28:26.988Z</time></trkpt><trkpt lat="43.4681396" lon="10.8374006"><ele>192.0</ele><time>2026-04-18T13:28:27.988Z</time></trkpt><trkpt lat="43.468249" lon="10.8375426"><ele>194.0</ele><time>2026-04-18T13:28:28.988Z</time></trkpt><trkpt lat="43.4683529" lon="10.837701"><ele>194.0</ele><time>2026-04-18T13:28:29.988Z</time></trkpt><trkpt lat="43.4684459" lon="10.8378719"><ele>194.0</ele><time>2026-04-18T13:28:30.988Z</time></trkpt><trkpt lat="43.468529" lon="10.8380604"><ele>194.0</ele><time>2026-04-18T13:28:31.988Z</time></trkpt><trkpt lat="43.4686031" lon="10.8382581"><ele>194.0</ele><time>2026-04-18T13:28:32.988Z</time></trkpt><trkpt lat="43.4686718" lon="10.8384587"><ele>194.0</ele><time>2026-04-18T13:28:33.988Z</time></trkpt><trkpt lat="43.4687356" lon="10.8386544"><ele>194.0</ele><time>2026-04-18T13:28:34.988Z</time></trkpt><trkpt lat="43.4687922" lon="10.8388514"><ele>193.0</ele><time>2026-04-18T13:28:35.988Z</time></trkpt><trkpt lat="43.4688554" lon="10.839041"><ele>192.0</ele><time>2026-04-18T13:28:36.988Z</time></trkpt><trkpt lat="43.468916" lon="10.8392423"><ele>191.0</ele><time>2026-04-18T13:28:37.988Z</time></trkpt><trkpt lat="43.4689764" lon="10.8394458"><ele>191.0</ele><time>2026-04-18T13:28:38.988Z</time></trkpt><trkpt lat="43.4690367" lon="10.8396514"><ele>191.0</ele><time>2026-04-18T13:28:39.988Z</time></trkpt><trkpt lat="43.4690944" lon="10.8398413"><ele>191.0</ele><time>2026-04-18T13:28:40.988Z</time></trkpt><trkpt lat="43.4691459" lon="10.8400276"><ele>192.75</ele><time>2026-04-18T13:28:41.988Z</time></trkpt><trkpt lat="43.4692" lon="10.8401999"><ele>194.5</ele><time>2026-04-18T13:28:42.988Z</time></trkpt><trkpt lat="43.4692514" lon="10.8403635"><ele>196.25</ele><time>2026-04-18T13:28:43.988Z</time></trkpt><trkpt lat="43.4693023" lon="10.8405231"><ele>198.0</ele><time>2026-04-18T13:28:44.988Z</time></trkpt><trkpt lat="43.469347" lon="10.840683"><ele>198.0</ele><time>2026-04-18T13:28:45.988Z</time></trkpt><trkpt lat="43.469373" lon="10.8408527"><ele>198.0</ele><time>2026-04-18T13:28:46.988Z</time></trkpt><trkpt lat="43.4693739" lon="10.8410305"><ele>198.0</ele><time>2026-04-18T13:28:47.988Z</time></trkpt><trkpt lat="43.4693493" lon="10.8412144"><ele>198.0</ele><time>2026-04-18T13:28:48.988Z</time></trkpt><trkpt lat="43.4692944" lon="10.8413839"><ele>196.75</ele><time>2026-04-18T13:28:49.989Z</time></trkpt><trkpt lat="43.469229" lon="10.8415448"><ele>195.5</ele><time>2026-04-18T13:28:50.988Z</time></trkpt><trkpt lat="43.4691624" lon="10.8417027"><ele>194.25</ele><time>2026-04-18T13:28:51.988Z</time></trkpt><trkpt lat="43.4691198" lon="10.8418755"><ele>193.0</ele><time>2026-04-18T13:28:52.988Z</time></trkpt><trkpt lat="43.4690974" lon="10.8420478"><ele>192.75</ele><time>2026-04-18T13:28:53.988Z</time></trkpt><trkpt lat="43.4690917" lon="10.8422111"><ele>192.5</ele><time>2026-04-18T13:28:54.988Z</time></trkpt><trkpt lat="43.4691391" lon="10.8423843"><ele>192.25</ele><time>2026-04-18T13:28:55.988Z</time></trkpt><trkpt lat="43.4691816" lon="10.8425619"><ele>192.0</ele><time>2026-04-18T13:28:56.988Z</time></trkpt><trkpt lat="43.4692267" lon="10.8427349"><ele>191.75</ele><time>2026-04-18T13:28:57.989Z</time></trkpt><trkpt lat="43.4692723" lon="10.8429173"><ele>191.5</ele><time>2026-04-18T13:28:58.988Z</time></trkpt><trkpt lat="43.4693231" lon="10.8431091"><ele>191.25</ele><time>2026-04-18T13:28:59.989Z</time></trkpt><trkpt lat="43.4693742" lon="10.8432937"><ele>191.0</ele><time>2026-04-18T13:29:00.988Z</time></trkpt><trkpt lat="43.4694242" lon="10.8434765"><ele>188.75</ele><time>2026-04-18T13:29:01.988Z</time></trkpt><trkpt lat="43.4694663" lon="10.8436645"><ele>186.5</ele><time>2026-04-18T13:29:02.988Z</time></trkpt><trkpt lat="43.4694959" lon="10.8438608"><ele>184.25</ele><time>2026-04-18T13:29:03.988Z</time></trkpt><trkpt lat="43.4695175" lon="10.8440561"><ele>182.0</ele><time>2026-04-18T13:29:04.988Z</time></trkpt><trkpt lat="43.4695311" lon="10.8442563"><ele>183.0</ele><time>2026-04-18T13:29:05.988Z</time></trkpt><trkpt lat="43.4695277" lon="10.8444553"><ele>184.0</ele><time>2026-04-18T13:29:06.989Z</time></trkpt><trkpt lat="43.4695229" lon="10.8446727"><ele>185.0</ele><time>2026-04-18T13:29:07.988Z</time></trkpt><trkpt lat="43.4695024" lon="10.8449018"><ele>184.0</ele><time>2026-04-18T13:29:08.988Z</time></trkpt><trkpt lat="43.4694846" lon="10.8451293"><ele>183.0</ele><time>2026-04-18T13:29:09.988Z</time></trkpt><trkpt lat="43.4694655" lon="10.8453377"><ele>182.0</ele><time>2026-04-18T13:29:10.988Z</time></trkpt><trkpt lat="43.4694546" lon="10.8455328"><ele>182.0</ele><time>2026-04-18T13:29:11.988Z</time></trkpt><trkpt lat="43.4694543" lon="10.8457247"><ele>182.0</ele><time>2026-04-18T13:29:12.988Z</time></trkpt><trkpt lat="43.4694755" lon="10.8459144"><ele>182.0</ele><time>2026-04-18T13:29:13.988Z</time></trkpt><trkpt lat="43.4695284" lon="10.8460967"><ele>182.0</ele><time>2026-04-18T13:29:14.988Z</time></trkpt><trkpt lat="43.4696088" lon="10.8462797"><ele>184.66666666666666</ele><time>2026-04-18T13:29:15.988Z</time></trkpt><trkpt lat="43.4697113" lon="10.8464773"><ele>187.33333333333334</ele><time>2026-04-18T13:29:16.988Z</time></trkpt><trkpt lat="43.4698228" lon="10.846683"><ele>190.0</ele><time>2026-04-18T13:29:17.988Z</time></trkpt><trkpt lat="43.4699283" lon="10.8468857"><ele>190.0</ele><time>2026-04-18T13:29:18.988Z</time></trkpt><trkpt lat="43.4700292" lon="10.8470954"><ele>190.0</ele><time>2026-04-18T13:29:19.988Z</time></trkpt><trkpt lat="43.4701313" lon="10.8473139"><ele>190.0</ele><time>2026-04-18T13:29:20.988Z</time></trkpt><trkpt lat="43.470223" lon="10.8475524"><ele>187.0</ele><time>2026-04-18T13:29:21.988Z</time></trkpt><trkpt lat="43.4703101" lon="10.847813"><ele>184.0</ele><time>2026-04-18T13:29:22.988Z</time></trkpt><trkpt lat="43.4703949" lon="10.848098"><ele>181.0</ele><time>2026-04-18T13:29:23.988Z</time></trkpt><trkpt lat="43.4704779" lon="10.8483926"><ele>188.0</ele><time>2026-04-18T13:29:24.988Z</time></trkpt><trkpt lat="43.4705577" lon="10.8486743"><ele>195.0</ele><time>2026-04-18T13:29:25.988Z</time></trkpt><trkpt lat="43.4706362" lon="10.8489549"><ele>202.0</ele><time>2026-04-18T13:29:26.988Z</time></trkpt><trkpt lat="43.4707081" lon="10.8492239"><ele>199.66666666666666</ele><time>2026-04-18T13:29:27.988Z</time></trkpt><trkpt lat="43.4707716" lon="10.849491"><ele>197.33333333333331</ele><time>2026-04-18T13:29:28.988Z</time></trkpt><trkpt lat="43.4708349" lon="10.8497571"><ele>195.0</ele><time>2026-04-18T13:29:29.988Z</time></trkpt><trkpt lat="43.4708961" lon="10.8500214"><ele>193.33333333333334</ele><time>2026-04-18T13:29:30.988Z</time></trkpt><trkpt lat="43.4709602" lon="10.8502872"><ele>191.66666666666669</ele><time>2026-04-18T13:29:31.987Z</time></trkpt><trkpt lat="43.4710197" lon="10.8505402"><ele>190.0</ele><time>2026-04-18T13:29:32.988Z</time></trkpt><trkpt lat="43.4710807" lon="10.8507851"><ele>189.33333333333334</ele><time>2026-04-18T13:29:33.988Z</time></trkpt><trkpt lat="43.4711341" lon="10.8510288"><ele>188.66666666666666</ele><time>2026-04-18T13:29:34.988Z</time></trkpt><trkpt lat="43.4711889" lon="10.8512697"><ele>188.0</ele><time>2026-04-18T13:29:35.988Z</time></trkpt><trkpt lat="43.4712393" lon="10.8515097"><ele>188.0</ele><time>2026-04-18T13:29:36.988Z</time></trkpt><trkpt lat="43.4712731" lon="10.8517485"><ele>188.0</ele><time>2026-04-18T13:29:37.988Z</time></trkpt><trkpt lat="43.4712854" lon="10.8519921"><ele>188.0</ele><time>2026-04-18T13:29:38.988Z</time></trkpt><trkpt lat="43.4712663" lon="10.8522479"><ele>189.66666666666666</ele><time>2026-04-18T13:29:39.988Z</time></trkpt><trkpt lat="43.4712215" lon="10.8525266"><ele>191.33333333333331</ele><time>2026-04-18T13:29:40.988Z</time></trkpt><trkpt lat="43.4711598" lon="10.8528105"><ele>193.0</ele><time>2026-04-18T13:29:41.988Z</time></trkpt><trkpt lat="43.471101" lon="10.8530788"><ele>194.66666666666666</ele><time>2026-04-18T13:29:42.988Z</time></trkpt><trkpt lat="43.4710511" lon="10.8533324"><ele>196.33333333333331</ele><time>2026-04-18T13:29:43.988Z</time></trkpt><trkpt lat="43.4710031" lon="10.8535631"><ele>198.0</ele><time>2026-04-18T13:29:44.988Z</time></trkpt><trkpt lat="43.4709625" lon="10.8537894"><ele>199.66666666666669</ele><time>2026-04-18T13:29:45.988Z</time></trkpt><trkpt lat="43.4709517" lon="10.8540181"><ele>201.33333333333334</ele><time>2026-04-18T13:29:46.988Z</time></trkpt><trkpt lat="43.4709657" lon="10.8542556"><ele>203.0</ele><time>2026-04-18T13:29:47.988Z</time></trkpt><trkpt lat="43.4710045" lon="10.8545216"><ele>205.33333333333334</ele><time>2026-04-18T13:29:48.988Z</time></trkpt><trkpt lat="43.4710537" lon="10.8547871"><ele>207.66666666666669</ele><time>2026-04-18T13:29:49.988Z</time></trkpt><trkpt lat="43.4710981" lon="10.8550366"><ele>210.0</ele><time>2026-04-18T13:29:50.988Z</time></trkpt><trkpt lat="43.4711423" lon="10.8552763"><ele>210.66666666666669</ele><time>2026-04-18T13:29:51.988Z</time></trkpt><trkpt lat="43.4711752" lon="10.8555182"><ele>211.33333333333334</ele><time>2026-04-18T13:29:52.989Z</time></trkpt><trkpt lat="43.471191" lon="10.8557677"><ele>212.0</ele><time>2026-04-18T13:29:53.988Z</time></trkpt><trkpt lat="43.4711866" lon="10.8560283"><ele>210.66666666666669</ele><time>2026-04-18T13:29:54.988Z</time></trkpt><trkpt lat="43.4711651" lon="10.8562948"><ele>209.33333333333331</ele><time>2026-04-18T13:29:55.989Z</time></trkpt><trkpt lat="43.4711344" lon="10.8565558"><ele>208.0</ele><time>2026-04-18T13:29:56.988Z</time></trkpt><trkpt lat="43.4711128" lon="10.8568179"><ele>206.0</ele><time>2026-04-18T13:29:57.988Z</time></trkpt><trkpt lat="43.4711079" lon="10.8570785"><ele>204.0</ele><time>2026-04-18T13:29:58.988Z</time></trkpt><trkpt lat="43.4711278" lon="10.8573368"><ele>202.0</ele><time>2026-04-18T13:29:59.987Z</time></trkpt><trkpt lat="43.4711665" lon="10.8576176"><ele>202.33333333333331</ele><time>2026-04-18T13:30:00.988Z</time></trkpt><trkpt lat="43.4712229" lon="10.8579073"><ele>202.66666666666669</ele><time>2026-04-18T13:30:01.988Z</time></trkpt><trkpt lat="43.4712872" lon="10.8582101"><ele>203.0</ele><time>2026-04-18T13:30:02.988Z</time></trkpt><trkpt lat="43.4713558" lon="10.8585288"><ele>203.5</ele><time>2026-04-18T13:30:03.988Z</time></trkpt><trkpt lat="43.4714269" lon="10.8588352"><ele>204.0</ele><time>2026-04-18T13:30:04.988Z</time></trkpt><trkpt lat="43.4714909" lon="10.8591249"><ele>205.0</ele><time>2026-04-18T13:30:05.988Z</time></trkpt><trkpt lat="43.4715523" lon="10.8594164"><ele>206.0</ele><time>2026-04-18T13:30:06.988Z</time></trkpt><trkpt lat="43.4716311" lon="10.859707"><ele>207.0</ele><time>2026-04-18T13:30:07.988Z</time></trkpt><trkpt lat="43.4717126" lon="10.8599737"><ele>208.0</ele><time>2026-04-18T13:30:08.988Z</time></trkpt><trkpt lat="43.4717956" lon="10.8602346"><ele>209.0</ele><time>2026-04-18T13:30:09.988Z</time></trkpt><trkpt lat="43.471882" lon="10.8604736"><ele>210.0</ele><time>2026-04-18T13:30:10.988Z</time></trkpt><trkpt lat="43.4719694" lon="10.860699"><ele>210.0</ele><time>2026-04-18T13:30:11.988Z</time></trkpt><trkpt lat="43.4720384" lon="10.860932"><ele>210.0</ele><time>2026-04-18T13:30:12.988Z</time></trkpt><trkpt lat="43.4720909" lon="10.8611614"><ele>210.0</ele><time>2026-04-18T13:30:13.988Z</time></trkpt><trkpt lat="43.4721233" lon="10.8614006"><ele>208.0</ele><time>2026-04-18T13:30:14.988Z</time></trkpt><trkpt lat="43.4721395" lon="10.8616506"><ele>206.0</ele><time>2026-04-18T13:30:15.988Z</time></trkpt><trkpt lat="43.4721343" lon="10.8619124"><ele>204.0</ele><time>2026-04-18T13:30:16.988Z</time></trkpt><trkpt lat="43.4721257" lon="10.8621688"><ele>204.33333333333331</ele><time>2026-04-18T13:30:17.988Z</time></trkpt><trkpt lat="43.4721169" lon="10.8624157"><ele>204.66666666666666</ele><time>2026-04-18T13:30:18.988Z</time></trkpt><trkpt lat="43.4721082" lon="10.8626564"><ele>205.0</ele><time>2026-04-18T13:30:19.988Z</time></trkpt><trkpt lat="43.4720961" lon="10.8628851"><ele>205.0</ele><time>2026-04-18T13:30:20.988Z</time></trkpt><trkpt lat="43.4720875" lon="10.8631083"><ele>205.0</ele><time>2026-04-18T13:30:21.988Z</time></trkpt><trkpt lat="43.4720883" lon="10.8633307"><ele>205.0</ele><time>2026-04-18T13:30:22.988Z</time></trkpt><trkpt lat="43.4721107" lon="10.8635515"><ele>205.66666666666666</ele><time>2026-04-18T13:30:23.989Z</time></trkpt><trkpt lat="43.4721578" lon="10.8637644"><ele>206.33333333333331</ele><time>2026-04-18T13:30:24.988Z</time></trkpt><trkpt lat="43.4722344" lon="10.8639784"><ele>207.0</ele><time>2026-04-18T13:30:25.988Z</time></trkpt><trkpt lat="43.47232" lon="10.8641885"><ele>208.33333333333331</ele><time>2026-04-18T13:30:26.988Z</time></trkpt><trkpt lat="43.472426" lon="10.8643868"><ele>209.66666666666666</ele><time>2026-04-18T13:30:27.988Z</time></trkpt><trkpt lat="43.4725375" lon="10.8645825"><ele>211.0</ele><time>2026-04-18T13:30:28.988Z</time></trkpt><trkpt lat="43.4726554" lon="10.8647807"><ele>211.0</ele><time>2026-04-18T13:30:29.988Z</time></trkpt><trkpt lat="43.4727726" lon="10.8649803"><ele>211.0</ele><time>2026-04-18T13:30:30.988Z</time></trkpt><trkpt lat="43.4728946" lon="10.865184"><ele>211.0</ele><time>2026-04-18T13:30:31.988Z</time></trkpt><trkpt lat="43.4730217" lon="10.8653964"><ele>211.0</ele><time>2026-04-18T13:30:32.988Z</time></trkpt><trkpt lat="43.4731652" lon="10.8656292"><ele>211.0</ele><time>2026-04-18T13:30:33.988Z</time></trkpt><trkpt lat="43.4733209" lon="10.8658827"><ele>210.5</ele><time>2026-04-18T13:30:34.987Z</time></trkpt><trkpt lat="43.4734784" lon="10.8661575"><ele>210.0</ele><time>2026-04-18T13:30:35.988Z</time></trkpt><trkpt lat="43.4736508" lon="10.866441"><ele>211.5</ele><time>2026-04-18T13:30:36.988Z</time></trkpt><trkpt lat="43.4738172" lon="10.8667143"><ele>213.0</ele><time>2026-04-18T13:30:37.988Z</time></trkpt><trkpt lat="43.473973" lon="10.8669752"><ele>213.0</ele><time>2026-04-18T13:30:38.989Z</time></trkpt><trkpt lat="43.4741248" lon="10.8672233"><ele>213.0</ele><time>2026-04-18T13:30:39.989Z</time></trkpt><trkpt lat="43.4742753" lon="10.8674615"><ele>212.33333333333331</ele><time>2026-04-18T13:30:40.988Z</time></trkpt><trkpt lat="43.4744164" lon="10.8676911"><ele>211.66666666666666</ele><time>2026-04-18T13:30:41.988Z</time></trkpt><trkpt lat="43.47454" lon="10.8679138"><ele>211.0</ele><time>2026-04-18T13:30:42.988Z</time></trkpt><trkpt lat="43.4746422" lon="10.8681412"><ele>212.33333333333331</ele><time>2026-04-18T13:30:43.988Z</time></trkpt><trkpt lat="43.474731" lon="10.8683775"><ele>213.66666666666669</ele><time>2026-04-18T13:30:44.988Z</time></trkpt><trkpt lat="43.4747966" lon="10.8686351"><ele>215.0</ele><time>2026-04-18T13:30:45.988Z</time></trkpt><trkpt lat="43.4748485" lon="10.86891"><ele>216.33333333333334</ele><time>2026-04-18T13:30:46.988Z</time></trkpt><trkpt lat="43.4749011" lon="10.8692009"><ele>217.66666666666669</ele><time>2026-04-18T13:30:47.988Z</time></trkpt><trkpt lat="43.4749518" lon="10.8695024"><ele>219.0</ele><time>2026-04-18T13:30:48.988Z</time></trkpt><trkpt lat="43.4749992" lon="10.869811"><ele>218.66666666666669</ele><time>2026-04-18T13:30:49.988Z</time></trkpt><trkpt lat="43.4750451" lon="10.8701098"><ele>218.33333333333334</ele><time>2026-04-18T13:30:50.988Z</time></trkpt><trkpt lat="43.4750978" lon="10.8703998"><ele>218.0</ele><time>2026-04-18T13:30:51.988Z</time></trkpt><trkpt lat="43.4751443" lon="10.8706837"><ele>217.0</ele><time>2026-04-18T13:30:52.988Z</time></trkpt><trkpt lat="43.4751921" lon="10.8709557"><ele>216.0</ele><time>2026-04-18T13:30:53.988Z</time></trkpt><trkpt lat="43.4752449" lon="10.8712246"><ele>215.0</ele><time>2026-04-18T13:30:54.988Z</time></trkpt><trkpt lat="43.4753091" lon="10.8714818"><ele>215.0</ele><time>2026-04-18T13:30:55.988Z</time></trkpt><trkpt lat="43.4753877" lon="10.8717315"><ele>215.0</ele><time>2026-04-18T13:30:56.988Z</time></trkpt><trkpt lat="43.4754852" lon="10.871968"><ele>215.0</ele><time>2026-04-18T13:30:57.988Z</time></trkpt><trkpt lat="43.4755885" lon="10.8721989"><ele>215.66666666666669</ele><time>2026-04-18T13:30:58.989Z</time></trkpt><trkpt lat="43.4756887" lon="10.8724115"><ele>216.33333333333331</ele><time>2026-04-18T13:30:59.988Z</time></trkpt><trkpt lat="43.4758055" lon="10.8726096"><ele>217.0</ele><time>2026-04-18T13:31:00.988Z</time></trkpt><trkpt lat="43.4759436" lon="10.8727914"><ele>217.0</ele><time>2026-04-18T13:31:01.988Z</time></trkpt><trkpt lat="43.4761036" lon="10.8729664"><ele>217.0</ele><time>2026-04-18T13:31:02.988Z</time></trkpt><trkpt lat="43.4762725" lon="10.8731443"><ele>217.0</ele><time>2026-04-18T13:31:03.988Z</time></trkpt><trkpt lat="43.4764493" lon="10.8733253"><ele>221.66666666666666</ele><time>2026-04-18T13:31:04.988Z</time></trkpt><trkpt lat="43.4766172" lon="10.8735057"><ele>226.33333333333331</ele><time>2026-04-18T13:31:05.988Z</time></trkpt><trkpt lat="43.4767809" lon="10.873684"><ele>231.0</ele><time>2026-04-18T13:31:06.988Z</time></trkpt><trkpt lat="43.4769406" lon="10.8738499"><ele>231.0</ele><time>2026-04-18T13:31:07.988Z</time></trkpt><trkpt lat="43.4770979" lon="10.8740171"><ele>231.0</ele><time>2026-04-18T13:31:08.988Z</time></trkpt><trkpt lat="43.4772585" lon="10.8741706"><ele>231.0</ele><time>2026-04-18T13:31:09.988Z</time></trkpt><trkpt lat="43.4774259" lon="10.8743162"><ele>234.33333333333331</ele><time>2026-04-18T13:31:10.988Z</time></trkpt><trkpt lat="43.4775994" lon="10.8744533"><ele>237.66666666666666</ele><time>2026-04-18T13:31:11.988Z</time></trkpt><trkpt lat="43.4777805" lon="10.8745845"><ele>241.0</ele><time>2026-04-18T13:31:12.988Z</time></trkpt><trkpt lat="43.477972" lon="10.8747104"><ele>241.66666666666666</ele><time>2026-04-18T13:31:13.985Z</time></trkpt><trkpt lat="43.4781607" lon="10.8748218"><ele>242.33333333333331</ele><time>2026-04-18T13:31:14.984Z</time></trkpt><trkpt lat="43.4783387" lon="10.8749394"><ele>243.0</ele><time>2026-04-18T13:31:15.988Z</time></trkpt><trkpt lat="43.4785048" lon="10.8750521"><ele>245.0</ele><time>2026-04-18T13:31:16.988Z</time></trkpt><trkpt lat="43.4786631" lon="10.8751526"><ele>247.0</ele><time>2026-04-18T13:31:17.988Z</time></trkpt><trkpt lat="43.4788055" lon="10.8752472"><ele>249.0</ele><time>2026-04-18T13:31:18.988Z</time></trkpt><trkpt lat="43.4789346" lon="10.8753351"><ele>249.0</ele><time>2026-04-18T13:31:19.988Z</time></trkpt><trkpt lat="43.4790462" lon="10.8754305"><ele>249.0</ele><time>2026-04-18T13:31:20.986Z</time></trkpt><trkpt lat="43.4791397" lon="10.8755469"><ele>249.0</ele><time>2026-04-18T13:31:21.984Z</time></trkpt><trkpt lat="43.4792115" lon="10.8756929"><ele>249.0</ele><time>2026-04-18T13:31:22.988Z</time></trkpt><trkpt lat="43.4792544" lon="10.8758721"><ele>250.0</ele><time>2026-04-18T13:31:23.988Z</time></trkpt><trkpt lat="43.4792743" lon="10.8760885"><ele>251.0</ele><time>2026-04-18T13:31:24.988Z</time></trkpt><trkpt lat="43.4792885" lon="10.8763153"><ele>252.0</ele><time>2026-04-18T13:31:25.988Z</time></trkpt><trkpt lat="43.4793105" lon="10.8765409"><ele>252.0</ele><time>2026-04-18T13:31:26.988Z</time></trkpt><trkpt lat="43.4793397" lon="10.8767623"><ele>252.0</ele><time>2026-04-18T13:31:27.988Z</time></trkpt><trkpt lat="43.4793987" lon="10.8769921"><ele>252.0</ele><time>2026-04-18T13:31:28.988Z</time></trkpt><trkpt lat="43.4794887" lon="10.8772362"><ele>252.0</ele><time>2026-04-18T13:31:29.988Z</time></trkpt><trkpt lat="43.4796047" lon="10.8775058"><ele>252.0</ele><time>2026-04-18T13:31:30.989Z</time></trkpt><trkpt lat="43.4797304" lon="10.8777833"><ele>252.0</ele><time>2026-04-18T13:31:31.988Z</time></trkpt><trkpt lat="43.4798584" lon="10.8780627"><ele>252.0</ele><time>2026-04-18T13:31:32.988Z</time></trkpt><trkpt lat="43.4799848" lon="10.8783395"><ele>256.5</ele><time>2026-04-18T13:31:33.988Z</time></trkpt><trkpt lat="43.4801096" lon="10.8786146"><ele>261.0</ele><time>2026-04-18T13:31:34.988Z</time></trkpt><trkpt lat="43.4802321" lon="10.8788746"><ele>261.0</ele><time>2026-04-18T13:31:35.989Z</time></trkpt><trkpt lat="43.4803489" lon="10.8791334"><ele>261.0</ele><time>2026-04-18T13:31:36.988Z</time></trkpt><trkpt lat="43.4804619" lon="10.8793869"><ele>261.0</ele><time>2026-04-18T13:31:37.988Z</time></trkpt><trkpt lat="43.4805764" lon="10.8796362"><ele>261.3333333333333</ele><time>2026-04-18T13:31:38.988Z</time></trkpt><trkpt lat="43.4806878" lon="10.8798785"><ele>261.66666666666663</ele><time>2026-04-18T13:31:39.988Z</time></trkpt><trkpt lat="43.4807963" lon="10.880109"><ele>262.0</ele><time>2026-04-18T13:31:40.988Z</time></trkpt><trkpt lat="43.4808997" lon="10.8803323"><ele>264.0</ele><time>2026-04-18T13:31:41.988Z</time></trkpt><trkpt lat="43.4809937" lon="10.880549"><ele>266.0</ele><time>2026-04-18T13:31:42.989Z</time></trkpt><trkpt lat="43.4810913" lon="10.8807625"><ele>268.0</ele><time>2026-04-18T13:31:43.988Z</time></trkpt><trkpt lat="43.4811806" lon="10.880969"><ele>266.0</ele><time>2026-04-18T13:31:44.988Z</time></trkpt><trkpt lat="43.4812515" lon="10.8811751"><ele>264.0</ele><time>2026-04-18T13:31:45.989Z</time></trkpt><trkpt lat="43.4812934" lon="10.8813941"><ele>262.0</ele><time>2026-04-18T13:31:46.988Z</time></trkpt><trkpt lat="43.4813292" lon="10.8816207"><ele>264.5</ele><time>2026-04-18T13:31:47.988Z</time></trkpt><trkpt lat="43.4813611" lon="10.8818466"><ele>267.0</ele><time>2026-04-18T13:31:48.988Z</time></trkpt><trkpt lat="43.4813931" lon="10.8820486"><ele>269.5</ele><time>2026-04-18T13:31:49.988Z</time></trkpt><trkpt lat="43.4814174" lon="10.8822214"><ele>272.0</ele><time>2026-04-18T13:31:50.988Z</time></trkpt><trkpt lat="43.4814523" lon="10.8823662"><ele>272.0</ele><time>2026-04-18T13:31:51.988Z</time></trkpt><trkpt lat="43.48153" lon="10.8824712"><ele>272.0</ele><time>2026-04-18T13:31:52.988Z</time></trkpt><trkpt lat="43.4816173" lon="10.8825424"><ele>272.0</ele><time>2026-04-18T13:31:53.988Z</time></trkpt><trkpt lat="43.4817072" lon="10.8825936"><ele>272.0</ele><time>2026-04-18T13:31:54.988Z</time></trkpt><trkpt lat="43.4818272" lon="10.8825358"><ele>272.0</ele><time>2026-04-18T13:31:55.988Z</time></trkpt><trkpt lat="43.4819368" lon="10.8824523"><ele>272.0</ele><time>2026-04-18T13:31:56.988Z</time></trkpt><trkpt lat="43.4820628" lon="10.8823298"><ele>272.0</ele><time>2026-04-18T13:31:57.988Z</time></trkpt><trkpt lat="43.4821908" lon="10.8821875"><ele>272.0</ele><time>2026-04-18T13:31:58.988Z</time></trkpt><trkpt lat="43.4823178" lon="10.882051"><ele>270.33333333333337</ele><time>2026-04-18T13:31:59.988Z</time></trkpt><trkpt lat="43.4824412" lon="10.8819222"><ele>268.6666666666667</ele><time>2026-04-18T13:32:00.988Z</time></trkpt><trkpt lat="43.4825779" lon="10.8818151"><ele>267.0</ele><time>2026-04-18T13:32:01.988Z</time></trkpt><trkpt lat="43.4827273" lon="10.8817454"><ele>267.0</ele><time>2026-04-18T13:32:02.988Z</time></trkpt><trkpt lat="43.4828879" lon="10.8817193"><ele>267.0</ele><time>2026-04-18T13:32:03.988Z</time></trkpt><trkpt lat="43.4830353" lon="10.8817199"><ele>267.0</ele><time>2026-04-18T13:32:04.988Z</time></trkpt><trkpt lat="43.4831756" lon="10.8817376"><ele>270.25</ele><time>2026-04-18T13:32:05.988Z</time></trkpt><trkpt lat="43.4833017" lon="10.8817879"><ele>273.5</ele><time>2026-04-18T13:32:06.988Z</time></trkpt><trkpt lat="43.4834195" lon="10.8818906"><ele>276.75</ele><time>2026-04-18T13:32:07.988Z</time></trkpt><trkpt lat="43.4835064" lon="10.8820296"><ele>280.0</ele><time>2026-04-18T13:32:08.988Z</time></trkpt><trkpt lat="43.483566" lon="10.8822081"><ele>280.0</ele><time>2026-04-18T13:32:09.988Z</time></trkpt><trkpt lat="43.4836118" lon="10.8824212"><ele>280.0</ele><time>2026-04-18T13:32:10.988Z</time></trkpt><trkpt lat="43.4836492" lon="10.8826432"><ele>280.0</ele><time>2026-04-18T13:32:11.988Z</time></trkpt><trkpt lat="43.4836994" lon="10.8828663"><ele>280.0</ele><time>2026-04-18T13:32:12.988Z</time></trkpt><trkpt lat="43.4837718" lon="10.8830812"><ele>280.0</ele><time>2026-04-18T13:32:13.988Z</time></trkpt><trkpt lat="43.4838651" lon="10.8832691"><ele>280.0</ele><time>2026-04-18T13:32:14.988Z</time></trkpt><trkpt lat="43.4839772" lon="10.8834372"><ele>281.75</ele><time>2026-04-18T13:32:15.988Z</time></trkpt><trkpt lat="43.4840815" lon="10.8835917"><ele>283.5</ele><time>2026-04-18T13:32:16.988Z</time></trkpt><trkpt lat="43.4841564" lon="10.8837577"><ele>285.25</ele><time>2026-04-18T13:32:17.989Z</time></trkpt><trkpt lat="43.4842112" lon="10.8839552"><ele>287.0</ele><time>2026-04-18T13:32:18.989Z</time></trkpt><trkpt lat="43.4842527" lon="10.884174"><ele>288.33333333333337</ele><time>2026-04-18T13:32:19.988Z</time></trkpt><trkpt lat="43.4842982" lon="10.884401"><ele>289.6666666666667</ele><time>2026-04-18T13:32:20.988Z</time></trkpt><trkpt lat="43.4843427" lon="10.8846223"><ele>291.0</ele><time>2026-04-18T13:32:21.988Z</time></trkpt><trkpt lat="43.484387" lon="10.8848418"><ele>291.0</ele><time>2026-04-18T13:32:22.988Z</time></trkpt><trkpt lat="43.4844301" lon="10.8850525"><ele>291.0</ele><time>2026-04-18T13:32:23.988Z</time></trkpt><trkpt lat="43.484474" lon="10.885266"><ele>291.0</ele><time>2026-04-18T13:32:24.988Z</time></trkpt><trkpt lat="43.4845095" lon="10.8854625"><ele>291.5</ele><time>2026-04-18T13:32:25.988Z</time></trkpt><trkpt lat="43.4845323" lon="10.8856398"><ele>292.0</ele><time>2026-04-18T13:32:26.988Z</time></trkpt><trkpt lat="43.4845287" lon="10.885815"><ele>292.5</ele><time>2026-04-18T13:32:27.988Z</time></trkpt><trkpt lat="43.4844848" lon="10.8859899"><ele>293.0</ele><time>2026-04-18T13:32:28.988Z</time></trkpt><trkpt lat="43.4844072" lon="10.8861783"><ele>293.0</ele><time>2026-04-18T13:32:29.988Z</time></trkpt><trkpt lat="43.4843125" lon="10.8863732"><ele>293.0</ele><time>2026-04-18T13:32:30.988Z</time></trkpt><trkpt lat="43.4842086" lon="10.8865835"><ele>293.0</ele><time>2026-04-18T13:32:31.988Z</time></trkpt><trkpt lat="43.4841044" lon="10.8867819"><ele>291.0</ele><time>2026-04-18T13:32:32.988Z</time></trkpt><trkpt lat="43.4839889" lon="10.8869615"><ele>289.0</ele><time>2026-04-18T13:32:33.988Z</time></trkpt><trkpt lat="43.483862" lon="10.88712"><ele>287.0</ele><time>2026-04-18T13:32:34.988Z</time></trkpt><trkpt lat="43.483733" lon="10.8872528"><ele>290.5</ele><time>2026-04-18T13:32:35.988Z</time></trkpt><trkpt lat="43.4836115" lon="10.8873796"><ele>294.0</ele><time>2026-04-18T13:32:36.988Z</time></trkpt><trkpt lat="43.4835072" lon="10.8874927"><ele>297.5</ele><time>2026-04-18T13:32:37.988Z</time></trkpt><trkpt lat="43.48343" lon="10.8876037"><ele>301.0</ele><time>2026-04-18T13:32:38.988Z</time></trkpt><trkpt lat="43.4833889" lon="10.8877356"><ele>301.8</ele><time>2026-04-18T13:32:39.988Z</time></trkpt><trkpt lat="43.4833937" lon="10.8878613"><ele>302.6</ele><time>2026-04-18T13:32:40.989Z</time></trkpt><trkpt lat="43.4834328" lon="10.8879762"><ele>303.4</ele><time>2026-04-18T13:32:41.988Z</time></trkpt><trkpt lat="43.4835424" lon="10.888079"><ele>304.2</ele><time>2026-04-18T13:32:42.988Z</time></trkpt><trkpt lat="43.4836438" lon="10.8881756"><ele>305.0</ele><time>2026-04-18T13:32:43.988Z</time></trkpt><trkpt lat="43.4837438" lon="10.8882869"><ele>303.0</ele><time>2026-04-18T13:32:44.988Z</time></trkpt><trkpt lat="43.4838339" lon="10.8884204"><ele>301.0</ele><time>2026-04-18T13:32:45.988Z</time></trkpt><trkpt lat="43.483908" lon="10.8885912"><ele>299.0</ele><time>2026-04-18T13:32:46.988Z</time></trkpt><trkpt lat="43.4839491" lon="10.8887829"><ele>297.0</ele><time>2026-04-18T13:32:47.988Z</time></trkpt><trkpt lat="43.4839958" lon="10.8889667"><ele>297.0</ele><time>2026-04-18T13:32:48.988Z</time></trkpt><trkpt lat="43.4840532" lon="10.8891556"><ele>297.0</ele><time>2026-04-18T13:32:49.988Z</time></trkpt><trkpt lat="43.4841258" lon="10.8893315"><ele>297.0</ele><time>2026-04-18T13:32:50.988Z</time></trkpt><trkpt lat="43.4842392" lon="10.8894812"><ele>297.25</ele><time>2026-04-18T13:32:51.988Z</time></trkpt><trkpt lat="43.4843673" lon="10.8896139"><ele>297.5</ele><time>2026-04-18T13:32:52.988Z</time></trkpt><trkpt lat="43.4844923" lon="10.8897315"><ele>297.75</ele><time>2026-04-18T13:32:53.988Z</time></trkpt><trkpt lat="43.4846007" lon="10.8898446"><ele>298.0</ele><time>2026-04-18T13:32:54.989Z</time></trkpt><trkpt lat="43.4846893" lon="10.8899732"><ele>299.3333333333333</ele><time>2026-04-18T13:32:55.989Z</time></trkpt><trkpt lat="43.4847743" lon="10.890129"><ele>300.6666666666667</ele><time>2026-04-18T13:32:56.987Z</time></trkpt><trkpt lat="43.4848468" lon="10.8903246"><ele>302.0</ele><time>2026-04-18T13:32:57.988Z</time></trkpt><trkpt lat="43.4849246" lon="10.8905332"><ele>302.0</ele><time>2026-04-18T13:32:58.988Z</time></trkpt><trkpt lat="43.485004" lon="10.8907477"><ele>302.0</ele><time>2026-04-18T13:32:59.988Z</time></trkpt><trkpt lat="43.485084" lon="10.8909734"><ele>302.0</ele><time>2026-04-18T13:33:00.988Z</time></trkpt><trkpt lat="43.4851684" lon="10.8912127"><ele>301.33333333333337</ele><time>2026-04-18T13:33:01.988Z</time></trkpt><trkpt lat="43.485263" lon="10.8914615"><ele>300.6666666666667</ele><time>2026-04-18T13:33:02.988Z</time></trkpt><trkpt lat="43.4853536" lon="10.8917077"><ele>300.0</ele><time>2026-04-18T13:33:03.988Z</time></trkpt><trkpt lat="43.4854486" lon="10.8919788"><ele>303.3333333333333</ele><time>2026-04-18T13:33:04.988Z</time></trkpt><trkpt lat="43.4855389" lon="10.8922241"><ele>306.66666666666663</ele><time>2026-04-18T13:33:05.988Z</time></trkpt><trkpt lat="43.4856221" lon="10.8924521"><ele>310.0</ele><time>2026-04-18T13:33:06.989Z</time></trkpt><trkpt lat="43.4856999" lon="10.8926867"><ele>311.3333333333333</ele><time>2026-04-18T13:33:07.988Z</time></trkpt><trkpt lat="43.4857541" lon="10.8929277"><ele>312.6666666666667</ele><time>2026-04-18T13:33:08.988Z</time></trkpt><trkpt lat="43.4857895" lon="10.8931712"><ele>314.0</ele><time>2026-04-18T13:33:09.986Z</time></trkpt><trkpt lat="43.485813" lon="10.8933882"><ele>313.25</ele><time>2026-04-18T13:33:10.988Z</time></trkpt><trkpt lat="43.4858406" lon="10.8935923"><ele>312.5</ele><time>2026-04-18T13:33:11.988Z</time></trkpt><trkpt lat="43.4858902" lon="10.8937761"><ele>311.75</ele><time>2026-04-18T13:33:12.988Z</time></trkpt><trkpt lat="43.4859595" lon="10.8939387"><ele>311.0</ele><time>2026-04-18T13:33:13.988Z</time></trkpt><trkpt lat="43.4860531" lon="10.8940668"><ele>311.0</ele><time>2026-04-18T13:33:14.988Z</time></trkpt><trkpt lat="43.4861744" lon="10.8941716"><ele>311.0</ele><time>2026-04-18T13:33:15.989Z</time></trkpt><trkpt lat="43.4863286" lon="10.8942698"><ele>311.0</ele><time>2026-04-18T13:33:16.988Z</time></trkpt><trkpt lat="43.4864879" lon="10.8943643"><ele>312.6666666666667</ele><time>2026-04-18T13:33:17.989Z</time></trkpt><trkpt lat="43.4866561" lon="10.8944683"><ele>314.3333333333333</ele><time>2026-04-18T13:33:18.988Z</time></trkpt><trkpt lat="43.4868209" lon="10.8945719"><ele>316.0</ele><time>2026-04-18T13:33:19.988Z</time></trkpt><trkpt lat="43.486976" lon="10.8946636"><ele>320.0</ele><time>2026-04-18T13:33:20.988Z</time></trkpt><trkpt lat="43.4871193" lon="10.8947475"><ele>324.0</ele><time>2026-04-18T13:33:21.988Z</time></trkpt><trkpt lat="43.4872585" lon="10.8948328"><ele>328.0</ele><time>2026-04-18T13:33:22.988Z</time></trkpt><trkpt lat="43.4873813" lon="10.894922"><ele>332.0</ele><time>2026-04-18T13:33:23.989Z</time></trkpt><trkpt lat="43.4874861" lon="10.8950419"><ele>331.5</ele><time>2026-04-18T13:33:24.988Z</time></trkpt><trkpt lat="43.4875696" lon="10.8951952"><ele>331.0</ele><time>2026-04-18T13:33:25.989Z</time></trkpt><trkpt lat="43.4876189" lon="10.8953723"><ele>330.5</ele><time>2026-04-18T13:33:26.988Z</time></trkpt><trkpt lat="43.4876339" lon="10.8955972"><ele>330.0</ele><time>2026-04-18T13:33:27.988Z</time></trkpt><trkpt lat="43.4876318" lon="10.8958363"><ele>330.6666666666667</ele><time>2026-04-18T13:33:28.988Z</time></trkpt><trkpt lat="43.4876372" lon="10.8960905"><ele>331.33333333333337</ele><time>2026-04-18T13:33:29.988Z</time></trkpt><trkpt lat="43.4876585" lon="10.8963397"><ele>332.0</ele><time>2026-04-18T13:33:30.988Z</time></trkpt><trkpt lat="43.4876906" lon="10.8965773"><ele>333.0</ele><time>2026-04-18T13:33:31.988Z</time></trkpt><trkpt lat="43.4877308" lon="10.8967947"><ele>334.0</ele><time>2026-04-18T13:33:32.988Z</time></trkpt><trkpt lat="43.4877719" lon="10.8970201"><ele>335.0</ele><time>2026-04-18T13:33:33.988Z</time></trkpt><trkpt lat="43.4877957" lon="10.8972367"><ele>335.0</ele><time>2026-04-18T13:33:34.988Z</time></trkpt><trkpt lat="43.4878052" lon="10.8974709"><ele>335.0</ele><time>2026-04-18T13:33:35.989Z</time></trkpt><trkpt lat="43.4877858" lon="10.8977119"><ele>335.0</ele><time>2026-04-18T13:33:36.988Z</time></trkpt><trkpt lat="43.487748" lon="10.897959"><ele>337.6666666666667</ele><time>2026-04-18T13:33:37.988Z</time></trkpt><trkpt lat="43.4876981" lon="10.8982144"><ele>340.3333333333333</ele><time>2026-04-18T13:33:38.988Z</time></trkpt><trkpt lat="43.4876505" lon="10.8984424"><ele>343.0</ele><time>2026-04-18T13:33:39.988Z</time></trkpt><trkpt lat="43.4876041" lon="10.8986536"><ele>343.5</ele><time>2026-04-18T13:33:40.988Z</time></trkpt><trkpt lat="43.4875613" lon="10.8988597"><ele>344.0</ele><time>2026-04-18T13:33:41.988Z</time></trkpt><trkpt lat="43.4875479" lon="10.8990546"><ele>344.5</ele><time>2026-04-18T13:33:42.988Z</time></trkpt><trkpt lat="43.4875553" lon="10.8992487"><ele>345.0</ele><time>2026-04-18T13:33:43.988Z</time></trkpt><trkpt lat="43.4875974" lon="10.8994463"><ele>345.0</ele><time>2026-04-18T13:33:44.988Z</time></trkpt><trkpt lat="43.4876593" lon="10.899623"><ele>345.0</ele><time>2026-04-18T13:33:45.989Z</time></trkpt><trkpt lat="43.4877276" lon="10.8997953"><ele>345.0</ele><time>2026-04-18T13:33:46.988Z</time></trkpt><trkpt lat="43.4877783" lon="10.8999621"><ele>345.0</ele><time>2026-04-18T13:33:47.988Z</time></trkpt><trkpt lat="43.4878069" lon="10.9001285"><ele>346.5</ele><time>2026-04-18T13:33:48.988Z</time></trkpt><trkpt lat="43.4877874" lon="10.9003097"><ele>348.0</ele><time>2026-04-18T13:33:49.988Z</time></trkpt><trkpt lat="43.4877389" lon="10.9004731"><ele>349.5</ele><time>2026-04-18T13:33:50.988Z</time></trkpt><trkpt lat="43.4876612" lon="10.900616"><ele>351.0</ele><time>2026-04-18T13:33:51.987Z</time></trkpt><trkpt lat="43.4875881" lon="10.9007498"><ele>351.0</ele><time>2026-04-18T13:33:52.988Z</time></trkpt><trkpt lat="43.4875309" lon="10.9008843"><ele>351.0</ele><time>2026-04-18T13:33:53.988Z</time></trkpt><trkpt lat="43.4875043" lon="10.9010458"><ele>351.0</ele><time>2026-04-18T13:33:54.989Z</time></trkpt><trkpt lat="43.4874957" lon="10.9012513"><ele>351.0</ele><time>2026-04-18T13:33:55.988Z</time></trkpt><trkpt lat="43.4874984" lon="10.9014719"><ele>351.0</ele><time>2026-04-18T13:33:56.988Z</time></trkpt><trkpt lat="43.4874975" lon="10.9016796"><ele>351.0</ele><time>2026-04-18T13:33:57.988Z</time></trkpt><trkpt lat="43.4874954" lon="10.9018787"><ele>351.0</ele><time>2026-04-18T13:33:58.988Z</time></trkpt><trkpt lat="43.4874958" lon="10.9020749"><ele>351.0</ele><time>2026-04-18T13:33:59.988Z</time></trkpt><trkpt lat="43.4875101" lon="10.9022613"><ele>351.0</ele><time>2026-04-18T13:34:00.988Z</time></trkpt><trkpt lat="43.4875499" lon="10.902443"><ele>351.0</ele><time>2026-04-18T13:34:01.988Z</time></trkpt><trkpt lat="43.4876152" lon="10.9026089"><ele>351.0</ele><time>2026-04-18T13:34:02.988Z</time></trkpt><trkpt lat="43.4877035" lon="10.9027798"><ele>351.0</ele><time>2026-04-18T13:34:03.988Z</time></trkpt><trkpt lat="43.4877749" lon="10.9029527"><ele>351.0</ele><time>2026-04-18T13:34:04.988Z</time></trkpt><trkpt lat="43.4878299" lon="10.9031438"><ele>351.0</ele><time>2026-04-18T13:34:05.988Z</time></trkpt><trkpt lat="43.4878544" lon="10.9033467"><ele>351.0</ele><time>2026-04-18T13:34:06.988Z</time></trkpt><trkpt lat="43.4878488" lon="10.9035664"><ele>351.0</ele><time>2026-04-18T13:34:07.988Z</time></trkpt><trkpt lat="43.4878472" lon="10.9037896"><ele>351.0</ele><time>2026-04-18T13:34:08.988Z</time></trkpt><trkpt lat="43.4878109" lon="10.9040281"><ele>351.0</ele><time>2026-04-18T13:34:09.988Z</time></trkpt><trkpt lat="43.4878065" lon="10.9042772"><ele>350.6666666666667</ele><time>2026-04-18T13:34:10.988Z</time></trkpt><trkpt lat="43.4878117" lon="10.9045433"><ele>350.33333333333337</ele><time>2026-04-18T13:34:11.988Z</time></trkpt><trkpt lat="43.4878305" lon="10.9048215"><ele>350.0</ele><time>2026-04-18T13:34:12.988Z</time></trkpt><trkpt lat="43.4878515" lon="10.9050892"><ele>350.6666666666667</ele><time>2026-04-18T13:34:13.987Z</time></trkpt><trkpt lat="43.4878713" lon="10.9053577"><ele>351.3333333333333</ele><time>2026-04-18T13:34:14.988Z</time></trkpt><trkpt lat="43.4878841" lon="10.9056317"><ele>352.0</ele><time>2026-04-18T13:34:15.988Z</time></trkpt><trkpt lat="43.487903" lon="10.905892"><ele>352.3333333333333</ele><time>2026-04-18T13:34:16.988Z</time></trkpt><trkpt lat="43.487922" lon="10.9061419"><ele>352.6666666666667</ele><time>2026-04-18T13:34:17.988Z</time></trkpt><trkpt lat="43.4879338" lon="10.9063868"><ele>353.0</ele><time>2026-04-18T13:34:18.986Z</time></trkpt><trkpt lat="43.4879528" lon="10.9066247"><ele>357.0</ele><time>2026-04-18T13:34:19.986Z</time></trkpt><trkpt lat="43.4879646" lon="10.9068674"><ele>361.0</ele><time>2026-04-18T13:34:20.988Z</time></trkpt><trkpt lat="43.4879599" lon="10.9071174"><ele>365.0</ele><time>2026-04-18T13:34:21.988Z</time></trkpt><trkpt lat="43.4879365" lon="10.9073792"><ele>362.0</ele><time>2026-04-18T13:34:22.988Z</time></trkpt><trkpt lat="43.4879106" lon="10.9076489"><ele>359.0</ele><time>2026-04-18T13:34:23.988Z</time></trkpt><trkpt lat="43.4878745" lon="10.9079119"><ele>356.0</ele><time>2026-04-18T13:34:24.988Z</time></trkpt><trkpt lat="43.4878407" lon="10.9081666"><ele>357.0</ele><time>2026-04-18T13:34:25.987Z</time></trkpt><trkpt lat="43.4877984" lon="10.9084212"><ele>358.0</ele><time>2026-04-18T13:34:26.983Z</time></trkpt><trkpt lat="43.4877517" lon="10.9086667"><ele>359.0</ele><time>2026-04-18T13:34:27.989Z</time></trkpt><trkpt lat="43.4876943" lon="10.9089039"><ele>359.0</ele><time>2026-04-18T13:34:28.987Z</time></trkpt><trkpt lat="43.4876226" lon="10.9091365"><ele>359.0</ele><time>2026-04-18T13:34:29.989Z</time></trkpt><trkpt lat="43.4875325" lon="10.9093596"><ele>359.0</ele><time>2026-04-18T13:34:30.988Z</time></trkpt><trkpt lat="43.4874496" lon="10.9095701"><ele>365.0</ele><time>2026-04-18T13:34:31.989Z</time></trkpt><trkpt lat="43.4873538" lon="10.909762"><ele>371.0</ele><time>2026-04-18T13:34:32.988Z</time></trkpt><trkpt lat="43.4872488" lon="10.9099366"><ele>377.0</ele><time>2026-04-18T13:34:33.988Z</time></trkpt><trkpt lat="43.4871289" lon="10.9100782"><ele>376.0</ele><time>2026-04-18T13:34:34.988Z</time></trkpt><trkpt lat="43.4870186" lon="10.91021"><ele>375.0</ele><time>2026-04-18T13:34:35.988Z</time></trkpt><trkpt lat="43.4869178" lon="10.9103244"><ele>374.0</ele><time>2026-04-18T13:34:36.988Z</time></trkpt><trkpt lat="43.4867837" lon="10.910375"><ele>373.0</ele><time>2026-04-18T13:34:37.988Z</time></trkpt><trkpt lat="43.4866485" lon="10.910425"><ele>373.0</ele><time>2026-04-18T13:34:38.988Z</time></trkpt><trkpt lat="43.4864672" lon="10.910455"><ele>373.0</ele><time>2026-04-18T13:34:39.988Z</time></trkpt><trkpt lat="43.4862533" lon="10.9104326"><ele>373.0</ele><time>2026-04-18T13:34:40.988Z</time></trkpt><trkpt lat="43.4860695" lon="10.9104362"><ele>375.66666666666663</ele><time>2026-04-18T13:34:41.988Z</time></trkpt><trkpt lat="43.485889" lon="10.9104639"><ele>378.3333333333333</ele><time>2026-04-18T13:34:42.988Z</time></trkpt><trkpt lat="43.4857118" lon="10.9104908"><ele>381.0</ele><time>2026-04-18T13:34:43.988Z</time></trkpt><trkpt lat="43.4855411" lon="10.9105225"><ele>380.0</ele><time>2026-04-18T13:34:44.988Z</time></trkpt><trkpt lat="43.4853838" lon="10.9105286"><ele>379.0</ele><time>2026-04-18T13:34:45.988Z</time></trkpt><trkpt lat="43.4852341" lon="10.9105472"><ele>378.0</ele><time>2026-04-18T13:34:46.988Z</time></trkpt><trkpt lat="43.4850998" lon="10.9105752"><ele>377.0</ele><time>2026-04-18T13:34:47.988Z</time></trkpt><trkpt lat="43.48498" lon="10.9106272"><ele>377.0</ele><time>2026-04-18T13:34:48.987Z</time></trkpt><trkpt lat="43.4848709" lon="10.9107118"><ele>377.0</ele><time>2026-04-18T13:34:49.989Z</time></trkpt><trkpt lat="43.4847616" lon="10.9108466"><ele>377.0</ele><time>2026-04-18T13:34:50.988Z</time></trkpt><trkpt lat="43.4846455" lon="10.9110128"><ele>377.0</ele><time>2026-04-18T13:34:51.988Z</time></trkpt><trkpt lat="43.484538" lon="10.9111811"><ele>377.33333333333337</ele><time>2026-04-18T13:34:52.987Z</time></trkpt><trkpt lat="43.4844247" lon="10.9113653"><ele>377.6666666666667</ele><time>2026-04-18T13:34:53.989Z</time></trkpt><trkpt lat="43.4843241" lon="10.9115435"><ele>378.0</ele><time>2026-04-18T13:34:54.988Z</time></trkpt><trkpt lat="43.4842309" lon="10.9117161"><ele>380.0</ele><time>2026-04-18T13:34:55.988Z</time></trkpt><trkpt lat="43.4841335" lon="10.9118799"><ele>382.0</ele><time>2026-04-18T13:34:56.988Z</time></trkpt><trkpt lat="43.4840469" lon="10.912034"><ele>384.0</ele><time>2026-04-18T13:34:57.988Z</time></trkpt><trkpt lat="43.4839761" lon="10.9121761"><ele>386.0</ele><time>2026-04-18T13:34:58.988Z</time></trkpt><trkpt lat="43.4839271" lon="10.912322"><ele>386.0</ele><time>2026-04-18T13:34:59.988Z</time></trkpt><trkpt lat="43.4839142" lon="10.9124755"><ele>386.0</ele><time>2026-04-18T13:35:00.988Z</time></trkpt><trkpt lat="43.4839361" lon="10.9126342"><ele>386.0</ele><time>2026-04-18T13:35:01.988Z</time></trkpt><trkpt lat="43.4839856" lon="10.9128083"><ele>386.0</ele><time>2026-04-18T13:35:02.986Z</time></trkpt><trkpt lat="43.4841129" lon="10.9130162"><ele>384.3333333333333</ele><time>2026-04-18T13:35:03.988Z</time></trkpt><trkpt lat="43.4842251" lon="10.9132078"><ele>382.66666666666663</ele><time>2026-04-18T13:35:04.988Z</time></trkpt><trkpt lat="43.4843357" lon="10.9134228"><ele>381.0</ele><time>2026-04-18T13:35:05.988Z</time></trkpt><trkpt lat="43.4844399" lon="10.9136178"><ele>379.3333333333333</ele><time>2026-04-18T13:35:06.988Z</time></trkpt><trkpt lat="43.4845342" lon="10.9138255"><ele>377.66666666666663</ele><time>2026-04-18T13:35:07.986Z</time></trkpt><trkpt lat="43.484614" lon="10.9140655"><ele>376.0</ele><time>2026-04-18T13:35:08.987Z</time></trkpt><trkpt lat="43.484678" lon="10.9143341"><ele>380.66666666666663</ele><time>2026-04-18T13:35:09.986Z</time></trkpt><trkpt lat="43.4847313" lon="10.9145925"><ele>385.3333333333333</ele><time>2026-04-18T13:35:10.989Z</time></trkpt><trkpt lat="43.4847992" lon="10.9148494"><ele>390.0</ele><time>2026-04-18T13:35:11.988Z</time></trkpt><trkpt lat="43.4848911" lon="10.9151213"><ele>390.0</ele><time>2026-04-18T13:35:12.988Z</time></trkpt><trkpt lat="43.4849855" lon="10.9154008"><ele>390.0</ele><time>2026-04-18T13:35:13.987Z</time></trkpt><trkpt lat="43.4850872" lon="10.9156894"><ele>386.5</ele><time>2026-04-18T13:35:14.988Z</time></trkpt><trkpt lat="43.4851916" lon="10.9159841"><ele>383.0</ele><time>2026-04-18T13:35:15.988Z</time></trkpt><trkpt lat="43.4852936" lon="10.9162783"><ele>383.0</ele><time>2026-04-18T13:35:16.988Z</time></trkpt><trkpt lat="43.4853934" lon="10.9165453"><ele>383.0</ele><time>2026-04-18T13:35:17.988Z</time></trkpt><trkpt lat="43.4854859" lon="10.9167982"><ele>383.0</ele><time>2026-04-18T13:35:18.988Z</time></trkpt><trkpt lat="43.4855691" lon="10.917044"><ele>385.6666666666667</ele><time>2026-04-18T13:35:19.988Z</time></trkpt><trkpt lat="43.4856514" lon="10.9172789"><ele>388.33333333333337</ele><time>2026-04-18T13:35:20.987Z</time></trkpt><trkpt lat="43.4857264" lon="10.9175039"><ele>391.0</ele><time>2026-04-18T13:35:21.988Z</time></trkpt><trkpt lat="43.4857987" lon="10.917711"><ele>391.0</ele><time>2026-04-18T13:35:22.988Z</time></trkpt><trkpt lat="43.4858866" lon="10.9179053"><ele>391.0</ele><time>2026-04-18T13:35:23.988Z</time></trkpt><trkpt lat="43.4859959" lon="10.9180949"><ele>391.0</ele><time>2026-04-18T13:35:24.988Z</time></trkpt><trkpt lat="43.4861149" lon="10.9182748"><ele>392.6666666666667</ele><time>2026-04-18T13:35:25.988Z</time></trkpt><trkpt lat="43.486245" lon="10.9184555"><ele>394.33333333333337</ele><time>2026-04-18T13:35:26.988Z</time></trkpt><trkpt lat="43.4863833" lon="10.9186429"><ele>396.0</ele><time>2026-04-18T13:35:27.986Z</time></trkpt><trkpt lat="43.4865238" lon="10.9188262"><ele>396.0</ele><time>2026-04-18T13:35:28.988Z</time></trkpt><trkpt lat="43.4866714" lon="10.9190151"><ele>396.0</ele><time>2026-04-18T13:35:29.988Z</time></trkpt><trkpt lat="43.4868182" lon="10.9192076"><ele>396.0</ele><time>2026-04-18T13:35:30.988Z</time></trkpt><trkpt lat="43.4869742" lon="10.9194071"><ele>399.0</ele><time>2026-04-18T13:35:31.988Z</time></trkpt><trkpt lat="43.487136" lon="10.9195939"><ele>402.0</ele><time>2026-04-18T13:35:32.988Z</time></trkpt><trkpt lat="43.4872803" lon="10.9197857"><ele>405.0</ele><time>2026-04-18T13:35:33.988Z</time></trkpt><trkpt lat="43.4874283" lon="10.9199726"><ele>402.33333333333337</ele><time>2026-04-18T13:35:34.988Z</time></trkpt><trkpt lat="43.4875699" lon="10.920157"><ele>399.6666666666667</ele><time>2026-04-18T13:35:35.988Z</time></trkpt><trkpt lat="43.4877082" lon="10.9203368"><ele>397.0</ele><time>2026-04-18T13:35:36.988Z</time></trkpt><trkpt lat="43.4878469" lon="10.9205167"><ele>399.33333333333337</ele><time>2026-04-18T13:35:37.989Z</time></trkpt><trkpt lat="43.4879853" lon="10.9206906"><ele>401.66666666666663</ele><time>2026-04-18T13:35:38.989Z</time></trkpt><trkpt lat="43.4881164" lon="10.920864"><ele>404.0</ele><time>2026-04-18T13:35:39.988Z</time></trkpt><trkpt lat="43.4882438" lon="10.9210244"><ele>404.0</ele><time>2026-04-18T13:35:40.988Z</time></trkpt><trkpt lat="43.4883656" lon="10.9211811"><ele>404.0</ele><time>2026-04-18T13:35:41.988Z</time></trkpt><trkpt lat="43.4884863" lon="10.9213387"><ele>404.0</ele><time>2026-04-18T13:35:42.988Z</time></trkpt><trkpt lat="43.4886013" lon="10.9214928"><ele>404.0</ele><time>2026-04-18T13:35:43.988Z</time></trkpt><trkpt lat="43.4887101" lon="10.9216534"><ele>404.0</ele><time>2026-04-18T13:35:44.988Z</time></trkpt><trkpt lat="43.4888074" lon="10.9218216"><ele>404.0</ele><time>2026-04-18T13:35:45.989Z</time></trkpt><trkpt lat="43.4888929" lon="10.9219859"><ele>407.0</ele><time>2026-04-18T13:35:46.988Z</time></trkpt><trkpt lat="43.4889751" lon="10.9221488"><ele>410.0</ele><time>2026-04-18T13:35:47.988Z</time></trkpt><trkpt lat="43.4890705" lon="10.9223001"><ele>413.0</ele><time>2026-04-18T13:35:48.988Z</time></trkpt><trkpt lat="43.4891798" lon="10.922436"><ele>416.0</ele><time>2026-04-18T13:35:49.988Z</time></trkpt><trkpt lat="43.4893043" lon="10.922554"><ele>415.0</ele><time>2026-04-18T13:35:50.985Z</time></trkpt><trkpt lat="43.4894321" lon="10.9226487"><ele>414.0</ele><time>2026-04-18T13:35:51.988Z</time></trkpt><trkpt lat="43.4895479" lon="10.922736"><ele>413.0</ele><time>2026-04-18T13:35:52.988Z</time></trkpt><trkpt lat="43.4896597" lon="10.9228251"><ele>412.0</ele><time>2026-04-18T13:35:53.988Z</time></trkpt><trkpt lat="43.4897514" lon="10.9229165"><ele>414.6</ele><time>2026-04-18T13:35:54.987Z</time></trkpt><trkpt lat="43.489822" lon="10.923022"><ele>417.20000000000005</ele><time>2026-04-18T13:35:55.988Z</time></trkpt><trkpt lat="43.4898745" lon="10.923153"><ele>419.8</ele><time>2026-04-18T13:35:56.988Z</time></trkpt><trkpt lat="43.4898849" lon="10.9232976"><ele>422.4</ele><time>2026-04-18T13:35:57.986Z</time></trkpt><trkpt lat="43.489873" lon="10.9234711"><ele>425.0</ele><time>2026-04-18T13:35:58.988Z</time></trkpt><trkpt lat="43.4898423" lon="10.9236719"><ele>425.0</ele><time>2026-04-18T13:35:59.988Z</time></trkpt><trkpt lat="43.4898187" lon="10.9238728"><ele>425.0</ele><time>2026-04-18T13:36:00.987Z</time></trkpt><trkpt lat="43.4897872" lon="10.9240675"><ele>425.0</ele><time>2026-04-18T13:36:01.988Z</time></trkpt><trkpt lat="43.4897582" lon="10.9242584"><ele>425.0</ele><time>2026-04-18T13:36:02.988Z</time></trkpt><trkpt lat="43.4897268" lon="10.9244431"><ele>425.0</ele><time>2026-04-18T13:36:03.988Z</time></trkpt><trkpt lat="43.489698" lon="10.9246385"><ele>425.0</ele><time>2026-04-18T13:36:04.988Z</time></trkpt><trkpt lat="43.4896647" lon="10.9248387"><ele>425.0</ele><time>2026-04-18T13:36:05.988Z</time></trkpt><trkpt lat="43.4896329" lon="10.9250429"><ele>425.0</ele><time>2026-04-18T13:36:06.988Z</time></trkpt><trkpt lat="43.4896004" lon="10.9252503"><ele>425.0</ele><time>2026-04-18T13:36:07.988Z</time></trkpt><trkpt lat="43.4895659" lon="10.9254683"><ele>425.0</ele><time>2026-04-18T13:36:08.988Z</time></trkpt><trkpt lat="43.4895371" lon="10.9256867"><ele>425.0</ele><time>2026-04-18T13:36:09.989Z</time></trkpt><trkpt lat="43.4895098" lon="10.9259074"><ele>425.0</ele><time>2026-04-18T13:36:10.988Z</time></trkpt><trkpt lat="43.4894789" lon="10.9261232"><ele>425.0</ele><time>2026-04-18T13:36:11.988Z</time></trkpt><trkpt lat="43.489445" lon="10.9263384"><ele>425.0</ele><time>2026-04-18T13:36:12.988Z</time></trkpt><trkpt lat="43.4894076" lon="10.9265584"><ele>427.3333333333333</ele><time>2026-04-18T13:36:13.988Z</time></trkpt><trkpt lat="43.4893742" lon="10.9267804"><ele>429.66666666666663</ele><time>2026-04-18T13:36:14.988Z</time></trkpt><trkpt lat="43.4893477" lon="10.9270048"><ele>432.0</ele><time>2026-04-18T13:36:15.988Z</time></trkpt><trkpt lat="43.4893248" lon="10.9272269"><ele>432.0</ele><time>2026-04-18T13:36:16.988Z</time></trkpt><trkpt lat="43.4893079" lon="10.9274538"><ele>432.0</ele><time>2026-04-18T13:36:17.988Z</time></trkpt><trkpt lat="43.4892959" lon="10.9276778"><ele>432.0</ele><time>2026-04-18T13:36:18.988Z</time></trkpt><trkpt lat="43.4892846" lon="10.9278986"><ele>432.66666666666663</ele><time>2026-04-18T13:36:19.988Z</time></trkpt><trkpt lat="43.4892706" lon="10.9281121"><ele>433.3333333333333</ele><time>2026-04-18T13:36:20.988Z</time></trkpt><trkpt lat="43.4892496" lon="10.9283183"><ele>434.0</ele><time>2026-04-18T13:36:21.988Z</time></trkpt><trkpt lat="43.4892269" lon="10.9285167"><ele>434.5</ele><time>2026-04-18T13:36:22.988Z</time></trkpt><trkpt lat="43.4892088" lon="10.9287131"><ele>435.0</ele><time>2026-04-18T13:36:23.988Z</time></trkpt><trkpt lat="43.4892136" lon="10.9289122"><ele>435.5</ele><time>2026-04-18T13:36:24.988Z</time></trkpt><trkpt lat="43.4892453" lon="10.9291215"><ele>436.0</ele><time>2026-04-18T13:36:25.988Z</time></trkpt><trkpt lat="43.4892903" lon="10.929317"><ele>436.25</ele><time>2026-04-18T13:36:26.988Z</time></trkpt><trkpt lat="43.4893434" lon="10.9295052"><ele>436.5</ele><time>2026-04-18T13:36:27.988Z</time></trkpt><trkpt lat="43.4894024" lon="10.9296877"><ele>436.75</ele><time>2026-04-18T13:36:28.988Z</time></trkpt><trkpt lat="43.4894571" lon="10.9298727"><ele>437.0</ele><time>2026-04-18T13:36:29.988Z</time></trkpt><trkpt lat="43.4895088" lon="10.9300543"><ele>437.25</ele><time>2026-04-18T13:36:30.988Z</time></trkpt><trkpt lat="43.489557" lon="10.9302436"><ele>437.5</ele><time>2026-04-18T13:36:31.988Z</time></trkpt><trkpt lat="43.4895964" lon="10.9304344"><ele>437.75</ele><time>2026-04-18T13:36:32.988Z</time></trkpt><trkpt lat="43.4896249" lon="10.930639"><ele>438.0</ele><time>2026-04-18T13:36:33.988Z</time></trkpt><trkpt lat="43.4896437" lon="10.9308422"><ele>445.66666666666663</ele><time>2026-04-18T13:36:34.988Z</time></trkpt><trkpt lat="43.4896622" lon="10.9310481"><ele>453.3333333333333</ele><time>2026-04-18T13:36:35.988Z</time></trkpt><trkpt lat="43.4896799" lon="10.9312552"><ele>461.0</ele><time>2026-04-18T13:36:36.988Z</time></trkpt><trkpt lat="43.4896913" lon="10.9314654"><ele>461.0</ele><time>2026-04-18T13:36:37.988Z</time></trkpt><trkpt lat="43.4897038" lon="10.9316735"><ele>461.0</ele><time>2026-04-18T13:36:38.988Z</time></trkpt><trkpt lat="43.4897125" lon="10.9318663"><ele>461.0</ele><time>2026-04-18T13:36:39.988Z</time></trkpt><trkpt lat="43.4897197" lon="10.9320446"><ele>461.0</ele><time>2026-04-18T13:36:40.988Z</time></trkpt><trkpt lat="43.489727" lon="10.932203"><ele>460.49999999999994</ele><time>2026-04-18T13:36:41.988Z</time></trkpt><trkpt lat="43.4897401" lon="10.9323345"><ele>460.0</ele><time>2026-04-18T13:36:42.988Z</time></trkpt><trkpt lat="43.4897758" lon="10.9324392"><ele>459.5</ele><time>2026-04-18T13:36:43.988Z</time></trkpt><trkpt lat="43.4898301" lon="10.9325058"><ele>459.0</ele><time>2026-04-18T13:36:44.988Z</time></trkpt><trkpt lat="43.4898935" lon="10.9325468"><ele>458.49999999999994</ele><time>2026-04-18T13:36:45.988Z</time></trkpt><trkpt lat="43.4899611" lon="10.9325827"><ele>458.0</ele><time>2026-04-18T13:36:46.988Z</time></trkpt><trkpt lat="43.4900151" lon="10.9326438"><ele>457.79999999999995</ele><time>2026-04-18T13:36:47.989Z</time></trkpt><trkpt lat="43.4900475" lon="10.9327321"><ele>457.59999999999997</ele><time>2026-04-18T13:36:48.988Z</time></trkpt><trkpt lat="43.4900711" lon="10.9328427"><ele>457.40000000000003</ele><time>2026-04-18T13:36:49.988Z</time></trkpt><trkpt lat="43.4900817" lon="10.9329875"><ele>457.20000000000005</ele><time>2026-04-18T13:36:50.988Z</time></trkpt><trkpt lat="43.4900803" lon="10.9331409"><ele>457.0</ele><time>2026-04-18T13:36:51.988Z</time></trkpt><trkpt lat="43.4900733" lon="10.9333069"><ele>457.25</ele><time>2026-04-18T13:36:52.988Z</time></trkpt><trkpt lat="43.4900608" lon="10.9334803"><ele>457.5</ele><time>2026-04-18T13:36:53.988Z</time></trkpt><trkpt lat="43.4900471" lon="10.933652"><ele>457.75</ele><time>2026-04-18T13:36:54.989Z</time></trkpt><trkpt lat="43.4900312" lon="10.9338221"><ele>458.0</ele><time>2026-04-18T13:36:55.989Z</time></trkpt><trkpt lat="43.4900158" lon="10.9339822"><ele>458.0</ele><time>2026-04-18T13:36:56.988Z</time></trkpt><trkpt lat="43.4899963" lon="10.9341408"><ele>458.0</ele><time>2026-04-18T13:36:57.988Z</time></trkpt><trkpt lat="43.489981" lon="10.9343033"><ele>458.0</ele><time>2026-04-18T13:36:58.988Z</time></trkpt><trkpt lat="43.4899664" lon="10.934478"><ele>458.0</ele><time>2026-04-18T13:36:59.988Z</time></trkpt><trkpt lat="43.4899488" lon="10.9346611"><ele>458.0</ele><time>2026-04-18T13:37:00.988Z</time></trkpt><trkpt lat="43.4899287" lon="10.9348465"><ele>458.0</ele><time>2026-04-18T13:37:01.988Z</time></trkpt><trkpt lat="43.4899055" lon="10.935033"><ele>458.0</ele><time>2026-04-18T13:37:02.988Z</time></trkpt><trkpt lat="43.4898869" lon="10.9352178"><ele>458.0</ele><time>2026-04-18T13:37:03.988Z</time></trkpt><trkpt lat="43.4898694" lon="10.9354134"><ele>456.66666666666663</ele><time>2026-04-18T13:37:04.988Z</time></trkpt><trkpt lat="43.4898479" lon="10.9356194"><ele>455.33333333333337</ele><time>2026-04-18T13:37:05.988Z</time></trkpt><trkpt lat="43.4898269" lon="10.9358263"><ele>454.0</ele><time>2026-04-18T13:37:06.988Z</time></trkpt><trkpt lat="43.4898034" lon="10.9360348"><ele>452.6666666666667</ele><time>2026-04-18T13:37:07.988Z</time></trkpt><trkpt lat="43.4897794" lon="10.9362491"><ele>451.33333333333337</ele><time>2026-04-18T13:37:08.988Z</time></trkpt><trkpt lat="43.4897567" lon="10.9364625"><ele>450.0</ele><time>2026-04-18T13:37:09.988Z</time></trkpt><trkpt lat="43.4897317" lon="10.9366765"><ele>449.66666666666663</ele><time>2026-04-18T13:37:10.988Z</time></trkpt><trkpt lat="43.4897075" lon="10.9368934"><ele>449.3333333333333</ele><time>2026-04-18T13:37:11.988Z</time></trkpt><trkpt lat="43.4896897" lon="10.9371031"><ele>449.0</ele><time>2026-04-18T13:37:12.987Z</time></trkpt><trkpt lat="43.489665" lon="10.9373073"><ele>449.0</ele><time>2026-04-18T13:37:13.988Z</time></trkpt><trkpt lat="43.4896446" lon="10.9375038"><ele>449.0</ele><time>2026-04-18T13:37:14.988Z</time></trkpt><trkpt lat="43.4896274" lon="10.9376956"><ele>449.0</ele><time>2026-04-18T13:37:15.988Z</time></trkpt><trkpt lat="43.4896059" lon="10.9378884"><ele>449.0</ele><time>2026-04-18T13:37:16.988Z</time></trkpt><trkpt lat="43.489583" lon="10.9380767"><ele>449.0</ele><time>2026-04-18T13:37:17.988Z</time></trkpt><trkpt lat="43.4895692" lon="10.9382697"><ele>449.0</ele><time>2026-04-18T13:37:18.988Z</time></trkpt><trkpt lat="43.4895503" lon="10.9384608"><ele>449.0</ele><time>2026-04-18T13:37:19.988Z</time></trkpt><trkpt lat="43.4895301" lon="10.9386443"><ele>449.0</ele><time>2026-04-18T13:37:20.988Z</time></trkpt><trkpt lat="43.4895099" lon="10.9388269"><ele>450.0</ele><time>2026-04-18T13:37:21.988Z</time></trkpt><trkpt lat="43.4894923" lon="10.9389971"><ele>451.0</ele><time>2026-04-18T13:37:22.986Z</time></trkpt><trkpt lat="43.489473" lon="10.9391762"><ele>452.0</ele><time>2026-04-18T13:37:23.988Z</time></trkpt><trkpt lat="43.4894563" lon="10.9393498"><ele>453.0</ele><time>2026-04-18T13:37:24.988Z</time></trkpt><trkpt lat="43.4894367" lon="10.9395164"><ele>453.5</ele><time>2026-04-18T13:37:25.987Z</time></trkpt><trkpt lat="43.4894158" lon="10.9396739"><ele>454.0</ele><time>2026-04-18T13:37:26.984Z</time></trkpt><trkpt lat="43.4893939" lon="10.9398271"><ele>454.5</ele><time>2026-04-18T13:37:27.988Z</time></trkpt><trkpt lat="43.4893701" lon="10.9399699"><ele>455.0</ele><time>2026-04-18T13:37:28.988Z</time></trkpt><trkpt lat="43.4893299" lon="10.9401261"><ele>453.75</ele><time>2026-04-18T13:37:29.987Z</time></trkpt><trkpt lat="43.4892653" lon="10.9402619"><ele>452.5</ele><time>2026-04-18T13:37:30.988Z</time></trkpt><trkpt lat="43.4891847" lon="10.9403806"><ele>451.25</ele><time>2026-04-18T13:37:31.988Z</time></trkpt><trkpt lat="43.4890762" lon="10.9404714"><ele>450.0</ele><time>2026-04-18T13:37:32.986Z</time></trkpt><trkpt lat="43.4889489" lon="10.9405476"><ele>450.0</ele><time>2026-04-18T13:37:33.986Z</time></trkpt><trkpt lat="43.4888176" lon="10.9406292"><ele>450.0</ele><time>2026-04-18T13:37:34.988Z</time></trkpt><trkpt lat="43.4886855" lon="10.9407085"><ele>450.0</ele><time>2026-04-18T13:37:35.988Z</time></trkpt><trkpt lat="43.4885573" lon="10.9407722"><ele>450.0</ele><time>2026-04-18T13:37:36.988Z</time></trkpt><trkpt lat="43.4884398" lon="10.9408466"><ele>451.5</ele><time>2026-04-18T13:37:37.989Z</time></trkpt><trkpt lat="43.4883397" lon="10.9409393"><ele>453.0</ele><time>2026-04-18T13:37:38.989Z</time></trkpt><trkpt lat="43.4882565" lon="10.9410576"><ele>454.5</ele><time>2026-04-18T13:37:39.983Z</time></trkpt><trkpt lat="43.488203" lon="10.9412071"><ele>456.0</ele><time>2026-04-18T13:37:40.986Z</time></trkpt><trkpt lat="43.4881596" lon="10.9413775"><ele>456.0</ele><time>2026-04-18T13:37:41.988Z</time></trkpt><trkpt lat="43.4881248" lon="10.941568"><ele>456.0</ele><time>2026-04-18T13:37:42.988Z</time></trkpt><trkpt lat="43.4880864" lon="10.9417585"><ele>456.0</ele><time>2026-04-18T13:37:43.988Z</time></trkpt><trkpt lat="43.4880493" lon="10.9419409"><ele>456.0</ele><time>2026-04-18T13:37:44.986Z</time></trkpt><trkpt lat="43.4880029" lon="10.9421147"><ele>456.75</ele><time>2026-04-18T13:37:45.987Z</time></trkpt><trkpt lat="43.4879516" lon="10.9422866"><ele>457.5</ele><time>2026-04-18T13:37:46.987Z</time></trkpt><trkpt lat="43.4878807" lon="10.9424574"><ele>458.25</ele><time>2026-04-18T13:37:47.988Z</time></trkpt><trkpt lat="43.4877833" lon="10.9426002"><ele>459.0</ele><time>2026-04-18T13:37:48.988Z</time></trkpt><trkpt lat="43.4876871" lon="10.9427242"><ele>459.0</ele><time>2026-04-18T13:37:49.988Z</time></trkpt><trkpt lat="43.4875948" lon="10.9428476"><ele>459.0</ele><time>2026-04-18T13:37:50.988Z</time></trkpt><trkpt lat="43.4875049" lon="10.9429588"><ele>459.0</ele><time>2026-04-18T13:37:51.988Z</time></trkpt><trkpt lat="43.4874138" lon="10.9430672"><ele>459.0</ele><time>2026-04-18T13:37:52.984Z</time></trkpt><trkpt lat="43.4873219" lon="10.9431752"><ele>459.0</ele><time>2026-04-18T13:37:53.988Z</time></trkpt><trkpt lat="43.4872363" lon="10.943272"><ele>459.0</ele><time>2026-04-18T13:37:54.986Z</time></trkpt><trkpt lat="43.4871553" lon="10.9433704"><ele>459.0</ele><time>2026-04-18T13:37:55.988Z</time></trkpt><trkpt lat="43.4870919" lon="10.9434906"><ele>459.0</ele><time>2026-04-18T13:37:56.987Z</time></trkpt><trkpt lat="43.4870421" lon="10.9436423"><ele>459.0</ele><time>2026-04-18T13:37:57.988Z</time></trkpt><trkpt lat="43.4869963" lon="10.9438034"><ele>455.0</ele><time>2026-04-18T13:37:58.987Z</time></trkpt><trkpt lat="43.4869552" lon="10.9439695"><ele>451.0</ele><time>2026-04-18T13:37:59.988Z</time></trkpt><trkpt lat="43.4869117" lon="10.9441287"><ele>447.0</ele><time>2026-04-18T13:38:00.988Z</time></trkpt><trkpt lat="43.4868633" lon="10.9442981"><ele>443.0</ele><time>2026-04-18T13:38:01.987Z</time></trkpt><trkpt lat="43.4868183" lon="10.9444752"><ele>443.0</ele><time>2026-04-18T13:38:02.988Z</time></trkpt><trkpt lat="43.4867695" lon="10.944652"><ele>443.0</ele><time>2026-04-18T13:38:03.988Z</time></trkpt><trkpt lat="43.4867262" lon="10.9448323"><ele>443.0</ele><time>2026-04-18T13:38:04.988Z</time></trkpt><trkpt lat="43.4866753" lon="10.9450174"><ele>443.0</ele><time>2026-04-18T13:38:05.987Z</time></trkpt><trkpt lat="43.4865999" lon="10.9451909"><ele>443.3333333333333</ele><time>2026-04-18T13:38:06.987Z</time></trkpt><trkpt lat="43.4865077" lon="10.9453621"><ele>443.66666666666663</ele><time>2026-04-18T13:38:07.987Z</time></trkpt><trkpt lat="43.4864031" lon="10.9455198"><ele>444.0</ele><time>2026-04-18T13:38:08.988Z</time></trkpt><trkpt lat="43.4862966" lon="10.9456689"><ele>443.75</ele><time>2026-04-18T13:38:09.988Z</time></trkpt><trkpt lat="43.4861947" lon="10.94581"><ele>443.5</ele><time>2026-04-18T13:38:10.988Z</time></trkpt><trkpt lat="43.4861" lon="10.945942"><ele>443.25</ele><time>2026-04-18T13:38:11.987Z</time></trkpt><trkpt lat="43.4860133" lon="10.94608"><ele>443.0</ele><time>2026-04-18T13:38:12.988Z</time></trkpt><trkpt lat="43.4859347" lon="10.9462351"><ele>443.0</ele><time>2026-04-18T13:38:13.988Z</time></trkpt><trkpt lat="43.4858779" lon="10.9464025"><ele>443.0</ele><time>2026-04-18T13:38:14.986Z</time></trkpt><trkpt lat="43.4858349" lon="10.9465656"><ele>443.0</ele><time>2026-04-18T13:38:15.989Z</time></trkpt><trkpt lat="43.48579" lon="10.9467331"><ele>443.0</ele><time>2026-04-18T13:38:16.988Z</time></trkpt><trkpt lat="43.4857383" lon="10.9469101"><ele>443.25</ele><time>2026-04-18T13:38:17.989Z</time></trkpt><trkpt lat="43.4856876" lon="10.9470879"><ele>443.5</ele><time>2026-04-18T13:38:18.988Z</time></trkpt><trkpt lat="43.4856421" lon="10.9472665"><ele>443.75</ele><time>2026-04-18T13:38:19.988Z</time></trkpt><trkpt lat="43.4855959" lon="10.9474481"><ele>444.0</ele><time>2026-04-18T13:38:20.988Z</time></trkpt><trkpt lat="43.4855505" lon="10.9476276"><ele>444.0</ele><time>2026-04-18T13:38:21.988Z</time></trkpt><trkpt lat="43.485502" lon="10.9478101"><ele>444.0</ele><time>2026-04-18T13:38:22.987Z</time></trkpt><trkpt lat="43.4854526" lon="10.9479926"><ele>444.0</ele><time>2026-04-18T13:38:23.988Z</time></trkpt><trkpt lat="43.4854064" lon="10.9481877"><ele>444.0</ele><time>2026-04-18T13:38:24.988Z</time></trkpt><trkpt lat="43.4853745" lon="10.9483889"><ele>442.5</ele><time>2026-04-18T13:38:25.988Z</time></trkpt><trkpt lat="43.4853614" lon="10.9485893"><ele>441.0</ele><time>2026-04-18T13:38:26.988Z</time></trkpt><trkpt lat="43.4853454" lon="10.9488024"><ele>439.5</ele><time>2026-04-18T13:38:27.987Z</time></trkpt><trkpt lat="43.4853518" lon="10.9490016"><ele>438.0</ele><time>2026-04-18T13:38:28.988Z</time></trkpt><trkpt lat="43.4853598" lon="10.9492014"><ele>440.0</ele><time>2026-04-18T13:38:29.988Z</time></trkpt><trkpt lat="43.4853693" lon="10.9493827"><ele>442.0</ele><time>2026-04-18T13:38:30.988Z</time></trkpt><trkpt lat="43.4853832" lon="10.9495676"><ele>444.0</ele><time>2026-04-18T13:38:31.989Z</time></trkpt><trkpt lat="43.4853856" lon="10.9497482"><ele>446.0</ele><time>2026-04-18T13:38:32.985Z</time></trkpt><trkpt lat="43.4853707" lon="10.9499195"><ele>449.75</ele><time>2026-04-18T13:38:33.988Z</time></trkpt><trkpt lat="43.4853297" lon="10.9500769"><ele>453.5</ele><time>2026-04-18T13:38:34.989Z</time></trkpt><trkpt lat="43.4852566" lon="10.950208"><ele>457.25</ele><time>2026-04-18T13:38:35.983Z</time></trkpt><trkpt lat="43.4851781" lon="10.9502862"><ele>461.0</ele><time>2026-04-18T13:38:36.988Z</time></trkpt><trkpt lat="43.4850633" lon="10.9503319"><ele>461.0</ele><time>2026-04-18T13:38:37.988Z</time></trkpt><trkpt lat="43.4849732" lon="10.9503614"><ele>461.0</ele><time>2026-04-18T13:38:38.988Z</time></trkpt><trkpt lat="43.4848987" lon="10.9504231"><ele>461.0</ele><time>2026-04-18T13:38:39.985Z</time></trkpt><trkpt lat="43.4848523" lon="10.950532"><ele>461.0</ele><time>2026-04-18T13:38:40.987Z</time></trkpt><trkpt lat="43.4848328" lon="10.9506671"><ele>461.0</ele><time>2026-04-18T13:38:41.987Z</time></trkpt><trkpt lat="43.4848316" lon="10.9508319"><ele>462.5</ele><time>2026-04-18T13:38:42.986Z</time></trkpt><trkpt lat="43.4848251" lon="10.950985"><ele>464.0</ele><time>2026-04-18T13:38:43.989Z</time></trkpt><trkpt lat="43.4848503" lon="10.9511542"><ele>465.5</ele><time>2026-04-18T13:38:44.986Z</time></trkpt><trkpt lat="43.4848423" lon="10.9513072"><ele>467.0</ele><time>2026-04-18T13:38:45.987Z</time></trkpt><trkpt lat="43.4848431" lon="10.9514566"><ele>467.0</ele><time>2026-04-18T13:38:46.988Z</time></trkpt><trkpt lat="43.484841" lon="10.9515949"><ele>467.0</ele><time>2026-04-18T13:38:47.989Z</time></trkpt><trkpt lat="43.4847708" lon="10.9517413"><ele>467.0</ele><time>2026-04-18T13:38:48.989Z</time></trkpt><trkpt lat="43.4847174" lon="10.9518764"><ele>467.0</ele><time>2026-04-18T13:38:49.988Z</time></trkpt><trkpt lat="43.4846594" lon="10.9520246"><ele>467.25</ele><time>2026-04-18T13:38:50.988Z</time></trkpt><trkpt lat="43.4845996" lon="10.9521696"><ele>467.5</ele><time>2026-04-18T13:38:51.986Z</time></trkpt><trkpt lat="43.484535" lon="10.9523135"><ele>467.75</ele><time>2026-04-18T13:38:52.985Z</time></trkpt><trkpt lat="43.4844713" lon="10.9524399"><ele>468.0</ele><time>2026-04-18T13:38:53.986Z</time></trkpt><trkpt lat="43.4844005" lon="10.9525572"><ele>468.0</ele><time>2026-04-18T13:38:54.986Z</time></trkpt><trkpt lat="43.4843237" lon="10.9526545"><ele>468.0</ele><time>2026-04-18T13:38:55.988Z</time></trkpt><trkpt lat="43.484233" lon="10.9527148"><ele>468.0</ele><time>2026-04-18T13:38:56.987Z</time></trkpt><trkpt lat="43.4841246" lon="10.9527659"><ele>468.0</ele><time>2026-04-18T13:38:57.988Z</time></trkpt><trkpt lat="43.4839847" lon="10.9527644"><ele>468.0</ele><time>2026-04-18T13:38:58.989Z</time></trkpt><trkpt lat="43.4838503" lon="10.9527818"><ele>468.0</ele><time>2026-04-18T13:38:59.988Z</time></trkpt><trkpt lat="43.483721" lon="10.9527977"><ele>468.0</ele><time>2026-04-18T13:39:00.987Z</time></trkpt><trkpt lat="43.4835934" lon="10.9528192"><ele>468.0</ele><time>2026-04-18T13:39:01.988Z</time></trkpt><trkpt lat="43.4834494" lon="10.9528341"><ele>467.33333333333337</ele><time>2026-04-18T13:39:02.989Z</time></trkpt><trkpt lat="43.4832731" lon="10.952854"><ele>466.6666666666667</ele><time>2026-04-18T13:39:03.988Z</time></trkpt><trkpt lat="43.4830902" lon="10.9528748"><ele>466.0</ele><time>2026-04-18T13:39:04.988Z</time></trkpt><trkpt lat="43.4829137" lon="10.9528737"><ele>468.33333333333337</ele><time>2026-04-18T13:39:05.988Z</time></trkpt><trkpt lat="43.4827412" lon="10.9528863"><ele>470.66666666666663</ele><time>2026-04-18T13:39:06.988Z</time></trkpt><trkpt lat="43.4825791" lon="10.952896"><ele>473.0</ele><time>2026-04-18T13:39:07.987Z</time></trkpt><trkpt lat="43.4824343" lon="10.9528923"><ele>473.0</ele><time>2026-04-18T13:39:08.989Z</time></trkpt><trkpt lat="43.4822942" lon="10.9528421"><ele>473.0</ele><time>2026-04-18T13:39:09.988Z</time></trkpt><trkpt lat="43.4821777" lon="10.9527619"><ele>473.0</ele><time>2026-04-18T13:39:10.988Z</time></trkpt><trkpt lat="43.4820531" lon="10.9526841"><ele>473.0</ele><time>2026-04-18T13:39:11.988Z</time></trkpt><trkpt lat="43.4819484" lon="10.952634"><ele>472.0</ele><time>2026-04-18T13:39:12.988Z</time></trkpt><trkpt lat="43.4818437" lon="10.9526255"><ele>471.0</ele><time>2026-04-18T13:39:13.988Z</time></trkpt><trkpt lat="43.4817412" lon="10.9526597"><ele>470.0</ele><time>2026-04-18T13:39:14.987Z</time></trkpt><trkpt lat="43.4816355" lon="10.9527396"><ele>469.0</ele><time>2026-04-18T13:39:15.988Z</time></trkpt><trkpt lat="43.4815041" lon="10.9528605"><ele>469.0</ele><time>2026-04-18T13:39:16.989Z</time></trkpt><trkpt lat="43.4813949" lon="10.9530082"><ele>469.0</ele><time>2026-04-18T13:39:17.988Z</time></trkpt><trkpt lat="43.4812811" lon="10.9531619"><ele>469.0</ele><time>2026-04-18T13:39:18.988Z</time></trkpt><trkpt lat="43.481158" lon="10.9532684"><ele>469.0</ele><time>2026-04-18T13:39:19.985Z</time></trkpt><trkpt lat="43.481036" lon="10.9533847"><ele>469.0</ele><time>2026-04-18T13:39:20.988Z</time></trkpt><trkpt lat="43.4809363" lon="10.9534661"><ele>469.0</ele><time>2026-04-18T13:39:21.988Z</time></trkpt><trkpt lat="43.4808499" lon="10.9535723"><ele>469.0</ele><time>2026-04-18T13:39:22.988Z</time></trkpt><trkpt lat="43.4807826" lon="10.9537"><ele>469.0</ele><time>2026-04-18T13:39:23.988Z</time></trkpt><trkpt lat="43.4807358" lon="10.9538445"><ele>469.0</ele><time>2026-04-18T13:39:24.985Z</time></trkpt><trkpt lat="43.48071" lon="10.9540131"><ele>469.0</ele><time>2026-04-18T13:39:25.989Z</time></trkpt><trkpt lat="43.4806865" lon="10.9541927"><ele>469.0</ele><time>2026-04-18T13:39:26.988Z</time></trkpt><trkpt lat="43.4806661" lon="10.954392"><ele>468.6666666666667</ele><time>2026-04-18T13:39:27.988Z</time></trkpt><trkpt lat="43.4806536" lon="10.9546091"><ele>468.33333333333337</ele><time>2026-04-18T13:39:28.988Z</time></trkpt><trkpt lat="43.4806415" lon="10.9548402"><ele>468.0</ele><time>2026-04-18T13:39:29.988Z</time></trkpt><trkpt lat="43.4806332" lon="10.9550812"><ele>466.33333333333337</ele><time>2026-04-18T13:39:30.988Z</time></trkpt><trkpt lat="43.4806269" lon="10.9553279"><ele>464.6666666666667</ele><time>2026-04-18T13:39:31.988Z</time></trkpt><trkpt lat="43.4806193" lon="10.9555686"><ele>463.0</ele><time>2026-04-18T13:39:32.988Z</time></trkpt><trkpt lat="43.4806134" lon="10.9558105"><ele>462.33333333333337</ele><time>2026-04-18T13:39:33.988Z</time></trkpt><trkpt lat="43.4806073" lon="10.9560307"><ele>461.66666666666663</ele><time>2026-04-18T13:39:34.986Z</time></trkpt><trkpt lat="43.4806172" lon="10.9562539"><ele>461.0</ele><time>2026-04-18T13:39:35.988Z</time></trkpt><trkpt lat="43.4806429" lon="10.9564944"><ele>459.0</ele><time>2026-04-18T13:39:36.988Z</time></trkpt><trkpt lat="43.4806778" lon="10.9567356"><ele>457.0</ele><time>2026-04-18T13:39:37.988Z</time></trkpt><trkpt lat="43.4807156" lon="10.9570065"><ele>455.0</ele><time>2026-04-18T13:39:38.984Z</time></trkpt><trkpt lat="43.4807534" lon="10.9572848"><ele>454.0</ele><time>2026-04-18T13:39:39.988Z</time></trkpt><trkpt lat="43.4807918" lon="10.9575606"><ele>453.0</ele><time>2026-04-18T13:39:40.987Z</time></trkpt><trkpt lat="43.4808315" lon="10.9578442"><ele>452.0</ele><time>2026-04-18T13:39:41.988Z</time></trkpt><trkpt lat="43.4808708" lon="10.9581303"><ele>452.3333333333333</ele><time>2026-04-18T13:39:42.988Z</time></trkpt><trkpt lat="43.4809194" lon="10.9584124"><ele>452.66666666666663</ele><time>2026-04-18T13:39:43.988Z</time></trkpt><trkpt lat="43.480973" lon="10.9586874"><ele>453.0</ele><time>2026-04-18T13:39:44.988Z</time></trkpt><trkpt lat="43.4810269" lon="10.9589488"><ele>453.0</ele><time>2026-04-18T13:39:45.989Z</time></trkpt><trkpt lat="43.4810851" lon="10.9591941"><ele>453.0</ele><time>2026-04-18T13:39:46.988Z</time></trkpt><trkpt lat="43.481141" lon="10.9594299"><ele>453.0</ele><time>2026-04-18T13:39:47.988Z</time></trkpt><trkpt lat="43.4811959" lon="10.9596522"><ele>452.66666666666663</ele><time>2026-04-18T13:39:48.988Z</time></trkpt><trkpt lat="43.481245" lon="10.9598688"><ele>452.3333333333333</ele><time>2026-04-18T13:39:49.988Z</time></trkpt><trkpt lat="43.4812974" lon="10.9600755"><ele>452.0</ele><time>2026-04-18T13:39:50.989Z</time></trkpt><trkpt lat="43.4813729" lon="10.9602699"><ele>453.0</ele><time>2026-04-18T13:39:51.988Z</time></trkpt><trkpt lat="43.4814625" lon="10.9604501"><ele>454.0</ele><time>2026-04-18T13:39:52.988Z</time></trkpt><trkpt lat="43.4815745" lon="10.9606207"><ele>455.0</ele><time>2026-04-18T13:39:53.987Z</time></trkpt><trkpt lat="43.4816976" lon="10.9607705"><ele>453.66666666666663</ele><time>2026-04-18T13:39:54.988Z</time></trkpt><trkpt lat="43.4818243" lon="10.9609122"><ele>452.33333333333337</ele><time>2026-04-18T13:39:55.988Z</time></trkpt><trkpt lat="43.4819551" lon="10.9610416"><ele>451.0</ele><time>2026-04-18T13:39:56.988Z</time></trkpt><trkpt lat="43.4820793" lon="10.961175"><ele>453.0</ele><time>2026-04-18T13:39:57.988Z</time></trkpt><trkpt lat="43.4822036" lon="10.96132"><ele>455.0</ele><time>2026-04-18T13:39:58.986Z</time></trkpt><trkpt lat="43.4823252" lon="10.9614739"><ele>457.0</ele><time>2026-04-18T13:39:59.982Z</time></trkpt><trkpt lat="43.482454" lon="10.9616287"><ele>456.33333333333337</ele><time>2026-04-18T13:40:00.986Z</time></trkpt><trkpt lat="43.4825859" lon="10.9617882"><ele>455.66666666666663</ele><time>2026-04-18T13:40:01.988Z</time></trkpt><trkpt lat="43.4827182" lon="10.961943"><ele>455.0</ele><time>2026-04-18T13:40:02.988Z</time></trkpt><trkpt lat="43.4828417" lon="10.9620954"><ele>453.66666666666663</ele><time>2026-04-18T13:40:03.988Z</time></trkpt><trkpt lat="43.4829615" lon="10.9622441"><ele>452.33333333333337</ele><time>2026-04-18T13:40:04.988Z</time></trkpt><trkpt lat="43.4830789" lon="10.9623855"><ele>451.0</ele><time>2026-04-18T13:40:05.986Z</time></trkpt><trkpt lat="43.4831948" lon="10.9625228"><ele>449.0</ele><time>2026-04-18T13:40:06.986Z</time></trkpt><trkpt lat="43.4833106" lon="10.9626654"><ele>447.0</ele><time>2026-04-18T13:40:07.989Z</time></trkpt><trkpt lat="43.4834314" lon="10.9628069"><ele>445.0</ele><time>2026-04-18T13:40:08.989Z</time></trkpt><trkpt lat="43.4835475" lon="10.9629475"><ele>445.0</ele><time>2026-04-18T13:40:09.988Z</time></trkpt><trkpt lat="43.4836637" lon="10.9630928"><ele>445.0</ele><time>2026-04-18T13:40:10.988Z</time></trkpt><trkpt lat="43.483783" lon="10.9632615"><ele>445.0</ele><time>2026-04-18T13:40:11.988Z</time></trkpt><trkpt lat="43.4839014" lon="10.9634632"><ele>444.0</ele><time>2026-04-18T13:40:12.988Z</time></trkpt><trkpt lat="43.484017" lon="10.9636799"><ele>443.0</ele><time>2026-04-18T13:40:13.985Z</time></trkpt><trkpt lat="43.4841381" lon="10.9639202"><ele>442.0</ele><time>2026-04-18T13:40:14.988Z</time></trkpt><trkpt lat="43.4842554" lon="10.9641507"><ele>440.33333333333337</ele><time>2026-04-18T13:40:15.988Z</time></trkpt><trkpt lat="43.4843657" lon="10.9643668"><ele>438.66666666666663</ele><time>2026-04-18T13:40:16.988Z</time></trkpt><trkpt lat="43.4844761" lon="10.9645863"><ele>437.0</ele><time>2026-04-18T13:40:17.986Z</time></trkpt><trkpt lat="43.4845871" lon="10.9648086"><ele>437.3333333333333</ele><time>2026-04-18T13:40:18.988Z</time></trkpt><trkpt lat="43.4846924" lon="10.965017"><ele>437.66666666666663</ele><time>2026-04-18T13:40:19.987Z</time></trkpt><trkpt lat="43.4847929" lon="10.9652124"><ele>438.0</ele><time>2026-04-18T13:40:20.988Z</time></trkpt><trkpt lat="43.4848862" lon="10.9653937"><ele>436.33333333333337</ele><time>2026-04-18T13:40:21.987Z</time></trkpt><trkpt lat="43.484959" lon="10.9655804"><ele>434.6666666666667</ele><time>2026-04-18T13:40:22.988Z</time></trkpt><trkpt lat="43.4850069" lon="10.9657776"><ele>433.0</ele><time>2026-04-18T13:40:23.989Z</time></trkpt><trkpt lat="43.4850226" lon="10.9659952"><ele>431.0</ele><time>2026-04-18T13:40:24.988Z</time></trkpt><trkpt lat="43.4850077" lon="10.9662232"><ele>429.0</ele><time>2026-04-18T13:40:25.986Z</time></trkpt><trkpt lat="43.4849685" lon="10.9664493"><ele>427.0</ele><time>2026-04-18T13:40:26.986Z</time></trkpt><trkpt lat="43.4849249" lon="10.966678"><ele>426.0</ele><time>2026-04-18T13:40:27.988Z</time></trkpt><trkpt lat="43.4848832" lon="10.9668952"><ele>425.0</ele><time>2026-04-18T13:40:28.988Z</time></trkpt><trkpt lat="43.4848415" lon="10.9671062"><ele>424.0</ele><time>2026-04-18T13:40:29.989Z</time></trkpt><trkpt lat="43.4848055" lon="10.9673019"><ele>424.0</ele><time>2026-04-18T13:40:30.987Z</time></trkpt><trkpt lat="43.4847935" lon="10.9675119"><ele>424.0</ele><time>2026-04-18T13:40:31.988Z</time></trkpt><trkpt lat="43.4848047" lon="10.9677423"><ele>424.0</ele><time>2026-04-18T13:40:32.988Z</time></trkpt><trkpt lat="43.4848434" lon="10.9679966"><ele>423.33333333333337</ele><time>2026-04-18T13:40:33.988Z</time></trkpt><trkpt lat="43.4849007" lon="10.9682567"><ele>422.66666666666663</ele><time>2026-04-18T13:40:34.985Z</time></trkpt><trkpt lat="43.4849722" lon="10.9685343"><ele>422.0</ele><time>2026-04-18T13:40:35.988Z</time></trkpt><trkpt lat="43.4850498" lon="10.9688332"><ele>421.5</ele><time>2026-04-18T13:40:36.988Z</time></trkpt><trkpt lat="43.485126" lon="10.9691336"><ele>421.0</ele><time>2026-04-18T13:40:37.988Z</time></trkpt><trkpt lat="43.4852049" lon="10.9694352"><ele>420.33333333333337</ele><time>2026-04-18T13:40:38.988Z</time></trkpt><trkpt lat="43.4852844" lon="10.9697262"><ele>419.66666666666663</ele><time>2026-04-18T13:40:39.987Z</time></trkpt><trkpt lat="43.4853541" lon="10.9700027"><ele>419.0</ele><time>2026-04-18T13:40:40.988Z</time></trkpt><trkpt lat="43.485431" lon="10.9702668"><ele>418.66666666666663</ele><time>2026-04-18T13:40:41.989Z</time></trkpt><trkpt lat="43.4855029" lon="10.9705149"><ele>418.33333333333337</ele><time>2026-04-18T13:40:42.988Z</time></trkpt><trkpt lat="43.4855741" lon="10.9707498"><ele>418.0</ele><time>2026-04-18T13:40:43.989Z</time></trkpt><trkpt lat="43.4856465" lon="10.9709744"><ele>418.0</ele><time>2026-04-18T13:40:44.988Z</time></trkpt><trkpt lat="43.4857169" lon="10.9711987"><ele>418.0</ele><time>2026-04-18T13:40:45.984Z</time></trkpt><trkpt lat="43.4857912" lon="10.9714352"><ele>418.0</ele><time>2026-04-18T13:40:46.987Z</time></trkpt><trkpt lat="43.4858693" lon="10.9716715"><ele>416.0</ele><time>2026-04-18T13:40:47.989Z</time></trkpt><trkpt lat="43.4859551" lon="10.9719177"><ele>414.0</ele><time>2026-04-18T13:40:48.988Z</time></trkpt><trkpt lat="43.4860355" lon="10.9721603"><ele>412.0</ele><time>2026-04-18T13:40:49.988Z</time></trkpt><trkpt lat="43.4861103" lon="10.972389"><ele>413.0</ele><time>2026-04-18T13:40:50.988Z</time></trkpt><trkpt lat="43.4861858" lon="10.9726086"><ele>414.0</ele><time>2026-04-18T13:40:51.988Z</time></trkpt><trkpt lat="43.4862589" lon="10.9728114"><ele>415.0</ele><time>2026-04-18T13:40:52.988Z</time></trkpt><trkpt lat="43.4863161" lon="10.9729969"><ele>416.6666666666667</ele><time>2026-04-18T13:40:53.988Z</time></trkpt><trkpt lat="43.4863488" lon="10.9731965"><ele>418.33333333333337</ele><time>2026-04-18T13:40:54.988Z</time></trkpt><trkpt lat="43.486359" lon="10.973422"><ele>420.0</ele><time>2026-04-18T13:40:55.988Z</time></trkpt><trkpt lat="43.486347" lon="10.9736804"><ele>421.66666666666663</ele><time>2026-04-18T13:40:56.988Z</time></trkpt><trkpt lat="43.4863171" lon="10.9739569"><ele>423.3333333333333</ele><time>2026-04-18T13:40:57.988Z</time></trkpt><trkpt lat="43.4862852" lon="10.974217"><ele>425.0</ele><time>2026-04-18T13:40:58.987Z</time></trkpt><trkpt lat="43.4862572" lon="10.9744639"><ele>426.66666666666663</ele><time>2026-04-18T13:40:59.986Z</time></trkpt><trkpt lat="43.4862254" lon="10.9747014"><ele>428.33333333333337</ele><time>2026-04-18T13:41:00.987Z</time></trkpt><trkpt lat="43.4862062" lon="10.9749333"><ele>430.0</ele><time>2026-04-18T13:41:01.987Z</time></trkpt><trkpt lat="43.486219" lon="10.9751695"><ele>430.33333333333337</ele><time>2026-04-18T13:41:02.988Z</time></trkpt><trkpt lat="43.4862479" lon="10.9754211"><ele>430.66666666666663</ele><time>2026-04-18T13:41:03.988Z</time></trkpt><trkpt lat="43.4862921" lon="10.9756791"><ele>431.0</ele><time>2026-04-18T13:41:04.988Z</time></trkpt><trkpt lat="43.4863387" lon="10.9759319"><ele>437.3333333333333</ele><time>2026-04-18T13:41:05.988Z</time></trkpt><trkpt lat="43.4863816" lon="10.9761743"><ele>443.66666666666663</ele><time>2026-04-18T13:41:06.988Z</time></trkpt><trkpt lat="43.4864256" lon="10.9763968"><ele>450.0</ele><time>2026-04-18T13:41:07.988Z</time></trkpt><trkpt lat="43.4864746" lon="10.9766168"><ele>447.66666666666663</ele><time>2026-04-18T13:41:08.988Z</time></trkpt><trkpt lat="43.4865677" lon="10.9768201"><ele>445.3333333333333</ele><time>2026-04-18T13:41:09.988Z</time></trkpt><trkpt lat="43.4866578" lon="10.9770171"><ele>443.0</ele><time>2026-04-18T13:41:10.989Z</time></trkpt><trkpt lat="43.4867612" lon="10.9772281"><ele>443.0</ele><time>2026-04-18T13:41:11.986Z</time></trkpt><trkpt lat="43.4868602" lon="10.9774264"><ele>443.0</ele><time>2026-04-18T13:41:12.984Z</time></trkpt><trkpt lat="43.486958" lon="10.9776099"><ele>443.0</ele><time>2026-04-18T13:41:13.988Z</time></trkpt><trkpt lat="43.4870551" lon="10.9777855"><ele>442.66666666666663</ele><time>2026-04-18T13:41:14.988Z</time></trkpt><trkpt lat="43.4871477" lon="10.9779645"><ele>442.33333333333337</ele><time>2026-04-18T13:41:15.987Z</time></trkpt><trkpt lat="43.4872181" lon="10.9781595"><ele>442.0</ele><time>2026-04-18T13:41:16.988Z</time></trkpt><trkpt lat="43.4872257" lon="10.9783538"><ele>442.0</ele><time>2026-04-18T13:41:17.987Z</time></trkpt><trkpt lat="43.4872088" lon="10.978546"><ele>442.0</ele><time>2026-04-18T13:41:18.988Z</time></trkpt><trkpt lat="43.4871691" lon="10.9787373"><ele>442.0</ele><time>2026-04-18T13:41:19.981Z</time></trkpt><trkpt lat="43.4870725" lon="10.9789555"><ele>443.6666666666667</ele><time>2026-04-18T13:41:20.986Z</time></trkpt><trkpt lat="43.4869741" lon="10.979174"><ele>445.33333333333337</ele><time>2026-04-18T13:41:21.988Z</time></trkpt><trkpt lat="43.4868843" lon="10.9793908"><ele>447.0</ele><time>2026-04-18T13:41:22.985Z</time></trkpt><trkpt lat="43.4867992" lon="10.9795939"><ele>448.33333333333337</ele><time>2026-04-18T13:41:23.988Z</time></trkpt><trkpt lat="43.4867305" lon="10.9797854"><ele>449.6666666666667</ele><time>2026-04-18T13:41:24.987Z</time></trkpt><trkpt lat="43.4866853" lon="10.979989"><ele>451.0</ele><time>2026-04-18T13:41:25.985Z</time></trkpt><trkpt lat="43.4866683" lon="10.980207"><ele>451.6666666666667</ele><time>2026-04-18T13:41:26.985Z</time></trkpt><trkpt lat="43.4867018" lon="10.9804449"><ele>452.33333333333337</ele><time>2026-04-18T13:41:27.986Z</time></trkpt><trkpt lat="43.4867478" lon="10.9806944"><ele>453.0</ele><time>2026-04-18T13:41:28.984Z</time></trkpt><trkpt lat="43.4868119" lon="10.9809665"><ele>454.33333333333337</ele><time>2026-04-18T13:41:29.986Z</time></trkpt><trkpt lat="43.4868729" lon="10.9812326"><ele>455.6666666666667</ele><time>2026-04-18T13:41:30.988Z</time></trkpt><trkpt lat="43.4869249" lon="10.9815019"><ele>457.0</ele><time>2026-04-18T13:41:31.987Z</time></trkpt><trkpt lat="43.4869778" lon="10.9817422"><ele>458.0</ele><time>2026-04-18T13:41:32.988Z</time></trkpt><trkpt lat="43.4870167" lon="10.9819892"><ele>459.0</ele><time>2026-04-18T13:41:33.988Z</time></trkpt><trkpt lat="43.487009" lon="10.9822591"><ele>460.0</ele><time>2026-04-18T13:41:34.986Z</time></trkpt><trkpt lat="43.4870117" lon="10.982537"><ele>460.0</ele><time>2026-04-18T13:41:35.988Z</time></trkpt><trkpt lat="43.4870087" lon="10.9828123"><ele>460.0</ele><time>2026-04-18T13:41:36.987Z</time></trkpt><trkpt lat="43.4870066" lon="10.9830709"><ele>460.0</ele><time>2026-04-18T13:41:37.988Z</time></trkpt><trkpt lat="43.4869995" lon="10.9833093"><ele>457.33333333333337</ele><time>2026-04-18T13:41:38.985Z</time></trkpt><trkpt lat="43.4870091" lon="10.9835487"><ele>454.66666666666663</ele><time>2026-04-18T13:41:39.988Z</time></trkpt><trkpt lat="43.4870531" lon="10.9837883"><ele>452.0</ele><time>2026-04-18T13:41:40.988Z</time></trkpt><trkpt lat="43.4871307" lon="10.9840374"><ele>451.3333333333333</ele><time>2026-04-18T13:41:41.989Z</time></trkpt><trkpt lat="43.4872231" lon="10.9842864"><ele>450.66666666666663</ele><time>2026-04-18T13:41:42.986Z</time></trkpt><trkpt lat="43.487322" lon="10.9845376"><ele>450.0</ele><time>2026-04-18T13:41:43.988Z</time></trkpt><trkpt lat="43.4874235" lon="10.9848074"><ele>449.66666666666663</ele><time>2026-04-18T13:41:44.987Z</time></trkpt><trkpt lat="43.4875247" lon="10.9850632"><ele>449.3333333333333</ele><time>2026-04-18T13:41:45.988Z</time></trkpt><trkpt lat="43.4876237" lon="10.9853066"><ele>449.0</ele><time>2026-04-18T13:41:46.987Z</time></trkpt><trkpt lat="43.4877135" lon="10.9855345"><ele>449.0</ele><time>2026-04-18T13:41:47.988Z</time></trkpt><trkpt lat="43.4877948" lon="10.9857405"><ele>449.0</ele><time>2026-04-18T13:41:48.988Z</time></trkpt><trkpt lat="43.4878703" lon="10.9859448"><ele>449.0</ele><time>2026-04-18T13:41:49.984Z</time></trkpt><trkpt lat="43.4879273" lon="10.9861677"><ele>448.3333333333333</ele><time>2026-04-18T13:41:50.988Z</time></trkpt><trkpt lat="43.4879641" lon="10.9864173"><ele>447.66666666666663</ele><time>2026-04-18T13:41:51.988Z</time></trkpt><trkpt lat="43.4879921" lon="10.9866725"><ele>447.0</ele><time>2026-04-18T13:41:52.983Z</time></trkpt><trkpt lat="43.4880149" lon="10.9869174"><ele>445.66666666666663</ele><time>2026-04-18T13:41:53.984Z</time></trkpt><trkpt lat="43.4880281" lon="10.987154"><ele>444.3333333333333</ele><time>2026-04-18T13:41:54.988Z</time></trkpt><trkpt lat="43.4880255" lon="10.9873898"><ele>443.0</ele><time>2026-04-18T13:41:55.987Z</time></trkpt><trkpt lat="43.4879994" lon="10.9876193"><ele>441.0</ele><time>2026-04-18T13:41:56.988Z</time></trkpt><trkpt lat="43.4879458" lon="10.9878428"><ele>439.0</ele><time>2026-04-18T13:41:57.984Z</time></trkpt><trkpt lat="43.4878797" lon="10.9880667"><ele>437.0</ele><time>2026-04-18T13:41:58.988Z</time></trkpt><trkpt lat="43.4878048" lon="10.988311"><ele>435.3333333333333</ele><time>2026-04-18T13:41:59.986Z</time></trkpt><trkpt lat="43.4877286" lon="10.9885671"><ele>433.66666666666663</ele><time>2026-04-18T13:42:00.988Z</time></trkpt><trkpt lat="43.4876557" lon="10.9888173"><ele>432.0</ele><time>2026-04-18T13:42:01.987Z</time></trkpt><trkpt lat="43.487581" lon="10.9890676"><ele>429.33333333333337</ele><time>2026-04-18T13:42:02.988Z</time></trkpt><trkpt lat="43.4875074" lon="10.9893154"><ele>426.6666666666667</ele><time>2026-04-18T13:42:03.989Z</time></trkpt><trkpt lat="43.4874334" lon="10.9895705"><ele>424.0</ele><time>2026-04-18T13:42:04.988Z</time></trkpt><trkpt lat="43.4873596" lon="10.9898207"><ele>420.6666666666667</ele><time>2026-04-18T13:42:05.988Z</time></trkpt><trkpt lat="43.4872905" lon="10.9900701"><ele>417.33333333333337</ele><time>2026-04-18T13:42:06.986Z</time></trkpt><trkpt lat="43.4872191" lon="10.9903189"><ele>414.0</ele><time>2026-04-18T13:42:07.988Z</time></trkpt><trkpt lat="43.4871578" lon="10.9905788"><ele>414.0</ele><time>2026-04-18T13:42:08.988Z</time></trkpt><trkpt lat="43.4870968" lon="10.9908386"><ele>414.0</ele><time>2026-04-18T13:42:09.988Z</time></trkpt><trkpt lat="43.4870414" lon="10.9911021"><ele>414.0</ele><time>2026-04-18T13:42:10.987Z</time></trkpt><trkpt lat="43.4869837" lon="10.9913618"><ele>413.0</ele><time>2026-04-18T13:42:11.987Z</time></trkpt><trkpt lat="43.4869263" lon="10.9916168"><ele>412.0</ele><time>2026-04-18T13:42:12.986Z</time></trkpt><trkpt lat="43.4868709" lon="10.9918637"><ele>411.0</ele><time>2026-04-18T13:42:13.986Z</time></trkpt><trkpt lat="43.4868171" lon="10.9921039"><ele>410.66666666666663</ele><time>2026-04-18T13:42:14.988Z</time></trkpt><trkpt lat="43.4867673" lon="10.9923373"><ele>410.3333333333333</ele><time>2026-04-18T13:42:15.988Z</time></trkpt><trkpt lat="43.4867225" lon="10.9925787"><ele>410.0</ele><time>2026-04-18T13:42:16.987Z</time></trkpt><trkpt lat="43.4866888" lon="10.9928259"><ele>409.66666666666663</ele><time>2026-04-18T13:42:17.984Z</time></trkpt><trkpt lat="43.4866692" lon="10.9930673"><ele>409.33333333333337</ele><time>2026-04-18T13:42:18.988Z</time></trkpt><trkpt lat="43.4866508" lon="10.9933123"><ele>409.0</ele><time>2026-04-18T13:42:19.986Z</time></trkpt><trkpt lat="43.4866278" lon="10.9935498"><ele>407.6666666666667</ele><time>2026-04-18T13:42:20.986Z</time></trkpt><trkpt lat="43.4866107" lon="10.9937969"><ele>406.33333333333337</ele><time>2026-04-18T13:42:21.988Z</time></trkpt><trkpt lat="43.4865916" lon="10.9940466"><ele>405.0</ele><time>2026-04-18T13:42:22.988Z</time></trkpt><trkpt lat="43.4865757" lon="10.994285"><ele>405.0</ele><time>2026-04-18T13:42:23.988Z</time></trkpt><trkpt lat="43.4865609" lon="10.9945249"><ele>405.0</ele><time>2026-04-18T13:42:24.988Z</time></trkpt><trkpt lat="43.4865568" lon="10.9947629"><ele>405.0</ele><time>2026-04-18T13:42:25.984Z</time></trkpt><trkpt lat="43.4865857" lon="10.9950142"><ele>405.0</ele><time>2026-04-18T13:42:26.988Z</time></trkpt><trkpt lat="43.4866303" lon="10.9952597"><ele>405.0</ele><time>2026-04-18T13:42:27.988Z</time></trkpt><trkpt lat="43.4866893" lon="10.9955094"><ele>405.0</ele><time>2026-04-18T13:42:28.989Z</time></trkpt><trkpt lat="43.4867555" lon="10.9957445"><ele>404.33333333333337</ele><time>2026-04-18T13:42:29.988Z</time></trkpt><trkpt lat="43.4868154" lon="10.9959739"><ele>403.6666666666667</ele><time>2026-04-18T13:42:30.988Z</time></trkpt><trkpt lat="43.4868634" lon="10.9961781"><ele>403.0</ele><time>2026-04-18T13:42:31.985Z</time></trkpt><trkpt lat="43.4868974" lon="10.9963835"><ele>403.0</ele><time>2026-04-18T13:42:32.986Z</time></trkpt><trkpt lat="43.4869172" lon="10.9965959"><ele>403.0</ele><time>2026-04-18T13:42:33.987Z</time></trkpt><trkpt lat="43.4869168" lon="10.9968338"><ele>403.0</ele><time>2026-04-18T13:42:34.988Z</time></trkpt><trkpt lat="43.4868995" lon="10.9970801"><ele>400.0</ele><time>2026-04-18T13:42:35.989Z</time></trkpt><trkpt lat="43.4868648" lon="10.9973153"><ele>397.0</ele><time>2026-04-18T13:42:36.987Z</time></trkpt><trkpt lat="43.4868359" lon="10.9975487"><ele>394.0</ele><time>2026-04-18T13:42:37.988Z</time></trkpt><trkpt lat="43.4867874" lon="10.9977725"><ele>389.6666666666667</ele><time>2026-04-18T13:42:38.988Z</time></trkpt><trkpt lat="43.4867153" lon="10.9979894"><ele>385.33333333333337</ele><time>2026-04-18T13:42:39.988Z</time></trkpt><trkpt lat="43.4866166" lon="10.9981944"><ele>381.0</ele><time>2026-04-18T13:42:40.988Z</time></trkpt><trkpt lat="43.486497" lon="10.9984143"><ele>379.0</ele><time>2026-04-18T13:42:41.987Z</time></trkpt><trkpt lat="43.4863817" lon="10.9986439"><ele>377.0</ele><time>2026-04-18T13:42:42.988Z</time></trkpt><trkpt lat="43.4862567" lon="10.9988728"><ele>375.0</ele><time>2026-04-18T13:42:43.988Z</time></trkpt><trkpt lat="43.4861308" lon="10.9991116"><ele>375.6666666666667</ele><time>2026-04-18T13:42:44.988Z</time></trkpt><trkpt lat="43.4860015" lon="10.9993493"><ele>376.33333333333337</ele><time>2026-04-18T13:42:45.985Z</time></trkpt><trkpt lat="43.4858685" lon="10.9995898"><ele>377.0</ele><time>2026-04-18T13:42:46.986Z</time></trkpt><trkpt lat="43.4857307" lon="10.9998171"><ele>377.0</ele><time>2026-04-18T13:42:47.988Z</time></trkpt><trkpt lat="43.4855886" lon="11.0000247"><ele>377.0</ele><time>2026-04-18T13:42:48.986Z</time></trkpt><trkpt lat="43.4854461" lon="11.0002269"><ele>377.0</ele><time>2026-04-18T13:42:49.987Z</time></trkpt><trkpt lat="43.4853128" lon="11.0004188"><ele>376.33333333333337</ele><time>2026-04-18T13:42:50.987Z</time></trkpt><trkpt lat="43.4851938" lon="11.0005854"><ele>375.6666666666667</ele><time>2026-04-18T13:42:51.988Z</time></trkpt><trkpt lat="43.4850877" lon="11.0007549"><ele>375.0</ele><time>2026-04-18T13:42:52.985Z</time></trkpt><trkpt lat="43.484998" lon="11.0009394"><ele>375.0</ele><time>2026-04-18T13:42:53.988Z</time></trkpt><trkpt lat="43.4849039" lon="11.0011336"><ele>375.0</ele><time>2026-04-18T13:42:54.986Z</time></trkpt><trkpt lat="43.4848173" lon="11.0013405"><ele>375.0</ele><time>2026-04-18T13:42:55.987Z</time></trkpt><trkpt lat="43.4847274" lon="11.00156"><ele>376.3333333333333</ele><time>2026-04-18T13:42:56.988Z</time></trkpt><trkpt lat="43.4846423" lon="11.0017802"><ele>377.66666666666663</ele><time>2026-04-18T13:42:57.986Z</time></trkpt><trkpt lat="43.4845545" lon="11.0019962"><ele>379.0</ele><time>2026-04-18T13:42:58.988Z</time></trkpt><trkpt lat="43.4844671" lon="11.0022099"><ele>375.0</ele><time>2026-04-18T13:42:59.985Z</time></trkpt><trkpt lat="43.4843809" lon="11.0024183"><ele>371.0</ele><time>2026-04-18T13:43:00.988Z</time></trkpt><trkpt lat="43.4842988" lon="11.0026201"><ele>367.0</ele><time>2026-04-18T13:43:01.985Z</time></trkpt><trkpt lat="43.4842259" lon="11.0028168"><ele>367.0</ele><time>2026-04-18T13:43:02.986Z</time></trkpt><trkpt lat="43.4841407" lon="11.0030112"><ele>367.0</ele><time>2026-04-18T13:43:03.988Z</time></trkpt><trkpt lat="43.4840563" lon="11.0032147"><ele>367.0</ele><time>2026-04-18T13:43:04.988Z</time></trkpt><trkpt lat="43.4839726" lon="11.0034216"><ele>368.3333333333333</ele><time>2026-04-18T13:43:05.988Z</time></trkpt><trkpt lat="43.4838942" lon="11.0036149"><ele>369.6666666666667</ele><time>2026-04-18T13:43:06.987Z</time></trkpt><trkpt lat="43.4838156" lon="11.0038073"><ele>371.0</ele><time>2026-04-18T13:43:07.988Z</time></trkpt><trkpt lat="43.4837403" lon="11.0040041"><ele>365.33333333333337</ele><time>2026-04-18T13:43:08.987Z</time></trkpt><trkpt lat="43.4836691" lon="11.0042035"><ele>359.6666666666667</ele><time>2026-04-18T13:43:09.987Z</time></trkpt><trkpt lat="43.4836055" lon="11.0044114"><ele>354.0</ele><time>2026-04-18T13:43:10.988Z</time></trkpt><trkpt lat="43.4835452" lon="11.0046271"><ele>354.0</ele><time>2026-04-18T13:43:11.987Z</time></trkpt><trkpt lat="43.4834929" lon="11.0048567"><ele>354.0</ele><time>2026-04-18T13:43:12.988Z</time></trkpt><trkpt lat="43.4834369" lon="11.0050976"><ele>354.0</ele><time>2026-04-18T13:43:13.986Z</time></trkpt><trkpt lat="43.4833923" lon="11.0053435"><ele>355.3333333333333</ele><time>2026-04-18T13:43:14.988Z</time></trkpt><trkpt lat="43.4833414" lon="11.0055883"><ele>356.66666666666663</ele><time>2026-04-18T13:43:15.987Z</time></trkpt><trkpt lat="43.4832954" lon="11.0058321"><ele>358.0</ele><time>2026-04-18T13:43:16.987Z</time></trkpt><trkpt lat="43.4832455" lon="11.0060704"><ele>358.3333333333333</ele><time>2026-04-18T13:43:17.987Z</time></trkpt><trkpt lat="43.4831986" lon="11.0063022"><ele>358.6666666666667</ele><time>2026-04-18T13:43:18.988Z</time></trkpt><trkpt lat="43.4831558" lon="11.0065271"><ele>359.0</ele><time>2026-04-18T13:43:19.985Z</time></trkpt><trkpt lat="43.4831025" lon="11.0067495"><ele>359.6666666666667</ele><time>2026-04-18T13:43:20.988Z</time></trkpt><trkpt lat="43.4830328" lon="11.0069664"><ele>360.3333333333333</ele><time>2026-04-18T13:43:21.988Z</time></trkpt><trkpt lat="43.4829392" lon="11.0071803"><ele>361.0</ele><time>2026-04-18T13:43:22.987Z</time></trkpt><trkpt lat="43.4828241" lon="11.0073748"><ele>358.3333333333333</ele><time>2026-04-18T13:43:23.987Z</time></trkpt><trkpt lat="43.4826941" lon="11.0075504"><ele>355.6666666666667</ele><time>2026-04-18T13:43:24.988Z</time></trkpt><trkpt lat="43.482563" lon="11.0077076"><ele>353.0</ele><time>2026-04-18T13:43:25.988Z</time></trkpt><trkpt lat="43.4824272" lon="11.0078641"><ele>353.0</ele><time>2026-04-18T13:43:26.988Z</time></trkpt><trkpt lat="43.482299" lon="11.0080354"><ele>353.0</ele><time>2026-04-18T13:43:27.986Z</time></trkpt><trkpt lat="43.4821818" lon="11.0082244"><ele>353.0</ele><time>2026-04-18T13:43:28.986Z</time></trkpt><trkpt lat="43.4820704" lon="11.0084203"><ele>351.0</ele><time>2026-04-18T13:43:29.987Z</time></trkpt><trkpt lat="43.4819618" lon="11.0086124"><ele>349.0</ele><time>2026-04-18T13:43:30.988Z</time></trkpt><trkpt lat="43.4818561" lon="11.0088021"><ele>347.0</ele><time>2026-04-18T13:43:31.989Z</time></trkpt><trkpt lat="43.4817495" lon="11.0089782"><ele>347.0</ele><time>2026-04-18T13:43:32.988Z</time></trkpt><trkpt lat="43.4816466" lon="11.0091498"><ele>347.0</ele><time>2026-04-18T13:43:33.984Z</time></trkpt><trkpt lat="43.4815539" lon="11.0093395"><ele>347.0</ele><time>2026-04-18T13:43:34.988Z</time></trkpt><trkpt lat="43.4814735" lon="11.0095493"><ele>349.0</ele><time>2026-04-18T13:43:35.987Z</time></trkpt><trkpt lat="43.4814036" lon="11.0097683"><ele>351.0</ele><time>2026-04-18T13:43:36.988Z</time></trkpt><trkpt lat="43.4813356" lon="11.0099993"><ele>353.0</ele><time>2026-04-18T13:43:37.987Z</time></trkpt><trkpt lat="43.4812675" lon="11.0102391"><ele>349.6666666666667</ele><time>2026-04-18T13:43:38.987Z</time></trkpt><trkpt lat="43.4812044" lon="11.010475"><ele>346.3333333333333</ele><time>2026-04-18T13:43:39.983Z</time></trkpt><trkpt lat="43.4811443" lon="11.010702"><ele>343.0</ele><time>2026-04-18T13:43:40.985Z</time></trkpt><trkpt lat="43.4810821" lon="11.010933"><ele>342.3333333333333</ele><time>2026-04-18T13:43:41.988Z</time></trkpt><trkpt lat="43.4810185" lon="11.0111625"><ele>341.6666666666667</ele><time>2026-04-18T13:43:42.988Z</time></trkpt><trkpt lat="43.4809556" lon="11.0113926"><ele>341.0</ele><time>2026-04-18T13:43:43.987Z</time></trkpt><trkpt lat="43.4808916" lon="11.0116219"><ele>340.0</ele><time>2026-04-18T13:43:44.987Z</time></trkpt><trkpt lat="43.4808297" lon="11.0118512"><ele>339.0</ele><time>2026-04-18T13:43:45.988Z</time></trkpt><trkpt lat="43.4807708" lon="11.0120746"><ele>338.0</ele><time>2026-04-18T13:43:46.987Z</time></trkpt><trkpt lat="43.4807101" lon="11.0122907"><ele>338.6666666666667</ele><time>2026-04-18T13:43:47.985Z</time></trkpt><trkpt lat="43.4806532" lon="11.0125035"><ele>339.3333333333333</ele><time>2026-04-18T13:43:48.988Z</time></trkpt><trkpt lat="43.4805941" lon="11.0127085"><ele>340.0</ele><time>2026-04-18T13:43:49.988Z</time></trkpt><trkpt lat="43.4805373" lon="11.012912"><ele>340.0</ele><time>2026-04-18T13:43:50.988Z</time></trkpt><trkpt lat="43.4804849" lon="11.013115"><ele>340.0</ele><time>2026-04-18T13:43:51.986Z</time></trkpt><trkpt lat="43.4804519" lon="11.0133317"><ele>340.0</ele><time>2026-04-18T13:43:52.985Z</time></trkpt><trkpt lat="43.4804412" lon="11.0135537"><ele>339.0</ele><time>2026-04-18T13:43:53.988Z</time></trkpt><trkpt lat="43.4804456" lon="11.0137939"><ele>338.0</ele><time>2026-04-18T13:43:54.988Z</time></trkpt><trkpt lat="43.4804567" lon="11.014034"><ele>337.0</ele><time>2026-04-18T13:43:55.988Z</time></trkpt><trkpt lat="43.4804644" lon="11.0142732"><ele>335.0</ele><time>2026-04-18T13:43:56.988Z</time></trkpt><trkpt lat="43.4804724" lon="11.0145077"><ele>333.0</ele><time>2026-04-18T13:43:57.984Z</time></trkpt><trkpt lat="43.4804877" lon="11.0147363"><ele>331.0</ele><time>2026-04-18T13:43:58.988Z</time></trkpt><trkpt lat="43.480492" lon="11.0149489"><ele>328.66666666666663</ele><time>2026-04-18T13:43:59.985Z</time></trkpt><trkpt lat="43.4804848" lon="11.0151563"><ele>326.3333333333333</ele><time>2026-04-18T13:44:00.986Z</time></trkpt><trkpt lat="43.4804544" lon="11.015365"><ele>324.0</ele><time>2026-04-18T13:44:01.986Z</time></trkpt><trkpt lat="43.4803884" lon="11.0155732"><ele>320.6666666666667</ele><time>2026-04-18T13:44:02.987Z</time></trkpt><trkpt lat="43.480292" lon="11.0157923"><ele>317.33333333333337</ele><time>2026-04-18T13:44:03.987Z</time></trkpt><trkpt lat="43.4801779" lon="11.0159991"><ele>314.0</ele><time>2026-04-18T13:44:04.984Z</time></trkpt><trkpt lat="43.4800527" lon="11.0162279"><ele>313.0</ele><time>2026-04-18T13:44:05.985Z</time></trkpt><trkpt lat="43.4799186" lon="11.0164615"><ele>312.0</ele><time>2026-04-18T13:44:06.987Z</time></trkpt><trkpt lat="43.4797694" lon="11.0166969"><ele>311.0</ele><time>2026-04-18T13:44:07.987Z</time></trkpt><trkpt lat="43.4796066" lon="11.0169174"><ele>309.0</ele><time>2026-04-18T13:44:08.988Z</time></trkpt><trkpt lat="43.4794432" lon="11.0171279"><ele>307.0</ele><time>2026-04-18T13:44:09.987Z</time></trkpt><trkpt lat="43.4792912" lon="11.0173235"><ele>305.0</ele><time>2026-04-18T13:44:10.987Z</time></trkpt><trkpt lat="43.4791509" lon="11.0175143"><ele>305.0</ele><time>2026-04-18T13:44:11.986Z</time></trkpt><trkpt lat="43.4790166" lon="11.0176809"><ele>305.0</ele><time>2026-04-18T13:44:12.987Z</time></trkpt><trkpt lat="43.4788952" lon="11.0178502"><ele>305.0</ele><time>2026-04-18T13:44:13.987Z</time></trkpt><trkpt lat="43.4787857" lon="11.0180349"><ele>304.6666666666667</ele><time>2026-04-18T13:44:14.988Z</time></trkpt><trkpt lat="43.4786909" lon="11.0182287"><ele>304.3333333333333</ele><time>2026-04-18T13:44:15.987Z</time></trkpt><trkpt lat="43.4786094" lon="11.0184154"><ele>304.0</ele><time>2026-04-18T13:44:16.988Z</time></trkpt><trkpt lat="43.4785296" lon="11.0186078"><ele>304.0</ele><time>2026-04-18T13:44:17.988Z</time></trkpt><trkpt lat="43.4784477" lon="11.0188056"><ele>304.0</ele><time>2026-04-18T13:44:18.988Z</time></trkpt><trkpt lat="43.4783619" lon="11.0190015"><ele>304.0</ele><time>2026-04-18T13:44:19.986Z</time></trkpt><trkpt lat="43.4782805" lon="11.0191908"><ele>303.75</ele><time>2026-04-18T13:44:20.988Z</time></trkpt><trkpt lat="43.4782041" lon="11.019366"><ele>303.5</ele><time>2026-04-18T13:44:21.986Z</time></trkpt><trkpt lat="43.478132" lon="11.0195316"><ele>303.25</ele><time>2026-04-18T13:44:22.988Z</time></trkpt><trkpt lat="43.4780771" lon="11.0197012"><ele>303.0</ele><time>2026-04-18T13:44:23.988Z</time></trkpt><trkpt lat="43.4780419" lon="11.0198893"><ele>301.3333333333333</ele><time>2026-04-18T13:44:24.986Z</time></trkpt><trkpt lat="43.4780164" lon="11.0200952"><ele>299.66666666666663</ele><time>2026-04-18T13:44:25.988Z</time></trkpt><trkpt lat="43.4780014" lon="11.0203195"><ele>298.0</ele><time>2026-04-18T13:44:26.988Z</time></trkpt><trkpt lat="43.4779896" lon="11.0205507"><ele>298.0</ele><time>2026-04-18T13:44:27.988Z</time></trkpt><trkpt lat="43.4779814" lon="11.0207764"><ele>298.0</ele><time>2026-04-18T13:44:28.988Z</time></trkpt><trkpt lat="43.4779845" lon="11.0210007"><ele>298.0</ele><time>2026-04-18T13:44:29.985Z</time></trkpt><trkpt lat="43.4779939" lon="11.0212153"><ele>296.25</ele><time>2026-04-18T13:44:30.986Z</time></trkpt><trkpt lat="43.4780037" lon="11.0214166"><ele>294.5</ele><time>2026-04-18T13:44:31.988Z</time></trkpt><trkpt lat="43.4780049" lon="11.021617"><ele>292.75</ele><time>2026-04-18T13:44:32.987Z</time></trkpt><trkpt lat="43.477999" lon="11.0218221"><ele>291.0</ele><time>2026-04-18T13:44:33.988Z</time></trkpt><trkpt lat="43.4779888" lon="11.0220179"><ele>290.25</ele><time>2026-04-18T13:44:34.986Z</time></trkpt><trkpt lat="43.4779746" lon="11.0222129"><ele>289.5</ele><time>2026-04-18T13:44:35.986Z</time></trkpt><trkpt lat="43.4779547" lon="11.0224084"><ele>288.75</ele><time>2026-04-18T13:44:36.988Z</time></trkpt><trkpt lat="43.477936" lon="11.0226012"><ele>288.0</ele><time>2026-04-18T13:44:37.987Z</time></trkpt><trkpt lat="43.4779162" lon="11.0227929"><ele>287.3333333333333</ele><time>2026-04-18T13:44:38.988Z</time></trkpt><trkpt lat="43.4778793" lon="11.0229935"><ele>286.66666666666663</ele><time>2026-04-18T13:44:39.988Z</time></trkpt><trkpt lat="43.4778158" lon="11.0232149"><ele>286.0</ele><time>2026-04-18T13:44:40.987Z</time></trkpt><trkpt lat="43.4777403" lon="11.0234398"><ele>285.3333333333333</ele><time>2026-04-18T13:44:41.987Z</time></trkpt><trkpt lat="43.4776563" lon="11.0236893"><ele>284.6666666666667</ele><time>2026-04-18T13:44:42.988Z</time></trkpt><trkpt lat="43.4775722" lon="11.0239312"><ele>284.0</ele><time>2026-04-18T13:44:43.988Z</time></trkpt><trkpt lat="43.4774898" lon="11.0241608"><ele>284.0</ele><time>2026-04-18T13:44:44.987Z</time></trkpt><trkpt lat="43.4774159" lon="11.0243869"><ele>284.0</ele><time>2026-04-18T13:44:45.988Z</time></trkpt><trkpt lat="43.477339" lon="11.0246098"><ele>284.0</ele><time>2026-04-18T13:44:46.987Z</time></trkpt><trkpt lat="43.477261" lon="11.024831"><ele>285.33333333333337</ele><time>2026-04-18T13:44:47.985Z</time></trkpt><trkpt lat="43.4771826" lon="11.0250418"><ele>286.6666666666667</ele><time>2026-04-18T13:44:48.987Z</time></trkpt><trkpt lat="43.4771091" lon="11.0252461"><ele>288.0</ele><time>2026-04-18T13:44:49.988Z</time></trkpt><trkpt lat="43.4770432" lon="11.0254264"><ele>286.25</ele><time>2026-04-18T13:44:50.988Z</time></trkpt><trkpt lat="43.4769888" lon="11.0256069"><ele>284.5</ele><time>2026-04-18T13:44:51.987Z</time></trkpt><trkpt lat="43.4769443" lon="11.0257983"><ele>282.75</ele><time>2026-04-18T13:44:52.988Z</time></trkpt><trkpt lat="43.4769133" lon="11.0260142"><ele>281.0</ele><time>2026-04-18T13:44:53.987Z</time></trkpt><trkpt lat="43.476888" lon="11.0262327"><ele>281.0</ele><time>2026-04-18T13:44:54.987Z</time></trkpt><trkpt lat="43.476864" lon="11.0264405"><ele>281.0</ele><time>2026-04-18T13:44:55.989Z</time></trkpt><trkpt lat="43.476831" lon="11.0266403"><ele>281.0</ele><time>2026-04-18T13:44:56.989Z</time></trkpt><trkpt lat="43.4768045" lon="11.0268415"><ele>279.33333333333337</ele><time>2026-04-18T13:44:57.988Z</time></trkpt><trkpt lat="43.4767766" lon="11.0270584"><ele>277.6666666666667</ele><time>2026-04-18T13:44:58.988Z</time></trkpt><trkpt lat="43.4767486" lon="11.0272751"><ele>276.0</ele><time>2026-04-18T13:44:59.987Z</time></trkpt><trkpt lat="43.476717" lon="11.0274846"><ele>274.0</ele><time>2026-04-18T13:45:00.988Z</time></trkpt><trkpt lat="43.4766903" lon="11.0276912"><ele>272.0</ele><time>2026-04-18T13:45:01.988Z</time></trkpt><trkpt lat="43.4766615" lon="11.0279008"><ele>270.0</ele><time>2026-04-18T13:45:02.987Z</time></trkpt><trkpt lat="43.4766354" lon="11.0281011"><ele>270.0</ele><time>2026-04-18T13:45:03.988Z</time></trkpt><trkpt lat="43.4766141" lon="11.0282785"><ele>270.0</ele><time>2026-04-18T13:45:04.988Z</time></trkpt><trkpt lat="43.4765927" lon="11.0284482"><ele>270.0</ele><time>2026-04-18T13:45:05.988Z</time></trkpt><trkpt lat="43.4765572" lon="11.0285812"><ele>270.0</ele><time>2026-04-18T13:45:06.984Z</time></trkpt><trkpt lat="43.4765015" lon="11.0286972"><ele>269.1666666666667</ele><time>2026-04-18T13:45:07.988Z</time></trkpt><trkpt lat="43.4764364" lon="11.0287828"><ele>268.3333333333333</ele><time>2026-04-18T13:45:08.989Z</time></trkpt><trkpt lat="43.4763844" lon="11.0288822"><ele>267.5</ele><time>2026-04-18T13:45:09.988Z</time></trkpt><trkpt lat="43.4763459" lon="11.0289894"><ele>266.66666666666663</ele><time>2026-04-18T13:45:10.989Z</time></trkpt><trkpt lat="43.4763369" lon="11.0290982"><ele>265.8333333333333</ele><time>2026-04-18T13:45:11.987Z</time></trkpt><trkpt lat="43.4763528" lon="11.0291978"><ele>265.0</ele><time>2026-04-18T13:45:12.987Z</time></trkpt><trkpt lat="43.476389" lon="11.0292822"><ele>264.99999999999994</ele><time>2026-04-18T13:45:13.986Z</time></trkpt><trkpt lat="43.4764515" lon="11.0293489"><ele>265.0</ele><time>2026-04-18T13:45:14.985Z</time></trkpt><trkpt lat="43.4765198" lon="11.0293776"><ele>265.0</ele><time>2026-04-18T13:45:15.988Z</time></trkpt><trkpt lat="43.4765893" lon="11.029367"><ele>265.0</ele><time>2026-04-18T13:45:16.987Z</time></trkpt><trkpt lat="43.476656" lon="11.029325"><ele>265.0</ele><time>2026-04-18T13:45:17.984Z</time></trkpt><trkpt lat="43.4767057" lon="11.0292505"><ele>264.99999999999994</ele><time>2026-04-18T13:45:18.988Z</time></trkpt><trkpt lat="43.476738" lon="11.0291503"><ele>265.0</ele><time>2026-04-18T13:45:19.986Z</time></trkpt><trkpt lat="43.4767491" lon="11.0290494"><ele>265.0</ele><time>2026-04-18T13:45:20.985Z</time></trkpt><trkpt lat="43.476723" lon="11.0289527"><ele>265.0</ele><time>2026-04-18T13:45:21.986Z</time></trkpt><trkpt lat="43.4766696" lon="11.0288821"><ele>265.0</ele><time>2026-04-18T13:45:22.988Z</time></trkpt><trkpt lat="43.476604" lon="11.0288361"><ele>265.0</ele><time>2026-04-18T13:45:23.988Z</time></trkpt><trkpt lat="43.4765225" lon="11.0288219"><ele>265.0</ele><time>2026-04-18T13:45:24.987Z</time></trkpt><trkpt lat="43.476438" lon="11.0288189"><ele>265.0</ele><time>2026-04-18T13:45:25.987Z</time></trkpt><trkpt lat="43.4763526" lon="11.0287987"><ele>263.25</ele><time>2026-04-18T13:45:26.984Z</time></trkpt><trkpt lat="43.4762611" lon="11.0287486"><ele>261.5</ele><time>2026-04-18T13:45:27.987Z</time></trkpt><trkpt lat="43.4761636" lon="11.028672"><ele>259.75</ele><time>2026-04-18T13:45:28.987Z</time></trkpt><trkpt lat="43.4760625" lon="11.0285875"><ele>258.0</ele><time>2026-04-18T13:45:29.982Z</time></trkpt><trkpt lat="43.4759451" lon="11.0284851"><ele>258.0</ele><time>2026-04-18T13:45:30.987Z</time></trkpt><trkpt lat="43.4758164" lon="11.0283649"><ele>258.0</ele><time>2026-04-18T13:45:31.988Z</time></trkpt><trkpt lat="43.4756907" lon="11.0282459"><ele>258.0</ele><time>2026-04-18T13:45:32.988Z</time></trkpt><trkpt lat="43.4755636" lon="11.0281272"><ele>257.25</ele><time>2026-04-18T13:45:33.988Z</time></trkpt><trkpt lat="43.4754469" lon="11.028012"><ele>256.5</ele><time>2026-04-18T13:45:34.984Z</time></trkpt><trkpt lat="43.4753341" lon="11.0279"><ele>255.75</ele><time>2026-04-18T13:45:35.984Z</time></trkpt><trkpt lat="43.4752215" lon="11.0277877"><ele>255.0</ele><time>2026-04-18T13:45:36.986Z</time></trkpt><trkpt lat="43.475109" lon="11.027674"><ele>255.0</ele><time>2026-04-18T13:45:37.988Z</time></trkpt><trkpt lat="43.4749918" lon="11.0275767"><ele>255.0</ele><time>2026-04-18T13:45:38.986Z</time></trkpt><trkpt lat="43.4748541" lon="11.0275011"><ele>255.0</ele><time>2026-04-18T13:45:39.987Z</time></trkpt><trkpt lat="43.4747138" lon="11.027438"><ele>255.0</ele><time>2026-04-18T13:45:40.985Z</time></trkpt><trkpt lat="43.4745656" lon="11.027405"><ele>255.66666666666669</ele><time>2026-04-18T13:45:41.988Z</time></trkpt><trkpt lat="43.4744076" lon="11.0274084"><ele>256.33333333333337</ele><time>2026-04-18T13:45:42.985Z</time></trkpt><trkpt lat="43.4742355" lon="11.0274498"><ele>257.0</ele><time>2026-04-18T13:45:43.986Z</time></trkpt><trkpt lat="43.4740703" lon="11.0275098"><ele>254.66666666666669</ele><time>2026-04-18T13:45:44.987Z</time></trkpt><trkpt lat="43.4739146" lon="11.027574"><ele>252.33333333333331</ele><time>2026-04-18T13:45:45.984Z</time></trkpt><trkpt lat="43.4737667" lon="11.0276426"><ele>250.0</ele><time>2026-04-18T13:45:46.984Z</time></trkpt><trkpt lat="43.4736195" lon="11.0277163"><ele>247.66666666666666</ele><time>2026-04-18T13:45:47.988Z</time></trkpt><trkpt lat="43.4734753" lon="11.0277855"><ele>245.33333333333331</ele><time>2026-04-18T13:45:48.988Z</time></trkpt><trkpt lat="43.4733181" lon="11.0278425"><ele>243.0</ele><time>2026-04-18T13:45:49.987Z</time></trkpt><trkpt lat="43.4731556" lon="11.0278707"><ele>243.0</ele><time>2026-04-18T13:45:50.988Z</time></trkpt><trkpt lat="43.4729942" lon="11.0278702"><ele>243.0</ele><time>2026-04-18T13:45:51.984Z</time></trkpt><trkpt lat="43.4728415" lon="11.0278578"><ele>243.0</ele><time>2026-04-18T13:45:52.986Z</time></trkpt><trkpt lat="43.4726904" lon="11.0278304"><ele>242.2</ele><time>2026-04-18T13:45:53.988Z</time></trkpt><trkpt lat="43.4725544" lon="11.0277809"><ele>241.4</ele><time>2026-04-18T13:45:54.984Z</time></trkpt><trkpt lat="43.4724425" lon="11.0277259"><ele>240.59999999999997</ele><time>2026-04-18T13:45:55.985Z</time></trkpt><trkpt lat="43.4723635" lon="11.0276718"><ele>239.79999999999998</ele><time>2026-04-18T13:45:56.988Z</time></trkpt><trkpt lat="43.4723073" lon="11.027629"><ele>239.0</ele><time>2026-04-18T13:45:57.984Z</time></trkpt><trkpt lat="43.4722519" lon="11.02751"><ele>238.79999999999998</ele><time>2026-04-18T13:45:59.987Z</time></trkpt><trkpt lat="43.4722195" lon="11.027365"><ele>238.59999999999997</ele><time>2026-04-18T13:46:01.988Z</time></trkpt><trkpt lat="43.4721109" lon="11.0272929"><ele>238.4</ele><time>2026-04-18T13:46:03.986Z</time></trkpt><trkpt lat="43.4720415" lon="11.0273128"><ele>238.2</ele><time>2026-04-18T13:46:04.988Z</time></trkpt><trkpt lat="43.4719739" lon="11.0273689"><ele>238.0</ele><time>2026-04-18T13:46:05.987Z</time></trkpt><trkpt lat="43.4719054" lon="11.0274497"><ele>237.25</ele><time>2026-04-18T13:46:06.988Z</time></trkpt><trkpt lat="43.471812" lon="11.0275238"><ele>236.5</ele><time>2026-04-18T13:46:07.986Z</time></trkpt><trkpt lat="43.471709" lon="11.0275785"><ele>235.75</ele><time>2026-04-18T13:46:08.985Z</time></trkpt><trkpt lat="43.4715735" lon="11.0276461"><ele>235.0</ele><time>2026-04-18T13:46:09.987Z</time></trkpt><trkpt lat="43.4714449" lon="11.0277302"><ele>235.0</ele><time>2026-04-18T13:46:10.981Z</time></trkpt><trkpt lat="43.4713019" lon="11.0278573"><ele>235.0</ele><time>2026-04-18T13:46:11.988Z</time></trkpt><trkpt lat="43.4711503" lon="11.0280087"><ele>235.0</ele><time>2026-04-18T13:46:12.986Z</time></trkpt><trkpt lat="43.4709973" lon="11.0281602"><ele>235.0</ele><time>2026-04-18T13:46:13.988Z</time></trkpt><trkpt lat="43.4708474" lon="11.0283217"><ele>235.0</ele><time>2026-04-18T13:46:14.987Z</time></trkpt><trkpt lat="43.4707062" lon="11.0284875"><ele>235.0</ele><time>2026-04-18T13:46:15.986Z</time></trkpt><trkpt lat="43.4705662" lon="11.0286532"><ele>235.33333333333331</ele><time>2026-04-18T13:46:16.987Z</time></trkpt><trkpt lat="43.4704308" lon="11.0288213"><ele>235.66666666666669</ele><time>2026-04-18T13:46:17.988Z</time></trkpt><trkpt lat="43.4702988" lon="11.0289787"><ele>236.0</ele><time>2026-04-18T13:46:18.988Z</time></trkpt><trkpt lat="43.4701775" lon="11.0291331"><ele>234.66666666666669</ele><time>2026-04-18T13:46:19.986Z</time></trkpt><trkpt lat="43.4700523" lon="11.0292828"><ele>233.33333333333331</ele><time>2026-04-18T13:46:20.988Z</time></trkpt><trkpt lat="43.4699233" lon="11.0294222"><ele>232.0</ele><time>2026-04-18T13:46:21.988Z</time></trkpt><trkpt lat="43.4697975" lon="11.0295477"><ele>232.0</ele><time>2026-04-18T13:46:22.986Z</time></trkpt><trkpt lat="43.4696667" lon="11.0296542"><ele>232.0</ele><time>2026-04-18T13:46:23.987Z</time></trkpt><trkpt lat="43.4695332" lon="11.029747"><ele>232.0</ele><time>2026-04-18T13:46:24.988Z</time></trkpt><trkpt lat="43.4693996" lon="11.0298122"><ele>232.0</ele><time>2026-04-18T13:46:25.988Z</time></trkpt><trkpt lat="43.4692889" lon="11.0298541"><ele>232.0</ele><time>2026-04-18T13:46:26.984Z</time></trkpt><trkpt lat="43.4691821" lon="11.0298834"><ele>232.0</ele><time>2026-04-18T13:46:27.988Z</time></trkpt><trkpt lat="43.4690743" lon="11.0298876"><ele>232.0</ele><time>2026-04-18T13:46:28.988Z</time></trkpt><trkpt lat="43.4689801" lon="11.0298823"><ele>232.0</ele><time>2026-04-18T13:46:29.986Z</time></trkpt><trkpt lat="43.4688862" lon="11.0299162"><ele>232.0</ele><time>2026-04-18T13:46:30.988Z</time></trkpt><trkpt lat="43.4687886" lon="11.0300068"><ele>231.0</ele><time>2026-04-18T13:46:31.989Z</time></trkpt><trkpt lat="43.468664" lon="11.0301361"><ele>230.0</ele><time>2026-04-18T13:46:32.984Z</time></trkpt><trkpt lat="43.4685306" lon="11.0302614"><ele>229.0</ele><time>2026-04-18T13:46:33.988Z</time></trkpt><trkpt lat="43.4683711" lon="11.0304142"><ele>229.0</ele><time>2026-04-18T13:46:34.984Z</time></trkpt><trkpt lat="43.468191" lon="11.0305931"><ele>229.0</ele><time>2026-04-18T13:46:35.988Z</time></trkpt><trkpt lat="43.4680115" lon="11.0307668"><ele>229.0</ele><time>2026-04-18T13:46:36.985Z</time></trkpt><trkpt lat="43.467827" lon="11.0309452"><ele>228.0</ele><time>2026-04-18T13:46:37.988Z</time></trkpt><trkpt lat="43.4676544" lon="11.031111"><ele>227.0</ele><time>2026-04-18T13:46:38.985Z</time></trkpt><trkpt lat="43.4674871" lon="11.0312687"><ele>226.0</ele><time>2026-04-18T13:46:39.984Z</time></trkpt><trkpt lat="43.4673211" lon="11.031422"><ele>226.0</ele><time>2026-04-18T13:46:40.988Z</time></trkpt><trkpt lat="43.4671514" lon="11.031559"><ele>226.0</ele><time>2026-04-18T13:46:41.988Z</time></trkpt><trkpt lat="43.466977" lon="11.0316846"><ele>226.0</ele><time>2026-04-18T13:46:42.988Z</time></trkpt><trkpt lat="43.4667969" lon="11.0317861"><ele>226.33333333333331</ele><time>2026-04-18T13:46:43.988Z</time></trkpt><trkpt lat="43.4666088" lon="11.031864"><ele>226.66666666666669</ele><time>2026-04-18T13:46:44.985Z</time></trkpt><trkpt lat="43.466419" lon="11.0319094"><ele>227.0</ele><time>2026-04-18T13:46:45.988Z</time></trkpt><trkpt lat="43.466221" lon="11.0319405"><ele>227.0</ele><time>2026-04-18T13:46:46.988Z</time></trkpt><trkpt lat="43.466024" lon="11.0319426"><ele>227.0</ele><time>2026-04-18T13:46:47.987Z</time></trkpt><trkpt lat="43.4658415" lon="11.0319204"><ele>227.0</ele><time>2026-04-18T13:46:48.986Z</time></trkpt><trkpt lat="43.4656569" lon="11.0318851"><ele>227.0</ele><time>2026-04-18T13:46:49.988Z</time></trkpt><trkpt lat="43.4654584" lon="11.03183"><ele>227.0</ele><time>2026-04-18T13:46:50.989Z</time></trkpt><trkpt lat="43.4652521" lon="11.0317519"><ele>227.0</ele><time>2026-04-18T13:46:51.986Z</time></trkpt><trkpt lat="43.4650554" lon="11.0316647"><ele>226.0</ele><time>2026-04-18T13:46:52.987Z</time></trkpt><trkpt lat="43.4648641" lon="11.0315674"><ele>225.0</ele><time>2026-04-18T13:46:53.986Z</time></trkpt><trkpt lat="43.4646685" lon="11.0314708"><ele>224.0</ele><time>2026-04-18T13:46:54.988Z</time></trkpt><trkpt lat="43.4644697" lon="11.0313794"><ele>224.0</ele><time>2026-04-18T13:46:55.988Z</time></trkpt><trkpt lat="43.4642737" lon="11.0312944"><ele>224.0</ele><time>2026-04-18T13:46:56.987Z</time></trkpt><trkpt lat="43.4640798" lon="11.0312242"><ele>224.0</ele><time>2026-04-18T13:46:57.98Z</time></trkpt><trkpt lat="43.4638893" lon="11.0311836"><ele>223.66666666666669</ele><time>2026-04-18T13:46:58.987Z</time></trkpt><trkpt lat="43.4637088" lon="11.0311757"><ele>223.33333333333331</ele><time>2026-04-18T13:46:59.987Z</time></trkpt><trkpt lat="43.4635371" lon="11.0311914"><ele>223.0</ele><time>2026-04-18T13:47:00.986Z</time></trkpt><trkpt lat="43.4633687" lon="11.0312404"><ele>223.0</ele><time>2026-04-18T13:47:01.986Z</time></trkpt><trkpt lat="43.4632065" lon="11.0313189"><ele>223.0</ele><time>2026-04-18T13:47:02.986Z</time></trkpt><trkpt lat="43.4630559" lon="11.031428"><ele>223.0</ele><time>2026-04-18T13:47:03.988Z</time></trkpt><trkpt lat="43.462911" lon="11.0315651"><ele>225.66666666666666</ele><time>2026-04-18T13:47:04.988Z</time></trkpt><trkpt lat="43.4627742" lon="11.0317302"><ele>228.33333333333331</ele><time>2026-04-18T13:47:05.988Z</time></trkpt><trkpt lat="43.4626462" lon="11.0319092"><ele>231.0</ele><time>2026-04-18T13:47:06.988Z</time></trkpt><trkpt lat="43.4625168" lon="11.0320835"><ele>231.0</ele><time>2026-04-18T13:47:07.988Z</time></trkpt><trkpt lat="43.4623975" lon="11.0322501"><ele>231.0</ele><time>2026-04-18T13:47:08.988Z</time></trkpt><trkpt lat="43.4608512" lon="11.0326694"><ele>246.0</ele><time>2026-04-18T13:47:20.985Z</time></trkpt><trkpt lat="43.4603897" lon="11.0324874"><ele>246.0</ele><time>2026-04-18T13:47:21.988Z</time></trkpt><trkpt lat="43.4602503" lon="11.0324997"><ele>246.0</ele><time>2026-04-18T13:47:22.985Z</time></trkpt><trkpt lat="43.4600826" lon="11.0325294"><ele>246.0</ele><time>2026-04-18T13:47:23.987Z</time></trkpt><trkpt lat="43.4599244" lon="11.0325848"><ele>246.0</ele><time>2026-04-18T13:47:24.989Z</time></trkpt><trkpt lat="43.4597791" lon="11.0326768"><ele>246.0</ele><time>2026-04-18T13:47:25.988Z</time></trkpt><trkpt lat="43.4596456" lon="11.0327768"><ele>246.0</ele><time>2026-04-18T13:47:26.985Z</time></trkpt><trkpt lat="43.4595347" lon="11.0328907"><ele>244.66666666666669</ele><time>2026-04-18T13:47:27.989Z</time></trkpt><trkpt lat="43.4594382" lon="11.0330193"><ele>243.33333333333334</ele><time>2026-04-18T13:47:28.988Z</time></trkpt><trkpt lat="43.4593309" lon="11.0331914"><ele>242.0</ele><time>2026-04-18T13:47:29.989Z</time></trkpt><trkpt lat="43.4592544" lon="11.0333754"><ele>242.0</ele><time>2026-04-18T13:47:30.986Z</time></trkpt><trkpt lat="43.4592216" lon="11.033585"><ele>242.0</ele><time>2026-04-18T13:47:31.988Z</time></trkpt><trkpt lat="43.459177" lon="11.0338638"><ele>242.0</ele><time>2026-04-18T13:47:32.988Z</time></trkpt><trkpt lat="43.4591539" lon="11.0341237"><ele>241.66666666666669</ele><time>2026-04-18T13:47:33.988Z</time></trkpt><trkpt lat="43.4591515" lon="11.0343837"><ele>241.33333333333331</ele><time>2026-04-18T13:47:34.988Z</time></trkpt><trkpt lat="43.459175" lon="11.0346404"><ele>241.0</ele><time>2026-04-18T13:47:35.988Z</time></trkpt><trkpt lat="43.4592054" lon="11.0348974"><ele>241.0</ele><time>2026-04-18T13:47:36.986Z</time></trkpt><trkpt lat="43.4592555" lon="11.035171"><ele>241.0</ele><time>2026-04-18T13:47:37.983Z</time></trkpt><trkpt lat="43.4593199" lon="11.0354441"><ele>241.0</ele><time>2026-04-18T13:47:38.981Z</time></trkpt><trkpt lat="43.459394" lon="11.0357128"><ele>242.66666666666666</ele><time>2026-04-18T13:47:39.987Z</time></trkpt><trkpt lat="43.4594685" lon="11.0359763"><ele>244.33333333333331</ele><time>2026-04-18T13:47:40.987Z</time></trkpt><trkpt lat="43.4595453" lon="11.0362348"><ele>246.0</ele><time>2026-04-18T13:47:41.987Z</time></trkpt><trkpt lat="43.4596241" lon="11.0364964"><ele>250.66666666666669</ele><time>2026-04-18T13:47:42.988Z</time></trkpt><trkpt lat="43.4597061" lon="11.0367641"><ele>255.33333333333334</ele><time>2026-04-18T13:47:43.986Z</time></trkpt><trkpt lat="43.4597877" lon="11.037033"><ele>260.0</ele><time>2026-04-18T13:47:44.988Z</time></trkpt><trkpt lat="43.4598707" lon="11.0372931"><ele>260.0</ele><time>2026-04-18T13:47:45.988Z</time></trkpt><trkpt lat="43.4599514" lon="11.0375507"><ele>260.0</ele><time>2026-04-18T13:47:46.988Z</time></trkpt><trkpt lat="43.4600224" lon="11.0378011"><ele>260.0</ele><time>2026-04-18T13:47:47.988Z</time></trkpt><trkpt lat="43.4600917" lon="11.0380367"><ele>260.0</ele><time>2026-04-18T13:47:48.987Z</time></trkpt><trkpt lat="43.46015" lon="11.0382616"><ele>260.0</ele><time>2026-04-18T13:47:49.987Z</time></trkpt><trkpt lat="43.4602041" lon="11.0384798"><ele>260.0</ele><time>2026-04-18T13:47:50.988Z</time></trkpt><trkpt lat="43.4602419" lon="11.0386786"><ele>259.0</ele><time>2026-04-18T13:47:51.984Z</time></trkpt><trkpt lat="43.4602677" lon="11.0388703"><ele>258.0</ele><time>2026-04-18T13:47:52.988Z</time></trkpt><trkpt lat="43.460281" lon="11.0390486"><ele>257.0</ele><time>2026-04-18T13:47:53.986Z</time></trkpt><trkpt lat="43.4602918" lon="11.0392169"><ele>256.0</ele><time>2026-04-18T13:47:54.988Z</time></trkpt><trkpt lat="43.4602968" lon="11.0393696"><ele>255.99999999999997</ele><time>2026-04-18T13:47:55.988Z</time></trkpt><trkpt lat="43.460291" lon="11.0395103"><ele>256.0</ele><time>2026-04-18T13:47:56.988Z</time></trkpt><trkpt lat="43.4602754" lon="11.039633"><ele>256.0</ele><time>2026-04-18T13:47:57.985Z</time></trkpt><trkpt lat="43.4602487" lon="11.0397312"><ele>256.0</ele><time>2026-04-18T13:47:58.984Z</time></trkpt><trkpt lat="43.4602138" lon="11.0398156"><ele>255.99999999999997</ele><time>2026-04-18T13:47:59.988Z</time></trkpt><trkpt lat="43.4601779" lon="11.039892"><ele>256.0</ele><time>2026-04-18T13:48:00.988Z</time></trkpt><trkpt lat="43.460136" lon="11.0399674"><ele>255.99999999999997</ele><time>2026-04-18T13:48:01.987Z</time></trkpt><trkpt lat="43.4600861" lon="11.040021"><ele>256.0</ele><time>2026-04-18T13:48:02.988Z</time></trkpt><trkpt lat="43.4600261" lon="11.0400494"><ele>256.0</ele><time>2026-04-18T13:48:03.988Z</time></trkpt><trkpt lat="43.4599517" lon="11.0400496"><ele>256.0</ele><time>2026-04-18T13:48:04.986Z</time></trkpt><trkpt lat="43.4598616" lon="11.0400254"><ele>255.99999999999997</ele><time>2026-04-18T13:48:05.983Z</time></trkpt><trkpt lat="43.4597754" lon="11.0399749"><ele>256.0</ele><time>2026-04-18T13:48:06.988Z</time></trkpt><trkpt lat="43.4596868" lon="11.0398966"><ele>255.25</ele><time>2026-04-18T13:48:07.988Z</time></trkpt><trkpt lat="43.4595924" lon="11.0397893"><ele>254.5</ele><time>2026-04-18T13:48:08.987Z</time></trkpt><trkpt lat="43.4595015" lon="11.0396854"><ele>253.75</ele><time>2026-04-18T13:48:09.988Z</time></trkpt><trkpt lat="43.4594068" lon="11.0395886"><ele>253.0</ele><time>2026-04-18T13:48:10.987Z</time></trkpt><trkpt lat="43.4592993" lon="11.0394887"><ele>253.0</ele><time>2026-04-18T13:48:11.988Z</time></trkpt><trkpt lat="43.4591785" lon="11.0394093"><ele>253.0</ele><time>2026-04-18T13:48:12.985Z</time></trkpt><trkpt lat="43.4590524" lon="11.0393438"><ele>253.0</ele><time>2026-04-18T13:48:13.985Z</time></trkpt><trkpt lat="43.4589185" lon="11.0392783"><ele>253.0</ele><time>2026-04-18T13:48:14.988Z</time></trkpt><trkpt lat="43.4587911" lon="11.0392114"><ele>249.75</ele><time>2026-04-18T13:48:15.982Z</time></trkpt><trkpt lat="43.4586696" lon="11.0391279"><ele>246.5</ele><time>2026-04-18T13:48:16.988Z</time></trkpt><trkpt lat="43.4585446" lon="11.0390343"><ele>243.25</ele><time>2026-04-18T13:48:17.989Z</time></trkpt><trkpt lat="43.4584234" lon="11.0389284"><ele>240.0</ele><time>2026-04-18T13:48:18.989Z</time></trkpt><trkpt lat="43.4583064" lon="11.0388252"><ele>240.0</ele><time>2026-04-18T13:48:19.985Z</time></trkpt><trkpt lat="43.4581871" lon="11.0387296"><ele>240.0</ele><time>2026-04-18T13:48:20.986Z</time></trkpt><trkpt lat="43.4580619" lon="11.038636"><ele>240.0</ele><time>2026-04-18T13:48:21.988Z</time></trkpt><trkpt lat="43.4579261" lon="11.0385637"><ele>240.0</ele><time>2026-04-18T13:48:22.987Z</time></trkpt><trkpt lat="43.4577699" lon="11.0385112"><ele>240.25</ele><time>2026-04-18T13:48:23.988Z</time></trkpt><trkpt lat="43.4576203" lon="11.0384654"><ele>240.5</ele><time>2026-04-18T13:48:24.989Z</time></trkpt><trkpt lat="43.4574745" lon="11.038428"><ele>240.75</ele><time>2026-04-18T13:48:25.988Z</time></trkpt><trkpt lat="43.457332" lon="11.0383997"><ele>241.0</ele><time>2026-04-18T13:48:26.987Z</time></trkpt><trkpt lat="43.4571872" lon="11.0383888"><ele>240.0</ele><time>2026-04-18T13:48:27.988Z</time></trkpt><trkpt lat="43.4570342" lon="11.0384051"><ele>239.0</ele><time>2026-04-18T13:48:28.986Z</time></trkpt><trkpt lat="43.4568836" lon="11.0384451"><ele>238.0</ele><time>2026-04-18T13:48:29.988Z</time></trkpt><trkpt lat="43.4567282" lon="11.0385014"><ele>238.0</ele><time>2026-04-18T13:48:30.987Z</time></trkpt><trkpt lat="43.4565706" lon="11.0385616"><ele>238.0</ele><time>2026-04-18T13:48:31.989Z</time></trkpt><trkpt lat="43.4564135" lon="11.0386075"><ele>238.0</ele><time>2026-04-18T13:48:32.982Z</time></trkpt><trkpt lat="43.456255" lon="11.0386268"><ele>235.0</ele><time>2026-04-18T13:48:33.988Z</time></trkpt><trkpt lat="43.4560816" lon="11.0386016"><ele>232.0</ele><time>2026-04-18T13:48:34.987Z</time></trkpt><trkpt lat="43.4558971" lon="11.0385396"><ele>229.0</ele><time>2026-04-18T13:48:35.985Z</time></trkpt><trkpt lat="43.455708" lon="11.0384494"><ele>229.0</ele><time>2026-04-18T13:48:36.988Z</time></trkpt><trkpt lat="43.4555082" lon="11.0383456"><ele>229.0</ele><time>2026-04-18T13:48:37.988Z</time></trkpt><trkpt lat="43.4553133" lon="11.0382504"><ele>229.0</ele><time>2026-04-18T13:48:38.985Z</time></trkpt><trkpt lat="43.4551274" lon="11.03816"><ele>227.0</ele><time>2026-04-18T13:48:39.985Z</time></trkpt><trkpt lat="43.4549503" lon="11.038082"><ele>225.0</ele><time>2026-04-18T13:48:40.987Z</time></trkpt><trkpt lat="43.454791" lon="11.0380167"><ele>223.0</ele><time>2026-04-18T13:48:41.986Z</time></trkpt><trkpt lat="43.454654" lon="11.0379525"><ele>223.0</ele><time>2026-04-18T13:48:42.988Z</time></trkpt><trkpt lat="43.4545376" lon="11.0378873"><ele>223.0</ele><time>2026-04-18T13:48:43.988Z</time></trkpt><trkpt lat="43.4544399" lon="11.0378151"><ele>223.0</ele><time>2026-04-18T13:48:44.988Z</time></trkpt><trkpt lat="43.4543644" lon="11.0377176"><ele>223.0</ele><time>2026-04-18T13:48:45.983Z</time></trkpt><trkpt lat="43.454308" lon="11.0376022"><ele>223.0</ele><time>2026-04-18T13:48:46.986Z</time></trkpt><trkpt lat="43.4542717" lon="11.0374657"><ele>222.0</ele><time>2026-04-18T13:48:47.987Z</time></trkpt><trkpt lat="43.4542639" lon="11.0373168"><ele>221.0</ele><time>2026-04-18T13:48:48.986Z</time></trkpt><trkpt lat="43.4542801" lon="11.0371702"><ele>220.0</ele><time>2026-04-18T13:48:49.988Z</time></trkpt><trkpt lat="43.4543289" lon="11.037032"><ele>219.0</ele><time>2026-04-18T13:48:50.988Z</time></trkpt><trkpt lat="43.4544015" lon="11.0369138"><ele>218.0</ele><time>2026-04-18T13:48:51.983Z</time></trkpt><trkpt lat="43.4545045" lon="11.0368269"><ele>218.0</ele><time>2026-04-18T13:48:52.985Z</time></trkpt><trkpt lat="43.4546475" lon="11.0367426"><ele>218.0</ele><time>2026-04-18T13:48:53.988Z</time></trkpt><trkpt lat="43.4548016" lon="11.0366573"><ele>218.0</ele><time>2026-04-18T13:48:54.983Z</time></trkpt><trkpt lat="43.4549782" lon="11.0365519"><ele>217.0</ele><time>2026-04-18T13:48:55.986Z</time></trkpt><trkpt lat="43.4551504" lon="11.0364554"><ele>216.0</ele><time>2026-04-18T13:48:56.986Z</time></trkpt><trkpt lat="43.455317" lon="11.0363631"><ele>215.0</ele><time>2026-04-18T13:48:57.986Z</time></trkpt><trkpt lat="43.4554807" lon="11.0362716"><ele>215.0</ele><time>2026-04-18T13:48:58.986Z</time></trkpt><trkpt lat="43.4556337" lon="11.0361854"><ele>215.0</ele><time>2026-04-18T13:48:59.985Z</time></trkpt><trkpt lat="43.455787" lon="11.0361004"><ele>215.0</ele><time>2026-04-18T13:49:00.985Z</time></trkpt><trkpt lat="43.455932" lon="11.0360173"><ele>215.0</ele><time>2026-04-18T13:49:01.986Z</time></trkpt><trkpt lat="43.4560667" lon="11.0359389"><ele>215.0</ele><time>2026-04-18T13:49:02.983Z</time></trkpt><trkpt lat="43.4562021" lon="11.0358631"><ele>215.0</ele><time>2026-04-18T13:49:03.982Z</time></trkpt><trkpt lat="43.4563309" lon="11.0357895"><ele>215.0</ele><time>2026-04-18T13:49:04.981Z</time></trkpt><trkpt lat="43.4564551" lon="11.0357202"><ele>215.5</ele><time>2026-04-18T13:49:05.988Z</time></trkpt><trkpt lat="43.4565632" lon="11.0356591"><ele>216.0</ele><time>2026-04-18T13:49:06.983Z</time></trkpt><trkpt lat="43.4566598" lon="11.0355762"><ele>216.5</ele><time>2026-04-18T13:49:07.988Z</time></trkpt><trkpt lat="43.4567356" lon="11.0354653"><ele>217.0</ele><time>2026-04-18T13:49:08.983Z</time></trkpt><trkpt lat="43.456785" lon="11.0353316"><ele>217.0</ele><time>2026-04-18T13:49:09.985Z</time></trkpt><trkpt lat="43.4568037" lon="11.0351863"><ele>217.0</ele><time>2026-04-18T13:49:10.988Z</time></trkpt><trkpt lat="43.4567855" lon="11.0350423"><ele>217.0</ele><time>2026-04-18T13:49:11.985Z</time></trkpt><trkpt lat="43.4567429" lon="11.0349129"><ele>217.0</ele><time>2026-04-18T13:49:12.987Z</time></trkpt><trkpt lat="43.4566691" lon="11.0348066"><ele>217.0</ele><time>2026-04-18T13:49:13.986Z</time></trkpt><trkpt lat="43.45657" lon="11.0347288"><ele>218.75</ele><time>2026-04-18T13:49:14.988Z</time></trkpt><trkpt lat="43.4564581" lon="11.0346939"><ele>220.5</ele><time>2026-04-18T13:49:15.988Z</time></trkpt><trkpt lat="43.4563447" lon="11.0347037"><ele>222.25</ele><time>2026-04-18T13:49:16.988Z</time></trkpt><trkpt lat="43.4562283" lon="11.0347556"><ele>224.0</ele><time>2026-04-18T13:49:17.987Z</time></trkpt><trkpt lat="43.4561085" lon="11.0348095"><ele>224.0</ele><time>2026-04-18T13:49:18.985Z</time></trkpt><trkpt lat="43.4559926" lon="11.034815"><ele>224.0</ele><time>2026-04-18T13:49:19.983Z</time></trkpt><trkpt lat="43.4558839" lon="11.0347813"><ele>224.0</ele><time>2026-04-18T13:49:20.985Z</time></trkpt><trkpt lat="43.4557658" lon="11.0346972"><ele>224.0</ele><time>2026-04-18T13:49:21.984Z</time></trkpt><trkpt lat="43.4556453" lon="11.0345629"><ele>224.0</ele><time>2026-04-18T13:49:22.988Z</time></trkpt><trkpt lat="43.4555322" lon="11.0344046"><ele>224.0</ele><time>2026-04-18T13:49:23.987Z</time></trkpt><trkpt lat="43.4554164" lon="11.0342339"><ele>224.0</ele><time>2026-04-18T13:49:24.988Z</time></trkpt><trkpt lat="43.455314" lon="11.0340803"><ele>226.25</ele><time>2026-04-18T13:49:25.986Z</time></trkpt><trkpt lat="43.455225" lon="11.0339323"><ele>228.5</ele><time>2026-04-18T13:49:26.986Z</time></trkpt><trkpt lat="43.4551195" lon="11.0338097"><ele>230.75</ele><time>2026-04-18T13:49:27.986Z</time></trkpt><trkpt lat="43.4550066" lon="11.0337304"><ele>233.0</ele><time>2026-04-18T13:49:28.987Z</time></trkpt><trkpt lat="43.4548819" lon="11.0336882"><ele>233.0</ele><time>2026-04-18T13:49:29.988Z</time></trkpt><trkpt lat="43.4547432" lon="11.0337053"><ele>233.0</ele><time>2026-04-18T13:49:30.988Z</time></trkpt><trkpt lat="43.4546037" lon="11.0337601"><ele>233.0</ele><time>2026-04-18T13:49:31.986Z</time></trkpt><trkpt lat="43.4544525" lon="11.0338639"><ele>234.66666666666669</ele><time>2026-04-18T13:49:32.984Z</time></trkpt><trkpt lat="43.4543021" lon="11.0339766"><ele>236.33333333333331</ele><time>2026-04-18T13:49:33.989Z</time></trkpt><trkpt lat="43.4541642" lon="11.0340755"><ele>238.0</ele><time>2026-04-18T13:49:34.986Z</time></trkpt><trkpt lat="43.4540373" lon="11.0341679"><ele>235.75</ele><time>2026-04-18T13:49:35.988Z</time></trkpt><trkpt lat="43.4539163" lon="11.0342382"><ele>233.5</ele><time>2026-04-18T13:49:36.985Z</time></trkpt><trkpt lat="43.4537997" lon="11.0342711"><ele>231.25</ele><time>2026-04-18T13:49:37.988Z</time></trkpt><trkpt lat="43.4536824" lon="11.0342526"><ele>229.0</ele><time>2026-04-18T13:49:38.982Z</time></trkpt><trkpt lat="43.4535793" lon="11.0341978"><ele>230.5</ele><time>2026-04-18T13:49:39.986Z</time></trkpt><trkpt lat="43.4534979" lon="11.0340862"><ele>232.0</ele><time>2026-04-18T13:49:40.984Z</time></trkpt><trkpt lat="43.453443" lon="11.0339524"><ele>233.5</ele><time>2026-04-18T13:49:41.986Z</time></trkpt><trkpt lat="43.453413" lon="11.0337752"><ele>235.0</ele><time>2026-04-18T13:49:42.985Z</time></trkpt><trkpt lat="43.4534013" lon="11.0335456"><ele>237.33333333333331</ele><time>2026-04-18T13:49:43.987Z</time></trkpt><trkpt lat="43.4533983" lon="11.0332828"><ele>239.66666666666669</ele><time>2026-04-18T13:49:44.984Z</time></trkpt><trkpt lat="43.4533913" lon="11.0329952"><ele>242.0</ele><time>2026-04-18T13:49:45.985Z</time></trkpt><trkpt lat="43.4533886" lon="11.0327011"><ele>244.0</ele><time>2026-04-18T13:49:46.987Z</time></trkpt><trkpt lat="43.4533793" lon="11.0324203"><ele>246.0</ele><time>2026-04-18T13:49:47.983Z</time></trkpt><trkpt lat="43.4533589" lon="11.032128"><ele>248.0</ele><time>2026-04-18T13:49:48.985Z</time></trkpt><trkpt lat="43.453319" lon="11.0318078"><ele>251.0</ele><time>2026-04-18T13:49:49.987Z</time></trkpt><trkpt lat="43.4532789" lon="11.0315003"><ele>254.0</ele><time>2026-04-18T13:49:50.988Z</time></trkpt><trkpt lat="43.4532369" lon="11.0312288"><ele>257.0</ele><time>2026-04-18T13:49:51.982Z</time></trkpt><trkpt lat="43.4531991" lon="11.0309674"><ele>259.33333333333337</ele><time>2026-04-18T13:49:52.988Z</time></trkpt><trkpt lat="43.4531598" lon="11.0307191"><ele>261.6666666666667</ele><time>2026-04-18T13:49:53.987Z</time></trkpt><trkpt lat="43.4531252" lon="11.0304926"><ele>264.0</ele><time>2026-04-18T13:49:54.985Z</time></trkpt><trkpt lat="43.4530924" lon="11.0302809"><ele>264.0</ele><time>2026-04-18T13:49:55.985Z</time></trkpt><trkpt lat="43.4530622" lon="11.0300734"><ele>264.0</ele><time>2026-04-18T13:49:56.985Z</time></trkpt><trkpt lat="43.4530542" lon="11.0298627"><ele>264.0</ele><time>2026-04-18T13:49:57.984Z</time></trkpt><trkpt lat="43.4530726" lon="11.0296373"><ele>264.3333333333333</ele><time>2026-04-18T13:49:58.984Z</time></trkpt><trkpt lat="43.4531284" lon="11.0293789"><ele>264.66666666666663</ele><time>2026-04-18T13:49:59.982Z</time></trkpt><trkpt lat="43.4532064" lon="11.029112"><ele>265.0</ele><time>2026-04-18T13:50:00.983Z</time></trkpt><trkpt lat="43.4532817" lon="11.0288675"><ele>265.3333333333333</ele><time>2026-04-18T13:50:01.987Z</time></trkpt><trkpt lat="43.453349" lon="11.02863"><ele>265.6666666666667</ele><time>2026-04-18T13:50:02.988Z</time></trkpt><trkpt lat="43.453407" lon="11.0284121"><ele>266.0</ele><time>2026-04-18T13:50:03.987Z</time></trkpt><trkpt lat="43.4534717" lon="11.0282111"><ele>266.33333333333337</ele><time>2026-04-18T13:50:04.988Z</time></trkpt><trkpt lat="43.4535484" lon="11.0280165"><ele>266.6666666666667</ele><time>2026-04-18T13:50:05.982Z</time></trkpt><trkpt lat="43.4536567" lon="11.0278302"><ele>267.0</ele><time>2026-04-18T13:50:06.985Z</time></trkpt><trkpt lat="43.4537803" lon="11.0276605"><ele>268.3333333333333</ele><time>2026-04-18T13:50:07.986Z</time></trkpt><trkpt lat="43.4538946" lon="11.0275099"><ele>269.66666666666663</ele><time>2026-04-18T13:50:08.986Z</time></trkpt><trkpt lat="43.4540012" lon="11.027371"><ele>271.0</ele><time>2026-04-18T13:50:09.987Z</time></trkpt><trkpt lat="43.4541258" lon="11.0272541"><ele>271.0</ele><time>2026-04-18T13:50:10.988Z</time></trkpt><trkpt lat="43.4542614" lon="11.0271751"><ele>271.0</ele><time>2026-04-18T13:50:11.985Z</time></trkpt><trkpt lat="43.4544137" lon="11.0271314"><ele>271.0</ele><time>2026-04-18T13:50:12.984Z</time></trkpt><trkpt lat="43.4545813" lon="11.0271295"><ele>270.66666666666663</ele><time>2026-04-18T13:50:13.989Z</time></trkpt><trkpt lat="43.4547436" lon="11.0271639"><ele>270.3333333333333</ele><time>2026-04-18T13:50:14.988Z</time></trkpt><trkpt lat="43.4548954" lon="11.0272156"><ele>270.0</ele><time>2026-04-18T13:50:15.986Z</time></trkpt><trkpt lat="43.4550253" lon="11.0272413"><ele>270.0</ele><time>2026-04-18T13:50:16.988Z</time></trkpt><trkpt lat="43.4551395" lon="11.0272208"><ele>270.0</ele><time>2026-04-18T13:50:17.988Z</time></trkpt><trkpt lat="43.4552385" lon="11.0271649"><ele>270.0</ele><time>2026-04-18T13:50:18.987Z</time></trkpt><trkpt lat="43.4553106" lon="11.0270708"><ele>270.0</ele><time>2026-04-18T13:50:19.983Z</time></trkpt><trkpt lat="43.4553469" lon="11.0269497"><ele>270.0</ele><time>2026-04-18T13:50:20.985Z</time></trkpt><trkpt lat="43.4553507" lon="11.0268073"><ele>270.0</ele><time>2026-04-18T13:50:21.984Z</time></trkpt><trkpt lat="43.455324" lon="11.0266547"><ele>270.0</ele><time>2026-04-18T13:50:22.989Z</time></trkpt><trkpt lat="43.4552756" lon="11.0265196"><ele>270.0</ele><time>2026-04-18T13:50:23.986Z</time></trkpt><trkpt lat="43.4552127" lon="11.0264043"><ele>270.0</ele><time>2026-04-18T13:50:24.988Z</time></trkpt><trkpt lat="43.4551153" lon="11.0263209"><ele>270.0</ele><time>2026-04-18T13:50:25.986Z</time></trkpt><trkpt lat="43.4549917" lon="11.0262682"><ele>274.0</ele><time>2026-04-18T13:50:26.986Z</time></trkpt><trkpt lat="43.4548287" lon="11.0262455"><ele>278.0</ele><time>2026-04-18T13:50:27.982Z</time></trkpt><trkpt lat="43.4546604" lon="11.0262215"><ele>282.0</ele><time>2026-04-18T13:50:28.986Z</time></trkpt><trkpt lat="43.4544921" lon="11.0262111"><ele>282.75</ele><time>2026-04-18T13:50:29.987Z</time></trkpt><trkpt lat="43.4543401" lon="11.0262028"><ele>283.5</ele><time>2026-04-18T13:50:30.983Z</time></trkpt><trkpt lat="43.4541986" lon="11.0261887"><ele>284.25</ele><time>2026-04-18T13:50:31.984Z</time></trkpt><trkpt lat="43.4540703" lon="11.0261751"><ele>285.0</ele><time>2026-04-18T13:50:32.989Z</time></trkpt><trkpt lat="43.4539557" lon="11.026125"><ele>285.0</ele><time>2026-04-18T13:50:33.986Z</time></trkpt><trkpt lat="43.4538391" lon="11.0260294"><ele>285.0</ele><time>2026-04-18T13:50:34.983Z</time></trkpt><trkpt lat="43.4537162" lon="11.0259064"><ele>285.0</ele><time>2026-04-18T13:50:35.985Z</time></trkpt><trkpt lat="43.4536512" lon="11.0256981"><ele>285.5</ele><time>2026-04-18T13:50:36.984Z</time></trkpt><trkpt lat="43.4535854" lon="11.0255397"><ele>286.0</ele><time>2026-04-18T13:50:37.986Z</time></trkpt><trkpt lat="43.4535606" lon="11.0253603"><ele>286.5</ele><time>2026-04-18T13:50:38.984Z</time></trkpt><trkpt lat="43.4535679" lon="11.0251256"><ele>287.0</ele><time>2026-04-18T13:50:39.983Z</time></trkpt><trkpt lat="43.4535812" lon="11.0248988"><ele>288.75</ele><time>2026-04-18T13:50:40.984Z</time></trkpt><trkpt lat="43.4535943" lon="11.0246886"><ele>290.5</ele><time>2026-04-18T13:50:41.988Z</time></trkpt><trkpt lat="43.4536008" lon="11.0244986"><ele>292.25</ele><time>2026-04-18T13:50:42.988Z</time></trkpt><trkpt lat="43.4535822" lon="11.0243287"><ele>294.0</ele><time>2026-04-18T13:50:43.983Z</time></trkpt><trkpt lat="43.4535209" lon="11.0241678"><ele>297.3333333333333</ele><time>2026-04-18T13:50:44.987Z</time></trkpt><trkpt lat="43.4534165" lon="11.0239947"><ele>300.66666666666663</ele><time>2026-04-18T13:50:45.987Z</time></trkpt><trkpt lat="43.4532834" lon="11.0238138"><ele>304.0</ele><time>2026-04-18T13:50:46.984Z</time></trkpt><trkpt lat="43.4531379" lon="11.023634"><ele>304.0</ele><time>2026-04-18T13:50:47.985Z</time></trkpt><trkpt lat="43.4530102" lon="11.02347"><ele>304.0</ele><time>2026-04-18T13:50:48.986Z</time></trkpt><trkpt lat="43.4528981" lon="11.0233301"><ele>304.0</ele><time>2026-04-18T13:50:49.987Z</time></trkpt><trkpt lat="43.4527932" lon="11.0232257"><ele>306.25</ele><time>2026-04-18T13:50:50.982Z</time></trkpt><trkpt lat="43.4526739" lon="11.0231608"><ele>308.5</ele><time>2026-04-18T13:50:51.983Z</time></trkpt><trkpt lat="43.4525344" lon="11.0231508"><ele>310.75</ele><time>2026-04-18T13:50:52.986Z</time></trkpt><trkpt lat="43.452373" lon="11.0231833"><ele>313.0</ele><time>2026-04-18T13:50:53.985Z</time></trkpt><trkpt lat="43.4522033" lon="11.0232275"><ele>317.3333333333333</ele><time>2026-04-18T13:50:54.985Z</time></trkpt><trkpt lat="43.4520437" lon="11.0232543"><ele>321.6666666666667</ele><time>2026-04-18T13:50:55.985Z</time></trkpt><trkpt lat="43.4518763" lon="11.0232587"><ele>326.0</ele><time>2026-04-18T13:50:56.986Z</time></trkpt><trkpt lat="43.4516849" lon="11.0232269"><ele>326.0</ele><time>2026-04-18T13:50:57.985Z</time></trkpt><trkpt lat="43.4514914" lon="11.0231767"><ele>326.0</ele><time>2026-04-18T13:50:58.984Z</time></trkpt><trkpt lat="43.4513183" lon="11.0231279"><ele>326.0</ele><time>2026-04-18T13:50:59.982Z</time></trkpt><trkpt lat="43.451146" lon="11.0230746"><ele>325.6666666666667</ele><time>2026-04-18T13:51:00.985Z</time></trkpt><trkpt lat="43.4509789" lon="11.0230062"><ele>325.3333333333333</ele><time>2026-04-18T13:51:01.983Z</time></trkpt><trkpt lat="43.4508031" lon="11.0228991"><ele>325.0</ele><time>2026-04-18T13:51:02.986Z</time></trkpt><trkpt lat="43.4506182" lon="11.022755"><ele>323.0</ele><time>2026-04-18T13:51:03.986Z</time></trkpt><trkpt lat="43.4504309" lon="11.022601"><ele>321.0</ele><time>2026-04-18T13:51:04.985Z</time></trkpt><trkpt lat="43.4502458" lon="11.0224369"><ele>319.0</ele><time>2026-04-18T13:51:05.983Z</time></trkpt><trkpt lat="43.4500712" lon="11.0222912"><ele>322.66666666666663</ele><time>2026-04-18T13:51:06.987Z</time></trkpt><trkpt lat="43.4499014" lon="11.0221632"><ele>326.3333333333333</ele><time>2026-04-18T13:51:07.987Z</time></trkpt><trkpt lat="43.4497223" lon="11.0220335"><ele>330.0</ele><time>2026-04-18T13:51:08.986Z</time></trkpt><trkpt lat="43.4495359" lon="11.0219158"><ele>330.0</ele><time>2026-04-18T13:51:09.985Z</time></trkpt><trkpt lat="43.4493609" lon="11.0218116"><ele>330.0</ele><time>2026-04-18T13:51:10.988Z</time></trkpt><trkpt lat="43.4491915" lon="11.0217241"><ele>330.0</ele><time>2026-04-18T13:51:11.986Z</time></trkpt><trkpt lat="43.4490358" lon="11.0216428"><ele>332.3333333333333</ele><time>2026-04-18T13:51:12.985Z</time></trkpt><trkpt lat="43.4488877" lon="11.021554"><ele>334.66666666666663</ele><time>2026-04-18T13:51:13.987Z</time></trkpt><trkpt lat="43.4487285" lon="11.0214449"><ele>337.0</ele><time>2026-04-18T13:51:14.985Z</time></trkpt><trkpt lat="43.4485893" lon="11.0213279"><ele>337.0</ele><time>2026-04-18T13:51:15.986Z</time></trkpt><trkpt lat="43.4484586" lon="11.0212097"><ele>337.0</ele><time>2026-04-18T13:51:16.984Z</time></trkpt><trkpt lat="43.4483258" lon="11.0211123"><ele>337.0</ele><time>2026-04-18T13:51:17.983Z</time></trkpt><trkpt lat="43.4481749" lon="11.0210552"><ele>337.0</ele><time>2026-04-18T13:51:18.984Z</time></trkpt><trkpt lat="43.448006" lon="11.0210187"><ele>337.0</ele><time>2026-04-18T13:51:19.985Z</time></trkpt><trkpt lat="43.4478297" lon="11.0210167"><ele>337.0</ele><time>2026-04-18T13:51:20.985Z</time></trkpt><trkpt lat="43.4476615" lon="11.0210019"><ele>336.3333333333333</ele><time>2026-04-18T13:51:21.985Z</time></trkpt><trkpt lat="43.4474828" lon="11.0209661"><ele>335.6666666666667</ele><time>2026-04-18T13:51:22.986Z</time></trkpt><trkpt lat="43.4472824" lon="11.0208863"><ele>335.0</ele><time>2026-04-18T13:51:23.988Z</time></trkpt><trkpt lat="43.4470886" lon="11.0207993"><ele>341.33333333333337</ele><time>2026-04-18T13:51:24.984Z</time></trkpt><trkpt lat="43.4469092" lon="11.0207136"><ele>347.6666666666667</ele><time>2026-04-18T13:51:25.986Z</time></trkpt><trkpt lat="43.4467166" lon="11.0206509"><ele>354.0</ele><time>2026-04-18T13:51:26.989Z</time></trkpt><trkpt lat="43.4465081" lon="11.0206228"><ele>354.0</ele><time>2026-04-18T13:51:27.986Z</time></trkpt><trkpt lat="43.4463107" lon="11.0206198"><ele>354.0</ele><time>2026-04-18T13:51:28.988Z</time></trkpt><trkpt lat="43.4461216" lon="11.0206093"><ele>354.0</ele><time>2026-04-18T13:51:29.985Z</time></trkpt><trkpt lat="43.4459465" lon="11.0205494"><ele>354.6666666666667</ele><time>2026-04-18T13:51:30.989Z</time></trkpt><trkpt lat="43.445779" lon="11.0204695"><ele>355.33333333333337</ele><time>2026-04-18T13:51:31.987Z</time></trkpt><trkpt lat="43.4456247" lon="11.0203981"><ele>356.0</ele><time>2026-04-18T13:51:32.981Z</time></trkpt><trkpt lat="43.445455" lon="11.0203574"><ele>354.33333333333337</ele><time>2026-04-18T13:51:33.985Z</time></trkpt><trkpt lat="43.4452601" lon="11.0203548"><ele>352.6666666666667</ele><time>2026-04-18T13:51:34.987Z</time></trkpt><trkpt lat="43.4450747" lon="11.0203687"><ele>351.0</ele><time>2026-04-18T13:51:35.988Z</time></trkpt><trkpt lat="43.4448988" lon="11.0203782"><ele>351.0</ele><time>2026-04-18T13:51:36.988Z</time></trkpt><trkpt lat="43.444732" lon="11.0203742"><ele>351.0</ele><time>2026-04-18T13:51:37.986Z</time></trkpt><trkpt lat="43.4445602" lon="11.0203304"><ele>351.0</ele><time>2026-04-18T13:51:38.983Z</time></trkpt><trkpt lat="43.4443865" lon="11.020261"><ele>351.0</ele><time>2026-04-18T13:51:39.983Z</time></trkpt><trkpt lat="43.4442343" lon="11.0201866"><ele>351.0</ele><time>2026-04-18T13:51:40.985Z</time></trkpt><trkpt lat="43.4440788" lon="11.0201273"><ele>351.0</ele><time>2026-04-18T13:51:41.984Z</time></trkpt><trkpt lat="43.4439267" lon="11.0201065"><ele>350.0</ele><time>2026-04-18T13:51:42.984Z</time></trkpt><trkpt lat="43.4437436" lon="11.0201252"><ele>349.0</ele><time>2026-04-18T13:51:43.986Z</time></trkpt><trkpt lat="43.4435623" lon="11.0201712"><ele>348.0</ele><time>2026-04-18T13:51:44.983Z</time></trkpt><trkpt lat="43.4434032" lon="11.0202121"><ele>348.0</ele><time>2026-04-18T13:51:45.986Z</time></trkpt><trkpt lat="43.4432625" lon="11.0202396"><ele>348.0</ele><time>2026-04-18T13:51:46.984Z</time></trkpt><trkpt lat="43.4431301" lon="11.0202408"><ele>348.0</ele><time>2026-04-18T13:51:47.987Z</time></trkpt><trkpt lat="43.4429916" lon="11.0201946"><ele>348.0</ele><time>2026-04-18T13:51:48.986Z</time></trkpt><trkpt lat="43.44285" lon="11.0200918"><ele>349.5</ele><time>2026-04-18T13:51:49.984Z</time></trkpt><trkpt lat="43.4427217" lon="11.0199736"><ele>351.0</ele><time>2026-04-18T13:51:50.985Z</time></trkpt><trkpt lat="43.4426077" lon="11.0198488"><ele>352.5</ele><time>2026-04-18T13:51:51.983Z</time></trkpt><trkpt lat="43.4425197" lon="11.0196999"><ele>354.0</ele><time>2026-04-18T13:51:52.982Z</time></trkpt><trkpt lat="43.4424512" lon="11.0195103"><ele>354.0</ele><time>2026-04-18T13:51:53.988Z</time></trkpt><trkpt lat="43.4424058" lon="11.0192866"><ele>354.0</ele><time>2026-04-18T13:51:54.983Z</time></trkpt><trkpt lat="43.4423644" lon="11.0190653"><ele>354.0</ele><time>2026-04-18T13:51:55.985Z</time></trkpt><trkpt lat="43.4423262" lon="11.0188624"><ele>357.3333333333333</ele><time>2026-04-18T13:51:56.988Z</time></trkpt><trkpt lat="43.4422848" lon="11.0186658"><ele>360.66666666666663</ele><time>2026-04-18T13:51:57.988Z</time></trkpt><trkpt lat="43.442221" lon="11.0184774"><ele>364.0</ele><time>2026-04-18T13:51:58.987Z</time></trkpt><trkpt lat="43.4421342" lon="11.018304"><ele>366.0</ele><time>2026-04-18T13:51:59.981Z</time></trkpt><trkpt lat="43.4420248" lon="11.0181456"><ele>368.0</ele><time>2026-04-18T13:52:00.98Z</time></trkpt><trkpt lat="43.4418866" lon="11.0180028"><ele>370.0</ele><time>2026-04-18T13:52:01.987Z</time></trkpt><trkpt lat="43.4417362" lon="11.0178691"><ele>370.0</ele><time>2026-04-18T13:52:02.985Z</time></trkpt><trkpt lat="43.4415906" lon="11.0177448"><ele>370.0</ele><time>2026-04-18T13:52:03.988Z</time></trkpt><trkpt lat="43.4414482" lon="11.0176174"><ele>370.0</ele><time>2026-04-18T13:52:04.983Z</time></trkpt><trkpt lat="43.4413111" lon="11.0174989"><ele>371.0</ele><time>2026-04-18T13:52:05.982Z</time></trkpt><trkpt lat="43.441176" lon="11.017382"><ele>372.0</ele><time>2026-04-18T13:52:06.985Z</time></trkpt><trkpt lat="43.441046" lon="11.0172693"><ele>373.0</ele><time>2026-04-18T13:52:07.985Z</time></trkpt><trkpt lat="43.4409194" lon="11.0171587"><ele>373.0</ele><time>2026-04-18T13:52:08.987Z</time></trkpt><trkpt lat="43.4407893" lon="11.017054"><ele>373.0</ele><time>2026-04-18T13:52:09.985Z</time></trkpt><trkpt lat="43.4406623" lon="11.0169478"><ele>373.0</ele><time>2026-04-18T13:52:10.986Z</time></trkpt><trkpt lat="43.4405404" lon="11.0168534"><ele>373.0</ele><time>2026-04-18T13:52:11.984Z</time></trkpt><trkpt lat="43.4404168" lon="11.016782"><ele>370.5</ele><time>2026-04-18T13:52:12.988Z</time></trkpt><trkpt lat="43.4402861" lon="11.0167434"><ele>368.0</ele><time>2026-04-18T13:52:13.982Z</time></trkpt><trkpt lat="43.4401479" lon="11.016724"><ele>365.5</ele><time>2026-04-18T13:52:14.988Z</time></trkpt><trkpt lat="43.4399911" lon="11.0167255"><ele>363.0</ele><time>2026-04-18T13:52:15.982Z</time></trkpt><trkpt lat="43.439841" lon="11.0167164"><ele>363.0</ele><time>2026-04-18T13:52:16.985Z</time></trkpt><trkpt lat="43.4396795" lon="11.0167193"><ele>363.0</ele><time>2026-04-18T13:52:17.987Z</time></trkpt><trkpt lat="43.4395222" lon="11.0167279"><ele>363.0</ele><time>2026-04-18T13:52:18.984Z</time></trkpt><trkpt lat="43.4393656" lon="11.0167332"><ele>360.3333333333333</ele><time>2026-04-18T13:52:19.979Z</time></trkpt><trkpt lat="43.4392092" lon="11.0167417"><ele>357.66666666666663</ele><time>2026-04-18T13:52:20.98Z</time></trkpt><trkpt lat="43.4390462" lon="11.016746"><ele>355.0</ele><time>2026-04-18T13:52:21.986Z</time></trkpt><trkpt lat="43.438882" lon="11.0167513"><ele>353.66666666666663</ele><time>2026-04-18T13:52:22.983Z</time></trkpt><trkpt lat="43.4387181" lon="11.016754"><ele>352.3333333333333</ele><time>2026-04-18T13:52:23.982Z</time></trkpt><trkpt lat="43.4385505" lon="11.0167593"><ele>351.0</ele><time>2026-04-18T13:52:24.982Z</time></trkpt><trkpt lat="43.438385" lon="11.0167619"><ele>351.0</ele><time>2026-04-18T13:52:25.981Z</time></trkpt><trkpt lat="43.4382222" lon="11.0167553"><ele>351.0</ele><time>2026-04-18T13:52:26.985Z</time></trkpt><trkpt lat="43.4380658" lon="11.0167668"><ele>351.0</ele><time>2026-04-18T13:52:27.98Z</time></trkpt><trkpt lat="43.4378958" lon="11.0168138"><ele>350.6666666666667</ele><time>2026-04-18T13:52:28.983Z</time></trkpt><trkpt lat="43.4377217" lon="11.0168983"><ele>350.33333333333337</ele><time>2026-04-18T13:52:29.981Z</time></trkpt><trkpt lat="43.4375354" lon="11.0170241"><ele>350.0</ele><time>2026-04-18T13:52:30.982Z</time></trkpt><trkpt lat="43.4373297" lon="11.0171541"><ele>349.0</ele><time>2026-04-18T13:52:31.982Z</time></trkpt><trkpt lat="43.437121" lon="11.017271"><ele>348.0</ele><time>2026-04-18T13:52:32.988Z</time></trkpt><trkpt lat="43.4368965" lon="11.0173972"><ele>347.6666666666667</ele><time>2026-04-18T13:52:33.988Z</time></trkpt><trkpt lat="43.4366974" lon="11.017514"><ele>347.33333333333337</ele><time>2026-04-18T13:52:34.985Z</time></trkpt><trkpt lat="43.436507" lon="11.0176259"><ele>347.0</ele><time>2026-04-18T13:52:35.988Z</time></trkpt><trkpt lat="43.4363262" lon="11.017738"><ele>347.6666666666667</ele><time>2026-04-18T13:52:36.988Z</time></trkpt><trkpt lat="43.4361576" lon="11.017843"><ele>348.3333333333333</ele><time>2026-04-18T13:52:37.986Z</time></trkpt><trkpt lat="43.436" lon="11.0179393"><ele>349.0</ele><time>2026-04-18T13:52:38.988Z</time></trkpt><trkpt lat="43.4358598" lon="11.0180384"><ele>349.0</ele><time>2026-04-18T13:52:39.988Z</time></trkpt><trkpt lat="43.4357353" lon="11.0181814"><ele>349.0</ele><time>2026-04-18T13:52:40.988Z</time></trkpt><trkpt lat="43.4356231" lon="11.0183566"><ele>349.0</ele><time>2026-04-18T13:52:41.989Z</time></trkpt><trkpt lat="43.4355194" lon="11.0185728"><ele>351.3333333333333</ele><time>2026-04-18T13:52:42.988Z</time></trkpt><trkpt lat="43.4354179" lon="11.0188301"><ele>353.6666666666667</ele><time>2026-04-18T13:52:43.989Z</time></trkpt><trkpt lat="43.4353229" lon="11.0190764"><ele>356.0</ele><time>2026-04-18T13:52:44.988Z</time></trkpt><trkpt lat="43.4352301" lon="11.0193125"><ele>356.6666666666667</ele><time>2026-04-18T13:52:45.989Z</time></trkpt><trkpt lat="43.4351465" lon="11.0195302"><ele>357.3333333333333</ele><time>2026-04-18T13:52:46.982Z</time></trkpt><trkpt lat="43.4350691" lon="11.0197305"><ele>358.0</ele><time>2026-04-18T13:52:47.988Z</time></trkpt><trkpt lat="43.4350031" lon="11.0199228"><ele>356.66666666666663</ele><time>2026-04-18T13:52:48.988Z</time></trkpt><trkpt lat="43.4349625" lon="11.0201206"><ele>355.3333333333333</ele><time>2026-04-18T13:52:49.985Z</time></trkpt><trkpt lat="43.4349423" lon="11.0203426"><ele>354.0</ele><time>2026-04-18T13:52:50.984Z</time></trkpt><trkpt lat="43.4349574" lon="11.0206046"><ele>351.6666666666667</ele><time>2026-04-18T13:52:51.988Z</time></trkpt><trkpt lat="43.434968" lon="11.0208529"><ele>349.33333333333337</ele><time>2026-04-18T13:52:52.988Z</time></trkpt><trkpt lat="43.4349779" lon="11.0210821"><ele>347.0</ele><time>2026-04-18T13:52:53.989Z</time></trkpt><trkpt lat="43.4349872" lon="11.021314"><ele>347.0</ele><time>2026-04-18T13:52:54.988Z</time></trkpt><trkpt lat="43.4349703" lon="11.0215449"><ele>347.0</ele><time>2026-04-18T13:52:55.981Z</time></trkpt><trkpt lat="43.434916" lon="11.0217778"><ele>347.0</ele><time>2026-04-18T13:52:56.988Z</time></trkpt><trkpt lat="43.4348397" lon="11.0220024"><ele>345.5</ele><time>2026-04-18T13:52:57.988Z</time></trkpt><trkpt lat="43.4347584" lon="11.0222025"><ele>344.0</ele><time>2026-04-18T13:52:58.985Z</time></trkpt><trkpt lat="43.4346764" lon="11.0223697"><ele>342.5</ele><time>2026-04-18T13:52:59.984Z</time></trkpt><trkpt lat="43.4345867" lon="11.0224891"><ele>341.0</ele><time>2026-04-18T13:53:00.988Z</time></trkpt><trkpt lat="43.4344829" lon="11.02257"><ele>339.0</ele><time>2026-04-18T13:53:01.988Z</time></trkpt><trkpt lat="43.4343565" lon="11.0226044"><ele>337.0</ele><time>2026-04-18T13:53:02.984Z</time></trkpt><trkpt lat="43.4341981" lon="11.0225861"><ele>335.0</ele><time>2026-04-18T13:53:03.988Z</time></trkpt><trkpt lat="43.434032" lon="11.022536"><ele>335.0</ele><time>2026-04-18T13:53:04.982Z</time></trkpt><trkpt lat="43.4338799" lon="11.0224927"><ele>335.0</ele><time>2026-04-18T13:53:05.986Z</time></trkpt><trkpt lat="43.4337328" lon="11.022461"><ele>335.0</ele><time>2026-04-18T13:53:06.987Z</time></trkpt><trkpt lat="43.4336033" lon="11.0224482"><ele>335.0</ele><time>2026-04-18T13:53:07.988Z</time></trkpt><trkpt lat="43.4334849" lon="11.0224742"><ele>334.75</ele><time>2026-04-18T13:53:08.984Z</time></trkpt><trkpt lat="43.4333719" lon="11.0225437"><ele>334.5</ele><time>2026-04-18T13:53:09.989Z</time></trkpt><trkpt lat="43.4332786" lon="11.0226576"><ele>334.25</ele><time>2026-04-18T13:53:10.988Z</time></trkpt><trkpt lat="43.4332059" lon="11.0228154"><ele>334.0</ele><time>2026-04-18T13:53:11.989Z</time></trkpt><trkpt lat="43.4331421" lon="11.0230107"><ele>334.0</ele><time>2026-04-18T13:53:12.986Z</time></trkpt><trkpt lat="43.4330886" lon="11.0232034"><ele>334.0</ele><time>2026-04-18T13:53:13.988Z</time></trkpt><trkpt lat="43.4330324" lon="11.0233788"><ele>334.0</ele><time>2026-04-18T13:53:14.989Z</time></trkpt><trkpt lat="43.4329642" lon="11.0235365"><ele>334.0</ele><time>2026-04-18T13:53:15.988Z</time></trkpt><trkpt lat="43.4328762" lon="11.023666"><ele>333.0</ele><time>2026-04-18T13:53:16.987Z</time></trkpt><trkpt lat="43.432771" lon="11.0237637"><ele>332.0</ele><time>2026-04-18T13:53:17.988Z</time></trkpt><trkpt lat="43.432642" lon="11.0238263"><ele>331.0</ele><time>2026-04-18T13:53:18.987Z</time></trkpt><trkpt lat="43.4324941" lon="11.0238398"><ele>330.0</ele><time>2026-04-18T13:53:19.984Z</time></trkpt><trkpt lat="43.4323394" lon="11.0238123"><ele>330.0</ele><time>2026-04-18T13:53:20.984Z</time></trkpt><trkpt lat="43.4321835" lon="11.0237908"><ele>330.0</ele><time>2026-04-18T13:53:21.988Z</time></trkpt><trkpt lat="43.4320352" lon="11.0237786"><ele>330.0</ele><time>2026-04-18T13:53:22.986Z</time></trkpt><trkpt lat="43.4318811" lon="11.0237849"><ele>330.0</ele><time>2026-04-18T13:53:23.988Z</time></trkpt><trkpt lat="43.4317276" lon="11.0238352"><ele>330.0</ele><time>2026-04-18T13:53:24.98Z</time></trkpt><trkpt lat="43.4315717" lon="11.0239306"><ele>330.0</ele><time>2026-04-18T13:53:25.979Z</time></trkpt><trkpt lat="43.4314066" lon="11.0240583"><ele>324.6666666666667</ele><time>2026-04-18T13:53:26.988Z</time></trkpt><trkpt lat="43.4312549" lon="11.0241741"><ele>319.33333333333337</ele><time>2026-04-18T13:53:27.988Z</time></trkpt><trkpt lat="43.431107" lon="11.024275"><ele>314.0</ele><time>2026-04-18T13:53:28.988Z</time></trkpt><trkpt lat="43.4309494" lon="11.0243446"><ele>314.0</ele><time>2026-04-18T13:53:29.988Z</time></trkpt><trkpt lat="43.430756" lon="11.0244084"><ele>314.0</ele><time>2026-04-18T13:53:30.979Z</time></trkpt><trkpt lat="43.4305452" lon="11.0244465"><ele>314.0</ele><time>2026-04-18T13:53:31.988Z</time></trkpt><trkpt lat="43.4303224" lon="11.0244881"><ele>312.33333333333337</ele><time>2026-04-18T13:53:32.988Z</time></trkpt><trkpt lat="43.4301023" lon="11.0245261"><ele>310.6666666666667</ele><time>2026-04-18T13:53:33.988Z</time></trkpt><trkpt lat="43.4298954" lon="11.0245648"><ele>309.0</ele><time>2026-04-18T13:53:34.988Z</time></trkpt><trkpt lat="43.4297024" lon="11.0245929"><ele>307.3333333333333</ele><time>2026-04-18T13:53:35.988Z</time></trkpt><trkpt lat="43.4295293" lon="11.0246154"><ele>305.66666666666663</ele><time>2026-04-18T13:53:36.989Z</time></trkpt><trkpt lat="43.4293763" lon="11.0246387"><ele>304.0</ele><time>2026-04-18T13:53:37.989Z</time></trkpt><trkpt lat="43.4292344" lon="11.0246807"><ele>304.0</ele><time>2026-04-18T13:53:38.984Z</time></trkpt><trkpt lat="43.4290933" lon="11.0247567"><ele>304.0</ele><time>2026-04-18T13:53:39.988Z</time></trkpt><trkpt lat="43.4289423" lon="11.0248863"><ele>304.0</ele><time>2026-04-18T13:53:40.988Z</time></trkpt><trkpt lat="43.4287876" lon="11.0250535"><ele>299.66666666666663</ele><time>2026-04-18T13:53:41.988Z</time></trkpt><trkpt lat="43.4286457" lon="11.0252206"><ele>295.3333333333333</ele><time>2026-04-18T13:53:42.988Z</time></trkpt><trkpt lat="43.4285158" lon="11.0253775"><ele>291.0</ele><time>2026-04-18T13:53:43.987Z</time></trkpt><trkpt lat="43.4283976" lon="11.0255188"><ele>291.0</ele><time>2026-04-18T13:53:44.988Z</time></trkpt><trkpt lat="43.4282883" lon="11.0256408"><ele>291.0</ele><time>2026-04-18T13:53:45.988Z</time></trkpt><trkpt lat="43.4281722" lon="11.0257401"><ele>291.0</ele><time>2026-04-18T13:53:46.988Z</time></trkpt><trkpt lat="43.4280399" lon="11.0258055"><ele>291.0</ele><time>2026-04-18T13:53:47.988Z</time></trkpt><trkpt lat="43.4278972" lon="11.0258348"><ele>290.3333333333333</ele><time>2026-04-18T13:53:48.979Z</time></trkpt><trkpt lat="43.4277361" lon="11.0258242"><ele>289.66666666666663</ele><time>2026-04-18T13:53:49.988Z</time></trkpt><trkpt lat="43.4275591" lon="11.0257946"><ele>289.0</ele><time>2026-04-18T13:53:50.988Z</time></trkpt><trkpt lat="43.4273797" lon="11.0257614"><ele>287.3333333333333</ele><time>2026-04-18T13:53:51.988Z</time></trkpt><trkpt lat="43.4272149" lon="11.0257344"><ele>285.6666666666667</ele><time>2026-04-18T13:53:52.988Z</time></trkpt><trkpt lat="43.427056" lon="11.0257039"><ele>284.0</ele><time>2026-04-18T13:53:53.988Z</time></trkpt><trkpt lat="43.4268994" lon="11.0256762"><ele>283.0</ele><time>2026-04-18T13:53:54.988Z</time></trkpt><trkpt lat="43.4267475" lon="11.0256232"><ele>282.0</ele><time>2026-04-18T13:53:55.988Z</time></trkpt><trkpt lat="43.4265905" lon="11.0255149"><ele>281.0</ele><time>2026-04-18T13:53:56.987Z</time></trkpt><trkpt lat="43.4264262" lon="11.0253721"><ele>282.0</ele><time>2026-04-18T13:53:57.988Z</time></trkpt><trkpt lat="43.4262696" lon="11.0252263"><ele>283.0</ele><time>2026-04-18T13:53:58.988Z</time></trkpt><trkpt lat="43.4261104" lon="11.0250807"><ele>284.0</ele><time>2026-04-18T13:53:59.988Z</time></trkpt><trkpt lat="43.4259611" lon="11.0249388"><ele>281.0</ele><time>2026-04-18T13:54:00.988Z</time></trkpt><trkpt lat="43.4258184" lon="11.0248019"><ele>278.0</ele><time>2026-04-18T13:54:01.988Z</time></trkpt><trkpt lat="43.4256867" lon="11.0246667"><ele>275.0</ele><time>2026-04-18T13:54:02.988Z</time></trkpt><trkpt lat="43.4255748" lon="11.0245534"><ele>276.5</ele><time>2026-04-18T13:54:03.988Z</time></trkpt><trkpt lat="43.4254703" lon="11.0244595"><ele>278.0</ele><time>2026-04-18T13:54:04.988Z</time></trkpt><trkpt lat="43.4253619" lon="11.0243811"><ele>279.5</ele><time>2026-04-18T13:54:05.988Z</time></trkpt><trkpt lat="43.425241" lon="11.0243311"><ele>281.0</ele><time>2026-04-18T13:54:06.988Z</time></trkpt><trkpt lat="43.4251147" lon="11.0243124"><ele>281.0</ele><time>2026-04-18T13:54:07.987Z</time></trkpt><trkpt lat="43.4249763" lon="11.0243103"><ele>281.0</ele><time>2026-04-18T13:54:08.988Z</time></trkpt><trkpt lat="43.4248228" lon="11.0243256"><ele>281.0</ele><time>2026-04-18T13:54:09.988Z</time></trkpt><trkpt lat="43.4246651" lon="11.0243382"><ele>279.0</ele><time>2026-04-18T13:54:10.988Z</time></trkpt><trkpt lat="43.4244904" lon="11.0243598"><ele>277.0</ele><time>2026-04-18T13:54:11.988Z</time></trkpt><trkpt lat="43.4243189" lon="11.0243758"><ele>275.0</ele><time>2026-04-18T13:54:12.988Z</time></trkpt><trkpt lat="43.4241497" lon="11.0243892"><ele>275.0</ele><time>2026-04-18T13:54:13.988Z</time></trkpt><trkpt lat="43.4239835" lon="11.0244131"><ele>275.0</ele><time>2026-04-18T13:54:14.987Z</time></trkpt><trkpt lat="43.42381" lon="11.0244347"><ele>275.0</ele><time>2026-04-18T13:54:15.988Z</time></trkpt><trkpt lat="43.4236436" lon="11.0244541"><ele>272.0</ele><time>2026-04-18T13:54:16.988Z</time></trkpt><trkpt lat="43.4234811" lon="11.024467"><ele>269.0</ele><time>2026-04-18T13:54:17.989Z</time></trkpt><trkpt lat="43.4233286" lon="11.0244847"><ele>266.0</ele><time>2026-04-18T13:54:18.986Z</time></trkpt><trkpt lat="43.4231764" lon="11.0245038"><ele>266.0</ele><time>2026-04-18T13:54:19.981Z</time></trkpt><trkpt lat="43.423031" lon="11.024521"><ele>266.0</ele><time>2026-04-18T13:54:20.988Z</time></trkpt><trkpt lat="43.4228899" lon="11.0245387"><ele>266.0</ele><time>2026-04-18T13:54:21.988Z</time></trkpt><trkpt lat="43.422763" lon="11.0245595"><ele>266.0</ele><time>2026-04-18T13:54:22.988Z</time></trkpt><trkpt lat="43.4226463" lon="11.0246013"><ele>265.75</ele><time>2026-04-18T13:54:23.988Z</time></trkpt><trkpt lat="43.4225388" lon="11.024681"><ele>265.5</ele><time>2026-04-18T13:54:24.988Z</time></trkpt><trkpt lat="43.4224424" lon="11.0247953"><ele>265.25</ele><time>2026-04-18T13:54:25.988Z</time></trkpt><trkpt lat="43.4223643" lon="11.0249338"><ele>265.0</ele><time>2026-04-18T13:54:26.988Z</time></trkpt><trkpt lat="43.4223054" lon="11.0250927"><ele>265.0</ele><time>2026-04-18T13:54:27.988Z</time></trkpt><trkpt lat="43.4222701" lon="11.0252792"><ele>265.0</ele><time>2026-04-18T13:54:28.988Z</time></trkpt><trkpt lat="43.4222435" lon="11.0254731"><ele>265.0</ele><time>2026-04-18T13:54:29.987Z</time></trkpt><trkpt lat="43.4222162" lon="11.0256523"><ele>265.0</ele><time>2026-04-18T13:54:30.987Z</time></trkpt><trkpt lat="43.4221808" lon="11.0258059"><ele>264.0</ele><time>2026-04-18T13:54:31.988Z</time></trkpt><trkpt lat="43.4221248" lon="11.0259446"><ele>263.0</ele><time>2026-04-18T13:54:32.981Z</time></trkpt><trkpt lat="43.4220405" lon="11.026059"><ele>262.0</ele><time>2026-04-18T13:54:33.982Z</time></trkpt><trkpt lat="43.4219452" lon="11.0261239"><ele>261.0</ele><time>2026-04-18T13:54:34.982Z</time></trkpt><trkpt lat="43.4218466" lon="11.0261494"><ele>260.0</ele><time>2026-04-18T13:54:35.983Z</time></trkpt><trkpt lat="43.4217464" lon="11.0261483"><ele>260.0</ele><time>2026-04-18T13:54:36.984Z</time></trkpt><trkpt lat="43.4216452" lon="11.0260525"><ele>260.0</ele><time>2026-04-18T13:54:37.984Z</time></trkpt><trkpt lat="43.4215532" lon="11.0259284"><ele>260.0</ele><time>2026-04-18T13:54:38.984Z</time></trkpt><trkpt lat="43.4214764" lon="11.0257923"><ele>260.0</ele><time>2026-04-18T13:54:39.978Z</time></trkpt><trkpt lat="43.4213842" lon="11.0256686"><ele>256.75</ele><time>2026-04-18T13:54:40.979Z</time></trkpt><trkpt lat="43.4212743" lon="11.0255616"><ele>253.5</ele><time>2026-04-18T13:54:41.988Z</time></trkpt><trkpt lat="43.4211535" lon="11.0254707"><ele>250.25</ele><time>2026-04-18T13:54:42.988Z</time></trkpt><trkpt lat="43.4210202" lon="11.0254"><ele>247.0</ele><time>2026-04-18T13:54:43.989Z</time></trkpt><trkpt lat="43.4208651" lon="11.0253215"><ele>247.0</ele><time>2026-04-18T13:54:44.988Z</time></trkpt><trkpt lat="43.4206966" lon="11.0252418"><ele>247.0</ele><time>2026-04-18T13:54:45.988Z</time></trkpt><trkpt lat="43.4205379" lon="11.025164"><ele>247.0</ele><time>2026-04-18T13:54:46.988Z</time></trkpt><trkpt lat="43.42038" lon="11.0250866"><ele>247.66666666666666</ele><time>2026-04-18T13:54:47.988Z</time></trkpt><trkpt lat="43.420229" lon="11.02501"><ele>248.33333333333331</ele><time>2026-04-18T13:54:48.988Z</time></trkpt><trkpt lat="43.420087" lon="11.0249364"><ele>249.0</ele><time>2026-04-18T13:54:49.988Z</time></trkpt><trkpt lat="43.4199507" lon="11.0248668"><ele>245.75</ele><time>2026-04-18T13:54:50.986Z</time></trkpt><trkpt lat="43.4198264" lon="11.0248074"><ele>242.5</ele><time>2026-04-18T13:54:51.988Z</time></trkpt><trkpt lat="43.4196986" lon="11.0247603"><ele>239.25</ele><time>2026-04-18T13:54:52.988Z</time></trkpt><trkpt lat="43.4195732" lon="11.0247383"><ele>236.0</ele><time>2026-04-18T13:54:53.982Z</time></trkpt><trkpt lat="43.4194567" lon="11.0247561"><ele>234.25</ele><time>2026-04-18T13:54:54.988Z</time></trkpt><trkpt lat="43.4193333" lon="11.0248013"><ele>232.5</ele><time>2026-04-18T13:54:55.987Z</time></trkpt><trkpt lat="43.4192183" lon="11.0248728"><ele>230.75</ele><time>2026-04-18T13:54:56.989Z</time></trkpt><trkpt lat="43.4191051" lon="11.0249637"><ele>229.0</ele><time>2026-04-18T13:54:57.988Z</time></trkpt><trkpt lat="43.4189939" lon="11.0250581"><ele>229.0</ele><time>2026-04-18T13:54:58.989Z</time></trkpt><trkpt lat="43.4188824" lon="11.0251514"><ele>229.0</ele><time>2026-04-18T13:54:59.988Z</time></trkpt><trkpt lat="43.418772" lon="11.025244"><ele>229.0</ele><time>2026-04-18T13:55:00.988Z</time></trkpt><trkpt lat="43.4186735" lon="11.0253566"><ele>229.0</ele><time>2026-04-18T13:55:01.988Z</time></trkpt><trkpt lat="43.418584" lon="11.0255082"><ele>229.0</ele><time>2026-04-18T13:55:02.989Z</time></trkpt><trkpt lat="43.4185003" lon="11.025698"><ele>229.0</ele><time>2026-04-18T13:55:03.985Z</time></trkpt><trkpt lat="43.4184173" lon="11.0259158"><ele>229.0</ele><time>2026-04-18T13:55:04.989Z</time></trkpt><trkpt lat="43.4183395" lon="11.0261294"><ele>230.0</ele><time>2026-04-18T13:55:05.988Z</time></trkpt><trkpt lat="43.4182656" lon="11.0263361"><ele>231.0</ele><time>2026-04-18T13:55:06.988Z</time></trkpt><trkpt lat="43.4181967" lon="11.0265309"><ele>232.0</ele><time>2026-04-18T13:55:07.987Z</time></trkpt><trkpt lat="43.4181374" lon="11.0267133"><ele>232.0</ele><time>2026-04-18T13:55:08.987Z</time></trkpt><trkpt lat="43.4180927" lon="11.0268976"><ele>232.0</ele><time>2026-04-18T13:55:09.988Z</time></trkpt><trkpt lat="43.418075" lon="11.0271039"><ele>232.0</ele><time>2026-04-18T13:55:10.988Z</time></trkpt><trkpt lat="43.4180847" lon="11.027315"><ele>232.0</ele><time>2026-04-18T13:55:11.988Z</time></trkpt><trkpt lat="43.4181097" lon="11.0275356"><ele>231.0</ele><time>2026-04-18T13:55:12.988Z</time></trkpt><trkpt lat="43.4181511" lon="11.0277421"><ele>230.0</ele><time>2026-04-18T13:55:13.988Z</time></trkpt><trkpt lat="43.418208" lon="11.0279367"><ele>229.0</ele><time>2026-04-18T13:55:14.989Z</time></trkpt><trkpt lat="43.4182874" lon="11.0281116"><ele>229.0</ele><time>2026-04-18T13:55:15.988Z</time></trkpt><trkpt lat="43.4183852" lon="11.0282835"><ele>229.0</ele><time>2026-04-18T13:55:16.988Z</time></trkpt><trkpt lat="43.4185049" lon="11.0284325"><ele>229.0</ele><time>2026-04-18T13:55:17.988Z</time></trkpt><trkpt lat="43.4186512" lon="11.0285825"><ele>227.66666666666666</ele><time>2026-04-18T13:55:18.987Z</time></trkpt><trkpt lat="43.4187979" lon="11.0287131"><ele>226.33333333333331</ele><time>2026-04-18T13:55:19.988Z</time></trkpt><trkpt lat="43.4189474" lon="11.028831"><ele>225.0</ele><time>2026-04-18T13:55:20.988Z</time></trkpt><trkpt lat="43.4190773" lon="11.028939"><ele>225.0</ele><time>2026-04-18T13:55:21.989Z</time></trkpt><trkpt lat="43.4192013" lon="11.029037"><ele>225.0</ele><time>2026-04-18T13:55:22.982Z</time></trkpt><trkpt lat="43.4193062" lon="11.0291227"><ele>225.0</ele><time>2026-04-18T13:55:23.988Z</time></trkpt><trkpt lat="43.4193925" lon="11.029219"><ele>225.0</ele><time>2026-04-18T13:55:24.988Z</time></trkpt><trkpt lat="43.4194662" lon="11.0293329"><ele>223.2</ele><time>2026-04-18T13:55:25.984Z</time></trkpt><trkpt lat="43.4195198" lon="11.0294707"><ele>221.4</ele><time>2026-04-18T13:55:26.988Z</time></trkpt><trkpt lat="43.4195334" lon="11.0296113"><ele>219.60000000000002</ele><time>2026-04-18T13:55:27.988Z</time></trkpt><trkpt lat="43.4195035" lon="11.0297379"><ele>217.8</ele><time>2026-04-18T13:55:28.988Z</time></trkpt><trkpt lat="43.4194525" lon="11.0298641"><ele>216.0</ele><time>2026-04-18T13:55:29.988Z</time></trkpt><trkpt lat="43.4193759" lon="11.029969"><ele>214.75</ele><time>2026-04-18T13:55:30.988Z</time></trkpt><trkpt lat="43.4192625" lon="11.0300429"><ele>213.5</ele><time>2026-04-18T13:55:31.986Z</time></trkpt><trkpt lat="43.4191268" lon="11.0300874"><ele>212.25</ele><time>2026-04-18T13:55:32.988Z</time></trkpt><trkpt lat="43.4189889" lon="11.0301165"><ele>211.0</ele><time>2026-04-18T13:55:33.988Z</time></trkpt><trkpt lat="43.41886" lon="11.0301426"><ele>209.0</ele><time>2026-04-18T13:55:34.988Z</time></trkpt><trkpt lat="43.4187472" lon="11.0301734"><ele>207.0</ele><time>2026-04-18T13:55:35.988Z</time></trkpt><trkpt lat="43.4186437" lon="11.0302243"><ele>205.0</ele><time>2026-04-18T13:55:36.983Z</time></trkpt><trkpt lat="43.4185544" lon="11.030314"><ele>203.0</ele><time>2026-04-18T13:55:37.988Z</time></trkpt><trkpt lat="43.4184838" lon="11.0304396"><ele>203.0</ele><time>2026-04-18T13:55:38.988Z</time></trkpt><trkpt lat="43.4184432" lon="11.0306001"><ele>203.0</ele><time>2026-04-18T13:55:39.988Z</time></trkpt><trkpt lat="43.4184341" lon="11.0307809"><ele>203.0</ele><time>2026-04-18T13:55:40.988Z</time></trkpt><trkpt lat="43.4184474" lon="11.0310052"><ele>203.0</ele><time>2026-04-18T13:55:41.988Z</time></trkpt><trkpt lat="43.4184645" lon="11.0312392"><ele>203.0</ele><time>2026-04-18T13:55:42.989Z</time></trkpt><trkpt lat="43.4184779" lon="11.0314809"><ele>203.0</ele><time>2026-04-18T13:55:43.988Z</time></trkpt><trkpt lat="43.4184938" lon="11.0316994"><ele>203.0</ele><time>2026-04-18T13:55:44.982Z</time></trkpt><trkpt lat="43.4185017" lon="11.0319152"><ele>203.0</ele><time>2026-04-18T13:55:45.988Z</time></trkpt><trkpt lat="43.4185193" lon="11.0321189"><ele>203.0</ele><time>2026-04-18T13:55:46.988Z</time></trkpt><trkpt lat="43.4185311" lon="11.0323082"><ele>203.0</ele><time>2026-04-18T13:55:47.988Z</time></trkpt><trkpt lat="43.4185411" lon="11.0324735"><ele>203.0</ele><time>2026-04-18T13:55:48.988Z</time></trkpt><trkpt lat="43.4185355" lon="11.0326247"><ele>202.8</ele><time>2026-04-18T13:55:49.988Z</time></trkpt><trkpt lat="43.4185043" lon="11.0327567"><ele>202.60000000000002</ele><time>2026-04-18T13:55:50.985Z</time></trkpt><trkpt lat="43.418443" lon="11.0328762"><ele>202.39999999999998</ele><time>2026-04-18T13:55:51.988Z</time></trkpt><trkpt lat="43.4183624" lon="11.0329566"><ele>202.2</ele><time>2026-04-18T13:55:52.988Z</time></trkpt><trkpt lat="43.4182616" lon="11.0329995"><ele>202.0</ele><time>2026-04-18T13:55:53.989Z</time></trkpt><trkpt lat="43.4181614" lon="11.0329953"><ele>202.0</ele><time>2026-04-18T13:55:54.988Z</time></trkpt><trkpt lat="43.41807" lon="11.0329418"><ele>202.0</ele><time>2026-04-18T13:55:55.987Z</time></trkpt><trkpt lat="43.4179842" lon="11.0328715"><ele>202.0</ele><time>2026-04-18T13:55:56.988Z</time></trkpt><trkpt lat="43.417936" lon="11.0327375"><ele>202.0</ele><time>2026-04-18T13:55:57.988Z</time></trkpt><trkpt lat="43.4179087" lon="11.0325834"><ele>202.0</ele><time>2026-04-18T13:55:58.988Z</time></trkpt><trkpt lat="43.4179045" lon="11.0324056"><ele>198.0</ele><time>2026-04-18T13:55:59.988Z</time></trkpt><trkpt lat="43.4179195" lon="11.0322169"><ele>194.0</ele><time>2026-04-18T13:56:00.988Z</time></trkpt><trkpt lat="43.4179327" lon="11.0320301"><ele>190.0</ele><time>2026-04-18T13:56:01.988Z</time></trkpt><trkpt lat="43.4179429" lon="11.0318572"><ele>186.0</ele><time>2026-04-18T13:56:02.988Z</time></trkpt><trkpt lat="43.4179398" lon="11.0316807"><ele>186.5</ele><time>2026-04-18T13:56:03.988Z</time></trkpt><trkpt lat="43.4179199" lon="11.0315134"><ele>187.0</ele><time>2026-04-18T13:56:04.988Z</time></trkpt><trkpt lat="43.4178852" lon="11.0313445"><ele>187.5</ele><time>2026-04-18T13:56:05.977Z</time></trkpt><trkpt lat="43.4178291" lon="11.0311901"><ele>188.0</ele><time>2026-04-18T13:56:06.988Z</time></trkpt><trkpt lat="43.4177602" lon="11.0310348"><ele>188.0</ele><time>2026-04-18T13:56:07.988Z</time></trkpt><trkpt lat="43.4176936" lon="11.0308753"><ele>188.0</ele><time>2026-04-18T13:56:08.985Z</time></trkpt><trkpt lat="43.4176386" lon="11.0307111"><ele>188.0</ele><time>2026-04-18T13:56:09.988Z</time></trkpt><trkpt lat="43.4176007" lon="11.0305556"><ele>188.0</ele><time>2026-04-18T13:56:10.988Z</time></trkpt><trkpt lat="43.4175825" lon="11.0303891"><ele>188.60000000000002</ele><time>2026-04-18T13:56:11.988Z</time></trkpt><trkpt lat="43.4175775" lon="11.0302234"><ele>189.20000000000002</ele><time>2026-04-18T13:56:12.984Z</time></trkpt><trkpt lat="43.4175745" lon="11.0300699"><ele>189.8</ele><time>2026-04-18T13:56:13.984Z</time></trkpt><trkpt lat="43.4175677" lon="11.0299231"><ele>190.4</ele><time>2026-04-18T13:56:14.989Z</time></trkpt><trkpt lat="43.4175481" lon="11.0297891"><ele>191.0</ele><time>2026-04-18T13:56:15.985Z</time></trkpt><trkpt lat="43.4175188" lon="11.0296795"><ele>199.0</ele><time>2026-04-18T13:56:16.988Z</time></trkpt><trkpt lat="43.4174899" lon="11.0296016"><ele>199.0</ele><time>2026-04-18T13:56:17.986Z</time></trkpt><trkpt lat="43.4174617" lon="11.029495"><ele>199.0</ele><time>2026-04-18T13:56:19.989Z</time></trkpt><trkpt lat="43.4174983" lon="11.0293856"><ele>199.0</ele><time>2026-04-18T13:56:22.988Z</time></trkpt></trkseg></trk></gpx>